<?xml version="1.0" encoding="UTF-8" standalone="no" ?>
<gpx xmlns="http://www.topografix.com/GPX/1/1" xmlns:xsi="http://www.w3.org/2001/XMLSchema-instance" xsi:schemaLocation="http://www.topografix.com/GPX/1/1 http://www.topografix.com/GPX/1/1/gpx.xsd" version="1.1" creator="VisuGPX - https://www.visugpx.com">
  <metadata>
    <name>Gattières BAOU ruines du Castelet</name>
    <desc><![CDATA[Jolie sortie au baou en partant du pont de la Manda. Tout monte à VTTAE malgré qq passages techniques en montée et en descente. Les VTTAE avec 1 batterie de 500wh on cramé toute la batterie.]]></desc>
  </metadata>
  <trk>
    <name><![CDATA[Gattières Cyclisme]]></name>
    <trkseg>
      <trkpt lat="43.76142" lon="7.19784">
        <ele>64</ele>
        <time>2021-02-25T08:12:49.000Z</time>
      </trkpt>
      <trkpt lat="43.76103" lon="7.19741">
        <ele>64</ele>
        <time>2021-02-25T08:12:57.000Z</time>
      </trkpt>
      <trkpt lat="43.7607" lon="7.19696">
        <ele>64.599998474121</ele>
        <time>2021-02-25T08:13:05.000Z</time>
      </trkpt>
      <trkpt lat="43.76075" lon="7.1968">
        <ele>64.400001525879</ele>
        <time>2021-02-25T08:13:08.000Z</time>
      </trkpt>
      <trkpt lat="43.76078" lon="7.1967">
        <ele>64</ele>
        <time>2021-02-25T08:13:10.000Z</time>
      </trkpt>
      <trkpt lat="43.76081" lon="7.19665">
        <ele>63.799999237061</ele>
        <time>2021-02-25T08:13:11.000Z</time>
      </trkpt>
      <trkpt lat="43.76084" lon="7.19659">
        <ele>63.400001525879</ele>
        <time>2021-02-25T08:13:12.000Z</time>
      </trkpt>
      <trkpt lat="43.76088" lon="7.19652">
        <ele>63</ele>
        <time>2021-02-25T08:13:13.000Z</time>
      </trkpt>
      <trkpt lat="43.76098" lon="7.1963">
        <ele>61.799999237061</ele>
        <time>2021-02-25T08:13:16.000Z</time>
      </trkpt>
      <trkpt lat="43.76098" lon="7.19601">
        <ele>60.799999237061</ele>
        <time>2021-02-25T08:13:21.000Z</time>
      </trkpt>
      <trkpt lat="43.76094" lon="7.19596">
        <ele>61</ele>
        <time>2021-02-25T08:13:23.000Z</time>
      </trkpt>
      <trkpt lat="43.76089" lon="7.19589">
        <ele>61.799999237061</ele>
        <time>2021-02-25T08:13:26.000Z</time>
      </trkpt>
      <trkpt lat="43.76082" lon="7.19582">
        <ele>63.200000762939</ele>
        <time>2021-02-25T08:13:29.000Z</time>
      </trkpt>
      <trkpt lat="43.76074" lon="7.19572">
        <ele>63.799999237061</ele>
        <time>2021-02-25T08:13:32.000Z</time>
      </trkpt>
      <trkpt lat="43.76045" lon="7.1954">
        <ele>64</ele>
        <time>2021-02-25T08:13:41.000Z</time>
      </trkpt>
      <trkpt lat="43.76013" lon="7.19502">
        <ele>64</ele>
        <time>2021-02-25T08:13:50.000Z</time>
      </trkpt>
      <trkpt lat="43.75969" lon="7.1945">
        <ele>63.799999237061</ele>
        <time>2021-02-25T08:14:01.000Z</time>
      </trkpt>
      <trkpt lat="43.75925" lon="7.19404">
        <ele>63.400001525879</ele>
        <time>2021-02-25T08:14:11.000Z</time>
      </trkpt>
      <trkpt lat="43.75877" lon="7.19359">
        <ele>63.200000762939</ele>
        <time>2021-02-25T08:14:21.000Z</time>
      </trkpt>
      <trkpt lat="43.75872" lon="7.19355">
        <ele>63.200000762939</ele>
        <time>2021-02-25T08:14:22.000Z</time>
      </trkpt>
      <trkpt lat="43.75824" lon="7.19311">
        <ele>62.799999237061</ele>
        <time>2021-02-25T08:14:32.000Z</time>
      </trkpt>
      <trkpt lat="43.75784" lon="7.19276">
        <ele>62.599998474121</ele>
        <time>2021-02-25T08:14:40.000Z</time>
      </trkpt>
      <trkpt lat="43.75738" lon="7.19235">
        <ele>62.200000762939</ele>
        <time>2021-02-25T08:14:49.000Z</time>
      </trkpt>
      <trkpt lat="43.75693" lon="7.19198">
        <ele>62</ele>
        <time>2021-02-25T08:14:58.000Z</time>
      </trkpt>
      <trkpt lat="43.7569" lon="7.19193">
        <ele>62</ele>
        <time>2021-02-25T08:15:00.000Z</time>
      </trkpt>
      <trkpt lat="43.7569" lon="7.19192">
        <ele>62</ele>
        <time>2021-02-25T08:15:01.000Z</time>
      </trkpt>
      <trkpt lat="43.75695" lon="7.19184">
        <ele>62</ele>
        <time>2021-02-25T08:15:05.000Z</time>
      </trkpt>
      <trkpt lat="43.75703" lon="7.19181">
        <ele>61.799999237061</ele>
        <time>2021-02-25T08:15:09.000Z</time>
      </trkpt>
      <trkpt lat="43.75702" lon="7.19172">
        <ele>61.400001525879</ele>
        <time>2021-02-25T08:15:12.000Z</time>
      </trkpt>
      <trkpt lat="43.75711" lon="7.19161">
        <ele>61.400001525879</ele>
        <time>2021-02-25T08:15:16.000Z</time>
      </trkpt>
      <trkpt lat="43.75717" lon="7.19158">
        <ele>61.200000762939</ele>
        <time>2021-02-25T08:15:18.000Z</time>
      </trkpt>
      <trkpt lat="43.75723" lon="7.19152">
        <ele>60.799999237061</ele>
        <time>2021-02-25T08:15:21.000Z</time>
      </trkpt>
      <trkpt lat="43.75733" lon="7.19131">
        <ele>61.400001525879</ele>
        <time>2021-02-25T08:15:27.000Z</time>
      </trkpt>
      <trkpt lat="43.7575" lon="7.19099">
        <ele>61.200000762939</ele>
        <time>2021-02-25T08:15:35.000Z</time>
      </trkpt>
      <trkpt lat="43.75772" lon="7.19061">
        <ele>61.400001525879</ele>
        <time>2021-02-25T08:15:44.000Z</time>
      </trkpt>
      <trkpt lat="43.75786" lon="7.19031">
        <ele>61.400001525879</ele>
        <time>2021-02-25T08:15:51.000Z</time>
      </trkpt>
      <trkpt lat="43.75795" lon="7.19015">
        <ele>62.200000762939</ele>
        <time>2021-02-25T08:15:56.000Z</time>
      </trkpt>
      <trkpt lat="43.75794" lon="7.19013">
        <ele>62.400001525879</ele>
        <time>2021-02-25T08:15:57.000Z</time>
      </trkpt>
      <trkpt lat="43.75797" lon="7.18999">
        <ele>62.599998474121</ele>
        <time>2021-02-25T08:16:02.000Z</time>
      </trkpt>
      <trkpt lat="43.75801" lon="7.18991">
        <ele>62.400001525879</ele>
        <time>2021-02-25T08:16:04.000Z</time>
      </trkpt>
      <trkpt lat="43.75811" lon="7.18974">
        <ele>61.599998474121</ele>
        <time>2021-02-25T08:16:09.000Z</time>
      </trkpt>
      <trkpt lat="43.75817" lon="7.18963">
        <ele>61.200000762939</ele>
        <time>2021-02-25T08:16:12.000Z</time>
      </trkpt>
      <trkpt lat="43.75835" lon="7.18931">
        <ele>61.200000762939</ele>
        <time>2021-02-25T08:16:20.000Z</time>
      </trkpt>
      <trkpt lat="43.75859" lon="7.18891">
        <ele>61.400001525879</ele>
        <time>2021-02-25T08:16:31.000Z</time>
      </trkpt>
      <trkpt lat="43.7586" lon="7.18883">
        <ele>62.400001525879</ele>
        <time>2021-02-25T08:16:35.000Z</time>
      </trkpt>
      <trkpt lat="43.7586" lon="7.18879">
        <ele>62.599998474121</ele>
        <time>2021-02-25T08:16:36.000Z</time>
      </trkpt>
      <trkpt lat="43.75854" lon="7.18869">
        <ele>62.599998474121</ele>
        <time>2021-02-25T08:16:39.000Z</time>
      </trkpt>
      <trkpt lat="43.75851" lon="7.18865">
        <ele>62.599998474121</ele>
        <time>2021-02-25T08:16:40.000Z</time>
      </trkpt>
      <trkpt lat="43.75833" lon="7.18839">
        <ele>62</ele>
        <time>2021-02-25T08:16:47.000Z</time>
      </trkpt>
      <trkpt lat="43.75812" lon="7.18809">
        <ele>62</ele>
        <time>2021-02-25T08:16:55.000Z</time>
      </trkpt>
      <trkpt lat="43.75792" lon="7.18779">
        <ele>61.599998474121</ele>
        <time>2021-02-25T08:17:02.000Z</time>
      </trkpt>
      <trkpt lat="43.75783" lon="7.18766">
        <ele>61.400001525879</ele>
        <time>2021-02-25T08:17:05.000Z</time>
      </trkpt>
      <trkpt lat="43.75772" lon="7.1875">
        <ele>61.599998474121</ele>
        <time>2021-02-25T08:17:09.000Z</time>
      </trkpt>
      <trkpt lat="43.75763" lon="7.18731">
        <ele>61.200000762939</ele>
        <time>2021-02-25T08:17:13.000Z</time>
      </trkpt>
      <trkpt lat="43.75765" lon="7.18726">
        <ele>61.200000762939</ele>
        <time>2021-02-25T08:17:14.000Z</time>
      </trkpt>
      <trkpt lat="43.75771" lon="7.18712">
        <ele>60.799999237061</ele>
        <time>2021-02-25T08:17:18.000Z</time>
      </trkpt>
      <trkpt lat="43.75775" lon="7.18696">
        <ele>62.400001525879</ele>
        <time>2021-02-25T08:17:24.000Z</time>
      </trkpt>
      <trkpt lat="43.75776" lon="7.18691">
        <ele>62.799999237061</ele>
        <time>2021-02-25T08:17:26.000Z</time>
      </trkpt>
      <trkpt lat="43.75776" lon="7.18685">
        <ele>63.599998474121</ele>
        <time>2021-02-25T08:17:28.000Z</time>
      </trkpt>
      <trkpt lat="43.75778" lon="7.18675">
        <ele>64.800003051758</ele>
        <time>2021-02-25T08:17:31.000Z</time>
      </trkpt>
      <trkpt lat="43.7578" lon="7.18666">
        <ele>66</ele>
        <time>2021-02-25T08:17:34.000Z</time>
      </trkpt>
      <trkpt lat="43.75783" lon="7.18658">
        <ele>67.199996948242</ele>
        <time>2021-02-25T08:17:36.000Z</time>
      </trkpt>
      <trkpt lat="43.75785" lon="7.1865">
        <ele>68.400001525879</ele>
        <time>2021-02-25T08:17:38.000Z</time>
      </trkpt>
      <trkpt lat="43.75786" lon="7.18644">
        <ele>69.800003051758</ele>
        <time>2021-02-25T08:17:40.000Z</time>
      </trkpt>
      <trkpt lat="43.75788" lon="7.18641">
        <ele>70.400001525879</ele>
        <time>2021-02-25T08:17:41.000Z</time>
      </trkpt>
      <trkpt lat="43.75791" lon="7.18638">
        <ele>71</ele>
        <time>2021-02-25T08:17:42.000Z</time>
      </trkpt>
      <trkpt lat="43.75796" lon="7.18632">
        <ele>72.199996948242</ele>
        <time>2021-02-25T08:17:44.000Z</time>
      </trkpt>
      <trkpt lat="43.75801" lon="7.18629">
        <ele>73.400001525879</ele>
        <time>2021-02-25T08:17:46.000Z</time>
      </trkpt>
      <trkpt lat="43.75804" lon="7.18625">
        <ele>74.800003051758</ele>
        <time>2021-02-25T08:17:48.000Z</time>
      </trkpt>
      <trkpt lat="43.75805" lon="7.18622">
        <ele>75.400001525879</ele>
        <time>2021-02-25T08:17:49.000Z</time>
      </trkpt>
      <trkpt lat="43.75804" lon="7.18619">
        <ele>76</ele>
        <time>2021-02-25T08:17:50.000Z</time>
      </trkpt>
      <trkpt lat="43.75803" lon="7.18612">
        <ele>77.400001525879</ele>
        <time>2021-02-25T08:17:52.000Z</time>
      </trkpt>
      <trkpt lat="43.75803" lon="7.18605">
        <ele>78.800003051758</ele>
        <time>2021-02-25T08:17:54.000Z</time>
      </trkpt>
      <trkpt lat="43.75804" lon="7.18602">
        <ele>79.400001525879</ele>
        <time>2021-02-25T08:17:55.000Z</time>
      </trkpt>
      <trkpt lat="43.75804" lon="7.18599">
        <ele>80</ele>
        <time>2021-02-25T08:17:56.000Z</time>
      </trkpt>
      <trkpt lat="43.75803" lon="7.18593">
        <ele>81.199996948242</ele>
        <time>2021-02-25T08:17:58.000Z</time>
      </trkpt>
      <trkpt lat="43.758" lon="7.18588">
        <ele>82.199996948242</ele>
        <time>2021-02-25T08:18:00.000Z</time>
      </trkpt>
      <trkpt lat="43.75798" lon="7.18585">
        <ele>82.599998474121</ele>
        <time>2021-02-25T08:18:01.000Z</time>
      </trkpt>
      <trkpt lat="43.75795" lon="7.18575">
        <ele>83.599998474121</ele>
        <time>2021-02-25T08:18:04.000Z</time>
      </trkpt>
      <trkpt lat="43.75794" lon="7.18568">
        <ele>84.400001525879</ele>
        <time>2021-02-25T08:18:06.000Z</time>
      </trkpt>
      <trkpt lat="43.75792" lon="7.18561">
        <ele>84.800003051758</ele>
        <time>2021-02-25T08:18:08.000Z</time>
      </trkpt>
      <trkpt lat="43.75789" lon="7.18548">
        <ele>86</ele>
        <time>2021-02-25T08:18:12.000Z</time>
      </trkpt>
      <trkpt lat="43.75788" lon="7.18542">
        <ele>86.599998474121</ele>
        <time>2021-02-25T08:18:14.000Z</time>
      </trkpt>
      <trkpt lat="43.75786" lon="7.18536">
        <ele>87.199996948242</ele>
        <time>2021-02-25T08:18:16.000Z</time>
      </trkpt>
      <trkpt lat="43.75783" lon="7.18528">
        <ele>88.599998474121</ele>
        <time>2021-02-25T08:18:20.000Z</time>
      </trkpt>
      <trkpt lat="43.75785" lon="7.18528">
        <ele>89.199996948242</ele>
        <time>2021-02-25T08:18:23.000Z</time>
      </trkpt>
      <trkpt lat="43.75785" lon="7.18527">
        <ele>89.599998474121</ele>
        <time>2021-02-25T08:18:24.000Z</time>
      </trkpt>
      <trkpt lat="43.75785" lon="7.18527">
        <ele>89.599998474121</ele>
        <time>2021-02-25T08:18:32.000Z</time>
      </trkpt>
      <trkpt lat="43.75786" lon="7.18525">
        <ele>89.599998474121</ele>
        <time>2021-02-25T08:18:44.000Z</time>
      </trkpt>
      <trkpt lat="43.75786" lon="7.18523">
        <ele>89.599998474121</ele>
        <time>2021-02-25T08:18:45.000Z</time>
      </trkpt>
      <trkpt lat="43.75781" lon="7.18514">
        <ele>90.400001525879</ele>
        <time>2021-02-25T08:18:49.000Z</time>
      </trkpt>
      <trkpt lat="43.75779" lon="7.18512">
        <ele>90.800003051758</ele>
        <time>2021-02-25T08:18:50.000Z</time>
      </trkpt>
      <trkpt lat="43.75778" lon="7.18505">
        <ele>92</ele>
        <time>2021-02-25T08:18:53.000Z</time>
      </trkpt>
      <trkpt lat="43.75776" lon="7.18501">
        <ele>93</ele>
        <time>2021-02-25T08:18:55.000Z</time>
      </trkpt>
      <trkpt lat="43.75775" lon="7.185">
        <ele>93.199996948242</ele>
        <time>2021-02-25T08:18:56.000Z</time>
      </trkpt>
      <trkpt lat="43.75769" lon="7.18492">
        <ele>94.400001525879</ele>
        <time>2021-02-25T08:19:01.000Z</time>
      </trkpt>
      <trkpt lat="43.75764" lon="7.18486">
        <ele>95.800003051758</ele>
        <time>2021-02-25T08:19:05.000Z</time>
      </trkpt>
      <trkpt lat="43.75761" lon="7.18482">
        <ele>96.800003051758</ele>
        <time>2021-02-25T08:19:08.000Z</time>
      </trkpt>
      <trkpt lat="43.75759" lon="7.1848">
        <ele>97.199996948242</ele>
        <time>2021-02-25T08:19:09.000Z</time>
      </trkpt>
      <trkpt lat="43.75755" lon="7.18476">
        <ele>98</ele>
        <time>2021-02-25T08:19:12.000Z</time>
      </trkpt>
      <trkpt lat="43.7575" lon="7.1847">
        <ele>99.199996948242</ele>
        <time>2021-02-25T08:19:16.000Z</time>
      </trkpt>
      <trkpt lat="43.75749" lon="7.18469">
        <ele>99.400001525879</ele>
        <time>2021-02-25T08:19:17.000Z</time>
      </trkpt>
      <trkpt lat="43.75743" lon="7.18459">
        <ele>100.19999694824</ele>
        <time>2021-02-25T08:19:21.000Z</time>
      </trkpt>
      <trkpt lat="43.75738" lon="7.18454">
        <ele>100.80000305176</ele>
        <time>2021-02-25T08:19:23.000Z</time>
      </trkpt>
      <trkpt lat="43.75735" lon="7.18451">
        <ele>101.40000152588</ele>
        <time>2021-02-25T08:19:24.000Z</time>
      </trkpt>
      <trkpt lat="43.75732" lon="7.18447">
        <ele>102.59999847412</ele>
        <time>2021-02-25T08:19:27.000Z</time>
      </trkpt>
      <trkpt lat="43.75731" lon="7.18444">
        <ele>103.40000152588</ele>
        <time>2021-02-25T08:19:28.000Z</time>
      </trkpt>
      <trkpt lat="43.75731" lon="7.18441">
        <ele>104.19999694824</ele>
        <time>2021-02-25T08:19:29.000Z</time>
      </trkpt>
      <trkpt lat="43.75731" lon="7.18435">
        <ele>105.40000152588</ele>
        <time>2021-02-25T08:19:31.000Z</time>
      </trkpt>
      <trkpt lat="43.75731" lon="7.18433">
        <ele>106</ele>
        <time>2021-02-25T08:19:33.000Z</time>
      </trkpt>
      <trkpt lat="43.75729" lon="7.18425">
        <ele>106.59999847412</ele>
        <time>2021-02-25T08:19:36.000Z</time>
      </trkpt>
      <trkpt lat="43.75727" lon="7.18422">
        <ele>107.40000152588</ele>
        <time>2021-02-25T08:19:38.000Z</time>
      </trkpt>
      <trkpt lat="43.75726" lon="7.18421">
        <ele>107.80000305176</ele>
        <time>2021-02-25T08:19:39.000Z</time>
      </trkpt>
      <trkpt lat="43.75727" lon="7.18417">
        <ele>109.40000152588</ele>
        <time>2021-02-25T08:19:41.000Z</time>
      </trkpt>
      <trkpt lat="43.75726" lon="7.18418">
        <ele>110</ele>
        <time>2021-02-25T08:19:42.000Z</time>
      </trkpt>
      <trkpt lat="43.75726" lon="7.18418">
        <ele>110.80000305176</ele>
        <time>2021-02-25T08:19:43.000Z</time>
      </trkpt>
      <trkpt lat="43.75726" lon="7.18418">
        <ele>110.59999847412</ele>
        <time>2021-02-25T08:19:50.000Z</time>
      </trkpt>
      <trkpt lat="43.75727" lon="7.18417">
        <ele>111.19999694824</ele>
        <time>2021-02-25T08:19:59.000Z</time>
      </trkpt>
      <trkpt lat="43.75729" lon="7.18414">
        <ele>111.59999847412</ele>
        <time>2021-02-25T08:20:06.000Z</time>
      </trkpt>
      <trkpt lat="43.75729" lon="7.18414">
        <ele>111.80000305176</ele>
        <time>2021-02-25T08:20:08.000Z</time>
      </trkpt>
      <trkpt lat="43.75728" lon="7.18412">
        <ele>112.40000152588</ele>
        <time>2021-02-25T08:20:12.000Z</time>
      </trkpt>
      <trkpt lat="43.75727" lon="7.1841">
        <ele>112.80000305176</ele>
        <time>2021-02-25T08:20:15.000Z</time>
      </trkpt>
      <trkpt lat="43.75726" lon="7.18407">
        <ele>114</ele>
        <time>2021-02-25T08:20:20.000Z</time>
      </trkpt>
      <trkpt lat="43.75726" lon="7.18407">
        <ele>114.40000152588</ele>
        <time>2021-02-25T08:20:21.000Z</time>
      </trkpt>
      <trkpt lat="43.75729" lon="7.184">
        <ele>114.80000305176</ele>
        <time>2021-02-25T08:20:30.000Z</time>
      </trkpt>
      <trkpt lat="43.75729" lon="7.18397">
        <ele>115.19999694824</ele>
        <time>2021-02-25T08:20:32.000Z</time>
      </trkpt>
      <trkpt lat="43.7573" lon="7.18389">
        <ele>116.59999847412</ele>
        <time>2021-02-25T08:20:35.000Z</time>
      </trkpt>
      <trkpt lat="43.7573" lon="7.18385">
        <ele>117</ele>
        <time>2021-02-25T08:20:36.000Z</time>
      </trkpt>
      <trkpt lat="43.75731" lon="7.18383">
        <ele>117.59999847412</ele>
        <time>2021-02-25T08:20:37.000Z</time>
      </trkpt>
      <trkpt lat="43.75731" lon="7.18377">
        <ele>118.59999847412</ele>
        <time>2021-02-25T08:20:39.000Z</time>
      </trkpt>
      <trkpt lat="43.75731" lon="7.18371">
        <ele>119.80000305176</ele>
        <time>2021-02-25T08:20:41.000Z</time>
      </trkpt>
      <trkpt lat="43.75732" lon="7.18369">
        <ele>120.40000152588</ele>
        <time>2021-02-25T08:20:42.000Z</time>
      </trkpt>
      <trkpt lat="43.75732" lon="7.18367">
        <ele>121</ele>
        <time>2021-02-25T08:20:43.000Z</time>
      </trkpt>
      <trkpt lat="43.75732" lon="7.18363">
        <ele>122</ele>
        <time>2021-02-25T08:20:45.000Z</time>
      </trkpt>
      <trkpt lat="43.75731" lon="7.18355">
        <ele>123.19999694824</ele>
        <time>2021-02-25T08:20:48.000Z</time>
      </trkpt>
      <trkpt lat="43.75731" lon="7.18347">
        <ele>124.19999694824</ele>
        <time>2021-02-25T08:20:51.000Z</time>
      </trkpt>
      <trkpt lat="43.7573" lon="7.18343">
        <ele>125.40000152588</ele>
        <time>2021-02-25T08:20:53.000Z</time>
      </trkpt>
      <trkpt lat="43.75729" lon="7.18339">
        <ele>126.80000305176</ele>
        <time>2021-02-25T08:20:55.000Z</time>
      </trkpt>
      <trkpt lat="43.7573" lon="7.18337">
        <ele>127.40000152588</ele>
        <time>2021-02-25T08:20:56.000Z</time>
      </trkpt>
      <trkpt lat="43.75732" lon="7.18336">
        <ele>127.80000305176</ele>
        <time>2021-02-25T08:20:57.000Z</time>
      </trkpt>
      <trkpt lat="43.75734" lon="7.18336">
        <ele>128.39999389648</ele>
        <time>2021-02-25T08:20:58.000Z</time>
      </trkpt>
      <trkpt lat="43.75738" lon="7.18336">
        <ele>129.19999694824</ele>
        <time>2021-02-25T08:21:00.000Z</time>
      </trkpt>
      <trkpt lat="43.75739" lon="7.18335">
        <ele>129.39999389648</ele>
        <time>2021-02-25T08:21:01.000Z</time>
      </trkpt>
      <trkpt lat="43.75741" lon="7.1833">
        <ele>130.19999694824</ele>
        <time>2021-02-25T08:21:03.000Z</time>
      </trkpt>
      <trkpt lat="43.75741" lon="7.18327">
        <ele>130.60000610352</ele>
        <time>2021-02-25T08:21:04.000Z</time>
      </trkpt>
      <trkpt lat="43.75742" lon="7.18325">
        <ele>131</ele>
        <time>2021-02-25T08:21:05.000Z</time>
      </trkpt>
      <trkpt lat="43.75744" lon="7.18322">
        <ele>132.19999694824</ele>
        <time>2021-02-25T08:21:07.000Z</time>
      </trkpt>
      <trkpt lat="43.75746" lon="7.18322">
        <ele>132.80000305176</ele>
        <time>2021-02-25T08:21:08.000Z</time>
      </trkpt>
      <trkpt lat="43.75747" lon="7.18322">
        <ele>133.39999389648</ele>
        <time>2021-02-25T08:21:09.000Z</time>
      </trkpt>
      <trkpt lat="43.75748" lon="7.18322">
        <ele>134.60000610352</ele>
        <time>2021-02-25T08:21:12.000Z</time>
      </trkpt>
      <trkpt lat="43.75748" lon="7.18322">
        <ele>134.80000305176</ele>
        <time>2021-02-25T08:21:13.000Z</time>
      </trkpt>
      <trkpt lat="43.75748" lon="7.18322">
        <ele>135.19999694824</ele>
        <time>2021-02-25T08:21:22.000Z</time>
      </trkpt>
      <trkpt lat="43.75748" lon="7.18322">
        <ele>135</ele>
        <time>2021-02-25T08:21:31.000Z</time>
      </trkpt>
      <trkpt lat="43.75748" lon="7.18322">
        <ele>135</ele>
        <time>2021-02-25T08:21:43.000Z</time>
      </trkpt>
      <trkpt lat="43.75748" lon="7.18321">
        <ele>135</ele>
        <time>2021-02-25T08:22:09.000Z</time>
      </trkpt>
      <trkpt lat="43.75748" lon="7.18321">
        <ele>135.19999694824</ele>
        <time>2021-02-25T08:22:26.000Z</time>
      </trkpt>
      <trkpt lat="43.75749" lon="7.18321">
        <ele>135.19999694824</ele>
        <time>2021-02-25T08:22:40.000Z</time>
      </trkpt>
      <trkpt lat="43.75749" lon="7.18321">
        <ele>135.19999694824</ele>
        <time>2021-02-25T08:23:02.000Z</time>
      </trkpt>
      <trkpt lat="43.75755" lon="7.18319">
        <ele>135.19999694824</ele>
        <time>2021-02-25T08:23:11.000Z</time>
      </trkpt>
      <trkpt lat="43.75765" lon="7.18317">
        <ele>135.60000610352</ele>
        <time>2021-02-25T08:23:15.000Z</time>
      </trkpt>
      <trkpt lat="43.75768" lon="7.18316">
        <ele>136</ele>
        <time>2021-02-25T08:23:16.000Z</time>
      </trkpt>
      <trkpt lat="43.75769" lon="7.18314">
        <ele>136.19999694824</ele>
        <time>2021-02-25T08:23:17.000Z</time>
      </trkpt>
      <trkpt lat="43.75768" lon="7.18307">
        <ele>137.60000610352</ele>
        <time>2021-02-25T08:23:19.000Z</time>
      </trkpt>
      <trkpt lat="43.75769" lon="7.183">
        <ele>138.80000305176</ele>
        <time>2021-02-25T08:23:21.000Z</time>
      </trkpt>
      <trkpt lat="43.75773" lon="7.18295">
        <ele>140.19999694824</ele>
        <time>2021-02-25T08:23:23.000Z</time>
      </trkpt>
      <trkpt lat="43.75775" lon="7.18294">
        <ele>140.80000305176</ele>
        <time>2021-02-25T08:23:24.000Z</time>
      </trkpt>
      <trkpt lat="43.75778" lon="7.18293">
        <ele>141.39999389648</ele>
        <time>2021-02-25T08:23:25.000Z</time>
      </trkpt>
      <trkpt lat="43.75782" lon="7.18291">
        <ele>142.60000610352</ele>
        <time>2021-02-25T08:23:27.000Z</time>
      </trkpt>
      <trkpt lat="43.75787" lon="7.18287">
        <ele>144</ele>
        <time>2021-02-25T08:23:29.000Z</time>
      </trkpt>
      <trkpt lat="43.75792" lon="7.18283">
        <ele>145.60000610352</ele>
        <time>2021-02-25T08:23:31.000Z</time>
      </trkpt>
      <trkpt lat="43.75793" lon="7.18281">
        <ele>146.39999389648</ele>
        <time>2021-02-25T08:23:32.000Z</time>
      </trkpt>
      <trkpt lat="43.75795" lon="7.18279">
        <ele>147.19999694824</ele>
        <time>2021-02-25T08:23:33.000Z</time>
      </trkpt>
      <trkpt lat="43.75799" lon="7.18276">
        <ele>148.80000305176</ele>
        <time>2021-02-25T08:23:35.000Z</time>
      </trkpt>
      <trkpt lat="43.75803" lon="7.18273">
        <ele>150</ele>
        <time>2021-02-25T08:23:37.000Z</time>
      </trkpt>
      <trkpt lat="43.75808" lon="7.1827">
        <ele>151.19999694824</ele>
        <time>2021-02-25T08:23:39.000Z</time>
      </trkpt>
      <trkpt lat="43.75812" lon="7.18268">
        <ele>152.60000610352</ele>
        <time>2021-02-25T08:23:41.000Z</time>
      </trkpt>
      <trkpt lat="43.75816" lon="7.18264">
        <ele>153.60000610352</ele>
        <time>2021-02-25T08:23:43.000Z</time>
      </trkpt>
      <trkpt lat="43.75821" lon="7.18262">
        <ele>154.60000610352</ele>
        <time>2021-02-25T08:23:45.000Z</time>
      </trkpt>
      <trkpt lat="43.75825" lon="7.18261">
        <ele>156</ele>
        <time>2021-02-25T08:23:47.000Z</time>
      </trkpt>
      <trkpt lat="43.75827" lon="7.18261">
        <ele>157.60000610352</ele>
        <time>2021-02-25T08:23:49.000Z</time>
      </trkpt>
      <trkpt lat="43.75828" lon="7.18261">
        <ele>158.19999694824</ele>
        <time>2021-02-25T08:23:50.000Z</time>
      </trkpt>
      <trkpt lat="43.75828" lon="7.1826">
        <ele>158.60000610352</ele>
        <time>2021-02-25T08:23:52.000Z</time>
      </trkpt>
      <trkpt lat="43.75827" lon="7.1826">
        <ele>159.80000305176</ele>
        <time>2021-02-25T08:23:57.000Z</time>
      </trkpt>
      <trkpt lat="43.75825" lon="7.1826">
        <ele>160.19999694824</ele>
        <time>2021-02-25T08:24:05.000Z</time>
      </trkpt>
      <trkpt lat="43.75826" lon="7.1826">
        <ele>160.39999389648</ele>
        <time>2021-02-25T08:24:14.000Z</time>
      </trkpt>
      <trkpt lat="43.75825" lon="7.18258">
        <ele>160.19999694824</ele>
        <time>2021-02-25T08:24:17.000Z</time>
      </trkpt>
      <trkpt lat="43.75823" lon="7.18256">
        <ele>160.19999694824</ele>
        <time>2021-02-25T08:24:19.000Z</time>
      </trkpt>
      <trkpt lat="43.75817" lon="7.18251">
        <ele>160.80000305176</ele>
        <time>2021-02-25T08:24:23.000Z</time>
      </trkpt>
      <trkpt lat="43.75816" lon="7.18249">
        <ele>161.39999389648</ele>
        <time>2021-02-25T08:24:24.000Z</time>
      </trkpt>
      <trkpt lat="43.75817" lon="7.18248">
        <ele>161.80000305176</ele>
        <time>2021-02-25T08:24:25.000Z</time>
      </trkpt>
      <trkpt lat="43.75818" lon="7.18247">
        <ele>162</ele>
        <time>2021-02-25T08:24:26.000Z</time>
      </trkpt>
      <trkpt lat="43.75823" lon="7.18247">
        <ele>163.19999694824</ele>
        <time>2021-02-25T08:24:29.000Z</time>
      </trkpt>
      <trkpt lat="43.75825" lon="7.18248">
        <ele>163.39999389648</ele>
        <time>2021-02-25T08:24:30.000Z</time>
      </trkpt>
      <trkpt lat="43.7583" lon="7.18249">
        <ele>164.39999389648</ele>
        <time>2021-02-25T08:24:34.000Z</time>
      </trkpt>
      <trkpt lat="43.7583" lon="7.18247">
        <ele>164.60000610352</ele>
        <time>2021-02-25T08:24:35.000Z</time>
      </trkpt>
      <trkpt lat="43.75829" lon="7.18243">
        <ele>165.39999389648</ele>
        <time>2021-02-25T08:24:38.000Z</time>
      </trkpt>
      <trkpt lat="43.75826" lon="7.1824">
        <ele>165.80000305176</ele>
        <time>2021-02-25T08:24:40.000Z</time>
      </trkpt>
      <trkpt lat="43.75826" lon="7.18238">
        <ele>166.19999694824</ele>
        <time>2021-02-25T08:24:41.000Z</time>
      </trkpt>
      <trkpt lat="43.75828" lon="7.18234">
        <ele>166.80000305176</ele>
        <time>2021-02-25T08:24:43.000Z</time>
      </trkpt>
      <trkpt lat="43.75834" lon="7.18236">
        <ele>167.80000305176</ele>
        <time>2021-02-25T08:24:46.000Z</time>
      </trkpt>
      <trkpt lat="43.75835" lon="7.18237">
        <ele>168.19999694824</ele>
        <time>2021-02-25T08:24:47.000Z</time>
      </trkpt>
      <trkpt lat="43.75836" lon="7.18237">
        <ele>169</ele>
        <time>2021-02-25T08:24:50.000Z</time>
      </trkpt>
      <trkpt lat="43.75836" lon="7.18237">
        <ele>169.39999389648</ele>
        <time>2021-02-25T08:24:51.000Z</time>
      </trkpt>
      <trkpt lat="43.75837" lon="7.18235">
        <ele>169.80000305176</ele>
        <time>2021-02-25T08:24:54.000Z</time>
      </trkpt>
      <trkpt lat="43.75837" lon="7.1823">
        <ele>170</ele>
        <time>2021-02-25T08:24:56.000Z</time>
      </trkpt>
      <trkpt lat="43.75835" lon="7.18226">
        <ele>170.80000305176</ele>
        <time>2021-02-25T08:24:58.000Z</time>
      </trkpt>
      <trkpt lat="43.75831" lon="7.18224">
        <ele>171.80000305176</ele>
        <time>2021-02-25T08:25:01.000Z</time>
      </trkpt>
      <trkpt lat="43.7583" lon="7.18222">
        <ele>172.39999389648</ele>
        <time>2021-02-25T08:25:02.000Z</time>
      </trkpt>
      <trkpt lat="43.75831" lon="7.18217">
        <ele>173</ele>
        <time>2021-02-25T08:25:04.000Z</time>
      </trkpt>
      <trkpt lat="43.75837" lon="7.18213">
        <ele>174</ele>
        <time>2021-02-25T08:25:08.000Z</time>
      </trkpt>
      <trkpt lat="43.75838" lon="7.18212">
        <ele>174.60000610352</ele>
        <time>2021-02-25T08:25:09.000Z</time>
      </trkpt>
      <trkpt lat="43.7584" lon="7.18212">
        <ele>175</ele>
        <time>2021-02-25T08:25:10.000Z</time>
      </trkpt>
      <trkpt lat="43.75841" lon="7.18212">
        <ele>176.19999694824</ele>
        <time>2021-02-25T08:25:12.000Z</time>
      </trkpt>
      <trkpt lat="43.75841" lon="7.18211">
        <ele>176.60000610352</ele>
        <time>2021-02-25T08:25:13.000Z</time>
      </trkpt>
      <trkpt lat="43.75841" lon="7.18211">
        <ele>177.39999389648</ele>
        <time>2021-02-25T08:25:15.000Z</time>
      </trkpt>
      <trkpt lat="43.75839" lon="7.1821">
        <ele>177.80000305176</ele>
        <time>2021-02-25T08:25:17.000Z</time>
      </trkpt>
      <trkpt lat="43.75834" lon="7.1821">
        <ele>178</ele>
        <time>2021-02-25T08:25:20.000Z</time>
      </trkpt>
      <trkpt lat="43.75833" lon="7.18208">
        <ele>178.19999694824</ele>
        <time>2021-02-25T08:25:21.000Z</time>
      </trkpt>
      <trkpt lat="43.75834" lon="7.18205">
        <ele>178.39999389648</ele>
        <time>2021-02-25T08:25:22.000Z</time>
      </trkpt>
      <trkpt lat="43.75838" lon="7.18202">
        <ele>179</ele>
        <time>2021-02-25T08:25:24.000Z</time>
      </trkpt>
      <trkpt lat="43.75841" lon="7.182">
        <ele>179.39999389648</ele>
        <time>2021-02-25T08:25:26.000Z</time>
      </trkpt>
      <trkpt lat="43.75843" lon="7.18199">
        <ele>179.80000305176</ele>
        <time>2021-02-25T08:25:27.000Z</time>
      </trkpt>
      <trkpt lat="43.75846" lon="7.18196">
        <ele>180.39999389648</ele>
        <time>2021-02-25T08:25:29.000Z</time>
      </trkpt>
      <trkpt lat="43.75847" lon="7.18195">
        <ele>180.80000305176</ele>
        <time>2021-02-25T08:25:30.000Z</time>
      </trkpt>
      <trkpt lat="43.75849" lon="7.18192">
        <ele>182</ele>
        <time>2021-02-25T08:25:32.000Z</time>
      </trkpt>
      <trkpt lat="43.75853" lon="7.18188">
        <ele>183.39999389648</ele>
        <time>2021-02-25T08:25:35.000Z</time>
      </trkpt>
      <trkpt lat="43.75856" lon="7.18186">
        <ele>184.60000610352</ele>
        <time>2021-02-25T08:25:38.000Z</time>
      </trkpt>
      <trkpt lat="43.75857" lon="7.18183">
        <ele>185.60000610352</ele>
        <time>2021-02-25T08:25:41.000Z</time>
      </trkpt>
      <trkpt lat="43.75857" lon="7.18182">
        <ele>185.80000305176</ele>
        <time>2021-02-25T08:25:42.000Z</time>
      </trkpt>
      <trkpt lat="43.75854" lon="7.18181">
        <ele>186.60000610352</ele>
        <time>2021-02-25T08:25:45.000Z</time>
      </trkpt>
      <trkpt lat="43.75854" lon="7.1818">
        <ele>187.19999694824</ele>
        <time>2021-02-25T08:25:47.000Z</time>
      </trkpt>
      <trkpt lat="43.75854" lon="7.18179">
        <ele>187.60000610352</ele>
        <time>2021-02-25T08:25:48.000Z</time>
      </trkpt>
      <trkpt lat="43.75854" lon="7.18178">
        <ele>188</ele>
        <time>2021-02-25T08:25:50.000Z</time>
      </trkpt>
      <trkpt lat="43.75855" lon="7.18177">
        <ele>188.19999694824</ele>
        <time>2021-02-25T08:25:51.000Z</time>
      </trkpt>
      <trkpt lat="43.75856" lon="7.18175">
        <ele>188.19999694824</ele>
        <time>2021-02-25T08:25:52.000Z</time>
      </trkpt>
      <trkpt lat="43.7586" lon="7.18171">
        <ele>188.39999389648</ele>
        <time>2021-02-25T08:25:55.000Z</time>
      </trkpt>
      <trkpt lat="43.75864" lon="7.18169">
        <ele>189.39999389648</ele>
        <time>2021-02-25T08:25:58.000Z</time>
      </trkpt>
      <trkpt lat="43.75868" lon="7.18164">
        <ele>190.19999694824</ele>
        <time>2021-02-25T08:26:01.000Z</time>
      </trkpt>
      <trkpt lat="43.75868" lon="7.18163">
        <ele>190.39999389648</ele>
        <time>2021-02-25T08:26:02.000Z</time>
      </trkpt>
      <trkpt lat="43.75865" lon="7.18161">
        <ele>191.80000305176</ele>
        <time>2021-02-25T08:26:05.000Z</time>
      </trkpt>
      <trkpt lat="43.75859" lon="7.18162">
        <ele>193</ele>
        <time>2021-02-25T08:26:08.000Z</time>
      </trkpt>
      <trkpt lat="43.75855" lon="7.18161">
        <ele>193.80000305176</ele>
        <time>2021-02-25T08:26:10.000Z</time>
      </trkpt>
      <trkpt lat="43.75854" lon="7.1816">
        <ele>194.19999694824</ele>
        <time>2021-02-25T08:26:11.000Z</time>
      </trkpt>
      <trkpt lat="43.75849" lon="7.18157">
        <ele>195.39999389648</ele>
        <time>2021-02-25T08:26:14.000Z</time>
      </trkpt>
      <trkpt lat="43.75849" lon="7.18155">
        <ele>195.60000610352</ele>
        <time>2021-02-25T08:26:15.000Z</time>
      </trkpt>
      <trkpt lat="43.75852" lon="7.18147">
        <ele>196.60000610352</ele>
        <time>2021-02-25T08:26:18.000Z</time>
      </trkpt>
      <trkpt lat="43.75857" lon="7.18141">
        <ele>197.60000610352</ele>
        <time>2021-02-25T08:26:21.000Z</time>
      </trkpt>
      <trkpt lat="43.75859" lon="7.18137">
        <ele>198.80000305176</ele>
        <time>2021-02-25T08:26:23.000Z</time>
      </trkpt>
      <trkpt lat="43.75862" lon="7.18132">
        <ele>200</ele>
        <time>2021-02-25T08:26:25.000Z</time>
      </trkpt>
      <trkpt lat="43.75863" lon="7.1813">
        <ele>200.60000610352</ele>
        <time>2021-02-25T08:26:26.000Z</time>
      </trkpt>
      <trkpt lat="43.75864" lon="7.18128">
        <ele>201.19999694824</ele>
        <time>2021-02-25T08:26:27.000Z</time>
      </trkpt>
      <trkpt lat="43.75866" lon="7.18124">
        <ele>202.19999694824</ele>
        <time>2021-02-25T08:26:29.000Z</time>
      </trkpt>
      <trkpt lat="43.75868" lon="7.18119">
        <ele>203.19999694824</ele>
        <time>2021-02-25T08:26:31.000Z</time>
      </trkpt>
      <trkpt lat="43.75871" lon="7.18112">
        <ele>204.39999389648</ele>
        <time>2021-02-25T08:26:34.000Z</time>
      </trkpt>
      <trkpt lat="43.75873" lon="7.18106">
        <ele>205.60000610352</ele>
        <time>2021-02-25T08:26:37.000Z</time>
      </trkpt>
      <trkpt lat="43.75875" lon="7.18101">
        <ele>206.60000610352</ele>
        <time>2021-02-25T08:26:39.000Z</time>
      </trkpt>
      <trkpt lat="43.75876" lon="7.18097">
        <ele>207.80000305176</ele>
        <time>2021-02-25T08:26:41.000Z</time>
      </trkpt>
      <trkpt lat="43.75878" lon="7.18092">
        <ele>208.80000305176</ele>
        <time>2021-02-25T08:26:43.000Z</time>
      </trkpt>
      <trkpt lat="43.7588" lon="7.18088">
        <ele>209.80000305176</ele>
        <time>2021-02-25T08:26:45.000Z</time>
      </trkpt>
      <trkpt lat="43.75882" lon="7.18082">
        <ele>211.19999694824</ele>
        <time>2021-02-25T08:26:48.000Z</time>
      </trkpt>
      <trkpt lat="43.75884" lon="7.18078">
        <ele>212.19999694824</ele>
        <time>2021-02-25T08:26:50.000Z</time>
      </trkpt>
      <trkpt lat="43.75885" lon="7.18077">
        <ele>212.39999389648</ele>
        <time>2021-02-25T08:26:51.000Z</time>
      </trkpt>
      <trkpt lat="43.75887" lon="7.18069">
        <ele>213.60000610352</ele>
        <time>2021-02-25T08:26:55.000Z</time>
      </trkpt>
      <trkpt lat="43.75888" lon="7.18065">
        <ele>214.39999389648</ele>
        <time>2021-02-25T08:26:57.000Z</time>
      </trkpt>
      <trkpt lat="43.75888" lon="7.18063">
        <ele>215</ele>
        <time>2021-02-25T08:26:58.000Z</time>
      </trkpt>
      <trkpt lat="43.7589" lon="7.18057">
        <ele>216.19999694824</ele>
        <time>2021-02-25T08:27:01.000Z</time>
      </trkpt>
      <trkpt lat="43.75891" lon="7.18051">
        <ele>217.19999694824</ele>
        <time>2021-02-25T08:27:04.000Z</time>
      </trkpt>
      <trkpt lat="43.75892" lon="7.18049">
        <ele>217.60000610352</ele>
        <time>2021-02-25T08:27:05.000Z</time>
      </trkpt>
      <trkpt lat="43.75894" lon="7.18043">
        <ele>218.60000610352</ele>
        <time>2021-02-25T08:27:08.000Z</time>
      </trkpt>
      <trkpt lat="43.75895" lon="7.18039">
        <ele>219.19999694824</ele>
        <time>2021-02-25T08:27:10.000Z</time>
      </trkpt>
      <trkpt lat="43.75897" lon="7.18035">
        <ele>219.60000610352</ele>
        <time>2021-02-25T08:27:12.000Z</time>
      </trkpt>
      <trkpt lat="43.75899" lon="7.18029">
        <ele>221</ele>
        <time>2021-02-25T08:27:15.000Z</time>
      </trkpt>
      <trkpt lat="43.759" lon="7.18023">
        <ele>222.19999694824</ele>
        <time>2021-02-25T08:27:18.000Z</time>
      </trkpt>
      <trkpt lat="43.75901" lon="7.18016">
        <ele>223.19999694824</ele>
        <time>2021-02-25T08:27:21.000Z</time>
      </trkpt>
      <trkpt lat="43.75902" lon="7.18007">
        <ele>224.60000610352</ele>
        <time>2021-02-25T08:27:25.000Z</time>
      </trkpt>
      <trkpt lat="43.75902" lon="7.18005">
        <ele>224.80000305176</ele>
        <time>2021-02-25T08:27:26.000Z</time>
      </trkpt>
      <trkpt lat="43.75902" lon="7.17999">
        <ele>225.60000610352</ele>
        <time>2021-02-25T08:27:29.000Z</time>
      </trkpt>
      <trkpt lat="43.75902" lon="7.1799">
        <ele>227</ele>
        <time>2021-02-25T08:27:33.000Z</time>
      </trkpt>
      <trkpt lat="43.75901" lon="7.17989">
        <ele>227.39999389648</ele>
        <time>2021-02-25T08:27:34.000Z</time>
      </trkpt>
      <trkpt lat="43.75901" lon="7.17985">
        <ele>228.39999389648</ele>
        <time>2021-02-25T08:27:36.000Z</time>
      </trkpt>
      <trkpt lat="43.759" lon="7.17979">
        <ele>229.60000610352</ele>
        <time>2021-02-25T08:27:39.000Z</time>
      </trkpt>
      <trkpt lat="43.759" lon="7.17978">
        <ele>230</ele>
        <time>2021-02-25T08:27:40.000Z</time>
      </trkpt>
      <trkpt lat="43.75898" lon="7.17979">
        <ele>230.80000305176</ele>
        <time>2021-02-25T08:27:43.000Z</time>
      </trkpt>
      <trkpt lat="43.75898" lon="7.1798">
        <ele>231</ele>
        <time>2021-02-25T08:27:44.000Z</time>
      </trkpt>
      <trkpt lat="43.75898" lon="7.17981">
        <ele>231</ele>
        <time>2021-02-25T08:27:45.000Z</time>
      </trkpt>
      <trkpt lat="43.75901" lon="7.17978">
        <ele>230.60000610352</ele>
        <time>2021-02-25T08:27:50.000Z</time>
      </trkpt>
      <trkpt lat="43.75903" lon="7.17967">
        <ele>231.19999694824</ele>
        <time>2021-02-25T08:27:55.000Z</time>
      </trkpt>
      <trkpt lat="43.75904" lon="7.1796">
        <ele>231.80000305176</ele>
        <time>2021-02-25T08:27:58.000Z</time>
      </trkpt>
      <trkpt lat="43.75905" lon="7.17948">
        <ele>232.80000305176</ele>
        <time>2021-02-25T08:28:03.000Z</time>
      </trkpt>
      <trkpt lat="43.75905" lon="7.17945">
        <ele>233</ele>
        <time>2021-02-25T08:28:04.000Z</time>
      </trkpt>
      <trkpt lat="43.75907" lon="7.17929">
        <ele>234</ele>
        <time>2021-02-25T08:28:10.000Z</time>
      </trkpt>
      <trkpt lat="43.75907" lon="7.17926">
        <ele>234.19999694824</ele>
        <time>2021-02-25T08:28:11.000Z</time>
      </trkpt>
      <trkpt lat="43.75909" lon="7.17901">
        <ele>234.60000610352</ele>
        <time>2021-02-25T08:28:20.000Z</time>
      </trkpt>
      <trkpt lat="43.75909" lon="7.17886">
        <ele>235.19999694824</ele>
        <time>2021-02-25T08:28:25.000Z</time>
      </trkpt>
      <trkpt lat="43.75909" lon="7.1788">
        <ele>235.39999389648</ele>
        <time>2021-02-25T08:28:27.000Z</time>
      </trkpt>
      <trkpt lat="43.75911" lon="7.17868">
        <ele>236</ele>
        <time>2021-02-25T08:28:31.000Z</time>
      </trkpt>
      <trkpt lat="43.75911" lon="7.17865">
        <ele>236</ele>
        <time>2021-02-25T08:28:32.000Z</time>
      </trkpt>
      <trkpt lat="43.75911" lon="7.17861">
        <ele>236.19999694824</ele>
        <time>2021-02-25T08:28:33.000Z</time>
      </trkpt>
      <trkpt lat="43.75912" lon="7.17838">
        <ele>237.19999694824</ele>
        <time>2021-02-25T08:28:40.000Z</time>
      </trkpt>
      <trkpt lat="43.75912" lon="7.17835">
        <ele>237.19999694824</ele>
        <time>2021-02-25T08:28:41.000Z</time>
      </trkpt>
      <trkpt lat="43.75912" lon="7.1782">
        <ele>238.39999389648</ele>
        <time>2021-02-25T08:28:46.000Z</time>
      </trkpt>
      <trkpt lat="43.75913" lon="7.17817">
        <ele>238.80000305176</ele>
        <time>2021-02-25T08:28:47.000Z</time>
      </trkpt>
      <trkpt lat="43.75913" lon="7.1781">
        <ele>239.60000610352</ele>
        <time>2021-02-25T08:28:49.000Z</time>
      </trkpt>
      <trkpt lat="43.75914" lon="7.17797">
        <ele>240.80000305176</ele>
        <time>2021-02-25T08:28:53.000Z</time>
      </trkpt>
      <trkpt lat="43.75915" lon="7.17786">
        <ele>242.19999694824</ele>
        <time>2021-02-25T08:28:57.000Z</time>
      </trkpt>
      <trkpt lat="43.75914" lon="7.17772">
        <ele>243.39999389648</ele>
        <time>2021-02-25T08:29:02.000Z</time>
      </trkpt>
      <trkpt lat="43.75914" lon="7.17763">
        <ele>244.60000610352</ele>
        <time>2021-02-25T08:29:05.000Z</time>
      </trkpt>
      <trkpt lat="43.75915" lon="7.17752">
        <ele>245.80000305176</ele>
        <time>2021-02-25T08:29:09.000Z</time>
      </trkpt>
      <trkpt lat="43.75914" lon="7.1774">
        <ele>246.80000305176</ele>
        <time>2021-02-25T08:29:13.000Z</time>
      </trkpt>
      <trkpt lat="43.75913" lon="7.17728">
        <ele>247.80000305176</ele>
        <time>2021-02-25T08:29:17.000Z</time>
      </trkpt>
      <trkpt lat="43.75913" lon="7.17716">
        <ele>249</ele>
        <time>2021-02-25T08:29:21.000Z</time>
      </trkpt>
      <trkpt lat="43.75913" lon="7.17713">
        <ele>249.39999389648</ele>
        <time>2021-02-25T08:29:22.000Z</time>
      </trkpt>
      <trkpt lat="43.75913" lon="7.17706">
        <ele>250</ele>
        <time>2021-02-25T08:29:24.000Z</time>
      </trkpt>
      <trkpt lat="43.75912" lon="7.17697">
        <ele>251</ele>
        <time>2021-02-25T08:29:27.000Z</time>
      </trkpt>
      <trkpt lat="43.75912" lon="7.17694">
        <ele>251.60000610352</ele>
        <time>2021-02-25T08:29:28.000Z</time>
      </trkpt>
      <trkpt lat="43.75912" lon="7.17687">
        <ele>252.60000610352</ele>
        <time>2021-02-25T08:29:30.000Z</time>
      </trkpt>
      <trkpt lat="43.75912" lon="7.17678">
        <ele>254</ele>
        <time>2021-02-25T08:29:33.000Z</time>
      </trkpt>
      <trkpt lat="43.75913" lon="7.17675">
        <ele>254.39999389648</ele>
        <time>2021-02-25T08:29:34.000Z</time>
      </trkpt>
      <trkpt lat="43.75913" lon="7.1767">
        <ele>255.39999389648</ele>
        <time>2021-02-25T08:29:36.000Z</time>
      </trkpt>
      <trkpt lat="43.75913" lon="7.17665">
        <ele>256.20001220703</ele>
        <time>2021-02-25T08:29:38.000Z</time>
      </trkpt>
      <trkpt lat="43.75912" lon="7.17662">
        <ele>256.79998779297</ele>
        <time>2021-02-25T08:29:39.000Z</time>
      </trkpt>
      <trkpt lat="43.75913" lon="7.17659">
        <ele>257.20001220703</ele>
        <time>2021-02-25T08:29:40.000Z</time>
      </trkpt>
      <trkpt lat="43.75913" lon="7.17654">
        <ele>258.20001220703</ele>
        <time>2021-02-25T08:29:42.000Z</time>
      </trkpt>
      <trkpt lat="43.75912" lon="7.17651">
        <ele>258.60000610352</ele>
        <time>2021-02-25T08:29:43.000Z</time>
      </trkpt>
      <trkpt lat="43.75911" lon="7.17646">
        <ele>259.60000610352</ele>
        <time>2021-02-25T08:29:45.000Z</time>
      </trkpt>
      <trkpt lat="43.7591" lon="7.17637">
        <ele>260.79998779297</ele>
        <time>2021-02-25T08:29:48.000Z</time>
      </trkpt>
      <trkpt lat="43.75908" lon="7.17631">
        <ele>261.60000610352</ele>
        <time>2021-02-25T08:29:50.000Z</time>
      </trkpt>
      <trkpt lat="43.75908" lon="7.17628">
        <ele>262</ele>
        <time>2021-02-25T08:29:51.000Z</time>
      </trkpt>
      <trkpt lat="43.75907" lon="7.17618">
        <ele>263.20001220703</ele>
        <time>2021-02-25T08:29:54.000Z</time>
      </trkpt>
      <trkpt lat="43.75908" lon="7.17611">
        <ele>264.20001220703</ele>
        <time>2021-02-25T08:29:56.000Z</time>
      </trkpt>
      <trkpt lat="43.75909" lon="7.17608">
        <ele>264.79998779297</ele>
        <time>2021-02-25T08:29:57.000Z</time>
      </trkpt>
      <trkpt lat="43.75911" lon="7.17605">
        <ele>265.39999389648</ele>
        <time>2021-02-25T08:29:58.000Z</time>
      </trkpt>
      <trkpt lat="43.75914" lon="7.176">
        <ele>266.39999389648</ele>
        <time>2021-02-25T08:30:00.000Z</time>
      </trkpt>
      <trkpt lat="43.75917" lon="7.17596">
        <ele>267.39999389648</ele>
        <time>2021-02-25T08:30:02.000Z</time>
      </trkpt>
      <trkpt lat="43.75919" lon="7.17595">
        <ele>268</ele>
        <time>2021-02-25T08:30:03.000Z</time>
      </trkpt>
      <trkpt lat="43.7592" lon="7.17593">
        <ele>268.39999389648</ele>
        <time>2021-02-25T08:30:04.000Z</time>
      </trkpt>
      <trkpt lat="43.75925" lon="7.17589">
        <ele>269.39999389648</ele>
        <time>2021-02-25T08:30:08.000Z</time>
      </trkpt>
      <trkpt lat="43.75926" lon="7.17587">
        <ele>269.79998779297</ele>
        <time>2021-02-25T08:30:10.000Z</time>
      </trkpt>
      <trkpt lat="43.75928" lon="7.17586">
        <ele>270</ele>
        <time>2021-02-25T08:30:11.000Z</time>
      </trkpt>
      <trkpt lat="43.7593" lon="7.17586">
        <ele>270</ele>
        <time>2021-02-25T08:30:15.000Z</time>
      </trkpt>
      <trkpt lat="43.7593" lon="7.17585">
        <ele>270.20001220703</ele>
        <time>2021-02-25T08:30:22.000Z</time>
      </trkpt>
      <trkpt lat="43.75931" lon="7.17585">
        <ele>270.20001220703</ele>
        <time>2021-02-25T08:30:28.000Z</time>
      </trkpt>
      <trkpt lat="43.75931" lon="7.17584">
        <ele>270</ele>
        <time>2021-02-25T08:30:34.000Z</time>
      </trkpt>
      <trkpt lat="43.7593" lon="7.17582">
        <ele>270.39999389648</ele>
        <time>2021-02-25T08:30:45.000Z</time>
      </trkpt>
      <trkpt lat="43.7593" lon="7.17581">
        <ele>269.79998779297</ele>
        <time>2021-02-25T08:30:54.000Z</time>
      </trkpt>
      <trkpt lat="43.7593" lon="7.1758">
        <ele>270</ele>
        <time>2021-02-25T08:31:02.000Z</time>
      </trkpt>
      <trkpt lat="43.75929" lon="7.17579">
        <ele>269.79998779297</ele>
        <time>2021-02-25T08:31:10.000Z</time>
      </trkpt>
      <trkpt lat="43.75929" lon="7.17578">
        <ele>270</ele>
        <time>2021-02-25T08:31:20.000Z</time>
      </trkpt>
      <trkpt lat="43.75929" lon="7.17577">
        <ele>270</ele>
        <time>2021-02-25T08:31:27.000Z</time>
      </trkpt>
      <trkpt lat="43.75932" lon="7.17577">
        <ele>269.60000610352</ele>
        <time>2021-02-25T08:31:31.000Z</time>
      </trkpt>
      <trkpt lat="43.75944" lon="7.17581">
        <ele>269.79998779297</ele>
        <time>2021-02-25T08:31:35.000Z</time>
      </trkpt>
      <trkpt lat="43.75973" lon="7.17593">
        <ele>269.79998779297</ele>
        <time>2021-02-25T08:31:43.000Z</time>
      </trkpt>
      <trkpt lat="43.76001" lon="7.17605">
        <ele>270.39999389648</ele>
        <time>2021-02-25T08:31:51.000Z</time>
      </trkpt>
      <trkpt lat="43.76005" lon="7.17603">
        <ele>270.39999389648</ele>
        <time>2021-02-25T08:31:52.000Z</time>
      </trkpt>
      <trkpt lat="43.76007" lon="7.17596">
        <ele>270.20001220703</ele>
        <time>2021-02-25T08:31:54.000Z</time>
      </trkpt>
      <trkpt lat="43.76006" lon="7.1759">
        <ele>270.60000610352</ele>
        <time>2021-02-25T08:31:57.000Z</time>
      </trkpt>
      <trkpt lat="43.76006" lon="7.17586">
        <ele>271</ele>
        <time>2021-02-25T08:31:59.000Z</time>
      </trkpt>
      <trkpt lat="43.76004" lon="7.17584">
        <ele>271.39999389648</ele>
        <time>2021-02-25T08:32:01.000Z</time>
      </trkpt>
      <trkpt lat="43.76" lon="7.17582">
        <ele>271.60000610352</ele>
        <time>2021-02-25T08:32:03.000Z</time>
      </trkpt>
      <trkpt lat="43.75997" lon="7.17583">
        <ele>271.60000610352</ele>
        <time>2021-02-25T08:32:05.000Z</time>
      </trkpt>
      <trkpt lat="43.75995" lon="7.17586">
        <ele>271.60000610352</ele>
        <time>2021-02-25T08:32:08.000Z</time>
      </trkpt>
      <trkpt lat="43.75997" lon="7.17587">
        <ele>271.39999389648</ele>
        <time>2021-02-25T08:32:11.000Z</time>
      </trkpt>
      <trkpt lat="43.75999" lon="7.17584">
        <ele>271.39999389648</ele>
        <time>2021-02-25T08:32:13.000Z</time>
      </trkpt>
      <trkpt lat="43.76005" lon="7.17584">
        <ele>271.39999389648</ele>
        <time>2021-02-25T08:32:17.000Z</time>
      </trkpt>
      <trkpt lat="43.76006" lon="7.17584">
        <ele>271.39999389648</ele>
        <time>2021-02-25T08:32:18.000Z</time>
      </trkpt>
      <trkpt lat="43.76011" lon="7.17586">
        <ele>271.39999389648</ele>
        <time>2021-02-25T08:32:21.000Z</time>
      </trkpt>
      <trkpt lat="43.76015" lon="7.17581">
        <ele>271.20001220703</ele>
        <time>2021-02-25T08:32:23.000Z</time>
      </trkpt>
      <trkpt lat="43.76018" lon="7.17574">
        <ele>271.20001220703</ele>
        <time>2021-02-25T08:32:25.000Z</time>
      </trkpt>
      <trkpt lat="43.76024" lon="7.17558">
        <ele>271.60000610352</ele>
        <time>2021-02-25T08:32:29.000Z</time>
      </trkpt>
      <trkpt lat="43.76039" lon="7.17522">
        <ele>272.60000610352</ele>
        <time>2021-02-25T08:32:38.000Z</time>
      </trkpt>
      <trkpt lat="43.76058" lon="7.17474">
        <ele>273.39999389648</ele>
        <time>2021-02-25T08:32:49.000Z</time>
      </trkpt>
      <trkpt lat="43.76062" lon="7.1746">
        <ele>273.79998779297</ele>
        <time>2021-02-25T08:32:52.000Z</time>
      </trkpt>
      <trkpt lat="43.7607" lon="7.17444">
        <ele>274</ele>
        <time>2021-02-25T08:32:56.000Z</time>
      </trkpt>
      <trkpt lat="43.76079" lon="7.17436">
        <ele>274.60000610352</ele>
        <time>2021-02-25T08:33:01.000Z</time>
      </trkpt>
      <trkpt lat="43.76082" lon="7.17434">
        <ele>274.79998779297</ele>
        <time>2021-02-25T08:33:03.000Z</time>
      </trkpt>
      <trkpt lat="43.76084" lon="7.17434">
        <ele>275</ele>
        <time>2021-02-25T08:33:07.000Z</time>
      </trkpt>
      <trkpt lat="43.76084" lon="7.17434">
        <ele>275</ele>
        <time>2021-02-25T08:33:12.000Z</time>
      </trkpt>
      <trkpt lat="43.76083" lon="7.17435">
        <ele>275</ele>
        <time>2021-02-25T08:33:17.000Z</time>
      </trkpt>
      <trkpt lat="43.76084" lon="7.17435">
        <ele>274.20001220703</ele>
        <time>2021-02-25T08:33:32.000Z</time>
      </trkpt>
      <trkpt lat="43.76083" lon="7.17435">
        <ele>274.20001220703</ele>
        <time>2021-02-25T08:33:36.000Z</time>
      </trkpt>
      <trkpt lat="43.76083" lon="7.17434">
        <ele>274.60000610352</ele>
        <time>2021-02-25T08:33:42.000Z</time>
      </trkpt>
      <trkpt lat="43.76083" lon="7.17433">
        <ele>274.20001220703</ele>
        <time>2021-02-25T08:33:53.000Z</time>
      </trkpt>
      <trkpt lat="43.76083" lon="7.17433">
        <ele>274</ele>
        <time>2021-02-25T08:34:07.000Z</time>
      </trkpt>
      <trkpt lat="43.76083" lon="7.17433">
        <ele>274.20001220703</ele>
        <time>2021-02-25T08:34:16.000Z</time>
      </trkpt>
      <trkpt lat="43.76082" lon="7.17433">
        <ele>274</ele>
        <time>2021-02-25T08:34:23.000Z</time>
      </trkpt>
      <trkpt lat="43.76082" lon="7.17432">
        <ele>274</ele>
        <time>2021-02-25T08:34:25.000Z</time>
      </trkpt>
      <trkpt lat="43.76081" lon="7.17432">
        <ele>274</ele>
        <time>2021-02-25T08:34:28.000Z</time>
      </trkpt>
      <trkpt lat="43.76083" lon="7.1743">
        <ele>274</ele>
        <time>2021-02-25T08:34:32.000Z</time>
      </trkpt>
      <trkpt lat="43.76088" lon="7.17429">
        <ele>274</ele>
        <time>2021-02-25T08:34:34.000Z</time>
      </trkpt>
      <trkpt lat="43.76094" lon="7.17429">
        <ele>274</ele>
        <time>2021-02-25T08:34:36.000Z</time>
      </trkpt>
      <trkpt lat="43.76107" lon="7.17428">
        <ele>274</ele>
        <time>2021-02-25T08:34:39.000Z</time>
      </trkpt>
      <trkpt lat="43.76135" lon="7.17428">
        <ele>274.79998779297</ele>
        <time>2021-02-25T08:34:45.000Z</time>
      </trkpt>
      <trkpt lat="43.76163" lon="7.17424">
        <ele>275.79998779297</ele>
        <time>2021-02-25T08:34:51.000Z</time>
      </trkpt>
      <trkpt lat="43.76203" lon="7.17419">
        <ele>276.79998779297</ele>
        <time>2021-02-25T08:35:00.000Z</time>
      </trkpt>
      <trkpt lat="43.76207" lon="7.17419">
        <ele>277</ele>
        <time>2021-02-25T08:35:01.000Z</time>
      </trkpt>
      <trkpt lat="43.7623" lon="7.17421">
        <ele>277.60000610352</ele>
        <time>2021-02-25T08:35:07.000Z</time>
      </trkpt>
      <trkpt lat="43.7624" lon="7.17425">
        <ele>278</ele>
        <time>2021-02-25T08:35:10.000Z</time>
      </trkpt>
      <trkpt lat="43.76256" lon="7.17433">
        <ele>278.60000610352</ele>
        <time>2021-02-25T08:35:15.000Z</time>
      </trkpt>
      <trkpt lat="43.76266" lon="7.17439">
        <ele>279</ele>
        <time>2021-02-25T08:35:18.000Z</time>
      </trkpt>
      <trkpt lat="43.76274" lon="7.17446">
        <ele>279.60000610352</ele>
        <time>2021-02-25T08:35:21.000Z</time>
      </trkpt>
      <trkpt lat="43.76288" lon="7.17455">
        <ele>279.79998779297</ele>
        <time>2021-02-25T08:35:27.000Z</time>
      </trkpt>
      <trkpt lat="43.76293" lon="7.17459">
        <ele>280.20001220703</ele>
        <time>2021-02-25T08:35:29.000Z</time>
      </trkpt>
      <trkpt lat="43.76298" lon="7.17469">
        <ele>280.20001220703</ele>
        <time>2021-02-25T08:35:32.000Z</time>
      </trkpt>
      <trkpt lat="43.763" lon="7.17494">
        <ele>280.39999389648</ele>
        <time>2021-02-25T08:35:38.000Z</time>
      </trkpt>
      <trkpt lat="43.76304" lon="7.17518">
        <ele>281</ele>
        <time>2021-02-25T08:35:44.000Z</time>
      </trkpt>
      <trkpt lat="43.76309" lon="7.17527">
        <ele>281.20001220703</ele>
        <time>2021-02-25T08:35:48.000Z</time>
      </trkpt>
      <trkpt lat="43.7631" lon="7.17527">
        <ele>281.20001220703</ele>
        <time>2021-02-25T08:35:49.000Z</time>
      </trkpt>
      <trkpt lat="43.76318" lon="7.17525">
        <ele>281.60000610352</ele>
        <time>2021-02-25T08:35:54.000Z</time>
      </trkpt>
      <trkpt lat="43.76319" lon="7.17525">
        <ele>281.39999389648</ele>
        <time>2021-02-25T08:35:55.000Z</time>
      </trkpt>
      <trkpt lat="43.76327" lon="7.17529">
        <ele>282.39999389648</ele>
        <time>2021-02-25T08:35:58.000Z</time>
      </trkpt>
      <trkpt lat="43.76334" lon="7.17532">
        <ele>283.39999389648</ele>
        <time>2021-02-25T08:36:01.000Z</time>
      </trkpt>
      <trkpt lat="43.76339" lon="7.17534">
        <ele>284</ele>
        <time>2021-02-25T08:36:03.000Z</time>
      </trkpt>
      <trkpt lat="43.76341" lon="7.17534">
        <ele>284.39999389648</ele>
        <time>2021-02-25T08:36:04.000Z</time>
      </trkpt>
      <trkpt lat="43.76347" lon="7.17536">
        <ele>285.39999389648</ele>
        <time>2021-02-25T08:36:07.000Z</time>
      </trkpt>
      <trkpt lat="43.76349" lon="7.17537">
        <ele>285.79998779297</ele>
        <time>2021-02-25T08:36:08.000Z</time>
      </trkpt>
      <trkpt lat="43.76355" lon="7.1754">
        <ele>286.39999389648</ele>
        <time>2021-02-25T08:36:11.000Z</time>
      </trkpt>
      <trkpt lat="43.76361" lon="7.17543">
        <ele>287.60000610352</ele>
        <time>2021-02-25T08:36:14.000Z</time>
      </trkpt>
      <trkpt lat="43.76365" lon="7.17547">
        <ele>288.79998779297</ele>
        <time>2021-02-25T08:36:17.000Z</time>
      </trkpt>
      <trkpt lat="43.76369" lon="7.17549">
        <ele>289.39999389648</ele>
        <time>2021-02-25T08:36:19.000Z</time>
      </trkpt>
      <trkpt lat="43.76375" lon="7.17552">
        <ele>290</ele>
        <time>2021-02-25T08:36:22.000Z</time>
      </trkpt>
      <trkpt lat="43.76379" lon="7.17554">
        <ele>290.39999389648</ele>
        <time>2021-02-25T08:36:24.000Z</time>
      </trkpt>
      <trkpt lat="43.76383" lon="7.17554">
        <ele>291.20001220703</ele>
        <time>2021-02-25T08:36:26.000Z</time>
      </trkpt>
      <trkpt lat="43.7639" lon="7.17555">
        <ele>291.79998779297</ele>
        <time>2021-02-25T08:36:29.000Z</time>
      </trkpt>
      <trkpt lat="43.76393" lon="7.17554">
        <ele>292.20001220703</ele>
        <time>2021-02-25T08:36:31.000Z</time>
      </trkpt>
      <trkpt lat="43.76395" lon="7.17554">
        <ele>292.79998779297</ele>
        <time>2021-02-25T08:36:34.000Z</time>
      </trkpt>
      <trkpt lat="43.76396" lon="7.17555">
        <ele>293.20001220703</ele>
        <time>2021-02-25T08:36:36.000Z</time>
      </trkpt>
      <trkpt lat="43.76397" lon="7.17555">
        <ele>293.60000610352</ele>
        <time>2021-02-25T08:36:42.000Z</time>
      </trkpt>
      <trkpt lat="43.764" lon="7.17553">
        <ele>293.60000610352</ele>
        <time>2021-02-25T08:36:44.000Z</time>
      </trkpt>
      <trkpt lat="43.76403" lon="7.17549">
        <ele>293.60000610352</ele>
        <time>2021-02-25T08:36:46.000Z</time>
      </trkpt>
      <trkpt lat="43.76406" lon="7.1754">
        <ele>294.60000610352</ele>
        <time>2021-02-25T08:36:49.000Z</time>
      </trkpt>
      <trkpt lat="43.76406" lon="7.17534">
        <ele>295.79998779297</ele>
        <time>2021-02-25T08:36:51.000Z</time>
      </trkpt>
      <trkpt lat="43.76406" lon="7.17532">
        <ele>296.20001220703</ele>
        <time>2021-02-25T08:36:52.000Z</time>
      </trkpt>
      <trkpt lat="43.76406" lon="7.17525">
        <ele>296.79998779297</ele>
        <time>2021-02-25T08:36:54.000Z</time>
      </trkpt>
      <trkpt lat="43.76408" lon="7.17522">
        <ele>297</ele>
        <time>2021-02-25T08:36:55.000Z</time>
      </trkpt>
      <trkpt lat="43.76413" lon="7.17514">
        <ele>297.60000610352</ele>
        <time>2021-02-25T08:36:58.000Z</time>
      </trkpt>
      <trkpt lat="43.76417" lon="7.17504">
        <ele>298.20001220703</ele>
        <time>2021-02-25T08:37:01.000Z</time>
      </trkpt>
      <trkpt lat="43.76418" lon="7.17496">
        <ele>298.60000610352</ele>
        <time>2021-02-25T08:37:03.000Z</time>
      </trkpt>
      <trkpt lat="43.76419" lon="7.1749">
        <ele>299.20001220703</ele>
        <time>2021-02-25T08:37:06.000Z</time>
      </trkpt>
      <trkpt lat="43.76421" lon="7.17489">
        <ele>299.39999389648</ele>
        <time>2021-02-25T08:37:07.000Z</time>
      </trkpt>
      <trkpt lat="43.76433" lon="7.1749">
        <ele>299.79998779297</ele>
        <time>2021-02-25T08:37:12.000Z</time>
      </trkpt>
      <trkpt lat="43.76441" lon="7.17489">
        <ele>300.20001220703</ele>
        <time>2021-02-25T08:37:15.000Z</time>
      </trkpt>
      <trkpt lat="43.76452" lon="7.17489">
        <ele>301.39999389648</ele>
        <time>2021-02-25T08:37:20.000Z</time>
      </trkpt>
      <trkpt lat="43.76455" lon="7.17489">
        <ele>301.79998779297</ele>
        <time>2021-02-25T08:37:21.000Z</time>
      </trkpt>
      <trkpt lat="43.76461" lon="7.17488">
        <ele>302.60000610352</ele>
        <time>2021-02-25T08:37:24.000Z</time>
      </trkpt>
      <trkpt lat="43.76472" lon="7.17487">
        <ele>303.39999389648</ele>
        <time>2021-02-25T08:37:29.000Z</time>
      </trkpt>
      <trkpt lat="43.76474" lon="7.17486">
        <ele>303.60000610352</ele>
        <time>2021-02-25T08:37:30.000Z</time>
      </trkpt>
      <trkpt lat="43.76479" lon="7.17476">
        <ele>304.20001220703</ele>
        <time>2021-02-25T08:37:34.000Z</time>
      </trkpt>
      <trkpt lat="43.76479" lon="7.1747">
        <ele>304.60000610352</ele>
        <time>2021-02-25T08:37:36.000Z</time>
      </trkpt>
      <trkpt lat="43.76481" lon="7.17461">
        <ele>305.60000610352</ele>
        <time>2021-02-25T08:37:39.000Z</time>
      </trkpt>
      <trkpt lat="43.76483" lon="7.17456">
        <ele>306.60000610352</ele>
        <time>2021-02-25T08:37:41.000Z</time>
      </trkpt>
      <trkpt lat="43.76485" lon="7.17453">
        <ele>307</ele>
        <time>2021-02-25T08:37:42.000Z</time>
      </trkpt>
      <trkpt lat="43.76489" lon="7.17446">
        <ele>308.20001220703</ele>
        <time>2021-02-25T08:37:45.000Z</time>
      </trkpt>
      <trkpt lat="43.7649" lon="7.17441">
        <ele>309.20001220703</ele>
        <time>2021-02-25T08:37:47.000Z</time>
      </trkpt>
      <trkpt lat="43.76494" lon="7.17434">
        <ele>310.39999389648</ele>
        <time>2021-02-25T08:37:50.000Z</time>
      </trkpt>
      <trkpt lat="43.76495" lon="7.17432">
        <ele>310.60000610352</ele>
        <time>2021-02-25T08:37:51.000Z</time>
      </trkpt>
      <trkpt lat="43.76506" lon="7.17416">
        <ele>311.39999389648</ele>
        <time>2021-02-25T08:37:58.000Z</time>
      </trkpt>
      <trkpt lat="43.7652" lon="7.17401">
        <ele>310.79998779297</ele>
        <time>2021-02-25T08:38:02.000Z</time>
      </trkpt>
      <trkpt lat="43.76543" lon="7.17377">
        <ele>310</ele>
        <time>2021-02-25T08:38:09.000Z</time>
      </trkpt>
      <trkpt lat="43.76557" lon="7.17358">
        <ele>310.20001220703</ele>
        <time>2021-02-25T08:38:15.000Z</time>
      </trkpt>
      <trkpt lat="43.76569" lon="7.1735">
        <ele>310.79998779297</ele>
        <time>2021-02-25T08:38:19.000Z</time>
      </trkpt>
      <trkpt lat="43.76576" lon="7.17352">
        <ele>311</ele>
        <time>2021-02-25T08:38:21.000Z</time>
      </trkpt>
      <trkpt lat="43.76582" lon="7.17358">
        <ele>311.20001220703</ele>
        <time>2021-02-25T08:38:23.000Z</time>
      </trkpt>
      <trkpt lat="43.76607" lon="7.17383">
        <ele>311.39999389648</ele>
        <time>2021-02-25T08:38:31.000Z</time>
      </trkpt>
      <trkpt lat="43.7661" lon="7.17386">
        <ele>311.60000610352</ele>
        <time>2021-02-25T08:38:32.000Z</time>
      </trkpt>
      <trkpt lat="43.7662" lon="7.17394">
        <ele>312.60000610352</ele>
        <time>2021-02-25T08:38:36.000Z</time>
      </trkpt>
      <trkpt lat="43.7663" lon="7.174">
        <ele>313.79998779297</ele>
        <time>2021-02-25T08:38:39.000Z</time>
      </trkpt>
      <trkpt lat="43.76635" lon="7.17402">
        <ele>314.20001220703</ele>
        <time>2021-02-25T08:38:40.000Z</time>
      </trkpt>
      <trkpt lat="43.76638" lon="7.17403">
        <ele>314.79998779297</ele>
        <time>2021-02-25T08:38:41.000Z</time>
      </trkpt>
      <trkpt lat="43.76643" lon="7.17403">
        <ele>316.20001220703</ele>
        <time>2021-02-25T08:38:43.000Z</time>
      </trkpt>
      <trkpt lat="43.76645" lon="7.17404">
        <ele>317</ele>
        <time>2021-02-25T08:38:44.000Z</time>
      </trkpt>
      <trkpt lat="43.76647" lon="7.17405">
        <ele>317.60000610352</ele>
        <time>2021-02-25T08:38:45.000Z</time>
      </trkpt>
      <trkpt lat="43.7665" lon="7.17406">
        <ele>318.60000610352</ele>
        <time>2021-02-25T08:38:47.000Z</time>
      </trkpt>
      <trkpt lat="43.76656" lon="7.17403">
        <ele>319.60000610352</ele>
        <time>2021-02-25T08:38:50.000Z</time>
      </trkpt>
      <trkpt lat="43.76658" lon="7.17397">
        <ele>320.60000610352</ele>
        <time>2021-02-25T08:38:53.000Z</time>
      </trkpt>
      <trkpt lat="43.76659" lon="7.17394">
        <ele>321</ele>
        <time>2021-02-25T08:38:54.000Z</time>
      </trkpt>
      <trkpt lat="43.7666" lon="7.17392">
        <ele>321.39999389648</ele>
        <time>2021-02-25T08:38:55.000Z</time>
      </trkpt>
      <trkpt lat="43.76661" lon="7.17388">
        <ele>322.20001220703</ele>
        <time>2021-02-25T08:38:57.000Z</time>
      </trkpt>
      <trkpt lat="43.76662" lon="7.17379">
        <ele>323.39999389648</ele>
        <time>2021-02-25T08:39:00.000Z</time>
      </trkpt>
      <trkpt lat="43.76663" lon="7.17378">
        <ele>324</ele>
        <time>2021-02-25T08:39:01.000Z</time>
      </trkpt>
      <trkpt lat="43.76664" lon="7.17376">
        <ele>324.39999389648</ele>
        <time>2021-02-25T08:39:02.000Z</time>
      </trkpt>
      <trkpt lat="43.76665" lon="7.17374">
        <ele>325.39999389648</ele>
        <time>2021-02-25T08:39:04.000Z</time>
      </trkpt>
      <trkpt lat="43.76667" lon="7.17371">
        <ele>326.39999389648</ele>
        <time>2021-02-25T08:39:06.000Z</time>
      </trkpt>
      <trkpt lat="43.76667" lon="7.17372">
        <ele>326.79998779297</ele>
        <time>2021-02-25T08:39:07.000Z</time>
      </trkpt>
      <trkpt lat="43.76667" lon="7.17371">
        <ele>327.39999389648</ele>
        <time>2021-02-25T08:39:11.000Z</time>
      </trkpt>
      <trkpt lat="43.76667" lon="7.1737">
        <ele>327.39999389648</ele>
        <time>2021-02-25T08:39:19.000Z</time>
      </trkpt>
      <trkpt lat="43.76666" lon="7.17369">
        <ele>327.39999389648</ele>
        <time>2021-02-25T08:39:21.000Z</time>
      </trkpt>
      <trkpt lat="43.76666" lon="7.17363">
        <ele>327.20001220703</ele>
        <time>2021-02-25T08:39:24.000Z</time>
      </trkpt>
      <trkpt lat="43.76668" lon="7.17356">
        <ele>328</ele>
        <time>2021-02-25T08:39:27.000Z</time>
      </trkpt>
      <trkpt lat="43.76669" lon="7.17352">
        <ele>329</ele>
        <time>2021-02-25T08:39:29.000Z</time>
      </trkpt>
      <trkpt lat="43.7667" lon="7.1735">
        <ele>329.60000610352</ele>
        <time>2021-02-25T08:39:30.000Z</time>
      </trkpt>
      <trkpt lat="43.7667" lon="7.17347">
        <ele>330.20001220703</ele>
        <time>2021-02-25T08:39:31.000Z</time>
      </trkpt>
      <trkpt lat="43.76671" lon="7.17342">
        <ele>331.39999389648</ele>
        <time>2021-02-25T08:39:33.000Z</time>
      </trkpt>
      <trkpt lat="43.76671" lon="7.1734">
        <ele>332</ele>
        <time>2021-02-25T08:39:34.000Z</time>
      </trkpt>
      <trkpt lat="43.76672" lon="7.17338">
        <ele>332.60000610352</ele>
        <time>2021-02-25T08:39:35.000Z</time>
      </trkpt>
      <trkpt lat="43.76672" lon="7.17336">
        <ele>333</ele>
        <time>2021-02-25T08:39:36.000Z</time>
      </trkpt>
      <trkpt lat="43.76673" lon="7.17334">
        <ele>333.60000610352</ele>
        <time>2021-02-25T08:39:37.000Z</time>
      </trkpt>
      <trkpt lat="43.76674" lon="7.1733">
        <ele>335</ele>
        <time>2021-02-25T08:39:40.000Z</time>
      </trkpt>
      <trkpt lat="43.76674" lon="7.17327">
        <ele>335.79998779297</ele>
        <time>2021-02-25T08:39:42.000Z</time>
      </trkpt>
      <trkpt lat="43.76674" lon="7.17326">
        <ele>336.20001220703</ele>
        <time>2021-02-25T08:39:43.000Z</time>
      </trkpt>
      <trkpt lat="43.76675" lon="7.17322">
        <ele>337.20001220703</ele>
        <time>2021-02-25T08:39:49.000Z</time>
      </trkpt>
      <trkpt lat="43.76675" lon="7.1732">
        <ele>337.39999389648</ele>
        <time>2021-02-25T08:39:50.000Z</time>
      </trkpt>
      <trkpt lat="43.76676" lon="7.17317">
        <ele>338</ele>
        <time>2021-02-25T08:39:54.000Z</time>
      </trkpt>
      <trkpt lat="43.76676" lon="7.17314">
        <ele>338.20001220703</ele>
        <time>2021-02-25T08:39:58.000Z</time>
      </trkpt>
      <trkpt lat="43.76676" lon="7.17313">
        <ele>338.39999389648</ele>
        <time>2021-02-25T08:40:00.000Z</time>
      </trkpt>
      <trkpt lat="43.76677" lon="7.17307">
        <ele>339.20001220703</ele>
        <time>2021-02-25T08:40:06.000Z</time>
      </trkpt>
      <trkpt lat="43.76677" lon="7.17306">
        <ele>339.39999389648</ele>
        <time>2021-02-25T08:40:08.000Z</time>
      </trkpt>
      <trkpt lat="43.76677" lon="7.17305">
        <ele>339.60000610352</ele>
        <time>2021-02-25T08:40:10.000Z</time>
      </trkpt>
      <trkpt lat="43.76676" lon="7.17304">
        <ele>339.60000610352</ele>
        <time>2021-02-25T08:40:11.000Z</time>
      </trkpt>
      <trkpt lat="43.76677" lon="7.17301">
        <ele>340.20001220703</ele>
        <time>2021-02-25T08:40:16.000Z</time>
      </trkpt>
      <trkpt lat="43.76677" lon="7.17301">
        <ele>340.39999389648</ele>
        <time>2021-02-25T08:40:18.000Z</time>
      </trkpt>
      <trkpt lat="43.76677" lon="7.17298">
        <ele>340.39999389648</ele>
        <time>2021-02-25T08:40:26.000Z</time>
      </trkpt>
      <trkpt lat="43.76677" lon="7.17284">
        <ele>341.20001220703</ele>
        <time>2021-02-25T08:40:31.000Z</time>
      </trkpt>
      <trkpt lat="43.76677" lon="7.17279">
        <ele>341.79998779297</ele>
        <time>2021-02-25T08:40:33.000Z</time>
      </trkpt>
      <trkpt lat="43.76678" lon="7.1727">
        <ele>343.39999389648</ele>
        <time>2021-02-25T08:40:36.000Z</time>
      </trkpt>
      <trkpt lat="43.76678" lon="7.17268">
        <ele>343.39999389648</ele>
        <time>2021-02-25T08:40:37.000Z</time>
      </trkpt>
      <trkpt lat="43.76678" lon="7.17261">
        <ele>344.60000610352</ele>
        <time>2021-02-25T08:40:40.000Z</time>
      </trkpt>
      <trkpt lat="43.76678" lon="7.17256">
        <ele>345.60000610352</ele>
        <time>2021-02-25T08:40:42.000Z</time>
      </trkpt>
      <trkpt lat="43.76679" lon="7.17253">
        <ele>346</ele>
        <time>2021-02-25T08:40:43.000Z</time>
      </trkpt>
      <trkpt lat="43.7668" lon="7.17247">
        <ele>347.20001220703</ele>
        <time>2021-02-25T08:40:46.000Z</time>
      </trkpt>
      <trkpt lat="43.76682" lon="7.17245">
        <ele>347.79998779297</ele>
        <time>2021-02-25T08:40:48.000Z</time>
      </trkpt>
      <trkpt lat="43.76684" lon="7.1724">
        <ele>348.39999389648</ele>
        <time>2021-02-25T08:40:50.000Z</time>
      </trkpt>
      <trkpt lat="43.76686" lon="7.17231">
        <ele>349.60000610352</ele>
        <time>2021-02-25T08:40:53.000Z</time>
      </trkpt>
      <trkpt lat="43.76686" lon="7.17228">
        <ele>350</ele>
        <time>2021-02-25T08:40:54.000Z</time>
      </trkpt>
      <trkpt lat="43.76687" lon="7.17222">
        <ele>351</ele>
        <time>2021-02-25T08:40:56.000Z</time>
      </trkpt>
      <trkpt lat="43.76688" lon="7.17213">
        <ele>352.39999389648</ele>
        <time>2021-02-25T08:40:59.000Z</time>
      </trkpt>
      <trkpt lat="43.76688" lon="7.17207">
        <ele>353.20001220703</ele>
        <time>2021-02-25T08:41:01.000Z</time>
      </trkpt>
      <trkpt lat="43.76689" lon="7.17204">
        <ele>353.79998779297</ele>
        <time>2021-02-25T08:41:02.000Z</time>
      </trkpt>
      <trkpt lat="43.7669" lon="7.17196">
        <ele>355</ele>
        <time>2021-02-25T08:41:05.000Z</time>
      </trkpt>
      <trkpt lat="43.76691" lon="7.17187">
        <ele>356.20001220703</ele>
        <time>2021-02-25T08:41:08.000Z</time>
      </trkpt>
      <trkpt lat="43.76692" lon="7.17182">
        <ele>357</ele>
        <time>2021-02-25T08:41:10.000Z</time>
      </trkpt>
      <trkpt lat="43.76693" lon="7.17179">
        <ele>357.39999389648</ele>
        <time>2021-02-25T08:41:11.000Z</time>
      </trkpt>
      <trkpt lat="43.76694" lon="7.17171">
        <ele>358.79998779297</ele>
        <time>2021-02-25T08:41:14.000Z</time>
      </trkpt>
      <trkpt lat="43.76695" lon="7.17163">
        <ele>359.79998779297</ele>
        <time>2021-02-25T08:41:17.000Z</time>
      </trkpt>
      <trkpt lat="43.76695" lon="7.1716">
        <ele>360.20001220703</ele>
        <time>2021-02-25T08:41:18.000Z</time>
      </trkpt>
      <trkpt lat="43.76697" lon="7.17152">
        <ele>361</ele>
        <time>2021-02-25T08:41:21.000Z</time>
      </trkpt>
      <trkpt lat="43.76698" lon="7.17136">
        <ele>362</ele>
        <time>2021-02-25T08:41:26.000Z</time>
      </trkpt>
      <trkpt lat="43.767" lon="7.17123">
        <ele>363</ele>
        <time>2021-02-25T08:41:30.000Z</time>
      </trkpt>
      <trkpt lat="43.76701" lon="7.17114">
        <ele>364</ele>
        <time>2021-02-25T08:41:33.000Z</time>
      </trkpt>
      <trkpt lat="43.76701" lon="7.17111">
        <ele>364.39999389648</ele>
        <time>2021-02-25T08:41:34.000Z</time>
      </trkpt>
      <trkpt lat="43.76701" lon="7.17102">
        <ele>365.79998779297</ele>
        <time>2021-02-25T08:41:37.000Z</time>
      </trkpt>
      <trkpt lat="43.76701" lon="7.17094">
        <ele>367</ele>
        <time>2021-02-25T08:41:40.000Z</time>
      </trkpt>
      <trkpt lat="43.76701" lon="7.17082">
        <ele>368.20001220703</ele>
        <time>2021-02-25T08:41:44.000Z</time>
      </trkpt>
      <trkpt lat="43.76698" lon="7.17075">
        <ele>369.20001220703</ele>
        <time>2021-02-25T08:41:47.000Z</time>
      </trkpt>
      <trkpt lat="43.76696" lon="7.17073">
        <ele>369.39999389648</ele>
        <time>2021-02-25T08:41:48.000Z</time>
      </trkpt>
      <trkpt lat="43.76688" lon="7.17063">
        <ele>370</ele>
        <time>2021-02-25T08:41:53.000Z</time>
      </trkpt>
      <trkpt lat="43.76678" lon="7.17054">
        <ele>370.39999389648</ele>
        <time>2021-02-25T08:41:59.000Z</time>
      </trkpt>
      <trkpt lat="43.76676" lon="7.17052">
        <ele>370.39999389648</ele>
        <time>2021-02-25T08:42:00.000Z</time>
      </trkpt>
      <trkpt lat="43.76673" lon="7.17048">
        <ele>370.60000610352</ele>
        <time>2021-02-25T08:42:05.000Z</time>
      </trkpt>
      <trkpt lat="43.76672" lon="7.17046">
        <ele>370.39999389648</ele>
        <time>2021-02-25T08:42:16.000Z</time>
      </trkpt>
      <trkpt lat="43.7667" lon="7.17042">
        <ele>369.79998779297</ele>
        <time>2021-02-25T08:42:42.000Z</time>
      </trkpt>
      <trkpt lat="43.76668" lon="7.17041">
        <ele>369.60000610352</ele>
        <time>2021-02-25T08:42:44.000Z</time>
      </trkpt>
      <trkpt lat="43.76666" lon="7.17043">
        <ele>369.39999389648</ele>
        <time>2021-02-25T08:42:47.000Z</time>
      </trkpt>
      <trkpt lat="43.76666" lon="7.17045">
        <ele>369.20001220703</ele>
        <time>2021-02-25T08:42:48.000Z</time>
      </trkpt>
      <trkpt lat="43.76668" lon="7.17044">
        <ele>369</ele>
        <time>2021-02-25T08:42:50.000Z</time>
      </trkpt>
      <trkpt lat="43.76672" lon="7.1704">
        <ele>369.20001220703</ele>
        <time>2021-02-25T08:42:52.000Z</time>
      </trkpt>
      <trkpt lat="43.76677" lon="7.1703">
        <ele>370.39999389648</ele>
        <time>2021-02-25T08:42:56.000Z</time>
      </trkpt>
      <trkpt lat="43.76681" lon="7.17024">
        <ele>371.79998779297</ele>
        <time>2021-02-25T08:42:59.000Z</time>
      </trkpt>
      <trkpt lat="43.76683" lon="7.17022">
        <ele>372.20001220703</ele>
        <time>2021-02-25T08:43:00.000Z</time>
      </trkpt>
      <trkpt lat="43.76686" lon="7.17018">
        <ele>373</ele>
        <time>2021-02-25T08:43:02.000Z</time>
      </trkpt>
      <trkpt lat="43.76691" lon="7.17008">
        <ele>374.20001220703</ele>
        <time>2021-02-25T08:43:06.000Z</time>
      </trkpt>
      <trkpt lat="43.76693" lon="7.17002">
        <ele>375.20001220703</ele>
        <time>2021-02-25T08:43:09.000Z</time>
      </trkpt>
      <trkpt lat="43.76694" lon="7.17001">
        <ele>375.60000610352</ele>
        <time>2021-02-25T08:43:10.000Z</time>
      </trkpt>
      <trkpt lat="43.76696" lon="7.16995">
        <ele>376.39999389648</ele>
        <time>2021-02-25T08:43:13.000Z</time>
      </trkpt>
      <trkpt lat="43.76697" lon="7.16993">
        <ele>376.60000610352</ele>
        <time>2021-02-25T08:43:14.000Z</time>
      </trkpt>
      <trkpt lat="43.76699" lon="7.16978">
        <ele>377.60000610352</ele>
        <time>2021-02-25T08:43:20.000Z</time>
      </trkpt>
      <trkpt lat="43.76701" lon="7.16968">
        <ele>378.60000610352</ele>
        <time>2021-02-25T08:43:24.000Z</time>
      </trkpt>
      <trkpt lat="43.76703" lon="7.16961">
        <ele>379.39999389648</ele>
        <time>2021-02-25T08:43:27.000Z</time>
      </trkpt>
      <trkpt lat="43.76704" lon="7.16959">
        <ele>379.60000610352</ele>
        <time>2021-02-25T08:43:28.000Z</time>
      </trkpt>
      <trkpt lat="43.76706" lon="7.1695">
        <ele>381</ele>
        <time>2021-02-25T08:43:32.000Z</time>
      </trkpt>
      <trkpt lat="43.76706" lon="7.16947">
        <ele>381.39999389648</ele>
        <time>2021-02-25T08:43:33.000Z</time>
      </trkpt>
      <trkpt lat="43.76707" lon="7.16942">
        <ele>382</ele>
        <time>2021-02-25T08:43:35.000Z</time>
      </trkpt>
      <trkpt lat="43.76711" lon="7.16937">
        <ele>383.20001220703</ele>
        <time>2021-02-25T08:43:38.000Z</time>
      </trkpt>
      <trkpt lat="43.76713" lon="7.16934">
        <ele>383.39999389648</ele>
        <time>2021-02-25T08:43:39.000Z</time>
      </trkpt>
      <trkpt lat="43.76715" lon="7.16932">
        <ele>384.39999389648</ele>
        <time>2021-02-25T08:43:41.000Z</time>
      </trkpt>
      <trkpt lat="43.76717" lon="7.1693">
        <ele>385.39999389648</ele>
        <time>2021-02-25T08:43:43.000Z</time>
      </trkpt>
      <trkpt lat="43.76718" lon="7.16929">
        <ele>385.79998779297</ele>
        <time>2021-02-25T08:43:44.000Z</time>
      </trkpt>
      <trkpt lat="43.7672" lon="7.16926">
        <ele>386.60000610352</ele>
        <time>2021-02-25T08:43:46.000Z</time>
      </trkpt>
      <trkpt lat="43.76725" lon="7.16926">
        <ele>387.79998779297</ele>
        <time>2021-02-25T08:43:49.000Z</time>
      </trkpt>
      <trkpt lat="43.76727" lon="7.16925">
        <ele>388.39999389648</ele>
        <time>2021-02-25T08:43:51.000Z</time>
      </trkpt>
      <trkpt lat="43.76731" lon="7.16924">
        <ele>389</ele>
        <time>2021-02-25T08:43:53.000Z</time>
      </trkpt>
      <trkpt lat="43.76735" lon="7.16922">
        <ele>389.60000610352</ele>
        <time>2021-02-25T08:43:55.000Z</time>
      </trkpt>
      <trkpt lat="43.7674" lon="7.1692">
        <ele>390.20001220703</ele>
        <time>2021-02-25T08:43:59.000Z</time>
      </trkpt>
      <trkpt lat="43.76741" lon="7.16919">
        <ele>390.39999389648</ele>
        <time>2021-02-25T08:44:00.000Z</time>
      </trkpt>
      <trkpt lat="43.76746" lon="7.16917">
        <ele>391.20001220703</ele>
        <time>2021-02-25T08:44:03.000Z</time>
      </trkpt>
      <trkpt lat="43.76748" lon="7.16915">
        <ele>391.79998779297</ele>
        <time>2021-02-25T08:44:05.000Z</time>
      </trkpt>
      <trkpt lat="43.76749" lon="7.16914">
        <ele>392.20001220703</ele>
        <time>2021-02-25T08:44:06.000Z</time>
      </trkpt>
      <trkpt lat="43.76755" lon="7.16912">
        <ele>393.20001220703</ele>
        <time>2021-02-25T08:44:09.000Z</time>
      </trkpt>
      <trkpt lat="43.76756" lon="7.16912">
        <ele>393.39999389648</ele>
        <time>2021-02-25T08:44:10.000Z</time>
      </trkpt>
      <trkpt lat="43.76763" lon="7.16909">
        <ele>394.20001220703</ele>
        <time>2021-02-25T08:44:14.000Z</time>
      </trkpt>
      <trkpt lat="43.76764" lon="7.16909">
        <ele>394.39999389648</ele>
        <time>2021-02-25T08:44:15.000Z</time>
      </trkpt>
      <trkpt lat="43.76772" lon="7.16908">
        <ele>395.60000610352</ele>
        <time>2021-02-25T08:44:19.000Z</time>
      </trkpt>
      <trkpt lat="43.76774" lon="7.16906">
        <ele>396</ele>
        <time>2021-02-25T08:44:20.000Z</time>
      </trkpt>
      <trkpt lat="43.76775" lon="7.16906">
        <ele>396.60000610352</ele>
        <time>2021-02-25T08:44:21.000Z</time>
      </trkpt>
      <trkpt lat="43.76777" lon="7.16906">
        <ele>397</ele>
        <time>2021-02-25T08:44:22.000Z</time>
      </trkpt>
      <trkpt lat="43.76781" lon="7.16905">
        <ele>398.20001220703</ele>
        <time>2021-02-25T08:44:24.000Z</time>
      </trkpt>
      <trkpt lat="43.76782" lon="7.16905">
        <ele>398.60000610352</ele>
        <time>2021-02-25T08:44:25.000Z</time>
      </trkpt>
      <trkpt lat="43.76785" lon="7.16905">
        <ele>399.20001220703</ele>
        <time>2021-02-25T08:44:27.000Z</time>
      </trkpt>
      <trkpt lat="43.76785" lon="7.16903">
        <ele>400.20001220703</ele>
        <time>2021-02-25T08:44:31.000Z</time>
      </trkpt>
      <trkpt lat="43.76784" lon="7.16902">
        <ele>400.39999389648</ele>
        <time>2021-02-25T08:44:32.000Z</time>
      </trkpt>
      <trkpt lat="43.76779" lon="7.169">
        <ele>400.60000610352</ele>
        <time>2021-02-25T08:44:35.000Z</time>
      </trkpt>
      <trkpt lat="43.76776" lon="7.16898">
        <ele>400.60000610352</ele>
        <time>2021-02-25T08:44:37.000Z</time>
      </trkpt>
      <trkpt lat="43.76765" lon="7.16892">
        <ele>400.60000610352</ele>
        <time>2021-02-25T08:44:42.000Z</time>
      </trkpt>
      <trkpt lat="43.76743" lon="7.16886">
        <ele>400</ele>
        <time>2021-02-25T08:44:48.000Z</time>
      </trkpt>
      <trkpt lat="43.76715" lon="7.16882">
        <ele>399.60000610352</ele>
        <time>2021-02-25T08:44:55.000Z</time>
      </trkpt>
      <trkpt lat="43.76684" lon="7.16877">
        <ele>399.79998779297</ele>
        <time>2021-02-25T08:45:03.000Z</time>
      </trkpt>
      <trkpt lat="43.76652" lon="7.16873">
        <ele>400</ele>
        <time>2021-02-25T08:45:12.000Z</time>
      </trkpt>
      <trkpt lat="43.76631" lon="7.16879">
        <ele>400.79998779297</ele>
        <time>2021-02-25T08:45:19.000Z</time>
      </trkpt>
      <trkpt lat="43.7662" lon="7.16883">
        <ele>401.39999389648</ele>
        <time>2021-02-25T08:45:23.000Z</time>
      </trkpt>
      <trkpt lat="43.76615" lon="7.16883">
        <ele>401.79998779297</ele>
        <time>2021-02-25T08:45:25.000Z</time>
      </trkpt>
      <trkpt lat="43.76605" lon="7.16882">
        <ele>402.39999389648</ele>
        <time>2021-02-25T08:45:29.000Z</time>
      </trkpt>
      <trkpt lat="43.766" lon="7.16881">
        <ele>403</ele>
        <time>2021-02-25T08:45:31.000Z</time>
      </trkpt>
      <trkpt lat="43.76591" lon="7.16882">
        <ele>403.60000610352</ele>
        <time>2021-02-25T08:45:34.000Z</time>
      </trkpt>
      <trkpt lat="43.76586" lon="7.16882">
        <ele>403.79998779297</ele>
        <time>2021-02-25T08:45:36.000Z</time>
      </trkpt>
      <trkpt lat="43.76571" lon="7.16883">
        <ele>404.60000610352</ele>
        <time>2021-02-25T08:45:41.000Z</time>
      </trkpt>
      <trkpt lat="43.76569" lon="7.16882">
        <ele>404.79998779297</ele>
        <time>2021-02-25T08:45:42.000Z</time>
      </trkpt>
      <trkpt lat="43.76558" lon="7.16876">
        <ele>405.79998779297</ele>
        <time>2021-02-25T08:45:46.000Z</time>
      </trkpt>
      <trkpt lat="43.76553" lon="7.16872">
        <ele>406.20001220703</ele>
        <time>2021-02-25T08:45:48.000Z</time>
      </trkpt>
      <trkpt lat="43.76542" lon="7.16868">
        <ele>406.79998779297</ele>
        <time>2021-02-25T08:45:52.000Z</time>
      </trkpt>
      <trkpt lat="43.76534" lon="7.16867">
        <ele>407.20001220703</ele>
        <time>2021-02-25T08:45:55.000Z</time>
      </trkpt>
      <trkpt lat="43.76526" lon="7.16869">
        <ele>407.79998779297</ele>
        <time>2021-02-25T08:45:58.000Z</time>
      </trkpt>
      <trkpt lat="43.76516" lon="7.16872">
        <ele>408.20001220703</ele>
        <time>2021-02-25T08:46:02.000Z</time>
      </trkpt>
      <trkpt lat="43.7651" lon="7.16876">
        <ele>408.79998779297</ele>
        <time>2021-02-25T08:46:06.000Z</time>
      </trkpt>
      <trkpt lat="43.76509" lon="7.16875">
        <ele>409</ele>
        <time>2021-02-25T08:46:07.000Z</time>
      </trkpt>
      <trkpt lat="43.7651" lon="7.16869">
        <ele>409.39999389648</ele>
        <time>2021-02-25T08:46:10.000Z</time>
      </trkpt>
      <trkpt lat="43.76515" lon="7.16863">
        <ele>409.79998779297</ele>
        <time>2021-02-25T08:46:13.000Z</time>
      </trkpt>
      <trkpt lat="43.76516" lon="7.16861">
        <ele>410</ele>
        <time>2021-02-25T08:46:14.000Z</time>
      </trkpt>
      <trkpt lat="43.76525" lon="7.16855">
        <ele>411</ele>
        <time>2021-02-25T08:46:18.000Z</time>
      </trkpt>
      <trkpt lat="43.76527" lon="7.16854">
        <ele>411.20001220703</ele>
        <time>2021-02-25T08:46:19.000Z</time>
      </trkpt>
      <trkpt lat="43.76535" lon="7.16851">
        <ele>412.20001220703</ele>
        <time>2021-02-25T08:46:23.000Z</time>
      </trkpt>
      <trkpt lat="43.76539" lon="7.16851">
        <ele>412.39999389648</ele>
        <time>2021-02-25T08:46:25.000Z</time>
      </trkpt>
      <trkpt lat="43.76539" lon="7.1685">
        <ele>412.39999389648</ele>
        <time>2021-02-25T08:46:26.000Z</time>
      </trkpt>
      <trkpt lat="43.76542" lon="7.1685">
        <ele>412.39999389648</ele>
        <time>2021-02-25T08:46:27.000Z</time>
      </trkpt>
      <trkpt lat="43.76564" lon="7.1685">
        <ele>413.39999389648</ele>
        <time>2021-02-25T08:46:36.000Z</time>
      </trkpt>
      <trkpt lat="43.7658" lon="7.1685">
        <ele>414.39999389648</ele>
        <time>2021-02-25T08:46:43.000Z</time>
      </trkpt>
      <trkpt lat="43.76583" lon="7.16849">
        <ele>414.60000610352</ele>
        <time>2021-02-25T08:46:44.000Z</time>
      </trkpt>
      <trkpt lat="43.7659" lon="7.16847">
        <ele>415.39999389648</ele>
        <time>2021-02-25T08:46:47.000Z</time>
      </trkpt>
      <trkpt lat="43.76597" lon="7.16841">
        <ele>416.39999389648</ele>
        <time>2021-02-25T08:46:51.000Z</time>
      </trkpt>
      <trkpt lat="43.766" lon="7.1684">
        <ele>416.60000610352</ele>
        <time>2021-02-25T08:46:52.000Z</time>
      </trkpt>
      <trkpt lat="43.76608" lon="7.16836">
        <ele>417.39999389648</ele>
        <time>2021-02-25T08:46:56.000Z</time>
      </trkpt>
      <trkpt lat="43.7661" lon="7.16835">
        <ele>417.60000610352</ele>
        <time>2021-02-25T08:46:57.000Z</time>
      </trkpt>
      <trkpt lat="43.76619" lon="7.16827">
        <ele>418.79998779297</ele>
        <time>2021-02-25T08:47:02.000Z</time>
      </trkpt>
      <trkpt lat="43.76621" lon="7.16825">
        <ele>419</ele>
        <time>2021-02-25T08:47:03.000Z</time>
      </trkpt>
      <trkpt lat="43.7663" lon="7.16818">
        <ele>419.79998779297</ele>
        <time>2021-02-25T08:47:07.000Z</time>
      </trkpt>
      <trkpt lat="43.76634" lon="7.16815">
        <ele>420</ele>
        <time>2021-02-25T08:47:09.000Z</time>
      </trkpt>
      <trkpt lat="43.76648" lon="7.16807">
        <ele>420.79998779297</ele>
        <time>2021-02-25T08:47:15.000Z</time>
      </trkpt>
      <trkpt lat="43.76656" lon="7.16803">
        <ele>421.39999389648</ele>
        <time>2021-02-25T08:47:18.000Z</time>
      </trkpt>
      <trkpt lat="43.76665" lon="7.16799">
        <ele>422</ele>
        <time>2021-02-25T08:47:22.000Z</time>
      </trkpt>
      <trkpt lat="43.7667" lon="7.16797">
        <ele>422.39999389648</ele>
        <time>2021-02-25T08:47:24.000Z</time>
      </trkpt>
      <trkpt lat="43.7668" lon="7.16793">
        <ele>423.20001220703</ele>
        <time>2021-02-25T08:47:28.000Z</time>
      </trkpt>
      <trkpt lat="43.76683" lon="7.1679">
        <ele>423.79998779297</ele>
        <time>2021-02-25T08:47:30.000Z</time>
      </trkpt>
      <trkpt lat="43.76687" lon="7.16787">
        <ele>424.39999389648</ele>
        <time>2021-02-25T08:47:32.000Z</time>
      </trkpt>
      <trkpt lat="43.76695" lon="7.1678">
        <ele>425.20001220703</ele>
        <time>2021-02-25T08:47:36.000Z</time>
      </trkpt>
      <trkpt lat="43.76698" lon="7.16776">
        <ele>425.60000610352</ele>
        <time>2021-02-25T08:47:38.000Z</time>
      </trkpt>
      <trkpt lat="43.76705" lon="7.1677">
        <ele>426.79998779297</ele>
        <time>2021-02-25T08:47:42.000Z</time>
      </trkpt>
      <trkpt lat="43.76711" lon="7.16766">
        <ele>427.79998779297</ele>
        <time>2021-02-25T08:47:46.000Z</time>
      </trkpt>
      <trkpt lat="43.76713" lon="7.16766">
        <ele>428</ele>
        <time>2021-02-25T08:47:47.000Z</time>
      </trkpt>
      <trkpt lat="43.76727" lon="7.16767">
        <ele>428.60000610352</ele>
        <time>2021-02-25T08:47:53.000Z</time>
      </trkpt>
      <trkpt lat="43.76732" lon="7.16769">
        <ele>428.79998779297</ele>
        <time>2021-02-25T08:47:55.000Z</time>
      </trkpt>
      <trkpt lat="43.7674" lon="7.16772">
        <ele>429</ele>
        <time>2021-02-25T08:47:58.000Z</time>
      </trkpt>
      <trkpt lat="43.76756" lon="7.16776">
        <ele>429.20001220703</ele>
        <time>2021-02-25T08:48:04.000Z</time>
      </trkpt>
      <trkpt lat="43.76773" lon="7.16779">
        <ele>429.79998779297</ele>
        <time>2021-02-25T08:48:10.000Z</time>
      </trkpt>
      <trkpt lat="43.76775" lon="7.16779">
        <ele>429.79998779297</ele>
        <time>2021-02-25T08:48:11.000Z</time>
      </trkpt>
      <trkpt lat="43.76791" lon="7.16774">
        <ele>430.60000610352</ele>
        <time>2021-02-25T08:48:17.000Z</time>
      </trkpt>
      <trkpt lat="43.76798" lon="7.1677">
        <ele>431</ele>
        <time>2021-02-25T08:48:19.000Z</time>
      </trkpt>
      <trkpt lat="43.76803" lon="7.16766">
        <ele>431.39999389648</ele>
        <time>2021-02-25T08:48:21.000Z</time>
      </trkpt>
      <trkpt lat="43.7681" lon="7.16763">
        <ele>432</ele>
        <time>2021-02-25T08:48:24.000Z</time>
      </trkpt>
      <trkpt lat="43.76816" lon="7.16758">
        <ele>433</ele>
        <time>2021-02-25T08:48:27.000Z</time>
      </trkpt>
      <trkpt lat="43.76818" lon="7.16756">
        <ele>433.20001220703</ele>
        <time>2021-02-25T08:48:28.000Z</time>
      </trkpt>
      <trkpt lat="43.76827" lon="7.16749">
        <ele>434.39999389648</ele>
        <time>2021-02-25T08:48:32.000Z</time>
      </trkpt>
      <trkpt lat="43.76835" lon="7.16742">
        <ele>435.20001220703</ele>
        <time>2021-02-25T08:48:36.000Z</time>
      </trkpt>
      <trkpt lat="43.76837" lon="7.1674">
        <ele>435.39999389648</ele>
        <time>2021-02-25T08:48:37.000Z</time>
      </trkpt>
      <trkpt lat="43.7685" lon="7.16729">
        <ele>436.60000610352</ele>
        <time>2021-02-25T08:48:43.000Z</time>
      </trkpt>
      <trkpt lat="43.76861" lon="7.16726">
        <ele>437.60000610352</ele>
        <time>2021-02-25T08:48:48.000Z</time>
      </trkpt>
      <trkpt lat="43.76865" lon="7.16725">
        <ele>437.60000610352</ele>
        <time>2021-02-25T08:48:50.000Z</time>
      </trkpt>
      <trkpt lat="43.76873" lon="7.16722">
        <ele>437.39999389648</ele>
        <time>2021-02-25T08:48:54.000Z</time>
      </trkpt>
      <trkpt lat="43.7688" lon="7.16719">
        <ele>437.79998779297</ele>
        <time>2021-02-25T08:49:00.000Z</time>
      </trkpt>
      <trkpt lat="43.76879" lon="7.16717">
        <ele>438.20001220703</ele>
        <time>2021-02-25T08:49:05.000Z</time>
      </trkpt>
      <trkpt lat="43.76869" lon="7.16722">
        <ele>437.79998779297</ele>
        <time>2021-02-25T08:49:10.000Z</time>
      </trkpt>
      <trkpt lat="43.76857" lon="7.16724">
        <ele>437.60000610352</ele>
        <time>2021-02-25T08:49:16.000Z</time>
      </trkpt>
      <trkpt lat="43.76841" lon="7.16736">
        <ele>437.20001220703</ele>
        <time>2021-02-25T08:49:22.000Z</time>
      </trkpt>
      <trkpt lat="43.76836" lon="7.1674">
        <ele>436.60000610352</ele>
        <time>2021-02-25T08:49:25.000Z</time>
      </trkpt>
      <trkpt lat="43.76835" lon="7.1674">
        <ele>436.39999389648</ele>
        <time>2021-02-25T08:49:26.000Z</time>
      </trkpt>
      <trkpt lat="43.76829" lon="7.16736">
        <ele>435.79998779297</ele>
        <time>2021-02-25T08:49:30.000Z</time>
      </trkpt>
      <trkpt lat="43.76817" lon="7.16736">
        <ele>436</ele>
        <time>2021-02-25T08:49:34.000Z</time>
      </trkpt>
      <trkpt lat="43.76814" lon="7.16735">
        <ele>436.20001220703</ele>
        <time>2021-02-25T08:49:35.000Z</time>
      </trkpt>
      <trkpt lat="43.76797" lon="7.16731">
        <ele>436.79998779297</ele>
        <time>2021-02-25T08:49:41.000Z</time>
      </trkpt>
      <trkpt lat="43.76788" lon="7.16725">
        <ele>437.39999389648</ele>
        <time>2021-02-25T08:49:45.000Z</time>
      </trkpt>
      <trkpt lat="43.76786" lon="7.16724">
        <ele>437.79998779297</ele>
        <time>2021-02-25T08:49:46.000Z</time>
      </trkpt>
      <trkpt lat="43.76776" lon="7.1672">
        <ele>438.79998779297</ele>
        <time>2021-02-25T08:49:50.000Z</time>
      </trkpt>
      <trkpt lat="43.76772" lon="7.16718">
        <ele>439.20001220703</ele>
        <time>2021-02-25T08:49:52.000Z</time>
      </trkpt>
      <trkpt lat="43.76766" lon="7.16715">
        <ele>440</ele>
        <time>2021-02-25T08:49:55.000Z</time>
      </trkpt>
      <trkpt lat="43.76762" lon="7.16713">
        <ele>441</ele>
        <time>2021-02-25T08:49:58.000Z</time>
      </trkpt>
      <trkpt lat="43.7676" lon="7.16711">
        <ele>441.20001220703</ele>
        <time>2021-02-25T08:49:59.000Z</time>
      </trkpt>
      <trkpt lat="43.76751" lon="7.16706">
        <ele>442.20001220703</ele>
        <time>2021-02-25T08:50:04.000Z</time>
      </trkpt>
      <trkpt lat="43.76749" lon="7.16704">
        <ele>442.39999389648</ele>
        <time>2021-02-25T08:50:05.000Z</time>
      </trkpt>
      <trkpt lat="43.76741" lon="7.16699">
        <ele>443.39999389648</ele>
        <time>2021-02-25T08:50:10.000Z</time>
      </trkpt>
      <trkpt lat="43.76733" lon="7.16696">
        <ele>444.60000610352</ele>
        <time>2021-02-25T08:50:14.000Z</time>
      </trkpt>
      <trkpt lat="43.7673" lon="7.16694">
        <ele>445</ele>
        <time>2021-02-25T08:50:16.000Z</time>
      </trkpt>
      <trkpt lat="43.76727" lon="7.16693">
        <ele>445.79998779297</ele>
        <time>2021-02-25T08:50:18.000Z</time>
      </trkpt>
      <trkpt lat="43.7672" lon="7.1669">
        <ele>447</ele>
        <time>2021-02-25T08:50:22.000Z</time>
      </trkpt>
      <trkpt lat="43.76711" lon="7.16685">
        <ele>448.20001220703</ele>
        <time>2021-02-25T08:50:27.000Z</time>
      </trkpt>
      <trkpt lat="43.76707" lon="7.16684">
        <ele>448.60000610352</ele>
        <time>2021-02-25T08:50:29.000Z</time>
      </trkpt>
      <trkpt lat="43.76701" lon="7.16683">
        <ele>449.39999389648</ele>
        <time>2021-02-25T08:50:32.000Z</time>
      </trkpt>
      <trkpt lat="43.76694" lon="7.16682">
        <ele>450.39999389648</ele>
        <time>2021-02-25T08:50:36.000Z</time>
      </trkpt>
      <trkpt lat="43.76685" lon="7.16681">
        <ele>451.60000610352</ele>
        <time>2021-02-25T08:50:41.000Z</time>
      </trkpt>
      <trkpt lat="43.76683" lon="7.1668">
        <ele>451.79998779297</ele>
        <time>2021-02-25T08:50:42.000Z</time>
      </trkpt>
      <trkpt lat="43.76676" lon="7.16679">
        <ele>452.79998779297</ele>
        <time>2021-02-25T08:50:46.000Z</time>
      </trkpt>
      <trkpt lat="43.76665" lon="7.16678">
        <ele>453.79998779297</ele>
        <time>2021-02-25T08:50:52.000Z</time>
      </trkpt>
      <trkpt lat="43.76654" lon="7.16679">
        <ele>455</ele>
        <time>2021-02-25T08:50:58.000Z</time>
      </trkpt>
      <trkpt lat="43.7664" lon="7.16679">
        <ele>456</ele>
        <time>2021-02-25T08:51:05.000Z</time>
      </trkpt>
      <trkpt lat="43.76638" lon="7.16679">
        <ele>456.20001220703</ele>
        <time>2021-02-25T08:51:06.000Z</time>
      </trkpt>
      <trkpt lat="43.76626" lon="7.16677">
        <ele>457</ele>
        <time>2021-02-25T08:51:12.000Z</time>
      </trkpt>
      <trkpt lat="43.76624" lon="7.16677">
        <ele>457.20001220703</ele>
        <time>2021-02-25T08:51:13.000Z</time>
      </trkpt>
      <trkpt lat="43.76607" lon="7.16676">
        <ele>458</ele>
        <time>2021-02-25T08:51:20.000Z</time>
      </trkpt>
      <trkpt lat="43.76598" lon="7.16677">
        <ele>458.39999389648</ele>
        <time>2021-02-25T08:51:24.000Z</time>
      </trkpt>
      <trkpt lat="43.76593" lon="7.16678">
        <ele>458.39999389648</ele>
        <time>2021-02-25T08:51:26.000Z</time>
      </trkpt>
      <trkpt lat="43.76577" lon="7.16684">
        <ele>459</ele>
        <time>2021-02-25T08:51:33.000Z</time>
      </trkpt>
      <trkpt lat="43.76572" lon="7.16681">
        <ele>459</ele>
        <time>2021-02-25T08:51:39.000Z</time>
      </trkpt>
      <trkpt lat="43.76572" lon="7.16677">
        <ele>459.39999389648</ele>
        <time>2021-02-25T08:51:42.000Z</time>
      </trkpt>
      <trkpt lat="43.7657" lon="7.16674">
        <ele>460</ele>
        <time>2021-02-25T08:51:45.000Z</time>
      </trkpt>
      <trkpt lat="43.76567" lon="7.16669">
        <ele>460.60000610352</ele>
        <time>2021-02-25T08:51:48.000Z</time>
      </trkpt>
      <trkpt lat="43.76566" lon="7.16668">
        <ele>460.79998779297</ele>
        <time>2021-02-25T08:51:49.000Z</time>
      </trkpt>
      <trkpt lat="43.76564" lon="7.16667">
        <ele>461.60000610352</ele>
        <time>2021-02-25T08:51:51.000Z</time>
      </trkpt>
      <trkpt lat="43.76564" lon="7.16665">
        <ele>461.79998779297</ele>
        <time>2021-02-25T08:51:52.000Z</time>
      </trkpt>
      <trkpt lat="43.76559" lon="7.1666">
        <ele>463</ele>
        <time>2021-02-25T08:51:56.000Z</time>
      </trkpt>
      <trkpt lat="43.76557" lon="7.16658">
        <ele>463.39999389648</ele>
        <time>2021-02-25T08:51:57.000Z</time>
      </trkpt>
      <trkpt lat="43.76554" lon="7.16654">
        <ele>464.39999389648</ele>
        <time>2021-02-25T08:52:00.000Z</time>
      </trkpt>
      <trkpt lat="43.7655" lon="7.16652">
        <ele>465.60000610352</ele>
        <time>2021-02-25T08:52:03.000Z</time>
      </trkpt>
      <trkpt lat="43.76545" lon="7.16651">
        <ele>466.60000610352</ele>
        <time>2021-02-25T08:52:06.000Z</time>
      </trkpt>
      <trkpt lat="43.76542" lon="7.16649">
        <ele>467</ele>
        <time>2021-02-25T08:52:08.000Z</time>
      </trkpt>
      <trkpt lat="43.76539" lon="7.16647">
        <ele>467.60000610352</ele>
        <time>2021-02-25T08:52:10.000Z</time>
      </trkpt>
      <trkpt lat="43.76539" lon="7.16646">
        <ele>468</ele>
        <time>2021-02-25T08:52:11.000Z</time>
      </trkpt>
      <trkpt lat="43.76537" lon="7.16643">
        <ele>469</ele>
        <time>2021-02-25T08:52:13.000Z</time>
      </trkpt>
      <trkpt lat="43.76534" lon="7.1664">
        <ele>470.20001220703</ele>
        <time>2021-02-25T08:52:15.000Z</time>
      </trkpt>
      <trkpt lat="43.76534" lon="7.16638">
        <ele>470.79998779297</ele>
        <time>2021-02-25T08:52:16.000Z</time>
      </trkpt>
      <trkpt lat="43.76535" lon="7.16637">
        <ele>471.39999389648</ele>
        <time>2021-02-25T08:52:17.000Z</time>
      </trkpt>
      <trkpt lat="43.76536" lon="7.16635">
        <ele>472</ele>
        <time>2021-02-25T08:52:18.000Z</time>
      </trkpt>
      <trkpt lat="43.76536" lon="7.16634">
        <ele>472.60000610352</ele>
        <time>2021-02-25T08:52:19.000Z</time>
      </trkpt>
      <trkpt lat="43.76535" lon="7.16631">
        <ele>473.79998779297</ele>
        <time>2021-02-25T08:52:21.000Z</time>
      </trkpt>
      <trkpt lat="43.76537" lon="7.16629">
        <ele>474.20001220703</ele>
        <time>2021-02-25T08:52:22.000Z</time>
      </trkpt>
      <trkpt lat="43.76538" lon="7.16627">
        <ele>475</ele>
        <time>2021-02-25T08:52:24.000Z</time>
      </trkpt>
      <trkpt lat="43.76537" lon="7.16628">
        <ele>476.20001220703</ele>
        <time>2021-02-25T08:52:27.000Z</time>
      </trkpt>
      <trkpt lat="43.76535" lon="7.16627">
        <ele>476.60000610352</ele>
        <time>2021-02-25T08:52:34.000Z</time>
      </trkpt>
      <trkpt lat="43.76534" lon="7.16624">
        <ele>476.20001220703</ele>
        <time>2021-02-25T08:52:38.000Z</time>
      </trkpt>
      <trkpt lat="43.76533" lon="7.16623">
        <ele>476.39999389648</ele>
        <time>2021-02-25T08:52:39.000Z</time>
      </trkpt>
      <trkpt lat="43.7653" lon="7.1662">
        <ele>477.79998779297</ele>
        <time>2021-02-25T08:52:43.000Z</time>
      </trkpt>
      <trkpt lat="43.76528" lon="7.1662">
        <ele>478.60000610352</ele>
        <time>2021-02-25T08:52:44.000Z</time>
      </trkpt>
      <trkpt lat="43.76528" lon="7.16619">
        <ele>479.20001220703</ele>
        <time>2021-02-25T08:52:45.000Z</time>
      </trkpt>
      <trkpt lat="43.76524" lon="7.16618">
        <ele>480.39999389648</ele>
        <time>2021-02-25T08:52:47.000Z</time>
      </trkpt>
      <trkpt lat="43.76518" lon="7.16616">
        <ele>481.60000610352</ele>
        <time>2021-02-25T08:52:49.000Z</time>
      </trkpt>
      <trkpt lat="43.76517" lon="7.16613">
        <ele>482.20001220703</ele>
        <time>2021-02-25T08:52:50.000Z</time>
      </trkpt>
      <trkpt lat="43.76517" lon="7.16611">
        <ele>483</ele>
        <time>2021-02-25T08:52:51.000Z</time>
      </trkpt>
      <trkpt lat="43.76518" lon="7.1661">
        <ele>483.60000610352</ele>
        <time>2021-02-25T08:52:52.000Z</time>
      </trkpt>
      <trkpt lat="43.76518" lon="7.16609">
        <ele>484.20001220703</ele>
        <time>2021-02-25T08:52:53.000Z</time>
      </trkpt>
      <trkpt lat="43.7652" lon="7.16606">
        <ele>485.39999389648</ele>
        <time>2021-02-25T08:52:56.000Z</time>
      </trkpt>
      <trkpt lat="43.76522" lon="7.16605">
        <ele>485.39999389648</ele>
        <time>2021-02-25T08:52:57.000Z</time>
      </trkpt>
      <trkpt lat="43.7652" lon="7.166">
        <ele>485.60000610352</ele>
        <time>2021-02-25T08:53:01.000Z</time>
      </trkpt>
      <trkpt lat="43.76519" lon="7.16599">
        <ele>485.60000610352</ele>
        <time>2021-02-25T08:53:02.000Z</time>
      </trkpt>
      <trkpt lat="43.76517" lon="7.166">
        <ele>486</ele>
        <time>2021-02-25T08:53:03.000Z</time>
      </trkpt>
      <trkpt lat="43.76516" lon="7.16599">
        <ele>486.79998779297</ele>
        <time>2021-02-25T08:53:05.000Z</time>
      </trkpt>
      <trkpt lat="43.76514" lon="7.16598">
        <ele>487.39999389648</ele>
        <time>2021-02-25T08:53:06.000Z</time>
      </trkpt>
      <trkpt lat="43.76514" lon="7.16598">
        <ele>488</ele>
        <time>2021-02-25T08:53:07.000Z</time>
      </trkpt>
      <trkpt lat="43.76514" lon="7.16598">
        <ele>489</ele>
        <time>2021-02-25T08:53:09.000Z</time>
      </trkpt>
      <trkpt lat="43.76514" lon="7.16598">
        <ele>489.39999389648</ele>
        <time>2021-02-25T08:53:10.000Z</time>
      </trkpt>
      <trkpt lat="43.76513" lon="7.16598">
        <ele>489.39999389648</ele>
        <time>2021-02-25T08:53:23.000Z</time>
      </trkpt>
      <trkpt lat="43.76511" lon="7.16596">
        <ele>489</ele>
        <time>2021-02-25T08:53:44.000Z</time>
      </trkpt>
      <trkpt lat="43.76508" lon="7.16593">
        <ele>488.79998779297</ele>
        <time>2021-02-25T08:53:57.000Z</time>
      </trkpt>
      <trkpt lat="43.76505" lon="7.16587">
        <ele>489.60000610352</ele>
        <time>2021-02-25T08:54:00.000Z</time>
      </trkpt>
      <trkpt lat="43.76503" lon="7.16587">
        <ele>490.79998779297</ele>
        <time>2021-02-25T08:54:02.000Z</time>
      </trkpt>
      <trkpt lat="43.76499" lon="7.16588">
        <ele>492.60000610352</ele>
        <time>2021-02-25T08:54:04.000Z</time>
      </trkpt>
      <trkpt lat="43.76496" lon="7.16586">
        <ele>494.39999389648</ele>
        <time>2021-02-25T08:54:06.000Z</time>
      </trkpt>
      <trkpt lat="43.76495" lon="7.16585">
        <ele>496</ele>
        <time>2021-02-25T08:54:08.000Z</time>
      </trkpt>
      <trkpt lat="43.76493" lon="7.16587">
        <ele>497</ele>
        <time>2021-02-25T08:54:09.000Z</time>
      </trkpt>
      <trkpt lat="43.76492" lon="7.16589">
        <ele>497.60000610352</ele>
        <time>2021-02-25T08:54:10.000Z</time>
      </trkpt>
      <trkpt lat="43.76491" lon="7.1659">
        <ele>498.20001220703</ele>
        <time>2021-02-25T08:54:11.000Z</time>
      </trkpt>
      <trkpt lat="43.76489" lon="7.16592">
        <ele>498.60000610352</ele>
        <time>2021-02-25T08:54:12.000Z</time>
      </trkpt>
      <trkpt lat="43.76486" lon="7.16593">
        <ele>499.60000610352</ele>
        <time>2021-02-25T08:54:14.000Z</time>
      </trkpt>
      <trkpt lat="43.76482" lon="7.16593">
        <ele>500.60000610352</ele>
        <time>2021-02-25T08:54:16.000Z</time>
      </trkpt>
      <trkpt lat="43.76481" lon="7.16593">
        <ele>501.39999389648</ele>
        <time>2021-02-25T08:54:17.000Z</time>
      </trkpt>
      <trkpt lat="43.76479" lon="7.16593">
        <ele>502</ele>
        <time>2021-02-25T08:54:18.000Z</time>
      </trkpt>
      <trkpt lat="43.76477" lon="7.16594">
        <ele>503.39999389648</ele>
        <time>2021-02-25T08:54:20.000Z</time>
      </trkpt>
      <trkpt lat="43.76475" lon="7.16595">
        <ele>504.39999389648</ele>
        <time>2021-02-25T08:54:22.000Z</time>
      </trkpt>
      <trkpt lat="43.7647" lon="7.16596">
        <ele>505.20001220703</ele>
        <time>2021-02-25T08:54:27.000Z</time>
      </trkpt>
      <trkpt lat="43.76466" lon="7.16596">
        <ele>505.39999389648</ele>
        <time>2021-02-25T08:54:34.000Z</time>
      </trkpt>
      <trkpt lat="43.76464" lon="7.16596">
        <ele>505</ele>
        <time>2021-02-25T08:54:49.000Z</time>
      </trkpt>
      <trkpt lat="43.76463" lon="7.16597">
        <ele>505</ele>
        <time>2021-02-25T08:54:56.000Z</time>
      </trkpt>
      <trkpt lat="43.76461" lon="7.16597">
        <ele>504.60000610352</ele>
        <time>2021-02-25T08:55:09.000Z</time>
      </trkpt>
      <trkpt lat="43.76462" lon="7.16596">
        <ele>504.39999389648</ele>
        <time>2021-02-25T08:55:12.000Z</time>
      </trkpt>
      <trkpt lat="43.76464" lon="7.16596">
        <ele>504.39999389648</ele>
        <time>2021-02-25T08:55:14.000Z</time>
      </trkpt>
      <trkpt lat="43.76468" lon="7.16596">
        <ele>504.39999389648</ele>
        <time>2021-02-25T08:55:21.000Z</time>
      </trkpt>
      <trkpt lat="43.76469" lon="7.16597">
        <ele>504</ele>
        <time>2021-02-25T08:55:30.000Z</time>
      </trkpt>
      <trkpt lat="43.7647" lon="7.16597">
        <ele>504</ele>
        <time>2021-02-25T08:55:38.000Z</time>
      </trkpt>
      <trkpt lat="43.7647" lon="7.16598">
        <ele>503.79998779297</ele>
        <time>2021-02-25T08:55:53.000Z</time>
      </trkpt>
      <trkpt lat="43.7647" lon="7.16599">
        <ele>503.60000610352</ele>
        <time>2021-02-25T08:56:23.000Z</time>
      </trkpt>
      <trkpt lat="43.7647" lon="7.16599">
        <ele>503.60000610352</ele>
        <time>2021-02-25T08:56:48.000Z</time>
      </trkpt>
      <trkpt lat="43.7647" lon="7.16599">
        <ele>503.39999389648</ele>
        <time>2021-02-25T08:57:15.000Z</time>
      </trkpt>
      <trkpt lat="43.76471" lon="7.16599">
        <ele>503.39999389648</ele>
        <time>2021-02-25T08:57:20.000Z</time>
      </trkpt>
      <trkpt lat="43.76471" lon="7.166">
        <ele>503.39999389648</ele>
        <time>2021-02-25T08:57:41.000Z</time>
      </trkpt>
      <trkpt lat="43.76471" lon="7.16601">
        <ele>503.20001220703</ele>
        <time>2021-02-25T08:58:07.000Z</time>
      </trkpt>
      <trkpt lat="43.76471" lon="7.16601">
        <ele>503.20001220703</ele>
        <time>2021-02-25T08:58:23.000Z</time>
      </trkpt>
      <trkpt lat="43.76471" lon="7.16601">
        <ele>503.20001220703</ele>
        <time>2021-02-25T08:58:46.000Z</time>
      </trkpt>
      <trkpt lat="43.7647" lon="7.166">
        <ele>503.20001220703</ele>
        <time>2021-02-25T08:59:07.000Z</time>
      </trkpt>
      <trkpt lat="43.7647" lon="7.166">
        <ele>503.20001220703</ele>
        <time>2021-02-25T08:59:29.000Z</time>
      </trkpt>
      <trkpt lat="43.76469" lon="7.16599">
        <ele>503.20001220703</ele>
        <time>2021-02-25T08:59:53.000Z</time>
      </trkpt>
      <trkpt lat="43.76468" lon="7.16599">
        <ele>503.20001220703</ele>
        <time>2021-02-25T09:00:15.000Z</time>
      </trkpt>
      <trkpt lat="43.76467" lon="7.16599">
        <ele>503.20001220703</ele>
        <time>2021-02-25T09:00:33.000Z</time>
      </trkpt>
      <trkpt lat="43.76466" lon="7.16599">
        <ele>503.20001220703</ele>
        <time>2021-02-25T09:00:51.000Z</time>
      </trkpt>
      <trkpt lat="43.76466" lon="7.16598">
        <ele>503.20001220703</ele>
        <time>2021-02-25T09:01:14.000Z</time>
      </trkpt>
      <trkpt lat="43.76466" lon="7.16598">
        <ele>503.39999389648</ele>
        <time>2021-02-25T09:01:33.000Z</time>
      </trkpt>
      <trkpt lat="43.76466" lon="7.16598">
        <ele>503.20001220703</ele>
        <time>2021-02-25T09:01:53.000Z</time>
      </trkpt>
      <trkpt lat="43.76466" lon="7.16598">
        <ele>503.39999389648</ele>
        <time>2021-02-25T09:02:21.000Z</time>
      </trkpt>
      <trkpt lat="43.76467" lon="7.16598">
        <ele>503.39999389648</ele>
        <time>2021-02-25T09:02:48.000Z</time>
      </trkpt>
      <trkpt lat="43.76468" lon="7.16598">
        <ele>503.39999389648</ele>
        <time>2021-02-25T09:03:20.000Z</time>
      </trkpt>
      <trkpt lat="43.76468" lon="7.16597">
        <ele>503.39999389648</ele>
        <time>2021-02-25T09:03:40.000Z</time>
      </trkpt>
      <trkpt lat="43.76468" lon="7.16597">
        <ele>503.60000610352</ele>
        <time>2021-02-25T09:04:07.000Z</time>
      </trkpt>
      <trkpt lat="43.76469" lon="7.16597">
        <ele>503.39999389648</ele>
        <time>2021-02-25T09:04:30.000Z</time>
      </trkpt>
      <trkpt lat="43.76463" lon="7.16596">
        <ele>503.39999389648</ele>
        <time>2021-02-25T09:04:36.000Z</time>
      </trkpt>
      <trkpt lat="43.76451" lon="7.16594">
        <ele>503.79998779297</ele>
        <time>2021-02-25T09:04:42.000Z</time>
      </trkpt>
      <trkpt lat="43.76433" lon="7.16602">
        <ele>503.60000610352</ele>
        <time>2021-02-25T09:04:48.000Z</time>
      </trkpt>
      <trkpt lat="43.76424" lon="7.16608">
        <ele>503.39999389648</ele>
        <time>2021-02-25T09:04:50.000Z</time>
      </trkpt>
      <trkpt lat="43.76418" lon="7.16609">
        <ele>502.79998779297</ele>
        <time>2021-02-25T09:04:52.000Z</time>
      </trkpt>
      <trkpt lat="43.76407" lon="7.16602">
        <ele>502.79998779297</ele>
        <time>2021-02-25T09:04:55.000Z</time>
      </trkpt>
      <trkpt lat="43.76396" lon="7.16597">
        <ele>502.60000610352</ele>
        <time>2021-02-25T09:04:59.000Z</time>
      </trkpt>
      <trkpt lat="43.76393" lon="7.16599">
        <ele>502.79998779297</ele>
        <time>2021-02-25T09:05:00.000Z</time>
      </trkpt>
      <trkpt lat="43.76392" lon="7.16606">
        <ele>502.79998779297</ele>
        <time>2021-02-25T09:05:03.000Z</time>
      </trkpt>
      <trkpt lat="43.7639" lon="7.16611">
        <ele>502.20001220703</ele>
        <time>2021-02-25T09:05:05.000Z</time>
      </trkpt>
      <trkpt lat="43.76385" lon="7.16613">
        <ele>501.79998779297</ele>
        <time>2021-02-25T09:05:07.000Z</time>
      </trkpt>
      <trkpt lat="43.76376" lon="7.16617">
        <ele>502</ele>
        <time>2021-02-25T09:05:10.000Z</time>
      </trkpt>
      <trkpt lat="43.76372" lon="7.16619">
        <ele>501.79998779297</ele>
        <time>2021-02-25T09:05:11.000Z</time>
      </trkpt>
      <trkpt lat="43.76367" lon="7.1662">
        <ele>501.60000610352</ele>
        <time>2021-02-25T09:05:12.000Z</time>
      </trkpt>
      <trkpt lat="43.76364" lon="7.16619">
        <ele>501</ele>
        <time>2021-02-25T09:05:13.000Z</time>
      </trkpt>
      <trkpt lat="43.76362" lon="7.1662">
        <ele>500.20001220703</ele>
        <time>2021-02-25T09:05:14.000Z</time>
      </trkpt>
      <trkpt lat="43.76361" lon="7.16619">
        <ele>499.79998779297</ele>
        <time>2021-02-25T09:05:15.000Z</time>
      </trkpt>
      <trkpt lat="43.76354" lon="7.16614">
        <ele>498.79998779297</ele>
        <time>2021-02-25T09:05:18.000Z</time>
      </trkpt>
      <trkpt lat="43.7635" lon="7.16613">
        <ele>498.60000610352</ele>
        <time>2021-02-25T09:05:19.000Z</time>
      </trkpt>
      <trkpt lat="43.76341" lon="7.16607">
        <ele>497.39999389648</ele>
        <time>2021-02-25T09:05:22.000Z</time>
      </trkpt>
      <trkpt lat="43.76332" lon="7.16605">
        <ele>497.20001220703</ele>
        <time>2021-02-25T09:05:24.000Z</time>
      </trkpt>
      <trkpt lat="43.76325" lon="7.16607">
        <ele>497</ele>
        <time>2021-02-25T09:05:26.000Z</time>
      </trkpt>
      <trkpt lat="43.76317" lon="7.16599">
        <ele>496.20001220703</ele>
        <time>2021-02-25T09:05:29.000Z</time>
      </trkpt>
      <trkpt lat="43.76311" lon="7.16598">
        <ele>495.60000610352</ele>
        <time>2021-02-25T09:05:32.000Z</time>
      </trkpt>
      <trkpt lat="43.76306" lon="7.16596">
        <ele>495</ele>
        <time>2021-02-25T09:05:34.000Z</time>
      </trkpt>
      <trkpt lat="43.76302" lon="7.1659">
        <ele>494.79998779297</ele>
        <time>2021-02-25T09:05:36.000Z</time>
      </trkpt>
      <trkpt lat="43.763" lon="7.16588">
        <ele>494.60000610352</ele>
        <time>2021-02-25T09:05:37.000Z</time>
      </trkpt>
      <trkpt lat="43.76296" lon="7.16585">
        <ele>494.20001220703</ele>
        <time>2021-02-25T09:05:39.000Z</time>
      </trkpt>
      <trkpt lat="43.76294" lon="7.16586">
        <ele>493.79998779297</ele>
        <time>2021-02-25T09:05:40.000Z</time>
      </trkpt>
      <trkpt lat="43.76292" lon="7.16587">
        <ele>493.79998779297</ele>
        <time>2021-02-25T09:05:41.000Z</time>
      </trkpt>
      <trkpt lat="43.7628" lon="7.16584">
        <ele>493.20001220703</ele>
        <time>2021-02-25T09:05:45.000Z</time>
      </trkpt>
      <trkpt lat="43.7628" lon="7.16581">
        <ele>492.60000610352</ele>
        <time>2021-02-25T09:05:46.000Z</time>
      </trkpt>
      <trkpt lat="43.76275" lon="7.16575">
        <ele>491.79998779297</ele>
        <time>2021-02-25T09:05:48.000Z</time>
      </trkpt>
      <trkpt lat="43.76273" lon="7.16573">
        <ele>491.39999389648</ele>
        <time>2021-02-25T09:05:49.000Z</time>
      </trkpt>
      <trkpt lat="43.76267" lon="7.16572">
        <ele>491.20001220703</ele>
        <time>2021-02-25T09:05:51.000Z</time>
      </trkpt>
      <trkpt lat="43.76265" lon="7.16571">
        <ele>491.20001220703</ele>
        <time>2021-02-25T09:05:52.000Z</time>
      </trkpt>
      <trkpt lat="43.76255" lon="7.16564">
        <ele>491</ele>
        <time>2021-02-25T09:05:56.000Z</time>
      </trkpt>
      <trkpt lat="43.76253" lon="7.16558">
        <ele>490.39999389648</ele>
        <time>2021-02-25T09:05:59.000Z</time>
      </trkpt>
      <trkpt lat="43.76253" lon="7.16557">
        <ele>490.39999389648</ele>
        <time>2021-02-25T09:06:00.000Z</time>
      </trkpt>
      <trkpt lat="43.7625" lon="7.1655">
        <ele>491.39999389648</ele>
        <time>2021-02-25T09:06:03.000Z</time>
      </trkpt>
      <trkpt lat="43.76248" lon="7.16548">
        <ele>492</ele>
        <time>2021-02-25T09:06:04.000Z</time>
      </trkpt>
      <trkpt lat="43.76246" lon="7.16545">
        <ele>492.60000610352</ele>
        <time>2021-02-25T09:06:06.000Z</time>
      </trkpt>
      <trkpt lat="43.76245" lon="7.16544">
        <ele>493</ele>
        <time>2021-02-25T09:06:09.000Z</time>
      </trkpt>
      <trkpt lat="43.76244" lon="7.16544">
        <ele>493.60000610352</ele>
        <time>2021-02-25T09:06:13.000Z</time>
      </trkpt>
      <trkpt lat="43.76243" lon="7.16541">
        <ele>493.79998779297</ele>
        <time>2021-02-25T09:06:19.000Z</time>
      </trkpt>
      <trkpt lat="43.76242" lon="7.16537">
        <ele>494.79998779297</ele>
        <time>2021-02-25T09:06:25.000Z</time>
      </trkpt>
      <trkpt lat="43.76243" lon="7.16537">
        <ele>495</ele>
        <time>2021-02-25T09:06:26.000Z</time>
      </trkpt>
      <trkpt lat="43.76238" lon="7.16534">
        <ele>495.20001220703</ele>
        <time>2021-02-25T09:06:32.000Z</time>
      </trkpt>
      <trkpt lat="43.76235" lon="7.16532">
        <ele>495.39999389648</ele>
        <time>2021-02-25T09:06:34.000Z</time>
      </trkpt>
      <trkpt lat="43.76233" lon="7.16528">
        <ele>495.60000610352</ele>
        <time>2021-02-25T09:06:37.000Z</time>
      </trkpt>
      <trkpt lat="43.76233" lon="7.16527">
        <ele>496</ele>
        <time>2021-02-25T09:06:40.000Z</time>
      </trkpt>
      <trkpt lat="43.76232" lon="7.16527">
        <ele>496.20001220703</ele>
        <time>2021-02-25T09:06:41.000Z</time>
      </trkpt>
      <trkpt lat="43.76231" lon="7.16528">
        <ele>496.20001220703</ele>
        <time>2021-02-25T09:06:54.000Z</time>
      </trkpt>
      <trkpt lat="43.76235" lon="7.16526">
        <ele>496</ele>
        <time>2021-02-25T09:07:07.000Z</time>
      </trkpt>
      <trkpt lat="43.76236" lon="7.16526">
        <ele>497</ele>
        <time>2021-02-25T09:07:11.000Z</time>
      </trkpt>
      <trkpt lat="43.76236" lon="7.16526">
        <ele>497.39999389648</ele>
        <time>2021-02-25T09:07:16.000Z</time>
      </trkpt>
      <trkpt lat="43.76234" lon="7.16525">
        <ele>497.60000610352</ele>
        <time>2021-02-25T09:07:27.000Z</time>
      </trkpt>
      <trkpt lat="43.76233" lon="7.16524">
        <ele>497.39999389648</ele>
        <time>2021-02-25T09:07:42.000Z</time>
      </trkpt>
      <trkpt lat="43.7623" lon="7.16522">
        <ele>497.39999389648</ele>
        <time>2021-02-25T09:07:43.000Z</time>
      </trkpt>
      <trkpt lat="43.76229" lon="7.1652">
        <ele>497.60000610352</ele>
        <time>2021-02-25T09:07:45.000Z</time>
      </trkpt>
      <trkpt lat="43.76229" lon="7.1652">
        <ele>498.20001220703</ele>
        <time>2021-02-25T09:07:48.000Z</time>
      </trkpt>
      <trkpt lat="43.76229" lon="7.1652">
        <ele>498.60000610352</ele>
        <time>2021-02-25T09:07:50.000Z</time>
      </trkpt>
      <trkpt lat="43.76228" lon="7.16519">
        <ele>499.20001220703</ele>
        <time>2021-02-25T09:08:00.000Z</time>
      </trkpt>
      <trkpt lat="43.76227" lon="7.16519">
        <ele>499.20001220703</ele>
        <time>2021-02-25T09:08:02.000Z</time>
      </trkpt>
      <trkpt lat="43.76227" lon="7.16519">
        <ele>499.39999389648</ele>
        <time>2021-02-25T09:08:05.000Z</time>
      </trkpt>
      <trkpt lat="43.76223" lon="7.16518">
        <ele>500.20001220703</ele>
        <time>2021-02-25T09:08:11.000Z</time>
      </trkpt>
      <trkpt lat="43.76222" lon="7.16518">
        <ele>500.20001220703</ele>
        <time>2021-02-25T09:08:12.000Z</time>
      </trkpt>
      <trkpt lat="43.7622" lon="7.16518">
        <ele>501.39999389648</ele>
        <time>2021-02-25T09:08:18.000Z</time>
      </trkpt>
      <trkpt lat="43.76215" lon="7.16522">
        <ele>500.79998779297</ele>
        <time>2021-02-25T09:08:25.000Z</time>
      </trkpt>
      <trkpt lat="43.76213" lon="7.16524">
        <ele>500.20001220703</ele>
        <time>2021-02-25T09:08:27.000Z</time>
      </trkpt>
      <trkpt lat="43.76213" lon="7.16524">
        <ele>499.20001220703</ele>
        <time>2021-02-25T09:08:29.000Z</time>
      </trkpt>
      <trkpt lat="43.76213" lon="7.16524">
        <ele>498.79998779297</ele>
        <time>2021-02-25T09:08:30.000Z</time>
      </trkpt>
      <trkpt lat="43.76212" lon="7.16523">
        <ele>498</ele>
        <time>2021-02-25T09:08:34.000Z</time>
      </trkpt>
      <trkpt lat="43.76212" lon="7.16523">
        <ele>498</ele>
        <time>2021-02-25T09:08:35.000Z</time>
      </trkpt>
      <trkpt lat="43.76213" lon="7.16522">
        <ele>497.79998779297</ele>
        <time>2021-02-25T09:08:36.000Z</time>
      </trkpt>
      <trkpt lat="43.76212" lon="7.16523">
        <ele>497.79998779297</ele>
        <time>2021-02-25T09:08:37.000Z</time>
      </trkpt>
      <trkpt lat="43.76211" lon="7.16521">
        <ele>497.79998779297</ele>
        <time>2021-02-25T09:08:38.000Z</time>
      </trkpt>
      <trkpt lat="43.76212" lon="7.16522">
        <ele>497.79998779297</ele>
        <time>2021-02-25T09:08:39.000Z</time>
      </trkpt>
      <trkpt lat="43.76206" lon="7.16517">
        <ele>498.39999389648</ele>
        <time>2021-02-25T09:08:44.000Z</time>
      </trkpt>
      <trkpt lat="43.76205" lon="7.16509">
        <ele>499</ele>
        <time>2021-02-25T09:08:47.000Z</time>
      </trkpt>
      <trkpt lat="43.76203" lon="7.16505">
        <ele>499.79998779297</ele>
        <time>2021-02-25T09:08:49.000Z</time>
      </trkpt>
      <trkpt lat="43.76202" lon="7.16503">
        <ele>500.39999389648</ele>
        <time>2021-02-25T09:08:50.000Z</time>
      </trkpt>
      <trkpt lat="43.762" lon="7.16499">
        <ele>501.60000610352</ele>
        <time>2021-02-25T09:08:52.000Z</time>
      </trkpt>
      <trkpt lat="43.76198" lon="7.16494">
        <ele>503</ele>
        <time>2021-02-25T09:08:54.000Z</time>
      </trkpt>
      <trkpt lat="43.76196" lon="7.1649">
        <ele>504.39999389648</ele>
        <time>2021-02-25T09:08:56.000Z</time>
      </trkpt>
      <trkpt lat="43.76193" lon="7.16484">
        <ele>505.39999389648</ele>
        <time>2021-02-25T09:08:58.000Z</time>
      </trkpt>
      <trkpt lat="43.76191" lon="7.16478">
        <ele>506.39999389648</ele>
        <time>2021-02-25T09:09:00.000Z</time>
      </trkpt>
      <trkpt lat="43.76189" lon="7.16471">
        <ele>507.39999389648</ele>
        <time>2021-02-25T09:09:02.000Z</time>
      </trkpt>
      <trkpt lat="43.76187" lon="7.16465">
        <ele>509.39999389648</ele>
        <time>2021-02-25T09:09:04.000Z</time>
      </trkpt>
      <trkpt lat="43.76187" lon="7.1646">
        <ele>511.39999389648</ele>
        <time>2021-02-25T09:09:06.000Z</time>
      </trkpt>
      <trkpt lat="43.76185" lon="7.16457">
        <ele>512.20001220703</ele>
        <time>2021-02-25T09:09:07.000Z</time>
      </trkpt>
      <trkpt lat="43.76184" lon="7.16453">
        <ele>512.79998779297</ele>
        <time>2021-02-25T09:09:08.000Z</time>
      </trkpt>
      <trkpt lat="43.76181" lon="7.16448">
        <ele>513.79998779297</ele>
        <time>2021-02-25T09:09:10.000Z</time>
      </trkpt>
      <trkpt lat="43.76179" lon="7.16442">
        <ele>515</ele>
        <time>2021-02-25T09:09:12.000Z</time>
      </trkpt>
      <trkpt lat="43.76177" lon="7.16436">
        <ele>516</ele>
        <time>2021-02-25T09:09:14.000Z</time>
      </trkpt>
      <trkpt lat="43.76173" lon="7.16427">
        <ele>517.40002441406</ele>
        <time>2021-02-25T09:09:17.000Z</time>
      </trkpt>
      <trkpt lat="43.76169" lon="7.1642">
        <ele>518.40002441406</ele>
        <time>2021-02-25T09:09:20.000Z</time>
      </trkpt>
      <trkpt lat="43.76165" lon="7.16409">
        <ele>519.59997558594</ele>
        <time>2021-02-25T09:09:24.000Z</time>
      </trkpt>
      <trkpt lat="43.76162" lon="7.16405">
        <ele>519.79998779297</ele>
        <time>2021-02-25T09:09:26.000Z</time>
      </trkpt>
      <trkpt lat="43.76158" lon="7.16394">
        <ele>520.59997558594</ele>
        <time>2021-02-25T09:09:31.000Z</time>
      </trkpt>
      <trkpt lat="43.76156" lon="7.1639">
        <ele>520.79998779297</ele>
        <time>2021-02-25T09:09:33.000Z</time>
      </trkpt>
      <trkpt lat="43.76148" lon="7.16378">
        <ele>521.59997558594</ele>
        <time>2021-02-25T09:09:40.000Z</time>
      </trkpt>
      <trkpt lat="43.76147" lon="7.16377">
        <ele>521.79998779297</ele>
        <time>2021-02-25T09:09:41.000Z</time>
      </trkpt>
      <trkpt lat="43.76143" lon="7.16371">
        <ele>522</ele>
        <time>2021-02-25T09:09:47.000Z</time>
      </trkpt>
      <trkpt lat="43.76141" lon="7.16368">
        <ele>522.20001220703</ele>
        <time>2021-02-25T09:09:51.000Z</time>
      </trkpt>
      <trkpt lat="43.76138" lon="7.16359">
        <ele>522.40002441406</ele>
        <time>2021-02-25T09:09:56.000Z</time>
      </trkpt>
      <trkpt lat="43.76133" lon="7.16352">
        <ele>523</ele>
        <time>2021-02-25T09:09:59.000Z</time>
      </trkpt>
      <trkpt lat="43.76132" lon="7.16346">
        <ele>523.59997558594</ele>
        <time>2021-02-25T09:10:01.000Z</time>
      </trkpt>
      <trkpt lat="43.76131" lon="7.16344">
        <ele>524</ele>
        <time>2021-02-25T09:10:02.000Z</time>
      </trkpt>
      <trkpt lat="43.76127" lon="7.16337">
        <ele>525</ele>
        <time>2021-02-25T09:10:05.000Z</time>
      </trkpt>
      <trkpt lat="43.76125" lon="7.16334">
        <ele>525.59997558594</ele>
        <time>2021-02-25T09:10:06.000Z</time>
      </trkpt>
      <trkpt lat="43.76122" lon="7.16329">
        <ele>526.40002441406</ele>
        <time>2021-02-25T09:10:08.000Z</time>
      </trkpt>
      <trkpt lat="43.76118" lon="7.16321">
        <ele>527.79998779297</ele>
        <time>2021-02-25T09:10:11.000Z</time>
      </trkpt>
      <trkpt lat="43.76117" lon="7.16318">
        <ele>528.20001220703</ele>
        <time>2021-02-25T09:10:12.000Z</time>
      </trkpt>
      <trkpt lat="43.76116" lon="7.16313">
        <ele>529.20001220703</ele>
        <time>2021-02-25T09:10:14.000Z</time>
      </trkpt>
      <trkpt lat="43.76113" lon="7.16307">
        <ele>530.20001220703</ele>
        <time>2021-02-25T09:10:17.000Z</time>
      </trkpt>
      <trkpt lat="43.76112" lon="7.16301">
        <ele>530.79998779297</ele>
        <time>2021-02-25T09:10:19.000Z</time>
      </trkpt>
      <trkpt lat="43.76111" lon="7.16298">
        <ele>531.59997558594</ele>
        <time>2021-02-25T09:10:21.000Z</time>
      </trkpt>
      <trkpt lat="43.76109" lon="7.16293">
        <ele>532.79998779297</ele>
        <time>2021-02-25T09:10:24.000Z</time>
      </trkpt>
      <trkpt lat="43.76109" lon="7.16294">
        <ele>533</ele>
        <time>2021-02-25T09:10:25.000Z</time>
      </trkpt>
      <trkpt lat="43.76107" lon="7.16289">
        <ele>533.40002441406</ele>
        <time>2021-02-25T09:10:27.000Z</time>
      </trkpt>
      <trkpt lat="43.76107" lon="7.16288">
        <ele>534</ele>
        <time>2021-02-25T09:10:29.000Z</time>
      </trkpt>
      <trkpt lat="43.76107" lon="7.16287">
        <ele>534.59997558594</ele>
        <time>2021-02-25T09:10:34.000Z</time>
      </trkpt>
      <trkpt lat="43.76106" lon="7.16286">
        <ele>535</ele>
        <time>2021-02-25T09:10:38.000Z</time>
      </trkpt>
      <trkpt lat="43.76104" lon="7.16285">
        <ele>535.20001220703</ele>
        <time>2021-02-25T09:10:42.000Z</time>
      </trkpt>
      <trkpt lat="43.761" lon="7.16273">
        <ele>535.40002441406</ele>
        <time>2021-02-25T09:10:47.000Z</time>
      </trkpt>
      <trkpt lat="43.761" lon="7.16273">
        <ele>536</ele>
        <time>2021-02-25T09:10:49.000Z</time>
      </trkpt>
      <trkpt lat="43.761" lon="7.16271">
        <ele>537.20001220703</ele>
        <time>2021-02-25T09:10:51.000Z</time>
      </trkpt>
      <trkpt lat="43.761" lon="7.16271">
        <ele>538.20001220703</ele>
        <time>2021-02-25T09:10:54.000Z</time>
      </trkpt>
      <trkpt lat="43.761" lon="7.1627">
        <ele>538.40002441406</ele>
        <time>2021-02-25T09:10:57.000Z</time>
      </trkpt>
      <trkpt lat="43.76095" lon="7.16268">
        <ele>538.40002441406</ele>
        <time>2021-02-25T09:11:01.000Z</time>
      </trkpt>
      <trkpt lat="43.76089" lon="7.16258">
        <ele>538.79998779297</ele>
        <time>2021-02-25T09:11:06.000Z</time>
      </trkpt>
      <trkpt lat="43.76085" lon="7.16255">
        <ele>539.40002441406</ele>
        <time>2021-02-25T09:11:09.000Z</time>
      </trkpt>
      <trkpt lat="43.76081" lon="7.16251">
        <ele>539.40002441406</ele>
        <time>2021-02-25T09:11:11.000Z</time>
      </trkpt>
      <trkpt lat="43.76075" lon="7.1624">
        <ele>539</ele>
        <time>2021-02-25T09:11:16.000Z</time>
      </trkpt>
      <trkpt lat="43.7607" lon="7.16233">
        <ele>540.20001220703</ele>
        <time>2021-02-25T09:11:19.000Z</time>
      </trkpt>
      <trkpt lat="43.76068" lon="7.16231">
        <ele>540.40002441406</ele>
        <time>2021-02-25T09:11:20.000Z</time>
      </trkpt>
      <trkpt lat="43.76066" lon="7.16229">
        <ele>540.79998779297</ele>
        <time>2021-02-25T09:11:22.000Z</time>
      </trkpt>
      <trkpt lat="43.76065" lon="7.16223">
        <ele>540.79998779297</ele>
        <time>2021-02-25T09:11:25.000Z</time>
      </trkpt>
      <trkpt lat="43.76065" lon="7.16223">
        <ele>541</ele>
        <time>2021-02-25T09:11:27.000Z</time>
      </trkpt>
      <trkpt lat="43.76065" lon="7.16222">
        <ele>541.20001220703</ele>
        <time>2021-02-25T09:11:42.000Z</time>
      </trkpt>
      <trkpt lat="43.76065" lon="7.1622">
        <ele>541.59997558594</ele>
        <time>2021-02-25T09:11:46.000Z</time>
      </trkpt>
      <trkpt lat="43.76065" lon="7.16218">
        <ele>542</ele>
        <time>2021-02-25T09:11:50.000Z</time>
      </trkpt>
      <trkpt lat="43.76063" lon="7.16215">
        <ele>542.59997558594</ele>
        <time>2021-02-25T09:11:54.000Z</time>
      </trkpt>
      <trkpt lat="43.76063" lon="7.16215">
        <ele>542.79998779297</ele>
        <time>2021-02-25T09:11:57.000Z</time>
      </trkpt>
      <trkpt lat="43.76059" lon="7.16211">
        <ele>543</ele>
        <time>2021-02-25T09:12:02.000Z</time>
      </trkpt>
      <trkpt lat="43.76051" lon="7.16201">
        <ele>543</ele>
        <time>2021-02-25T09:12:07.000Z</time>
      </trkpt>
      <trkpt lat="43.76045" lon="7.16193">
        <ele>543.59997558594</ele>
        <time>2021-02-25T09:12:11.000Z</time>
      </trkpt>
      <trkpt lat="43.76034" lon="7.1618">
        <ele>544.20001220703</ele>
        <time>2021-02-25T09:12:17.000Z</time>
      </trkpt>
      <trkpt lat="43.76025" lon="7.1617">
        <ele>544.79998779297</ele>
        <time>2021-02-25T09:12:21.000Z</time>
      </trkpt>
      <trkpt lat="43.76024" lon="7.16168">
        <ele>545</ele>
        <time>2021-02-25T09:12:22.000Z</time>
      </trkpt>
      <trkpt lat="43.7602" lon="7.16164">
        <ele>545.79998779297</ele>
        <time>2021-02-25T09:12:27.000Z</time>
      </trkpt>
      <trkpt lat="43.7602" lon="7.16164">
        <ele>546</ele>
        <time>2021-02-25T09:12:28.000Z</time>
      </trkpt>
      <trkpt lat="43.76019" lon="7.16164">
        <ele>545</ele>
        <time>2021-02-25T09:12:49.000Z</time>
      </trkpt>
      <trkpt lat="43.76019" lon="7.16164">
        <ele>544.79998779297</ele>
        <time>2021-02-25T09:12:50.000Z</time>
      </trkpt>
      <trkpt lat="43.76017" lon="7.16162">
        <ele>544.79998779297</ele>
        <time>2021-02-25T09:12:58.000Z</time>
      </trkpt>
      <trkpt lat="43.76017" lon="7.1616">
        <ele>544.79998779297</ele>
        <time>2021-02-25T09:12:59.000Z</time>
      </trkpt>
      <trkpt lat="43.76017" lon="7.16159">
        <ele>545.20001220703</ele>
        <time>2021-02-25T09:13:02.000Z</time>
      </trkpt>
      <trkpt lat="43.76017" lon="7.16159">
        <ele>544.40002441406</ele>
        <time>2021-02-25T09:13:09.000Z</time>
      </trkpt>
      <trkpt lat="43.76017" lon="7.16158">
        <ele>544.79998779297</ele>
        <time>2021-02-25T09:13:16.000Z</time>
      </trkpt>
      <trkpt lat="43.76017" lon="7.16158">
        <ele>543.79998779297</ele>
        <time>2021-02-25T09:13:19.000Z</time>
      </trkpt>
      <trkpt lat="43.76017" lon="7.16158">
        <ele>543.40002441406</ele>
        <time>2021-02-25T09:13:21.000Z</time>
      </trkpt>
      <trkpt lat="43.76019" lon="7.16158">
        <ele>543.20001220703</ele>
        <time>2021-02-25T09:13:32.000Z</time>
      </trkpt>
      <trkpt lat="43.76018" lon="7.16159">
        <ele>544.59997558594</ele>
        <time>2021-02-25T09:13:39.000Z</time>
      </trkpt>
      <trkpt lat="43.76018" lon="7.16157">
        <ele>544.79998779297</ele>
        <time>2021-02-25T09:13:45.000Z</time>
      </trkpt>
      <trkpt lat="43.76018" lon="7.16157">
        <ele>545</ele>
        <time>2021-02-25T09:13:46.000Z</time>
      </trkpt>
      <trkpt lat="43.76017" lon="7.16158">
        <ele>544.59997558594</ele>
        <time>2021-02-25T09:13:53.000Z</time>
      </trkpt>
      <trkpt lat="43.76017" lon="7.16157">
        <ele>543.79998779297</ele>
        <time>2021-02-25T09:14:02.000Z</time>
      </trkpt>
      <trkpt lat="43.76017" lon="7.16157">
        <ele>544</ele>
        <time>2021-02-25T09:14:19.000Z</time>
      </trkpt>
      <trkpt lat="43.76018" lon="7.16158">
        <ele>543.79998779297</ele>
        <time>2021-02-25T09:14:30.000Z</time>
      </trkpt>
      <trkpt lat="43.76019" lon="7.16158">
        <ele>543.79998779297</ele>
        <time>2021-02-25T09:14:44.000Z</time>
      </trkpt>
      <trkpt lat="43.76019" lon="7.16158">
        <ele>544</ele>
        <time>2021-02-25T09:14:51.000Z</time>
      </trkpt>
      <trkpt lat="43.76018" lon="7.16159">
        <ele>544.20001220703</ele>
        <time>2021-02-25T09:14:59.000Z</time>
      </trkpt>
      <trkpt lat="43.76019" lon="7.16158">
        <ele>543.40002441406</ele>
        <time>2021-02-25T09:15:09.000Z</time>
      </trkpt>
      <trkpt lat="43.76019" lon="7.16158">
        <ele>543.79998779297</ele>
        <time>2021-02-25T09:15:22.000Z</time>
      </trkpt>
      <trkpt lat="43.76019" lon="7.16158">
        <ele>543.79998779297</ele>
        <time>2021-02-25T09:15:35.000Z</time>
      </trkpt>
      <trkpt lat="43.76018" lon="7.16155">
        <ele>544.59997558594</ele>
        <time>2021-02-25T09:15:44.000Z</time>
      </trkpt>
      <trkpt lat="43.76018" lon="7.16154">
        <ele>544.79998779297</ele>
        <time>2021-02-25T09:15:48.000Z</time>
      </trkpt>
      <trkpt lat="43.76018" lon="7.16154">
        <ele>545</ele>
        <time>2021-02-25T09:15:49.000Z</time>
      </trkpt>
      <trkpt lat="43.76017" lon="7.16151">
        <ele>546</ele>
        <time>2021-02-25T09:15:55.000Z</time>
      </trkpt>
      <trkpt lat="43.76016" lon="7.1615">
        <ele>546.20001220703</ele>
        <time>2021-02-25T09:15:57.000Z</time>
      </trkpt>
      <trkpt lat="43.76014" lon="7.16149">
        <ele>546.40002441406</ele>
        <time>2021-02-25T09:16:03.000Z</time>
      </trkpt>
      <trkpt lat="43.76012" lon="7.16142">
        <ele>546.40002441406</ele>
        <time>2021-02-25T09:16:11.000Z</time>
      </trkpt>
      <trkpt lat="43.76012" lon="7.16137">
        <ele>547</ele>
        <time>2021-02-25T09:16:14.000Z</time>
      </trkpt>
      <trkpt lat="43.7601" lon="7.16134">
        <ele>548.20001220703</ele>
        <time>2021-02-25T09:16:16.000Z</time>
      </trkpt>
      <trkpt lat="43.76006" lon="7.16127">
        <ele>549.20001220703</ele>
        <time>2021-02-25T09:16:19.000Z</time>
      </trkpt>
      <trkpt lat="43.76006" lon="7.16124">
        <ele>549.40002441406</ele>
        <time>2021-02-25T09:16:20.000Z</time>
      </trkpt>
      <trkpt lat="43.76006" lon="7.16122">
        <ele>550.40002441406</ele>
        <time>2021-02-25T09:16:23.000Z</time>
      </trkpt>
      <trkpt lat="43.76007" lon="7.16122">
        <ele>550.79998779297</ele>
        <time>2021-02-25T09:16:24.000Z</time>
      </trkpt>
      <trkpt lat="43.76006" lon="7.16122">
        <ele>551.59997558594</ele>
        <time>2021-02-25T09:16:26.000Z</time>
      </trkpt>
      <trkpt lat="43.76006" lon="7.16121">
        <ele>552</ele>
        <time>2021-02-25T09:16:33.000Z</time>
      </trkpt>
      <trkpt lat="43.76006" lon="7.16121">
        <ele>552</ele>
        <time>2021-02-25T09:16:42.000Z</time>
      </trkpt>
      <trkpt lat="43.76006" lon="7.16119">
        <ele>552.20001220703</ele>
        <time>2021-02-25T09:16:50.000Z</time>
      </trkpt>
      <trkpt lat="43.76006" lon="7.16117">
        <ele>552.59997558594</ele>
        <time>2021-02-25T09:16:53.000Z</time>
      </trkpt>
      <trkpt lat="43.76005" lon="7.16115">
        <ele>553.40002441406</ele>
        <time>2021-02-25T09:16:57.000Z</time>
      </trkpt>
      <trkpt lat="43.76005" lon="7.16112">
        <ele>553.79998779297</ele>
        <time>2021-02-25T09:16:59.000Z</time>
      </trkpt>
      <trkpt lat="43.76002" lon="7.1611">
        <ele>554.79998779297</ele>
        <time>2021-02-25T09:17:05.000Z</time>
      </trkpt>
      <trkpt lat="43.75999" lon="7.16109">
        <ele>555</ele>
        <time>2021-02-25T09:17:12.000Z</time>
      </trkpt>
      <trkpt lat="43.75998" lon="7.16108">
        <ele>555</ele>
        <time>2021-02-25T09:17:18.000Z</time>
      </trkpt>
      <trkpt lat="43.75999" lon="7.16109">
        <ele>555</ele>
        <time>2021-02-25T09:17:24.000Z</time>
      </trkpt>
      <trkpt lat="43.75999" lon="7.1611">
        <ele>554</ele>
        <time>2021-02-25T09:17:30.000Z</time>
      </trkpt>
      <trkpt lat="43.75999" lon="7.1611">
        <ele>553.79998779297</ele>
        <time>2021-02-25T09:17:31.000Z</time>
      </trkpt>
      <trkpt lat="43.75999" lon="7.16109">
        <ele>554</ele>
        <time>2021-02-25T09:17:46.000Z</time>
      </trkpt>
      <trkpt lat="43.75998" lon="7.16108">
        <ele>554.20001220703</ele>
        <time>2021-02-25T09:18:01.000Z</time>
      </trkpt>
      <trkpt lat="43.75999" lon="7.16108">
        <ele>554.20001220703</ele>
        <time>2021-02-25T09:18:02.000Z</time>
      </trkpt>
      <trkpt lat="43.75998" lon="7.16107">
        <ele>554.40002441406</ele>
        <time>2021-02-25T09:18:08.000Z</time>
      </trkpt>
      <trkpt lat="43.75997" lon="7.16107">
        <ele>554.59997558594</ele>
        <time>2021-02-25T09:18:18.000Z</time>
      </trkpt>
      <trkpt lat="43.75997" lon="7.16107">
        <ele>554.59997558594</ele>
        <time>2021-02-25T09:18:25.000Z</time>
      </trkpt>
      <trkpt lat="43.75997" lon="7.16107">
        <ele>554.79998779297</ele>
        <time>2021-02-25T09:18:27.000Z</time>
      </trkpt>
      <trkpt lat="43.75997" lon="7.16107">
        <ele>555</ele>
        <time>2021-02-25T09:18:31.000Z</time>
      </trkpt>
      <trkpt lat="43.75997" lon="7.16107">
        <ele>554.59997558594</ele>
        <time>2021-02-25T09:18:40.000Z</time>
      </trkpt>
      <trkpt lat="43.75996" lon="7.16107">
        <ele>554.79998779297</ele>
        <time>2021-02-25T09:18:48.000Z</time>
      </trkpt>
      <trkpt lat="43.75996" lon="7.16107">
        <ele>554.20001220703</ele>
        <time>2021-02-25T09:18:56.000Z</time>
      </trkpt>
      <trkpt lat="43.75996" lon="7.16108">
        <ele>554.20001220703</ele>
        <time>2021-02-25T09:19:01.000Z</time>
      </trkpt>
      <trkpt lat="43.75996" lon="7.16107">
        <ele>554.79998779297</ele>
        <time>2021-02-25T09:19:09.000Z</time>
      </trkpt>
      <trkpt lat="43.75996" lon="7.16107">
        <ele>554.79998779297</ele>
        <time>2021-02-25T09:19:18.000Z</time>
      </trkpt>
      <trkpt lat="43.75996" lon="7.16108">
        <ele>554.79998779297</ele>
        <time>2021-02-25T09:19:26.000Z</time>
      </trkpt>
      <trkpt lat="43.75996" lon="7.16108">
        <ele>554.59997558594</ele>
        <time>2021-02-25T09:19:35.000Z</time>
      </trkpt>
      <trkpt lat="43.75996" lon="7.16107">
        <ele>554.40002441406</ele>
        <time>2021-02-25T09:19:43.000Z</time>
      </trkpt>
      <trkpt lat="43.75996" lon="7.16107">
        <ele>554.40002441406</ele>
        <time>2021-02-25T09:19:51.000Z</time>
      </trkpt>
      <trkpt lat="43.75996" lon="7.16107">
        <ele>554.20001220703</ele>
        <time>2021-02-25T09:20:00.000Z</time>
      </trkpt>
      <trkpt lat="43.75995" lon="7.16108">
        <ele>554.59997558594</ele>
        <time>2021-02-25T09:20:12.000Z</time>
      </trkpt>
      <trkpt lat="43.75995" lon="7.16108">
        <ele>554.40002441406</ele>
        <time>2021-02-25T09:20:21.000Z</time>
      </trkpt>
      <trkpt lat="43.75995" lon="7.16108">
        <ele>554.79998779297</ele>
        <time>2021-02-25T09:20:27.000Z</time>
      </trkpt>
      <trkpt lat="43.75995" lon="7.16107">
        <ele>554.59997558594</ele>
        <time>2021-02-25T09:20:37.000Z</time>
      </trkpt>
      <trkpt lat="43.75995" lon="7.16107">
        <ele>554.40002441406</ele>
        <time>2021-02-25T09:20:44.000Z</time>
      </trkpt>
      <trkpt lat="43.75994" lon="7.16107">
        <ele>554.79998779297</ele>
        <time>2021-02-25T09:20:56.000Z</time>
      </trkpt>
      <trkpt lat="43.75995" lon="7.16107">
        <ele>554.79998779297</ele>
        <time>2021-02-25T09:21:09.000Z</time>
      </trkpt>
      <trkpt lat="43.75995" lon="7.16107">
        <ele>554.79998779297</ele>
        <time>2021-02-25T09:21:15.000Z</time>
      </trkpt>
      <trkpt lat="43.75995" lon="7.16107">
        <ele>554.40002441406</ele>
        <time>2021-02-25T09:21:33.000Z</time>
      </trkpt>
      <trkpt lat="43.75994" lon="7.16107">
        <ele>554.59997558594</ele>
        <time>2021-02-25T09:21:40.000Z</time>
      </trkpt>
      <trkpt lat="43.75993" lon="7.16107">
        <ele>554.79998779297</ele>
        <time>2021-02-25T09:21:54.000Z</time>
      </trkpt>
      <trkpt lat="43.75993" lon="7.16107">
        <ele>554.40002441406</ele>
        <time>2021-02-25T09:22:04.000Z</time>
      </trkpt>
      <trkpt lat="43.75993" lon="7.16107">
        <ele>554.40002441406</ele>
        <time>2021-02-25T09:22:17.000Z</time>
      </trkpt>
      <trkpt lat="43.75993" lon="7.16107">
        <ele>554.59997558594</ele>
        <time>2021-02-25T09:22:21.000Z</time>
      </trkpt>
      <trkpt lat="43.75993" lon="7.16107">
        <ele>554.59997558594</ele>
        <time>2021-02-25T09:22:49.000Z</time>
      </trkpt>
      <trkpt lat="43.75994" lon="7.16106">
        <ele>555</ele>
        <time>2021-02-25T09:22:59.000Z</time>
      </trkpt>
      <trkpt lat="43.75995" lon="7.16106">
        <ele>554.79998779297</ele>
        <time>2021-02-25T09:23:27.000Z</time>
      </trkpt>
      <trkpt lat="43.75995" lon="7.16106">
        <ele>555</ele>
        <time>2021-02-25T09:23:43.000Z</time>
      </trkpt>
      <trkpt lat="43.75996" lon="7.16106">
        <ele>554.79998779297</ele>
        <time>2021-02-25T09:24:02.000Z</time>
      </trkpt>
      <trkpt lat="43.75996" lon="7.16106">
        <ele>554.79998779297</ele>
        <time>2021-02-25T09:24:33.000Z</time>
      </trkpt>
      <trkpt lat="43.75996" lon="7.16106">
        <ele>554.79998779297</ele>
        <time>2021-02-25T09:25:02.000Z</time>
      </trkpt>
      <trkpt lat="43.75996" lon="7.16107">
        <ele>554.79998779297</ele>
        <time>2021-02-25T09:25:21.000Z</time>
      </trkpt>
      <trkpt lat="43.75996" lon="7.16106">
        <ele>554.79998779297</ele>
        <time>2021-02-25T09:25:43.000Z</time>
      </trkpt>
      <trkpt lat="43.75996" lon="7.16106">
        <ele>554.59997558594</ele>
        <time>2021-02-25T09:25:51.000Z</time>
      </trkpt>
      <trkpt lat="43.75995" lon="7.16105">
        <ele>555</ele>
        <time>2021-02-25T09:25:59.000Z</time>
      </trkpt>
      <trkpt lat="43.75995" lon="7.16104">
        <ele>555.40002441406</ele>
        <time>2021-02-25T09:26:05.000Z</time>
      </trkpt>
      <trkpt lat="43.75993" lon="7.16101">
        <ele>555.20001220703</ele>
        <time>2021-02-25T09:26:11.000Z</time>
      </trkpt>
      <trkpt lat="43.75986" lon="7.16095">
        <ele>555.20001220703</ele>
        <time>2021-02-25T09:26:18.000Z</time>
      </trkpt>
      <trkpt lat="43.75981" lon="7.16089">
        <ele>556</ele>
        <time>2021-02-25T09:26:22.000Z</time>
      </trkpt>
      <trkpt lat="43.75978" lon="7.16084">
        <ele>557</ele>
        <time>2021-02-25T09:26:25.000Z</time>
      </trkpt>
      <trkpt lat="43.75977" lon="7.16083">
        <ele>557.20001220703</ele>
        <time>2021-02-25T09:26:26.000Z</time>
      </trkpt>
      <trkpt lat="43.75977" lon="7.16082">
        <ele>557.79998779297</ele>
        <time>2021-02-25T09:26:27.000Z</time>
      </trkpt>
      <trkpt lat="43.75977" lon="7.16082">
        <ele>558.40002441406</ele>
        <time>2021-02-25T09:26:30.000Z</time>
      </trkpt>
      <trkpt lat="43.75977" lon="7.16082">
        <ele>558.40002441406</ele>
        <time>2021-02-25T09:26:43.000Z</time>
      </trkpt>
      <trkpt lat="43.75977" lon="7.16081">
        <ele>558.40002441406</ele>
        <time>2021-02-25T09:26:58.000Z</time>
      </trkpt>
      <trkpt lat="43.75977" lon="7.1608">
        <ele>558.40002441406</ele>
        <time>2021-02-25T09:27:03.000Z</time>
      </trkpt>
      <trkpt lat="43.75976" lon="7.16079">
        <ele>558.79998779297</ele>
        <time>2021-02-25T09:27:11.000Z</time>
      </trkpt>
      <trkpt lat="43.75975" lon="7.16078">
        <ele>559.20001220703</ele>
        <time>2021-02-25T09:27:17.000Z</time>
      </trkpt>
      <trkpt lat="43.75972" lon="7.16074">
        <ele>559.40002441406</ele>
        <time>2021-02-25T09:27:21.000Z</time>
      </trkpt>
      <trkpt lat="43.75969" lon="7.16072">
        <ele>560.40002441406</ele>
        <time>2021-02-25T09:27:26.000Z</time>
      </trkpt>
      <trkpt lat="43.75967" lon="7.16069">
        <ele>560.59997558594</ele>
        <time>2021-02-25T09:27:28.000Z</time>
      </trkpt>
      <trkpt lat="43.75965" lon="7.16068">
        <ele>561</ele>
        <time>2021-02-25T09:27:31.000Z</time>
      </trkpt>
      <trkpt lat="43.75964" lon="7.16066">
        <ele>561.59997558594</ele>
        <time>2021-02-25T09:27:33.000Z</time>
      </trkpt>
      <trkpt lat="43.75962" lon="7.16064">
        <ele>562</ele>
        <time>2021-02-25T09:27:37.000Z</time>
      </trkpt>
      <trkpt lat="43.75956" lon="7.16058">
        <ele>562.79998779297</ele>
        <time>2021-02-25T09:27:42.000Z</time>
      </trkpt>
      <trkpt lat="43.75953" lon="7.16053">
        <ele>564</ele>
        <time>2021-02-25T09:27:47.000Z</time>
      </trkpt>
      <trkpt lat="43.75951" lon="7.1605">
        <ele>565</ele>
        <time>2021-02-25T09:27:51.000Z</time>
      </trkpt>
      <trkpt lat="43.7595" lon="7.1605">
        <ele>565.20001220703</ele>
        <time>2021-02-25T09:27:52.000Z</time>
      </trkpt>
      <trkpt lat="43.75944" lon="7.16045">
        <ele>566</ele>
        <time>2021-02-25T09:27:58.000Z</time>
      </trkpt>
      <trkpt lat="43.75938" lon="7.1604">
        <ele>566.59997558594</ele>
        <time>2021-02-25T09:28:02.000Z</time>
      </trkpt>
      <trkpt lat="43.7594" lon="7.16038">
        <ele>566.79998779297</ele>
        <time>2021-02-25T09:28:04.000Z</time>
      </trkpt>
      <trkpt lat="43.7594" lon="7.16038">
        <ele>567.20001220703</ele>
        <time>2021-02-25T09:28:06.000Z</time>
      </trkpt>
      <trkpt lat="43.75942" lon="7.16039">
        <ele>567.79998779297</ele>
        <time>2021-02-25T09:28:08.000Z</time>
      </trkpt>
      <trkpt lat="43.75952" lon="7.16042">
        <ele>568.20001220703</ele>
        <time>2021-02-25T09:28:14.000Z</time>
      </trkpt>
      <trkpt lat="43.75954" lon="7.16042">
        <ele>568.40002441406</ele>
        <time>2021-02-25T09:28:15.000Z</time>
      </trkpt>
      <trkpt lat="43.75964" lon="7.16041">
        <ele>569.40002441406</ele>
        <time>2021-02-25T09:28:20.000Z</time>
      </trkpt>
      <trkpt lat="43.75971" lon="7.16043">
        <ele>570.79998779297</ele>
        <time>2021-02-25T09:28:24.000Z</time>
      </trkpt>
      <trkpt lat="43.75975" lon="7.16043">
        <ele>571.59997558594</ele>
        <time>2021-02-25T09:28:26.000Z</time>
      </trkpt>
      <trkpt lat="43.75979" lon="7.16043">
        <ele>572</ele>
        <time>2021-02-25T09:28:28.000Z</time>
      </trkpt>
      <trkpt lat="43.75989" lon="7.16045">
        <ele>573</ele>
        <time>2021-02-25T09:28:33.000Z</time>
      </trkpt>
      <trkpt lat="43.75991" lon="7.16045">
        <ele>573.20001220703</ele>
        <time>2021-02-25T09:28:34.000Z</time>
      </trkpt>
      <trkpt lat="43.75996" lon="7.16045">
        <ele>574.20001220703</ele>
        <time>2021-02-25T09:28:37.000Z</time>
      </trkpt>
      <trkpt lat="43.76001" lon="7.16046">
        <ele>575.20001220703</ele>
        <time>2021-02-25T09:28:40.000Z</time>
      </trkpt>
      <trkpt lat="43.76003" lon="7.16046">
        <ele>575.40002441406</ele>
        <time>2021-02-25T09:28:41.000Z</time>
      </trkpt>
      <trkpt lat="43.76006" lon="7.16044">
        <ele>576.40002441406</ele>
        <time>2021-02-25T09:28:44.000Z</time>
      </trkpt>
      <trkpt lat="43.76006" lon="7.16043">
        <ele>576.79998779297</ele>
        <time>2021-02-25T09:28:45.000Z</time>
      </trkpt>
      <trkpt lat="43.76004" lon="7.1604">
        <ele>577.79998779297</ele>
        <time>2021-02-25T09:28:47.000Z</time>
      </trkpt>
      <trkpt lat="43.76002" lon="7.16037">
        <ele>578.79998779297</ele>
        <time>2021-02-25T09:28:50.000Z</time>
      </trkpt>
      <trkpt lat="43.76001" lon="7.16036">
        <ele>580</ele>
        <time>2021-02-25T09:28:53.000Z</time>
      </trkpt>
      <trkpt lat="43.76" lon="7.16035">
        <ele>580.40002441406</ele>
        <time>2021-02-25T09:28:55.000Z</time>
      </trkpt>
      <trkpt lat="43.75999" lon="7.16034">
        <ele>580.79998779297</ele>
        <time>2021-02-25T09:29:00.000Z</time>
      </trkpt>
      <trkpt lat="43.75999" lon="7.16033">
        <ele>580.79998779297</ele>
        <time>2021-02-25T09:29:01.000Z</time>
      </trkpt>
      <trkpt lat="43.75997" lon="7.16029">
        <ele>581.20001220703</ele>
        <time>2021-02-25T09:29:04.000Z</time>
      </trkpt>
      <trkpt lat="43.75996" lon="7.16028">
        <ele>581.20001220703</ele>
        <time>2021-02-25T09:29:05.000Z</time>
      </trkpt>
      <trkpt lat="43.75994" lon="7.16027">
        <ele>581.79998779297</ele>
        <time>2021-02-25T09:29:11.000Z</time>
      </trkpt>
      <trkpt lat="43.75993" lon="7.16027">
        <ele>582.20001220703</ele>
        <time>2021-02-25T09:29:13.000Z</time>
      </trkpt>
      <trkpt lat="43.75992" lon="7.16025">
        <ele>582.79998779297</ele>
        <time>2021-02-25T09:29:18.000Z</time>
      </trkpt>
      <trkpt lat="43.75987" lon="7.1602">
        <ele>583</ele>
        <time>2021-02-25T09:29:22.000Z</time>
      </trkpt>
      <trkpt lat="43.75986" lon="7.16019">
        <ele>583.20001220703</ele>
        <time>2021-02-25T09:29:23.000Z</time>
      </trkpt>
      <trkpt lat="43.75985" lon="7.16019">
        <ele>584</ele>
        <time>2021-02-25T09:29:26.000Z</time>
      </trkpt>
      <trkpt lat="43.75985" lon="7.16019">
        <ele>584.40002441406</ele>
        <time>2021-02-25T09:29:27.000Z</time>
      </trkpt>
      <trkpt lat="43.75984" lon="7.16017">
        <ele>584.79998779297</ele>
        <time>2021-02-25T09:29:33.000Z</time>
      </trkpt>
      <trkpt lat="43.7598" lon="7.16013">
        <ele>585.20001220703</ele>
        <time>2021-02-25T09:29:37.000Z</time>
      </trkpt>
      <trkpt lat="43.75977" lon="7.16009">
        <ele>585.40002441406</ele>
        <time>2021-02-25T09:29:39.000Z</time>
      </trkpt>
      <trkpt lat="43.75972" lon="7.16003">
        <ele>586</ele>
        <time>2021-02-25T09:29:42.000Z</time>
      </trkpt>
      <trkpt lat="43.75971" lon="7.16001">
        <ele>586.59997558594</ele>
        <time>2021-02-25T09:29:43.000Z</time>
      </trkpt>
      <trkpt lat="43.75967" lon="7.15997">
        <ele>587.59997558594</ele>
        <time>2021-02-25T09:29:45.000Z</time>
      </trkpt>
      <trkpt lat="43.75964" lon="7.15994">
        <ele>588.79998779297</ele>
        <time>2021-02-25T09:29:47.000Z</time>
      </trkpt>
      <trkpt lat="43.75962" lon="7.15992">
        <ele>589.20001220703</ele>
        <time>2021-02-25T09:29:48.000Z</time>
      </trkpt>
      <trkpt lat="43.7596" lon="7.15989">
        <ele>590</ele>
        <time>2021-02-25T09:29:50.000Z</time>
      </trkpt>
      <trkpt lat="43.75954" lon="7.15981">
        <ele>591.20001220703</ele>
        <time>2021-02-25T09:29:54.000Z</time>
      </trkpt>
      <trkpt lat="43.75953" lon="7.1598">
        <ele>591.59997558594</ele>
        <time>2021-02-25T09:29:55.000Z</time>
      </trkpt>
      <trkpt lat="43.7595" lon="7.15976">
        <ele>592.20001220703</ele>
        <time>2021-02-25T09:29:57.000Z</time>
      </trkpt>
      <trkpt lat="43.75947" lon="7.15973">
        <ele>593.40002441406</ele>
        <time>2021-02-25T09:29:59.000Z</time>
      </trkpt>
      <trkpt lat="43.75943" lon="7.15967">
        <ele>594.79998779297</ele>
        <time>2021-02-25T09:30:02.000Z</time>
      </trkpt>
      <trkpt lat="43.75939" lon="7.15962">
        <ele>596</ele>
        <time>2021-02-25T09:30:05.000Z</time>
      </trkpt>
      <trkpt lat="43.75935" lon="7.15958">
        <ele>597</ele>
        <time>2021-02-25T09:30:08.000Z</time>
      </trkpt>
      <trkpt lat="43.75932" lon="7.15955">
        <ele>598.40002441406</ele>
        <time>2021-02-25T09:30:10.000Z</time>
      </trkpt>
      <trkpt lat="43.7593" lon="7.15952">
        <ele>599.40002441406</ele>
        <time>2021-02-25T09:30:12.000Z</time>
      </trkpt>
      <trkpt lat="43.75925" lon="7.15947">
        <ele>600.59997558594</ele>
        <time>2021-02-25T09:30:16.000Z</time>
      </trkpt>
      <trkpt lat="43.75928" lon="7.15944">
        <ele>601.79998779297</ele>
        <time>2021-02-25T09:30:19.000Z</time>
      </trkpt>
      <trkpt lat="43.75929" lon="7.15944">
        <ele>602.20001220703</ele>
        <time>2021-02-25T09:30:20.000Z</time>
      </trkpt>
      <trkpt lat="43.75933" lon="7.15943">
        <ele>603</ele>
        <time>2021-02-25T09:30:23.000Z</time>
      </trkpt>
      <trkpt lat="43.75938" lon="7.15943">
        <ele>604</ele>
        <time>2021-02-25T09:30:26.000Z</time>
      </trkpt>
      <trkpt lat="43.7594" lon="7.15943">
        <ele>604.40002441406</ele>
        <time>2021-02-25T09:30:27.000Z</time>
      </trkpt>
      <trkpt lat="43.75946" lon="7.15941">
        <ele>605.40002441406</ele>
        <time>2021-02-25T09:30:31.000Z</time>
      </trkpt>
      <trkpt lat="43.75948" lon="7.15941">
        <ele>606</ele>
        <time>2021-02-25T09:30:32.000Z</time>
      </trkpt>
      <trkpt lat="43.75949" lon="7.15941">
        <ele>606.40002441406</ele>
        <time>2021-02-25T09:30:33.000Z</time>
      </trkpt>
      <trkpt lat="43.75953" lon="7.15942">
        <ele>607.59997558594</ele>
        <time>2021-02-25T09:30:35.000Z</time>
      </trkpt>
      <trkpt lat="43.75958" lon="7.15941">
        <ele>608.79998779297</ele>
        <time>2021-02-25T09:30:38.000Z</time>
      </trkpt>
      <trkpt lat="43.75966" lon="7.15941">
        <ele>610</ele>
        <time>2021-02-25T09:30:42.000Z</time>
      </trkpt>
      <trkpt lat="43.75969" lon="7.15941">
        <ele>610.79998779297</ele>
        <time>2021-02-25T09:30:44.000Z</time>
      </trkpt>
      <trkpt lat="43.75971" lon="7.15941">
        <ele>611.20001220703</ele>
        <time>2021-02-25T09:30:45.000Z</time>
      </trkpt>
      <trkpt lat="43.75971" lon="7.1594">
        <ele>611.79998779297</ele>
        <time>2021-02-25T09:30:46.000Z</time>
      </trkpt>
      <trkpt lat="43.75971" lon="7.15938">
        <ele>612.20001220703</ele>
        <time>2021-02-25T09:30:48.000Z</time>
      </trkpt>
      <trkpt lat="43.75965" lon="7.15934">
        <ele>613.40002441406</ele>
        <time>2021-02-25T09:30:52.000Z</time>
      </trkpt>
      <trkpt lat="43.75964" lon="7.15932">
        <ele>613.79998779297</ele>
        <time>2021-02-25T09:30:53.000Z</time>
      </trkpt>
      <trkpt lat="43.7596" lon="7.15928">
        <ele>614.79998779297</ele>
        <time>2021-02-25T09:30:56.000Z</time>
      </trkpt>
      <trkpt lat="43.75956" lon="7.15924">
        <ele>616</ele>
        <time>2021-02-25T09:30:59.000Z</time>
      </trkpt>
      <trkpt lat="43.75952" lon="7.15919">
        <ele>617</ele>
        <time>2021-02-25T09:31:02.000Z</time>
      </trkpt>
      <trkpt lat="43.75947" lon="7.15915">
        <ele>618</ele>
        <time>2021-02-25T09:31:05.000Z</time>
      </trkpt>
      <trkpt lat="43.75946" lon="7.15914">
        <ele>618.40002441406</ele>
        <time>2021-02-25T09:31:06.000Z</time>
      </trkpt>
      <trkpt lat="43.75941" lon="7.15909">
        <ele>619.40002441406</ele>
        <time>2021-02-25T09:31:09.000Z</time>
      </trkpt>
      <trkpt lat="43.75941" lon="7.15908">
        <ele>619.59997558594</ele>
        <time>2021-02-25T09:31:10.000Z</time>
      </trkpt>
      <trkpt lat="43.75939" lon="7.15905">
        <ele>620.59997558594</ele>
        <time>2021-02-25T09:31:12.000Z</time>
      </trkpt>
      <trkpt lat="43.75939" lon="7.15905">
        <ele>621.79998779297</ele>
        <time>2021-02-25T09:31:15.000Z</time>
      </trkpt>
      <trkpt lat="43.75938" lon="7.15905">
        <ele>622.20001220703</ele>
        <time>2021-02-25T09:31:25.000Z</time>
      </trkpt>
      <trkpt lat="43.75937" lon="7.15905">
        <ele>622.20001220703</ele>
        <time>2021-02-25T09:31:37.000Z</time>
      </trkpt>
      <trkpt lat="43.75937" lon="7.15905">
        <ele>622.40002441406</ele>
        <time>2021-02-25T09:32:07.000Z</time>
      </trkpt>
      <trkpt lat="43.75937" lon="7.15905">
        <ele>622.20001220703</ele>
        <time>2021-02-25T09:32:27.000Z</time>
      </trkpt>
      <trkpt lat="43.75936" lon="7.15905">
        <ele>622.40002441406</ele>
        <time>2021-02-25T09:32:33.000Z</time>
      </trkpt>
      <trkpt lat="43.75936" lon="7.15905">
        <ele>622.20001220703</ele>
        <time>2021-02-25T09:32:45.000Z</time>
      </trkpt>
      <trkpt lat="43.75935" lon="7.15904">
        <ele>622.20001220703</ele>
        <time>2021-02-25T09:32:46.000Z</time>
      </trkpt>
      <trkpt lat="43.75931" lon="7.15899">
        <ele>622.20001220703</ele>
        <time>2021-02-25T09:32:50.000Z</time>
      </trkpt>
      <trkpt lat="43.75928" lon="7.15897">
        <ele>622.40002441406</ele>
        <time>2021-02-25T09:32:52.000Z</time>
      </trkpt>
      <trkpt lat="43.75925" lon="7.15895">
        <ele>623</ele>
        <time>2021-02-25T09:32:54.000Z</time>
      </trkpt>
      <trkpt lat="43.75923" lon="7.15894">
        <ele>623</ele>
        <time>2021-02-25T09:32:55.000Z</time>
      </trkpt>
      <trkpt lat="43.75915" lon="7.15885">
        <ele>624</ele>
        <time>2021-02-25T09:33:00.000Z</time>
      </trkpt>
      <trkpt lat="43.75909" lon="7.15879">
        <ele>625.20001220703</ele>
        <time>2021-02-25T09:33:04.000Z</time>
      </trkpt>
      <trkpt lat="43.75903" lon="7.15873">
        <ele>626.40002441406</ele>
        <time>2021-02-25T09:33:08.000Z</time>
      </trkpt>
      <trkpt lat="43.75902" lon="7.15871">
        <ele>626.59997558594</ele>
        <time>2021-02-25T09:33:09.000Z</time>
      </trkpt>
      <trkpt lat="43.75904" lon="7.15869">
        <ele>627.59997558594</ele>
        <time>2021-02-25T09:33:12.000Z</time>
      </trkpt>
      <trkpt lat="43.75903" lon="7.15869">
        <ele>628</ele>
        <time>2021-02-25T09:33:13.000Z</time>
      </trkpt>
      <trkpt lat="43.75908" lon="7.15869">
        <ele>628.40002441406</ele>
        <time>2021-02-25T09:33:18.000Z</time>
      </trkpt>
      <trkpt lat="43.7591" lon="7.15869">
        <ele>628.59997558594</ele>
        <time>2021-02-25T09:33:19.000Z</time>
      </trkpt>
      <trkpt lat="43.75912" lon="7.15869">
        <ele>629.20001220703</ele>
        <time>2021-02-25T09:33:21.000Z</time>
      </trkpt>
      <trkpt lat="43.75914" lon="7.15868">
        <ele>629.40002441406</ele>
        <time>2021-02-25T09:33:22.000Z</time>
      </trkpt>
      <trkpt lat="43.75916" lon="7.15867">
        <ele>629.79998779297</ele>
        <time>2021-02-25T09:33:23.000Z</time>
      </trkpt>
      <trkpt lat="43.75919" lon="7.15868">
        <ele>630.20001220703</ele>
        <time>2021-02-25T09:33:25.000Z</time>
      </trkpt>
      <trkpt lat="43.75921" lon="7.15868">
        <ele>630.59997558594</ele>
        <time>2021-02-25T09:33:26.000Z</time>
      </trkpt>
      <trkpt lat="43.75923" lon="7.15868">
        <ele>631</ele>
        <time>2021-02-25T09:33:27.000Z</time>
      </trkpt>
      <trkpt lat="43.75925" lon="7.15868">
        <ele>632</ele>
        <time>2021-02-25T09:33:30.000Z</time>
      </trkpt>
      <trkpt lat="43.75926" lon="7.15869">
        <ele>632.20001220703</ele>
        <time>2021-02-25T09:33:31.000Z</time>
      </trkpt>
      <trkpt lat="43.75927" lon="7.15869">
        <ele>632.79998779297</ele>
        <time>2021-02-25T09:33:35.000Z</time>
      </trkpt>
      <trkpt lat="43.75927" lon="7.15868">
        <ele>633.20001220703</ele>
        <time>2021-02-25T09:33:40.000Z</time>
      </trkpt>
      <trkpt lat="43.75927" lon="7.15868">
        <ele>633.20001220703</ele>
        <time>2021-02-25T09:33:41.000Z</time>
      </trkpt>
      <trkpt lat="43.75926" lon="7.15867">
        <ele>633.40002441406</ele>
        <time>2021-02-25T09:33:45.000Z</time>
      </trkpt>
      <trkpt lat="43.75926" lon="7.15867">
        <ele>633.40002441406</ele>
        <time>2021-02-25T09:33:47.000Z</time>
      </trkpt>
      <trkpt lat="43.75925" lon="7.15866">
        <ele>633.40002441406</ele>
        <time>2021-02-25T09:33:48.000Z</time>
      </trkpt>
      <trkpt lat="43.7592" lon="7.15861">
        <ele>633.79998779297</ele>
        <time>2021-02-25T09:33:52.000Z</time>
      </trkpt>
      <trkpt lat="43.75916" lon="7.15858">
        <ele>634.20001220703</ele>
        <time>2021-02-25T09:33:54.000Z</time>
      </trkpt>
      <trkpt lat="43.7591" lon="7.15851">
        <ele>635.59997558594</ele>
        <time>2021-02-25T09:33:58.000Z</time>
      </trkpt>
      <trkpt lat="43.75908" lon="7.15849">
        <ele>635.79998779297</ele>
        <time>2021-02-25T09:33:59.000Z</time>
      </trkpt>
      <trkpt lat="43.75905" lon="7.15846">
        <ele>636.59997558594</ele>
        <time>2021-02-25T09:34:01.000Z</time>
      </trkpt>
      <trkpt lat="43.75897" lon="7.15841">
        <ele>637.79998779297</ele>
        <time>2021-02-25T09:34:05.000Z</time>
      </trkpt>
      <trkpt lat="43.75888" lon="7.15835">
        <ele>638</ele>
        <time>2021-02-25T09:34:09.000Z</time>
      </trkpt>
      <trkpt lat="43.75879" lon="7.15826">
        <ele>637.79998779297</ele>
        <time>2021-02-25T09:34:14.000Z</time>
      </trkpt>
      <trkpt lat="43.75872" lon="7.15813">
        <ele>639.20001220703</ele>
        <time>2021-02-25T09:34:20.000Z</time>
      </trkpt>
      <trkpt lat="43.75868" lon="7.15806">
        <ele>640.59997558594</ele>
        <time>2021-02-25T09:34:23.000Z</time>
      </trkpt>
      <trkpt lat="43.75866" lon="7.15802">
        <ele>641.59997558594</ele>
        <time>2021-02-25T09:34:25.000Z</time>
      </trkpt>
      <trkpt lat="43.75864" lon="7.15797">
        <ele>642.79998779297</ele>
        <time>2021-02-25T09:34:27.000Z</time>
      </trkpt>
      <trkpt lat="43.75865" lon="7.15796">
        <ele>643.79998779297</ele>
        <time>2021-02-25T09:34:29.000Z</time>
      </trkpt>
      <trkpt lat="43.75865" lon="7.15796">
        <ele>644</ele>
        <time>2021-02-25T09:34:30.000Z</time>
      </trkpt>
      <trkpt lat="43.75864" lon="7.15794">
        <ele>645.20001220703</ele>
        <time>2021-02-25T09:34:35.000Z</time>
      </trkpt>
      <trkpt lat="43.7586" lon="7.15781">
        <ele>645.79998779297</ele>
        <time>2021-02-25T09:34:41.000Z</time>
      </trkpt>
      <trkpt lat="43.75859" lon="7.15779">
        <ele>646.20001220703</ele>
        <time>2021-02-25T09:34:42.000Z</time>
      </trkpt>
      <trkpt lat="43.75856" lon="7.15769">
        <ele>647.20001220703</ele>
        <time>2021-02-25T09:34:46.000Z</time>
      </trkpt>
      <trkpt lat="43.75855" lon="7.15765">
        <ele>648</ele>
        <time>2021-02-25T09:34:48.000Z</time>
      </trkpt>
      <trkpt lat="43.75855" lon="7.15762">
        <ele>648.40002441406</ele>
        <time>2021-02-25T09:34:49.000Z</time>
      </trkpt>
      <trkpt lat="43.75854" lon="7.15756">
        <ele>649.20001220703</ele>
        <time>2021-02-25T09:34:52.000Z</time>
      </trkpt>
      <trkpt lat="43.75854" lon="7.15753">
        <ele>649.59997558594</ele>
        <time>2021-02-25T09:34:53.000Z</time>
      </trkpt>
      <trkpt lat="43.75854" lon="7.15745">
        <ele>651</ele>
        <time>2021-02-25T09:34:57.000Z</time>
      </trkpt>
      <trkpt lat="43.75854" lon="7.15744">
        <ele>651.40002441406</ele>
        <time>2021-02-25T09:34:58.000Z</time>
      </trkpt>
      <trkpt lat="43.75855" lon="7.15744">
        <ele>652.20001220703</ele>
        <time>2021-02-25T09:35:01.000Z</time>
      </trkpt>
      <trkpt lat="43.75855" lon="7.15743">
        <ele>652.40002441406</ele>
        <time>2021-02-25T09:35:02.000Z</time>
      </trkpt>
      <trkpt lat="43.75855" lon="7.15743">
        <ele>653</ele>
        <time>2021-02-25T09:35:08.000Z</time>
      </trkpt>
      <trkpt lat="43.75855" lon="7.15742">
        <ele>653</ele>
        <time>2021-02-25T09:35:09.000Z</time>
      </trkpt>
      <trkpt lat="43.75855" lon="7.15738">
        <ele>653.20001220703</ele>
        <time>2021-02-25T09:35:11.000Z</time>
      </trkpt>
      <trkpt lat="43.75855" lon="7.15736">
        <ele>653.40002441406</ele>
        <time>2021-02-25T09:35:12.000Z</time>
      </trkpt>
      <trkpt lat="43.75856" lon="7.15726">
        <ele>654.40002441406</ele>
        <time>2021-02-25T09:35:18.000Z</time>
      </trkpt>
      <trkpt lat="43.75856" lon="7.15724">
        <ele>655.59997558594</ele>
        <time>2021-02-25T09:35:22.000Z</time>
      </trkpt>
      <trkpt lat="43.75856" lon="7.15721">
        <ele>655.79998779297</ele>
        <time>2021-02-25T09:35:24.000Z</time>
      </trkpt>
      <trkpt lat="43.75856" lon="7.1572">
        <ele>656</ele>
        <time>2021-02-25T09:35:28.000Z</time>
      </trkpt>
      <trkpt lat="43.75855" lon="7.15716">
        <ele>656.59997558594</ele>
        <time>2021-02-25T09:35:33.000Z</time>
      </trkpt>
      <trkpt lat="43.75855" lon="7.15715">
        <ele>656.79998779297</ele>
        <time>2021-02-25T09:35:34.000Z</time>
      </trkpt>
      <trkpt lat="43.75855" lon="7.15714">
        <ele>657.40002441406</ele>
        <time>2021-02-25T09:35:37.000Z</time>
      </trkpt>
      <trkpt lat="43.75855" lon="7.15713">
        <ele>657.59997558594</ele>
        <time>2021-02-25T09:35:40.000Z</time>
      </trkpt>
      <trkpt lat="43.75855" lon="7.15712">
        <ele>657.59997558594</ele>
        <time>2021-02-25T09:35:42.000Z</time>
      </trkpt>
      <trkpt lat="43.75855" lon="7.15711">
        <ele>658</ele>
        <time>2021-02-25T09:35:46.000Z</time>
      </trkpt>
      <trkpt lat="43.75855" lon="7.15706">
        <ele>658</ele>
        <time>2021-02-25T09:35:49.000Z</time>
      </trkpt>
      <trkpt lat="43.75856" lon="7.157">
        <ele>658.79998779297</ele>
        <time>2021-02-25T09:35:53.000Z</time>
      </trkpt>
      <trkpt lat="43.75856" lon="7.15698">
        <ele>659.40002441406</ele>
        <time>2021-02-25T09:35:54.000Z</time>
      </trkpt>
      <trkpt lat="43.75856" lon="7.15689">
        <ele>660</ele>
        <time>2021-02-25T09:35:57.000Z</time>
      </trkpt>
      <trkpt lat="43.75856" lon="7.15679">
        <ele>660.40002441406</ele>
        <time>2021-02-25T09:36:01.000Z</time>
      </trkpt>
      <trkpt lat="43.75856" lon="7.15674">
        <ele>661</ele>
        <time>2021-02-25T09:36:03.000Z</time>
      </trkpt>
      <trkpt lat="43.75856" lon="7.15668">
        <ele>661.79998779297</ele>
        <time>2021-02-25T09:36:05.000Z</time>
      </trkpt>
      <trkpt lat="43.75857" lon="7.15658">
        <ele>663</ele>
        <time>2021-02-25T09:36:08.000Z</time>
      </trkpt>
      <trkpt lat="43.75858" lon="7.15656">
        <ele>663.40002441406</ele>
        <time>2021-02-25T09:36:09.000Z</time>
      </trkpt>
      <trkpt lat="43.75859" lon="7.15649">
        <ele>664.20001220703</ele>
        <time>2021-02-25T09:36:12.000Z</time>
      </trkpt>
      <trkpt lat="43.75859" lon="7.15645">
        <ele>664.79998779297</ele>
        <time>2021-02-25T09:36:14.000Z</time>
      </trkpt>
      <trkpt lat="43.75859" lon="7.15639">
        <ele>665.59997558594</ele>
        <time>2021-02-25T09:36:16.000Z</time>
      </trkpt>
      <trkpt lat="43.7586" lon="7.15628">
        <ele>666.40002441406</ele>
        <time>2021-02-25T09:36:20.000Z</time>
      </trkpt>
      <trkpt lat="43.7586" lon="7.15623">
        <ele>666.79998779297</ele>
        <time>2021-02-25T09:36:22.000Z</time>
      </trkpt>
      <trkpt lat="43.75862" lon="7.15613">
        <ele>668</ele>
        <time>2021-02-25T09:36:26.000Z</time>
      </trkpt>
      <trkpt lat="43.75863" lon="7.1561">
        <ele>668.20001220703</ele>
        <time>2021-02-25T09:36:27.000Z</time>
      </trkpt>
      <trkpt lat="43.75865" lon="7.15599">
        <ele>669</ele>
        <time>2021-02-25T09:36:32.000Z</time>
      </trkpt>
      <trkpt lat="43.75868" lon="7.15587">
        <ele>669.79998779297</ele>
        <time>2021-02-25T09:36:37.000Z</time>
      </trkpt>
      <trkpt lat="43.75869" lon="7.15582">
        <ele>670.40002441406</ele>
        <time>2021-02-25T09:36:39.000Z</time>
      </trkpt>
      <trkpt lat="43.75871" lon="7.15573">
        <ele>671.40002441406</ele>
        <time>2021-02-25T09:36:42.000Z</time>
      </trkpt>
      <trkpt lat="43.75872" lon="7.1557">
        <ele>671.79998779297</ele>
        <time>2021-02-25T09:36:43.000Z</time>
      </trkpt>
      <trkpt lat="43.75876" lon="7.15557">
        <ele>672.59997558594</ele>
        <time>2021-02-25T09:36:47.000Z</time>
      </trkpt>
      <trkpt lat="43.7588" lon="7.15551">
        <ele>673.20001220703</ele>
        <time>2021-02-25T09:36:49.000Z</time>
      </trkpt>
      <trkpt lat="43.7588" lon="7.15547">
        <ele>673.59997558594</ele>
        <time>2021-02-25T09:36:50.000Z</time>
      </trkpt>
      <trkpt lat="43.75884" lon="7.15536">
        <ele>674.79998779297</ele>
        <time>2021-02-25T09:36:53.000Z</time>
      </trkpt>
      <trkpt lat="43.75887" lon="7.15529">
        <ele>675.79998779297</ele>
        <time>2021-02-25T09:36:55.000Z</time>
      </trkpt>
      <trkpt lat="43.75889" lon="7.15526">
        <ele>676.20001220703</ele>
        <time>2021-02-25T09:36:56.000Z</time>
      </trkpt>
      <trkpt lat="43.75891" lon="7.1552">
        <ele>677.40002441406</ele>
        <time>2021-02-25T09:36:58.000Z</time>
      </trkpt>
      <trkpt lat="43.75895" lon="7.1551">
        <ele>678.40002441406</ele>
        <time>2021-02-25T09:37:02.000Z</time>
      </trkpt>
      <trkpt lat="43.75898" lon="7.15504">
        <ele>678.79998779297</ele>
        <time>2021-02-25T09:37:08.000Z</time>
      </trkpt>
      <trkpt lat="43.75898" lon="7.15502">
        <ele>679.40002441406</ele>
        <time>2021-02-25T09:37:12.000Z</time>
      </trkpt>
      <trkpt lat="43.75899" lon="7.155">
        <ele>679.79998779297</ele>
        <time>2021-02-25T09:37:13.000Z</time>
      </trkpt>
      <trkpt lat="43.759" lon="7.15496">
        <ele>679.79998779297</ele>
        <time>2021-02-25T09:37:19.000Z</time>
      </trkpt>
      <trkpt lat="43.75903" lon="7.15493">
        <ele>680</ele>
        <time>2021-02-25T09:37:24.000Z</time>
      </trkpt>
      <trkpt lat="43.75904" lon="7.15492">
        <ele>680</ele>
        <time>2021-02-25T09:37:25.000Z</time>
      </trkpt>
      <trkpt lat="43.75909" lon="7.15487">
        <ele>680.59997558594</ele>
        <time>2021-02-25T09:37:30.000Z</time>
      </trkpt>
      <trkpt lat="43.75911" lon="7.15486">
        <ele>681</ele>
        <time>2021-02-25T09:37:31.000Z</time>
      </trkpt>
      <trkpt lat="43.75915" lon="7.15482">
        <ele>681.79998779297</ele>
        <time>2021-02-25T09:37:34.000Z</time>
      </trkpt>
      <trkpt lat="43.75919" lon="7.15477">
        <ele>682.59997558594</ele>
        <time>2021-02-25T09:37:37.000Z</time>
      </trkpt>
      <trkpt lat="43.75921" lon="7.15474">
        <ele>683.20001220703</ele>
        <time>2021-02-25T09:37:39.000Z</time>
      </trkpt>
      <trkpt lat="43.75922" lon="7.15473">
        <ele>683.20001220703</ele>
        <time>2021-02-25T09:37:40.000Z</time>
      </trkpt>
      <trkpt lat="43.75924" lon="7.1547">
        <ele>683.40002441406</ele>
        <time>2021-02-25T09:37:42.000Z</time>
      </trkpt>
      <trkpt lat="43.75929" lon="7.15463">
        <ele>684.20001220703</ele>
        <time>2021-02-25T09:37:46.000Z</time>
      </trkpt>
      <trkpt lat="43.75931" lon="7.15461">
        <ele>684.40002441406</ele>
        <time>2021-02-25T09:37:47.000Z</time>
      </trkpt>
      <trkpt lat="43.75937" lon="7.15452">
        <ele>685.40002441406</ele>
        <time>2021-02-25T09:37:51.000Z</time>
      </trkpt>
      <trkpt lat="43.75942" lon="7.15446">
        <ele>686.20001220703</ele>
        <time>2021-02-25T09:37:54.000Z</time>
      </trkpt>
      <trkpt lat="43.75944" lon="7.15445">
        <ele>686.40002441406</ele>
        <time>2021-02-25T09:37:55.000Z</time>
      </trkpt>
      <trkpt lat="43.75954" lon="7.15432">
        <ele>687</ele>
        <time>2021-02-25T09:38:00.000Z</time>
      </trkpt>
      <trkpt lat="43.75967" lon="7.15421">
        <ele>687.59997558594</ele>
        <time>2021-02-25T09:38:05.000Z</time>
      </trkpt>
      <trkpt lat="43.75968" lon="7.1542">
        <ele>687.79998779297</ele>
        <time>2021-02-25T09:38:06.000Z</time>
      </trkpt>
      <trkpt lat="43.75973" lon="7.15415">
        <ele>688.59997558594</ele>
        <time>2021-02-25T09:38:09.000Z</time>
      </trkpt>
      <trkpt lat="43.7598" lon="7.15411">
        <ele>689.40002441406</ele>
        <time>2021-02-25T09:38:12.000Z</time>
      </trkpt>
      <trkpt lat="43.75981" lon="7.1541">
        <ele>689.59997558594</ele>
        <time>2021-02-25T09:38:13.000Z</time>
      </trkpt>
      <trkpt lat="43.75981" lon="7.15409">
        <ele>690.20001220703</ele>
        <time>2021-02-25T09:38:14.000Z</time>
      </trkpt>
      <trkpt lat="43.75984" lon="7.15407">
        <ele>690.59997558594</ele>
        <time>2021-02-25T09:38:16.000Z</time>
      </trkpt>
      <trkpt lat="43.75986" lon="7.15405">
        <ele>690.79998779297</ele>
        <time>2021-02-25T09:38:17.000Z</time>
      </trkpt>
      <trkpt lat="43.75993" lon="7.15401">
        <ele>691.79998779297</ele>
        <time>2021-02-25T09:38:21.000Z</time>
      </trkpt>
      <trkpt lat="43.75998" lon="7.15399">
        <ele>693.20001220703</ele>
        <time>2021-02-25T09:38:26.000Z</time>
      </trkpt>
      <trkpt lat="43.76001" lon="7.15398">
        <ele>694.20001220703</ele>
        <time>2021-02-25T09:38:28.000Z</time>
      </trkpt>
      <trkpt lat="43.76002" lon="7.15397">
        <ele>694.59997558594</ele>
        <time>2021-02-25T09:38:29.000Z</time>
      </trkpt>
      <trkpt lat="43.76004" lon="7.15393">
        <ele>695.40002441406</ele>
        <time>2021-02-25T09:38:31.000Z</time>
      </trkpt>
      <trkpt lat="43.76008" lon="7.15392">
        <ele>696.40002441406</ele>
        <time>2021-02-25T09:38:35.000Z</time>
      </trkpt>
      <trkpt lat="43.76009" lon="7.1539">
        <ele>696.59997558594</ele>
        <time>2021-02-25T09:38:36.000Z</time>
      </trkpt>
      <trkpt lat="43.7601" lon="7.15389">
        <ele>697.40002441406</ele>
        <time>2021-02-25T09:38:40.000Z</time>
      </trkpt>
      <trkpt lat="43.76015" lon="7.15384">
        <ele>697.59997558594</ele>
        <time>2021-02-25T09:38:45.000Z</time>
      </trkpt>
      <trkpt lat="43.7602" lon="7.1538">
        <ele>699</ele>
        <time>2021-02-25T09:38:49.000Z</time>
      </trkpt>
      <trkpt lat="43.76022" lon="7.15379">
        <ele>699.20001220703</ele>
        <time>2021-02-25T09:38:50.000Z</time>
      </trkpt>
      <trkpt lat="43.76024" lon="7.15378">
        <ele>700</ele>
        <time>2021-02-25T09:38:52.000Z</time>
      </trkpt>
      <trkpt lat="43.76024" lon="7.15377">
        <ele>700.20001220703</ele>
        <time>2021-02-25T09:38:53.000Z</time>
      </trkpt>
      <trkpt lat="43.76025" lon="7.15377">
        <ele>700.59997558594</ele>
        <time>2021-02-25T09:38:54.000Z</time>
      </trkpt>
      <trkpt lat="43.76027" lon="7.15376">
        <ele>701.20001220703</ele>
        <time>2021-02-25T09:38:56.000Z</time>
      </trkpt>
      <trkpt lat="43.76027" lon="7.15375">
        <ele>701.40002441406</ele>
        <time>2021-02-25T09:38:58.000Z</time>
      </trkpt>
      <trkpt lat="43.76029" lon="7.15375">
        <ele>702</ele>
        <time>2021-02-25T09:39:05.000Z</time>
      </trkpt>
      <trkpt lat="43.76032" lon="7.15373">
        <ele>702.20001220703</ele>
        <time>2021-02-25T09:39:11.000Z</time>
      </trkpt>
      <trkpt lat="43.76032" lon="7.15373">
        <ele>702.40002441406</ele>
        <time>2021-02-25T09:39:12.000Z</time>
      </trkpt>
      <trkpt lat="43.76036" lon="7.15372">
        <ele>703</ele>
        <time>2021-02-25T09:39:17.000Z</time>
      </trkpt>
      <trkpt lat="43.76044" lon="7.1537">
        <ele>703.59997558594</ele>
        <time>2021-02-25T09:39:21.000Z</time>
      </trkpt>
      <trkpt lat="43.76047" lon="7.1537">
        <ele>704.20001220703</ele>
        <time>2021-02-25T09:39:23.000Z</time>
      </trkpt>
      <trkpt lat="43.76049" lon="7.15369">
        <ele>704.79998779297</ele>
        <time>2021-02-25T09:39:24.000Z</time>
      </trkpt>
      <trkpt lat="43.76055" lon="7.15365">
        <ele>706</ele>
        <time>2021-02-25T09:39:28.000Z</time>
      </trkpt>
      <trkpt lat="43.7607" lon="7.15357">
        <ele>707</ele>
        <time>2021-02-25T09:39:34.000Z</time>
      </trkpt>
      <trkpt lat="43.76072" lon="7.15356">
        <ele>707.20001220703</ele>
        <time>2021-02-25T09:39:35.000Z</time>
      </trkpt>
      <trkpt lat="43.76077" lon="7.15354">
        <ele>708.40002441406</ele>
        <time>2021-02-25T09:39:37.000Z</time>
      </trkpt>
      <trkpt lat="43.76081" lon="7.15353">
        <ele>709.59997558594</ele>
        <time>2021-02-25T09:39:39.000Z</time>
      </trkpt>
      <trkpt lat="43.76083" lon="7.15352">
        <ele>710.20001220703</ele>
        <time>2021-02-25T09:39:40.000Z</time>
      </trkpt>
      <trkpt lat="43.76086" lon="7.1535">
        <ele>711</ele>
        <time>2021-02-25T09:39:42.000Z</time>
      </trkpt>
      <trkpt lat="43.76093" lon="7.15348">
        <ele>712</ele>
        <time>2021-02-25T09:39:45.000Z</time>
      </trkpt>
      <trkpt lat="43.76099" lon="7.15348">
        <ele>713.20001220703</ele>
        <time>2021-02-25T09:39:48.000Z</time>
      </trkpt>
      <trkpt lat="43.76101" lon="7.15348">
        <ele>714</ele>
        <time>2021-02-25T09:39:50.000Z</time>
      </trkpt>
      <trkpt lat="43.76102" lon="7.15348">
        <ele>714.40002441406</ele>
        <time>2021-02-25T09:39:51.000Z</time>
      </trkpt>
      <trkpt lat="43.76102" lon="7.15348">
        <ele>715.79998779297</ele>
        <time>2021-02-25T09:39:54.000Z</time>
      </trkpt>
      <trkpt lat="43.76105" lon="7.15348">
        <ele>716.79998779297</ele>
        <time>2021-02-25T09:39:59.000Z</time>
      </trkpt>
      <trkpt lat="43.76105" lon="7.15347">
        <ele>717.59997558594</ele>
        <time>2021-02-25T09:40:05.000Z</time>
      </trkpt>
      <trkpt lat="43.76107" lon="7.15347">
        <ele>717.79998779297</ele>
        <time>2021-02-25T09:40:16.000Z</time>
      </trkpt>
      <trkpt lat="43.76107" lon="7.15347">
        <ele>718</ele>
        <time>2021-02-25T09:40:21.000Z</time>
      </trkpt>
      <trkpt lat="43.76109" lon="7.15347">
        <ele>718</ele>
        <time>2021-02-25T09:40:31.000Z</time>
      </trkpt>
      <trkpt lat="43.7611" lon="7.15346">
        <ele>718</ele>
        <time>2021-02-25T09:40:32.000Z</time>
      </trkpt>
      <trkpt lat="43.76111" lon="7.15346">
        <ele>718.79998779297</ele>
        <time>2021-02-25T09:40:36.000Z</time>
      </trkpt>
      <trkpt lat="43.76112" lon="7.15345">
        <ele>718.79998779297</ele>
        <time>2021-02-25T09:40:37.000Z</time>
      </trkpt>
      <trkpt lat="43.76113" lon="7.15344">
        <ele>719</ele>
        <time>2021-02-25T09:40:41.000Z</time>
      </trkpt>
      <trkpt lat="43.76114" lon="7.15342">
        <ele>719.20001220703</ele>
        <time>2021-02-25T09:40:46.000Z</time>
      </trkpt>
      <trkpt lat="43.76117" lon="7.15339">
        <ele>719.79998779297</ele>
        <time>2021-02-25T09:40:50.000Z</time>
      </trkpt>
      <trkpt lat="43.76118" lon="7.15339">
        <ele>719.79998779297</ele>
        <time>2021-02-25T09:40:51.000Z</time>
      </trkpt>
      <trkpt lat="43.7612" lon="7.15338">
        <ele>720.20001220703</ele>
        <time>2021-02-25T09:40:52.000Z</time>
      </trkpt>
      <trkpt lat="43.76122" lon="7.15336">
        <ele>720.79998779297</ele>
        <time>2021-02-25T09:40:55.000Z</time>
      </trkpt>
      <trkpt lat="43.76127" lon="7.15334">
        <ele>721.20001220703</ele>
        <time>2021-02-25T09:40:57.000Z</time>
      </trkpt>
      <trkpt lat="43.76132" lon="7.15331">
        <ele>721.40002441406</ele>
        <time>2021-02-25T09:41:00.000Z</time>
      </trkpt>
      <trkpt lat="43.76137" lon="7.15332">
        <ele>722.59997558594</ele>
        <time>2021-02-25T09:41:04.000Z</time>
      </trkpt>
      <trkpt lat="43.76137" lon="7.15332">
        <ele>723.40002441406</ele>
        <time>2021-02-25T09:41:05.000Z</time>
      </trkpt>
      <trkpt lat="43.76138" lon="7.15333">
        <ele>724.20001220703</ele>
        <time>2021-02-25T09:41:06.000Z</time>
      </trkpt>
      <trkpt lat="43.76138" lon="7.15333">
        <ele>725.20001220703</ele>
        <time>2021-02-25T09:41:08.000Z</time>
      </trkpt>
      <trkpt lat="43.7614" lon="7.15333">
        <ele>725.40002441406</ele>
        <time>2021-02-25T09:41:12.000Z</time>
      </trkpt>
      <trkpt lat="43.76141" lon="7.15333">
        <ele>725.59997558594</ele>
        <time>2021-02-25T09:41:17.000Z</time>
      </trkpt>
      <trkpt lat="43.76143" lon="7.15333">
        <ele>726.40002441406</ele>
        <time>2021-02-25T09:41:22.000Z</time>
      </trkpt>
      <trkpt lat="43.76145" lon="7.15333">
        <ele>727.20001220703</ele>
        <time>2021-02-25T09:41:24.000Z</time>
      </trkpt>
      <trkpt lat="43.76145" lon="7.15333">
        <ele>727.40002441406</ele>
        <time>2021-02-25T09:41:25.000Z</time>
      </trkpt>
      <trkpt lat="43.76148" lon="7.15331">
        <ele>728.59997558594</ele>
        <time>2021-02-25T09:41:32.000Z</time>
      </trkpt>
      <trkpt lat="43.7615" lon="7.1533">
        <ele>729.20001220703</ele>
        <time>2021-02-25T09:41:37.000Z</time>
      </trkpt>
      <trkpt lat="43.76155" lon="7.15328">
        <ele>729.20001220703</ele>
        <time>2021-02-25T09:41:42.000Z</time>
      </trkpt>
      <trkpt lat="43.76158" lon="7.15327">
        <ele>729.59997558594</ele>
        <time>2021-02-25T09:41:44.000Z</time>
      </trkpt>
      <trkpt lat="43.76165" lon="7.15327">
        <ele>730.40002441406</ele>
        <time>2021-02-25T09:41:48.000Z</time>
      </trkpt>
      <trkpt lat="43.76168" lon="7.15328">
        <ele>730.59997558594</ele>
        <time>2021-02-25T09:41:50.000Z</time>
      </trkpt>
      <trkpt lat="43.76173" lon="7.15334">
        <ele>731.20001220703</ele>
        <time>2021-02-25T09:41:54.000Z</time>
      </trkpt>
      <trkpt lat="43.76175" lon="7.15337">
        <ele>731.59997558594</ele>
        <time>2021-02-25T09:41:56.000Z</time>
      </trkpt>
      <trkpt lat="43.76178" lon="7.15339">
        <ele>732.79998779297</ele>
        <time>2021-02-25T09:41:58.000Z</time>
      </trkpt>
      <trkpt lat="43.76182" lon="7.1534">
        <ele>734</ele>
        <time>2021-02-25T09:42:00.000Z</time>
      </trkpt>
      <trkpt lat="43.76191" lon="7.15341">
        <ele>734.79998779297</ele>
        <time>2021-02-25T09:42:04.000Z</time>
      </trkpt>
      <trkpt lat="43.76193" lon="7.1534">
        <ele>735</ele>
        <time>2021-02-25T09:42:05.000Z</time>
      </trkpt>
      <trkpt lat="43.76206" lon="7.15334">
        <ele>736</ele>
        <time>2021-02-25T09:42:11.000Z</time>
      </trkpt>
      <trkpt lat="43.76206" lon="7.15331">
        <ele>736</ele>
        <time>2021-02-25T09:42:12.000Z</time>
      </trkpt>
      <trkpt lat="43.76207" lon="7.15328">
        <ele>736.20001220703</ele>
        <time>2021-02-25T09:42:13.000Z</time>
      </trkpt>
      <trkpt lat="43.76208" lon="7.15319">
        <ele>736.79998779297</ele>
        <time>2021-02-25T09:42:16.000Z</time>
      </trkpt>
      <trkpt lat="43.76211" lon="7.15313">
        <ele>737.40002441406</ele>
        <time>2021-02-25T09:42:18.000Z</time>
      </trkpt>
      <trkpt lat="43.76215" lon="7.1531">
        <ele>738.40002441406</ele>
        <time>2021-02-25T09:42:20.000Z</time>
      </trkpt>
      <trkpt lat="43.76217" lon="7.15309">
        <ele>738.59997558594</ele>
        <time>2021-02-25T09:42:21.000Z</time>
      </trkpt>
      <trkpt lat="43.76223" lon="7.15304">
        <ele>739.79998779297</ele>
        <time>2021-02-25T09:42:24.000Z</time>
      </trkpt>
      <trkpt lat="43.76224" lon="7.15302">
        <ele>740.20001220703</ele>
        <time>2021-02-25T09:42:25.000Z</time>
      </trkpt>
      <trkpt lat="43.76226" lon="7.153">
        <ele>740.59997558594</ele>
        <time>2021-02-25T09:42:26.000Z</time>
      </trkpt>
      <trkpt lat="43.76227" lon="7.15299">
        <ele>740.79998779297</ele>
        <time>2021-02-25T09:42:27.000Z</time>
      </trkpt>
      <trkpt lat="43.76231" lon="7.15294">
        <ele>741.79998779297</ele>
        <time>2021-02-25T09:42:30.000Z</time>
      </trkpt>
      <trkpt lat="43.76233" lon="7.15292">
        <ele>742.40002441406</ele>
        <time>2021-02-25T09:42:31.000Z</time>
      </trkpt>
      <trkpt lat="43.76235" lon="7.15289">
        <ele>743.59997558594</ele>
        <time>2021-02-25T09:42:33.000Z</time>
      </trkpt>
      <trkpt lat="43.76235" lon="7.15286">
        <ele>745</ele>
        <time>2021-02-25T09:42:35.000Z</time>
      </trkpt>
      <trkpt lat="43.76236" lon="7.15283">
        <ele>746.59997558594</ele>
        <time>2021-02-25T09:42:37.000Z</time>
      </trkpt>
      <trkpt lat="43.76236" lon="7.15283">
        <ele>747.59997558594</ele>
        <time>2021-02-25T09:42:39.000Z</time>
      </trkpt>
      <trkpt lat="43.76238" lon="7.15281">
        <ele>748.59997558594</ele>
        <time>2021-02-25T09:42:46.000Z</time>
      </trkpt>
      <trkpt lat="43.76237" lon="7.15281">
        <ele>748.59997558594</ele>
        <time>2021-02-25T09:42:47.000Z</time>
      </trkpt>
      <trkpt lat="43.76238" lon="7.15279">
        <ele>749.59997558594</ele>
        <time>2021-02-25T09:42:54.000Z</time>
      </trkpt>
      <trkpt lat="43.76238" lon="7.1528">
        <ele>749.59997558594</ele>
        <time>2021-02-25T09:42:58.000Z</time>
      </trkpt>
      <trkpt lat="43.76239" lon="7.1528">
        <ele>749.59997558594</ele>
        <time>2021-02-25T09:43:00.000Z</time>
      </trkpt>
      <trkpt lat="43.7624" lon="7.15278">
        <ele>749.40002441406</ele>
        <time>2021-02-25T09:43:07.000Z</time>
      </trkpt>
      <trkpt lat="43.76241" lon="7.15276">
        <ele>750.40002441406</ele>
        <time>2021-02-25T09:43:14.000Z</time>
      </trkpt>
      <trkpt lat="43.76242" lon="7.15275">
        <ele>750.59997558594</ele>
        <time>2021-02-25T09:43:31.000Z</time>
      </trkpt>
      <trkpt lat="43.76242" lon="7.15275">
        <ele>750.59997558594</ele>
        <time>2021-02-25T09:43:46.000Z</time>
      </trkpt>
      <trkpt lat="43.76243" lon="7.15275">
        <ele>750.59997558594</ele>
        <time>2021-02-25T09:43:58.000Z</time>
      </trkpt>
      <trkpt lat="43.76245" lon="7.15274">
        <ele>750.59997558594</ele>
        <time>2021-02-25T09:44:12.000Z</time>
      </trkpt>
      <trkpt lat="43.76248" lon="7.1527">
        <ele>751.20001220703</ele>
        <time>2021-02-25T09:44:18.000Z</time>
      </trkpt>
      <trkpt lat="43.76251" lon="7.15268">
        <ele>751.40002441406</ele>
        <time>2021-02-25T09:44:20.000Z</time>
      </trkpt>
      <trkpt lat="43.76252" lon="7.15266">
        <ele>751.59997558594</ele>
        <time>2021-02-25T09:44:21.000Z</time>
      </trkpt>
      <trkpt lat="43.76255" lon="7.15263">
        <ele>752.20001220703</ele>
        <time>2021-02-25T09:44:23.000Z</time>
      </trkpt>
      <trkpt lat="43.76256" lon="7.1526">
        <ele>753</ele>
        <time>2021-02-25T09:44:25.000Z</time>
      </trkpt>
      <trkpt lat="43.76256" lon="7.15256">
        <ele>754.40002441406</ele>
        <time>2021-02-25T09:44:28.000Z</time>
      </trkpt>
      <trkpt lat="43.76256" lon="7.15255">
        <ele>755.59997558594</ele>
        <time>2021-02-25T09:44:31.000Z</time>
      </trkpt>
      <trkpt lat="43.76257" lon="7.15255">
        <ele>755.79998779297</ele>
        <time>2021-02-25T09:44:34.000Z</time>
      </trkpt>
      <trkpt lat="43.76259" lon="7.1525">
        <ele>756</ele>
        <time>2021-02-25T09:44:41.000Z</time>
      </trkpt>
      <trkpt lat="43.76261" lon="7.15246">
        <ele>756.79998779297</ele>
        <time>2021-02-25T09:44:44.000Z</time>
      </trkpt>
      <trkpt lat="43.76264" lon="7.15243">
        <ele>757.20001220703</ele>
        <time>2021-02-25T09:44:46.000Z</time>
      </trkpt>
      <trkpt lat="43.76265" lon="7.15238">
        <ele>758</ele>
        <time>2021-02-25T09:44:48.000Z</time>
      </trkpt>
      <trkpt lat="43.76269" lon="7.15232">
        <ele>758.79998779297</ele>
        <time>2021-02-25T09:44:51.000Z</time>
      </trkpt>
      <trkpt lat="43.7627" lon="7.15229">
        <ele>759.20001220703</ele>
        <time>2021-02-25T09:44:52.000Z</time>
      </trkpt>
      <trkpt lat="43.76274" lon="7.15221">
        <ele>760.40002441406</ele>
        <time>2021-02-25T09:44:55.000Z</time>
      </trkpt>
      <trkpt lat="43.76275" lon="7.15218">
        <ele>761</ele>
        <time>2021-02-25T09:44:56.000Z</time>
      </trkpt>
      <trkpt lat="43.76276" lon="7.15215">
        <ele>761.79998779297</ele>
        <time>2021-02-25T09:44:57.000Z</time>
      </trkpt>
      <trkpt lat="43.76277" lon="7.15209">
        <ele>763.59997558594</ele>
        <time>2021-02-25T09:44:59.000Z</time>
      </trkpt>
      <trkpt lat="43.7628" lon="7.15204">
        <ele>764.79998779297</ele>
        <time>2021-02-25T09:45:01.000Z</time>
      </trkpt>
      <trkpt lat="43.76282" lon="7.15201">
        <ele>766</ele>
        <time>2021-02-25T09:45:03.000Z</time>
      </trkpt>
      <trkpt lat="43.76284" lon="7.15196">
        <ele>767</ele>
        <time>2021-02-25T09:45:05.000Z</time>
      </trkpt>
      <trkpt lat="43.76284" lon="7.15195">
        <ele>767.20001220703</ele>
        <time>2021-02-25T09:45:06.000Z</time>
      </trkpt>
      <trkpt lat="43.76285" lon="7.15194">
        <ele>768.40002441406</ele>
        <time>2021-02-25T09:45:08.000Z</time>
      </trkpt>
      <trkpt lat="43.76285" lon="7.15194">
        <ele>769</ele>
        <time>2021-02-25T09:45:10.000Z</time>
      </trkpt>
      <trkpt lat="43.76285" lon="7.15194">
        <ele>769.40002441406</ele>
        <time>2021-02-25T09:45:11.000Z</time>
      </trkpt>
      <trkpt lat="43.76285" lon="7.15192">
        <ele>770.20001220703</ele>
        <time>2021-02-25T09:45:19.000Z</time>
      </trkpt>
      <trkpt lat="43.76285" lon="7.15192">
        <ele>770.40002441406</ele>
        <time>2021-02-25T09:45:20.000Z</time>
      </trkpt>
      <trkpt lat="43.76285" lon="7.15188">
        <ele>771.20001220703</ele>
        <time>2021-02-25T09:45:27.000Z</time>
      </trkpt>
      <trkpt lat="43.76285" lon="7.15188">
        <ele>771.40002441406</ele>
        <time>2021-02-25T09:45:28.000Z</time>
      </trkpt>
      <trkpt lat="43.76286" lon="7.15186">
        <ele>772.40002441406</ele>
        <time>2021-02-25T09:45:34.000Z</time>
      </trkpt>
      <trkpt lat="43.76286" lon="7.15185">
        <ele>772.40002441406</ele>
        <time>2021-02-25T09:45:35.000Z</time>
      </trkpt>
      <trkpt lat="43.76286" lon="7.15186">
        <ele>772.59997558594</ele>
        <time>2021-02-25T09:45:36.000Z</time>
      </trkpt>
      <trkpt lat="43.76286" lon="7.15186">
        <ele>772.79998779297</ele>
        <time>2021-02-25T09:45:38.000Z</time>
      </trkpt>
      <trkpt lat="43.76286" lon="7.15185">
        <ele>772.79998779297</ele>
        <time>2021-02-25T09:45:44.000Z</time>
      </trkpt>
      <trkpt lat="43.76286" lon="7.15182">
        <ele>772.79998779297</ele>
        <time>2021-02-25T09:45:50.000Z</time>
      </trkpt>
      <trkpt lat="43.76287" lon="7.15181">
        <ele>772.79998779297</ele>
        <time>2021-02-25T09:45:51.000Z</time>
      </trkpt>
      <trkpt lat="43.76286" lon="7.15177">
        <ele>773.20001220703</ele>
        <time>2021-02-25T09:45:54.000Z</time>
      </trkpt>
      <trkpt lat="43.76286" lon="7.15176">
        <ele>773.59997558594</ele>
        <time>2021-02-25T09:45:55.000Z</time>
      </trkpt>
      <trkpt lat="43.76286" lon="7.15176">
        <ele>774</ele>
        <time>2021-02-25T09:45:56.000Z</time>
      </trkpt>
      <trkpt lat="43.76286" lon="7.15175">
        <ele>775</ele>
        <time>2021-02-25T09:45:58.000Z</time>
      </trkpt>
      <trkpt lat="43.76286" lon="7.15175">
        <ele>775.40002441406</ele>
        <time>2021-02-25T09:46:03.000Z</time>
      </trkpt>
      <trkpt lat="43.76288" lon="7.15171">
        <ele>775.79998779297</ele>
        <time>2021-02-25T09:46:09.000Z</time>
      </trkpt>
      <trkpt lat="43.7629" lon="7.15168">
        <ele>776.20001220703</ele>
        <time>2021-02-25T09:46:11.000Z</time>
      </trkpt>
      <trkpt lat="43.7629" lon="7.15166">
        <ele>776.59997558594</ele>
        <time>2021-02-25T09:46:13.000Z</time>
      </trkpt>
      <trkpt lat="43.7629" lon="7.15165">
        <ele>777.40002441406</ele>
        <time>2021-02-25T09:46:15.000Z</time>
      </trkpt>
      <trkpt lat="43.76289" lon="7.15162">
        <ele>778.40002441406</ele>
        <time>2021-02-25T09:46:20.000Z</time>
      </trkpt>
      <trkpt lat="43.76289" lon="7.15161">
        <ele>778.40002441406</ele>
        <time>2021-02-25T09:46:22.000Z</time>
      </trkpt>
      <trkpt lat="43.76288" lon="7.15161">
        <ele>778.59997558594</ele>
        <time>2021-02-25T09:46:25.000Z</time>
      </trkpt>
      <trkpt lat="43.76286" lon="7.15158">
        <ele>779.40002441406</ele>
        <time>2021-02-25T09:46:30.000Z</time>
      </trkpt>
      <trkpt lat="43.76286" lon="7.15156">
        <ele>779.40002441406</ele>
        <time>2021-02-25T09:46:31.000Z</time>
      </trkpt>
      <trkpt lat="43.76283" lon="7.15147">
        <ele>780.20001220703</ele>
        <time>2021-02-25T09:46:35.000Z</time>
      </trkpt>
      <trkpt lat="43.76283" lon="7.15144">
        <ele>780.59997558594</ele>
        <time>2021-02-25T09:46:36.000Z</time>
      </trkpt>
      <trkpt lat="43.76285" lon="7.15141">
        <ele>781.79998779297</ele>
        <time>2021-02-25T09:46:38.000Z</time>
      </trkpt>
      <trkpt lat="43.76286" lon="7.15139">
        <ele>782.20001220703</ele>
        <time>2021-02-25T09:46:39.000Z</time>
      </trkpt>
      <trkpt lat="43.76287" lon="7.15136">
        <ele>782.79998779297</ele>
        <time>2021-02-25T09:46:40.000Z</time>
      </trkpt>
      <trkpt lat="43.76292" lon="7.15129">
        <ele>784.20001220703</ele>
        <time>2021-02-25T09:46:44.000Z</time>
      </trkpt>
      <trkpt lat="43.76294" lon="7.15127">
        <ele>784.59997558594</ele>
        <time>2021-02-25T09:46:45.000Z</time>
      </trkpt>
      <trkpt lat="43.76296" lon="7.15124">
        <ele>785.40002441406</ele>
        <time>2021-02-25T09:46:47.000Z</time>
      </trkpt>
      <trkpt lat="43.76301" lon="7.15118">
        <ele>786.79998779297</ele>
        <time>2021-02-25T09:46:50.000Z</time>
      </trkpt>
      <trkpt lat="43.76306" lon="7.15111">
        <ele>787.79998779297</ele>
        <time>2021-02-25T09:46:53.000Z</time>
      </trkpt>
      <trkpt lat="43.7631" lon="7.15104">
        <ele>789.20001220703</ele>
        <time>2021-02-25T09:46:56.000Z</time>
      </trkpt>
      <trkpt lat="43.76316" lon="7.151">
        <ele>790.59997558594</ele>
        <time>2021-02-25T09:46:59.000Z</time>
      </trkpt>
      <trkpt lat="43.76321" lon="7.15095">
        <ele>791.79998779297</ele>
        <time>2021-02-25T09:47:02.000Z</time>
      </trkpt>
      <trkpt lat="43.76324" lon="7.15091">
        <ele>792.59997558594</ele>
        <time>2021-02-25T09:47:04.000Z</time>
      </trkpt>
      <trkpt lat="43.76326" lon="7.15088">
        <ele>793.20001220703</ele>
        <time>2021-02-25T09:47:05.000Z</time>
      </trkpt>
      <trkpt lat="43.76329" lon="7.15081">
        <ele>794.59997558594</ele>
        <time>2021-02-25T09:47:08.000Z</time>
      </trkpt>
      <trkpt lat="43.76332" lon="7.15075">
        <ele>795.79998779297</ele>
        <time>2021-02-25T09:47:10.000Z</time>
      </trkpt>
      <trkpt lat="43.76334" lon="7.15069">
        <ele>796.20001220703</ele>
        <time>2021-02-25T09:47:12.000Z</time>
      </trkpt>
      <trkpt lat="43.76337" lon="7.15064">
        <ele>796.79998779297</ele>
        <time>2021-02-25T09:47:14.000Z</time>
      </trkpt>
      <trkpt lat="43.7634" lon="7.15059">
        <ele>797.79998779297</ele>
        <time>2021-02-25T09:47:16.000Z</time>
      </trkpt>
      <trkpt lat="43.76344" lon="7.15051">
        <ele>799.40002441406</ele>
        <time>2021-02-25T09:47:19.000Z</time>
      </trkpt>
      <trkpt lat="43.76347" lon="7.15045">
        <ele>800.79998779297</ele>
        <time>2021-02-25T09:47:21.000Z</time>
      </trkpt>
      <trkpt lat="43.76351" lon="7.15037">
        <ele>802.20001220703</ele>
        <time>2021-02-25T09:47:24.000Z</time>
      </trkpt>
      <trkpt lat="43.76352" lon="7.15034">
        <ele>802.79998779297</ele>
        <time>2021-02-25T09:47:25.000Z</time>
      </trkpt>
      <trkpt lat="43.76353" lon="7.15031">
        <ele>803.40002441406</ele>
        <time>2021-02-25T09:47:26.000Z</time>
      </trkpt>
      <trkpt lat="43.76358" lon="7.15024">
        <ele>804.59997558594</ele>
        <time>2021-02-25T09:47:29.000Z</time>
      </trkpt>
      <trkpt lat="43.7636" lon="7.15022">
        <ele>804.79998779297</ele>
        <time>2021-02-25T09:47:30.000Z</time>
      </trkpt>
      <trkpt lat="43.76366" lon="7.15013">
        <ele>806</ele>
        <time>2021-02-25T09:47:34.000Z</time>
      </trkpt>
      <trkpt lat="43.76369" lon="7.15003">
        <ele>807.40002441406</ele>
        <time>2021-02-25T09:47:37.000Z</time>
      </trkpt>
      <trkpt lat="43.7637" lon="7.14997">
        <ele>808.59997558594</ele>
        <time>2021-02-25T09:47:39.000Z</time>
      </trkpt>
      <trkpt lat="43.76374" lon="7.14989">
        <ele>809.79998779297</ele>
        <time>2021-02-25T09:47:42.000Z</time>
      </trkpt>
      <trkpt lat="43.76375" lon="7.14986">
        <ele>810.20001220703</ele>
        <time>2021-02-25T09:47:43.000Z</time>
      </trkpt>
      <trkpt lat="43.76378" lon="7.14981">
        <ele>811</ele>
        <time>2021-02-25T09:47:45.000Z</time>
      </trkpt>
      <trkpt lat="43.76382" lon="7.14971">
        <ele>812.20001220703</ele>
        <time>2021-02-25T09:47:49.000Z</time>
      </trkpt>
      <trkpt lat="43.76383" lon="7.14959">
        <ele>813.20001220703</ele>
        <time>2021-02-25T09:47:53.000Z</time>
      </trkpt>
      <trkpt lat="43.76384" lon="7.14952">
        <ele>814.59997558594</ele>
        <time>2021-02-25T09:47:56.000Z</time>
      </trkpt>
      <trkpt lat="43.76389" lon="7.14945">
        <ele>815.79998779297</ele>
        <time>2021-02-25T09:48:00.000Z</time>
      </trkpt>
      <trkpt lat="43.76392" lon="7.1494">
        <ele>816.20001220703</ele>
        <time>2021-02-25T09:48:03.000Z</time>
      </trkpt>
      <trkpt lat="43.76395" lon="7.14933">
        <ele>816.59997558594</ele>
        <time>2021-02-25T09:48:09.000Z</time>
      </trkpt>
      <trkpt lat="43.76396" lon="7.14932">
        <ele>816.59997558594</ele>
        <time>2021-02-25T09:48:10.000Z</time>
      </trkpt>
      <trkpt lat="43.76397" lon="7.14932">
        <ele>816.79998779297</ele>
        <time>2021-02-25T09:48:12.000Z</time>
      </trkpt>
      <trkpt lat="43.76397" lon="7.14932">
        <ele>816.79998779297</ele>
        <time>2021-02-25T09:48:13.000Z</time>
      </trkpt>
      <trkpt lat="43.76397" lon="7.14931">
        <ele>817.20001220703</ele>
        <time>2021-02-25T09:48:19.000Z</time>
      </trkpt>
      <trkpt lat="43.76397" lon="7.14931">
        <ele>817</ele>
        <time>2021-02-25T09:48:28.000Z</time>
      </trkpt>
      <trkpt lat="43.76397" lon="7.14929">
        <ele>816.40002441406</ele>
        <time>2021-02-25T09:48:34.000Z</time>
      </trkpt>
      <trkpt lat="43.76397" lon="7.1493">
        <ele>817</ele>
        <time>2021-02-25T09:48:40.000Z</time>
      </trkpt>
      <trkpt lat="43.76396" lon="7.14931">
        <ele>816.79998779297</ele>
        <time>2021-02-25T09:48:44.000Z</time>
      </trkpt>
      <trkpt lat="43.76396" lon="7.14931">
        <ele>817</ele>
        <time>2021-02-25T09:48:52.000Z</time>
      </trkpt>
      <trkpt lat="43.76396" lon="7.14931">
        <ele>817.20001220703</ele>
        <time>2021-02-25T09:49:03.000Z</time>
      </trkpt>
      <trkpt lat="43.76396" lon="7.14931">
        <ele>817</ele>
        <time>2021-02-25T09:49:18.000Z</time>
      </trkpt>
      <trkpt lat="43.76395" lon="7.14932">
        <ele>816.79998779297</ele>
        <time>2021-02-25T09:49:38.000Z</time>
      </trkpt>
      <trkpt lat="43.76394" lon="7.14932">
        <ele>816.79998779297</ele>
        <time>2021-02-25T09:49:54.000Z</time>
      </trkpt>
      <trkpt lat="43.76394" lon="7.14931">
        <ele>816.79998779297</ele>
        <time>2021-02-25T09:50:13.000Z</time>
      </trkpt>
      <trkpt lat="43.76394" lon="7.14932">
        <ele>816.79998779297</ele>
        <time>2021-02-25T09:50:19.000Z</time>
      </trkpt>
      <trkpt lat="43.76395" lon="7.14932">
        <ele>816.59997558594</ele>
        <time>2021-02-25T09:50:45.000Z</time>
      </trkpt>
      <trkpt lat="43.76395" lon="7.14932">
        <ele>816.79998779297</ele>
        <time>2021-02-25T09:51:11.000Z</time>
      </trkpt>
      <trkpt lat="43.76395" lon="7.14932">
        <ele>816.59997558594</ele>
        <time>2021-02-25T09:51:32.000Z</time>
      </trkpt>
      <trkpt lat="43.76395" lon="7.14932">
        <ele>816.59997558594</ele>
        <time>2021-02-25T09:51:46.000Z</time>
      </trkpt>
      <trkpt lat="43.76395" lon="7.14932">
        <ele>816.79998779297</ele>
        <time>2021-02-25T09:52:08.000Z</time>
      </trkpt>
      <trkpt lat="43.76394" lon="7.14932">
        <ele>816.59997558594</ele>
        <time>2021-02-25T09:52:29.000Z</time>
      </trkpt>
      <trkpt lat="43.76394" lon="7.14932">
        <ele>816.59997558594</ele>
        <time>2021-02-25T09:52:44.000Z</time>
      </trkpt>
      <trkpt lat="43.76395" lon="7.14931">
        <ele>816.79998779297</ele>
        <time>2021-02-25T09:52:59.000Z</time>
      </trkpt>
      <trkpt lat="43.76394" lon="7.14931">
        <ele>817</ele>
        <time>2021-02-25T09:53:06.000Z</time>
      </trkpt>
      <trkpt lat="43.76394" lon="7.14931">
        <ele>817</ele>
        <time>2021-02-25T09:53:23.000Z</time>
      </trkpt>
      <trkpt lat="43.76394" lon="7.14931">
        <ele>817</ele>
        <time>2021-02-25T09:53:34.000Z</time>
      </trkpt>
      <trkpt lat="43.76394" lon="7.1493">
        <ele>816.79998779297</ele>
        <time>2021-02-25T09:53:47.000Z</time>
      </trkpt>
      <trkpt lat="43.76394" lon="7.14931">
        <ele>817</ele>
        <time>2021-02-25T09:53:57.000Z</time>
      </trkpt>
      <trkpt lat="43.76394" lon="7.1493">
        <ele>817</ele>
        <time>2021-02-25T09:54:13.000Z</time>
      </trkpt>
      <trkpt lat="43.76394" lon="7.14931">
        <ele>816.79998779297</ele>
        <time>2021-02-25T09:54:21.000Z</time>
      </trkpt>
      <trkpt lat="43.76395" lon="7.1493">
        <ele>817</ele>
        <time>2021-02-25T09:54:32.000Z</time>
      </trkpt>
      <trkpt lat="43.76395" lon="7.1493">
        <ele>816.79998779297</ele>
        <time>2021-02-25T09:54:40.000Z</time>
      </trkpt>
      <trkpt lat="43.76395" lon="7.14931">
        <ele>816.79998779297</ele>
        <time>2021-02-25T09:54:47.000Z</time>
      </trkpt>
      <trkpt lat="43.76397" lon="7.14928">
        <ele>816.40002441406</ele>
        <time>2021-02-25T09:55:03.000Z</time>
      </trkpt>
      <trkpt lat="43.76397" lon="7.14928">
        <ele>816.40002441406</ele>
        <time>2021-02-25T09:55:08.000Z</time>
      </trkpt>
      <trkpt lat="43.76398" lon="7.14928">
        <ele>816.40002441406</ele>
        <time>2021-02-25T09:55:14.000Z</time>
      </trkpt>
      <trkpt lat="43.76397" lon="7.14928">
        <ele>817</ele>
        <time>2021-02-25T09:55:29.000Z</time>
      </trkpt>
      <trkpt lat="43.76397" lon="7.14928">
        <ele>817</ele>
        <time>2021-02-25T09:55:54.000Z</time>
      </trkpt>
      <trkpt lat="43.76398" lon="7.14928">
        <ele>817.20001220703</ele>
        <time>2021-02-25T09:56:07.000Z</time>
      </trkpt>
      <trkpt lat="43.76399" lon="7.1493">
        <ele>817</ele>
        <time>2021-02-25T09:56:13.000Z</time>
      </trkpt>
      <trkpt lat="43.76401" lon="7.1493">
        <ele>817</ele>
        <time>2021-02-25T09:56:15.000Z</time>
      </trkpt>
      <trkpt lat="43.7641" lon="7.1493">
        <ele>817.20001220703</ele>
        <time>2021-02-25T09:56:21.000Z</time>
      </trkpt>
      <trkpt lat="43.76414" lon="7.1493">
        <ele>817.20001220703</ele>
        <time>2021-02-25T09:56:23.000Z</time>
      </trkpt>
      <trkpt lat="43.76421" lon="7.1493">
        <ele>817.59997558594</ele>
        <time>2021-02-25T09:56:26.000Z</time>
      </trkpt>
      <trkpt lat="43.76426" lon="7.14932">
        <ele>817.79998779297</ele>
        <time>2021-02-25T09:56:29.000Z</time>
      </trkpt>
      <trkpt lat="43.7643" lon="7.14932">
        <ele>818.20001220703</ele>
        <time>2021-02-25T09:56:31.000Z</time>
      </trkpt>
      <trkpt lat="43.7644" lon="7.14934">
        <ele>819</ele>
        <time>2021-02-25T09:56:36.000Z</time>
      </trkpt>
      <trkpt lat="43.76443" lon="7.14936">
        <ele>819.59997558594</ele>
        <time>2021-02-25T09:56:38.000Z</time>
      </trkpt>
      <trkpt lat="43.76447" lon="7.14939">
        <ele>820.20001220703</ele>
        <time>2021-02-25T09:56:40.000Z</time>
      </trkpt>
      <trkpt lat="43.76454" lon="7.14946">
        <ele>820.59997558594</ele>
        <time>2021-02-25T09:56:44.000Z</time>
      </trkpt>
      <trkpt lat="43.76465" lon="7.14945">
        <ele>821.40002441406</ele>
        <time>2021-02-25T09:56:49.000Z</time>
      </trkpt>
      <trkpt lat="43.76472" lon="7.14946">
        <ele>822.59997558594</ele>
        <time>2021-02-25T09:56:53.000Z</time>
      </trkpt>
      <trkpt lat="43.76476" lon="7.14947">
        <ele>823.40002441406</ele>
        <time>2021-02-25T09:56:55.000Z</time>
      </trkpt>
      <trkpt lat="43.76478" lon="7.14949">
        <ele>824</ele>
        <time>2021-02-25T09:56:56.000Z</time>
      </trkpt>
      <trkpt lat="43.7648" lon="7.14949">
        <ele>824.40002441406</ele>
        <time>2021-02-25T09:56:57.000Z</time>
      </trkpt>
      <trkpt lat="43.76484" lon="7.14948">
        <ele>825</ele>
        <time>2021-02-25T09:56:59.000Z</time>
      </trkpt>
      <trkpt lat="43.76486" lon="7.14948">
        <ele>825.40002441406</ele>
        <time>2021-02-25T09:57:00.000Z</time>
      </trkpt>
      <trkpt lat="43.76491" lon="7.14951">
        <ele>826.40002441406</ele>
        <time>2021-02-25T09:57:03.000Z</time>
      </trkpt>
      <trkpt lat="43.76495" lon="7.14953">
        <ele>827</ele>
        <time>2021-02-25T09:57:05.000Z</time>
      </trkpt>
      <trkpt lat="43.76498" lon="7.14955">
        <ele>827.40002441406</ele>
        <time>2021-02-25T09:57:07.000Z</time>
      </trkpt>
      <trkpt lat="43.76504" lon="7.14957">
        <ele>828.79998779297</ele>
        <time>2021-02-25T09:57:11.000Z</time>
      </trkpt>
      <trkpt lat="43.76507" lon="7.14957">
        <ele>830</ele>
        <time>2021-02-25T09:57:13.000Z</time>
      </trkpt>
      <trkpt lat="43.76512" lon="7.14955">
        <ele>831.20001220703</ele>
        <time>2021-02-25T09:57:16.000Z</time>
      </trkpt>
      <trkpt lat="43.76518" lon="7.14955">
        <ele>832.40002441406</ele>
        <time>2021-02-25T09:57:19.000Z</time>
      </trkpt>
      <trkpt lat="43.76525" lon="7.14955">
        <ele>833.59997558594</ele>
        <time>2021-02-25T09:57:23.000Z</time>
      </trkpt>
      <trkpt lat="43.76532" lon="7.14954">
        <ele>834.59997558594</ele>
        <time>2021-02-25T09:57:27.000Z</time>
      </trkpt>
      <trkpt lat="43.76534" lon="7.14954">
        <ele>835</ele>
        <time>2021-02-25T09:57:28.000Z</time>
      </trkpt>
      <trkpt lat="43.76537" lon="7.14953">
        <ele>836.40002441406</ele>
        <time>2021-02-25T09:57:30.000Z</time>
      </trkpt>
      <trkpt lat="43.76541" lon="7.14952">
        <ele>837.59997558594</ele>
        <time>2021-02-25T09:57:32.000Z</time>
      </trkpt>
      <trkpt lat="43.76543" lon="7.14951">
        <ele>838.59997558594</ele>
        <time>2021-02-25T09:57:34.000Z</time>
      </trkpt>
      <trkpt lat="43.76544" lon="7.1495">
        <ele>838.79998779297</ele>
        <time>2021-02-25T09:57:35.000Z</time>
      </trkpt>
      <trkpt lat="43.76551" lon="7.14948">
        <ele>839.79998779297</ele>
        <time>2021-02-25T09:57:39.000Z</time>
      </trkpt>
      <trkpt lat="43.7656" lon="7.14948">
        <ele>840.79998779297</ele>
        <time>2021-02-25T09:57:44.000Z</time>
      </trkpt>
      <trkpt lat="43.76561" lon="7.14947">
        <ele>841.20001220703</ele>
        <time>2021-02-25T09:57:45.000Z</time>
      </trkpt>
      <trkpt lat="43.76566" lon="7.14946">
        <ele>842.79998779297</ele>
        <time>2021-02-25T09:57:48.000Z</time>
      </trkpt>
      <trkpt lat="43.76569" lon="7.14945">
        <ele>843.79998779297</ele>
        <time>2021-02-25T09:57:50.000Z</time>
      </trkpt>
      <trkpt lat="43.76575" lon="7.14942">
        <ele>845</ele>
        <time>2021-02-25T09:57:53.000Z</time>
      </trkpt>
      <trkpt lat="43.76577" lon="7.14942">
        <ele>845.40002441406</ele>
        <time>2021-02-25T09:57:54.000Z</time>
      </trkpt>
      <trkpt lat="43.76582" lon="7.14942">
        <ele>846.20001220703</ele>
        <time>2021-02-25T09:57:57.000Z</time>
      </trkpt>
      <trkpt lat="43.76589" lon="7.14941">
        <ele>847.59997558594</ele>
        <time>2021-02-25T09:58:01.000Z</time>
      </trkpt>
      <trkpt lat="43.76593" lon="7.14941">
        <ele>848.59997558594</ele>
        <time>2021-02-25T09:58:04.000Z</time>
      </trkpt>
      <trkpt lat="43.76597" lon="7.1494">
        <ele>849.59997558594</ele>
        <time>2021-02-25T09:58:06.000Z</time>
      </trkpt>
      <trkpt lat="43.76599" lon="7.1494">
        <ele>850</ele>
        <time>2021-02-25T09:58:07.000Z</time>
      </trkpt>
      <trkpt lat="43.76603" lon="7.14941">
        <ele>850.59997558594</ele>
        <time>2021-02-25T09:58:09.000Z</time>
      </trkpt>
      <trkpt lat="43.76611" lon="7.14943">
        <ele>851.59997558594</ele>
        <time>2021-02-25T09:58:13.000Z</time>
      </trkpt>
      <trkpt lat="43.76612" lon="7.14944">
        <ele>851.79998779297</ele>
        <time>2021-02-25T09:58:14.000Z</time>
      </trkpt>
      <trkpt lat="43.7662" lon="7.14945">
        <ele>852.20001220703</ele>
        <time>2021-02-25T09:58:18.000Z</time>
      </trkpt>
      <trkpt lat="43.76626" lon="7.14944">
        <ele>852.59997558594</ele>
        <time>2021-02-25T09:58:21.000Z</time>
      </trkpt>
      <trkpt lat="43.76627" lon="7.14947">
        <ele>852.79998779297</ele>
        <time>2021-02-25T09:58:22.000Z</time>
      </trkpt>
      <trkpt lat="43.76628" lon="7.14949">
        <ele>853.20001220703</ele>
        <time>2021-02-25T09:58:23.000Z</time>
      </trkpt>
      <trkpt lat="43.76633" lon="7.14949">
        <ele>854.20001220703</ele>
        <time>2021-02-25T09:58:26.000Z</time>
      </trkpt>
      <trkpt lat="43.76635" lon="7.14948">
        <ele>854.59997558594</ele>
        <time>2021-02-25T09:58:27.000Z</time>
      </trkpt>
      <trkpt lat="43.76636" lon="7.14947">
        <ele>854.79998779297</ele>
        <time>2021-02-25T09:58:28.000Z</time>
      </trkpt>
      <trkpt lat="43.76646" lon="7.14945">
        <ele>855.20001220703</ele>
        <time>2021-02-25T09:58:33.000Z</time>
      </trkpt>
      <trkpt lat="43.76658" lon="7.14948">
        <ele>855.79998779297</ele>
        <time>2021-02-25T09:58:39.000Z</time>
      </trkpt>
      <trkpt lat="43.76661" lon="7.14949">
        <ele>856.40002441406</ele>
        <time>2021-02-25T09:58:41.000Z</time>
      </trkpt>
      <trkpt lat="43.76666" lon="7.14949">
        <ele>858</ele>
        <time>2021-02-25T09:58:44.000Z</time>
      </trkpt>
      <trkpt lat="43.76667" lon="7.14949">
        <ele>858.20001220703</ele>
        <time>2021-02-25T09:58:45.000Z</time>
      </trkpt>
      <trkpt lat="43.76674" lon="7.14947">
        <ele>859</ele>
        <time>2021-02-25T09:58:49.000Z</time>
      </trkpt>
      <trkpt lat="43.76684" lon="7.14947">
        <ele>859.40002441406</ele>
        <time>2021-02-25T09:58:54.000Z</time>
      </trkpt>
      <trkpt lat="43.76692" lon="7.14948">
        <ele>860</ele>
        <time>2021-02-25T09:58:58.000Z</time>
      </trkpt>
      <trkpt lat="43.76695" lon="7.14948">
        <ele>860.79998779297</ele>
        <time>2021-02-25T09:59:00.000Z</time>
      </trkpt>
      <trkpt lat="43.76697" lon="7.14948">
        <ele>861</ele>
        <time>2021-02-25T09:59:01.000Z</time>
      </trkpt>
      <trkpt lat="43.76711" lon="7.14947">
        <ele>862</ele>
        <time>2021-02-25T09:59:08.000Z</time>
      </trkpt>
      <trkpt lat="43.76713" lon="7.14948">
        <ele>862.20001220703</ele>
        <time>2021-02-25T09:59:09.000Z</time>
      </trkpt>
      <trkpt lat="43.76719" lon="7.14949">
        <ele>862.59997558594</ele>
        <time>2021-02-25T09:59:13.000Z</time>
      </trkpt>
      <trkpt lat="43.76723" lon="7.14956">
        <ele>862.40002441406</ele>
        <time>2021-02-25T09:59:18.000Z</time>
      </trkpt>
      <trkpt lat="43.76724" lon="7.14957">
        <ele>862.40002441406</ele>
        <time>2021-02-25T09:59:19.000Z</time>
      </trkpt>
      <trkpt lat="43.76732" lon="7.14967">
        <ele>862.20001220703</ele>
        <time>2021-02-25T09:59:24.000Z</time>
      </trkpt>
      <trkpt lat="43.76738" lon="7.14984">
        <ele>861.59997558594</ele>
        <time>2021-02-25T09:59:29.000Z</time>
      </trkpt>
      <trkpt lat="43.76745" lon="7.15001">
        <ele>861.40002441406</ele>
        <time>2021-02-25T09:59:34.000Z</time>
      </trkpt>
      <trkpt lat="43.76748" lon="7.15002">
        <ele>861.40002441406</ele>
        <time>2021-02-25T09:59:35.000Z</time>
      </trkpt>
      <trkpt lat="43.76751" lon="7.15005">
        <ele>861.20001220703</ele>
        <time>2021-02-25T09:59:36.000Z</time>
      </trkpt>
      <trkpt lat="43.76755" lon="7.15011">
        <ele>861</ele>
        <time>2021-02-25T09:59:38.000Z</time>
      </trkpt>
      <trkpt lat="43.76759" lon="7.15017">
        <ele>860.79998779297</ele>
        <time>2021-02-25T09:59:40.000Z</time>
      </trkpt>
      <trkpt lat="43.76771" lon="7.15021">
        <ele>861.20001220703</ele>
        <time>2021-02-25T09:59:44.000Z</time>
      </trkpt>
      <trkpt lat="43.76788" lon="7.15024">
        <ele>861.79998779297</ele>
        <time>2021-02-25T09:59:50.000Z</time>
      </trkpt>
      <trkpt lat="43.76802" lon="7.15027">
        <ele>862.20001220703</ele>
        <time>2021-02-25T09:59:55.000Z</time>
      </trkpt>
      <trkpt lat="43.76805" lon="7.15029">
        <ele>862</ele>
        <time>2021-02-25T09:59:56.000Z</time>
      </trkpt>
      <trkpt lat="43.76821" lon="7.15033">
        <ele>863.20001220703</ele>
        <time>2021-02-25T10:00:03.000Z</time>
      </trkpt>
      <trkpt lat="43.76824" lon="7.15033">
        <ele>863.40002441406</ele>
        <time>2021-02-25T10:00:04.000Z</time>
      </trkpt>
      <trkpt lat="43.76831" lon="7.15039">
        <ele>864.59997558594</ele>
        <time>2021-02-25T10:00:08.000Z</time>
      </trkpt>
      <trkpt lat="43.76835" lon="7.15045">
        <ele>866.20001220703</ele>
        <time>2021-02-25T10:00:11.000Z</time>
      </trkpt>
      <trkpt lat="43.76838" lon="7.15049">
        <ele>867.20001220703</ele>
        <time>2021-02-25T10:00:13.000Z</time>
      </trkpt>
      <trkpt lat="43.76842" lon="7.15055">
        <ele>868.40002441406</ele>
        <time>2021-02-25T10:00:16.000Z</time>
      </trkpt>
      <trkpt lat="43.76852" lon="7.15061">
        <ele>869.20001220703</ele>
        <time>2021-02-25T10:00:21.000Z</time>
      </trkpt>
      <trkpt lat="43.76859" lon="7.15067">
        <ele>869.40002441406</ele>
        <time>2021-02-25T10:00:25.000Z</time>
      </trkpt>
      <trkpt lat="43.76862" lon="7.15069">
        <ele>869.59997558594</ele>
        <time>2021-02-25T10:00:27.000Z</time>
      </trkpt>
      <trkpt lat="43.76866" lon="7.15069">
        <ele>870.20001220703</ele>
        <time>2021-02-25T10:00:29.000Z</time>
      </trkpt>
      <trkpt lat="43.7687" lon="7.15068">
        <ele>870.59997558594</ele>
        <time>2021-02-25T10:00:31.000Z</time>
      </trkpt>
      <trkpt lat="43.76873" lon="7.15068">
        <ele>870.59997558594</ele>
        <time>2021-02-25T10:00:32.000Z</time>
      </trkpt>
      <trkpt lat="43.7688" lon="7.1507">
        <ele>871</ele>
        <time>2021-02-25T10:00:35.000Z</time>
      </trkpt>
      <trkpt lat="43.76883" lon="7.15071">
        <ele>871.40002441406</ele>
        <time>2021-02-25T10:00:39.000Z</time>
      </trkpt>
      <trkpt lat="43.76888" lon="7.15071">
        <ele>871.59997558594</ele>
        <time>2021-02-25T10:00:41.000Z</time>
      </trkpt>
      <trkpt lat="43.769" lon="7.15069">
        <ele>872.59997558594</ele>
        <time>2021-02-25T10:00:45.000Z</time>
      </trkpt>
      <trkpt lat="43.76903" lon="7.15067">
        <ele>873.40002441406</ele>
        <time>2021-02-25T10:00:47.000Z</time>
      </trkpt>
      <trkpt lat="43.76906" lon="7.15065">
        <ele>873.79998779297</ele>
        <time>2021-02-25T10:00:48.000Z</time>
      </trkpt>
      <trkpt lat="43.76922" lon="7.15052">
        <ele>874.40002441406</ele>
        <time>2021-02-25T10:00:56.000Z</time>
      </trkpt>
      <trkpt lat="43.76932" lon="7.15045">
        <ele>874.79998779297</ele>
        <time>2021-02-25T10:01:01.000Z</time>
      </trkpt>
      <trkpt lat="43.76942" lon="7.15039">
        <ele>875.20001220703</ele>
        <time>2021-02-25T10:01:04.000Z</time>
      </trkpt>
      <trkpt lat="43.76947" lon="7.15037">
        <ele>875</ele>
        <time>2021-02-25T10:01:05.000Z</time>
      </trkpt>
      <trkpt lat="43.76964" lon="7.15031">
        <ele>873.59997558594</ele>
        <time>2021-02-25T10:01:08.000Z</time>
      </trkpt>
      <trkpt lat="43.76975" lon="7.15027">
        <ele>872.59997558594</ele>
        <time>2021-02-25T10:01:10.000Z</time>
      </trkpt>
      <trkpt lat="43.76994" lon="7.15019">
        <ele>872</ele>
        <time>2021-02-25T10:01:14.000Z</time>
      </trkpt>
      <trkpt lat="43.77003" lon="7.15017">
        <ele>872</ele>
        <time>2021-02-25T10:01:16.000Z</time>
      </trkpt>
      <trkpt lat="43.77017" lon="7.1502">
        <ele>872.20001220703</ele>
        <time>2021-02-25T10:01:19.000Z</time>
      </trkpt>
      <trkpt lat="43.77023" lon="7.15024">
        <ele>872.59997558594</ele>
        <time>2021-02-25T10:01:21.000Z</time>
      </trkpt>
      <trkpt lat="43.77027" lon="7.15026">
        <ele>873.40002441406</ele>
        <time>2021-02-25T10:01:23.000Z</time>
      </trkpt>
      <trkpt lat="43.77031" lon="7.15029">
        <ele>873.79998779297</ele>
        <time>2021-02-25T10:01:24.000Z</time>
      </trkpt>
      <trkpt lat="43.77036" lon="7.15033">
        <ele>875.20001220703</ele>
        <time>2021-02-25T10:01:26.000Z</time>
      </trkpt>
      <trkpt lat="43.77043" lon="7.15038">
        <ele>876.20001220703</ele>
        <time>2021-02-25T10:01:29.000Z</time>
      </trkpt>
      <trkpt lat="43.77054" lon="7.15055">
        <ele>877.20001220703</ele>
        <time>2021-02-25T10:01:35.000Z</time>
      </trkpt>
      <trkpt lat="43.77055" lon="7.15057">
        <ele>877.59997558594</ele>
        <time>2021-02-25T10:01:36.000Z</time>
      </trkpt>
      <trkpt lat="43.7706" lon="7.15071">
        <ele>878.79998779297</ele>
        <time>2021-02-25T10:01:40.000Z</time>
      </trkpt>
      <trkpt lat="43.77063" lon="7.15077">
        <ele>879.59997558594</ele>
        <time>2021-02-25T10:01:42.000Z</time>
      </trkpt>
      <trkpt lat="43.77064" lon="7.1508">
        <ele>880.20001220703</ele>
        <time>2021-02-25T10:01:43.000Z</time>
      </trkpt>
      <trkpt lat="43.77073" lon="7.15089">
        <ele>881.20001220703</ele>
        <time>2021-02-25T10:01:47.000Z</time>
      </trkpt>
      <trkpt lat="43.77087" lon="7.15107">
        <ele>881.59997558594</ele>
        <time>2021-02-25T10:01:53.000Z</time>
      </trkpt>
      <trkpt lat="43.771" lon="7.15129">
        <ele>881</ele>
        <time>2021-02-25T10:01:59.000Z</time>
      </trkpt>
      <trkpt lat="43.77113" lon="7.15154">
        <ele>881.59997558594</ele>
        <time>2021-02-25T10:02:06.000Z</time>
      </trkpt>
      <trkpt lat="43.77118" lon="7.15167">
        <ele>882.40002441406</ele>
        <time>2021-02-25T10:02:09.000Z</time>
      </trkpt>
      <trkpt lat="43.77124" lon="7.15184">
        <ele>883.20001220703</ele>
        <time>2021-02-25T10:02:13.000Z</time>
      </trkpt>
      <trkpt lat="43.77128" lon="7.15191">
        <ele>883.59997558594</ele>
        <time>2021-02-25T10:02:15.000Z</time>
      </trkpt>
      <trkpt lat="43.77134" lon="7.15203">
        <ele>884.20001220703</ele>
        <time>2021-02-25T10:02:19.000Z</time>
      </trkpt>
      <trkpt lat="43.7714" lon="7.15212">
        <ele>884.79998779297</ele>
        <time>2021-02-25T10:02:22.000Z</time>
      </trkpt>
      <trkpt lat="43.77146" lon="7.15225">
        <ele>885.40002441406</ele>
        <time>2021-02-25T10:02:25.000Z</time>
      </trkpt>
      <trkpt lat="43.77162" lon="7.15252">
        <ele>884.79998779297</ele>
        <time>2021-02-25T10:02:31.000Z</time>
      </trkpt>
      <trkpt lat="43.77177" lon="7.15266">
        <ele>884</ele>
        <time>2021-02-25T10:02:34.000Z</time>
      </trkpt>
      <trkpt lat="43.77182" lon="7.15272">
        <ele>883.79998779297</ele>
        <time>2021-02-25T10:02:35.000Z</time>
      </trkpt>
      <trkpt lat="43.77186" lon="7.15278">
        <ele>883.20001220703</ele>
        <time>2021-02-25T10:02:36.000Z</time>
      </trkpt>
      <trkpt lat="43.7719" lon="7.15285">
        <ele>882.40002441406</ele>
        <time>2021-02-25T10:02:37.000Z</time>
      </trkpt>
      <trkpt lat="43.77195" lon="7.1529">
        <ele>881.40002441406</ele>
        <time>2021-02-25T10:02:38.000Z</time>
      </trkpt>
      <trkpt lat="43.772" lon="7.15291">
        <ele>880.59997558594</ele>
        <time>2021-02-25T10:02:39.000Z</time>
      </trkpt>
      <trkpt lat="43.77207" lon="7.1529">
        <ele>880</ele>
        <time>2021-02-25T10:02:40.000Z</time>
      </trkpt>
      <trkpt lat="43.77219" lon="7.15289">
        <ele>879.40002441406</ele>
        <time>2021-02-25T10:02:42.000Z</time>
      </trkpt>
      <trkpt lat="43.7723" lon="7.15286">
        <ele>879</ele>
        <time>2021-02-25T10:02:44.000Z</time>
      </trkpt>
      <trkpt lat="43.77235" lon="7.15283">
        <ele>878.59997558594</ele>
        <time>2021-02-25T10:02:45.000Z</time>
      </trkpt>
      <trkpt lat="43.7724" lon="7.15281">
        <ele>878.59997558594</ele>
        <time>2021-02-25T10:02:46.000Z</time>
      </trkpt>
      <trkpt lat="43.77243" lon="7.15276">
        <ele>878.59997558594</ele>
        <time>2021-02-25T10:02:47.000Z</time>
      </trkpt>
      <trkpt lat="43.77252" lon="7.15265">
        <ele>879</ele>
        <time>2021-02-25T10:02:49.000Z</time>
      </trkpt>
      <trkpt lat="43.77269" lon="7.15258">
        <ele>879.40002441406</ele>
        <time>2021-02-25T10:02:52.000Z</time>
      </trkpt>
      <trkpt lat="43.77288" lon="7.15254">
        <ele>878</ele>
        <time>2021-02-25T10:02:56.000Z</time>
      </trkpt>
      <trkpt lat="43.77292" lon="7.15254">
        <ele>878</ele>
        <time>2021-02-25T10:02:57.000Z</time>
      </trkpt>
      <trkpt lat="43.77296" lon="7.15254">
        <ele>878.20001220703</ele>
        <time>2021-02-25T10:02:58.000Z</time>
      </trkpt>
      <trkpt lat="43.77309" lon="7.15253">
        <ele>878.40002441406</ele>
        <time>2021-02-25T10:03:01.000Z</time>
      </trkpt>
      <trkpt lat="43.77316" lon="7.15258">
        <ele>878.40002441406</ele>
        <time>2021-02-25T10:03:03.000Z</time>
      </trkpt>
      <trkpt lat="43.77323" lon="7.15262">
        <ele>878.40002441406</ele>
        <time>2021-02-25T10:03:05.000Z</time>
      </trkpt>
      <trkpt lat="43.77342" lon="7.15275">
        <ele>879.59997558594</ele>
        <time>2021-02-25T10:03:11.000Z</time>
      </trkpt>
      <trkpt lat="43.77346" lon="7.15276">
        <ele>879.79998779297</ele>
        <time>2021-02-25T10:03:12.000Z</time>
      </trkpt>
      <trkpt lat="43.77366" lon="7.15285">
        <ele>880.20001220703</ele>
        <time>2021-02-25T10:03:16.000Z</time>
      </trkpt>
      <trkpt lat="43.77393" lon="7.15297">
        <ele>878.40002441406</ele>
        <time>2021-02-25T10:03:20.000Z</time>
      </trkpt>
      <trkpt lat="43.77399" lon="7.15301">
        <ele>877.40002441406</ele>
        <time>2021-02-25T10:03:21.000Z</time>
      </trkpt>
      <trkpt lat="43.77404" lon="7.15306">
        <ele>876.59997558594</ele>
        <time>2021-02-25T10:03:22.000Z</time>
      </trkpt>
      <trkpt lat="43.77408" lon="7.15311">
        <ele>875.20001220703</ele>
        <time>2021-02-25T10:03:23.000Z</time>
      </trkpt>
      <trkpt lat="43.77419" lon="7.15314">
        <ele>873.40002441406</ele>
        <time>2021-02-25T10:03:25.000Z</time>
      </trkpt>
      <trkpt lat="43.77425" lon="7.15316">
        <ele>872.79998779297</ele>
        <time>2021-02-25T10:03:26.000Z</time>
      </trkpt>
      <trkpt lat="43.77429" lon="7.15319">
        <ele>872.59997558594</ele>
        <time>2021-02-25T10:03:27.000Z</time>
      </trkpt>
      <trkpt lat="43.77434" lon="7.15324">
        <ele>872.40002441406</ele>
        <time>2021-02-25T10:03:28.000Z</time>
      </trkpt>
      <trkpt lat="43.77438" lon="7.15329">
        <ele>872.40002441406</ele>
        <time>2021-02-25T10:03:29.000Z</time>
      </trkpt>
      <trkpt lat="43.77441" lon="7.15332">
        <ele>872.20001220703</ele>
        <time>2021-02-25T10:03:30.000Z</time>
      </trkpt>
      <trkpt lat="43.77454" lon="7.15338">
        <ele>872.20001220703</ele>
        <time>2021-02-25T10:03:32.000Z</time>
      </trkpt>
      <trkpt lat="43.77461" lon="7.15341">
        <ele>872</ele>
        <time>2021-02-25T10:03:33.000Z</time>
      </trkpt>
      <trkpt lat="43.77473" lon="7.15351">
        <ele>871.20001220703</ele>
        <time>2021-02-25T10:03:35.000Z</time>
      </trkpt>
      <trkpt lat="43.7748" lon="7.15357">
        <ele>871</ele>
        <time>2021-02-25T10:03:36.000Z</time>
      </trkpt>
      <trkpt lat="43.77493" lon="7.15372">
        <ele>869.59997558594</ele>
        <time>2021-02-25T10:03:38.000Z</time>
      </trkpt>
      <trkpt lat="43.77505" lon="7.15383">
        <ele>868.40002441406</ele>
        <time>2021-02-25T10:03:40.000Z</time>
      </trkpt>
      <trkpt lat="43.77517" lon="7.15386">
        <ele>867.20001220703</ele>
        <time>2021-02-25T10:03:42.000Z</time>
      </trkpt>
      <trkpt lat="43.77522" lon="7.15385">
        <ele>866.79998779297</ele>
        <time>2021-02-25T10:03:43.000Z</time>
      </trkpt>
      <trkpt lat="43.77532" lon="7.15382">
        <ele>867</ele>
        <time>2021-02-25T10:03:45.000Z</time>
      </trkpt>
      <trkpt lat="43.77537" lon="7.1538">
        <ele>867.40002441406</ele>
        <time>2021-02-25T10:03:46.000Z</time>
      </trkpt>
      <trkpt lat="43.77541" lon="7.15379">
        <ele>868</ele>
        <time>2021-02-25T10:03:47.000Z</time>
      </trkpt>
      <trkpt lat="43.77546" lon="7.15377">
        <ele>868.40002441406</ele>
        <time>2021-02-25T10:03:48.000Z</time>
      </trkpt>
      <trkpt lat="43.77553" lon="7.15376">
        <ele>869.40002441406</ele>
        <time>2021-02-25T10:03:50.000Z</time>
      </trkpt>
      <trkpt lat="43.7756" lon="7.15374">
        <ele>870</ele>
        <time>2021-02-25T10:03:52.000Z</time>
      </trkpt>
      <trkpt lat="43.77566" lon="7.15371">
        <ele>870.59997558594</ele>
        <time>2021-02-25T10:03:54.000Z</time>
      </trkpt>
      <trkpt lat="43.7758" lon="7.15364">
        <ele>871.59997558594</ele>
        <time>2021-02-25T10:03:58.000Z</time>
      </trkpt>
      <trkpt lat="43.77586" lon="7.15362">
        <ele>872</ele>
        <time>2021-02-25T10:03:59.000Z</time>
      </trkpt>
      <trkpt lat="43.77594" lon="7.15358">
        <ele>873</ele>
        <time>2021-02-25T10:04:02.000Z</time>
      </trkpt>
      <trkpt lat="43.77601" lon="7.15358">
        <ele>873.40002441406</ele>
        <time>2021-02-25T10:04:04.000Z</time>
      </trkpt>
      <trkpt lat="43.77616" lon="7.15354">
        <ele>874.20001220703</ele>
        <time>2021-02-25T10:04:09.000Z</time>
      </trkpt>
      <trkpt lat="43.77619" lon="7.15355">
        <ele>874.40002441406</ele>
        <time>2021-02-25T10:04:10.000Z</time>
      </trkpt>
      <trkpt lat="43.77633" lon="7.15353">
        <ele>875.20001220703</ele>
        <time>2021-02-25T10:04:15.000Z</time>
      </trkpt>
      <trkpt lat="43.77637" lon="7.15357">
        <ele>875.40002441406</ele>
        <time>2021-02-25T10:04:17.000Z</time>
      </trkpt>
      <trkpt lat="43.77641" lon="7.15361">
        <ele>875.59997558594</ele>
        <time>2021-02-25T10:04:19.000Z</time>
      </trkpt>
      <trkpt lat="43.77655" lon="7.15359">
        <ele>875.59997558594</ele>
        <time>2021-02-25T10:04:23.000Z</time>
      </trkpt>
      <trkpt lat="43.77665" lon="7.15343">
        <ele>874.79998779297</ele>
        <time>2021-02-25T10:04:27.000Z</time>
      </trkpt>
      <trkpt lat="43.77673" lon="7.15331">
        <ele>874.40002441406</ele>
        <time>2021-02-25T10:04:30.000Z</time>
      </trkpt>
      <trkpt lat="43.77684" lon="7.15317">
        <ele>874.20001220703</ele>
        <time>2021-02-25T10:04:34.000Z</time>
      </trkpt>
      <trkpt lat="43.77697" lon="7.15288">
        <ele>873.40002441406</ele>
        <time>2021-02-25T10:04:40.000Z</time>
      </trkpt>
      <trkpt lat="43.777" lon="7.15285">
        <ele>873.20001220703</ele>
        <time>2021-02-25T10:04:41.000Z</time>
      </trkpt>
      <trkpt lat="43.77711" lon="7.15269">
        <ele>872.59997558594</ele>
        <time>2021-02-25T10:04:45.000Z</time>
      </trkpt>
      <trkpt lat="43.77713" lon="7.15259">
        <ele>872.40002441406</ele>
        <time>2021-02-25T10:04:48.000Z</time>
      </trkpt>
      <trkpt lat="43.77713" lon="7.15254">
        <ele>872.40002441406</ele>
        <time>2021-02-25T10:04:49.000Z</time>
      </trkpt>
      <trkpt lat="43.77712" lon="7.15216">
        <ele>873</ele>
        <time>2021-02-25T10:04:56.000Z</time>
      </trkpt>
      <trkpt lat="43.77713" lon="7.15199">
        <ele>873</ele>
        <time>2021-02-25T10:04:59.000Z</time>
      </trkpt>
      <trkpt lat="43.77719" lon="7.15191">
        <ele>872.79998779297</ele>
        <time>2021-02-25T10:05:01.000Z</time>
      </trkpt>
      <trkpt lat="43.7773" lon="7.15171">
        <ele>872.79998779297</ele>
        <time>2021-02-25T10:05:06.000Z</time>
      </trkpt>
      <trkpt lat="43.7774" lon="7.15145">
        <ele>872.79998779297</ele>
        <time>2021-02-25T10:05:12.000Z</time>
      </trkpt>
      <trkpt lat="43.77743" lon="7.15127">
        <ele>872</ele>
        <time>2021-02-25T10:05:15.000Z</time>
      </trkpt>
      <trkpt lat="43.77746" lon="7.15123">
        <ele>872</ele>
        <time>2021-02-25T10:05:16.000Z</time>
      </trkpt>
      <trkpt lat="43.77747" lon="7.1512">
        <ele>871.79998779297</ele>
        <time>2021-02-25T10:05:17.000Z</time>
      </trkpt>
      <trkpt lat="43.77755" lon="7.15108">
        <ele>872.59997558594</ele>
        <time>2021-02-25T10:05:20.000Z</time>
      </trkpt>
      <trkpt lat="43.77773" lon="7.15096">
        <ele>873.20001220703</ele>
        <time>2021-02-25T10:05:25.000Z</time>
      </trkpt>
      <trkpt lat="43.77792" lon="7.15084">
        <ele>874.20001220703</ele>
        <time>2021-02-25T10:05:30.000Z</time>
      </trkpt>
      <trkpt lat="43.77794" lon="7.15086">
        <ele>874.40002441406</ele>
        <time>2021-02-25T10:05:31.000Z</time>
      </trkpt>
      <trkpt lat="43.77794" lon="7.15087">
        <ele>874.20001220703</ele>
        <time>2021-02-25T10:05:34.000Z</time>
      </trkpt>
      <trkpt lat="43.77792" lon="7.15085">
        <ele>874</ele>
        <time>2021-02-25T10:05:36.000Z</time>
      </trkpt>
      <trkpt lat="43.77792" lon="7.15084">
        <ele>874</ele>
        <time>2021-02-25T10:05:38.000Z</time>
      </trkpt>
      <trkpt lat="43.77797" lon="7.1508">
        <ele>874.20001220703</ele>
        <time>2021-02-25T10:05:43.000Z</time>
      </trkpt>
      <trkpt lat="43.77804" lon="7.15075">
        <ele>874.20001220703</ele>
        <time>2021-02-25T10:05:47.000Z</time>
      </trkpt>
      <trkpt lat="43.7781" lon="7.15067">
        <ele>874.59997558594</ele>
        <time>2021-02-25T10:05:52.000Z</time>
      </trkpt>
      <trkpt lat="43.77813" lon="7.15064">
        <ele>875.20001220703</ele>
        <time>2021-02-25T10:05:54.000Z</time>
      </trkpt>
      <trkpt lat="43.77817" lon="7.15058">
        <ele>876</ele>
        <time>2021-02-25T10:05:58.000Z</time>
      </trkpt>
      <trkpt lat="43.77818" lon="7.15056">
        <ele>876.20001220703</ele>
        <time>2021-02-25T10:05:59.000Z</time>
      </trkpt>
      <trkpt lat="43.77828" lon="7.1505">
        <ele>876.59997558594</ele>
        <time>2021-02-25T10:06:04.000Z</time>
      </trkpt>
      <trkpt lat="43.77835" lon="7.15049">
        <ele>877.20001220703</ele>
        <time>2021-02-25T10:06:07.000Z</time>
      </trkpt>
      <trkpt lat="43.77837" lon="7.15049">
        <ele>877.20001220703</ele>
        <time>2021-02-25T10:06:08.000Z</time>
      </trkpt>
      <trkpt lat="43.7784" lon="7.15049">
        <ele>877.40002441406</ele>
        <time>2021-02-25T10:06:09.000Z</time>
      </trkpt>
      <trkpt lat="43.7785" lon="7.1505">
        <ele>878.20001220703</ele>
        <time>2021-02-25T10:06:13.000Z</time>
      </trkpt>
      <trkpt lat="43.77857" lon="7.1505">
        <ele>879.59997558594</ele>
        <time>2021-02-25T10:06:16.000Z</time>
      </trkpt>
      <trkpt lat="43.77859" lon="7.15049">
        <ele>879.79998779297</ele>
        <time>2021-02-25T10:06:17.000Z</time>
      </trkpt>
      <trkpt lat="43.7787" lon="7.15047">
        <ele>880.59997558594</ele>
        <time>2021-02-25T10:06:21.000Z</time>
      </trkpt>
      <trkpt lat="43.77879" lon="7.15044">
        <ele>881.79998779297</ele>
        <time>2021-02-25T10:06:25.000Z</time>
      </trkpt>
      <trkpt lat="43.77889" lon="7.15042">
        <ele>882.79998779297</ele>
        <time>2021-02-25T10:06:29.000Z</time>
      </trkpt>
      <trkpt lat="43.77898" lon="7.15039">
        <ele>883.79998779297</ele>
        <time>2021-02-25T10:06:32.000Z</time>
      </trkpt>
      <trkpt lat="43.77901" lon="7.15038">
        <ele>884.20001220703</ele>
        <time>2021-02-25T10:06:33.000Z</time>
      </trkpt>
      <trkpt lat="43.77912" lon="7.15036">
        <ele>885.20001220703</ele>
        <time>2021-02-25T10:06:37.000Z</time>
      </trkpt>
      <trkpt lat="43.7792" lon="7.15037">
        <ele>885.79998779297</ele>
        <time>2021-02-25T10:06:40.000Z</time>
      </trkpt>
      <trkpt lat="43.77926" lon="7.1504">
        <ele>886.20001220703</ele>
        <time>2021-02-25T10:06:42.000Z</time>
      </trkpt>
      <trkpt lat="43.77934" lon="7.15046">
        <ele>887.59997558594</ele>
        <time>2021-02-25T10:06:46.000Z</time>
      </trkpt>
      <trkpt lat="43.77939" lon="7.15053">
        <ele>888.79998779297</ele>
        <time>2021-02-25T10:06:49.000Z</time>
      </trkpt>
      <trkpt lat="43.77942" lon="7.15056">
        <ele>889.79998779297</ele>
        <time>2021-02-25T10:06:51.000Z</time>
      </trkpt>
      <trkpt lat="43.77944" lon="7.15057">
        <ele>890.20001220703</ele>
        <time>2021-02-25T10:06:52.000Z</time>
      </trkpt>
      <trkpt lat="43.77947" lon="7.15059">
        <ele>891</ele>
        <time>2021-02-25T10:06:54.000Z</time>
      </trkpt>
      <trkpt lat="43.7795" lon="7.15063">
        <ele>891.59997558594</ele>
        <time>2021-02-25T10:06:56.000Z</time>
      </trkpt>
      <trkpt lat="43.77951" lon="7.15065">
        <ele>892.20001220703</ele>
        <time>2021-02-25T10:06:57.000Z</time>
      </trkpt>
      <trkpt lat="43.77952" lon="7.15069">
        <ele>892.59997558594</ele>
        <time>2021-02-25T10:06:58.000Z</time>
      </trkpt>
      <trkpt lat="43.77952" lon="7.15073">
        <ele>893.40002441406</ele>
        <time>2021-02-25T10:07:00.000Z</time>
      </trkpt>
      <trkpt lat="43.77954" lon="7.15081">
        <ele>894</ele>
        <time>2021-02-25T10:07:03.000Z</time>
      </trkpt>
      <trkpt lat="43.77957" lon="7.15088">
        <ele>894.40002441406</ele>
        <time>2021-02-25T10:07:06.000Z</time>
      </trkpt>
      <trkpt lat="43.77959" lon="7.15097">
        <ele>895</ele>
        <time>2021-02-25T10:07:09.000Z</time>
      </trkpt>
      <trkpt lat="43.77959" lon="7.15118">
        <ele>895</ele>
        <time>2021-02-25T10:07:14.000Z</time>
      </trkpt>
      <trkpt lat="43.7797" lon="7.15135">
        <ele>894.79998779297</ele>
        <time>2021-02-25T10:07:19.000Z</time>
      </trkpt>
      <trkpt lat="43.77986" lon="7.1515">
        <ele>895</ele>
        <time>2021-02-25T10:07:25.000Z</time>
      </trkpt>
      <trkpt lat="43.78003" lon="7.15162">
        <ele>895.40002441406</ele>
        <time>2021-02-25T10:07:32.000Z</time>
      </trkpt>
      <trkpt lat="43.78017" lon="7.15157">
        <ele>896.59997558594</ele>
        <time>2021-02-25T10:07:37.000Z</time>
      </trkpt>
      <trkpt lat="43.78027" lon="7.15159">
        <ele>898</ele>
        <time>2021-02-25T10:07:40.000Z</time>
      </trkpt>
      <trkpt lat="43.78032" lon="7.15162">
        <ele>898.59997558594</ele>
        <time>2021-02-25T10:07:42.000Z</time>
      </trkpt>
      <trkpt lat="43.78038" lon="7.15165">
        <ele>899.20001220703</ele>
        <time>2021-02-25T10:07:44.000Z</time>
      </trkpt>
      <trkpt lat="43.7805" lon="7.15165">
        <ele>900.20001220703</ele>
        <time>2021-02-25T10:07:48.000Z</time>
      </trkpt>
      <trkpt lat="43.7806" lon="7.15166">
        <ele>901.40002441406</ele>
        <time>2021-02-25T10:07:52.000Z</time>
      </trkpt>
      <trkpt lat="43.78067" lon="7.15171">
        <ele>902.59997558594</ele>
        <time>2021-02-25T10:07:55.000Z</time>
      </trkpt>
      <trkpt lat="43.78077" lon="7.15174">
        <ele>903.59997558594</ele>
        <time>2021-02-25T10:07:59.000Z</time>
      </trkpt>
      <trkpt lat="43.78082" lon="7.15173">
        <ele>903.79998779297</ele>
        <time>2021-02-25T10:08:01.000Z</time>
      </trkpt>
      <trkpt lat="43.78093" lon="7.15161">
        <ele>904.59997558594</ele>
        <time>2021-02-25T10:08:06.000Z</time>
      </trkpt>
      <trkpt lat="43.78096" lon="7.1516">
        <ele>904.79998779297</ele>
        <time>2021-02-25T10:08:07.000Z</time>
      </trkpt>
      <trkpt lat="43.78106" lon="7.15158">
        <ele>905.79998779297</ele>
        <time>2021-02-25T10:08:11.000Z</time>
      </trkpt>
      <trkpt lat="43.78109" lon="7.1516">
        <ele>906</ele>
        <time>2021-02-25T10:08:12.000Z</time>
      </trkpt>
      <trkpt lat="43.78122" lon="7.1516">
        <ele>906.79998779297</ele>
        <time>2021-02-25T10:08:16.000Z</time>
      </trkpt>
      <trkpt lat="43.78135" lon="7.15153">
        <ele>907.20001220703</ele>
        <time>2021-02-25T10:08:21.000Z</time>
      </trkpt>
      <trkpt lat="43.78139" lon="7.1515">
        <ele>907.79998779297</ele>
        <time>2021-02-25T10:08:23.000Z</time>
      </trkpt>
      <trkpt lat="43.78144" lon="7.15148">
        <ele>908.40002441406</ele>
        <time>2021-02-25T10:08:25.000Z</time>
      </trkpt>
      <trkpt lat="43.78155" lon="7.15147">
        <ele>909.79998779297</ele>
        <time>2021-02-25T10:08:29.000Z</time>
      </trkpt>
      <trkpt lat="43.78168" lon="7.15141">
        <ele>911</ele>
        <time>2021-02-25T10:08:34.000Z</time>
      </trkpt>
      <trkpt lat="43.78169" lon="7.15139">
        <ele>911</ele>
        <time>2021-02-25T10:08:35.000Z</time>
      </trkpt>
      <trkpt lat="43.78183" lon="7.1513">
        <ele>911.79998779297</ele>
        <time>2021-02-25T10:08:41.000Z</time>
      </trkpt>
      <trkpt lat="43.78185" lon="7.15129">
        <ele>912.20001220703</ele>
        <time>2021-02-25T10:08:42.000Z</time>
      </trkpt>
      <trkpt lat="43.78192" lon="7.15117">
        <ele>913.40002441406</ele>
        <time>2021-02-25T10:08:46.000Z</time>
      </trkpt>
      <trkpt lat="43.78192" lon="7.15115">
        <ele>913.59997558594</ele>
        <time>2021-02-25T10:08:47.000Z</time>
      </trkpt>
      <trkpt lat="43.78192" lon="7.15104">
        <ele>914.59997558594</ele>
        <time>2021-02-25T10:08:50.000Z</time>
      </trkpt>
      <trkpt lat="43.78195" lon="7.15098">
        <ele>914.79998779297</ele>
        <time>2021-02-25T10:08:52.000Z</time>
      </trkpt>
      <trkpt lat="43.78198" lon="7.15097">
        <ele>915</ele>
        <time>2021-02-25T10:08:53.000Z</time>
      </trkpt>
      <trkpt lat="43.78205" lon="7.15093">
        <ele>915</ele>
        <time>2021-02-25T10:08:56.000Z</time>
      </trkpt>
      <trkpt lat="43.78218" lon="7.15088">
        <ele>915.79998779297</ele>
        <time>2021-02-25T10:09:01.000Z</time>
      </trkpt>
      <trkpt lat="43.78224" lon="7.15086">
        <ele>916.20001220703</ele>
        <time>2021-02-25T10:09:03.000Z</time>
      </trkpt>
      <trkpt lat="43.78229" lon="7.15086">
        <ele>916.79998779297</ele>
        <time>2021-02-25T10:09:05.000Z</time>
      </trkpt>
      <trkpt lat="43.7824" lon="7.1509">
        <ele>917.59997558594</ele>
        <time>2021-02-25T10:09:09.000Z</time>
      </trkpt>
      <trkpt lat="43.78244" lon="7.15096">
        <ele>918</ele>
        <time>2021-02-25T10:09:11.000Z</time>
      </trkpt>
      <trkpt lat="43.78248" lon="7.15102">
        <ele>918.40002441406</ele>
        <time>2021-02-25T10:09:14.000Z</time>
      </trkpt>
      <trkpt lat="43.78252" lon="7.15105">
        <ele>919</ele>
        <time>2021-02-25T10:09:16.000Z</time>
      </trkpt>
      <trkpt lat="43.7826" lon="7.15112">
        <ele>920</ele>
        <time>2021-02-25T10:09:20.000Z</time>
      </trkpt>
      <trkpt lat="43.78262" lon="7.15114">
        <ele>920.40002441406</ele>
        <time>2021-02-25T10:09:21.000Z</time>
      </trkpt>
      <trkpt lat="43.78268" lon="7.15119">
        <ele>921.40002441406</ele>
        <time>2021-02-25T10:09:24.000Z</time>
      </trkpt>
      <trkpt lat="43.78276" lon="7.15122">
        <ele>921.79998779297</ele>
        <time>2021-02-25T10:09:27.000Z</time>
      </trkpt>
      <trkpt lat="43.78287" lon="7.15131">
        <ele>922.40002441406</ele>
        <time>2021-02-25T10:09:32.000Z</time>
      </trkpt>
      <trkpt lat="43.78289" lon="7.15133">
        <ele>922.79998779297</ele>
        <time>2021-02-25T10:09:33.000Z</time>
      </trkpt>
      <trkpt lat="43.78296" lon="7.15135">
        <ele>923.79998779297</ele>
        <time>2021-02-25T10:09:36.000Z</time>
      </trkpt>
      <trkpt lat="43.783" lon="7.15136">
        <ele>924.40002441406</ele>
        <time>2021-02-25T10:09:38.000Z</time>
      </trkpt>
      <trkpt lat="43.78303" lon="7.15137">
        <ele>924.79998779297</ele>
        <time>2021-02-25T10:09:39.000Z</time>
      </trkpt>
      <trkpt lat="43.78307" lon="7.1514">
        <ele>926</ele>
        <time>2021-02-25T10:09:41.000Z</time>
      </trkpt>
      <trkpt lat="43.78312" lon="7.15142">
        <ele>927.40002441406</ele>
        <time>2021-02-25T10:09:44.000Z</time>
      </trkpt>
      <trkpt lat="43.78324" lon="7.15147">
        <ele>928.40002441406</ele>
        <time>2021-02-25T10:09:49.000Z</time>
      </trkpt>
      <trkpt lat="43.78326" lon="7.15149">
        <ele>928.59997558594</ele>
        <time>2021-02-25T10:09:50.000Z</time>
      </trkpt>
      <trkpt lat="43.78332" lon="7.15159">
        <ele>929.40002441406</ele>
        <time>2021-02-25T10:09:54.000Z</time>
      </trkpt>
      <trkpt lat="43.78336" lon="7.15166">
        <ele>930.40002441406</ele>
        <time>2021-02-25T10:09:57.000Z</time>
      </trkpt>
      <trkpt lat="43.78338" lon="7.15168">
        <ele>930.79998779297</ele>
        <time>2021-02-25T10:09:58.000Z</time>
      </trkpt>
      <trkpt lat="43.78343" lon="7.15175">
        <ele>931.79998779297</ele>
        <time>2021-02-25T10:10:01.000Z</time>
      </trkpt>
      <trkpt lat="43.78344" lon="7.15182">
        <ele>932.59997558594</ele>
        <time>2021-02-25T10:10:03.000Z</time>
      </trkpt>
      <trkpt lat="43.78344" lon="7.15188">
        <ele>933</ele>
        <time>2021-02-25T10:10:05.000Z</time>
      </trkpt>
      <trkpt lat="43.7835" lon="7.15199">
        <ele>933.40002441406</ele>
        <time>2021-02-25T10:10:09.000Z</time>
      </trkpt>
      <trkpt lat="43.78355" lon="7.15204">
        <ele>934.20001220703</ele>
        <time>2021-02-25T10:10:12.000Z</time>
      </trkpt>
      <trkpt lat="43.78359" lon="7.1521">
        <ele>935</ele>
        <time>2021-02-25T10:10:15.000Z</time>
      </trkpt>
      <trkpt lat="43.7836" lon="7.15223">
        <ele>934.79998779297</ele>
        <time>2021-02-25T10:10:20.000Z</time>
      </trkpt>
      <trkpt lat="43.78359" lon="7.15235">
        <ele>935</ele>
        <time>2021-02-25T10:10:26.000Z</time>
      </trkpt>
      <trkpt lat="43.78359" lon="7.15235">
        <ele>934.79998779297</ele>
        <time>2021-02-25T10:10:30.000Z</time>
      </trkpt>
      <trkpt lat="43.78359" lon="7.15232">
        <ele>934.59997558594</ele>
        <time>2021-02-25T10:10:36.000Z</time>
      </trkpt>
      <trkpt lat="43.78361" lon="7.1522">
        <ele>934.40002441406</ele>
        <time>2021-02-25T10:10:42.000Z</time>
      </trkpt>
      <trkpt lat="43.78368" lon="7.15212">
        <ele>934.40002441406</ele>
        <time>2021-02-25T10:10:46.000Z</time>
      </trkpt>
      <trkpt lat="43.7837" lon="7.15207">
        <ele>934.40002441406</ele>
        <time>2021-02-25T10:10:48.000Z</time>
      </trkpt>
      <trkpt lat="43.78384" lon="7.15186">
        <ele>934.20001220703</ele>
        <time>2021-02-25T10:10:55.000Z</time>
      </trkpt>
      <trkpt lat="43.78394" lon="7.15167">
        <ele>934</ele>
        <time>2021-02-25T10:11:01.000Z</time>
      </trkpt>
      <trkpt lat="43.78406" lon="7.15147">
        <ele>934</ele>
        <time>2021-02-25T10:11:07.000Z</time>
      </trkpt>
      <trkpt lat="43.7841" lon="7.15138">
        <ele>933.59997558594</ele>
        <time>2021-02-25T10:11:13.000Z</time>
      </trkpt>
      <trkpt lat="43.7841" lon="7.15139">
        <ele>933.40002441406</ele>
        <time>2021-02-25T10:11:17.000Z</time>
      </trkpt>
      <trkpt lat="43.78409" lon="7.15139">
        <ele>933.20001220703</ele>
        <time>2021-02-25T10:11:19.000Z</time>
      </trkpt>
      <trkpt lat="43.7841" lon="7.15141">
        <ele>933.40002441406</ele>
        <time>2021-02-25T10:11:24.000Z</time>
      </trkpt>
      <trkpt lat="43.78409" lon="7.15141">
        <ele>933.20001220703</ele>
        <time>2021-02-25T10:11:34.000Z</time>
      </trkpt>
      <trkpt lat="43.78409" lon="7.15141">
        <ele>933.40002441406</ele>
        <time>2021-02-25T10:11:44.000Z</time>
      </trkpt>
      <trkpt lat="43.7841" lon="7.15141">
        <ele>933.59997558594</ele>
        <time>2021-02-25T10:11:51.000Z</time>
      </trkpt>
      <trkpt lat="43.78407" lon="7.15137">
        <ele>933.79998779297</ele>
        <time>2021-02-25T10:11:57.000Z</time>
      </trkpt>
      <trkpt lat="43.78407" lon="7.15137">
        <ele>934.20001220703</ele>
        <time>2021-02-25T10:12:01.000Z</time>
      </trkpt>
      <trkpt lat="43.78407" lon="7.15136">
        <ele>934.40002441406</ele>
        <time>2021-02-25T10:12:02.000Z</time>
      </trkpt>
      <trkpt lat="43.78407" lon="7.15136">
        <ele>933.79998779297</ele>
        <time>2021-02-25T10:12:13.000Z</time>
      </trkpt>
      <trkpt lat="43.78407" lon="7.15134">
        <ele>933.20001220703</ele>
        <time>2021-02-25T10:12:27.000Z</time>
      </trkpt>
      <trkpt lat="43.78407" lon="7.15134">
        <ele>933.20001220703</ele>
        <time>2021-02-25T10:12:29.000Z</time>
      </trkpt>
      <trkpt lat="43.78407" lon="7.15133">
        <ele>933</ele>
        <time>2021-02-25T10:12:49.000Z</time>
      </trkpt>
      <trkpt lat="43.78407" lon="7.15134">
        <ele>933.79998779297</ele>
        <time>2021-02-25T10:12:58.000Z</time>
      </trkpt>
      <trkpt lat="43.78408" lon="7.15133">
        <ele>932.79998779297</ele>
        <time>2021-02-25T10:13:18.000Z</time>
      </trkpt>
      <trkpt lat="43.78409" lon="7.15134">
        <ele>932.79998779297</ele>
        <time>2021-02-25T10:13:38.000Z</time>
      </trkpt>
      <trkpt lat="43.78408" lon="7.15134">
        <ele>932.79998779297</ele>
        <time>2021-02-25T10:13:47.000Z</time>
      </trkpt>
      <trkpt lat="43.78408" lon="7.15134">
        <ele>932.79998779297</ele>
        <time>2021-02-25T10:14:02.000Z</time>
      </trkpt>
      <trkpt lat="43.78408" lon="7.15134">
        <ele>932.79998779297</ele>
        <time>2021-02-25T10:14:09.000Z</time>
      </trkpt>
      <trkpt lat="43.78408" lon="7.15134">
        <ele>932.79998779297</ele>
        <time>2021-02-25T10:14:15.000Z</time>
      </trkpt>
      <trkpt lat="43.78409" lon="7.15134">
        <ele>932.79998779297</ele>
        <time>2021-02-25T10:14:23.000Z</time>
      </trkpt>
      <trkpt lat="43.78409" lon="7.15134">
        <ele>932.79998779297</ele>
        <time>2021-02-25T10:14:29.000Z</time>
      </trkpt>
      <trkpt lat="43.7841" lon="7.15136">
        <ele>933</ele>
        <time>2021-02-25T10:14:35.000Z</time>
      </trkpt>
      <trkpt lat="43.7841" lon="7.15134">
        <ele>932.59997558594</ele>
        <time>2021-02-25T10:14:39.000Z</time>
      </trkpt>
      <trkpt lat="43.78407" lon="7.15132">
        <ele>932.40002441406</ele>
        <time>2021-02-25T10:14:41.000Z</time>
      </trkpt>
      <trkpt lat="43.78403" lon="7.15129">
        <ele>932.59997558594</ele>
        <time>2021-02-25T10:14:43.000Z</time>
      </trkpt>
      <trkpt lat="43.7839" lon="7.15119">
        <ele>934</ele>
        <time>2021-02-25T10:14:49.000Z</time>
      </trkpt>
      <trkpt lat="43.78389" lon="7.15117">
        <ele>934.59997558594</ele>
        <time>2021-02-25T10:14:50.000Z</time>
      </trkpt>
      <trkpt lat="43.78387" lon="7.15108">
        <ele>935.20001220703</ele>
        <time>2021-02-25T10:14:54.000Z</time>
      </trkpt>
      <trkpt lat="43.78385" lon="7.15107">
        <ele>935.40002441406</ele>
        <time>2021-02-25T10:14:55.000Z</time>
      </trkpt>
      <trkpt lat="43.78379" lon="7.15105">
        <ele>935</ele>
        <time>2021-02-25T10:14:58.000Z</time>
      </trkpt>
      <trkpt lat="43.78377" lon="7.15103">
        <ele>935.59997558594</ele>
        <time>2021-02-25T10:15:02.000Z</time>
      </trkpt>
      <trkpt lat="43.78376" lon="7.15102">
        <ele>935.40002441406</ele>
        <time>2021-02-25T10:15:07.000Z</time>
      </trkpt>
      <trkpt lat="43.78373" lon="7.15103">
        <ele>935.20001220703</ele>
        <time>2021-02-25T10:15:16.000Z</time>
      </trkpt>
      <trkpt lat="43.78372" lon="7.15104">
        <ele>935.20001220703</ele>
        <time>2021-02-25T10:15:18.000Z</time>
      </trkpt>
      <trkpt lat="43.7837" lon="7.15103">
        <ele>935</ele>
        <time>2021-02-25T10:15:22.000Z</time>
      </trkpt>
      <trkpt lat="43.78367" lon="7.15099">
        <ele>934.40002441406</ele>
        <time>2021-02-25T10:15:25.000Z</time>
      </trkpt>
      <trkpt lat="43.78366" lon="7.15095">
        <ele>934.40002441406</ele>
        <time>2021-02-25T10:15:26.000Z</time>
      </trkpt>
      <trkpt lat="43.7836" lon="7.15074">
        <ele>933.40002441406</ele>
        <time>2021-02-25T10:15:31.000Z</time>
      </trkpt>
      <trkpt lat="43.78359" lon="7.15071">
        <ele>933</ele>
        <time>2021-02-25T10:15:32.000Z</time>
      </trkpt>
      <trkpt lat="43.78352" lon="7.15052">
        <ele>933</ele>
        <time>2021-02-25T10:15:38.000Z</time>
      </trkpt>
      <trkpt lat="43.7835" lon="7.15049">
        <ele>933.40002441406</ele>
        <time>2021-02-25T10:15:41.000Z</time>
      </trkpt>
      <trkpt lat="43.78349" lon="7.15048">
        <ele>933.40002441406</ele>
        <time>2021-02-25T10:15:42.000Z</time>
      </trkpt>
      <trkpt lat="43.78343" lon="7.15043">
        <ele>933.20001220703</ele>
        <time>2021-02-25T10:15:47.000Z</time>
      </trkpt>
      <trkpt lat="43.78342" lon="7.15042">
        <ele>933.59997558594</ele>
        <time>2021-02-25T10:15:52.000Z</time>
      </trkpt>
      <trkpt lat="43.78341" lon="7.1504">
        <ele>934.20001220703</ele>
        <time>2021-02-25T10:15:58.000Z</time>
      </trkpt>
      <trkpt lat="43.78341" lon="7.15035">
        <ele>933.59997558594</ele>
        <time>2021-02-25T10:16:04.000Z</time>
      </trkpt>
      <trkpt lat="43.78339" lon="7.1502">
        <ele>933</ele>
        <time>2021-02-25T10:16:10.000Z</time>
      </trkpt>
      <trkpt lat="43.78337" lon="7.15011">
        <ele>932.40002441406</ele>
        <time>2021-02-25T10:16:17.000Z</time>
      </trkpt>
      <trkpt lat="43.78332" lon="7.15">
        <ele>931.40002441406</ele>
        <time>2021-02-25T10:16:21.000Z</time>
      </trkpt>
      <trkpt lat="43.78331" lon="7.14998">
        <ele>931.40002441406</ele>
        <time>2021-02-25T10:16:22.000Z</time>
      </trkpt>
      <trkpt lat="43.78331" lon="7.14998">
        <ele>930.40002441406</ele>
        <time>2021-02-25T10:16:26.000Z</time>
      </trkpt>
      <trkpt lat="43.78331" lon="7.14998">
        <ele>930.20001220703</ele>
        <time>2021-02-25T10:16:27.000Z</time>
      </trkpt>
      <trkpt lat="43.78327" lon="7.14995">
        <ele>930</ele>
        <time>2021-02-25T10:16:36.000Z</time>
      </trkpt>
      <trkpt lat="43.78316" lon="7.14992">
        <ele>929.40002441406</ele>
        <time>2021-02-25T10:16:41.000Z</time>
      </trkpt>
      <trkpt lat="43.783" lon="7.14986">
        <ele>929.79998779297</ele>
        <time>2021-02-25T10:16:48.000Z</time>
      </trkpt>
      <trkpt lat="43.78295" lon="7.14981">
        <ele>930</ele>
        <time>2021-02-25T10:16:51.000Z</time>
      </trkpt>
      <trkpt lat="43.78295" lon="7.14974">
        <ele>929.79998779297</ele>
        <time>2021-02-25T10:16:53.000Z</time>
      </trkpt>
      <trkpt lat="43.78294" lon="7.14964">
        <ele>929</ele>
        <time>2021-02-25T10:16:56.000Z</time>
      </trkpt>
      <trkpt lat="43.7829" lon="7.14961">
        <ele>928.40002441406</ele>
        <time>2021-02-25T10:16:58.000Z</time>
      </trkpt>
      <trkpt lat="43.78288" lon="7.14959">
        <ele>928</ele>
        <time>2021-02-25T10:16:59.000Z</time>
      </trkpt>
      <trkpt lat="43.78286" lon="7.14958">
        <ele>927.79998779297</ele>
        <time>2021-02-25T10:17:00.000Z</time>
      </trkpt>
      <trkpt lat="43.7828" lon="7.14957">
        <ele>927</ele>
        <time>2021-02-25T10:17:03.000Z</time>
      </trkpt>
      <trkpt lat="43.78278" lon="7.14957">
        <ele>927.20001220703</ele>
        <time>2021-02-25T10:17:04.000Z</time>
      </trkpt>
      <trkpt lat="43.78271" lon="7.14957">
        <ele>927.20001220703</ele>
        <time>2021-02-25T10:17:09.000Z</time>
      </trkpt>
      <trkpt lat="43.7827" lon="7.14957">
        <ele>927.59997558594</ele>
        <time>2021-02-25T10:17:17.000Z</time>
      </trkpt>
      <trkpt lat="43.78268" lon="7.14959">
        <ele>927.40002441406</ele>
        <time>2021-02-25T10:17:31.000Z</time>
      </trkpt>
      <trkpt lat="43.78261" lon="7.14966">
        <ele>927.20001220703</ele>
        <time>2021-02-25T10:17:36.000Z</time>
      </trkpt>
      <trkpt lat="43.7826" lon="7.14966">
        <ele>927.40002441406</ele>
        <time>2021-02-25T10:17:40.000Z</time>
      </trkpt>
      <trkpt lat="43.78259" lon="7.14966">
        <ele>927.40002441406</ele>
        <time>2021-02-25T10:17:44.000Z</time>
      </trkpt>
      <trkpt lat="43.78257" lon="7.14962">
        <ele>926.79998779297</ele>
        <time>2021-02-25T10:17:50.000Z</time>
      </trkpt>
      <trkpt lat="43.78252" lon="7.14954">
        <ele>927.20001220703</ele>
        <time>2021-02-25T10:17:55.000Z</time>
      </trkpt>
      <trkpt lat="43.78253" lon="7.14951">
        <ele>927.20001220703</ele>
        <time>2021-02-25T10:17:56.000Z</time>
      </trkpt>
      <trkpt lat="43.78255" lon="7.14947">
        <ele>927</ele>
        <time>2021-02-25T10:17:58.000Z</time>
      </trkpt>
      <trkpt lat="43.78258" lon="7.14932">
        <ele>926.59997558594</ele>
        <time>2021-02-25T10:18:03.000Z</time>
      </trkpt>
      <trkpt lat="43.78258" lon="7.14915">
        <ele>926</ele>
        <time>2021-02-25T10:18:08.000Z</time>
      </trkpt>
      <trkpt lat="43.78259" lon="7.14908">
        <ele>926</ele>
        <time>2021-02-25T10:18:10.000Z</time>
      </trkpt>
      <trkpt lat="43.78257" lon="7.14903">
        <ele>925.59997558594</ele>
        <time>2021-02-25T10:18:12.000Z</time>
      </trkpt>
      <trkpt lat="43.78253" lon="7.14893">
        <ele>924.79998779297</ele>
        <time>2021-02-25T10:18:15.000Z</time>
      </trkpt>
      <trkpt lat="43.78253" lon="7.14891">
        <ele>924.40002441406</ele>
        <time>2021-02-25T10:18:16.000Z</time>
      </trkpt>
      <trkpt lat="43.78253" lon="7.1489">
        <ele>924</ele>
        <time>2021-02-25T10:18:17.000Z</time>
      </trkpt>
      <trkpt lat="43.78254" lon="7.14889">
        <ele>923.59997558594</ele>
        <time>2021-02-25T10:18:18.000Z</time>
      </trkpt>
      <trkpt lat="43.78259" lon="7.14883">
        <ele>923.20001220703</ele>
        <time>2021-02-25T10:18:21.000Z</time>
      </trkpt>
      <trkpt lat="43.78255" lon="7.14873">
        <ele>922.40002441406</ele>
        <time>2021-02-25T10:18:24.000Z</time>
      </trkpt>
      <trkpt lat="43.78252" lon="7.14868">
        <ele>922.20001220703</ele>
        <time>2021-02-25T10:18:26.000Z</time>
      </trkpt>
      <trkpt lat="43.78246" lon="7.14855">
        <ele>922</ele>
        <time>2021-02-25T10:18:30.000Z</time>
      </trkpt>
      <trkpt lat="43.78244" lon="7.14834">
        <ele>921.79998779297</ele>
        <time>2021-02-25T10:18:36.000Z</time>
      </trkpt>
      <trkpt lat="43.78244" lon="7.14826">
        <ele>921.59997558594</ele>
        <time>2021-02-25T10:18:41.000Z</time>
      </trkpt>
      <trkpt lat="43.78238" lon="7.14817">
        <ele>921.59997558594</ele>
        <time>2021-02-25T10:18:45.000Z</time>
      </trkpt>
      <trkpt lat="43.78237" lon="7.14807">
        <ele>922.20001220703</ele>
        <time>2021-02-25T10:18:50.000Z</time>
      </trkpt>
      <trkpt lat="43.78231" lon="7.14797">
        <ele>921.40002441406</ele>
        <time>2021-02-25T10:18:54.000Z</time>
      </trkpt>
      <trkpt lat="43.78229" lon="7.14794">
        <ele>921.20001220703</ele>
        <time>2021-02-25T10:18:55.000Z</time>
      </trkpt>
      <trkpt lat="43.78226" lon="7.14783">
        <ele>921</ele>
        <time>2021-02-25T10:18:59.000Z</time>
      </trkpt>
      <trkpt lat="43.78227" lon="7.14781">
        <ele>920.79998779297</ele>
        <time>2021-02-25T10:19:00.000Z</time>
      </trkpt>
      <trkpt lat="43.78235" lon="7.14778">
        <ele>920.20001220703</ele>
        <time>2021-02-25T10:19:04.000Z</time>
      </trkpt>
      <trkpt lat="43.7824" lon="7.14777">
        <ele>920</ele>
        <time>2021-02-25T10:19:06.000Z</time>
      </trkpt>
      <trkpt lat="43.7825" lon="7.14776">
        <ele>919.20001220703</ele>
        <time>2021-02-25T10:19:10.000Z</time>
      </trkpt>
      <trkpt lat="43.78262" lon="7.14778">
        <ele>918.40002441406</ele>
        <time>2021-02-25T10:19:16.000Z</time>
      </trkpt>
      <trkpt lat="43.78271" lon="7.14786">
        <ele>917.79998779297</ele>
        <time>2021-02-25T10:19:20.000Z</time>
      </trkpt>
      <trkpt lat="43.78275" lon="7.14789">
        <ele>917.59997558594</ele>
        <time>2021-02-25T10:19:22.000Z</time>
      </trkpt>
      <trkpt lat="43.78282" lon="7.14787">
        <ele>917</ele>
        <time>2021-02-25T10:19:24.000Z</time>
      </trkpt>
      <trkpt lat="43.78288" lon="7.14787">
        <ele>916.59997558594</ele>
        <time>2021-02-25T10:19:27.000Z</time>
      </trkpt>
      <trkpt lat="43.78289" lon="7.14788">
        <ele>916.40002441406</ele>
        <time>2021-02-25T10:19:28.000Z</time>
      </trkpt>
      <trkpt lat="43.78289" lon="7.14788">
        <ele>915.79998779297</ele>
        <time>2021-02-25T10:19:33.000Z</time>
      </trkpt>
      <trkpt lat="43.78289" lon="7.1479">
        <ele>915.79998779297</ele>
        <time>2021-02-25T10:19:39.000Z</time>
      </trkpt>
      <trkpt lat="43.78289" lon="7.14789">
        <ele>916.40002441406</ele>
        <time>2021-02-25T10:19:46.000Z</time>
      </trkpt>
      <trkpt lat="43.78288" lon="7.14789">
        <ele>916</ele>
        <time>2021-02-25T10:20:08.000Z</time>
      </trkpt>
      <trkpt lat="43.78288" lon="7.14789">
        <ele>915.79998779297</ele>
        <time>2021-02-25T10:20:21.000Z</time>
      </trkpt>
      <trkpt lat="43.78287" lon="7.14789">
        <ele>916.20001220703</ele>
        <time>2021-02-25T10:20:35.000Z</time>
      </trkpt>
      <trkpt lat="43.78287" lon="7.1479">
        <ele>916.20001220703</ele>
        <time>2021-02-25T10:20:52.000Z</time>
      </trkpt>
      <trkpt lat="43.78287" lon="7.1479">
        <ele>916</ele>
        <time>2021-02-25T10:21:04.000Z</time>
      </trkpt>
      <trkpt lat="43.78287" lon="7.1479">
        <ele>916.79998779297</ele>
        <time>2021-02-25T10:21:11.000Z</time>
      </trkpt>
      <trkpt lat="43.78286" lon="7.1479">
        <ele>917.20001220703</ele>
        <time>2021-02-25T10:21:18.000Z</time>
      </trkpt>
      <trkpt lat="43.78284" lon="7.14788">
        <ele>917.20001220703</ele>
        <time>2021-02-25T10:21:23.000Z</time>
      </trkpt>
      <trkpt lat="43.78282" lon="7.14786">
        <ele>917.20001220703</ele>
        <time>2021-02-25T10:21:25.000Z</time>
      </trkpt>
      <trkpt lat="43.78278" lon="7.14786">
        <ele>917.20001220703</ele>
        <time>2021-02-25T10:21:27.000Z</time>
      </trkpt>
      <trkpt lat="43.78269" lon="7.14785">
        <ele>917.79998779297</ele>
        <time>2021-02-25T10:21:31.000Z</time>
      </trkpt>
      <trkpt lat="43.78267" lon="7.14784">
        <ele>917.79998779297</ele>
        <time>2021-02-25T10:21:32.000Z</time>
      </trkpt>
      <trkpt lat="43.78258" lon="7.14776">
        <ele>918.59997558594</ele>
        <time>2021-02-25T10:21:37.000Z</time>
      </trkpt>
      <trkpt lat="43.78247" lon="7.14779">
        <ele>918.79998779297</ele>
        <time>2021-02-25T10:21:42.000Z</time>
      </trkpt>
      <trkpt lat="43.78244" lon="7.14779">
        <ele>918.79998779297</ele>
        <time>2021-02-25T10:21:43.000Z</time>
      </trkpt>
      <trkpt lat="43.78233" lon="7.14779">
        <ele>919.79998779297</ele>
        <time>2021-02-25T10:21:47.000Z</time>
      </trkpt>
      <trkpt lat="43.78231" lon="7.1478">
        <ele>920.40002441406</ele>
        <time>2021-02-25T10:21:48.000Z</time>
      </trkpt>
      <trkpt lat="43.78221" lon="7.14781">
        <ele>921.40002441406</ele>
        <time>2021-02-25T10:21:52.000Z</time>
      </trkpt>
      <trkpt lat="43.78219" lon="7.14781">
        <ele>921.40002441406</ele>
        <time>2021-02-25T10:21:53.000Z</time>
      </trkpt>
      <trkpt lat="43.78216" lon="7.14781">
        <ele>921.59997558594</ele>
        <time>2021-02-25T10:21:55.000Z</time>
      </trkpt>
      <trkpt lat="43.78211" lon="7.14783">
        <ele>921.59997558594</ele>
        <time>2021-02-25T10:21:58.000Z</time>
      </trkpt>
      <trkpt lat="43.78201" lon="7.1479">
        <ele>921.40002441406</ele>
        <time>2021-02-25T10:22:03.000Z</time>
      </trkpt>
      <trkpt lat="43.78195" lon="7.14797">
        <ele>921</ele>
        <time>2021-02-25T10:22:06.000Z</time>
      </trkpt>
      <trkpt lat="43.78185" lon="7.14814">
        <ele>921.20001220703</ele>
        <time>2021-02-25T10:22:12.000Z</time>
      </trkpt>
      <trkpt lat="43.78183" lon="7.14816">
        <ele>921</ele>
        <time>2021-02-25T10:22:13.000Z</time>
      </trkpt>
      <trkpt lat="43.78177" lon="7.14815">
        <ele>922</ele>
        <time>2021-02-25T10:22:16.000Z</time>
      </trkpt>
      <trkpt lat="43.78175" lon="7.14814">
        <ele>922.20001220703</ele>
        <time>2021-02-25T10:22:17.000Z</time>
      </trkpt>
      <trkpt lat="43.78172" lon="7.14813">
        <ele>922.40002441406</ele>
        <time>2021-02-25T10:22:18.000Z</time>
      </trkpt>
      <trkpt lat="43.78167" lon="7.14812">
        <ele>922.59997558594</ele>
        <time>2021-02-25T10:22:21.000Z</time>
      </trkpt>
      <trkpt lat="43.78163" lon="7.14812">
        <ele>922.20001220703</ele>
        <time>2021-02-25T10:22:25.000Z</time>
      </trkpt>
      <trkpt lat="43.7816" lon="7.14812">
        <ele>922.20001220703</ele>
        <time>2021-02-25T10:22:30.000Z</time>
      </trkpt>
      <trkpt lat="43.78153" lon="7.1481">
        <ele>922.40002441406</ele>
        <time>2021-02-25T10:22:36.000Z</time>
      </trkpt>
      <trkpt lat="43.78153" lon="7.14809">
        <ele>922.40002441406</ele>
        <time>2021-02-25T10:22:37.000Z</time>
      </trkpt>
      <trkpt lat="43.78149" lon="7.14807">
        <ele>921.79998779297</ele>
        <time>2021-02-25T10:22:43.000Z</time>
      </trkpt>
      <trkpt lat="43.78146" lon="7.14805">
        <ele>921.59997558594</ele>
        <time>2021-02-25T10:22:48.000Z</time>
      </trkpt>
      <trkpt lat="43.78141" lon="7.14803">
        <ele>921.40002441406</ele>
        <time>2021-02-25T10:22:50.000Z</time>
      </trkpt>
      <trkpt lat="43.78129" lon="7.14801">
        <ele>920.20001220703</ele>
        <time>2021-02-25T10:22:54.000Z</time>
      </trkpt>
      <trkpt lat="43.78118" lon="7.14798">
        <ele>918.79998779297</ele>
        <time>2021-02-25T10:22:58.000Z</time>
      </trkpt>
      <trkpt lat="43.78113" lon="7.14796">
        <ele>918.40002441406</ele>
        <time>2021-02-25T10:23:00.000Z</time>
      </trkpt>
      <trkpt lat="43.78102" lon="7.14787">
        <ele>918.59997558594</ele>
        <time>2021-02-25T10:23:05.000Z</time>
      </trkpt>
      <trkpt lat="43.78096" lon="7.14783">
        <ele>918</ele>
        <time>2021-02-25T10:23:11.000Z</time>
      </trkpt>
      <trkpt lat="43.78095" lon="7.14783">
        <ele>917.59997558594</ele>
        <time>2021-02-25T10:23:13.000Z</time>
      </trkpt>
      <trkpt lat="43.78094" lon="7.14782">
        <ele>917.40002441406</ele>
        <time>2021-02-25T10:23:16.000Z</time>
      </trkpt>
      <trkpt lat="43.78092" lon="7.1478">
        <ele>917.20001220703</ele>
        <time>2021-02-25T10:23:18.000Z</time>
      </trkpt>
      <trkpt lat="43.7809" lon="7.14777">
        <ele>917</ele>
        <time>2021-02-25T10:23:21.000Z</time>
      </trkpt>
      <trkpt lat="43.78085" lon="7.14774">
        <ele>916.59997558594</ele>
        <time>2021-02-25T10:23:25.000Z</time>
      </trkpt>
      <trkpt lat="43.78083" lon="7.14772">
        <ele>916.59997558594</ele>
        <time>2021-02-25T10:23:26.000Z</time>
      </trkpt>
      <trkpt lat="43.78075" lon="7.14767">
        <ele>915.79998779297</ele>
        <time>2021-02-25T10:23:30.000Z</time>
      </trkpt>
      <trkpt lat="43.78069" lon="7.14764">
        <ele>915.59997558594</ele>
        <time>2021-02-25T10:23:32.000Z</time>
      </trkpt>
      <trkpt lat="43.78061" lon="7.14758">
        <ele>915</ele>
        <time>2021-02-25T10:23:35.000Z</time>
      </trkpt>
      <trkpt lat="43.78055" lon="7.14756">
        <ele>914.40002441406</ele>
        <time>2021-02-25T10:23:37.000Z</time>
      </trkpt>
      <trkpt lat="43.78045" lon="7.14752">
        <ele>914.20001220703</ele>
        <time>2021-02-25T10:23:40.000Z</time>
      </trkpt>
      <trkpt lat="43.7803" lon="7.14746">
        <ele>914.59997558594</ele>
        <time>2021-02-25T10:23:45.000Z</time>
      </trkpt>
      <trkpt lat="43.78021" lon="7.14748">
        <ele>914.59997558594</ele>
        <time>2021-02-25T10:23:49.000Z</time>
      </trkpt>
      <trkpt lat="43.78019" lon="7.14747">
        <ele>914.40002441406</ele>
        <time>2021-02-25T10:23:51.000Z</time>
      </trkpt>
      <trkpt lat="43.78017" lon="7.14746">
        <ele>914.59997558594</ele>
        <time>2021-02-25T10:23:54.000Z</time>
      </trkpt>
      <trkpt lat="43.78017" lon="7.14744">
        <ele>914.59997558594</ele>
        <time>2021-02-25T10:23:55.000Z</time>
      </trkpt>
      <trkpt lat="43.78015" lon="7.1474">
        <ele>914.59997558594</ele>
        <time>2021-02-25T10:23:58.000Z</time>
      </trkpt>
      <trkpt lat="43.78012" lon="7.14739">
        <ele>914.59997558594</ele>
        <time>2021-02-25T10:23:59.000Z</time>
      </trkpt>
      <trkpt lat="43.77997" lon="7.14736">
        <ele>914.40002441406</ele>
        <time>2021-02-25T10:24:05.000Z</time>
      </trkpt>
      <trkpt lat="43.77987" lon="7.14732">
        <ele>914.59997558594</ele>
        <time>2021-02-25T10:24:11.000Z</time>
      </trkpt>
      <trkpt lat="43.77986" lon="7.14732">
        <ele>914.79998779297</ele>
        <time>2021-02-25T10:24:18.000Z</time>
      </trkpt>
      <trkpt lat="43.77986" lon="7.14732">
        <ele>915</ele>
        <time>2021-02-25T10:24:24.000Z</time>
      </trkpt>
      <trkpt lat="43.77986" lon="7.14733">
        <ele>914.79998779297</ele>
        <time>2021-02-25T10:24:46.000Z</time>
      </trkpt>
      <trkpt lat="43.77985" lon="7.14733">
        <ele>915.59997558594</ele>
        <time>2021-02-25T10:25:05.000Z</time>
      </trkpt>
      <trkpt lat="43.77985" lon="7.14733">
        <ele>916.20001220703</ele>
        <time>2021-02-25T10:25:07.000Z</time>
      </trkpt>
      <trkpt lat="43.77985" lon="7.14733">
        <ele>916.59997558594</ele>
        <time>2021-02-25T10:25:10.000Z</time>
      </trkpt>
      <trkpt lat="43.77985" lon="7.14734">
        <ele>916.59997558594</ele>
        <time>2021-02-25T10:25:15.000Z</time>
      </trkpt>
      <trkpt lat="43.77984" lon="7.14735">
        <ele>916.20001220703</ele>
        <time>2021-02-25T10:25:25.000Z</time>
      </trkpt>
      <trkpt lat="43.77983" lon="7.14736">
        <ele>916</ele>
        <time>2021-02-25T10:25:26.000Z</time>
      </trkpt>
      <trkpt lat="43.77978" lon="7.14736">
        <ele>915.59997558594</ele>
        <time>2021-02-25T10:25:29.000Z</time>
      </trkpt>
      <trkpt lat="43.77976" lon="7.14735">
        <ele>915.59997558594</ele>
        <time>2021-02-25T10:25:30.000Z</time>
      </trkpt>
      <trkpt lat="43.77974" lon="7.14735">
        <ele>915.40002441406</ele>
        <time>2021-02-25T10:25:31.000Z</time>
      </trkpt>
      <trkpt lat="43.77972" lon="7.14734">
        <ele>915.20001220703</ele>
        <time>2021-02-25T10:25:32.000Z</time>
      </trkpt>
      <trkpt lat="43.77969" lon="7.14736">
        <ele>914.79998779297</ele>
        <time>2021-02-25T10:25:34.000Z</time>
      </trkpt>
      <trkpt lat="43.77967" lon="7.14736">
        <ele>914.40002441406</ele>
        <time>2021-02-25T10:25:35.000Z</time>
      </trkpt>
      <trkpt lat="43.77965" lon="7.14734">
        <ele>913.59997558594</ele>
        <time>2021-02-25T10:25:37.000Z</time>
      </trkpt>
      <trkpt lat="43.77964" lon="7.14732">
        <ele>913.20001220703</ele>
        <time>2021-02-25T10:25:39.000Z</time>
      </trkpt>
      <trkpt lat="43.77964" lon="7.14731">
        <ele>913</ele>
        <time>2021-02-25T10:25:42.000Z</time>
      </trkpt>
      <trkpt lat="43.77961" lon="7.14733">
        <ele>912.40002441406</ele>
        <time>2021-02-25T10:25:48.000Z</time>
      </trkpt>
      <trkpt lat="43.7796" lon="7.14733">
        <ele>912.20001220703</ele>
        <time>2021-02-25T10:25:49.000Z</time>
      </trkpt>
      <trkpt lat="43.77954" lon="7.1473">
        <ele>911.59997558594</ele>
        <time>2021-02-25T10:25:53.000Z</time>
      </trkpt>
      <trkpt lat="43.77948" lon="7.14727">
        <ele>911.20001220703</ele>
        <time>2021-02-25T10:25:56.000Z</time>
      </trkpt>
      <trkpt lat="43.77944" lon="7.14725">
        <ele>911</ele>
        <time>2021-02-25T10:25:58.000Z</time>
      </trkpt>
      <trkpt lat="43.77943" lon="7.14724">
        <ele>910.79998779297</ele>
        <time>2021-02-25T10:25:59.000Z</time>
      </trkpt>
      <trkpt lat="43.77938" lon="7.14725">
        <ele>910.79998779297</ele>
        <time>2021-02-25T10:26:03.000Z</time>
      </trkpt>
      <trkpt lat="43.77934" lon="7.14718">
        <ele>910</ele>
        <time>2021-02-25T10:26:08.000Z</time>
      </trkpt>
      <trkpt lat="43.77934" lon="7.14716">
        <ele>910</ele>
        <time>2021-02-25T10:26:09.000Z</time>
      </trkpt>
      <trkpt lat="43.77932" lon="7.14711">
        <ele>909.79998779297</ele>
        <time>2021-02-25T10:26:13.000Z</time>
      </trkpt>
      <trkpt lat="43.77923" lon="7.14709">
        <ele>909.59997558594</ele>
        <time>2021-02-25T10:26:18.000Z</time>
      </trkpt>
      <trkpt lat="43.77922" lon="7.14707">
        <ele>909.40002441406</ele>
        <time>2021-02-25T10:26:19.000Z</time>
      </trkpt>
      <trkpt lat="43.7792" lon="7.147">
        <ele>909</ele>
        <time>2021-02-25T10:26:22.000Z</time>
      </trkpt>
      <trkpt lat="43.77921" lon="7.14698">
        <ele>909</ele>
        <time>2021-02-25T10:26:23.000Z</time>
      </trkpt>
      <trkpt lat="43.77925" lon="7.14691">
        <ele>908.59997558594</ele>
        <time>2021-02-25T10:26:27.000Z</time>
      </trkpt>
      <trkpt lat="43.77925" lon="7.14691">
        <ele>908.59997558594</ele>
        <time>2021-02-25T10:26:30.000Z</time>
      </trkpt>
      <trkpt lat="43.77925" lon="7.14692">
        <ele>908.59997558594</ele>
        <time>2021-02-25T10:26:31.000Z</time>
      </trkpt>
      <trkpt lat="43.77925" lon="7.14692">
        <ele>908.59997558594</ele>
        <time>2021-02-25T10:26:37.000Z</time>
      </trkpt>
      <trkpt lat="43.77926" lon="7.14691">
        <ele>908.59997558594</ele>
        <time>2021-02-25T10:26:45.000Z</time>
      </trkpt>
      <trkpt lat="43.77933" lon="7.14689">
        <ele>908.79998779297</ele>
        <time>2021-02-25T10:26:49.000Z</time>
      </trkpt>
      <trkpt lat="43.77935" lon="7.14688">
        <ele>908.59997558594</ele>
        <time>2021-02-25T10:26:50.000Z</time>
      </trkpt>
      <trkpt lat="43.77937" lon="7.14688">
        <ele>909</ele>
        <time>2021-02-25T10:26:52.000Z</time>
      </trkpt>
      <trkpt lat="43.7794" lon="7.14691">
        <ele>910</ele>
        <time>2021-02-25T10:26:55.000Z</time>
      </trkpt>
      <trkpt lat="43.7794" lon="7.14694">
        <ele>910</ele>
        <time>2021-02-25T10:26:56.000Z</time>
      </trkpt>
      <trkpt lat="43.77946" lon="7.14701">
        <ele>910.59997558594</ele>
        <time>2021-02-25T10:27:02.000Z</time>
      </trkpt>
      <trkpt lat="43.77946" lon="7.14702">
        <ele>911.20001220703</ele>
        <time>2021-02-25T10:27:05.000Z</time>
      </trkpt>
      <trkpt lat="43.77945" lon="7.14702">
        <ele>911.40002441406</ele>
        <time>2021-02-25T10:27:12.000Z</time>
      </trkpt>
      <trkpt lat="43.77938" lon="7.14699">
        <ele>911.40002441406</ele>
        <time>2021-02-25T10:27:17.000Z</time>
      </trkpt>
      <trkpt lat="43.77926" lon="7.14695">
        <ele>910.59997558594</ele>
        <time>2021-02-25T10:27:22.000Z</time>
      </trkpt>
      <trkpt lat="43.77923" lon="7.14695">
        <ele>910.20001220703</ele>
        <time>2021-02-25T10:27:23.000Z</time>
      </trkpt>
      <trkpt lat="43.77915" lon="7.1469">
        <ele>908.59997558594</ele>
        <time>2021-02-25T10:27:26.000Z</time>
      </trkpt>
      <trkpt lat="43.779" lon="7.14675">
        <ele>907.79998779297</ele>
        <time>2021-02-25T10:27:32.000Z</time>
      </trkpt>
      <trkpt lat="43.77895" lon="7.14668">
        <ele>907.79998779297</ele>
        <time>2021-02-25T10:27:35.000Z</time>
      </trkpt>
      <trkpt lat="43.77894" lon="7.14663">
        <ele>908</ele>
        <time>2021-02-25T10:27:37.000Z</time>
      </trkpt>
      <trkpt lat="43.77891" lon="7.14658">
        <ele>908</ele>
        <time>2021-02-25T10:27:39.000Z</time>
      </trkpt>
      <trkpt lat="43.7789" lon="7.14655">
        <ele>908</ele>
        <time>2021-02-25T10:27:42.000Z</time>
      </trkpt>
      <trkpt lat="43.77889" lon="7.14654">
        <ele>908.59997558594</ele>
        <time>2021-02-25T10:27:50.000Z</time>
      </trkpt>
      <trkpt lat="43.77888" lon="7.14653">
        <ele>908.40002441406</ele>
        <time>2021-02-25T10:27:56.000Z</time>
      </trkpt>
      <trkpt lat="43.77887" lon="7.14653">
        <ele>908.20001220703</ele>
        <time>2021-02-25T10:28:01.000Z</time>
      </trkpt>
      <trkpt lat="43.77886" lon="7.14653">
        <ele>908.20001220703</ele>
        <time>2021-02-25T10:28:02.000Z</time>
      </trkpt>
      <trkpt lat="43.7788" lon="7.14652">
        <ele>908</ele>
        <time>2021-02-25T10:28:07.000Z</time>
      </trkpt>
      <trkpt lat="43.77872" lon="7.14652">
        <ele>908</ele>
        <time>2021-02-25T10:28:11.000Z</time>
      </trkpt>
      <trkpt lat="43.7787" lon="7.14652">
        <ele>907.59997558594</ele>
        <time>2021-02-25T10:28:14.000Z</time>
      </trkpt>
      <trkpt lat="43.7787" lon="7.14652">
        <ele>907.20001220703</ele>
        <time>2021-02-25T10:28:16.000Z</time>
      </trkpt>
      <trkpt lat="43.77863" lon="7.14651">
        <ele>907.59997558594</ele>
        <time>2021-02-25T10:28:20.000Z</time>
      </trkpt>
      <trkpt lat="43.77856" lon="7.14651">
        <ele>907.20001220703</ele>
        <time>2021-02-25T10:28:26.000Z</time>
      </trkpt>
      <trkpt lat="43.77854" lon="7.1465">
        <ele>906.79998779297</ele>
        <time>2021-02-25T10:28:35.000Z</time>
      </trkpt>
      <trkpt lat="43.7785" lon="7.1465">
        <ele>906.40002441406</ele>
        <time>2021-02-25T10:28:38.000Z</time>
      </trkpt>
      <trkpt lat="43.77845" lon="7.14649">
        <ele>906</ele>
        <time>2021-02-25T10:28:40.000Z</time>
      </trkpt>
      <trkpt lat="43.7784" lon="7.14646">
        <ele>905.40002441406</ele>
        <time>2021-02-25T10:28:42.000Z</time>
      </trkpt>
      <trkpt lat="43.77837" lon="7.14642">
        <ele>905</ele>
        <time>2021-02-25T10:28:44.000Z</time>
      </trkpt>
      <trkpt lat="43.77829" lon="7.14635">
        <ele>904.20001220703</ele>
        <time>2021-02-25T10:28:48.000Z</time>
      </trkpt>
      <trkpt lat="43.77825" lon="7.14634">
        <ele>904</ele>
        <time>2021-02-25T10:28:50.000Z</time>
      </trkpt>
      <trkpt lat="43.77818" lon="7.14634">
        <ele>903.59997558594</ele>
        <time>2021-02-25T10:28:53.000Z</time>
      </trkpt>
      <trkpt lat="43.77816" lon="7.14633">
        <ele>903.40002441406</ele>
        <time>2021-02-25T10:28:54.000Z</time>
      </trkpt>
      <trkpt lat="43.77815" lon="7.14631">
        <ele>903.20001220703</ele>
        <time>2021-02-25T10:28:55.000Z</time>
      </trkpt>
      <trkpt lat="43.77814" lon="7.14629">
        <ele>903</ele>
        <time>2021-02-25T10:28:56.000Z</time>
      </trkpt>
      <trkpt lat="43.77806" lon="7.14621">
        <ele>902.20001220703</ele>
        <time>2021-02-25T10:29:01.000Z</time>
      </trkpt>
      <trkpt lat="43.77803" lon="7.14619">
        <ele>902</ele>
        <time>2021-02-25T10:29:02.000Z</time>
      </trkpt>
      <trkpt lat="43.778" lon="7.14617">
        <ele>902</ele>
        <time>2021-02-25T10:29:03.000Z</time>
      </trkpt>
      <trkpt lat="43.77794" lon="7.14613">
        <ele>901.59997558594</ele>
        <time>2021-02-25T10:29:06.000Z</time>
      </trkpt>
      <trkpt lat="43.77788" lon="7.1461">
        <ele>901</ele>
        <time>2021-02-25T10:29:09.000Z</time>
      </trkpt>
      <trkpt lat="43.77785" lon="7.14607">
        <ele>900.40002441406</ele>
        <time>2021-02-25T10:29:12.000Z</time>
      </trkpt>
      <trkpt lat="43.77784" lon="7.14606">
        <ele>900</ele>
        <time>2021-02-25T10:29:14.000Z</time>
      </trkpt>
      <trkpt lat="43.77785" lon="7.14606">
        <ele>899.79998779297</ele>
        <time>2021-02-25T10:29:20.000Z</time>
      </trkpt>
      <trkpt lat="43.77784" lon="7.14606">
        <ele>899.59997558594</ele>
        <time>2021-02-25T10:29:30.000Z</time>
      </trkpt>
      <trkpt lat="43.77784" lon="7.14605">
        <ele>899.40002441406</ele>
        <time>2021-02-25T10:29:43.000Z</time>
      </trkpt>
      <trkpt lat="43.77782" lon="7.14602">
        <ele>899.20001220703</ele>
        <time>2021-02-25T10:29:49.000Z</time>
      </trkpt>
      <trkpt lat="43.77781" lon="7.14602">
        <ele>898.79998779297</ele>
        <time>2021-02-25T10:29:53.000Z</time>
      </trkpt>
      <trkpt lat="43.7778" lon="7.14601">
        <ele>898.79998779297</ele>
        <time>2021-02-25T10:29:56.000Z</time>
      </trkpt>
      <trkpt lat="43.77778" lon="7.146">
        <ele>898</ele>
        <time>2021-02-25T10:30:04.000Z</time>
      </trkpt>
      <trkpt lat="43.77777" lon="7.146">
        <ele>897.79998779297</ele>
        <time>2021-02-25T10:30:06.000Z</time>
      </trkpt>
      <trkpt lat="43.77773" lon="7.146">
        <ele>897.59997558594</ele>
        <time>2021-02-25T10:30:10.000Z</time>
      </trkpt>
      <trkpt lat="43.77772" lon="7.14599">
        <ele>897.40002441406</ele>
        <time>2021-02-25T10:30:11.000Z</time>
      </trkpt>
      <trkpt lat="43.77765" lon="7.14595">
        <ele>897</ele>
        <time>2021-02-25T10:30:17.000Z</time>
      </trkpt>
      <trkpt lat="43.77765" lon="7.14595">
        <ele>896.79998779297</ele>
        <time>2021-02-25T10:30:19.000Z</time>
      </trkpt>
      <trkpt lat="43.77765" lon="7.14595">
        <ele>896.59997558594</ele>
        <time>2021-02-25T10:30:24.000Z</time>
      </trkpt>
      <trkpt lat="43.77765" lon="7.14594">
        <ele>896.79998779297</ele>
        <time>2021-02-25T10:30:40.000Z</time>
      </trkpt>
      <trkpt lat="43.77765" lon="7.14593">
        <ele>896.79998779297</ele>
        <time>2021-02-25T10:30:46.000Z</time>
      </trkpt>
      <trkpt lat="43.77764" lon="7.14593">
        <ele>896.79998779297</ele>
        <time>2021-02-25T10:30:51.000Z</time>
      </trkpt>
      <trkpt lat="43.77761" lon="7.1459">
        <ele>896.79998779297</ele>
        <time>2021-02-25T10:30:56.000Z</time>
      </trkpt>
      <trkpt lat="43.7776" lon="7.14588">
        <ele>897.20001220703</ele>
        <time>2021-02-25T10:31:04.000Z</time>
      </trkpt>
      <trkpt lat="43.7776" lon="7.14587">
        <ele>897</ele>
        <time>2021-02-25T10:31:12.000Z</time>
      </trkpt>
      <trkpt lat="43.77758" lon="7.14583">
        <ele>897.20001220703</ele>
        <time>2021-02-25T10:31:20.000Z</time>
      </trkpt>
      <trkpt lat="43.77758" lon="7.14579">
        <ele>897.20001220703</ele>
        <time>2021-02-25T10:31:29.000Z</time>
      </trkpt>
      <trkpt lat="43.77755" lon="7.14574">
        <ele>896</ele>
        <time>2021-02-25T10:31:37.000Z</time>
      </trkpt>
      <trkpt lat="43.77754" lon="7.14573">
        <ele>895.79998779297</ele>
        <time>2021-02-25T10:31:40.000Z</time>
      </trkpt>
      <trkpt lat="43.77754" lon="7.14573">
        <ele>895.59997558594</ele>
        <time>2021-02-25T10:31:45.000Z</time>
      </trkpt>
      <trkpt lat="43.7775" lon="7.14573">
        <ele>895.20001220703</ele>
        <time>2021-02-25T10:31:52.000Z</time>
      </trkpt>
      <trkpt lat="43.77747" lon="7.14572">
        <ele>894.59997558594</ele>
        <time>2021-02-25T10:31:55.000Z</time>
      </trkpt>
      <trkpt lat="43.77746" lon="7.1457">
        <ele>894.20001220703</ele>
        <time>2021-02-25T10:31:57.000Z</time>
      </trkpt>
      <trkpt lat="43.77745" lon="7.14569">
        <ele>894</ele>
        <time>2021-02-25T10:31:58.000Z</time>
      </trkpt>
      <trkpt lat="43.77743" lon="7.14566">
        <ele>893.40002441406</ele>
        <time>2021-02-25T10:32:02.000Z</time>
      </trkpt>
      <trkpt lat="43.77741" lon="7.14565">
        <ele>893.40002441406</ele>
        <time>2021-02-25T10:32:05.000Z</time>
      </trkpt>
      <trkpt lat="43.7774" lon="7.14564">
        <ele>893</ele>
        <time>2021-02-25T10:32:12.000Z</time>
      </trkpt>
      <trkpt lat="43.77738" lon="7.14563">
        <ele>893</ele>
        <time>2021-02-25T10:32:19.000Z</time>
      </trkpt>
      <trkpt lat="43.77736" lon="7.1456">
        <ele>893.20001220703</ele>
        <time>2021-02-25T10:32:27.000Z</time>
      </trkpt>
      <trkpt lat="43.77731" lon="7.14558">
        <ele>893.40002441406</ele>
        <time>2021-02-25T10:32:33.000Z</time>
      </trkpt>
      <trkpt lat="43.77726" lon="7.14556">
        <ele>893.40002441406</ele>
        <time>2021-02-25T10:32:40.000Z</time>
      </trkpt>
      <trkpt lat="43.77722" lon="7.14555">
        <ele>893</ele>
        <time>2021-02-25T10:32:47.000Z</time>
      </trkpt>
      <trkpt lat="43.77718" lon="7.14551">
        <ele>892.59997558594</ele>
        <time>2021-02-25T10:32:52.000Z</time>
      </trkpt>
      <trkpt lat="43.77718" lon="7.14549">
        <ele>892.40002441406</ele>
        <time>2021-02-25T10:32:54.000Z</time>
      </trkpt>
      <trkpt lat="43.77718" lon="7.14547">
        <ele>892.20001220703</ele>
        <time>2021-02-25T10:32:56.000Z</time>
      </trkpt>
      <trkpt lat="43.77717" lon="7.14542">
        <ele>892.20001220703</ele>
        <time>2021-02-25T10:33:04.000Z</time>
      </trkpt>
      <trkpt lat="43.77716" lon="7.14536">
        <ele>892.59997558594</ele>
        <time>2021-02-25T10:33:08.000Z</time>
      </trkpt>
      <trkpt lat="43.77716" lon="7.14531">
        <ele>892.59997558594</ele>
        <time>2021-02-25T10:33:12.000Z</time>
      </trkpt>
      <trkpt lat="43.77713" lon="7.14521">
        <ele>893.20001220703</ele>
        <time>2021-02-25T10:33:20.000Z</time>
      </trkpt>
      <trkpt lat="43.77714" lon="7.14519">
        <ele>893</ele>
        <time>2021-02-25T10:33:27.000Z</time>
      </trkpt>
      <trkpt lat="43.77712" lon="7.14517">
        <ele>892.59997558594</ele>
        <time>2021-02-25T10:33:35.000Z</time>
      </trkpt>
      <trkpt lat="43.77711" lon="7.14513">
        <ele>892.40002441406</ele>
        <time>2021-02-25T10:33:39.000Z</time>
      </trkpt>
      <trkpt lat="43.7771" lon="7.14512">
        <ele>892.40002441406</ele>
        <time>2021-02-25T10:33:40.000Z</time>
      </trkpt>
      <trkpt lat="43.77705" lon="7.14498">
        <ele>892.20001220703</ele>
        <time>2021-02-25T10:33:46.000Z</time>
      </trkpt>
      <trkpt lat="43.77705" lon="7.14487">
        <ele>892.20001220703</ele>
        <time>2021-02-25T10:33:52.000Z</time>
      </trkpt>
      <trkpt lat="43.77703" lon="7.14482">
        <ele>892.40002441406</ele>
        <time>2021-02-25T10:33:55.000Z</time>
      </trkpt>
      <trkpt lat="43.77703" lon="7.1448">
        <ele>892.40002441406</ele>
        <time>2021-02-25T10:33:56.000Z</time>
      </trkpt>
      <trkpt lat="43.77703" lon="7.14473">
        <ele>892.40002441406</ele>
        <time>2021-02-25T10:33:59.000Z</time>
      </trkpt>
      <trkpt lat="43.77703" lon="7.14472">
        <ele>892.59997558594</ele>
        <time>2021-02-25T10:34:01.000Z</time>
      </trkpt>
      <trkpt lat="43.77702" lon="7.14469">
        <ele>892.59997558594</ele>
        <time>2021-02-25T10:34:07.000Z</time>
      </trkpt>
      <trkpt lat="43.77701" lon="7.14467">
        <ele>892.40002441406</ele>
        <time>2021-02-25T10:34:09.000Z</time>
      </trkpt>
      <trkpt lat="43.777" lon="7.14461">
        <ele>892.20001220703</ele>
        <time>2021-02-25T10:34:13.000Z</time>
      </trkpt>
      <trkpt lat="43.777" lon="7.14458">
        <ele>892.20001220703</ele>
        <time>2021-02-25T10:34:19.000Z</time>
      </trkpt>
      <trkpt lat="43.77699" lon="7.14448">
        <ele>892.20001220703</ele>
        <time>2021-02-25T10:34:24.000Z</time>
      </trkpt>
      <trkpt lat="43.77699" lon="7.14434">
        <ele>892</ele>
        <time>2021-02-25T10:34:30.000Z</time>
      </trkpt>
      <trkpt lat="43.77697" lon="7.14421">
        <ele>891.40002441406</ele>
        <time>2021-02-25T10:34:34.000Z</time>
      </trkpt>
      <trkpt lat="43.77697" lon="7.14417">
        <ele>891</ele>
        <time>2021-02-25T10:34:35.000Z</time>
      </trkpt>
      <trkpt lat="43.77697" lon="7.14403">
        <ele>890.40002441406</ele>
        <time>2021-02-25T10:34:38.000Z</time>
      </trkpt>
      <trkpt lat="43.77697" lon="7.14396">
        <ele>889.79998779297</ele>
        <time>2021-02-25T10:34:40.000Z</time>
      </trkpt>
      <trkpt lat="43.77695" lon="7.14391">
        <ele>889.20001220703</ele>
        <time>2021-02-25T10:34:42.000Z</time>
      </trkpt>
      <trkpt lat="43.77693" lon="7.14387">
        <ele>888.59997558594</ele>
        <time>2021-02-25T10:34:44.000Z</time>
      </trkpt>
      <trkpt lat="43.77691" lon="7.14385">
        <ele>888</ele>
        <time>2021-02-25T10:34:45.000Z</time>
      </trkpt>
      <trkpt lat="43.77688" lon="7.1438">
        <ele>886.59997558594</ele>
        <time>2021-02-25T10:34:47.000Z</time>
      </trkpt>
      <trkpt lat="43.77688" lon="7.14377">
        <ele>886</ele>
        <time>2021-02-25T10:34:48.000Z</time>
      </trkpt>
      <trkpt lat="43.77686" lon="7.14371">
        <ele>885.40002441406</ele>
        <time>2021-02-25T10:34:50.000Z</time>
      </trkpt>
      <trkpt lat="43.77682" lon="7.14366">
        <ele>884.20001220703</ele>
        <time>2021-02-25T10:34:52.000Z</time>
      </trkpt>
      <trkpt lat="43.77681" lon="7.14364">
        <ele>883.79998779297</ele>
        <time>2021-02-25T10:34:53.000Z</time>
      </trkpt>
      <trkpt lat="43.77678" lon="7.14362">
        <ele>882.79998779297</ele>
        <time>2021-02-25T10:34:54.000Z</time>
      </trkpt>
      <trkpt lat="43.77668" lon="7.14355">
        <ele>881.79998779297</ele>
        <time>2021-02-25T10:34:59.000Z</time>
      </trkpt>
      <trkpt lat="43.77664" lon="7.1435">
        <ele>881.40002441406</ele>
        <time>2021-02-25T10:35:01.000Z</time>
      </trkpt>
      <trkpt lat="43.77658" lon="7.14342">
        <ele>880.59997558594</ele>
        <time>2021-02-25T10:35:04.000Z</time>
      </trkpt>
      <trkpt lat="43.77656" lon="7.1434">
        <ele>879.59997558594</ele>
        <time>2021-02-25T10:35:05.000Z</time>
      </trkpt>
      <trkpt lat="43.77653" lon="7.14339">
        <ele>878.20001220703</ele>
        <time>2021-02-25T10:35:08.000Z</time>
      </trkpt>
      <trkpt lat="43.77653" lon="7.14338">
        <ele>877.20001220703</ele>
        <time>2021-02-25T10:35:31.000Z</time>
      </trkpt>
      <trkpt lat="43.77653" lon="7.14338">
        <ele>877.20001220703</ele>
        <time>2021-02-25T10:35:34.000Z</time>
      </trkpt>
      <trkpt lat="43.77651" lon="7.14338">
        <ele>877</ele>
        <time>2021-02-25T10:36:02.000Z</time>
      </trkpt>
      <trkpt lat="43.77649" lon="7.14335">
        <ele>876.79998779297</ele>
        <time>2021-02-25T10:36:08.000Z</time>
      </trkpt>
      <trkpt lat="43.77649" lon="7.14334">
        <ele>876.40002441406</ele>
        <time>2021-02-25T10:36:14.000Z</time>
      </trkpt>
      <trkpt lat="43.77648" lon="7.14332">
        <ele>876.40002441406</ele>
        <time>2021-02-25T10:36:20.000Z</time>
      </trkpt>
      <trkpt lat="43.77646" lon="7.14331">
        <ele>876</ele>
        <time>2021-02-25T10:36:22.000Z</time>
      </trkpt>
      <trkpt lat="43.77645" lon="7.14331">
        <ele>875.40002441406</ele>
        <time>2021-02-25T10:36:26.000Z</time>
      </trkpt>
      <trkpt lat="43.77641" lon="7.14329">
        <ele>875.20001220703</ele>
        <time>2021-02-25T10:36:32.000Z</time>
      </trkpt>
      <trkpt lat="43.7764" lon="7.14328">
        <ele>875</ele>
        <time>2021-02-25T10:36:34.000Z</time>
      </trkpt>
      <trkpt lat="43.77639" lon="7.14328">
        <ele>874</ele>
        <time>2021-02-25T10:36:38.000Z</time>
      </trkpt>
      <trkpt lat="43.77638" lon="7.14327">
        <ele>873.79998779297</ele>
        <time>2021-02-25T10:36:40.000Z</time>
      </trkpt>
      <trkpt lat="43.77634" lon="7.14324">
        <ele>873.40002441406</ele>
        <time>2021-02-25T10:36:43.000Z</time>
      </trkpt>
      <trkpt lat="43.77633" lon="7.14323">
        <ele>873.20001220703</ele>
        <time>2021-02-25T10:36:44.000Z</time>
      </trkpt>
      <trkpt lat="43.77631" lon="7.14317">
        <ele>872.59997558594</ele>
        <time>2021-02-25T10:36:47.000Z</time>
      </trkpt>
      <trkpt lat="43.77628" lon="7.14306">
        <ele>871.40002441406</ele>
        <time>2021-02-25T10:36:51.000Z</time>
      </trkpt>
      <trkpt lat="43.77627" lon="7.14302">
        <ele>870.79998779297</ele>
        <time>2021-02-25T10:36:52.000Z</time>
      </trkpt>
      <trkpt lat="43.77626" lon="7.14299">
        <ele>870.40002441406</ele>
        <time>2021-02-25T10:36:53.000Z</time>
      </trkpt>
      <trkpt lat="43.77625" lon="7.14296">
        <ele>869</ele>
        <time>2021-02-25T10:36:56.000Z</time>
      </trkpt>
      <trkpt lat="43.77626" lon="7.14296">
        <ele>868.40002441406</ele>
        <time>2021-02-25T10:37:01.000Z</time>
      </trkpt>
      <trkpt lat="43.77626" lon="7.14295">
        <ele>868.40002441406</ele>
        <time>2021-02-25T10:37:06.000Z</time>
      </trkpt>
      <trkpt lat="43.77624" lon="7.14295">
        <ele>868.40002441406</ele>
        <time>2021-02-25T10:37:14.000Z</time>
      </trkpt>
      <trkpt lat="43.77623" lon="7.14295">
        <ele>868.20001220703</ele>
        <time>2021-02-25T10:37:15.000Z</time>
      </trkpt>
      <trkpt lat="43.77619" lon="7.14293">
        <ele>867.79998779297</ele>
        <time>2021-02-25T10:37:18.000Z</time>
      </trkpt>
      <trkpt lat="43.77617" lon="7.14291">
        <ele>867.59997558594</ele>
        <time>2021-02-25T10:37:20.000Z</time>
      </trkpt>
      <trkpt lat="43.77616" lon="7.1429">
        <ele>867.40002441406</ele>
        <time>2021-02-25T10:37:21.000Z</time>
      </trkpt>
      <trkpt lat="43.77613" lon="7.14286">
        <ele>866.79998779297</ele>
        <time>2021-02-25T10:37:23.000Z</time>
      </trkpt>
      <trkpt lat="43.77611" lon="7.1428">
        <ele>866.40002441406</ele>
        <time>2021-02-25T10:37:25.000Z</time>
      </trkpt>
      <trkpt lat="43.77608" lon="7.14273">
        <ele>865.40002441406</ele>
        <time>2021-02-25T10:37:27.000Z</time>
      </trkpt>
      <trkpt lat="43.77606" lon="7.14268">
        <ele>864.79998779297</ele>
        <time>2021-02-25T10:37:29.000Z</time>
      </trkpt>
      <trkpt lat="43.77606" lon="7.14268">
        <ele>864.79998779297</ele>
        <time>2021-02-25T10:37:30.000Z</time>
      </trkpt>
      <trkpt lat="43.77606" lon="7.14267">
        <ele>864.40002441406</ele>
        <time>2021-02-25T10:37:31.000Z</time>
      </trkpt>
      <trkpt lat="43.77605" lon="7.14263">
        <ele>864</ele>
        <time>2021-02-25T10:37:37.000Z</time>
      </trkpt>
      <trkpt lat="43.77599" lon="7.14253">
        <ele>863.59997558594</ele>
        <time>2021-02-25T10:37:41.000Z</time>
      </trkpt>
      <trkpt lat="43.77597" lon="7.14249">
        <ele>863.20001220703</ele>
        <time>2021-02-25T10:37:42.000Z</time>
      </trkpt>
      <trkpt lat="43.77596" lon="7.14245">
        <ele>863</ele>
        <time>2021-02-25T10:37:43.000Z</time>
      </trkpt>
      <trkpt lat="43.77594" lon="7.1424">
        <ele>861.79998779297</ele>
        <time>2021-02-25T10:37:45.000Z</time>
      </trkpt>
      <trkpt lat="43.77593" lon="7.14238">
        <ele>861.20001220703</ele>
        <time>2021-02-25T10:37:46.000Z</time>
      </trkpt>
      <trkpt lat="43.77591" lon="7.14236">
        <ele>860.59997558594</ele>
        <time>2021-02-25T10:37:47.000Z</time>
      </trkpt>
      <trkpt lat="43.77589" lon="7.14233">
        <ele>859.79998779297</ele>
        <time>2021-02-25T10:37:49.000Z</time>
      </trkpt>
      <trkpt lat="43.77589" lon="7.14231">
        <ele>859.40002441406</ele>
        <time>2021-02-25T10:37:50.000Z</time>
      </trkpt>
      <trkpt lat="43.77588" lon="7.14221">
        <ele>858.59997558594</ele>
        <time>2021-02-25T10:37:53.000Z</time>
      </trkpt>
      <trkpt lat="43.77587" lon="7.14217">
        <ele>858.20001220703</ele>
        <time>2021-02-25T10:37:54.000Z</time>
      </trkpt>
      <trkpt lat="43.77584" lon="7.14211">
        <ele>857</ele>
        <time>2021-02-25T10:37:56.000Z</time>
      </trkpt>
      <trkpt lat="43.77582" lon="7.14207">
        <ele>856.59997558594</ele>
        <time>2021-02-25T10:37:57.000Z</time>
      </trkpt>
      <trkpt lat="43.77581" lon="7.14204">
        <ele>856</ele>
        <time>2021-02-25T10:37:58.000Z</time>
      </trkpt>
      <trkpt lat="43.77574" lon="7.142">
        <ele>854.79998779297</ele>
        <time>2021-02-25T10:38:01.000Z</time>
      </trkpt>
      <trkpt lat="43.77573" lon="7.142">
        <ele>853.40002441406</ele>
        <time>2021-02-25T10:38:03.000Z</time>
      </trkpt>
      <trkpt lat="43.77572" lon="7.142">
        <ele>852.40002441406</ele>
        <time>2021-02-25T10:38:05.000Z</time>
      </trkpt>
      <trkpt lat="43.77572" lon="7.142">
        <ele>852</ele>
        <time>2021-02-25T10:38:06.000Z</time>
      </trkpt>
      <trkpt lat="43.77572" lon="7.142">
        <ele>851</ele>
        <time>2021-02-25T10:38:14.000Z</time>
      </trkpt>
      <trkpt lat="43.77572" lon="7.142">
        <ele>850.59997558594</ele>
        <time>2021-02-25T10:38:21.000Z</time>
      </trkpt>
      <trkpt lat="43.77571" lon="7.142">
        <ele>850.79998779297</ele>
        <time>2021-02-25T10:38:33.000Z</time>
      </trkpt>
      <trkpt lat="43.77562" lon="7.14198">
        <ele>850.59997558594</ele>
        <time>2021-02-25T10:38:37.000Z</time>
      </trkpt>
      <trkpt lat="43.77554" lon="7.14194">
        <ele>849.79998779297</ele>
        <time>2021-02-25T10:38:40.000Z</time>
      </trkpt>
      <trkpt lat="43.7755" lon="7.14189">
        <ele>849</ele>
        <time>2021-02-25T10:38:42.000Z</time>
      </trkpt>
      <trkpt lat="43.77548" lon="7.14187">
        <ele>848.59997558594</ele>
        <time>2021-02-25T10:38:43.000Z</time>
      </trkpt>
      <trkpt lat="43.77545" lon="7.14185">
        <ele>848</ele>
        <time>2021-02-25T10:38:44.000Z</time>
      </trkpt>
      <trkpt lat="43.77542" lon="7.14182">
        <ele>847.40002441406</ele>
        <time>2021-02-25T10:38:45.000Z</time>
      </trkpt>
      <trkpt lat="43.77539" lon="7.1418">
        <ele>846.59997558594</ele>
        <time>2021-02-25T10:38:46.000Z</time>
      </trkpt>
      <trkpt lat="43.77536" lon="7.14178">
        <ele>845.79998779297</ele>
        <time>2021-02-25T10:38:47.000Z</time>
      </trkpt>
      <trkpt lat="43.77534" lon="7.14176">
        <ele>844.79998779297</ele>
        <time>2021-02-25T10:38:48.000Z</time>
      </trkpt>
      <trkpt lat="43.77531" lon="7.14173">
        <ele>844.20001220703</ele>
        <time>2021-02-25T10:38:49.000Z</time>
      </trkpt>
      <trkpt lat="43.77521" lon="7.14164">
        <ele>842.79998779297</ele>
        <time>2021-02-25T10:38:52.000Z</time>
      </trkpt>
      <trkpt lat="43.77513" lon="7.14159">
        <ele>842</ele>
        <time>2021-02-25T10:38:54.000Z</time>
      </trkpt>
      <trkpt lat="43.7751" lon="7.14155">
        <ele>840.79998779297</ele>
        <time>2021-02-25T10:38:55.000Z</time>
      </trkpt>
      <trkpt lat="43.77509" lon="7.14152">
        <ele>839.79998779297</ele>
        <time>2021-02-25T10:38:56.000Z</time>
      </trkpt>
      <trkpt lat="43.77507" lon="7.14147">
        <ele>838.40002441406</ele>
        <time>2021-02-25T10:38:57.000Z</time>
      </trkpt>
      <trkpt lat="43.77504" lon="7.14143">
        <ele>837.40002441406</ele>
        <time>2021-02-25T10:38:58.000Z</time>
      </trkpt>
      <trkpt lat="43.77502" lon="7.14139">
        <ele>835.40002441406</ele>
        <time>2021-02-25T10:38:59.000Z</time>
      </trkpt>
      <trkpt lat="43.77499" lon="7.14132">
        <ele>833.20001220703</ele>
        <time>2021-02-25T10:39:01.000Z</time>
      </trkpt>
      <trkpt lat="43.77498" lon="7.14129">
        <ele>831.20001220703</ele>
        <time>2021-02-25T10:39:02.000Z</time>
      </trkpt>
      <trkpt lat="43.77498" lon="7.14121">
        <ele>829.20001220703</ele>
        <time>2021-02-25T10:39:04.000Z</time>
      </trkpt>
      <trkpt lat="43.77499" lon="7.14113">
        <ele>827.20001220703</ele>
        <time>2021-02-25T10:39:06.000Z</time>
      </trkpt>
      <trkpt lat="43.77497" lon="7.14106">
        <ele>825.79998779297</ele>
        <time>2021-02-25T10:39:08.000Z</time>
      </trkpt>
      <trkpt lat="43.77497" lon="7.14101">
        <ele>824.40002441406</ele>
        <time>2021-02-25T10:39:10.000Z</time>
      </trkpt>
      <trkpt lat="43.77497" lon="7.14096">
        <ele>823</ele>
        <time>2021-02-25T10:39:12.000Z</time>
      </trkpt>
      <trkpt lat="43.77495" lon="7.14092">
        <ele>821.20001220703</ele>
        <time>2021-02-25T10:39:14.000Z</time>
      </trkpt>
      <trkpt lat="43.77496" lon="7.14087">
        <ele>819.40002441406</ele>
        <time>2021-02-25T10:39:16.000Z</time>
      </trkpt>
      <trkpt lat="43.77497" lon="7.14084">
        <ele>818.59997558594</ele>
        <time>2021-02-25T10:39:17.000Z</time>
      </trkpt>
      <trkpt lat="43.77497" lon="7.14082">
        <ele>817.40002441406</ele>
        <time>2021-02-25T10:39:18.000Z</time>
      </trkpt>
      <trkpt lat="43.77498" lon="7.14082">
        <ele>816.40002441406</ele>
        <time>2021-02-25T10:39:20.000Z</time>
      </trkpt>
      <trkpt lat="43.77498" lon="7.14082">
        <ele>815.79998779297</ele>
        <time>2021-02-25T10:39:22.000Z</time>
      </trkpt>
      <trkpt lat="43.77498" lon="7.14081">
        <ele>815.40002441406</ele>
        <time>2021-02-25T10:39:29.000Z</time>
      </trkpt>
      <trkpt lat="43.77498" lon="7.14081">
        <ele>815.20001220703</ele>
        <time>2021-02-25T10:39:37.000Z</time>
      </trkpt>
      <trkpt lat="43.77497" lon="7.14081">
        <ele>814.40002441406</ele>
        <time>2021-02-25T10:39:47.000Z</time>
      </trkpt>
      <trkpt lat="43.77497" lon="7.14081">
        <ele>814.20001220703</ele>
        <time>2021-02-25T10:39:50.000Z</time>
      </trkpt>
      <trkpt lat="43.77496" lon="7.14079">
        <ele>813.59997558594</ele>
        <time>2021-02-25T10:40:21.000Z</time>
      </trkpt>
      <trkpt lat="43.77497" lon="7.14079">
        <ele>813.20001220703</ele>
        <time>2021-02-25T10:40:37.000Z</time>
      </trkpt>
      <trkpt lat="43.77497" lon="7.14079">
        <ele>813.20001220703</ele>
        <time>2021-02-25T10:40:38.000Z</time>
      </trkpt>
      <trkpt lat="43.77497" lon="7.14078">
        <ele>813.20001220703</ele>
        <time>2021-02-25T10:40:44.000Z</time>
      </trkpt>
      <trkpt lat="43.77497" lon="7.14079">
        <ele>813.20001220703</ele>
        <time>2021-02-25T10:40:52.000Z</time>
      </trkpt>
      <trkpt lat="43.77497" lon="7.1408">
        <ele>812.79998779297</ele>
        <time>2021-02-25T10:41:05.000Z</time>
      </trkpt>
      <trkpt lat="43.77496" lon="7.14079">
        <ele>813</ele>
        <time>2021-02-25T10:41:18.000Z</time>
      </trkpt>
      <trkpt lat="43.77496" lon="7.14079">
        <ele>812.79998779297</ele>
        <time>2021-02-25T10:41:30.000Z</time>
      </trkpt>
      <trkpt lat="43.77497" lon="7.1408">
        <ele>813.40002441406</ele>
        <time>2021-02-25T10:41:36.000Z</time>
      </trkpt>
      <trkpt lat="43.77498" lon="7.14077">
        <ele>812.59997558594</ele>
        <time>2021-02-25T10:41:44.000Z</time>
      </trkpt>
      <trkpt lat="43.77498" lon="7.14075">
        <ele>812.20001220703</ele>
        <time>2021-02-25T10:41:48.000Z</time>
      </trkpt>
      <trkpt lat="43.77499" lon="7.14073">
        <ele>811.79998779297</ele>
        <time>2021-02-25T10:41:51.000Z</time>
      </trkpt>
      <trkpt lat="43.775" lon="7.14072">
        <ele>811.79998779297</ele>
        <time>2021-02-25T10:41:52.000Z</time>
      </trkpt>
      <trkpt lat="43.77501" lon="7.14071">
        <ele>811.40002441406</ele>
        <time>2021-02-25T10:41:56.000Z</time>
      </trkpt>
      <trkpt lat="43.77501" lon="7.1407">
        <ele>811.40002441406</ele>
        <time>2021-02-25T10:42:01.000Z</time>
      </trkpt>
      <trkpt lat="43.77501" lon="7.14069">
        <ele>811.59997558594</ele>
        <time>2021-02-25T10:42:11.000Z</time>
      </trkpt>
      <trkpt lat="43.77502" lon="7.14068">
        <ele>811.59997558594</ele>
        <time>2021-02-25T10:42:12.000Z</time>
      </trkpt>
      <trkpt lat="43.7751" lon="7.14068">
        <ele>812.20001220703</ele>
        <time>2021-02-25T10:42:17.000Z</time>
      </trkpt>
      <trkpt lat="43.77514" lon="7.14066">
        <ele>813.20001220703</ele>
        <time>2021-02-25T10:42:20.000Z</time>
      </trkpt>
      <trkpt lat="43.77515" lon="7.14065">
        <ele>813.40002441406</ele>
        <time>2021-02-25T10:42:21.000Z</time>
      </trkpt>
      <trkpt lat="43.77519" lon="7.14063">
        <ele>813.59997558594</ele>
        <time>2021-02-25T10:42:23.000Z</time>
      </trkpt>
      <trkpt lat="43.77524" lon="7.14066">
        <ele>814</ele>
        <time>2021-02-25T10:42:27.000Z</time>
      </trkpt>
      <trkpt lat="43.77525" lon="7.14067">
        <ele>814.40002441406</ele>
        <time>2021-02-25T10:42:29.000Z</time>
      </trkpt>
      <trkpt lat="43.77528" lon="7.14067">
        <ele>815</ele>
        <time>2021-02-25T10:42:33.000Z</time>
      </trkpt>
      <trkpt lat="43.77539" lon="7.14065">
        <ele>814.79998779297</ele>
        <time>2021-02-25T10:42:38.000Z</time>
      </trkpt>
      <trkpt lat="43.77553" lon="7.14059">
        <ele>814.79998779297</ele>
        <time>2021-02-25T10:42:43.000Z</time>
      </trkpt>
      <trkpt lat="43.77562" lon="7.14055">
        <ele>814.40002441406</ele>
        <time>2021-02-25T10:42:48.000Z</time>
      </trkpt>
      <trkpt lat="43.77563" lon="7.14054">
        <ele>813.40002441406</ele>
        <time>2021-02-25T10:42:53.000Z</time>
      </trkpt>
      <trkpt lat="43.77563" lon="7.14054">
        <ele>813.40002441406</ele>
        <time>2021-02-25T10:42:57.000Z</time>
      </trkpt>
      <trkpt lat="43.77562" lon="7.14053">
        <ele>813.40002441406</ele>
        <time>2021-02-25T10:43:02.000Z</time>
      </trkpt>
      <trkpt lat="43.77562" lon="7.14052">
        <ele>814</ele>
        <time>2021-02-25T10:43:12.000Z</time>
      </trkpt>
      <trkpt lat="43.77562" lon="7.14051">
        <ele>813.79998779297</ele>
        <time>2021-02-25T10:43:13.000Z</time>
      </trkpt>
      <trkpt lat="43.77563" lon="7.14043">
        <ele>813.59997558594</ele>
        <time>2021-02-25T10:43:16.000Z</time>
      </trkpt>
      <trkpt lat="43.77562" lon="7.14039">
        <ele>813.59997558594</ele>
        <time>2021-02-25T10:43:17.000Z</time>
      </trkpt>
      <trkpt lat="43.77561" lon="7.14036">
        <ele>813.59997558594</ele>
        <time>2021-02-25T10:43:20.000Z</time>
      </trkpt>
      <trkpt lat="43.77561" lon="7.14036">
        <ele>813.40002441406</ele>
        <time>2021-02-25T10:43:27.000Z</time>
      </trkpt>
      <trkpt lat="43.7756" lon="7.14035">
        <ele>813</ele>
        <time>2021-02-25T10:43:40.000Z</time>
      </trkpt>
      <trkpt lat="43.77559" lon="7.14032">
        <ele>812.59997558594</ele>
        <time>2021-02-25T10:43:45.000Z</time>
      </trkpt>
      <trkpt lat="43.77559" lon="7.14032">
        <ele>813.59997558594</ele>
        <time>2021-02-25T10:43:51.000Z</time>
      </trkpt>
      <trkpt lat="43.77559" lon="7.14031">
        <ele>813.40002441406</ele>
        <time>2021-02-25T10:44:00.000Z</time>
      </trkpt>
      <trkpt lat="43.7756" lon="7.14033">
        <ele>814</ele>
        <time>2021-02-25T10:44:07.000Z</time>
      </trkpt>
      <trkpt lat="43.77561" lon="7.14034">
        <ele>813.79998779297</ele>
        <time>2021-02-25T10:44:08.000Z</time>
      </trkpt>
      <trkpt lat="43.77561" lon="7.14035">
        <ele>813.79998779297</ele>
        <time>2021-02-25T10:44:10.000Z</time>
      </trkpt>
      <trkpt lat="43.77562" lon="7.14035">
        <ele>813.59997558594</ele>
        <time>2021-02-25T10:44:13.000Z</time>
      </trkpt>
      <trkpt lat="43.77561" lon="7.14034">
        <ele>813.40002441406</ele>
        <time>2021-02-25T10:44:24.000Z</time>
      </trkpt>
      <trkpt lat="43.77558" lon="7.14028">
        <ele>813.40002441406</ele>
        <time>2021-02-25T10:44:30.000Z</time>
      </trkpt>
      <trkpt lat="43.77559" lon="7.14023">
        <ele>814</ele>
        <time>2021-02-25T10:44:36.000Z</time>
      </trkpt>
      <trkpt lat="43.77558" lon="7.14021">
        <ele>814.59997558594</ele>
        <time>2021-02-25T10:44:38.000Z</time>
      </trkpt>
      <trkpt lat="43.77556" lon="7.14017">
        <ele>815</ele>
        <time>2021-02-25T10:44:42.000Z</time>
      </trkpt>
      <trkpt lat="43.77553" lon="7.14011">
        <ele>815</ele>
        <time>2021-02-25T10:44:48.000Z</time>
      </trkpt>
      <trkpt lat="43.77553" lon="7.1401">
        <ele>814.20001220703</ele>
        <time>2021-02-25T10:44:53.000Z</time>
      </trkpt>
      <trkpt lat="43.77552" lon="7.14006">
        <ele>813.79998779297</ele>
        <time>2021-02-25T10:44:59.000Z</time>
      </trkpt>
      <trkpt lat="43.7755" lon="7.13994">
        <ele>813.59997558594</ele>
        <time>2021-02-25T10:45:03.000Z</time>
      </trkpt>
      <trkpt lat="43.77549" lon="7.13978">
        <ele>813.20001220703</ele>
        <time>2021-02-25T10:45:07.000Z</time>
      </trkpt>
      <trkpt lat="43.77547" lon="7.13972">
        <ele>814</ele>
        <time>2021-02-25T10:45:11.000Z</time>
      </trkpt>
      <trkpt lat="43.77545" lon="7.13963">
        <ele>813.79998779297</ele>
        <time>2021-02-25T10:45:15.000Z</time>
      </trkpt>
      <trkpt lat="43.77545" lon="7.13959">
        <ele>813.79998779297</ele>
        <time>2021-02-25T10:45:19.000Z</time>
      </trkpt>
      <trkpt lat="43.77546" lon="7.13949">
        <ele>813.79998779297</ele>
        <time>2021-02-25T10:45:23.000Z</time>
      </trkpt>
      <trkpt lat="43.77548" lon="7.13934">
        <ele>814.40002441406</ele>
        <time>2021-02-25T10:45:27.000Z</time>
      </trkpt>
      <trkpt lat="43.77551" lon="7.13929">
        <ele>814.79998779297</ele>
        <time>2021-02-25T10:45:29.000Z</time>
      </trkpt>
      <trkpt lat="43.77552" lon="7.13928">
        <ele>815</ele>
        <time>2021-02-25T10:45:30.000Z</time>
      </trkpt>
      <trkpt lat="43.77551" lon="7.13929">
        <ele>815.59997558594</ele>
        <time>2021-02-25T10:45:31.000Z</time>
      </trkpt>
      <trkpt lat="43.77552" lon="7.13929">
        <ele>816.20001220703</ele>
        <time>2021-02-25T10:45:32.000Z</time>
      </trkpt>
      <trkpt lat="43.77553" lon="7.13929">
        <ele>817.20001220703</ele>
        <time>2021-02-25T10:45:36.000Z</time>
      </trkpt>
      <trkpt lat="43.77553" lon="7.1393">
        <ele>817.20001220703</ele>
        <time>2021-02-25T10:45:38.000Z</time>
      </trkpt>
      <trkpt lat="43.77555" lon="7.13927">
        <ele>817.79998779297</ele>
        <time>2021-02-25T10:45:44.000Z</time>
      </trkpt>
      <trkpt lat="43.77556" lon="7.13925">
        <ele>818.40002441406</ele>
        <time>2021-02-25T10:45:46.000Z</time>
      </trkpt>
      <trkpt lat="43.77557" lon="7.13923">
        <ele>818.79998779297</ele>
        <time>2021-02-25T10:45:48.000Z</time>
      </trkpt>
      <trkpt lat="43.77558" lon="7.1392">
        <ele>819</ele>
        <time>2021-02-25T10:45:50.000Z</time>
      </trkpt>
      <trkpt lat="43.77558" lon="7.13913">
        <ele>819</ele>
        <time>2021-02-25T10:45:56.000Z</time>
      </trkpt>
      <trkpt lat="43.77558" lon="7.13909">
        <ele>819.20001220703</ele>
        <time>2021-02-25T10:46:00.000Z</time>
      </trkpt>
      <trkpt lat="43.77557" lon="7.13908">
        <ele>819.40002441406</ele>
        <time>2021-02-25T10:46:01.000Z</time>
      </trkpt>
      <trkpt lat="43.77554" lon="7.13902">
        <ele>819</ele>
        <time>2021-02-25T10:46:08.000Z</time>
      </trkpt>
      <trkpt lat="43.77555" lon="7.13899">
        <ele>819.59997558594</ele>
        <time>2021-02-25T10:46:15.000Z</time>
      </trkpt>
      <trkpt lat="43.77556" lon="7.13897">
        <ele>820.20001220703</ele>
        <time>2021-02-25T10:46:22.000Z</time>
      </trkpt>
      <trkpt lat="43.77556" lon="7.13896">
        <ele>820.40002441406</ele>
        <time>2021-02-25T10:46:26.000Z</time>
      </trkpt>
      <trkpt lat="43.77556" lon="7.13896">
        <ele>820.59997558594</ele>
        <time>2021-02-25T10:46:27.000Z</time>
      </trkpt>
      <trkpt lat="43.77557" lon="7.13894">
        <ele>821.40002441406</ele>
        <time>2021-02-25T10:46:37.000Z</time>
      </trkpt>
      <trkpt lat="43.77557" lon="7.13893">
        <ele>821.79998779297</ele>
        <time>2021-02-25T10:46:38.000Z</time>
      </trkpt>
      <trkpt lat="43.7756" lon="7.13889">
        <ele>822.79998779297</ele>
        <time>2021-02-25T10:46:44.000Z</time>
      </trkpt>
      <trkpt lat="43.7756" lon="7.13889">
        <ele>823.40002441406</ele>
        <time>2021-02-25T10:46:52.000Z</time>
      </trkpt>
      <trkpt lat="43.77561" lon="7.13885">
        <ele>823.40002441406</ele>
        <time>2021-02-25T10:46:59.000Z</time>
      </trkpt>
      <trkpt lat="43.77562" lon="7.1388">
        <ele>823</ele>
        <time>2021-02-25T10:47:02.000Z</time>
      </trkpt>
      <trkpt lat="43.77564" lon="7.13877">
        <ele>822.59997558594</ele>
        <time>2021-02-25T10:47:04.000Z</time>
      </trkpt>
      <trkpt lat="43.77565" lon="7.13875">
        <ele>821.79998779297</ele>
        <time>2021-02-25T10:47:07.000Z</time>
      </trkpt>
      <trkpt lat="43.77566" lon="7.13875">
        <ele>822</ele>
        <time>2021-02-25T10:47:08.000Z</time>
      </trkpt>
      <trkpt lat="43.77565" lon="7.1387">
        <ele>822</ele>
        <time>2021-02-25T10:47:14.000Z</time>
      </trkpt>
      <trkpt lat="43.77565" lon="7.13866">
        <ele>821.40002441406</ele>
        <time>2021-02-25T10:47:17.000Z</time>
      </trkpt>
      <trkpt lat="43.77567" lon="7.13858">
        <ele>821</ele>
        <time>2021-02-25T10:47:19.000Z</time>
      </trkpt>
      <trkpt lat="43.77568" lon="7.13855">
        <ele>820.59997558594</ele>
        <time>2021-02-25T10:47:20.000Z</time>
      </trkpt>
      <trkpt lat="43.77571" lon="7.13847">
        <ele>819.40002441406</ele>
        <time>2021-02-25T10:47:23.000Z</time>
      </trkpt>
      <trkpt lat="43.7757" lon="7.13848">
        <ele>819.20001220703</ele>
        <time>2021-02-25T10:47:24.000Z</time>
      </trkpt>
      <trkpt lat="43.77571" lon="7.13847">
        <ele>818.40002441406</ele>
        <time>2021-02-25T10:47:26.000Z</time>
      </trkpt>
      <trkpt lat="43.77571" lon="7.13846">
        <ele>818.20001220703</ele>
        <time>2021-02-25T10:47:39.000Z</time>
      </trkpt>
      <trkpt lat="43.7757" lon="7.13844">
        <ele>818</ele>
        <time>2021-02-25T10:48:02.000Z</time>
      </trkpt>
      <trkpt lat="43.77569" lon="7.13844">
        <ele>818.59997558594</ele>
        <time>2021-02-25T10:48:13.000Z</time>
      </trkpt>
      <trkpt lat="43.77569" lon="7.13843">
        <ele>818.20001220703</ele>
        <time>2021-02-25T10:48:23.000Z</time>
      </trkpt>
      <trkpt lat="43.77572" lon="7.13834">
        <ele>818</ele>
        <time>2021-02-25T10:48:37.000Z</time>
      </trkpt>
      <trkpt lat="43.77576" lon="7.13823">
        <ele>817.79998779297</ele>
        <time>2021-02-25T10:48:41.000Z</time>
      </trkpt>
      <trkpt lat="43.77576" lon="7.13804">
        <ele>818</ele>
        <time>2021-02-25T10:48:46.000Z</time>
      </trkpt>
      <trkpt lat="43.77572" lon="7.13799">
        <ele>818.40002441406</ele>
        <time>2021-02-25T10:48:49.000Z</time>
      </trkpt>
      <trkpt lat="43.7757" lon="7.13796">
        <ele>819.20001220703</ele>
        <time>2021-02-25T10:48:51.000Z</time>
      </trkpt>
      <trkpt lat="43.77569" lon="7.13794">
        <ele>819.79998779297</ele>
        <time>2021-02-25T10:48:52.000Z</time>
      </trkpt>
      <trkpt lat="43.7757" lon="7.13786">
        <ele>820.79998779297</ele>
        <time>2021-02-25T10:48:55.000Z</time>
      </trkpt>
      <trkpt lat="43.7757" lon="7.13778">
        <ele>821.79998779297</ele>
        <time>2021-02-25T10:48:59.000Z</time>
      </trkpt>
      <trkpt lat="43.77571" lon="7.13773">
        <ele>822.20001220703</ele>
        <time>2021-02-25T10:49:01.000Z</time>
      </trkpt>
      <trkpt lat="43.77572" lon="7.13769">
        <ele>823</ele>
        <time>2021-02-25T10:49:03.000Z</time>
      </trkpt>
      <trkpt lat="43.77576" lon="7.13762">
        <ele>823.79998779297</ele>
        <time>2021-02-25T10:49:06.000Z</time>
      </trkpt>
      <trkpt lat="43.77576" lon="7.13761">
        <ele>824.40002441406</ele>
        <time>2021-02-25T10:49:07.000Z</time>
      </trkpt>
      <trkpt lat="43.77576" lon="7.13761">
        <ele>825.40002441406</ele>
        <time>2021-02-25T10:49:10.000Z</time>
      </trkpt>
      <trkpt lat="43.77574" lon="7.13757">
        <ele>826.59997558594</ele>
        <time>2021-02-25T10:49:15.000Z</time>
      </trkpt>
      <trkpt lat="43.77572" lon="7.13755">
        <ele>827</ele>
        <time>2021-02-25T10:49:17.000Z</time>
      </trkpt>
      <trkpt lat="43.7757" lon="7.13752">
        <ele>827.59997558594</ele>
        <time>2021-02-25T10:49:20.000Z</time>
      </trkpt>
      <trkpt lat="43.77569" lon="7.1375">
        <ele>828.20001220703</ele>
        <time>2021-02-25T10:49:24.000Z</time>
      </trkpt>
      <trkpt lat="43.77571" lon="7.1375">
        <ele>828.59997558594</ele>
        <time>2021-02-25T10:49:27.000Z</time>
      </trkpt>
      <trkpt lat="43.77574" lon="7.13749">
        <ele>828.40002441406</ele>
        <time>2021-02-25T10:49:29.000Z</time>
      </trkpt>
      <trkpt lat="43.77578" lon="7.13745">
        <ele>828.79998779297</ele>
        <time>2021-02-25T10:49:32.000Z</time>
      </trkpt>
      <trkpt lat="43.77578" lon="7.1374">
        <ele>829.59997558594</ele>
        <time>2021-02-25T10:49:35.000Z</time>
      </trkpt>
      <trkpt lat="43.77577" lon="7.13732">
        <ele>830</ele>
        <time>2021-02-25T10:49:38.000Z</time>
      </trkpt>
      <trkpt lat="43.77575" lon="7.13728">
        <ele>830.59997558594</ele>
        <time>2021-02-25T10:49:40.000Z</time>
      </trkpt>
      <trkpt lat="43.77573" lon="7.13725">
        <ele>831.20001220703</ele>
        <time>2021-02-25T10:49:42.000Z</time>
      </trkpt>
      <trkpt lat="43.7757" lon="7.13722">
        <ele>831.59997558594</ele>
        <time>2021-02-25T10:49:44.000Z</time>
      </trkpt>
      <trkpt lat="43.7757" lon="7.1372">
        <ele>831.79998779297</ele>
        <time>2021-02-25T10:49:45.000Z</time>
      </trkpt>
      <trkpt lat="43.77571" lon="7.13718">
        <ele>832</ele>
        <time>2021-02-25T10:49:46.000Z</time>
      </trkpt>
      <trkpt lat="43.77573" lon="7.13713">
        <ele>832.20001220703</ele>
        <time>2021-02-25T10:49:48.000Z</time>
      </trkpt>
      <trkpt lat="43.77573" lon="7.13705">
        <ele>833</ele>
        <time>2021-02-25T10:49:51.000Z</time>
      </trkpt>
      <trkpt lat="43.77573" lon="7.137">
        <ele>833.20001220703</ele>
        <time>2021-02-25T10:49:53.000Z</time>
      </trkpt>
      <trkpt lat="43.77576" lon="7.13695">
        <ele>833.40002441406</ele>
        <time>2021-02-25T10:49:55.000Z</time>
      </trkpt>
      <trkpt lat="43.77577" lon="7.13685">
        <ele>833.59997558594</ele>
        <time>2021-02-25T10:49:59.000Z</time>
      </trkpt>
      <trkpt lat="43.77578" lon="7.1368">
        <ele>834</ele>
        <time>2021-02-25T10:50:01.000Z</time>
      </trkpt>
      <trkpt lat="43.77579" lon="7.13676">
        <ele>834.59997558594</ele>
        <time>2021-02-25T10:50:03.000Z</time>
      </trkpt>
      <trkpt lat="43.77575" lon="7.13669">
        <ele>835.20001220703</ele>
        <time>2021-02-25T10:50:07.000Z</time>
      </trkpt>
      <trkpt lat="43.77573" lon="7.13663">
        <ele>835.59997558594</ele>
        <time>2021-02-25T10:50:09.000Z</time>
      </trkpt>
      <trkpt lat="43.77572" lon="7.13656">
        <ele>836</ele>
        <time>2021-02-25T10:50:11.000Z</time>
      </trkpt>
      <trkpt lat="43.7757" lon="7.13631">
        <ele>836.20001220703</ele>
        <time>2021-02-25T10:50:17.000Z</time>
      </trkpt>
      <trkpt lat="43.77567" lon="7.13605">
        <ele>836</ele>
        <time>2021-02-25T10:50:23.000Z</time>
      </trkpt>
      <trkpt lat="43.77564" lon="7.13583">
        <ele>836</ele>
        <time>2021-02-25T10:50:28.000Z</time>
      </trkpt>
      <trkpt lat="43.7756" lon="7.13564">
        <ele>836.40002441406</ele>
        <time>2021-02-25T10:50:33.000Z</time>
      </trkpt>
      <trkpt lat="43.77561" lon="7.13561">
        <ele>836.40002441406</ele>
        <time>2021-02-25T10:50:34.000Z</time>
      </trkpt>
      <trkpt lat="43.77563" lon="7.13557">
        <ele>836.59997558594</ele>
        <time>2021-02-25T10:50:36.000Z</time>
      </trkpt>
      <trkpt lat="43.77566" lon="7.13552">
        <ele>837</ele>
        <time>2021-02-25T10:50:39.000Z</time>
      </trkpt>
      <trkpt lat="43.77571" lon="7.13543">
        <ele>836.59997558594</ele>
        <time>2021-02-25T10:50:44.000Z</time>
      </trkpt>
      <trkpt lat="43.77574" lon="7.13541">
        <ele>836.40002441406</ele>
        <time>2021-02-25T10:50:46.000Z</time>
      </trkpt>
      <trkpt lat="43.77574" lon="7.1354">
        <ele>836.40002441406</ele>
        <time>2021-02-25T10:50:47.000Z</time>
      </trkpt>
      <trkpt lat="43.77574" lon="7.13534">
        <ele>836</ele>
        <time>2021-02-25T10:50:49.000Z</time>
      </trkpt>
      <trkpt lat="43.77572" lon="7.13527">
        <ele>835.79998779297</ele>
        <time>2021-02-25T10:50:51.000Z</time>
      </trkpt>
      <trkpt lat="43.77572" lon="7.13524">
        <ele>835.40002441406</ele>
        <time>2021-02-25T10:50:52.000Z</time>
      </trkpt>
      <trkpt lat="43.77573" lon="7.13521">
        <ele>835.20001220703</ele>
        <time>2021-02-25T10:50:53.000Z</time>
      </trkpt>
      <trkpt lat="43.77575" lon="7.13519">
        <ele>835.20001220703</ele>
        <time>2021-02-25T10:50:54.000Z</time>
      </trkpt>
      <trkpt lat="43.7758" lon="7.13511">
        <ele>834.20001220703</ele>
        <time>2021-02-25T10:50:58.000Z</time>
      </trkpt>
      <trkpt lat="43.77579" lon="7.13512">
        <ele>834</ele>
        <time>2021-02-25T10:50:59.000Z</time>
      </trkpt>
      <trkpt lat="43.7758" lon="7.13511">
        <ele>833</ele>
        <time>2021-02-25T10:51:02.000Z</time>
      </trkpt>
      <trkpt lat="43.77583" lon="7.13507">
        <ele>833</ele>
        <time>2021-02-25T10:51:12.000Z</time>
      </trkpt>
      <trkpt lat="43.77591" lon="7.13494">
        <ele>832.59997558594</ele>
        <time>2021-02-25T10:51:16.000Z</time>
      </trkpt>
      <trkpt lat="43.77595" lon="7.13486">
        <ele>831.79998779297</ele>
        <time>2021-02-25T10:51:18.000Z</time>
      </trkpt>
      <trkpt lat="43.77596" lon="7.13479">
        <ele>831</ele>
        <time>2021-02-25T10:51:20.000Z</time>
      </trkpt>
      <trkpt lat="43.77606" lon="7.13461">
        <ele>830.59997558594</ele>
        <time>2021-02-25T10:51:25.000Z</time>
      </trkpt>
      <trkpt lat="43.77607" lon="7.13459">
        <ele>830.79998779297</ele>
        <time>2021-02-25T10:51:26.000Z</time>
      </trkpt>
      <trkpt lat="43.77607" lon="7.13458">
        <ele>830.40002441406</ele>
        <time>2021-02-25T10:51:29.000Z</time>
      </trkpt>
      <trkpt lat="43.77607" lon="7.13457">
        <ele>830</ele>
        <time>2021-02-25T10:51:36.000Z</time>
      </trkpt>
      <trkpt lat="43.77606" lon="7.13456">
        <ele>829.59997558594</ele>
        <time>2021-02-25T10:51:39.000Z</time>
      </trkpt>
      <trkpt lat="43.77607" lon="7.13455">
        <ele>830</ele>
        <time>2021-02-25T10:51:44.000Z</time>
      </trkpt>
      <trkpt lat="43.77607" lon="7.13454">
        <ele>830.20001220703</ele>
        <time>2021-02-25T10:51:52.000Z</time>
      </trkpt>
      <trkpt lat="43.77607" lon="7.13454">
        <ele>830</ele>
        <time>2021-02-25T10:51:56.000Z</time>
      </trkpt>
      <trkpt lat="43.77608" lon="7.13454">
        <ele>829.79998779297</ele>
        <time>2021-02-25T10:52:03.000Z</time>
      </trkpt>
      <trkpt lat="43.77608" lon="7.13453">
        <ele>829.79998779297</ele>
        <time>2021-02-25T10:52:13.000Z</time>
      </trkpt>
      <trkpt lat="43.77608" lon="7.13454">
        <ele>829.79998779297</ele>
        <time>2021-02-25T10:52:17.000Z</time>
      </trkpt>
      <trkpt lat="43.77608" lon="7.13453">
        <ele>829.40002441406</ele>
        <time>2021-02-25T10:52:22.000Z</time>
      </trkpt>
      <trkpt lat="43.77609" lon="7.13453">
        <ele>829.20001220703</ele>
        <time>2021-02-25T10:52:35.000Z</time>
      </trkpt>
      <trkpt lat="43.77609" lon="7.13453">
        <ele>829.40002441406</ele>
        <time>2021-02-25T10:52:41.000Z</time>
      </trkpt>
      <trkpt lat="43.77609" lon="7.13453">
        <ele>829</ele>
        <time>2021-02-25T10:52:47.000Z</time>
      </trkpt>
      <trkpt lat="43.77608" lon="7.13452">
        <ele>829.20001220703</ele>
        <time>2021-02-25T10:52:56.000Z</time>
      </trkpt>
      <trkpt lat="43.77608" lon="7.13451">
        <ele>829</ele>
        <time>2021-02-25T10:53:03.000Z</time>
      </trkpt>
      <trkpt lat="43.77608" lon="7.1345">
        <ele>829.20001220703</ele>
        <time>2021-02-25T10:53:08.000Z</time>
      </trkpt>
      <trkpt lat="43.77608" lon="7.1345">
        <ele>829</ele>
        <time>2021-02-25T10:53:18.000Z</time>
      </trkpt>
      <trkpt lat="43.77608" lon="7.1345">
        <ele>829.20001220703</ele>
        <time>2021-02-25T10:53:28.000Z</time>
      </trkpt>
      <trkpt lat="43.77609" lon="7.13448">
        <ele>829.20001220703</ele>
        <time>2021-02-25T10:53:38.000Z</time>
      </trkpt>
      <trkpt lat="43.77613" lon="7.1344">
        <ele>829.20001220703</ele>
        <time>2021-02-25T10:53:43.000Z</time>
      </trkpt>
      <trkpt lat="43.77613" lon="7.13441">
        <ele>829.79998779297</ele>
        <time>2021-02-25T10:53:48.000Z</time>
      </trkpt>
      <trkpt lat="43.77613" lon="7.1344">
        <ele>829.79998779297</ele>
        <time>2021-02-25T10:53:54.000Z</time>
      </trkpt>
      <trkpt lat="43.77612" lon="7.13439">
        <ele>829.79998779297</ele>
        <time>2021-02-25T10:54:02.000Z</time>
      </trkpt>
      <trkpt lat="43.77613" lon="7.13433">
        <ele>830</ele>
        <time>2021-02-25T10:54:10.000Z</time>
      </trkpt>
      <trkpt lat="43.77613" lon="7.13423">
        <ele>829.59997558594</ele>
        <time>2021-02-25T10:54:14.000Z</time>
      </trkpt>
      <trkpt lat="43.77612" lon="7.13407">
        <ele>829.40002441406</ele>
        <time>2021-02-25T10:54:18.000Z</time>
      </trkpt>
      <trkpt lat="43.77607" lon="7.13385">
        <ele>829.79998779297</ele>
        <time>2021-02-25T10:54:23.000Z</time>
      </trkpt>
      <trkpt lat="43.77607" lon="7.13371">
        <ele>830.79998779297</ele>
        <time>2021-02-25T10:54:26.000Z</time>
      </trkpt>
      <trkpt lat="43.77606" lon="7.13362">
        <ele>831.79998779297</ele>
        <time>2021-02-25T10:54:28.000Z</time>
      </trkpt>
      <trkpt lat="43.77606" lon="7.13356">
        <ele>833</ele>
        <time>2021-02-25T10:54:30.000Z</time>
      </trkpt>
      <trkpt lat="43.77605" lon="7.13347">
        <ele>833.79998779297</ele>
        <time>2021-02-25T10:54:33.000Z</time>
      </trkpt>
      <trkpt lat="43.77604" lon="7.13345">
        <ele>834</ele>
        <time>2021-02-25T10:54:34.000Z</time>
      </trkpt>
      <trkpt lat="43.77604" lon="7.13338">
        <ele>834.79998779297</ele>
        <time>2021-02-25T10:54:37.000Z</time>
      </trkpt>
      <trkpt lat="43.77605" lon="7.13335">
        <ele>835.20001220703</ele>
        <time>2021-02-25T10:54:38.000Z</time>
      </trkpt>
      <trkpt lat="43.77605" lon="7.13335">
        <ele>836</ele>
        <time>2021-02-25T10:54:41.000Z</time>
      </trkpt>
      <trkpt lat="43.77606" lon="7.13334">
        <ele>836.20001220703</ele>
        <time>2021-02-25T10:54:42.000Z</time>
      </trkpt>
      <trkpt lat="43.77607" lon="7.13332">
        <ele>836.40002441406</ele>
        <time>2021-02-25T10:54:43.000Z</time>
      </trkpt>
      <trkpt lat="43.77608" lon="7.13328">
        <ele>836.79998779297</ele>
        <time>2021-02-25T10:54:46.000Z</time>
      </trkpt>
      <trkpt lat="43.77607" lon="7.13327">
        <ele>837</ele>
        <time>2021-02-25T10:54:50.000Z</time>
      </trkpt>
      <trkpt lat="43.77608" lon="7.13326">
        <ele>837.40002441406</ele>
        <time>2021-02-25T10:54:53.000Z</time>
      </trkpt>
      <trkpt lat="43.77609" lon="7.13322">
        <ele>838</ele>
        <time>2021-02-25T10:54:57.000Z</time>
      </trkpt>
      <trkpt lat="43.77608" lon="7.13319">
        <ele>838.59997558594</ele>
        <time>2021-02-25T10:55:00.000Z</time>
      </trkpt>
      <trkpt lat="43.77608" lon="7.13318">
        <ele>839</ele>
        <time>2021-02-25T10:55:03.000Z</time>
      </trkpt>
      <trkpt lat="43.77607" lon="7.13314">
        <ele>839.20001220703</ele>
        <time>2021-02-25T10:55:13.000Z</time>
      </trkpt>
      <trkpt lat="43.77606" lon="7.13309">
        <ele>839.59997558594</ele>
        <time>2021-02-25T10:55:17.000Z</time>
      </trkpt>
      <trkpt lat="43.77606" lon="7.13308">
        <ele>840</ele>
        <time>2021-02-25T10:55:20.000Z</time>
      </trkpt>
      <trkpt lat="43.77606" lon="7.13306">
        <ele>840.59997558594</ele>
        <time>2021-02-25T10:55:24.000Z</time>
      </trkpt>
      <trkpt lat="43.77606" lon="7.13306">
        <ele>840.40002441406</ele>
        <time>2021-02-25T10:55:29.000Z</time>
      </trkpt>
      <trkpt lat="43.77606" lon="7.13306">
        <ele>840.59997558594</ele>
        <time>2021-02-25T10:55:40.000Z</time>
      </trkpt>
      <trkpt lat="43.77607" lon="7.13304">
        <ele>840.59997558594</ele>
        <time>2021-02-25T10:55:47.000Z</time>
      </trkpt>
      <trkpt lat="43.77608" lon="7.13299">
        <ele>840.40002441406</ele>
        <time>2021-02-25T10:55:49.000Z</time>
      </trkpt>
      <trkpt lat="43.77608" lon="7.13292">
        <ele>840.79998779297</ele>
        <time>2021-02-25T10:55:53.000Z</time>
      </trkpt>
      <trkpt lat="43.77605" lon="7.13286">
        <ele>841.59997558594</ele>
        <time>2021-02-25T10:55:56.000Z</time>
      </trkpt>
      <trkpt lat="43.77603" lon="7.13282">
        <ele>842.40002441406</ele>
        <time>2021-02-25T10:55:58.000Z</time>
      </trkpt>
      <trkpt lat="43.77603" lon="7.13281">
        <ele>842.59997558594</ele>
        <time>2021-02-25T10:55:59.000Z</time>
      </trkpt>
      <trkpt lat="43.77603" lon="7.13278">
        <ele>843</ele>
        <time>2021-02-25T10:56:00.000Z</time>
      </trkpt>
      <trkpt lat="43.77603" lon="7.13275">
        <ele>843.40002441406</ele>
        <time>2021-02-25T10:56:02.000Z</time>
      </trkpt>
      <trkpt lat="43.77605" lon="7.13266">
        <ele>844.20001220703</ele>
        <time>2021-02-25T10:56:06.000Z</time>
      </trkpt>
      <trkpt lat="43.77602" lon="7.13258">
        <ele>845.20001220703</ele>
        <time>2021-02-25T10:56:10.000Z</time>
      </trkpt>
      <trkpt lat="43.77601" lon="7.13256">
        <ele>845.40002441406</ele>
        <time>2021-02-25T10:56:11.000Z</time>
      </trkpt>
      <trkpt lat="43.77598" lon="7.13251">
        <ele>846.40002441406</ele>
        <time>2021-02-25T10:56:14.000Z</time>
      </trkpt>
      <trkpt lat="43.77598" lon="7.13251">
        <ele>847</ele>
        <time>2021-02-25T10:56:16.000Z</time>
      </trkpt>
      <trkpt lat="43.77598" lon="7.1325">
        <ele>847.59997558594</ele>
        <time>2021-02-25T10:56:20.000Z</time>
      </trkpt>
      <trkpt lat="43.77598" lon="7.13248">
        <ele>847.59997558594</ele>
        <time>2021-02-25T10:56:23.000Z</time>
      </trkpt>
      <trkpt lat="43.77598" lon="7.13248">
        <ele>847.79998779297</ele>
        <time>2021-02-25T10:56:29.000Z</time>
      </trkpt>
      <trkpt lat="43.77599" lon="7.13243">
        <ele>848.20001220703</ele>
        <time>2021-02-25T10:56:37.000Z</time>
      </trkpt>
      <trkpt lat="43.77599" lon="7.13242">
        <ele>848.59997558594</ele>
        <time>2021-02-25T10:56:38.000Z</time>
      </trkpt>
      <trkpt lat="43.776" lon="7.13238">
        <ele>849.40002441406</ele>
        <time>2021-02-25T10:56:44.000Z</time>
      </trkpt>
      <trkpt lat="43.776" lon="7.13237">
        <ele>849.59997558594</ele>
        <time>2021-02-25T10:56:45.000Z</time>
      </trkpt>
      <trkpt lat="43.776" lon="7.13236">
        <ele>850.59997558594</ele>
        <time>2021-02-25T10:56:51.000Z</time>
      </trkpt>
      <trkpt lat="43.776" lon="7.13236">
        <ele>850.59997558594</ele>
        <time>2021-02-25T10:56:52.000Z</time>
      </trkpt>
      <trkpt lat="43.77598" lon="7.13231">
        <ele>850.59997558594</ele>
        <time>2021-02-25T10:56:56.000Z</time>
      </trkpt>
      <trkpt lat="43.77598" lon="7.1323">
        <ele>850.59997558594</ele>
        <time>2021-02-25T10:56:57.000Z</time>
      </trkpt>
      <trkpt lat="43.77594" lon="7.13217">
        <ele>851.59997558594</ele>
        <time>2021-02-25T10:57:03.000Z</time>
      </trkpt>
      <trkpt lat="43.77594" lon="7.13215">
        <ele>851.79998779297</ele>
        <time>2021-02-25T10:57:04.000Z</time>
      </trkpt>
      <trkpt lat="43.77592" lon="7.13207">
        <ele>853.20001220703</ele>
        <time>2021-02-25T10:57:07.000Z</time>
      </trkpt>
      <trkpt lat="43.77592" lon="7.13206">
        <ele>853.59997558594</ele>
        <time>2021-02-25T10:57:08.000Z</time>
      </trkpt>
      <trkpt lat="43.7759" lon="7.13201">
        <ele>854.20001220703</ele>
        <time>2021-02-25T10:57:10.000Z</time>
      </trkpt>
      <trkpt lat="43.77585" lon="7.13194">
        <ele>854.59997558594</ele>
        <time>2021-02-25T10:57:13.000Z</time>
      </trkpt>
      <trkpt lat="43.77582" lon="7.13187">
        <ele>855.40002441406</ele>
        <time>2021-02-25T10:57:16.000Z</time>
      </trkpt>
      <trkpt lat="43.7758" lon="7.13182">
        <ele>855.79998779297</ele>
        <time>2021-02-25T10:57:18.000Z</time>
      </trkpt>
      <trkpt lat="43.77577" lon="7.13174">
        <ele>856.59997558594</ele>
        <time>2021-02-25T10:57:21.000Z</time>
      </trkpt>
      <trkpt lat="43.77572" lon="7.13163">
        <ele>857</ele>
        <time>2021-02-25T10:57:25.000Z</time>
      </trkpt>
      <trkpt lat="43.7757" lon="7.13151">
        <ele>857.79998779297</ele>
        <time>2021-02-25T10:57:29.000Z</time>
      </trkpt>
      <trkpt lat="43.7757" lon="7.13136">
        <ele>858.40002441406</ele>
        <time>2021-02-25T10:57:33.000Z</time>
      </trkpt>
      <trkpt lat="43.7757" lon="7.13129">
        <ele>859</ele>
        <time>2021-02-25T10:57:35.000Z</time>
      </trkpt>
      <trkpt lat="43.77571" lon="7.13114">
        <ele>860</ele>
        <time>2021-02-25T10:57:39.000Z</time>
      </trkpt>
      <trkpt lat="43.77574" lon="7.13091">
        <ele>860</ele>
        <time>2021-02-25T10:57:44.000Z</time>
      </trkpt>
      <trkpt lat="43.7758" lon="7.13071">
        <ele>860.40002441406</ele>
        <time>2021-02-25T10:57:49.000Z</time>
      </trkpt>
      <trkpt lat="43.77581" lon="7.13047">
        <ele>861</ele>
        <time>2021-02-25T10:57:54.000Z</time>
      </trkpt>
      <trkpt lat="43.77586" lon="7.13015">
        <ele>860.59997558594</ele>
        <time>2021-02-25T10:58:00.000Z</time>
      </trkpt>
      <trkpt lat="43.77593" lon="7.12994">
        <ele>860.79998779297</ele>
        <time>2021-02-25T10:58:05.000Z</time>
      </trkpt>
      <trkpt lat="43.77603" lon="7.12973">
        <ele>861.20001220703</ele>
        <time>2021-02-25T10:58:10.000Z</time>
      </trkpt>
      <trkpt lat="43.77606" lon="7.12967">
        <ele>861.59997558594</ele>
        <time>2021-02-25T10:58:12.000Z</time>
      </trkpt>
      <trkpt lat="43.77618" lon="7.12946">
        <ele>862</ele>
        <time>2021-02-25T10:58:18.000Z</time>
      </trkpt>
      <trkpt lat="43.7763" lon="7.12923">
        <ele>862</ele>
        <time>2021-02-25T10:58:24.000Z</time>
      </trkpt>
      <trkpt lat="43.77636" lon="7.12893">
        <ele>862</ele>
        <time>2021-02-25T10:58:30.000Z</time>
      </trkpt>
      <trkpt lat="43.7764" lon="7.12872">
        <ele>862.20001220703</ele>
        <time>2021-02-25T10:58:35.000Z</time>
      </trkpt>
      <trkpt lat="43.7764" lon="7.12867">
        <ele>862.40002441406</ele>
        <time>2021-02-25T10:58:36.000Z</time>
      </trkpt>
      <trkpt lat="43.7764" lon="7.12854">
        <ele>863.59997558594</ele>
        <time>2021-02-25T10:58:39.000Z</time>
      </trkpt>
      <trkpt lat="43.7764" lon="7.12847">
        <ele>864.20001220703</ele>
        <time>2021-02-25T10:58:41.000Z</time>
      </trkpt>
      <trkpt lat="43.7764" lon="7.12838">
        <ele>864.59997558594</ele>
        <time>2021-02-25T10:58:43.000Z</time>
      </trkpt>
      <trkpt lat="43.77642" lon="7.12824">
        <ele>865.40002441406</ele>
        <time>2021-02-25T10:58:46.000Z</time>
      </trkpt>
      <trkpt lat="43.77644" lon="7.12816">
        <ele>865.79998779297</ele>
        <time>2021-02-25T10:58:48.000Z</time>
      </trkpt>
      <trkpt lat="43.77648" lon="7.12797">
        <ele>865.79998779297</ele>
        <time>2021-02-25T10:58:53.000Z</time>
      </trkpt>
      <trkpt lat="43.7765" lon="7.12776">
        <ele>866.20001220703</ele>
        <time>2021-02-25T10:58:58.000Z</time>
      </trkpt>
      <trkpt lat="43.77657" lon="7.1277">
        <ele>866.79998779297</ele>
        <time>2021-02-25T10:59:01.000Z</time>
      </trkpt>
      <trkpt lat="43.7766" lon="7.12768">
        <ele>867</ele>
        <time>2021-02-25T10:59:02.000Z</time>
      </trkpt>
      <trkpt lat="43.77667" lon="7.12762">
        <ele>868</ele>
        <time>2021-02-25T10:59:06.000Z</time>
      </trkpt>
      <trkpt lat="43.77668" lon="7.1276">
        <ele>868.20001220703</ele>
        <time>2021-02-25T10:59:07.000Z</time>
      </trkpt>
      <trkpt lat="43.77675" lon="7.12756">
        <ele>869</ele>
        <time>2021-02-25T10:59:12.000Z</time>
      </trkpt>
      <trkpt lat="43.77686" lon="7.12748">
        <ele>869.40002441406</ele>
        <time>2021-02-25T10:59:18.000Z</time>
      </trkpt>
      <trkpt lat="43.77694" lon="7.12741">
        <ele>869</ele>
        <time>2021-02-25T10:59:23.000Z</time>
      </trkpt>
      <trkpt lat="43.77709" lon="7.12725">
        <ele>867.79998779297</ele>
        <time>2021-02-25T10:59:28.000Z</time>
      </trkpt>
      <trkpt lat="43.77721" lon="7.12714">
        <ele>866.40002441406</ele>
        <time>2021-02-25T10:59:31.000Z</time>
      </trkpt>
      <trkpt lat="43.77726" lon="7.12711">
        <ele>866.40002441406</ele>
        <time>2021-02-25T10:59:32.000Z</time>
      </trkpt>
      <trkpt lat="43.77735" lon="7.12705">
        <ele>865.20001220703</ele>
        <time>2021-02-25T10:59:35.000Z</time>
      </trkpt>
      <trkpt lat="43.77735" lon="7.12705">
        <ele>865</ele>
        <time>2021-02-25T10:59:36.000Z</time>
      </trkpt>
      <trkpt lat="43.77735" lon="7.12704">
        <ele>864.20001220703</ele>
        <time>2021-02-25T10:59:40.000Z</time>
      </trkpt>
      <trkpt lat="43.77735" lon="7.12704">
        <ele>864</ele>
        <time>2021-02-25T10:59:44.000Z</time>
      </trkpt>
      <trkpt lat="43.77734" lon="7.12704">
        <ele>863.20001220703</ele>
        <time>2021-02-25T11:00:07.000Z</time>
      </trkpt>
      <trkpt lat="43.77734" lon="7.12703">
        <ele>863</ele>
        <time>2021-02-25T11:00:10.000Z</time>
      </trkpt>
      <trkpt lat="43.77735" lon="7.12703">
        <ele>863.20001220703</ele>
        <time>2021-02-25T11:00:11.000Z</time>
      </trkpt>
      <trkpt lat="43.77735" lon="7.12704">
        <ele>863.20001220703</ele>
        <time>2021-02-25T11:00:17.000Z</time>
      </trkpt>
      <trkpt lat="43.77736" lon="7.12702">
        <ele>862.79998779297</ele>
        <time>2021-02-25T11:00:33.000Z</time>
      </trkpt>
      <trkpt lat="43.77739" lon="7.127">
        <ele>862.59997558594</ele>
        <time>2021-02-25T11:00:37.000Z</time>
      </trkpt>
      <trkpt lat="43.7774" lon="7.12699">
        <ele>862</ele>
        <time>2021-02-25T11:00:42.000Z</time>
      </trkpt>
      <trkpt lat="43.7774" lon="7.12699">
        <ele>862</ele>
        <time>2021-02-25T11:00:49.000Z</time>
      </trkpt>
      <trkpt lat="43.7774" lon="7.12699">
        <ele>861.79998779297</ele>
        <time>2021-02-25T11:01:14.000Z</time>
      </trkpt>
      <trkpt lat="43.7774" lon="7.12698">
        <ele>861.59997558594</ele>
        <time>2021-02-25T11:01:26.000Z</time>
      </trkpt>
      <trkpt lat="43.7774" lon="7.12698">
        <ele>861.40002441406</ele>
        <time>2021-02-25T11:01:42.000Z</time>
      </trkpt>
      <trkpt lat="43.7774" lon="7.12699">
        <ele>861.59997558594</ele>
        <time>2021-02-25T11:01:52.000Z</time>
      </trkpt>
      <trkpt lat="43.77739" lon="7.12698">
        <ele>861</ele>
        <time>2021-02-25T11:02:18.000Z</time>
      </trkpt>
      <trkpt lat="43.7774" lon="7.12699">
        <ele>861</ele>
        <time>2021-02-25T11:02:30.000Z</time>
      </trkpt>
      <trkpt lat="43.77741" lon="7.12698">
        <ele>860.79998779297</ele>
        <time>2021-02-25T11:02:40.000Z</time>
      </trkpt>
      <trkpt lat="43.77741" lon="7.12697">
        <ele>861</ele>
        <time>2021-02-25T11:02:50.000Z</time>
      </trkpt>
      <trkpt lat="43.77744" lon="7.12692">
        <ele>861</ele>
        <time>2021-02-25T11:02:52.000Z</time>
      </trkpt>
      <trkpt lat="43.77759" lon="7.12682">
        <ele>860.20001220703</ele>
        <time>2021-02-25T11:02:56.000Z</time>
      </trkpt>
      <trkpt lat="43.77763" lon="7.12679">
        <ele>860</ele>
        <time>2021-02-25T11:02:57.000Z</time>
      </trkpt>
      <trkpt lat="43.77778" lon="7.12678">
        <ele>858.79998779297</ele>
        <time>2021-02-25T11:03:00.000Z</time>
      </trkpt>
      <trkpt lat="43.77787" lon="7.12675">
        <ele>858.20001220703</ele>
        <time>2021-02-25T11:03:02.000Z</time>
      </trkpt>
      <trkpt lat="43.77802" lon="7.12669">
        <ele>858</ele>
        <time>2021-02-25T11:03:05.000Z</time>
      </trkpt>
      <trkpt lat="43.77807" lon="7.12666">
        <ele>857.79998779297</ele>
        <time>2021-02-25T11:03:06.000Z</time>
      </trkpt>
      <trkpt lat="43.77813" lon="7.12663">
        <ele>857.59997558594</ele>
        <time>2021-02-25T11:03:07.000Z</time>
      </trkpt>
      <trkpt lat="43.77824" lon="7.12659">
        <ele>857.20001220703</ele>
        <time>2021-02-25T11:03:09.000Z</time>
      </trkpt>
      <trkpt lat="43.7783" lon="7.12658">
        <ele>857.20001220703</ele>
        <time>2021-02-25T11:03:10.000Z</time>
      </trkpt>
      <trkpt lat="43.77845" lon="7.12658">
        <ele>856.79998779297</ele>
        <time>2021-02-25T11:03:13.000Z</time>
      </trkpt>
      <trkpt lat="43.77864" lon="7.1266">
        <ele>857</ele>
        <time>2021-02-25T11:03:17.000Z</time>
      </trkpt>
      <trkpt lat="43.77874" lon="7.1267">
        <ele>857.40002441406</ele>
        <time>2021-02-25T11:03:21.000Z</time>
      </trkpt>
      <trkpt lat="43.77883" lon="7.12676">
        <ele>858.79998779297</ele>
        <time>2021-02-25T11:03:24.000Z</time>
      </trkpt>
      <trkpt lat="43.77885" lon="7.12678">
        <ele>859.20001220703</ele>
        <time>2021-02-25T11:03:25.000Z</time>
      </trkpt>
      <trkpt lat="43.77887" lon="7.1268">
        <ele>860</ele>
        <time>2021-02-25T11:03:26.000Z</time>
      </trkpt>
      <trkpt lat="43.77892" lon="7.12681">
        <ele>861.20001220703</ele>
        <time>2021-02-25T11:03:28.000Z</time>
      </trkpt>
      <trkpt lat="43.77899" lon="7.12682">
        <ele>862.20001220703</ele>
        <time>2021-02-25T11:03:30.000Z</time>
      </trkpt>
      <trkpt lat="43.77902" lon="7.12683">
        <ele>862.40002441406</ele>
        <time>2021-02-25T11:03:31.000Z</time>
      </trkpt>
      <trkpt lat="43.77913" lon="7.12683">
        <ele>863</ele>
        <time>2021-02-25T11:03:35.000Z</time>
      </trkpt>
      <trkpt lat="43.77928" lon="7.12687">
        <ele>863.40002441406</ele>
        <time>2021-02-25T11:03:39.000Z</time>
      </trkpt>
      <trkpt lat="43.7794" lon="7.1269">
        <ele>862.59997558594</ele>
        <time>2021-02-25T11:03:43.000Z</time>
      </trkpt>
      <trkpt lat="43.77954" lon="7.12682">
        <ele>862.79998779297</ele>
        <time>2021-02-25T11:03:47.000Z</time>
      </trkpt>
      <trkpt lat="43.7797" lon="7.12667">
        <ele>861.79998779297</ele>
        <time>2021-02-25T11:03:51.000Z</time>
      </trkpt>
      <trkpt lat="43.77982" lon="7.12656">
        <ele>861.20001220703</ele>
        <time>2021-02-25T11:03:54.000Z</time>
      </trkpt>
      <trkpt lat="43.77988" lon="7.12653">
        <ele>861</ele>
        <time>2021-02-25T11:03:56.000Z</time>
      </trkpt>
      <trkpt lat="43.77991" lon="7.12651">
        <ele>861</ele>
        <time>2021-02-25T11:03:57.000Z</time>
      </trkpt>
      <trkpt lat="43.78005" lon="7.12645">
        <ele>861</ele>
        <time>2021-02-25T11:04:01.000Z</time>
      </trkpt>
      <trkpt lat="43.78007" lon="7.12643">
        <ele>861</ele>
        <time>2021-02-25T11:04:04.000Z</time>
      </trkpt>
      <trkpt lat="43.78007" lon="7.12642">
        <ele>860.20001220703</ele>
        <time>2021-02-25T11:04:17.000Z</time>
      </trkpt>
      <trkpt lat="43.78007" lon="7.12642">
        <ele>859.79998779297</ele>
        <time>2021-02-25T11:04:29.000Z</time>
      </trkpt>
      <trkpt lat="43.78007" lon="7.12641">
        <ele>859.20001220703</ele>
        <time>2021-02-25T11:04:42.000Z</time>
      </trkpt>
      <trkpt lat="43.7801" lon="7.12634">
        <ele>859</ele>
        <time>2021-02-25T11:04:47.000Z</time>
      </trkpt>
      <trkpt lat="43.78014" lon="7.12623">
        <ele>858.40002441406</ele>
        <time>2021-02-25T11:04:52.000Z</time>
      </trkpt>
      <trkpt lat="43.78014" lon="7.12618">
        <ele>858</ele>
        <time>2021-02-25T11:04:53.000Z</time>
      </trkpt>
      <trkpt lat="43.78015" lon="7.12602">
        <ele>857.40002441406</ele>
        <time>2021-02-25T11:04:56.000Z</time>
      </trkpt>
      <trkpt lat="43.78015" lon="7.12596">
        <ele>857.40002441406</ele>
        <time>2021-02-25T11:04:57.000Z</time>
      </trkpt>
      <trkpt lat="43.78016" lon="7.12589">
        <ele>856.79998779297</ele>
        <time>2021-02-25T11:04:58.000Z</time>
      </trkpt>
      <trkpt lat="43.7802" lon="7.12583">
        <ele>856.59997558594</ele>
        <time>2021-02-25T11:04:59.000Z</time>
      </trkpt>
      <trkpt lat="43.78028" lon="7.12566">
        <ele>855.59997558594</ele>
        <time>2021-02-25T11:05:02.000Z</time>
      </trkpt>
      <trkpt lat="43.78027" lon="7.12558">
        <ele>855.59997558594</ele>
        <time>2021-02-25T11:05:03.000Z</time>
      </trkpt>
      <trkpt lat="43.78032" lon="7.12543">
        <ele>854.40002441406</ele>
        <time>2021-02-25T11:05:05.000Z</time>
      </trkpt>
      <trkpt lat="43.78033" lon="7.12536">
        <ele>853.79998779297</ele>
        <time>2021-02-25T11:05:06.000Z</time>
      </trkpt>
      <trkpt lat="43.78034" lon="7.12518">
        <ele>852.79998779297</ele>
        <time>2021-02-25T11:05:08.000Z</time>
      </trkpt>
      <trkpt lat="43.78036" lon="7.1251">
        <ele>851.40002441406</ele>
        <time>2021-02-25T11:05:09.000Z</time>
      </trkpt>
      <trkpt lat="43.78036" lon="7.12491">
        <ele>849.40002441406</ele>
        <time>2021-02-25T11:05:11.000Z</time>
      </trkpt>
      <trkpt lat="43.78036" lon="7.12482">
        <ele>847.79998779297</ele>
        <time>2021-02-25T11:05:12.000Z</time>
      </trkpt>
      <trkpt lat="43.78037" lon="7.12472">
        <ele>846.40002441406</ele>
        <time>2021-02-25T11:05:13.000Z</time>
      </trkpt>
      <trkpt lat="43.78038" lon="7.12462">
        <ele>845.40002441406</ele>
        <time>2021-02-25T11:05:14.000Z</time>
      </trkpt>
      <trkpt lat="43.78038" lon="7.12453">
        <ele>844</ele>
        <time>2021-02-25T11:05:15.000Z</time>
      </trkpt>
      <trkpt lat="43.7804" lon="7.12445">
        <ele>842.59997558594</ele>
        <time>2021-02-25T11:05:16.000Z</time>
      </trkpt>
      <trkpt lat="43.78043" lon="7.12436">
        <ele>841.59997558594</ele>
        <time>2021-02-25T11:05:17.000Z</time>
      </trkpt>
      <trkpt lat="43.78046" lon="7.12417">
        <ele>839.59997558594</ele>
        <time>2021-02-25T11:05:19.000Z</time>
      </trkpt>
      <trkpt lat="43.78045" lon="7.1241">
        <ele>838.59997558594</ele>
        <time>2021-02-25T11:05:20.000Z</time>
      </trkpt>
      <trkpt lat="43.78045" lon="7.124">
        <ele>837.79998779297</ele>
        <time>2021-02-25T11:05:22.000Z</time>
      </trkpt>
      <trkpt lat="43.78048" lon="7.12394">
        <ele>837.40002441406</ele>
        <time>2021-02-25T11:05:23.000Z</time>
      </trkpt>
      <trkpt lat="43.78056" lon="7.12382">
        <ele>837.20001220703</ele>
        <time>2021-02-25T11:05:25.000Z</time>
      </trkpt>
      <trkpt lat="43.78065" lon="7.12372">
        <ele>836.20001220703</ele>
        <time>2021-02-25T11:05:27.000Z</time>
      </trkpt>
      <trkpt lat="43.78069" lon="7.12361">
        <ele>834.40002441406</ele>
        <time>2021-02-25T11:05:29.000Z</time>
      </trkpt>
      <trkpt lat="43.7807" lon="7.12355">
        <ele>832.59997558594</ele>
        <time>2021-02-25T11:05:30.000Z</time>
      </trkpt>
      <trkpt lat="43.78071" lon="7.12348">
        <ele>831.20001220703</ele>
        <time>2021-02-25T11:05:31.000Z</time>
      </trkpt>
      <trkpt lat="43.78073" lon="7.1234">
        <ele>829.79998779297</ele>
        <time>2021-02-25T11:05:32.000Z</time>
      </trkpt>
      <trkpt lat="43.78075" lon="7.12331">
        <ele>828.59997558594</ele>
        <time>2021-02-25T11:05:33.000Z</time>
      </trkpt>
      <trkpt lat="43.78078" lon="7.12318">
        <ele>826.59997558594</ele>
        <time>2021-02-25T11:05:35.000Z</time>
      </trkpt>
      <trkpt lat="43.78085" lon="7.12309">
        <ele>825.40002441406</ele>
        <time>2021-02-25T11:05:37.000Z</time>
      </trkpt>
      <trkpt lat="43.78088" lon="7.12303">
        <ele>824.40002441406</ele>
        <time>2021-02-25T11:05:38.000Z</time>
      </trkpt>
      <trkpt lat="43.78091" lon="7.12297">
        <ele>823</ele>
        <time>2021-02-25T11:05:39.000Z</time>
      </trkpt>
      <trkpt lat="43.78093" lon="7.1229">
        <ele>822.20001220703</ele>
        <time>2021-02-25T11:05:40.000Z</time>
      </trkpt>
      <trkpt lat="43.78097" lon="7.12274">
        <ele>821.20001220703</ele>
        <time>2021-02-25T11:05:42.000Z</time>
      </trkpt>
      <trkpt lat="43.78099" lon="7.12271">
        <ele>820.79998779297</ele>
        <time>2021-02-25T11:05:43.000Z</time>
      </trkpt>
      <trkpt lat="43.78101" lon="7.12268">
        <ele>819.79998779297</ele>
        <time>2021-02-25T11:05:44.000Z</time>
      </trkpt>
      <trkpt lat="43.78104" lon="7.12265">
        <ele>818</ele>
        <time>2021-02-25T11:05:45.000Z</time>
      </trkpt>
      <trkpt lat="43.78105" lon="7.12262">
        <ele>816.20001220703</ele>
        <time>2021-02-25T11:05:46.000Z</time>
      </trkpt>
      <trkpt lat="43.78106" lon="7.12258">
        <ele>814.59997558594</ele>
        <time>2021-02-25T11:05:47.000Z</time>
      </trkpt>
      <trkpt lat="43.78109" lon="7.12255">
        <ele>813</ele>
        <time>2021-02-25T11:05:48.000Z</time>
      </trkpt>
      <trkpt lat="43.78113" lon="7.12252">
        <ele>811.40002441406</ele>
        <time>2021-02-25T11:05:49.000Z</time>
      </trkpt>
      <trkpt lat="43.78114" lon="7.12248">
        <ele>810.59997558594</ele>
        <time>2021-02-25T11:05:50.000Z</time>
      </trkpt>
      <trkpt lat="43.78115" lon="7.12243">
        <ele>809.79998779297</ele>
        <time>2021-02-25T11:05:51.000Z</time>
      </trkpt>
      <trkpt lat="43.78116" lon="7.1223">
        <ele>807.79998779297</ele>
        <time>2021-02-25T11:05:53.000Z</time>
      </trkpt>
      <trkpt lat="43.78115" lon="7.12219">
        <ele>805.20001220703</ele>
        <time>2021-02-25T11:05:55.000Z</time>
      </trkpt>
      <trkpt lat="43.78114" lon="7.12214">
        <ele>804.20001220703</ele>
        <time>2021-02-25T11:05:56.000Z</time>
      </trkpt>
      <trkpt lat="43.78115" lon="7.12209">
        <ele>803.59997558594</ele>
        <time>2021-02-25T11:05:57.000Z</time>
      </trkpt>
      <trkpt lat="43.78114" lon="7.12206">
        <ele>803</ele>
        <time>2021-02-25T11:05:58.000Z</time>
      </trkpt>
      <trkpt lat="43.78112" lon="7.12195">
        <ele>802</ele>
        <time>2021-02-25T11:06:00.000Z</time>
      </trkpt>
      <trkpt lat="43.78117" lon="7.12177">
        <ele>801.20001220703</ele>
        <time>2021-02-25T11:06:03.000Z</time>
      </trkpt>
      <trkpt lat="43.78118" lon="7.12172">
        <ele>800.59997558594</ele>
        <time>2021-02-25T11:06:04.000Z</time>
      </trkpt>
      <trkpt lat="43.78117" lon="7.12159">
        <ele>799.20001220703</ele>
        <time>2021-02-25T11:06:06.000Z</time>
      </trkpt>
      <trkpt lat="43.78116" lon="7.12153">
        <ele>798.20001220703</ele>
        <time>2021-02-25T11:06:07.000Z</time>
      </trkpt>
      <trkpt lat="43.78118" lon="7.12149">
        <ele>797</ele>
        <time>2021-02-25T11:06:08.000Z</time>
      </trkpt>
      <trkpt lat="43.78121" lon="7.12145">
        <ele>796.20001220703</ele>
        <time>2021-02-25T11:06:09.000Z</time>
      </trkpt>
      <trkpt lat="43.78124" lon="7.12142">
        <ele>795.40002441406</ele>
        <time>2021-02-25T11:06:10.000Z</time>
      </trkpt>
      <trkpt lat="43.78128" lon="7.12139">
        <ele>793.79998779297</ele>
        <time>2021-02-25T11:06:11.000Z</time>
      </trkpt>
      <trkpt lat="43.78132" lon="7.12131">
        <ele>792.59997558594</ele>
        <time>2021-02-25T11:06:13.000Z</time>
      </trkpt>
      <trkpt lat="43.78134" lon="7.12127">
        <ele>791.40002441406</ele>
        <time>2021-02-25T11:06:14.000Z</time>
      </trkpt>
      <trkpt lat="43.78136" lon="7.12121">
        <ele>790.59997558594</ele>
        <time>2021-02-25T11:06:15.000Z</time>
      </trkpt>
      <trkpt lat="43.78137" lon="7.12106">
        <ele>790.20001220703</ele>
        <time>2021-02-25T11:06:17.000Z</time>
      </trkpt>
      <trkpt lat="43.78138" lon="7.12099">
        <ele>789.20001220703</ele>
        <time>2021-02-25T11:06:18.000Z</time>
      </trkpt>
      <trkpt lat="43.7814" lon="7.12094">
        <ele>788.20001220703</ele>
        <time>2021-02-25T11:06:19.000Z</time>
      </trkpt>
      <trkpt lat="43.78142" lon="7.12086">
        <ele>786.20001220703</ele>
        <time>2021-02-25T11:06:21.000Z</time>
      </trkpt>
      <trkpt lat="43.78142" lon="7.12082">
        <ele>784.59997558594</ele>
        <time>2021-02-25T11:06:22.000Z</time>
      </trkpt>
      <trkpt lat="43.78142" lon="7.12077">
        <ele>783</ele>
        <time>2021-02-25T11:06:23.000Z</time>
      </trkpt>
      <trkpt lat="43.78141" lon="7.12064">
        <ele>782</ele>
        <time>2021-02-25T11:06:25.000Z</time>
      </trkpt>
      <trkpt lat="43.78138" lon="7.12051">
        <ele>780.59997558594</ele>
        <time>2021-02-25T11:06:27.000Z</time>
      </trkpt>
      <trkpt lat="43.78134" lon="7.12041">
        <ele>780</ele>
        <time>2021-02-25T11:06:29.000Z</time>
      </trkpt>
      <trkpt lat="43.78127" lon="7.12029">
        <ele>779.59997558594</ele>
        <time>2021-02-25T11:06:32.000Z</time>
      </trkpt>
      <trkpt lat="43.78124" lon="7.12025">
        <ele>778.79998779297</ele>
        <time>2021-02-25T11:06:33.000Z</time>
      </trkpt>
      <trkpt lat="43.78117" lon="7.12017">
        <ele>779.20001220703</ele>
        <time>2021-02-25T11:06:35.000Z</time>
      </trkpt>
      <trkpt lat="43.78114" lon="7.12016">
        <ele>778.59997558594</ele>
        <time>2021-02-25T11:06:36.000Z</time>
      </trkpt>
      <trkpt lat="43.78112" lon="7.12015">
        <ele>778</ele>
        <time>2021-02-25T11:06:37.000Z</time>
      </trkpt>
      <trkpt lat="43.78111" lon="7.1201">
        <ele>776.59997558594</ele>
        <time>2021-02-25T11:06:39.000Z</time>
      </trkpt>
      <trkpt lat="43.7811" lon="7.12007">
        <ele>775.79998779297</ele>
        <time>2021-02-25T11:06:40.000Z</time>
      </trkpt>
      <trkpt lat="43.78108" lon="7.12002">
        <ele>775.20001220703</ele>
        <time>2021-02-25T11:06:41.000Z</time>
      </trkpt>
      <trkpt lat="43.78104" lon="7.11999">
        <ele>774.40002441406</ele>
        <time>2021-02-25T11:06:42.000Z</time>
      </trkpt>
      <trkpt lat="43.781" lon="7.11996">
        <ele>773.59997558594</ele>
        <time>2021-02-25T11:06:43.000Z</time>
      </trkpt>
      <trkpt lat="43.78097" lon="7.11992">
        <ele>772.79998779297</ele>
        <time>2021-02-25T11:06:44.000Z</time>
      </trkpt>
      <trkpt lat="43.78095" lon="7.11986">
        <ele>772.20001220703</ele>
        <time>2021-02-25T11:06:45.000Z</time>
      </trkpt>
      <trkpt lat="43.7809" lon="7.11977">
        <ele>770.20001220703</ele>
        <time>2021-02-25T11:06:47.000Z</time>
      </trkpt>
      <trkpt lat="43.7809" lon="7.11972">
        <ele>769</ele>
        <time>2021-02-25T11:06:48.000Z</time>
      </trkpt>
      <trkpt lat="43.78087" lon="7.11967">
        <ele>768.20001220703</ele>
        <time>2021-02-25T11:06:49.000Z</time>
      </trkpt>
      <trkpt lat="43.78084" lon="7.11962">
        <ele>766.79998779297</ele>
        <time>2021-02-25T11:06:50.000Z</time>
      </trkpt>
      <trkpt lat="43.7808" lon="7.11957">
        <ele>765.79998779297</ele>
        <time>2021-02-25T11:06:51.000Z</time>
      </trkpt>
      <trkpt lat="43.78072" lon="7.11954">
        <ele>764</ele>
        <time>2021-02-25T11:06:53.000Z</time>
      </trkpt>
      <trkpt lat="43.78066" lon="7.11947">
        <ele>762.79998779297</ele>
        <time>2021-02-25T11:06:55.000Z</time>
      </trkpt>
      <trkpt lat="43.78063" lon="7.11943">
        <ele>762.20001220703</ele>
        <time>2021-02-25T11:06:56.000Z</time>
      </trkpt>
      <trkpt lat="43.7806" lon="7.11939">
        <ele>761.20001220703</ele>
        <time>2021-02-25T11:06:57.000Z</time>
      </trkpt>
      <trkpt lat="43.78056" lon="7.11936">
        <ele>760</ele>
        <time>2021-02-25T11:06:58.000Z</time>
      </trkpt>
      <trkpt lat="43.78052" lon="7.11934">
        <ele>759</ele>
        <time>2021-02-25T11:06:59.000Z</time>
      </trkpt>
      <trkpt lat="43.78049" lon="7.11932">
        <ele>757.79998779297</ele>
        <time>2021-02-25T11:07:00.000Z</time>
      </trkpt>
      <trkpt lat="43.78047" lon="7.11931">
        <ele>756.59997558594</ele>
        <time>2021-02-25T11:07:01.000Z</time>
      </trkpt>
      <trkpt lat="43.7804" lon="7.11928">
        <ele>755.20001220703</ele>
        <time>2021-02-25T11:07:03.000Z</time>
      </trkpt>
      <trkpt lat="43.78035" lon="7.11927">
        <ele>755</ele>
        <time>2021-02-25T11:07:04.000Z</time>
      </trkpt>
      <trkpt lat="43.78027" lon="7.11922">
        <ele>754.20001220703</ele>
        <time>2021-02-25T11:07:06.000Z</time>
      </trkpt>
      <trkpt lat="43.78019" lon="7.11918">
        <ele>753</ele>
        <time>2021-02-25T11:07:08.000Z</time>
      </trkpt>
      <trkpt lat="43.78014" lon="7.11918">
        <ele>752.40002441406</ele>
        <time>2021-02-25T11:07:09.000Z</time>
      </trkpt>
      <trkpt lat="43.78006" lon="7.11918">
        <ele>751.59997558594</ele>
        <time>2021-02-25T11:07:11.000Z</time>
      </trkpt>
      <trkpt lat="43.78002" lon="7.11918">
        <ele>751.59997558594</ele>
        <time>2021-02-25T11:07:12.000Z</time>
      </trkpt>
      <trkpt lat="43.77993" lon="7.11916">
        <ele>750.59997558594</ele>
        <time>2021-02-25T11:07:15.000Z</time>
      </trkpt>
      <trkpt lat="43.77992" lon="7.11913">
        <ele>750.40002441406</ele>
        <time>2021-02-25T11:07:16.000Z</time>
      </trkpt>
      <trkpt lat="43.77991" lon="7.11906">
        <ele>749.59997558594</ele>
        <time>2021-02-25T11:07:19.000Z</time>
      </trkpt>
      <trkpt lat="43.77991" lon="7.11902">
        <ele>748.79998779297</ele>
        <time>2021-02-25T11:07:21.000Z</time>
      </trkpt>
      <trkpt lat="43.77989" lon="7.11901">
        <ele>748.40002441406</ele>
        <time>2021-02-25T11:07:22.000Z</time>
      </trkpt>
      <trkpt lat="43.77985" lon="7.11897">
        <ele>747</ele>
        <time>2021-02-25T11:07:25.000Z</time>
      </trkpt>
      <trkpt lat="43.7798" lon="7.11895">
        <ele>746.40002441406</ele>
        <time>2021-02-25T11:07:28.000Z</time>
      </trkpt>
      <trkpt lat="43.77978" lon="7.11895">
        <ele>746</ele>
        <time>2021-02-25T11:07:29.000Z</time>
      </trkpt>
      <trkpt lat="43.77978" lon="7.11895">
        <ele>745.79998779297</ele>
        <time>2021-02-25T11:07:30.000Z</time>
      </trkpt>
      <trkpt lat="43.77973" lon="7.11894">
        <ele>745.59997558594</ele>
        <time>2021-02-25T11:07:34.000Z</time>
      </trkpt>
      <trkpt lat="43.77969" lon="7.11889">
        <ele>744.79998779297</ele>
        <time>2021-02-25T11:07:38.000Z</time>
      </trkpt>
      <trkpt lat="43.77961" lon="7.11888">
        <ele>744.59997558594</ele>
        <time>2021-02-25T11:07:42.000Z</time>
      </trkpt>
      <trkpt lat="43.7796" lon="7.11888">
        <ele>744.40002441406</ele>
        <time>2021-02-25T11:07:43.000Z</time>
      </trkpt>
      <trkpt lat="43.77958" lon="7.11888">
        <ele>744.20001220703</ele>
        <time>2021-02-25T11:07:44.000Z</time>
      </trkpt>
      <trkpt lat="43.77953" lon="7.11886">
        <ele>743.79998779297</ele>
        <time>2021-02-25T11:07:47.000Z</time>
      </trkpt>
      <trkpt lat="43.77947" lon="7.11878">
        <ele>744</ele>
        <time>2021-02-25T11:07:51.000Z</time>
      </trkpt>
      <trkpt lat="43.77947" lon="7.11879">
        <ele>743.79998779297</ele>
        <time>2021-02-25T11:07:53.000Z</time>
      </trkpt>
      <trkpt lat="43.77946" lon="7.11878">
        <ele>743.59997558594</ele>
        <time>2021-02-25T11:07:54.000Z</time>
      </trkpt>
      <trkpt lat="43.7794" lon="7.11871">
        <ele>742.79998779297</ele>
        <time>2021-02-25T11:07:58.000Z</time>
      </trkpt>
      <trkpt lat="43.77934" lon="7.11864">
        <ele>743</ele>
        <time>2021-02-25T11:08:01.000Z</time>
      </trkpt>
      <trkpt lat="43.77933" lon="7.1186">
        <ele>743</ele>
        <time>2021-02-25T11:08:02.000Z</time>
      </trkpt>
      <trkpt lat="43.77929" lon="7.11853">
        <ele>742.59997558594</ele>
        <time>2021-02-25T11:08:04.000Z</time>
      </trkpt>
      <trkpt lat="43.77926" lon="7.1185">
        <ele>742.40002441406</ele>
        <time>2021-02-25T11:08:05.000Z</time>
      </trkpt>
      <trkpt lat="43.77923" lon="7.11847">
        <ele>742.20001220703</ele>
        <time>2021-02-25T11:08:06.000Z</time>
      </trkpt>
      <trkpt lat="43.77913" lon="7.1184">
        <ele>741.59997558594</ele>
        <time>2021-02-25T11:08:09.000Z</time>
      </trkpt>
      <trkpt lat="43.77907" lon="7.11836">
        <ele>741.59997558594</ele>
        <time>2021-02-25T11:08:11.000Z</time>
      </trkpt>
      <trkpt lat="43.77897" lon="7.11821">
        <ele>742.40002441406</ele>
        <time>2021-02-25T11:08:15.000Z</time>
      </trkpt>
      <trkpt lat="43.77894" lon="7.11815">
        <ele>742.40002441406</ele>
        <time>2021-02-25T11:08:16.000Z</time>
      </trkpt>
      <trkpt lat="43.77885" lon="7.11799">
        <ele>741.79998779297</ele>
        <time>2021-02-25T11:08:19.000Z</time>
      </trkpt>
      <trkpt lat="43.77878" lon="7.11792">
        <ele>741.20001220703</ele>
        <time>2021-02-25T11:08:21.000Z</time>
      </trkpt>
      <trkpt lat="43.77874" lon="7.11789">
        <ele>740.40002441406</ele>
        <time>2021-02-25T11:08:22.000Z</time>
      </trkpt>
      <trkpt lat="43.77871" lon="7.11784">
        <ele>740</ele>
        <time>2021-02-25T11:08:23.000Z</time>
      </trkpt>
      <trkpt lat="43.77864" lon="7.11774">
        <ele>739.59997558594</ele>
        <time>2021-02-25T11:08:25.000Z</time>
      </trkpt>
      <trkpt lat="43.77861" lon="7.1177">
        <ele>739.20001220703</ele>
        <time>2021-02-25T11:08:26.000Z</time>
      </trkpt>
      <trkpt lat="43.77857" lon="7.11767">
        <ele>739</ele>
        <time>2021-02-25T11:08:27.000Z</time>
      </trkpt>
      <trkpt lat="43.7785" lon="7.11759">
        <ele>738.20001220703</ele>
        <time>2021-02-25T11:08:29.000Z</time>
      </trkpt>
      <trkpt lat="43.77841" lon="7.11751">
        <ele>737.79998779297</ele>
        <time>2021-02-25T11:08:31.000Z</time>
      </trkpt>
      <trkpt lat="43.77837" lon="7.11747">
        <ele>737.79998779297</ele>
        <time>2021-02-25T11:08:32.000Z</time>
      </trkpt>
      <trkpt lat="43.77831" lon="7.11741">
        <ele>737</ele>
        <time>2021-02-25T11:08:34.000Z</time>
      </trkpt>
      <trkpt lat="43.77828" lon="7.1173">
        <ele>736.59997558594</ele>
        <time>2021-02-25T11:08:37.000Z</time>
      </trkpt>
      <trkpt lat="43.77825" lon="7.11717">
        <ele>736.20001220703</ele>
        <time>2021-02-25T11:08:40.000Z</time>
      </trkpt>
      <trkpt lat="43.77823" lon="7.11712">
        <ele>736.20001220703</ele>
        <time>2021-02-25T11:08:41.000Z</time>
      </trkpt>
      <trkpt lat="43.77821" lon="7.11708">
        <ele>735.79998779297</ele>
        <time>2021-02-25T11:08:42.000Z</time>
      </trkpt>
      <trkpt lat="43.7782" lon="7.11706">
        <ele>735</ele>
        <time>2021-02-25T11:08:43.000Z</time>
      </trkpt>
      <trkpt lat="43.77819" lon="7.11706">
        <ele>734.79998779297</ele>
        <time>2021-02-25T11:08:44.000Z</time>
      </trkpt>
      <trkpt lat="43.77819" lon="7.11706">
        <ele>734.59997558594</ele>
        <time>2021-02-25T11:08:45.000Z</time>
      </trkpt>
      <trkpt lat="43.77819" lon="7.11705">
        <ele>734.40002441406</ele>
        <time>2021-02-25T11:08:50.000Z</time>
      </trkpt>
      <trkpt lat="43.77816" lon="7.11702">
        <ele>733.59997558594</ele>
        <time>2021-02-25T11:09:18.000Z</time>
      </trkpt>
      <trkpt lat="43.77816" lon="7.11702">
        <ele>733.40002441406</ele>
        <time>2021-02-25T11:09:22.000Z</time>
      </trkpt>
      <trkpt lat="43.77815" lon="7.11701">
        <ele>733.20001220703</ele>
        <time>2021-02-25T11:09:31.000Z</time>
      </trkpt>
      <trkpt lat="43.77815" lon="7.11701">
        <ele>732.59997558594</ele>
        <time>2021-02-25T11:09:45.000Z</time>
      </trkpt>
      <trkpt lat="43.77815" lon="7.11701">
        <ele>732.40002441406</ele>
        <time>2021-02-25T11:09:48.000Z</time>
      </trkpt>
      <trkpt lat="43.77814" lon="7.11701">
        <ele>732</ele>
        <time>2021-02-25T11:09:59.000Z</time>
      </trkpt>
      <trkpt lat="43.77814" lon="7.11701">
        <ele>731.79998779297</ele>
        <time>2021-02-25T11:10:26.000Z</time>
      </trkpt>
      <trkpt lat="43.77814" lon="7.117">
        <ele>731.79998779297</ele>
        <time>2021-02-25T11:10:47.000Z</time>
      </trkpt>
      <trkpt lat="43.77813" lon="7.117">
        <ele>731.79998779297</ele>
        <time>2021-02-25T11:11:00.000Z</time>
      </trkpt>
      <trkpt lat="43.77811" lon="7.117">
        <ele>731.79998779297</ele>
        <time>2021-02-25T11:11:02.000Z</time>
      </trkpt>
      <trkpt lat="43.7781" lon="7.11701">
        <ele>731.59997558594</ele>
        <time>2021-02-25T11:11:03.000Z</time>
      </trkpt>
      <trkpt lat="43.77801" lon="7.11703">
        <ele>731.59997558594</ele>
        <time>2021-02-25T11:11:08.000Z</time>
      </trkpt>
      <trkpt lat="43.77787" lon="7.11714">
        <ele>732.20001220703</ele>
        <time>2021-02-25T11:11:13.000Z</time>
      </trkpt>
      <trkpt lat="43.77772" lon="7.11721">
        <ele>732.79998779297</ele>
        <time>2021-02-25T11:11:18.000Z</time>
      </trkpt>
      <trkpt lat="43.77758" lon="7.11734">
        <ele>733.59997558594</ele>
        <time>2021-02-25T11:11:23.000Z</time>
      </trkpt>
      <trkpt lat="43.77756" lon="7.11738">
        <ele>733.59997558594</ele>
        <time>2021-02-25T11:11:24.000Z</time>
      </trkpt>
      <trkpt lat="43.77748" lon="7.11744">
        <ele>733.59997558594</ele>
        <time>2021-02-25T11:11:27.000Z</time>
      </trkpt>
      <trkpt lat="43.77745" lon="7.11747">
        <ele>733.59997558594</ele>
        <time>2021-02-25T11:11:28.000Z</time>
      </trkpt>
      <trkpt lat="43.7773" lon="7.11762">
        <ele>734.40002441406</ele>
        <time>2021-02-25T11:11:33.000Z</time>
      </trkpt>
      <trkpt lat="43.77727" lon="7.11765">
        <ele>734.59997558594</ele>
        <time>2021-02-25T11:11:34.000Z</time>
      </trkpt>
      <trkpt lat="43.77723" lon="7.11772">
        <ele>734.79998779297</ele>
        <time>2021-02-25T11:11:37.000Z</time>
      </trkpt>
      <trkpt lat="43.77717" lon="7.11786">
        <ele>735</ele>
        <time>2021-02-25T11:11:40.000Z</time>
      </trkpt>
      <trkpt lat="43.77714" lon="7.11792">
        <ele>734.79998779297</ele>
        <time>2021-02-25T11:11:41.000Z</time>
      </trkpt>
      <trkpt lat="43.77702" lon="7.11815">
        <ele>734.59997558594</ele>
        <time>2021-02-25T11:11:45.000Z</time>
      </trkpt>
      <trkpt lat="43.77694" lon="7.11831">
        <ele>734</ele>
        <time>2021-02-25T11:11:48.000Z</time>
      </trkpt>
      <trkpt lat="43.77687" lon="7.11844">
        <ele>733</ele>
        <time>2021-02-25T11:11:50.000Z</time>
      </trkpt>
      <trkpt lat="43.77685" lon="7.11849">
        <ele>732.20001220703</ele>
        <time>2021-02-25T11:11:51.000Z</time>
      </trkpt>
      <trkpt lat="43.77684" lon="7.11856">
        <ele>731.79998779297</ele>
        <time>2021-02-25T11:11:52.000Z</time>
      </trkpt>
      <trkpt lat="43.77674" lon="7.11861">
        <ele>730.20001220703</ele>
        <time>2021-02-25T11:11:55.000Z</time>
      </trkpt>
      <trkpt lat="43.77671" lon="7.1186">
        <ele>729.59997558594</ele>
        <time>2021-02-25T11:11:56.000Z</time>
      </trkpt>
      <trkpt lat="43.77668" lon="7.11861">
        <ele>729.20001220703</ele>
        <time>2021-02-25T11:11:57.000Z</time>
      </trkpt>
      <trkpt lat="43.77665" lon="7.11864">
        <ele>728.59997558594</ele>
        <time>2021-02-25T11:11:59.000Z</time>
      </trkpt>
      <trkpt lat="43.77653" lon="7.11871">
        <ele>730.20001220703</ele>
        <time>2021-02-25T11:12:04.000Z</time>
      </trkpt>
      <trkpt lat="43.77651" lon="7.11872">
        <ele>730.40002441406</ele>
        <time>2021-02-25T11:12:05.000Z</time>
      </trkpt>
      <trkpt lat="43.77639" lon="7.11879">
        <ele>730.79998779297</ele>
        <time>2021-02-25T11:12:09.000Z</time>
      </trkpt>
      <trkpt lat="43.77628" lon="7.11878">
        <ele>730.79998779297</ele>
        <time>2021-02-25T11:12:13.000Z</time>
      </trkpt>
      <trkpt lat="43.7762" lon="7.11875">
        <ele>730.40002441406</ele>
        <time>2021-02-25T11:12:16.000Z</time>
      </trkpt>
      <trkpt lat="43.77613" lon="7.11871">
        <ele>730.20001220703</ele>
        <time>2021-02-25T11:12:18.000Z</time>
      </trkpt>
      <trkpt lat="43.77606" lon="7.11876">
        <ele>729.40002441406</ele>
        <time>2021-02-25T11:12:21.000Z</time>
      </trkpt>
      <trkpt lat="43.77603" lon="7.11879">
        <ele>728.79998779297</ele>
        <time>2021-02-25T11:12:22.000Z</time>
      </trkpt>
      <trkpt lat="43.77594" lon="7.11886">
        <ele>729.20001220703</ele>
        <time>2021-02-25T11:12:25.000Z</time>
      </trkpt>
      <trkpt lat="43.77589" lon="7.11889">
        <ele>730</ele>
        <time>2021-02-25T11:12:27.000Z</time>
      </trkpt>
      <trkpt lat="43.77582" lon="7.11893">
        <ele>730.40002441406</ele>
        <time>2021-02-25T11:12:29.000Z</time>
      </trkpt>
      <trkpt lat="43.77574" lon="7.11893">
        <ele>730.59997558594</ele>
        <time>2021-02-25T11:12:31.000Z</time>
      </trkpt>
      <trkpt lat="43.77567" lon="7.11893">
        <ele>730.20001220703</ele>
        <time>2021-02-25T11:12:33.000Z</time>
      </trkpt>
      <trkpt lat="43.77559" lon="7.11895">
        <ele>728.40002441406</ele>
        <time>2021-02-25T11:12:35.000Z</time>
      </trkpt>
      <trkpt lat="43.77555" lon="7.11896">
        <ele>727.20001220703</ele>
        <time>2021-02-25T11:12:36.000Z</time>
      </trkpt>
      <trkpt lat="43.77551" lon="7.11897">
        <ele>726.20001220703</ele>
        <time>2021-02-25T11:12:37.000Z</time>
      </trkpt>
      <trkpt lat="43.77548" lon="7.11896">
        <ele>725.79998779297</ele>
        <time>2021-02-25T11:12:38.000Z</time>
      </trkpt>
      <trkpt lat="43.7754" lon="7.1189">
        <ele>725.79998779297</ele>
        <time>2021-02-25T11:12:41.000Z</time>
      </trkpt>
      <trkpt lat="43.77526" lon="7.11886">
        <ele>726.59997558594</ele>
        <time>2021-02-25T11:12:46.000Z</time>
      </trkpt>
      <trkpt lat="43.77516" lon="7.11881">
        <ele>727</ele>
        <time>2021-02-25T11:12:50.000Z</time>
      </trkpt>
      <trkpt lat="43.77504" lon="7.11879">
        <ele>727.59997558594</ele>
        <time>2021-02-25T11:12:54.000Z</time>
      </trkpt>
      <trkpt lat="43.7749" lon="7.11875">
        <ele>727.59997558594</ele>
        <time>2021-02-25T11:12:59.000Z</time>
      </trkpt>
      <trkpt lat="43.77483" lon="7.11872">
        <ele>727.59997558594</ele>
        <time>2021-02-25T11:13:03.000Z</time>
      </trkpt>
      <trkpt lat="43.7748" lon="7.11873">
        <ele>727.40002441406</ele>
        <time>2021-02-25T11:13:04.000Z</time>
      </trkpt>
      <trkpt lat="43.77474" lon="7.11874">
        <ele>727.40002441406</ele>
        <time>2021-02-25T11:13:08.000Z</time>
      </trkpt>
      <trkpt lat="43.7747" lon="7.11876">
        <ele>727</ele>
        <time>2021-02-25T11:13:13.000Z</time>
      </trkpt>
      <trkpt lat="43.77468" lon="7.11877">
        <ele>727</ele>
        <time>2021-02-25T11:13:18.000Z</time>
      </trkpt>
      <trkpt lat="43.77467" lon="7.11877">
        <ele>727</ele>
        <time>2021-02-25T11:13:19.000Z</time>
      </trkpt>
      <trkpt lat="43.77464" lon="7.11878">
        <ele>726.79998779297</ele>
        <time>2021-02-25T11:13:23.000Z</time>
      </trkpt>
      <trkpt lat="43.77459" lon="7.11881">
        <ele>726.59997558594</ele>
        <time>2021-02-25T11:13:29.000Z</time>
      </trkpt>
      <trkpt lat="43.77458" lon="7.1188">
        <ele>726.59997558594</ele>
        <time>2021-02-25T11:13:31.000Z</time>
      </trkpt>
      <trkpt lat="43.77456" lon="7.11881">
        <ele>726.40002441406</ele>
        <time>2021-02-25T11:13:35.000Z</time>
      </trkpt>
      <trkpt lat="43.77454" lon="7.11883">
        <ele>725.79998779297</ele>
        <time>2021-02-25T11:13:38.000Z</time>
      </trkpt>
      <trkpt lat="43.77451" lon="7.11885">
        <ele>725.79998779297</ele>
        <time>2021-02-25T11:13:42.000Z</time>
      </trkpt>
      <trkpt lat="43.77437" lon="7.11894">
        <ele>726</ele>
        <time>2021-02-25T11:13:48.000Z</time>
      </trkpt>
      <trkpt lat="43.77429" lon="7.11897">
        <ele>726.40002441406</ele>
        <time>2021-02-25T11:13:52.000Z</time>
      </trkpt>
      <trkpt lat="43.77423" lon="7.11898">
        <ele>727.20001220703</ele>
        <time>2021-02-25T11:13:56.000Z</time>
      </trkpt>
      <trkpt lat="43.77421" lon="7.119">
        <ele>727.59997558594</ele>
        <time>2021-02-25T11:13:58.000Z</time>
      </trkpt>
      <trkpt lat="43.77414" lon="7.11904">
        <ele>728.40002441406</ele>
        <time>2021-02-25T11:14:02.000Z</time>
      </trkpt>
      <trkpt lat="43.77413" lon="7.11905">
        <ele>728.59997558594</ele>
        <time>2021-02-25T11:14:03.000Z</time>
      </trkpt>
      <trkpt lat="43.77408" lon="7.1191">
        <ele>729.59997558594</ele>
        <time>2021-02-25T11:14:06.000Z</time>
      </trkpt>
      <trkpt lat="43.77406" lon="7.1191">
        <ele>729.79998779297</ele>
        <time>2021-02-25T11:14:07.000Z</time>
      </trkpt>
      <trkpt lat="43.77402" lon="7.1191">
        <ele>730.59997558594</ele>
        <time>2021-02-25T11:14:09.000Z</time>
      </trkpt>
      <trkpt lat="43.77399" lon="7.1191">
        <ele>731.40002441406</ele>
        <time>2021-02-25T11:14:11.000Z</time>
      </trkpt>
      <trkpt lat="43.77398" lon="7.11911">
        <ele>732</ele>
        <time>2021-02-25T11:14:12.000Z</time>
      </trkpt>
      <trkpt lat="43.77392" lon="7.11913">
        <ele>732.79998779297</ele>
        <time>2021-02-25T11:14:17.000Z</time>
      </trkpt>
      <trkpt lat="43.77389" lon="7.11912">
        <ele>733</ele>
        <time>2021-02-25T11:14:19.000Z</time>
      </trkpt>
      <trkpt lat="43.77388" lon="7.11912">
        <ele>734.20001220703</ele>
        <time>2021-02-25T11:14:22.000Z</time>
      </trkpt>
      <trkpt lat="43.77384" lon="7.11913">
        <ele>735</ele>
        <time>2021-02-25T11:14:28.000Z</time>
      </trkpt>
      <trkpt lat="43.77382" lon="7.11913">
        <ele>735.40002441406</ele>
        <time>2021-02-25T11:14:33.000Z</time>
      </trkpt>
      <trkpt lat="43.77381" lon="7.11913">
        <ele>735.40002441406</ele>
        <time>2021-02-25T11:14:35.000Z</time>
      </trkpt>
      <trkpt lat="43.77379" lon="7.11915">
        <ele>735.79998779297</ele>
        <time>2021-02-25T11:14:41.000Z</time>
      </trkpt>
      <trkpt lat="43.77376" lon="7.11915">
        <ele>736.40002441406</ele>
        <time>2021-02-25T11:14:47.000Z</time>
      </trkpt>
      <trkpt lat="43.77375" lon="7.11915">
        <ele>736.40002441406</ele>
        <time>2021-02-25T11:14:48.000Z</time>
      </trkpt>
      <trkpt lat="43.77372" lon="7.11914">
        <ele>736.20001220703</ele>
        <time>2021-02-25T11:14:51.000Z</time>
      </trkpt>
      <trkpt lat="43.7737" lon="7.11914">
        <ele>736.40002441406</ele>
        <time>2021-02-25T11:14:52.000Z</time>
      </trkpt>
      <trkpt lat="43.77364" lon="7.11916">
        <ele>737.40002441406</ele>
        <time>2021-02-25T11:14:56.000Z</time>
      </trkpt>
      <trkpt lat="43.77362" lon="7.11917">
        <ele>737.59997558594</ele>
        <time>2021-02-25T11:14:57.000Z</time>
      </trkpt>
      <trkpt lat="43.77361" lon="7.11918">
        <ele>738.20001220703</ele>
        <time>2021-02-25T11:15:01.000Z</time>
      </trkpt>
      <trkpt lat="43.77361" lon="7.11919">
        <ele>738.59997558594</ele>
        <time>2021-02-25T11:15:03.000Z</time>
      </trkpt>
      <trkpt lat="43.7736" lon="7.11921">
        <ele>739</ele>
        <time>2021-02-25T11:15:07.000Z</time>
      </trkpt>
      <trkpt lat="43.77357" lon="7.11924">
        <ele>739.59997558594</ele>
        <time>2021-02-25T11:15:13.000Z</time>
      </trkpt>
      <trkpt lat="43.77357" lon="7.11924">
        <ele>739.79998779297</ele>
        <time>2021-02-25T11:15:14.000Z</time>
      </trkpt>
      <trkpt lat="43.77353" lon="7.11926">
        <ele>740</ele>
        <time>2021-02-25T11:15:21.000Z</time>
      </trkpt>
      <trkpt lat="43.7735" lon="7.11928">
        <ele>740.40002441406</ele>
        <time>2021-02-25T11:15:25.000Z</time>
      </trkpt>
      <trkpt lat="43.77349" lon="7.11928">
        <ele>740.79998779297</ele>
        <time>2021-02-25T11:15:27.000Z</time>
      </trkpt>
      <trkpt lat="43.77348" lon="7.1193">
        <ele>741.59997558594</ele>
        <time>2021-02-25T11:15:32.000Z</time>
      </trkpt>
      <trkpt lat="43.77342" lon="7.11937">
        <ele>742</ele>
        <time>2021-02-25T11:15:37.000Z</time>
      </trkpt>
      <trkpt lat="43.77341" lon="7.11939">
        <ele>742.20001220703</ele>
        <time>2021-02-25T11:15:38.000Z</time>
      </trkpt>
      <trkpt lat="43.7734" lon="7.11941">
        <ele>742.59997558594</ele>
        <time>2021-02-25T11:15:39.000Z</time>
      </trkpt>
      <trkpt lat="43.77338" lon="7.11942">
        <ele>743.20001220703</ele>
        <time>2021-02-25T11:15:41.000Z</time>
      </trkpt>
      <trkpt lat="43.77336" lon="7.11943">
        <ele>743.59997558594</ele>
        <time>2021-02-25T11:15:42.000Z</time>
      </trkpt>
      <trkpt lat="43.77331" lon="7.11946">
        <ele>744.59997558594</ele>
        <time>2021-02-25T11:15:45.000Z</time>
      </trkpt>
      <trkpt lat="43.7733" lon="7.11947">
        <ele>745.40002441406</ele>
        <time>2021-02-25T11:15:47.000Z</time>
      </trkpt>
      <trkpt lat="43.77329" lon="7.11948">
        <ele>745.59997558594</ele>
        <time>2021-02-25T11:15:48.000Z</time>
      </trkpt>
      <trkpt lat="43.77324" lon="7.11953">
        <ele>747</ele>
        <time>2021-02-25T11:15:52.000Z</time>
      </trkpt>
      <trkpt lat="43.77318" lon="7.11957">
        <ele>747.79998779297</ele>
        <time>2021-02-25T11:15:57.000Z</time>
      </trkpt>
      <trkpt lat="43.77317" lon="7.11958">
        <ele>748.20001220703</ele>
        <time>2021-02-25T11:15:58.000Z</time>
      </trkpt>
      <trkpt lat="43.77316" lon="7.11959">
        <ele>748.59997558594</ele>
        <time>2021-02-25T11:16:03.000Z</time>
      </trkpt>
      <trkpt lat="43.77311" lon="7.11961">
        <ele>748.59997558594</ele>
        <time>2021-02-25T11:16:25.000Z</time>
      </trkpt>
      <trkpt lat="43.77306" lon="7.11962">
        <ele>748.59997558594</ele>
        <time>2021-02-25T11:16:28.000Z</time>
      </trkpt>
      <trkpt lat="43.77304" lon="7.11961">
        <ele>748.79998779297</ele>
        <time>2021-02-25T11:16:29.000Z</time>
      </trkpt>
      <trkpt lat="43.77296" lon="7.1196">
        <ele>749.20001220703</ele>
        <time>2021-02-25T11:16:33.000Z</time>
      </trkpt>
      <trkpt lat="43.77295" lon="7.11962">
        <ele>749.20001220703</ele>
        <time>2021-02-25T11:16:34.000Z</time>
      </trkpt>
      <trkpt lat="43.77289" lon="7.11971">
        <ele>750</ele>
        <time>2021-02-25T11:16:39.000Z</time>
      </trkpt>
      <trkpt lat="43.77287" lon="7.11974">
        <ele>750.20001220703</ele>
        <time>2021-02-25T11:16:40.000Z</time>
      </trkpt>
      <trkpt lat="43.7728" lon="7.11983">
        <ele>751.59997558594</ele>
        <time>2021-02-25T11:16:44.000Z</time>
      </trkpt>
      <trkpt lat="43.7727" lon="7.11991">
        <ele>753</ele>
        <time>2021-02-25T11:16:48.000Z</time>
      </trkpt>
      <trkpt lat="43.77268" lon="7.11991">
        <ele>753.40002441406</ele>
        <time>2021-02-25T11:16:49.000Z</time>
      </trkpt>
      <trkpt lat="43.77264" lon="7.11993">
        <ele>754</ele>
        <time>2021-02-25T11:16:51.000Z</time>
      </trkpt>
      <trkpt lat="43.77255" lon="7.11995">
        <ele>755.20001220703</ele>
        <time>2021-02-25T11:16:55.000Z</time>
      </trkpt>
      <trkpt lat="43.77253" lon="7.11995">
        <ele>755.59997558594</ele>
        <time>2021-02-25T11:16:56.000Z</time>
      </trkpt>
      <trkpt lat="43.77249" lon="7.11997">
        <ele>756.59997558594</ele>
        <time>2021-02-25T11:16:58.000Z</time>
      </trkpt>
      <trkpt lat="43.77245" lon="7.11998">
        <ele>757.79998779297</ele>
        <time>2021-02-25T11:17:00.000Z</time>
      </trkpt>
      <trkpt lat="43.77241" lon="7.12">
        <ele>758.59997558594</ele>
        <time>2021-02-25T11:17:02.000Z</time>
      </trkpt>
      <trkpt lat="43.7724" lon="7.12001">
        <ele>759</ele>
        <time>2021-02-25T11:17:03.000Z</time>
      </trkpt>
      <trkpt lat="43.77239" lon="7.12003">
        <ele>759.20001220703</ele>
        <time>2021-02-25T11:17:04.000Z</time>
      </trkpt>
      <trkpt lat="43.77237" lon="7.12008">
        <ele>759.79998779297</ele>
        <time>2021-02-25T11:17:06.000Z</time>
      </trkpt>
      <trkpt lat="43.77235" lon="7.12009">
        <ele>760.20001220703</ele>
        <time>2021-02-25T11:17:07.000Z</time>
      </trkpt>
      <trkpt lat="43.77231" lon="7.1201">
        <ele>760.59997558594</ele>
        <time>2021-02-25T11:17:09.000Z</time>
      </trkpt>
      <trkpt lat="43.77229" lon="7.1201">
        <ele>760.59997558594</ele>
        <time>2021-02-25T11:17:10.000Z</time>
      </trkpt>
      <trkpt lat="43.77221" lon="7.12011">
        <ele>761.20001220703</ele>
        <time>2021-02-25T11:17:14.000Z</time>
      </trkpt>
      <trkpt lat="43.77219" lon="7.12012">
        <ele>761.40002441406</ele>
        <time>2021-02-25T11:17:15.000Z</time>
      </trkpt>
      <trkpt lat="43.77215" lon="7.12013">
        <ele>762.40002441406</ele>
        <time>2021-02-25T11:17:17.000Z</time>
      </trkpt>
      <trkpt lat="43.7721" lon="7.12016">
        <ele>763.59997558594</ele>
        <time>2021-02-25T11:17:20.000Z</time>
      </trkpt>
      <trkpt lat="43.77202" lon="7.12019">
        <ele>765</ele>
        <time>2021-02-25T11:17:24.000Z</time>
      </trkpt>
      <trkpt lat="43.77198" lon="7.12018">
        <ele>765.59997558594</ele>
        <time>2021-02-25T11:17:26.000Z</time>
      </trkpt>
      <trkpt lat="43.77193" lon="7.12019">
        <ele>766.20001220703</ele>
        <time>2021-02-25T11:17:29.000Z</time>
      </trkpt>
      <trkpt lat="43.77187" lon="7.1202">
        <ele>766.40002441406</ele>
        <time>2021-02-25T11:17:32.000Z</time>
      </trkpt>
      <trkpt lat="43.77183" lon="7.1202">
        <ele>766.79998779297</ele>
        <time>2021-02-25T11:17:34.000Z</time>
      </trkpt>
      <trkpt lat="43.7718" lon="7.12023">
        <ele>767.20001220703</ele>
        <time>2021-02-25T11:17:36.000Z</time>
      </trkpt>
      <trkpt lat="43.7718" lon="7.12025">
        <ele>767.40002441406</ele>
        <time>2021-02-25T11:17:37.000Z</time>
      </trkpt>
      <trkpt lat="43.7718" lon="7.12028">
        <ele>767.40002441406</ele>
        <time>2021-02-25T11:17:38.000Z</time>
      </trkpt>
      <trkpt lat="43.77179" lon="7.1203">
        <ele>767.59997558594</ele>
        <time>2021-02-25T11:17:39.000Z</time>
      </trkpt>
      <trkpt lat="43.77174" lon="7.12032">
        <ele>767.79998779297</ele>
        <time>2021-02-25T11:17:41.000Z</time>
      </trkpt>
      <trkpt lat="43.77169" lon="7.12032">
        <ele>767.79998779297</ele>
        <time>2021-02-25T11:17:43.000Z</time>
      </trkpt>
      <trkpt lat="43.77162" lon="7.12033">
        <ele>768.20001220703</ele>
        <time>2021-02-25T11:17:46.000Z</time>
      </trkpt>
      <trkpt lat="43.77159" lon="7.12034">
        <ele>768.59997558594</ele>
        <time>2021-02-25T11:17:47.000Z</time>
      </trkpt>
      <trkpt lat="43.77152" lon="7.12039">
        <ele>769.59997558594</ele>
        <time>2021-02-25T11:17:50.000Z</time>
      </trkpt>
      <trkpt lat="43.77145" lon="7.12044">
        <ele>770.79998779297</ele>
        <time>2021-02-25T11:17:53.000Z</time>
      </trkpt>
      <trkpt lat="43.77143" lon="7.12046">
        <ele>771</ele>
        <time>2021-02-25T11:17:54.000Z</time>
      </trkpt>
      <trkpt lat="43.7713" lon="7.12054">
        <ele>771.20001220703</ele>
        <time>2021-02-25T11:18:00.000Z</time>
      </trkpt>
      <trkpt lat="43.77114" lon="7.1206">
        <ele>771.79998779297</ele>
        <time>2021-02-25T11:18:06.000Z</time>
      </trkpt>
      <trkpt lat="43.77103" lon="7.12063">
        <ele>772.59997558594</ele>
        <time>2021-02-25T11:18:11.000Z</time>
      </trkpt>
      <trkpt lat="43.77101" lon="7.12064">
        <ele>772.79998779297</ele>
        <time>2021-02-25T11:18:12.000Z</time>
      </trkpt>
      <trkpt lat="43.77097" lon="7.12062">
        <ele>773.20001220703</ele>
        <time>2021-02-25T11:18:14.000Z</time>
      </trkpt>
      <trkpt lat="43.77096" lon="7.12062">
        <ele>773.20001220703</ele>
        <time>2021-02-25T11:18:15.000Z</time>
      </trkpt>
      <trkpt lat="43.77093" lon="7.12065">
        <ele>773.40002441406</ele>
        <time>2021-02-25T11:18:18.000Z</time>
      </trkpt>
      <trkpt lat="43.7709" lon="7.12068">
        <ele>773.59997558594</ele>
        <time>2021-02-25T11:18:20.000Z</time>
      </trkpt>
      <trkpt lat="43.77088" lon="7.12069">
        <ele>773.59997558594</ele>
        <time>2021-02-25T11:18:21.000Z</time>
      </trkpt>
      <trkpt lat="43.77085" lon="7.12069">
        <ele>773.79998779297</ele>
        <time>2021-02-25T11:18:23.000Z</time>
      </trkpt>
      <trkpt lat="43.77084" lon="7.1207">
        <ele>774</ele>
        <time>2021-02-25T11:18:24.000Z</time>
      </trkpt>
      <trkpt lat="43.77081" lon="7.12071">
        <ele>774.20001220703</ele>
        <time>2021-02-25T11:18:26.000Z</time>
      </trkpt>
      <trkpt lat="43.77074" lon="7.12071">
        <ele>774.79998779297</ele>
        <time>2021-02-25T11:18:29.000Z</time>
      </trkpt>
      <trkpt lat="43.77072" lon="7.12072">
        <ele>775.20001220703</ele>
        <time>2021-02-25T11:18:30.000Z</time>
      </trkpt>
      <trkpt lat="43.77065" lon="7.12073">
        <ele>775.59997558594</ele>
        <time>2021-02-25T11:18:33.000Z</time>
      </trkpt>
      <trkpt lat="43.77059" lon="7.12076">
        <ele>775.59997558594</ele>
        <time>2021-02-25T11:18:37.000Z</time>
      </trkpt>
      <trkpt lat="43.77057" lon="7.12076">
        <ele>775.79998779297</ele>
        <time>2021-02-25T11:18:38.000Z</time>
      </trkpt>
      <trkpt lat="43.77049" lon="7.12075">
        <ele>776.20001220703</ele>
        <time>2021-02-25T11:18:41.000Z</time>
      </trkpt>
      <trkpt lat="43.77041" lon="7.12073">
        <ele>776.20001220703</ele>
        <time>2021-02-25T11:18:44.000Z</time>
      </trkpt>
      <trkpt lat="43.77039" lon="7.12072">
        <ele>776.20001220703</ele>
        <time>2021-02-25T11:18:45.000Z</time>
      </trkpt>
      <trkpt lat="43.77038" lon="7.1207">
        <ele>775.79998779297</ele>
        <time>2021-02-25T11:18:46.000Z</time>
      </trkpt>
      <trkpt lat="43.77032" lon="7.12067">
        <ele>774.59997558594</ele>
        <time>2021-02-25T11:18:50.000Z</time>
      </trkpt>
      <trkpt lat="43.77031" lon="7.12067">
        <ele>774.40002441406</ele>
        <time>2021-02-25T11:18:51.000Z</time>
      </trkpt>
      <trkpt lat="43.77025" lon="7.12068">
        <ele>774</ele>
        <time>2021-02-25T11:18:53.000Z</time>
      </trkpt>
      <trkpt lat="43.7702" lon="7.12068">
        <ele>774</ele>
        <time>2021-02-25T11:18:55.000Z</time>
      </trkpt>
      <trkpt lat="43.77016" lon="7.12065">
        <ele>774</ele>
        <time>2021-02-25T11:18:58.000Z</time>
      </trkpt>
      <trkpt lat="43.77015" lon="7.12065">
        <ele>774.40002441406</ele>
        <time>2021-02-25T11:18:59.000Z</time>
      </trkpt>
      <trkpt lat="43.7701" lon="7.12065">
        <ele>773.59997558594</ele>
        <time>2021-02-25T11:19:03.000Z</time>
      </trkpt>
      <trkpt lat="43.77007" lon="7.12065">
        <ele>773.20001220703</ele>
        <time>2021-02-25T11:19:05.000Z</time>
      </trkpt>
      <trkpt lat="43.77005" lon="7.12066">
        <ele>773.20001220703</ele>
        <time>2021-02-25T11:19:07.000Z</time>
      </trkpt>
      <trkpt lat="43.77002" lon="7.12067">
        <ele>773</ele>
        <time>2021-02-25T11:19:12.000Z</time>
      </trkpt>
      <trkpt lat="43.77" lon="7.12068">
        <ele>772.59997558594</ele>
        <time>2021-02-25T11:19:16.000Z</time>
      </trkpt>
      <trkpt lat="43.76997" lon="7.12067">
        <ele>772.79998779297</ele>
        <time>2021-02-25T11:19:24.000Z</time>
      </trkpt>
      <trkpt lat="43.76995" lon="7.12068">
        <ele>772.40002441406</ele>
        <time>2021-02-25T11:19:29.000Z</time>
      </trkpt>
      <trkpt lat="43.7699" lon="7.1207">
        <ele>772.40002441406</ele>
        <time>2021-02-25T11:19:34.000Z</time>
      </trkpt>
      <trkpt lat="43.76987" lon="7.12071">
        <ele>772.20001220703</ele>
        <time>2021-02-25T11:19:36.000Z</time>
      </trkpt>
      <trkpt lat="43.76983" lon="7.12074">
        <ele>772</ele>
        <time>2021-02-25T11:19:39.000Z</time>
      </trkpt>
      <trkpt lat="43.76976" lon="7.12081">
        <ele>771.40002441406</ele>
        <time>2021-02-25T11:19:43.000Z</time>
      </trkpt>
      <trkpt lat="43.7697" lon="7.12085">
        <ele>771.20001220703</ele>
        <time>2021-02-25T11:19:47.000Z</time>
      </trkpt>
      <trkpt lat="43.7696" lon="7.12093">
        <ele>771.40002441406</ele>
        <time>2021-02-25T11:19:53.000Z</time>
      </trkpt>
      <trkpt lat="43.76954" lon="7.121">
        <ele>770.79998779297</ele>
        <time>2021-02-25T11:19:59.000Z</time>
      </trkpt>
      <trkpt lat="43.76953" lon="7.12102">
        <ele>770.79998779297</ele>
        <time>2021-02-25T11:20:00.000Z</time>
      </trkpt>
      <trkpt lat="43.76953" lon="7.12109">
        <ele>770.59997558594</ele>
        <time>2021-02-25T11:20:03.000Z</time>
      </trkpt>
      <trkpt lat="43.76948" lon="7.12121">
        <ele>770.79998779297</ele>
        <time>2021-02-25T11:20:07.000Z</time>
      </trkpt>
      <trkpt lat="43.76943" lon="7.12133">
        <ele>769.79998779297</ele>
        <time>2021-02-25T11:20:11.000Z</time>
      </trkpt>
      <trkpt lat="43.7694" lon="7.12142">
        <ele>769</ele>
        <time>2021-02-25T11:20:13.000Z</time>
      </trkpt>
      <trkpt lat="43.76939" lon="7.12146">
        <ele>767.79998779297</ele>
        <time>2021-02-25T11:20:14.000Z</time>
      </trkpt>
      <trkpt lat="43.76936" lon="7.12156">
        <ele>766.59997558594</ele>
        <time>2021-02-25T11:20:16.000Z</time>
      </trkpt>
      <trkpt lat="43.76935" lon="7.12158">
        <ele>765.20001220703</ele>
        <time>2021-02-25T11:20:17.000Z</time>
      </trkpt>
      <trkpt lat="43.76935" lon="7.12159">
        <ele>764.20001220703</ele>
        <time>2021-02-25T11:20:18.000Z</time>
      </trkpt>
      <trkpt lat="43.76933" lon="7.12161">
        <ele>762.79998779297</ele>
        <time>2021-02-25T11:20:20.000Z</time>
      </trkpt>
      <trkpt lat="43.7693" lon="7.12162">
        <ele>762.40002441406</ele>
        <time>2021-02-25T11:20:21.000Z</time>
      </trkpt>
      <trkpt lat="43.76927" lon="7.12162">
        <ele>762.40002441406</ele>
        <time>2021-02-25T11:20:22.000Z</time>
      </trkpt>
      <trkpt lat="43.76914" lon="7.12168">
        <ele>761.59997558594</ele>
        <time>2021-02-25T11:20:26.000Z</time>
      </trkpt>
      <trkpt lat="43.76899" lon="7.12172">
        <ele>761</ele>
        <time>2021-02-25T11:20:30.000Z</time>
      </trkpt>
      <trkpt lat="43.76891" lon="7.12179">
        <ele>760.40002441406</ele>
        <time>2021-02-25T11:20:32.000Z</time>
      </trkpt>
      <trkpt lat="43.76881" lon="7.12182">
        <ele>759.40002441406</ele>
        <time>2021-02-25T11:20:34.000Z</time>
      </trkpt>
      <trkpt lat="43.76876" lon="7.12184">
        <ele>758.59997558594</ele>
        <time>2021-02-25T11:20:35.000Z</time>
      </trkpt>
      <trkpt lat="43.76871" lon="7.12185">
        <ele>758.40002441406</ele>
        <time>2021-02-25T11:20:36.000Z</time>
      </trkpt>
      <trkpt lat="43.76864" lon="7.12184">
        <ele>757.79998779297</ele>
        <time>2021-02-25T11:20:37.000Z</time>
      </trkpt>
      <trkpt lat="43.76858" lon="7.12183">
        <ele>757.40002441406</ele>
        <time>2021-02-25T11:20:38.000Z</time>
      </trkpt>
      <trkpt lat="43.76853" lon="7.12181">
        <ele>756.59997558594</ele>
        <time>2021-02-25T11:20:39.000Z</time>
      </trkpt>
      <trkpt lat="43.76846" lon="7.1218">
        <ele>756</ele>
        <time>2021-02-25T11:20:40.000Z</time>
      </trkpt>
      <trkpt lat="43.76832" lon="7.12179">
        <ele>755</ele>
        <time>2021-02-25T11:20:42.000Z</time>
      </trkpt>
      <trkpt lat="43.76828" lon="7.12181">
        <ele>754.20001220703</ele>
        <time>2021-02-25T11:20:43.000Z</time>
      </trkpt>
      <trkpt lat="43.76824" lon="7.12181">
        <ele>754.20001220703</ele>
        <time>2021-02-25T11:20:44.000Z</time>
      </trkpt>
      <trkpt lat="43.76814" lon="7.12182">
        <ele>753.59997558594</ele>
        <time>2021-02-25T11:20:47.000Z</time>
      </trkpt>
      <trkpt lat="43.76812" lon="7.12185">
        <ele>753.20001220703</ele>
        <time>2021-02-25T11:20:48.000Z</time>
      </trkpt>
      <trkpt lat="43.76811" lon="7.1219">
        <ele>753</ele>
        <time>2021-02-25T11:20:49.000Z</time>
      </trkpt>
      <trkpt lat="43.76808" lon="7.12193">
        <ele>752.40002441406</ele>
        <time>2021-02-25T11:20:50.000Z</time>
      </trkpt>
      <trkpt lat="43.76804" lon="7.12197">
        <ele>751.79998779297</ele>
        <time>2021-02-25T11:20:51.000Z</time>
      </trkpt>
      <trkpt lat="43.76793" lon="7.12203">
        <ele>750.40002441406</ele>
        <time>2021-02-25T11:20:53.000Z</time>
      </trkpt>
      <trkpt lat="43.76788" lon="7.12205">
        <ele>750</ele>
        <time>2021-02-25T11:20:54.000Z</time>
      </trkpt>
      <trkpt lat="43.76777" lon="7.12208">
        <ele>749</ele>
        <time>2021-02-25T11:20:56.000Z</time>
      </trkpt>
      <trkpt lat="43.76767" lon="7.12214">
        <ele>748.20001220703</ele>
        <time>2021-02-25T11:20:58.000Z</time>
      </trkpt>
      <trkpt lat="43.76762" lon="7.12218">
        <ele>748</ele>
        <time>2021-02-25T11:20:59.000Z</time>
      </trkpt>
      <trkpt lat="43.76757" lon="7.1222">
        <ele>747.59997558594</ele>
        <time>2021-02-25T11:21:00.000Z</time>
      </trkpt>
      <trkpt lat="43.76749" lon="7.12226">
        <ele>746.59997558594</ele>
        <time>2021-02-25T11:21:02.000Z</time>
      </trkpt>
      <trkpt lat="43.76745" lon="7.1223">
        <ele>746.40002441406</ele>
        <time>2021-02-25T11:21:03.000Z</time>
      </trkpt>
      <trkpt lat="43.76735" lon="7.12246">
        <ele>745.20001220703</ele>
        <time>2021-02-25T11:21:06.000Z</time>
      </trkpt>
      <trkpt lat="43.76731" lon="7.1225">
        <ele>745.20001220703</ele>
        <time>2021-02-25T11:21:07.000Z</time>
      </trkpt>
      <trkpt lat="43.76724" lon="7.12248">
        <ele>744</ele>
        <time>2021-02-25T11:21:09.000Z</time>
      </trkpt>
      <trkpt lat="43.76703" lon="7.12239">
        <ele>743</ele>
        <time>2021-02-25T11:21:13.000Z</time>
      </trkpt>
      <trkpt lat="43.76698" lon="7.12235">
        <ele>742.59997558594</ele>
        <time>2021-02-25T11:21:14.000Z</time>
      </trkpt>
      <trkpt lat="43.76692" lon="7.12233">
        <ele>742.20001220703</ele>
        <time>2021-02-25T11:21:15.000Z</time>
      </trkpt>
      <trkpt lat="43.76681" lon="7.12225">
        <ele>741</ele>
        <time>2021-02-25T11:21:17.000Z</time>
      </trkpt>
      <trkpt lat="43.76674" lon="7.12218">
        <ele>740</ele>
        <time>2021-02-25T11:21:19.000Z</time>
      </trkpt>
      <trkpt lat="43.76669" lon="7.12218">
        <ele>739.59997558594</ele>
        <time>2021-02-25T11:21:20.000Z</time>
      </trkpt>
      <trkpt lat="43.76658" lon="7.12219">
        <ele>739</ele>
        <time>2021-02-25T11:21:22.000Z</time>
      </trkpt>
      <trkpt lat="43.76651" lon="7.12219">
        <ele>739.20001220703</ele>
        <time>2021-02-25T11:21:24.000Z</time>
      </trkpt>
      <trkpt lat="43.76648" lon="7.12219">
        <ele>739</ele>
        <time>2021-02-25T11:21:25.000Z</time>
      </trkpt>
      <trkpt lat="43.7664" lon="7.12217">
        <ele>738.79998779297</ele>
        <time>2021-02-25T11:21:27.000Z</time>
      </trkpt>
      <trkpt lat="43.76628" lon="7.12216">
        <ele>737.59997558594</ele>
        <time>2021-02-25T11:21:30.000Z</time>
      </trkpt>
      <trkpt lat="43.76623" lon="7.12216">
        <ele>736.79998779297</ele>
        <time>2021-02-25T11:21:31.000Z</time>
      </trkpt>
      <trkpt lat="43.76618" lon="7.12215">
        <ele>735.79998779297</ele>
        <time>2021-02-25T11:21:32.000Z</time>
      </trkpt>
      <trkpt lat="43.76607" lon="7.12215">
        <ele>734.20001220703</ele>
        <time>2021-02-25T11:21:34.000Z</time>
      </trkpt>
      <trkpt lat="43.76602" lon="7.12214">
        <ele>733.20001220703</ele>
        <time>2021-02-25T11:21:35.000Z</time>
      </trkpt>
      <trkpt lat="43.76597" lon="7.12214">
        <ele>732.59997558594</ele>
        <time>2021-02-25T11:21:36.000Z</time>
      </trkpt>
      <trkpt lat="43.7659" lon="7.12209">
        <ele>731.20001220703</ele>
        <time>2021-02-25T11:21:38.000Z</time>
      </trkpt>
      <trkpt lat="43.76588" lon="7.12206">
        <ele>730.79998779297</ele>
        <time>2021-02-25T11:21:39.000Z</time>
      </trkpt>
      <trkpt lat="43.76584" lon="7.12208">
        <ele>730.59997558594</ele>
        <time>2021-02-25T11:21:40.000Z</time>
      </trkpt>
      <trkpt lat="43.76579" lon="7.12209">
        <ele>730.40002441406</ele>
        <time>2021-02-25T11:21:41.000Z</time>
      </trkpt>
      <trkpt lat="43.76569" lon="7.12211">
        <ele>730.40002441406</ele>
        <time>2021-02-25T11:21:43.000Z</time>
      </trkpt>
      <trkpt lat="43.76565" lon="7.1221">
        <ele>730</ele>
        <time>2021-02-25T11:21:44.000Z</time>
      </trkpt>
      <trkpt lat="43.76562" lon="7.12208">
        <ele>729.20001220703</ele>
        <time>2021-02-25T11:21:45.000Z</time>
      </trkpt>
      <trkpt lat="43.76558" lon="7.12206">
        <ele>728.59997558594</ele>
        <time>2021-02-25T11:21:46.000Z</time>
      </trkpt>
      <trkpt lat="43.76551" lon="7.1221">
        <ele>727.40002441406</ele>
        <time>2021-02-25T11:21:48.000Z</time>
      </trkpt>
      <trkpt lat="43.76537" lon="7.1221">
        <ele>726.20001220703</ele>
        <time>2021-02-25T11:21:51.000Z</time>
      </trkpt>
      <trkpt lat="43.76524" lon="7.12216">
        <ele>725.40002441406</ele>
        <time>2021-02-25T11:21:54.000Z</time>
      </trkpt>
      <trkpt lat="43.76519" lon="7.12217">
        <ele>725.20001220703</ele>
        <time>2021-02-25T11:21:55.000Z</time>
      </trkpt>
      <trkpt lat="43.76515" lon="7.12218">
        <ele>725</ele>
        <time>2021-02-25T11:21:56.000Z</time>
      </trkpt>
      <trkpt lat="43.7651" lon="7.12219">
        <ele>724.79998779297</ele>
        <time>2021-02-25T11:21:57.000Z</time>
      </trkpt>
      <trkpt lat="43.76502" lon="7.12222">
        <ele>724.20001220703</ele>
        <time>2021-02-25T11:21:59.000Z</time>
      </trkpt>
      <trkpt lat="43.76497" lon="7.12225">
        <ele>723.79998779297</ele>
        <time>2021-02-25T11:22:00.000Z</time>
      </trkpt>
      <trkpt lat="43.76492" lon="7.12228">
        <ele>723.20001220703</ele>
        <time>2021-02-25T11:22:01.000Z</time>
      </trkpt>
      <trkpt lat="43.76486" lon="7.1223">
        <ele>722.59997558594</ele>
        <time>2021-02-25T11:22:02.000Z</time>
      </trkpt>
      <trkpt lat="43.76481" lon="7.12232">
        <ele>722</ele>
        <time>2021-02-25T11:22:03.000Z</time>
      </trkpt>
      <trkpt lat="43.76477" lon="7.12236">
        <ele>721.40002441406</ele>
        <time>2021-02-25T11:22:04.000Z</time>
      </trkpt>
      <trkpt lat="43.7647" lon="7.12244">
        <ele>720.20001220703</ele>
        <time>2021-02-25T11:22:06.000Z</time>
      </trkpt>
      <trkpt lat="43.76463" lon="7.12254">
        <ele>719</ele>
        <time>2021-02-25T11:22:08.000Z</time>
      </trkpt>
      <trkpt lat="43.76457" lon="7.1226">
        <ele>718.59997558594</ele>
        <time>2021-02-25T11:22:10.000Z</time>
      </trkpt>
      <trkpt lat="43.7645" lon="7.12268">
        <ele>718.59997558594</ele>
        <time>2021-02-25T11:22:13.000Z</time>
      </trkpt>
      <trkpt lat="43.7645" lon="7.12269">
        <ele>719</ele>
        <time>2021-02-25T11:22:14.000Z</time>
      </trkpt>
      <trkpt lat="43.76449" lon="7.12272">
        <ele>720.20001220703</ele>
        <time>2021-02-25T11:22:18.000Z</time>
      </trkpt>
      <trkpt lat="43.76449" lon="7.12272">
        <ele>720.79998779297</ele>
        <time>2021-02-25T11:22:19.000Z</time>
      </trkpt>
      <trkpt lat="43.7645" lon="7.12272">
        <ele>721.59997558594</ele>
        <time>2021-02-25T11:22:21.000Z</time>
      </trkpt>
      <trkpt lat="43.76451" lon="7.12273">
        <ele>721.59997558594</ele>
        <time>2021-02-25T11:22:26.000Z</time>
      </trkpt>
      <trkpt lat="43.76452" lon="7.12276">
        <ele>722.20001220703</ele>
        <time>2021-02-25T11:22:33.000Z</time>
      </trkpt>
      <trkpt lat="43.76451" lon="7.12279">
        <ele>722.20001220703</ele>
        <time>2021-02-25T11:22:39.000Z</time>
      </trkpt>
      <trkpt lat="43.7645" lon="7.12282">
        <ele>722.59997558594</ele>
        <time>2021-02-25T11:22:44.000Z</time>
      </trkpt>
      <trkpt lat="43.7645" lon="7.12283">
        <ele>723</ele>
        <time>2021-02-25T11:22:47.000Z</time>
      </trkpt>
      <trkpt lat="43.7645" lon="7.12285">
        <ele>723.79998779297</ele>
        <time>2021-02-25T11:22:52.000Z</time>
      </trkpt>
      <trkpt lat="43.76449" lon="7.12286">
        <ele>724</ele>
        <time>2021-02-25T11:22:55.000Z</time>
      </trkpt>
      <trkpt lat="43.76447" lon="7.12292">
        <ele>724</ele>
        <time>2021-02-25T11:23:00.000Z</time>
      </trkpt>
      <trkpt lat="43.76445" lon="7.12297">
        <ele>724.40002441406</ele>
        <time>2021-02-25T11:23:04.000Z</time>
      </trkpt>
      <trkpt lat="43.76445" lon="7.12298">
        <ele>724.79998779297</ele>
        <time>2021-02-25T11:23:05.000Z</time>
      </trkpt>
      <trkpt lat="43.76445" lon="7.12302">
        <ele>725.40002441406</ele>
        <time>2021-02-25T11:23:10.000Z</time>
      </trkpt>
      <trkpt lat="43.76445" lon="7.12304">
        <ele>725.79998779297</ele>
        <time>2021-02-25T11:23:15.000Z</time>
      </trkpt>
      <trkpt lat="43.76446" lon="7.12305">
        <ele>725.79998779297</ele>
        <time>2021-02-25T11:23:16.000Z</time>
      </trkpt>
      <trkpt lat="43.76446" lon="7.12312">
        <ele>726.20001220703</ele>
        <time>2021-02-25T11:23:19.000Z</time>
      </trkpt>
      <trkpt lat="43.76446" lon="7.12313">
        <ele>726.40002441406</ele>
        <time>2021-02-25T11:23:20.000Z</time>
      </trkpt>
      <trkpt lat="43.76444" lon="7.12318">
        <ele>727</ele>
        <time>2021-02-25T11:23:22.000Z</time>
      </trkpt>
      <trkpt lat="43.7644" lon="7.12321">
        <ele>727.59997558594</ele>
        <time>2021-02-25T11:23:24.000Z</time>
      </trkpt>
      <trkpt lat="43.76439" lon="7.12323">
        <ele>727.59997558594</ele>
        <time>2021-02-25T11:23:25.000Z</time>
      </trkpt>
      <trkpt lat="43.76437" lon="7.12325">
        <ele>727.59997558594</ele>
        <time>2021-02-25T11:23:26.000Z</time>
      </trkpt>
      <trkpt lat="43.7643" lon="7.12327">
        <ele>727.59997558594</ele>
        <time>2021-02-25T11:23:29.000Z</time>
      </trkpt>
      <trkpt lat="43.76422" lon="7.12328">
        <ele>728.20001220703</ele>
        <time>2021-02-25T11:23:33.000Z</time>
      </trkpt>
      <trkpt lat="43.76417" lon="7.12327">
        <ele>728.20001220703</ele>
        <time>2021-02-25T11:23:35.000Z</time>
      </trkpt>
      <trkpt lat="43.76407" lon="7.12329">
        <ele>727.79998779297</ele>
        <time>2021-02-25T11:23:41.000Z</time>
      </trkpt>
      <trkpt lat="43.76396" lon="7.12331">
        <ele>727.20001220703</ele>
        <time>2021-02-25T11:23:46.000Z</time>
      </trkpt>
      <trkpt lat="43.7639" lon="7.12332">
        <ele>727</ele>
        <time>2021-02-25T11:23:48.000Z</time>
      </trkpt>
      <trkpt lat="43.76385" lon="7.12332">
        <ele>726</ele>
        <time>2021-02-25T11:23:50.000Z</time>
      </trkpt>
      <trkpt lat="43.76382" lon="7.12332">
        <ele>725.59997558594</ele>
        <time>2021-02-25T11:23:51.000Z</time>
      </trkpt>
      <trkpt lat="43.76375" lon="7.12332">
        <ele>724.40002441406</ele>
        <time>2021-02-25T11:23:53.000Z</time>
      </trkpt>
      <trkpt lat="43.76365" lon="7.12331">
        <ele>723</ele>
        <time>2021-02-25T11:23:56.000Z</time>
      </trkpt>
      <trkpt lat="43.76347" lon="7.12328">
        <ele>721.79998779297</ele>
        <time>2021-02-25T11:24:01.000Z</time>
      </trkpt>
      <trkpt lat="43.76336" lon="7.12325">
        <ele>720.59997558594</ele>
        <time>2021-02-25T11:24:04.000Z</time>
      </trkpt>
      <trkpt lat="43.76333" lon="7.12324">
        <ele>720.40002441406</ele>
        <time>2021-02-25T11:24:05.000Z</time>
      </trkpt>
      <trkpt lat="43.76326" lon="7.12323">
        <ele>719.59997558594</ele>
        <time>2021-02-25T11:24:07.000Z</time>
      </trkpt>
      <trkpt lat="43.76321" lon="7.1232">
        <ele>718.79998779297</ele>
        <time>2021-02-25T11:24:09.000Z</time>
      </trkpt>
      <trkpt lat="43.76318" lon="7.1232">
        <ele>718.40002441406</ele>
        <time>2021-02-25T11:24:10.000Z</time>
      </trkpt>
      <trkpt lat="43.76309" lon="7.12322">
        <ele>716.59997558594</ele>
        <time>2021-02-25T11:24:13.000Z</time>
      </trkpt>
      <trkpt lat="43.76304" lon="7.12322">
        <ele>715</ele>
        <time>2021-02-25T11:24:15.000Z</time>
      </trkpt>
      <trkpt lat="43.76297" lon="7.12323">
        <ele>714</ele>
        <time>2021-02-25T11:24:17.000Z</time>
      </trkpt>
      <trkpt lat="43.76294" lon="7.12323">
        <ele>713.59997558594</ele>
        <time>2021-02-25T11:24:18.000Z</time>
      </trkpt>
      <trkpt lat="43.76288" lon="7.12324">
        <ele>712.59997558594</ele>
        <time>2021-02-25T11:24:21.000Z</time>
      </trkpt>
      <trkpt lat="43.76286" lon="7.12324">
        <ele>712.20001220703</ele>
        <time>2021-02-25T11:24:23.000Z</time>
      </trkpt>
      <trkpt lat="43.76285" lon="7.12323">
        <ele>711.59997558594</ele>
        <time>2021-02-25T11:24:25.000Z</time>
      </trkpt>
      <trkpt lat="43.76284" lon="7.12323">
        <ele>711.59997558594</ele>
        <time>2021-02-25T11:24:27.000Z</time>
      </trkpt>
      <trkpt lat="43.76283" lon="7.12323">
        <ele>711.79998779297</ele>
        <time>2021-02-25T11:24:28.000Z</time>
      </trkpt>
      <trkpt lat="43.76275" lon="7.12323">
        <ele>711.59997558594</ele>
        <time>2021-02-25T11:24:32.000Z</time>
      </trkpt>
      <trkpt lat="43.76266" lon="7.12323">
        <ele>710.59997558594</ele>
        <time>2021-02-25T11:24:37.000Z</time>
      </trkpt>
      <trkpt lat="43.76264" lon="7.12323">
        <ele>710.40002441406</ele>
        <time>2021-02-25T11:24:38.000Z</time>
      </trkpt>
      <trkpt lat="43.76263" lon="7.12322">
        <ele>710.40002441406</ele>
        <time>2021-02-25T11:24:39.000Z</time>
      </trkpt>
      <trkpt lat="43.7626" lon="7.12322">
        <ele>710.40002441406</ele>
        <time>2021-02-25T11:24:41.000Z</time>
      </trkpt>
      <trkpt lat="43.76247" lon="7.12321">
        <ele>710</ele>
        <time>2021-02-25T11:24:46.000Z</time>
      </trkpt>
      <trkpt lat="43.76243" lon="7.12321">
        <ele>709.79998779297</ele>
        <time>2021-02-25T11:24:48.000Z</time>
      </trkpt>
      <trkpt lat="43.76238" lon="7.12322">
        <ele>709.40002441406</ele>
        <time>2021-02-25T11:24:50.000Z</time>
      </trkpt>
      <trkpt lat="43.76235" lon="7.12322">
        <ele>709.20001220703</ele>
        <time>2021-02-25T11:24:51.000Z</time>
      </trkpt>
      <trkpt lat="43.76216" lon="7.12322">
        <ele>709</ele>
        <time>2021-02-25T11:24:57.000Z</time>
      </trkpt>
      <trkpt lat="43.76198" lon="7.12325">
        <ele>708.40002441406</ele>
        <time>2021-02-25T11:25:02.000Z</time>
      </trkpt>
      <trkpt lat="43.76195" lon="7.12326">
        <ele>708.40002441406</ele>
        <time>2021-02-25T11:25:03.000Z</time>
      </trkpt>
      <trkpt lat="43.76184" lon="7.12325">
        <ele>708.40002441406</ele>
        <time>2021-02-25T11:25:08.000Z</time>
      </trkpt>
      <trkpt lat="43.76178" lon="7.12325">
        <ele>708.59997558594</ele>
        <time>2021-02-25T11:25:12.000Z</time>
      </trkpt>
      <trkpt lat="43.7617" lon="7.12326">
        <ele>709.40002441406</ele>
        <time>2021-02-25T11:25:17.000Z</time>
      </trkpt>
      <trkpt lat="43.76165" lon="7.12326">
        <ele>709.20001220703</ele>
        <time>2021-02-25T11:25:19.000Z</time>
      </trkpt>
      <trkpt lat="43.76162" lon="7.12324">
        <ele>709.20001220703</ele>
        <time>2021-02-25T11:25:21.000Z</time>
      </trkpt>
      <trkpt lat="43.7616" lon="7.12325">
        <ele>709.20001220703</ele>
        <time>2021-02-25T11:25:22.000Z</time>
      </trkpt>
      <trkpt lat="43.7616" lon="7.12325">
        <ele>708.79998779297</ele>
        <time>2021-02-25T11:25:25.000Z</time>
      </trkpt>
      <trkpt lat="43.7616" lon="7.12325">
        <ele>708.40002441406</ele>
        <time>2021-02-25T11:25:36.000Z</time>
      </trkpt>
      <trkpt lat="43.7616" lon="7.12325">
        <ele>708.20001220703</ele>
        <time>2021-02-25T11:25:38.000Z</time>
      </trkpt>
      <trkpt lat="43.7616" lon="7.12325">
        <ele>707.20001220703</ele>
        <time>2021-02-25T11:25:44.000Z</time>
      </trkpt>
      <trkpt lat="43.76161" lon="7.12324">
        <ele>707.20001220703</ele>
        <time>2021-02-25T11:25:45.000Z</time>
      </trkpt>
      <trkpt lat="43.7616" lon="7.12324">
        <ele>707.59997558594</ele>
        <time>2021-02-25T11:25:52.000Z</time>
      </trkpt>
      <trkpt lat="43.7616" lon="7.12324">
        <ele>707.40002441406</ele>
        <time>2021-02-25T11:26:00.000Z</time>
      </trkpt>
      <trkpt lat="43.76159" lon="7.12324">
        <ele>707.40002441406</ele>
        <time>2021-02-25T11:26:08.000Z</time>
      </trkpt>
      <trkpt lat="43.76155" lon="7.12327">
        <ele>707</ele>
        <time>2021-02-25T11:26:15.000Z</time>
      </trkpt>
      <trkpt lat="43.76155" lon="7.12327">
        <ele>706.59997558594</ele>
        <time>2021-02-25T11:26:21.000Z</time>
      </trkpt>
      <trkpt lat="43.76156" lon="7.12328">
        <ele>706.59997558594</ele>
        <time>2021-02-25T11:26:22.000Z</time>
      </trkpt>
      <trkpt lat="43.76159" lon="7.12326">
        <ele>706.59997558594</ele>
        <time>2021-02-25T11:26:26.000Z</time>
      </trkpt>
      <trkpt lat="43.7616" lon="7.12326">
        <ele>706.79998779297</ele>
        <time>2021-02-25T11:26:30.000Z</time>
      </trkpt>
      <trkpt lat="43.76159" lon="7.12327">
        <ele>706.79998779297</ele>
        <time>2021-02-25T11:26:36.000Z</time>
      </trkpt>
      <trkpt lat="43.76158" lon="7.12326">
        <ele>706.59997558594</ele>
        <time>2021-02-25T11:26:41.000Z</time>
      </trkpt>
      <trkpt lat="43.7616" lon="7.12323">
        <ele>706.79998779297</ele>
        <time>2021-02-25T11:26:48.000Z</time>
      </trkpt>
      <trkpt lat="43.7616" lon="7.12322">
        <ele>706.79998779297</ele>
        <time>2021-02-25T11:26:52.000Z</time>
      </trkpt>
      <trkpt lat="43.7616" lon="7.12322">
        <ele>706.59997558594</ele>
        <time>2021-02-25T11:27:02.000Z</time>
      </trkpt>
      <trkpt lat="43.7616" lon="7.12322">
        <ele>706.59997558594</ele>
        <time>2021-02-25T11:27:13.000Z</time>
      </trkpt>
      <trkpt lat="43.7616" lon="7.12322">
        <ele>706.59997558594</ele>
        <time>2021-02-25T11:27:21.000Z</time>
      </trkpt>
      <trkpt lat="43.76159" lon="7.12324">
        <ele>706.40002441406</ele>
        <time>2021-02-25T11:27:33.000Z</time>
      </trkpt>
      <trkpt lat="43.76155" lon="7.12326">
        <ele>706.40002441406</ele>
        <time>2021-02-25T11:27:40.000Z</time>
      </trkpt>
      <trkpt lat="43.76154" lon="7.12326">
        <ele>706.40002441406</ele>
        <time>2021-02-25T11:27:45.000Z</time>
      </trkpt>
      <trkpt lat="43.76154" lon="7.12326">
        <ele>706.20001220703</ele>
        <time>2021-02-25T11:27:47.000Z</time>
      </trkpt>
      <trkpt lat="43.76154" lon="7.12327">
        <ele>706.20001220703</ele>
        <time>2021-02-25T11:27:52.000Z</time>
      </trkpt>
      <trkpt lat="43.76154" lon="7.12327">
        <ele>706</ele>
        <time>2021-02-25T11:28:00.000Z</time>
      </trkpt>
      <trkpt lat="43.76154" lon="7.12328">
        <ele>706</ele>
        <time>2021-02-25T11:28:11.000Z</time>
      </trkpt>
      <trkpt lat="43.76154" lon="7.12327">
        <ele>706.20001220703</ele>
        <time>2021-02-25T11:28:21.000Z</time>
      </trkpt>
      <trkpt lat="43.76154" lon="7.12328">
        <ele>706.20001220703</ele>
        <time>2021-02-25T11:28:31.000Z</time>
      </trkpt>
      <trkpt lat="43.76154" lon="7.12328">
        <ele>706</ele>
        <time>2021-02-25T11:28:39.000Z</time>
      </trkpt>
      <trkpt lat="43.76154" lon="7.12327">
        <ele>706.20001220703</ele>
        <time>2021-02-25T11:28:51.000Z</time>
      </trkpt>
      <trkpt lat="43.76153" lon="7.12328">
        <ele>705.59997558594</ele>
        <time>2021-02-25T11:29:04.000Z</time>
      </trkpt>
      <trkpt lat="43.76153" lon="7.12328">
        <ele>706.20001220703</ele>
        <time>2021-02-25T11:29:14.000Z</time>
      </trkpt>
      <trkpt lat="43.76153" lon="7.12328">
        <ele>706.59997558594</ele>
        <time>2021-02-25T11:29:31.000Z</time>
      </trkpt>
      <trkpt lat="43.76153" lon="7.12328">
        <ele>706.40002441406</ele>
        <time>2021-02-25T11:30:01.000Z</time>
      </trkpt>
      <trkpt lat="43.76153" lon="7.12328">
        <ele>706.20001220703</ele>
        <time>2021-02-25T11:30:27.000Z</time>
      </trkpt>
      <trkpt lat="43.76153" lon="7.12328">
        <ele>706.40002441406</ele>
        <time>2021-02-25T11:30:51.000Z</time>
      </trkpt>
      <trkpt lat="43.76153" lon="7.12328">
        <ele>706.79998779297</ele>
        <time>2021-02-25T11:31:23.000Z</time>
      </trkpt>
      <trkpt lat="43.76152" lon="7.12327">
        <ele>707</ele>
        <time>2021-02-25T11:31:51.000Z</time>
      </trkpt>
      <trkpt lat="43.76152" lon="7.12327">
        <ele>707.20001220703</ele>
        <time>2021-02-25T11:31:55.000Z</time>
      </trkpt>
      <trkpt lat="43.76152" lon="7.12327">
        <ele>707.20001220703</ele>
        <time>2021-02-25T11:32:06.000Z</time>
      </trkpt>
      <trkpt lat="43.76152" lon="7.12327">
        <ele>707.79998779297</ele>
        <time>2021-02-25T11:32:27.000Z</time>
      </trkpt>
      <trkpt lat="43.76152" lon="7.12327">
        <ele>707.79998779297</ele>
        <time>2021-02-25T11:32:36.000Z</time>
      </trkpt>
      <trkpt lat="43.76152" lon="7.12327">
        <ele>707.40002441406</ele>
        <time>2021-02-25T11:32:58.000Z</time>
      </trkpt>
      <trkpt lat="43.76152" lon="7.12328">
        <ele>707.79998779297</ele>
        <time>2021-02-25T11:33:23.000Z</time>
      </trkpt>
      <trkpt lat="43.76153" lon="7.12328">
        <ele>707.79998779297</ele>
        <time>2021-02-25T11:33:48.000Z</time>
      </trkpt>
      <trkpt lat="43.76153" lon="7.12328">
        <ele>708.20001220703</ele>
        <time>2021-02-25T11:33:57.000Z</time>
      </trkpt>
      <trkpt lat="43.76153" lon="7.12328">
        <ele>708</ele>
        <time>2021-02-25T11:34:12.000Z</time>
      </trkpt>
      <trkpt lat="43.76153" lon="7.12329">
        <ele>708.20001220703</ele>
        <time>2021-02-25T11:34:37.000Z</time>
      </trkpt>
      <trkpt lat="43.76153" lon="7.12329">
        <ele>708.40002441406</ele>
        <time>2021-02-25T11:35:08.000Z</time>
      </trkpt>
      <trkpt lat="43.76153" lon="7.12329">
        <ele>708</ele>
        <time>2021-02-25T11:35:32.000Z</time>
      </trkpt>
      <trkpt lat="43.76153" lon="7.12329">
        <ele>708.59997558594</ele>
        <time>2021-02-25T11:35:52.000Z</time>
      </trkpt>
      <trkpt lat="43.76152" lon="7.12329">
        <ele>708.79998779297</ele>
        <time>2021-02-25T11:36:12.000Z</time>
      </trkpt>
      <trkpt lat="43.76153" lon="7.12329">
        <ele>708.59997558594</ele>
        <time>2021-02-25T11:36:37.000Z</time>
      </trkpt>
      <trkpt lat="43.76153" lon="7.12329">
        <ele>708.20001220703</ele>
        <time>2021-02-25T11:36:58.000Z</time>
      </trkpt>
      <trkpt lat="43.76153" lon="7.12329">
        <ele>708.79998779297</ele>
        <time>2021-02-25T11:37:23.000Z</time>
      </trkpt>
      <trkpt lat="43.76152" lon="7.12328">
        <ele>709</ele>
        <time>2021-02-25T11:37:33.000Z</time>
      </trkpt>
      <trkpt lat="43.76152" lon="7.12328">
        <ele>708.20001220703</ele>
        <time>2021-02-25T11:37:44.000Z</time>
      </trkpt>
      <trkpt lat="43.76153" lon="7.12327">
        <ele>708.59997558594</ele>
        <time>2021-02-25T11:38:07.000Z</time>
      </trkpt>
      <trkpt lat="43.76153" lon="7.12327">
        <ele>708.59997558594</ele>
        <time>2021-02-25T11:38:22.000Z</time>
      </trkpt>
      <trkpt lat="43.76153" lon="7.12327">
        <ele>708.79998779297</ele>
        <time>2021-02-25T11:38:41.000Z</time>
      </trkpt>
      <trkpt lat="43.76153" lon="7.12327">
        <ele>708.59997558594</ele>
        <time>2021-02-25T11:38:57.000Z</time>
      </trkpt>
      <trkpt lat="43.76153" lon="7.12327">
        <ele>708.59997558594</ele>
        <time>2021-02-25T11:39:09.000Z</time>
      </trkpt>
      <trkpt lat="43.76153" lon="7.12327">
        <ele>708.59997558594</ele>
        <time>2021-02-25T11:39:19.000Z</time>
      </trkpt>
      <trkpt lat="43.76152" lon="7.12326">
        <ele>708.40002441406</ele>
        <time>2021-02-25T11:39:40.000Z</time>
      </trkpt>
      <trkpt lat="43.76152" lon="7.12326">
        <ele>708.40002441406</ele>
        <time>2021-02-25T11:40:00.000Z</time>
      </trkpt>
      <trkpt lat="43.76153" lon="7.12327">
        <ele>708.79998779297</ele>
        <time>2021-02-25T11:40:16.000Z</time>
      </trkpt>
      <trkpt lat="43.76152" lon="7.12329">
        <ele>708.59997558594</ele>
        <time>2021-02-25T11:40:37.000Z</time>
      </trkpt>
      <trkpt lat="43.76153" lon="7.1233">
        <ele>708.59997558594</ele>
        <time>2021-02-25T11:41:03.000Z</time>
      </trkpt>
      <trkpt lat="43.76152" lon="7.1233">
        <ele>708.59997558594</ele>
        <time>2021-02-25T11:41:18.000Z</time>
      </trkpt>
      <trkpt lat="43.76153" lon="7.1233">
        <ele>708.59997558594</ele>
        <time>2021-02-25T11:41:33.000Z</time>
      </trkpt>
      <trkpt lat="43.76153" lon="7.1233">
        <ele>708.40002441406</ele>
        <time>2021-02-25T11:41:51.000Z</time>
      </trkpt>
      <trkpt lat="43.76153" lon="7.1233">
        <ele>708.40002441406</ele>
        <time>2021-02-25T11:42:07.000Z</time>
      </trkpt>
      <trkpt lat="43.76153" lon="7.1233">
        <ele>708.59997558594</ele>
        <time>2021-02-25T11:42:17.000Z</time>
      </trkpt>
      <trkpt lat="43.76153" lon="7.1233">
        <ele>708.59997558594</ele>
        <time>2021-02-25T11:42:27.000Z</time>
      </trkpt>
      <trkpt lat="43.76153" lon="7.12329">
        <ele>708.59997558594</ele>
        <time>2021-02-25T11:42:43.000Z</time>
      </trkpt>
      <trkpt lat="43.76153" lon="7.12329">
        <ele>708.59997558594</ele>
        <time>2021-02-25T11:42:53.000Z</time>
      </trkpt>
      <trkpt lat="43.76153" lon="7.12328">
        <ele>708.59997558594</ele>
        <time>2021-02-25T11:43:06.000Z</time>
      </trkpt>
      <trkpt lat="43.76152" lon="7.12328">
        <ele>708.59997558594</ele>
        <time>2021-02-25T11:43:25.000Z</time>
      </trkpt>
      <trkpt lat="43.76151" lon="7.12332">
        <ele>708.59997558594</ele>
        <time>2021-02-25T11:43:48.000Z</time>
      </trkpt>
      <trkpt lat="43.76151" lon="7.12333">
        <ele>708.79998779297</ele>
        <time>2021-02-25T11:43:52.000Z</time>
      </trkpt>
      <trkpt lat="43.76151" lon="7.12331">
        <ele>709</ele>
        <time>2021-02-25T11:44:06.000Z</time>
      </trkpt>
      <trkpt lat="43.76152" lon="7.1233">
        <ele>709.20001220703</ele>
        <time>2021-02-25T11:44:21.000Z</time>
      </trkpt>
      <trkpt lat="43.76152" lon="7.1233">
        <ele>709.40002441406</ele>
        <time>2021-02-25T11:44:23.000Z</time>
      </trkpt>
      <trkpt lat="43.76151" lon="7.1233">
        <ele>709</ele>
        <time>2021-02-25T11:44:29.000Z</time>
      </trkpt>
      <trkpt lat="43.76152" lon="7.12329">
        <ele>709</ele>
        <time>2021-02-25T11:44:38.000Z</time>
      </trkpt>
      <trkpt lat="43.76152" lon="7.12329">
        <ele>708.79998779297</ele>
        <time>2021-02-25T11:44:47.000Z</time>
      </trkpt>
      <trkpt lat="43.76152" lon="7.12329">
        <ele>708.79998779297</ele>
        <time>2021-02-25T11:45:01.000Z</time>
      </trkpt>
      <trkpt lat="43.76152" lon="7.12329">
        <ele>708.59997558594</ele>
        <time>2021-02-25T11:45:26.000Z</time>
      </trkpt>
      <trkpt lat="43.76152" lon="7.12329">
        <ele>708.40002441406</ele>
        <time>2021-02-25T11:45:43.000Z</time>
      </trkpt>
      <trkpt lat="43.76152" lon="7.12329">
        <ele>708.59997558594</ele>
        <time>2021-02-25T11:45:53.000Z</time>
      </trkpt>
      <trkpt lat="43.76152" lon="7.12329">
        <ele>708.79998779297</ele>
        <time>2021-02-25T11:46:03.000Z</time>
      </trkpt>
      <trkpt lat="43.76152" lon="7.12328">
        <ele>709</ele>
        <time>2021-02-25T11:46:08.000Z</time>
      </trkpt>
      <trkpt lat="43.76152" lon="7.12328">
        <ele>709</ele>
        <time>2021-02-25T11:46:29.000Z</time>
      </trkpt>
      <trkpt lat="43.76152" lon="7.12328">
        <ele>709</ele>
        <time>2021-02-25T11:46:58.000Z</time>
      </trkpt>
      <trkpt lat="43.76152" lon="7.12329">
        <ele>709</ele>
        <time>2021-02-25T11:47:24.000Z</time>
      </trkpt>
      <trkpt lat="43.76152" lon="7.12328">
        <ele>709.20001220703</ele>
        <time>2021-02-25T11:47:35.000Z</time>
      </trkpt>
      <trkpt lat="43.76153" lon="7.12327">
        <ele>710</ele>
        <time>2021-02-25T11:47:41.000Z</time>
      </trkpt>
      <trkpt lat="43.76153" lon="7.12327">
        <ele>709.59997558594</ele>
        <time>2021-02-25T11:47:48.000Z</time>
      </trkpt>
      <trkpt lat="43.76153" lon="7.12327">
        <ele>709.79998779297</ele>
        <time>2021-02-25T11:47:56.000Z</time>
      </trkpt>
      <trkpt lat="43.76153" lon="7.12327">
        <ele>710</ele>
        <time>2021-02-25T11:48:04.000Z</time>
      </trkpt>
      <trkpt lat="43.76154" lon="7.12327">
        <ele>710</ele>
        <time>2021-02-25T11:48:10.000Z</time>
      </trkpt>
      <trkpt lat="43.76154" lon="7.12327">
        <ele>710.20001220703</ele>
        <time>2021-02-25T11:48:17.000Z</time>
      </trkpt>
      <trkpt lat="43.76154" lon="7.12327">
        <ele>710</ele>
        <time>2021-02-25T11:48:22.000Z</time>
      </trkpt>
      <trkpt lat="43.76154" lon="7.12327">
        <ele>710.40002441406</ele>
        <time>2021-02-25T11:48:26.000Z</time>
      </trkpt>
      <trkpt lat="43.76154" lon="7.12327">
        <ele>710.20001220703</ele>
        <time>2021-02-25T11:48:45.000Z</time>
      </trkpt>
      <trkpt lat="43.76153" lon="7.12326">
        <ele>710.59997558594</ele>
        <time>2021-02-25T11:48:58.000Z</time>
      </trkpt>
      <trkpt lat="43.76153" lon="7.12325">
        <ele>710.59997558594</ele>
        <time>2021-02-25T11:49:09.000Z</time>
      </trkpt>
      <trkpt lat="43.76153" lon="7.12326">
        <ele>710.59997558594</ele>
        <time>2021-02-25T11:49:18.000Z</time>
      </trkpt>
      <trkpt lat="43.76153" lon="7.12326">
        <ele>710.40002441406</ele>
        <time>2021-02-25T11:49:33.000Z</time>
      </trkpt>
      <trkpt lat="43.76153" lon="7.12325">
        <ele>710.40002441406</ele>
        <time>2021-02-25T11:49:44.000Z</time>
      </trkpt>
      <trkpt lat="43.76152" lon="7.12326">
        <ele>710.79998779297</ele>
        <time>2021-02-25T11:50:03.000Z</time>
      </trkpt>
      <trkpt lat="43.76153" lon="7.12326">
        <ele>710.59997558594</ele>
        <time>2021-02-25T11:50:22.000Z</time>
      </trkpt>
      <trkpt lat="43.76154" lon="7.12326">
        <ele>710.59997558594</ele>
        <time>2021-02-25T11:50:30.000Z</time>
      </trkpt>
      <trkpt lat="43.76155" lon="7.12326">
        <ele>710.40002441406</ele>
        <time>2021-02-25T11:50:38.000Z</time>
      </trkpt>
      <trkpt lat="43.76154" lon="7.12325">
        <ele>710.20001220703</ele>
        <time>2021-02-25T11:50:42.000Z</time>
      </trkpt>
      <trkpt lat="43.76154" lon="7.12325">
        <ele>710.20001220703</ele>
        <time>2021-02-25T11:50:55.000Z</time>
      </trkpt>
      <trkpt lat="43.76154" lon="7.12325">
        <ele>710.20001220703</ele>
        <time>2021-02-25T11:51:11.000Z</time>
      </trkpt>
      <trkpt lat="43.76155" lon="7.12327">
        <ele>710.20001220703</ele>
        <time>2021-02-25T11:51:23.000Z</time>
      </trkpt>
      <trkpt lat="43.76155" lon="7.12327">
        <ele>710.40002441406</ele>
        <time>2021-02-25T11:51:34.000Z</time>
      </trkpt>
      <trkpt lat="43.76154" lon="7.12327">
        <ele>710.59997558594</ele>
        <time>2021-02-25T11:51:39.000Z</time>
      </trkpt>
      <trkpt lat="43.76154" lon="7.12327">
        <ele>710.79998779297</ele>
        <time>2021-02-25T11:51:47.000Z</time>
      </trkpt>
      <trkpt lat="43.76154" lon="7.12327">
        <ele>711</ele>
        <time>2021-02-25T11:51:54.000Z</time>
      </trkpt>
      <trkpt lat="43.76154" lon="7.12327">
        <ele>711</ele>
        <time>2021-02-25T11:52:08.000Z</time>
      </trkpt>
      <trkpt lat="43.76154" lon="7.12327">
        <ele>710.79998779297</ele>
        <time>2021-02-25T11:52:20.000Z</time>
      </trkpt>
      <trkpt lat="43.76154" lon="7.12328">
        <ele>711</ele>
        <time>2021-02-25T11:52:30.000Z</time>
      </trkpt>
      <trkpt lat="43.76154" lon="7.12328">
        <ele>711</ele>
        <time>2021-02-25T11:52:40.000Z</time>
      </trkpt>
      <trkpt lat="43.76154" lon="7.12328">
        <ele>710.79998779297</ele>
        <time>2021-02-25T11:52:49.000Z</time>
      </trkpt>
      <trkpt lat="43.76154" lon="7.12327">
        <ele>710.59997558594</ele>
        <time>2021-02-25T11:53:12.000Z</time>
      </trkpt>
      <trkpt lat="43.76154" lon="7.12327">
        <ele>711</ele>
        <time>2021-02-25T11:53:30.000Z</time>
      </trkpt>
      <trkpt lat="43.76154" lon="7.12327">
        <ele>711.20001220703</ele>
        <time>2021-02-25T11:53:39.000Z</time>
      </trkpt>
      <trkpt lat="43.76154" lon="7.12327">
        <ele>711.20001220703</ele>
        <time>2021-02-25T11:53:48.000Z</time>
      </trkpt>
      <trkpt lat="43.76154" lon="7.12328">
        <ele>711</ele>
        <time>2021-02-25T11:54:06.000Z</time>
      </trkpt>
      <trkpt lat="43.76154" lon="7.12328">
        <ele>711.20001220703</ele>
        <time>2021-02-25T11:54:16.000Z</time>
      </trkpt>
      <trkpt lat="43.76154" lon="7.12328">
        <ele>711.40002441406</ele>
        <time>2021-02-25T11:54:29.000Z</time>
      </trkpt>
      <trkpt lat="43.76154" lon="7.12328">
        <ele>711.40002441406</ele>
        <time>2021-02-25T11:54:34.000Z</time>
      </trkpt>
      <trkpt lat="43.76154" lon="7.12328">
        <ele>711.79998779297</ele>
        <time>2021-02-25T11:54:45.000Z</time>
      </trkpt>
      <trkpt lat="43.76154" lon="7.12329">
        <ele>711.79998779297</ele>
        <time>2021-02-25T11:54:52.000Z</time>
      </trkpt>
      <trkpt lat="43.76154" lon="7.12328">
        <ele>711.59997558594</ele>
        <time>2021-02-25T11:54:57.000Z</time>
      </trkpt>
      <trkpt lat="43.76154" lon="7.12328">
        <ele>711.59997558594</ele>
        <time>2021-02-25T11:55:12.000Z</time>
      </trkpt>
      <trkpt lat="43.76154" lon="7.12328">
        <ele>711.40002441406</ele>
        <time>2021-02-25T11:55:20.000Z</time>
      </trkpt>
      <trkpt lat="43.76155" lon="7.12328">
        <ele>711.79998779297</ele>
        <time>2021-02-25T11:55:34.000Z</time>
      </trkpt>
      <trkpt lat="43.76155" lon="7.12328">
        <ele>711.20001220703</ele>
        <time>2021-02-25T11:55:48.000Z</time>
      </trkpt>
      <trkpt lat="43.76154" lon="7.12327">
        <ele>711.40002441406</ele>
        <time>2021-02-25T11:56:07.000Z</time>
      </trkpt>
      <trkpt lat="43.76154" lon="7.12327">
        <ele>711.40002441406</ele>
        <time>2021-02-25T11:56:37.000Z</time>
      </trkpt>
      <trkpt lat="43.76154" lon="7.12327">
        <ele>711.59997558594</ele>
        <time>2021-02-25T11:56:46.000Z</time>
      </trkpt>
      <trkpt lat="43.76154" lon="7.12327">
        <ele>711.59997558594</ele>
        <time>2021-02-25T11:56:54.000Z</time>
      </trkpt>
      <trkpt lat="43.76154" lon="7.12327">
        <ele>711</ele>
        <time>2021-02-25T11:57:04.000Z</time>
      </trkpt>
      <trkpt lat="43.76154" lon="7.12327">
        <ele>711.20001220703</ele>
        <time>2021-02-25T11:57:12.000Z</time>
      </trkpt>
      <trkpt lat="43.76154" lon="7.12327">
        <ele>711</ele>
        <time>2021-02-25T11:57:21.000Z</time>
      </trkpt>
      <trkpt lat="43.76155" lon="7.12328">
        <ele>711</ele>
        <time>2021-02-25T11:57:32.000Z</time>
      </trkpt>
      <trkpt lat="43.76154" lon="7.12328">
        <ele>710.79998779297</ele>
        <time>2021-02-25T11:57:48.000Z</time>
      </trkpt>
      <trkpt lat="43.76155" lon="7.12329">
        <ele>711</ele>
        <time>2021-02-25T11:58:02.000Z</time>
      </trkpt>
      <trkpt lat="43.76155" lon="7.12328">
        <ele>711.79998779297</ele>
        <time>2021-02-25T11:58:11.000Z</time>
      </trkpt>
      <trkpt lat="43.76155" lon="7.12328">
        <ele>711.59997558594</ele>
        <time>2021-02-25T11:58:21.000Z</time>
      </trkpt>
      <trkpt lat="43.76155" lon="7.12328">
        <ele>711.40002441406</ele>
        <time>2021-02-25T11:58:33.000Z</time>
      </trkpt>
      <trkpt lat="43.76155" lon="7.12328">
        <ele>712</ele>
        <time>2021-02-25T11:58:46.000Z</time>
      </trkpt>
      <trkpt lat="43.76154" lon="7.12328">
        <ele>711.59997558594</ele>
        <time>2021-02-25T11:58:54.000Z</time>
      </trkpt>
      <trkpt lat="43.76155" lon="7.12328">
        <ele>711.59997558594</ele>
        <time>2021-02-25T11:59:04.000Z</time>
      </trkpt>
      <trkpt lat="43.76155" lon="7.12327">
        <ele>712</ele>
        <time>2021-02-25T11:59:11.000Z</time>
      </trkpt>
      <trkpt lat="43.76155" lon="7.12328">
        <ele>712</ele>
        <time>2021-02-25T11:59:21.000Z</time>
      </trkpt>
      <trkpt lat="43.76155" lon="7.12328">
        <ele>711.79998779297</ele>
        <time>2021-02-25T11:59:33.000Z</time>
      </trkpt>
      <trkpt lat="43.76155" lon="7.12328">
        <ele>712</ele>
        <time>2021-02-25T11:59:49.000Z</time>
      </trkpt>
      <trkpt lat="43.76154" lon="7.12328">
        <ele>711.79998779297</ele>
        <time>2021-02-25T12:00:02.000Z</time>
      </trkpt>
      <trkpt lat="43.76154" lon="7.12328">
        <ele>711.40002441406</ele>
        <time>2021-02-25T12:00:11.000Z</time>
      </trkpt>
      <trkpt lat="43.76154" lon="7.12327">
        <ele>711.79998779297</ele>
        <time>2021-02-25T12:00:20.000Z</time>
      </trkpt>
      <trkpt lat="43.76154" lon="7.12328">
        <ele>711.59997558594</ele>
        <time>2021-02-25T12:00:24.000Z</time>
      </trkpt>
      <trkpt lat="43.76154" lon="7.12328">
        <ele>711.79998779297</ele>
        <time>2021-02-25T12:00:34.000Z</time>
      </trkpt>
      <trkpt lat="43.76154" lon="7.12328">
        <ele>711.59997558594</ele>
        <time>2021-02-25T12:00:44.000Z</time>
      </trkpt>
      <trkpt lat="43.76155" lon="7.12328">
        <ele>711.79998779297</ele>
        <time>2021-02-25T12:00:53.000Z</time>
      </trkpt>
      <trkpt lat="43.76154" lon="7.12328">
        <ele>711.79998779297</ele>
        <time>2021-02-25T12:01:03.000Z</time>
      </trkpt>
      <trkpt lat="43.76154" lon="7.12327">
        <ele>711.79998779297</ele>
        <time>2021-02-25T12:01:25.000Z</time>
      </trkpt>
      <trkpt lat="43.76155" lon="7.12328">
        <ele>712</ele>
        <time>2021-02-25T12:01:47.000Z</time>
      </trkpt>
      <trkpt lat="43.76155" lon="7.12328">
        <ele>712.40002441406</ele>
        <time>2021-02-25T12:02:01.000Z</time>
      </trkpt>
      <trkpt lat="43.76154" lon="7.12328">
        <ele>712</ele>
        <time>2021-02-25T12:02:10.000Z</time>
      </trkpt>
      <trkpt lat="43.76155" lon="7.12328">
        <ele>711.79998779297</ele>
        <time>2021-02-25T12:02:21.000Z</time>
      </trkpt>
      <trkpt lat="43.76154" lon="7.12328">
        <ele>712</ele>
        <time>2021-02-25T12:02:39.000Z</time>
      </trkpt>
      <trkpt lat="43.76154" lon="7.12328">
        <ele>711.79998779297</ele>
        <time>2021-02-25T12:02:48.000Z</time>
      </trkpt>
      <trkpt lat="43.76154" lon="7.12328">
        <ele>711.59997558594</ele>
        <time>2021-02-25T12:03:10.000Z</time>
      </trkpt>
      <trkpt lat="43.76154" lon="7.12327">
        <ele>711</ele>
        <time>2021-02-25T12:03:19.000Z</time>
      </trkpt>
      <trkpt lat="43.76154" lon="7.12328">
        <ele>712</ele>
        <time>2021-02-25T12:03:31.000Z</time>
      </trkpt>
      <trkpt lat="43.76155" lon="7.12327">
        <ele>711.59997558594</ele>
        <time>2021-02-25T12:03:42.000Z</time>
      </trkpt>
      <trkpt lat="43.76154" lon="7.12328">
        <ele>711.20001220703</ele>
        <time>2021-02-25T12:03:53.000Z</time>
      </trkpt>
      <trkpt lat="43.76155" lon="7.12327">
        <ele>711.20001220703</ele>
        <time>2021-02-25T12:03:59.000Z</time>
      </trkpt>
      <trkpt lat="43.76154" lon="7.12327">
        <ele>711.59997558594</ele>
        <time>2021-02-25T12:04:05.000Z</time>
      </trkpt>
      <trkpt lat="43.76154" lon="7.12327">
        <ele>711.20001220703</ele>
        <time>2021-02-25T12:04:16.000Z</time>
      </trkpt>
      <trkpt lat="43.76154" lon="7.12327">
        <ele>711.59997558594</ele>
        <time>2021-02-25T12:04:25.000Z</time>
      </trkpt>
      <trkpt lat="43.76154" lon="7.12327">
        <ele>711.79998779297</ele>
        <time>2021-02-25T12:04:52.000Z</time>
      </trkpt>
      <trkpt lat="43.76154" lon="7.12327">
        <ele>711.40002441406</ele>
        <time>2021-02-25T12:05:17.000Z</time>
      </trkpt>
      <trkpt lat="43.76154" lon="7.12327">
        <ele>711.20001220703</ele>
        <time>2021-02-25T12:05:40.000Z</time>
      </trkpt>
      <trkpt lat="43.76154" lon="7.12327">
        <ele>711.40002441406</ele>
        <time>2021-02-25T12:06:06.000Z</time>
      </trkpt>
      <trkpt lat="43.76154" lon="7.12327">
        <ele>711</ele>
        <time>2021-02-25T12:06:16.000Z</time>
      </trkpt>
      <trkpt lat="43.76154" lon="7.12327">
        <ele>711</ele>
        <time>2021-02-25T12:06:26.000Z</time>
      </trkpt>
      <trkpt lat="43.76154" lon="7.12327">
        <ele>711.20001220703</ele>
        <time>2021-02-25T12:06:38.000Z</time>
      </trkpt>
      <trkpt lat="43.76154" lon="7.12327">
        <ele>711.59997558594</ele>
        <time>2021-02-25T12:06:52.000Z</time>
      </trkpt>
      <trkpt lat="43.76153" lon="7.12327">
        <ele>711.40002441406</ele>
        <time>2021-02-25T12:07:13.000Z</time>
      </trkpt>
      <trkpt lat="43.76153" lon="7.12327">
        <ele>711.59997558594</ele>
        <time>2021-02-25T12:07:30.000Z</time>
      </trkpt>
      <trkpt lat="43.76153" lon="7.12327">
        <ele>711.79998779297</ele>
        <time>2021-02-25T12:07:47.000Z</time>
      </trkpt>
      <trkpt lat="43.76153" lon="7.12327">
        <ele>711.79998779297</ele>
        <time>2021-02-25T12:08:11.000Z</time>
      </trkpt>
      <trkpt lat="43.76153" lon="7.12327">
        <ele>711.40002441406</ele>
        <time>2021-02-25T12:08:25.000Z</time>
      </trkpt>
      <trkpt lat="43.76153" lon="7.12327">
        <ele>711.59997558594</ele>
        <time>2021-02-25T12:08:46.000Z</time>
      </trkpt>
      <trkpt lat="43.76154" lon="7.12326">
        <ele>711.40002441406</ele>
        <time>2021-02-25T12:09:03.000Z</time>
      </trkpt>
      <trkpt lat="43.76154" lon="7.12326">
        <ele>711.20001220703</ele>
        <time>2021-02-25T12:09:29.000Z</time>
      </trkpt>
      <trkpt lat="43.76154" lon="7.12326">
        <ele>711.20001220703</ele>
        <time>2021-02-25T12:09:55.000Z</time>
      </trkpt>
      <trkpt lat="43.76154" lon="7.12326">
        <ele>711</ele>
        <time>2021-02-25T12:10:22.000Z</time>
      </trkpt>
      <trkpt lat="43.76154" lon="7.12326">
        <ele>711</ele>
        <time>2021-02-25T12:10:36.000Z</time>
      </trkpt>
      <trkpt lat="43.76154" lon="7.12326">
        <ele>711.40002441406</ele>
        <time>2021-02-25T12:10:47.000Z</time>
      </trkpt>
      <trkpt lat="43.76154" lon="7.12327">
        <ele>712.20001220703</ele>
        <time>2021-02-25T12:10:59.000Z</time>
      </trkpt>
      <trkpt lat="43.76154" lon="7.12327">
        <ele>712</ele>
        <time>2021-02-25T12:11:11.000Z</time>
      </trkpt>
      <trkpt lat="43.76154" lon="7.12327">
        <ele>711.59997558594</ele>
        <time>2021-02-25T12:11:20.000Z</time>
      </trkpt>
      <trkpt lat="43.76154" lon="7.12327">
        <ele>711.59997558594</ele>
        <time>2021-02-25T12:11:34.000Z</time>
      </trkpt>
      <trkpt lat="43.76154" lon="7.12327">
        <ele>711.20001220703</ele>
        <time>2021-02-25T12:11:48.000Z</time>
      </trkpt>
      <trkpt lat="43.76153" lon="7.12327">
        <ele>711.40002441406</ele>
        <time>2021-02-25T12:12:00.000Z</time>
      </trkpt>
      <trkpt lat="43.76154" lon="7.12327">
        <ele>711.40002441406</ele>
        <time>2021-02-25T12:12:20.000Z</time>
      </trkpt>
      <trkpt lat="43.76154" lon="7.12326">
        <ele>711.40002441406</ele>
        <time>2021-02-25T12:12:49.000Z</time>
      </trkpt>
      <trkpt lat="43.76154" lon="7.12326">
        <ele>711.20001220703</ele>
        <time>2021-02-25T12:13:13.000Z</time>
      </trkpt>
      <trkpt lat="43.76154" lon="7.12326">
        <ele>711.40002441406</ele>
        <time>2021-02-25T12:13:33.000Z</time>
      </trkpt>
      <trkpt lat="43.76154" lon="7.12326">
        <ele>711.20001220703</ele>
        <time>2021-02-25T12:13:57.000Z</time>
      </trkpt>
      <trkpt lat="43.76155" lon="7.12326">
        <ele>710.79998779297</ele>
        <time>2021-02-25T12:14:27.000Z</time>
      </trkpt>
      <trkpt lat="43.76155" lon="7.12325">
        <ele>710.59997558594</ele>
        <time>2021-02-25T12:14:41.000Z</time>
      </trkpt>
      <trkpt lat="43.76155" lon="7.12325">
        <ele>710.40002441406</ele>
        <time>2021-02-25T12:14:51.000Z</time>
      </trkpt>
      <trkpt lat="43.76155" lon="7.12325">
        <ele>710.40002441406</ele>
        <time>2021-02-25T12:14:52.000Z</time>
      </trkpt>
      <trkpt lat="43.76155" lon="7.12326">
        <ele>710.59997558594</ele>
        <time>2021-02-25T12:15:06.000Z</time>
      </trkpt>
      <trkpt lat="43.76155" lon="7.12326">
        <ele>711.20001220703</ele>
        <time>2021-02-25T12:15:18.000Z</time>
      </trkpt>
      <trkpt lat="43.76155" lon="7.12326">
        <ele>711</ele>
        <time>2021-02-25T12:15:25.000Z</time>
      </trkpt>
      <trkpt lat="43.76155" lon="7.12326">
        <ele>711.20001220703</ele>
        <time>2021-02-25T12:15:32.000Z</time>
      </trkpt>
      <trkpt lat="43.76155" lon="7.12326">
        <ele>711.40002441406</ele>
        <time>2021-02-25T12:15:36.000Z</time>
      </trkpt>
      <trkpt lat="43.76155" lon="7.12326">
        <ele>711.40002441406</ele>
        <time>2021-02-25T12:15:41.000Z</time>
      </trkpt>
      <trkpt lat="43.76155" lon="7.12326">
        <ele>711.59997558594</ele>
        <time>2021-02-25T12:15:49.000Z</time>
      </trkpt>
      <trkpt lat="43.76155" lon="7.12326">
        <ele>711.20001220703</ele>
        <time>2021-02-25T12:15:57.000Z</time>
      </trkpt>
      <trkpt lat="43.76155" lon="7.12326">
        <ele>711.59997558594</ele>
        <time>2021-02-25T12:16:05.000Z</time>
      </trkpt>
      <trkpt lat="43.76155" lon="7.12326">
        <ele>711.59997558594</ele>
        <time>2021-02-25T12:16:14.000Z</time>
      </trkpt>
      <trkpt lat="43.76155" lon="7.12326">
        <ele>712</ele>
        <time>2021-02-25T12:16:30.000Z</time>
      </trkpt>
      <trkpt lat="43.76155" lon="7.12326">
        <ele>712</ele>
        <time>2021-02-25T12:16:39.000Z</time>
      </trkpt>
      <trkpt lat="43.76155" lon="7.12326">
        <ele>712</ele>
        <time>2021-02-25T12:16:49.000Z</time>
      </trkpt>
      <trkpt lat="43.76155" lon="7.12326">
        <ele>711.79998779297</ele>
        <time>2021-02-25T12:17:00.000Z</time>
      </trkpt>
      <trkpt lat="43.76155" lon="7.12326">
        <ele>712.40002441406</ele>
        <time>2021-02-25T12:17:10.000Z</time>
      </trkpt>
      <trkpt lat="43.76155" lon="7.12326">
        <ele>712.40002441406</ele>
        <time>2021-02-25T12:17:20.000Z</time>
      </trkpt>
      <trkpt lat="43.76155" lon="7.12326">
        <ele>712</ele>
        <time>2021-02-25T12:17:29.000Z</time>
      </trkpt>
      <trkpt lat="43.76155" lon="7.12326">
        <ele>712.59997558594</ele>
        <time>2021-02-25T12:17:40.000Z</time>
      </trkpt>
      <trkpt lat="43.76155" lon="7.12327">
        <ele>712.40002441406</ele>
        <time>2021-02-25T12:17:50.000Z</time>
      </trkpt>
      <trkpt lat="43.76155" lon="7.12326">
        <ele>712</ele>
        <time>2021-02-25T12:17:59.000Z</time>
      </trkpt>
      <trkpt lat="43.76154" lon="7.12327">
        <ele>712.59997558594</ele>
        <time>2021-02-25T12:18:07.000Z</time>
      </trkpt>
      <trkpt lat="43.76155" lon="7.12326">
        <ele>712.79998779297</ele>
        <time>2021-02-25T12:18:15.000Z</time>
      </trkpt>
      <trkpt lat="43.76154" lon="7.12326">
        <ele>712.40002441406</ele>
        <time>2021-02-25T12:18:32.000Z</time>
      </trkpt>
      <trkpt lat="43.76154" lon="7.12326">
        <ele>712</ele>
        <time>2021-02-25T12:18:41.000Z</time>
      </trkpt>
      <trkpt lat="43.76154" lon="7.12326">
        <ele>712.40002441406</ele>
        <time>2021-02-25T12:18:50.000Z</time>
      </trkpt>
      <trkpt lat="43.76154" lon="7.12326">
        <ele>711.40002441406</ele>
        <time>2021-02-25T12:19:18.000Z</time>
      </trkpt>
      <trkpt lat="43.76154" lon="7.12326">
        <ele>711.40002441406</ele>
        <time>2021-02-25T12:19:19.000Z</time>
      </trkpt>
      <trkpt lat="43.76153" lon="7.12326">
        <ele>711.40002441406</ele>
        <time>2021-02-25T12:19:33.000Z</time>
      </trkpt>
      <trkpt lat="43.76153" lon="7.12326">
        <ele>711.40002441406</ele>
        <time>2021-02-25T12:19:50.000Z</time>
      </trkpt>
      <trkpt lat="43.76154" lon="7.12326">
        <ele>711.59997558594</ele>
        <time>2021-02-25T12:19:58.000Z</time>
      </trkpt>
      <trkpt lat="43.76154" lon="7.12326">
        <ele>711.59997558594</ele>
        <time>2021-02-25T12:20:09.000Z</time>
      </trkpt>
      <trkpt lat="43.76154" lon="7.12326">
        <ele>711.59997558594</ele>
        <time>2021-02-25T12:20:17.000Z</time>
      </trkpt>
      <trkpt lat="43.76154" lon="7.12327">
        <ele>711.79998779297</ele>
        <time>2021-02-25T12:20:22.000Z</time>
      </trkpt>
      <trkpt lat="43.76153" lon="7.12326">
        <ele>711.40002441406</ele>
        <time>2021-02-25T12:20:30.000Z</time>
      </trkpt>
      <trkpt lat="43.76153" lon="7.12326">
        <ele>711.59997558594</ele>
        <time>2021-02-25T12:20:37.000Z</time>
      </trkpt>
      <trkpt lat="43.76153" lon="7.12326">
        <ele>712</ele>
        <time>2021-02-25T12:20:45.000Z</time>
      </trkpt>
      <trkpt lat="43.76153" lon="7.12326">
        <ele>712.20001220703</ele>
        <time>2021-02-25T12:20:58.000Z</time>
      </trkpt>
      <trkpt lat="43.76153" lon="7.12327">
        <ele>712.40002441406</ele>
        <time>2021-02-25T12:21:13.000Z</time>
      </trkpt>
      <trkpt lat="43.76153" lon="7.12327">
        <ele>712.40002441406</ele>
        <time>2021-02-25T12:21:14.000Z</time>
      </trkpt>
      <trkpt lat="43.76153" lon="7.12327">
        <ele>712.59997558594</ele>
        <time>2021-02-25T12:21:21.000Z</time>
      </trkpt>
      <trkpt lat="43.76154" lon="7.12327">
        <ele>712.59997558594</ele>
        <time>2021-02-25T12:21:31.000Z</time>
      </trkpt>
      <trkpt lat="43.76153" lon="7.12327">
        <ele>712.79998779297</ele>
        <time>2021-02-25T12:21:42.000Z</time>
      </trkpt>
      <trkpt lat="43.76154" lon="7.12327">
        <ele>712.40002441406</ele>
        <time>2021-02-25T12:21:50.000Z</time>
      </trkpt>
      <trkpt lat="43.76154" lon="7.12327">
        <ele>712.59997558594</ele>
        <time>2021-02-25T12:21:59.000Z</time>
      </trkpt>
      <trkpt lat="43.76154" lon="7.12327">
        <ele>713.40002441406</ele>
        <time>2021-02-25T12:22:11.000Z</time>
      </trkpt>
      <trkpt lat="43.76154" lon="7.12327">
        <ele>713.40002441406</ele>
        <time>2021-02-25T12:22:12.000Z</time>
      </trkpt>
      <trkpt lat="43.76155" lon="7.12327">
        <ele>713.40002441406</ele>
        <time>2021-02-25T12:22:29.000Z</time>
      </trkpt>
      <trkpt lat="43.76155" lon="7.12327">
        <ele>713.20001220703</ele>
        <time>2021-02-25T12:22:40.000Z</time>
      </trkpt>
      <trkpt lat="43.76154" lon="7.12328">
        <ele>713.59997558594</ele>
        <time>2021-02-25T12:22:48.000Z</time>
      </trkpt>
      <trkpt lat="43.76154" lon="7.12328">
        <ele>713.40002441406</ele>
        <time>2021-02-25T12:22:54.000Z</time>
      </trkpt>
      <trkpt lat="43.76154" lon="7.12328">
        <ele>713</ele>
        <time>2021-02-25T12:23:04.000Z</time>
      </trkpt>
      <trkpt lat="43.76154" lon="7.12328">
        <ele>713.79998779297</ele>
        <time>2021-02-25T12:23:17.000Z</time>
      </trkpt>
      <trkpt lat="43.76154" lon="7.12328">
        <ele>713</ele>
        <time>2021-02-25T12:23:30.000Z</time>
      </trkpt>
      <trkpt lat="43.76154" lon="7.12328">
        <ele>713</ele>
        <time>2021-02-25T12:23:40.000Z</time>
      </trkpt>
      <trkpt lat="43.76154" lon="7.12328">
        <ele>713.59997558594</ele>
        <time>2021-02-25T12:23:51.000Z</time>
      </trkpt>
      <trkpt lat="43.76153" lon="7.12328">
        <ele>713.20001220703</ele>
        <time>2021-02-25T12:23:59.000Z</time>
      </trkpt>
      <trkpt lat="43.76153" lon="7.12327">
        <ele>713.20001220703</ele>
        <time>2021-02-25T12:24:09.000Z</time>
      </trkpt>
      <trkpt lat="43.76153" lon="7.12327">
        <ele>712.40002441406</ele>
        <time>2021-02-25T12:24:18.000Z</time>
      </trkpt>
      <trkpt lat="43.76153" lon="7.12327">
        <ele>712.20001220703</ele>
        <time>2021-02-25T12:24:22.000Z</time>
      </trkpt>
      <trkpt lat="43.76152" lon="7.12327">
        <ele>713</ele>
        <time>2021-02-25T12:24:34.000Z</time>
      </trkpt>
      <trkpt lat="43.76152" lon="7.12327">
        <ele>713</ele>
        <time>2021-02-25T12:24:51.000Z</time>
      </trkpt>
      <trkpt lat="43.76153" lon="7.12326">
        <ele>712.79998779297</ele>
        <time>2021-02-25T12:25:01.000Z</time>
      </trkpt>
      <trkpt lat="43.76153" lon="7.12326">
        <ele>712.59997558594</ele>
        <time>2021-02-25T12:25:26.000Z</time>
      </trkpt>
      <trkpt lat="43.76153" lon="7.12326">
        <ele>712.79998779297</ele>
        <time>2021-02-25T12:25:46.000Z</time>
      </trkpt>
      <trkpt lat="43.76151" lon="7.12326">
        <ele>712.40002441406</ele>
        <time>2021-02-25T12:26:15.000Z</time>
      </trkpt>
      <trkpt lat="43.76151" lon="7.12326">
        <ele>713</ele>
        <time>2021-02-25T12:26:31.000Z</time>
      </trkpt>
      <trkpt lat="43.76151" lon="7.12326">
        <ele>713</ele>
        <time>2021-02-25T12:26:37.000Z</time>
      </trkpt>
      <trkpt lat="43.76152" lon="7.12326">
        <ele>713</ele>
        <time>2021-02-25T12:26:49.000Z</time>
      </trkpt>
      <trkpt lat="43.76152" lon="7.12326">
        <ele>713</ele>
        <time>2021-02-25T12:27:04.000Z</time>
      </trkpt>
      <trkpt lat="43.76152" lon="7.12326">
        <ele>712.79998779297</ele>
        <time>2021-02-25T12:27:24.000Z</time>
      </trkpt>
      <trkpt lat="43.76153" lon="7.12325">
        <ele>712.79998779297</ele>
        <time>2021-02-25T12:27:45.000Z</time>
      </trkpt>
      <trkpt lat="43.76153" lon="7.12326">
        <ele>713.20001220703</ele>
        <time>2021-02-25T12:28:00.000Z</time>
      </trkpt>
      <trkpt lat="43.76152" lon="7.12325">
        <ele>712.79998779297</ele>
        <time>2021-02-25T12:28:07.000Z</time>
      </trkpt>
      <trkpt lat="43.76152" lon="7.12326">
        <ele>713</ele>
        <time>2021-02-25T12:28:14.000Z</time>
      </trkpt>
      <trkpt lat="43.76152" lon="7.12325">
        <ele>713.20001220703</ele>
        <time>2021-02-25T12:28:20.000Z</time>
      </trkpt>
      <trkpt lat="43.76153" lon="7.12325">
        <ele>712.79998779297</ele>
        <time>2021-02-25T12:28:26.000Z</time>
      </trkpt>
      <trkpt lat="43.76153" lon="7.12325">
        <ele>712.59997558594</ele>
        <time>2021-02-25T12:28:35.000Z</time>
      </trkpt>
      <trkpt lat="43.76153" lon="7.12325">
        <ele>712.79998779297</ele>
        <time>2021-02-25T12:28:45.000Z</time>
      </trkpt>
      <trkpt lat="43.76153" lon="7.12325">
        <ele>712.59997558594</ele>
        <time>2021-02-25T12:28:54.000Z</time>
      </trkpt>
      <trkpt lat="43.76154" lon="7.12325">
        <ele>712.79998779297</ele>
        <time>2021-02-25T12:29:02.000Z</time>
      </trkpt>
      <trkpt lat="43.76154" lon="7.12326">
        <ele>712.40002441406</ele>
        <time>2021-02-25T12:29:12.000Z</time>
      </trkpt>
      <trkpt lat="43.76153" lon="7.12324">
        <ele>712.40002441406</ele>
        <time>2021-02-25T12:29:18.000Z</time>
      </trkpt>
      <trkpt lat="43.76154" lon="7.12325">
        <ele>712.20001220703</ele>
        <time>2021-02-25T12:29:19.000Z</time>
      </trkpt>
      <trkpt lat="43.76154" lon="7.12325">
        <ele>713</ele>
        <time>2021-02-25T12:29:28.000Z</time>
      </trkpt>
      <trkpt lat="43.76154" lon="7.12325">
        <ele>713.20001220703</ele>
        <time>2021-02-25T12:29:39.000Z</time>
      </trkpt>
      <trkpt lat="43.76154" lon="7.12325">
        <ele>712.79998779297</ele>
        <time>2021-02-25T12:29:49.000Z</time>
      </trkpt>
      <trkpt lat="43.76154" lon="7.12325">
        <ele>713</ele>
        <time>2021-02-25T12:29:55.000Z</time>
      </trkpt>
      <trkpt lat="43.76156" lon="7.12325">
        <ele>713</ele>
        <time>2021-02-25T12:30:01.000Z</time>
      </trkpt>
      <trkpt lat="43.76158" lon="7.12323">
        <ele>713.40002441406</ele>
        <time>2021-02-25T12:30:08.000Z</time>
      </trkpt>
      <trkpt lat="43.76158" lon="7.12323">
        <ele>713.40002441406</ele>
        <time>2021-02-25T12:30:16.000Z</time>
      </trkpt>
      <trkpt lat="43.76158" lon="7.12324">
        <ele>713.40002441406</ele>
        <time>2021-02-25T12:30:18.000Z</time>
      </trkpt>
      <trkpt lat="43.76159" lon="7.12325">
        <ele>713</ele>
        <time>2021-02-25T12:30:27.000Z</time>
      </trkpt>
      <trkpt lat="43.76159" lon="7.12325">
        <ele>713</ele>
        <time>2021-02-25T12:30:46.000Z</time>
      </trkpt>
      <trkpt lat="43.76159" lon="7.12326">
        <ele>713.20001220703</ele>
        <time>2021-02-25T12:30:52.000Z</time>
      </trkpt>
      <trkpt lat="43.76159" lon="7.12325">
        <ele>712.59997558594</ele>
        <time>2021-02-25T12:31:04.000Z</time>
      </trkpt>
      <trkpt lat="43.76159" lon="7.12325">
        <ele>712.79998779297</ele>
        <time>2021-02-25T12:31:12.000Z</time>
      </trkpt>
      <trkpt lat="43.76159" lon="7.12326">
        <ele>713</ele>
        <time>2021-02-25T12:31:25.000Z</time>
      </trkpt>
      <trkpt lat="43.76159" lon="7.12325">
        <ele>712.79998779297</ele>
        <time>2021-02-25T12:31:39.000Z</time>
      </trkpt>
      <trkpt lat="43.76159" lon="7.12325">
        <ele>713</ele>
        <time>2021-02-25T12:31:49.000Z</time>
      </trkpt>
      <trkpt lat="43.76159" lon="7.12326">
        <ele>713</ele>
        <time>2021-02-25T12:31:57.000Z</time>
      </trkpt>
      <trkpt lat="43.76159" lon="7.12326">
        <ele>713.40002441406</ele>
        <time>2021-02-25T12:32:10.000Z</time>
      </trkpt>
      <trkpt lat="43.7616" lon="7.12326">
        <ele>713</ele>
        <time>2021-02-25T12:32:17.000Z</time>
      </trkpt>
      <trkpt lat="43.76159" lon="7.12326">
        <ele>713.20001220703</ele>
        <time>2021-02-25T12:32:22.000Z</time>
      </trkpt>
      <trkpt lat="43.76159" lon="7.12326">
        <ele>713.40002441406</ele>
        <time>2021-02-25T12:32:23.000Z</time>
      </trkpt>
      <trkpt lat="43.76159" lon="7.12326">
        <ele>713.59997558594</ele>
        <time>2021-02-25T12:32:32.000Z</time>
      </trkpt>
      <trkpt lat="43.76159" lon="7.12326">
        <ele>713.59997558594</ele>
        <time>2021-02-25T12:32:42.000Z</time>
      </trkpt>
      <trkpt lat="43.76159" lon="7.12326">
        <ele>713.20001220703</ele>
        <time>2021-02-25T12:32:50.000Z</time>
      </trkpt>
      <trkpt lat="43.76159" lon="7.12325">
        <ele>713.79998779297</ele>
        <time>2021-02-25T12:33:05.000Z</time>
      </trkpt>
      <trkpt lat="43.76161" lon="7.12324">
        <ele>713.40002441406</ele>
        <time>2021-02-25T12:33:15.000Z</time>
      </trkpt>
      <trkpt lat="43.76161" lon="7.12324">
        <ele>714</ele>
        <time>2021-02-25T12:33:23.000Z</time>
      </trkpt>
      <trkpt lat="43.76161" lon="7.12324">
        <ele>714</ele>
        <time>2021-02-25T12:33:43.000Z</time>
      </trkpt>
      <trkpt lat="43.7616" lon="7.12324">
        <ele>714.20001220703</ele>
        <time>2021-02-25T12:33:56.000Z</time>
      </trkpt>
      <trkpt lat="43.76162" lon="7.12325">
        <ele>713.79998779297</ele>
        <time>2021-02-25T12:34:06.000Z</time>
      </trkpt>
      <trkpt lat="43.76161" lon="7.12325">
        <ele>714</ele>
        <time>2021-02-25T12:34:10.000Z</time>
      </trkpt>
      <trkpt lat="43.7616" lon="7.12325">
        <ele>714.40002441406</ele>
        <time>2021-02-25T12:34:16.000Z</time>
      </trkpt>
      <trkpt lat="43.7616" lon="7.12325">
        <ele>714.20001220703</ele>
        <time>2021-02-25T12:34:31.000Z</time>
      </trkpt>
      <trkpt lat="43.76159" lon="7.12325">
        <ele>713.79998779297</ele>
        <time>2021-02-25T12:34:58.000Z</time>
      </trkpt>
      <trkpt lat="43.76161" lon="7.12325">
        <ele>713.79998779297</ele>
        <time>2021-02-25T12:35:12.000Z</time>
      </trkpt>
      <trkpt lat="43.76161" lon="7.12325">
        <ele>713.79998779297</ele>
        <time>2021-02-25T12:35:27.000Z</time>
      </trkpt>
      <trkpt lat="43.7616" lon="7.12325">
        <ele>713.79998779297</ele>
        <time>2021-02-25T12:35:36.000Z</time>
      </trkpt>
      <trkpt lat="43.76163" lon="7.12329">
        <ele>713.79998779297</ele>
        <time>2021-02-25T12:35:41.000Z</time>
      </trkpt>
      <trkpt lat="43.76165" lon="7.12328">
        <ele>713.79998779297</ele>
        <time>2021-02-25T12:35:42.000Z</time>
      </trkpt>
      <trkpt lat="43.76174" lon="7.12326">
        <ele>714.40002441406</ele>
        <time>2021-02-25T12:35:48.000Z</time>
      </trkpt>
      <trkpt lat="43.76178" lon="7.12323">
        <ele>714.59997558594</ele>
        <time>2021-02-25T12:35:53.000Z</time>
      </trkpt>
      <trkpt lat="43.76189" lon="7.12323">
        <ele>714.79998779297</ele>
        <time>2021-02-25T12:35:59.000Z</time>
      </trkpt>
      <trkpt lat="43.76202" lon="7.12322">
        <ele>714</ele>
        <time>2021-02-25T12:36:05.000Z</time>
      </trkpt>
      <trkpt lat="43.76215" lon="7.1232">
        <ele>713.79998779297</ele>
        <time>2021-02-25T12:36:11.000Z</time>
      </trkpt>
      <trkpt lat="43.7622" lon="7.12321">
        <ele>714.40002441406</ele>
        <time>2021-02-25T12:36:16.000Z</time>
      </trkpt>
      <trkpt lat="43.76224" lon="7.12321">
        <ele>714.59997558594</ele>
        <time>2021-02-25T12:36:21.000Z</time>
      </trkpt>
      <trkpt lat="43.76226" lon="7.12321">
        <ele>714.59997558594</ele>
        <time>2021-02-25T12:36:22.000Z</time>
      </trkpt>
      <trkpt lat="43.76233" lon="7.1232">
        <ele>714.59997558594</ele>
        <time>2021-02-25T12:36:26.000Z</time>
      </trkpt>
      <trkpt lat="43.76243" lon="7.12321">
        <ele>715.20001220703</ele>
        <time>2021-02-25T12:36:31.000Z</time>
      </trkpt>
      <trkpt lat="43.76247" lon="7.12321">
        <ele>715.59997558594</ele>
        <time>2021-02-25T12:36:33.000Z</time>
      </trkpt>
      <trkpt lat="43.76253" lon="7.1232">
        <ele>716</ele>
        <time>2021-02-25T12:36:36.000Z</time>
      </trkpt>
      <trkpt lat="43.76261" lon="7.12322">
        <ele>715.79998779297</ele>
        <time>2021-02-25T12:36:41.000Z</time>
      </trkpt>
      <trkpt lat="43.76265" lon="7.12323">
        <ele>716</ele>
        <time>2021-02-25T12:36:46.000Z</time>
      </trkpt>
      <trkpt lat="43.76269" lon="7.12322">
        <ele>716.40002441406</ele>
        <time>2021-02-25T12:36:51.000Z</time>
      </trkpt>
      <trkpt lat="43.76275" lon="7.12322">
        <ele>716.40002441406</ele>
        <time>2021-02-25T12:36:57.000Z</time>
      </trkpt>
      <trkpt lat="43.76284" lon="7.12325">
        <ele>716.59997558594</ele>
        <time>2021-02-25T12:37:03.000Z</time>
      </trkpt>
      <trkpt lat="43.76283" lon="7.12325">
        <ele>716.59997558594</ele>
        <time>2021-02-25T12:37:04.000Z</time>
      </trkpt>
      <trkpt lat="43.76284" lon="7.12325">
        <ele>716.79998779297</ele>
        <time>2021-02-25T12:37:08.000Z</time>
      </trkpt>
      <trkpt lat="43.76283" lon="7.12327">
        <ele>717</ele>
        <time>2021-02-25T12:37:11.000Z</time>
      </trkpt>
      <trkpt lat="43.76283" lon="7.12327">
        <ele>717</ele>
        <time>2021-02-25T12:37:13.000Z</time>
      </trkpt>
      <trkpt lat="43.76288" lon="7.12329">
        <ele>716.40002441406</ele>
        <time>2021-02-25T12:37:18.000Z</time>
      </trkpt>
      <trkpt lat="43.76289" lon="7.1233">
        <ele>715.79998779297</ele>
        <time>2021-02-25T12:37:21.000Z</time>
      </trkpt>
      <trkpt lat="43.76291" lon="7.12331">
        <ele>715.79998779297</ele>
        <time>2021-02-25T12:37:23.000Z</time>
      </trkpt>
      <trkpt lat="43.76292" lon="7.12337">
        <ele>715.40002441406</ele>
        <time>2021-02-25T12:37:26.000Z</time>
      </trkpt>
      <trkpt lat="43.76292" lon="7.12341">
        <ele>715</ele>
        <time>2021-02-25T12:37:28.000Z</time>
      </trkpt>
      <trkpt lat="43.76294" lon="7.12342">
        <ele>714.20001220703</ele>
        <time>2021-02-25T12:37:30.000Z</time>
      </trkpt>
      <trkpt lat="43.76295" lon="7.12342">
        <ele>713.79998779297</ele>
        <time>2021-02-25T12:37:32.000Z</time>
      </trkpt>
      <trkpt lat="43.76297" lon="7.12343">
        <ele>714</ele>
        <time>2021-02-25T12:37:37.000Z</time>
      </trkpt>
      <trkpt lat="43.763" lon="7.12344">
        <ele>714.20001220703</ele>
        <time>2021-02-25T12:37:40.000Z</time>
      </trkpt>
      <trkpt lat="43.76301" lon="7.12348">
        <ele>714.40002441406</ele>
        <time>2021-02-25T12:37:44.000Z</time>
      </trkpt>
      <trkpt lat="43.76302" lon="7.12354">
        <ele>714.40002441406</ele>
        <time>2021-02-25T12:37:50.000Z</time>
      </trkpt>
      <trkpt lat="43.76304" lon="7.1236">
        <ele>713.40002441406</ele>
        <time>2021-02-25T12:37:56.000Z</time>
      </trkpt>
      <trkpt lat="43.76304" lon="7.12362">
        <ele>713</ele>
        <time>2021-02-25T12:37:57.000Z</time>
      </trkpt>
      <trkpt lat="43.76305" lon="7.12365">
        <ele>713</ele>
        <time>2021-02-25T12:37:58.000Z</time>
      </trkpt>
      <trkpt lat="43.76306" lon="7.12373">
        <ele>712.40002441406</ele>
        <time>2021-02-25T12:38:00.000Z</time>
      </trkpt>
      <trkpt lat="43.76306" lon="7.1239">
        <ele>712.40002441406</ele>
        <time>2021-02-25T12:38:05.000Z</time>
      </trkpt>
      <trkpt lat="43.76307" lon="7.12396">
        <ele>712.79998779297</ele>
        <time>2021-02-25T12:38:09.000Z</time>
      </trkpt>
      <trkpt lat="43.76307" lon="7.12398">
        <ele>713.40002441406</ele>
        <time>2021-02-25T12:38:14.000Z</time>
      </trkpt>
      <trkpt lat="43.76308" lon="7.12403">
        <ele>713.59997558594</ele>
        <time>2021-02-25T12:38:19.000Z</time>
      </trkpt>
      <trkpt lat="43.76308" lon="7.12406">
        <ele>714</ele>
        <time>2021-02-25T12:38:21.000Z</time>
      </trkpt>
      <trkpt lat="43.76309" lon="7.1241">
        <ele>714.20001220703</ele>
        <time>2021-02-25T12:38:24.000Z</time>
      </trkpt>
      <trkpt lat="43.76311" lon="7.12413">
        <ele>714.40002441406</ele>
        <time>2021-02-25T12:38:27.000Z</time>
      </trkpt>
      <trkpt lat="43.76311" lon="7.12415">
        <ele>714.59997558594</ele>
        <time>2021-02-25T12:38:28.000Z</time>
      </trkpt>
      <trkpt lat="43.76312" lon="7.12419">
        <ele>715.20001220703</ele>
        <time>2021-02-25T12:38:31.000Z</time>
      </trkpt>
      <trkpt lat="43.76312" lon="7.12419">
        <ele>715.40002441406</ele>
        <time>2021-02-25T12:38:32.000Z</time>
      </trkpt>
      <trkpt lat="43.76314" lon="7.12423">
        <ele>715.79998779297</ele>
        <time>2021-02-25T12:38:35.000Z</time>
      </trkpt>
      <trkpt lat="43.76314" lon="7.12427">
        <ele>716</ele>
        <time>2021-02-25T12:38:38.000Z</time>
      </trkpt>
      <trkpt lat="43.76315" lon="7.1243">
        <ele>716.20001220703</ele>
        <time>2021-02-25T12:38:40.000Z</time>
      </trkpt>
      <trkpt lat="43.76316" lon="7.12435">
        <ele>716.79998779297</ele>
        <time>2021-02-25T12:38:46.000Z</time>
      </trkpt>
      <trkpt lat="43.76316" lon="7.12443">
        <ele>716.59997558594</ele>
        <time>2021-02-25T12:38:51.000Z</time>
      </trkpt>
      <trkpt lat="43.76317" lon="7.12445">
        <ele>716.59997558594</ele>
        <time>2021-02-25T12:38:52.000Z</time>
      </trkpt>
      <trkpt lat="43.76321" lon="7.12452">
        <ele>716.59997558594</ele>
        <time>2021-02-25T12:38:55.000Z</time>
      </trkpt>
      <trkpt lat="43.76322" lon="7.12455">
        <ele>716.59997558594</ele>
        <time>2021-02-25T12:38:56.000Z</time>
      </trkpt>
      <trkpt lat="43.76326" lon="7.1246">
        <ele>717.20001220703</ele>
        <time>2021-02-25T12:39:01.000Z</time>
      </trkpt>
      <trkpt lat="43.76327" lon="7.12463">
        <ele>718.40002441406</ele>
        <time>2021-02-25T12:39:05.000Z</time>
      </trkpt>
      <trkpt lat="43.76328" lon="7.12465">
        <ele>718.20001220703</ele>
        <time>2021-02-25T12:39:08.000Z</time>
      </trkpt>
      <trkpt lat="43.76333" lon="7.12469">
        <ele>717.79998779297</ele>
        <time>2021-02-25T12:39:13.000Z</time>
      </trkpt>
      <trkpt lat="43.76334" lon="7.12471">
        <ele>717.79998779297</ele>
        <time>2021-02-25T12:39:14.000Z</time>
      </trkpt>
      <trkpt lat="43.76337" lon="7.12476">
        <ele>717.79998779297</ele>
        <time>2021-02-25T12:39:17.000Z</time>
      </trkpt>
      <trkpt lat="43.76338" lon="7.12477">
        <ele>718</ele>
        <time>2021-02-25T12:39:18.000Z</time>
      </trkpt>
      <trkpt lat="43.76343" lon="7.12486">
        <ele>718.20001220703</ele>
        <time>2021-02-25T12:39:22.000Z</time>
      </trkpt>
      <trkpt lat="43.76353" lon="7.12492">
        <ele>718.20001220703</ele>
        <time>2021-02-25T12:39:26.000Z</time>
      </trkpt>
      <trkpt lat="43.76356" lon="7.12495">
        <ele>719.20001220703</ele>
        <time>2021-02-25T12:39:30.000Z</time>
      </trkpt>
      <trkpt lat="43.76357" lon="7.12496">
        <ele>719.79998779297</ele>
        <time>2021-02-25T12:39:31.000Z</time>
      </trkpt>
      <trkpt lat="43.76359" lon="7.12499">
        <ele>720.40002441406</ele>
        <time>2021-02-25T12:39:35.000Z</time>
      </trkpt>
      <trkpt lat="43.76366" lon="7.12504">
        <ele>720.79998779297</ele>
        <time>2021-02-25T12:39:39.000Z</time>
      </trkpt>
      <trkpt lat="43.76368" lon="7.12505">
        <ele>720.79998779297</ele>
        <time>2021-02-25T12:39:40.000Z</time>
      </trkpt>
      <trkpt lat="43.76369" lon="7.12505">
        <ele>721.79998779297</ele>
        <time>2021-02-25T12:39:43.000Z</time>
      </trkpt>
      <trkpt lat="43.7637" lon="7.12507">
        <ele>722.20001220703</ele>
        <time>2021-02-25T12:39:44.000Z</time>
      </trkpt>
      <trkpt lat="43.76377" lon="7.1251">
        <ele>723</ele>
        <time>2021-02-25T12:39:49.000Z</time>
      </trkpt>
      <trkpt lat="43.76379" lon="7.12509">
        <ele>723</ele>
        <time>2021-02-25T12:39:50.000Z</time>
      </trkpt>
      <trkpt lat="43.7638" lon="7.1251">
        <ele>724</ele>
        <time>2021-02-25T12:39:53.000Z</time>
      </trkpt>
      <trkpt lat="43.76381" lon="7.12511">
        <ele>724.79998779297</ele>
        <time>2021-02-25T12:39:55.000Z</time>
      </trkpt>
      <trkpt lat="43.76383" lon="7.12512">
        <ele>725</ele>
        <time>2021-02-25T12:39:57.000Z</time>
      </trkpt>
      <trkpt lat="43.76386" lon="7.12515">
        <ele>725.59997558594</ele>
        <time>2021-02-25T12:40:00.000Z</time>
      </trkpt>
      <trkpt lat="43.76387" lon="7.12515">
        <ele>725.79998779297</ele>
        <time>2021-02-25T12:40:01.000Z</time>
      </trkpt>
      <trkpt lat="43.76389" lon="7.12515">
        <ele>726</ele>
        <time>2021-02-25T12:40:02.000Z</time>
      </trkpt>
      <trkpt lat="43.76391" lon="7.12516">
        <ele>726.20001220703</ele>
        <time>2021-02-25T12:40:03.000Z</time>
      </trkpt>
      <trkpt lat="43.76392" lon="7.12517">
        <ele>726.40002441406</ele>
        <time>2021-02-25T12:40:04.000Z</time>
      </trkpt>
      <trkpt lat="43.76394" lon="7.12518">
        <ele>727</ele>
        <time>2021-02-25T12:40:06.000Z</time>
      </trkpt>
      <trkpt lat="43.76394" lon="7.12518">
        <ele>727.79998779297</ele>
        <time>2021-02-25T12:40:09.000Z</time>
      </trkpt>
      <trkpt lat="43.76394" lon="7.12518">
        <ele>728.20001220703</ele>
        <time>2021-02-25T12:40:13.000Z</time>
      </trkpt>
      <trkpt lat="43.76396" lon="7.12519">
        <ele>728.20001220703</ele>
        <time>2021-02-25T12:40:17.000Z</time>
      </trkpt>
      <trkpt lat="43.76399" lon="7.12521">
        <ele>728.40002441406</ele>
        <time>2021-02-25T12:40:24.000Z</time>
      </trkpt>
      <trkpt lat="43.76402" lon="7.12528">
        <ele>728.79998779297</ele>
        <time>2021-02-25T12:40:32.000Z</time>
      </trkpt>
      <trkpt lat="43.76405" lon="7.12532">
        <ele>728</ele>
        <time>2021-02-25T12:40:38.000Z</time>
      </trkpt>
      <trkpt lat="43.76411" lon="7.12533">
        <ele>727.59997558594</ele>
        <time>2021-02-25T12:40:43.000Z</time>
      </trkpt>
      <trkpt lat="43.76413" lon="7.12535">
        <ele>728.79998779297</ele>
        <time>2021-02-25T12:40:48.000Z</time>
      </trkpt>
      <trkpt lat="43.76415" lon="7.1254">
        <ele>729</ele>
        <time>2021-02-25T12:40:54.000Z</time>
      </trkpt>
      <trkpt lat="43.76416" lon="7.1254">
        <ele>728.79998779297</ele>
        <time>2021-02-25T12:40:55.000Z</time>
      </trkpt>
      <trkpt lat="43.76422" lon="7.12543">
        <ele>728.59997558594</ele>
        <time>2021-02-25T12:40:59.000Z</time>
      </trkpt>
      <trkpt lat="43.76429" lon="7.12547">
        <ele>728.79998779297</ele>
        <time>2021-02-25T12:41:04.000Z</time>
      </trkpt>
      <trkpt lat="43.76437" lon="7.12556">
        <ele>728.59997558594</ele>
        <time>2021-02-25T12:41:10.000Z</time>
      </trkpt>
      <trkpt lat="43.76438" lon="7.1256">
        <ele>728.40002441406</ele>
        <time>2021-02-25T12:41:12.000Z</time>
      </trkpt>
      <trkpt lat="43.76441" lon="7.12566">
        <ele>728.20001220703</ele>
        <time>2021-02-25T12:41:15.000Z</time>
      </trkpt>
      <trkpt lat="43.76446" lon="7.12573">
        <ele>727.59997558594</ele>
        <time>2021-02-25T12:41:19.000Z</time>
      </trkpt>
      <trkpt lat="43.76446" lon="7.12574">
        <ele>727</ele>
        <time>2021-02-25T12:41:20.000Z</time>
      </trkpt>
      <trkpt lat="43.76447" lon="7.12575">
        <ele>726</ele>
        <time>2021-02-25T12:41:23.000Z</time>
      </trkpt>
      <trkpt lat="43.76447" lon="7.12575">
        <ele>725.79998779297</ele>
        <time>2021-02-25T12:41:24.000Z</time>
      </trkpt>
      <trkpt lat="43.76447" lon="7.12578">
        <ele>725.40002441406</ele>
        <time>2021-02-25T12:41:29.000Z</time>
      </trkpt>
      <trkpt lat="43.76448" lon="7.1258">
        <ele>725.40002441406</ele>
        <time>2021-02-25T12:41:36.000Z</time>
      </trkpt>
      <trkpt lat="43.76453" lon="7.12588">
        <ele>725.20001220703</ele>
        <time>2021-02-25T12:41:40.000Z</time>
      </trkpt>
      <trkpt lat="43.76461" lon="7.12598">
        <ele>724.59997558594</ele>
        <time>2021-02-25T12:41:43.000Z</time>
      </trkpt>
      <trkpt lat="43.76463" lon="7.126">
        <ele>724.40002441406</ele>
        <time>2021-02-25T12:41:44.000Z</time>
      </trkpt>
      <trkpt lat="43.76473" lon="7.1261">
        <ele>724.20001220703</ele>
        <time>2021-02-25T12:41:48.000Z</time>
      </trkpt>
      <trkpt lat="43.76477" lon="7.12617">
        <ele>723.59997558594</ele>
        <time>2021-02-25T12:41:51.000Z</time>
      </trkpt>
      <trkpt lat="43.76478" lon="7.12619">
        <ele>723.79998779297</ele>
        <time>2021-02-25T12:41:52.000Z</time>
      </trkpt>
      <trkpt lat="43.76487" lon="7.12626">
        <ele>724.20001220703</ele>
        <time>2021-02-25T12:41:57.000Z</time>
      </trkpt>
      <trkpt lat="43.76491" lon="7.12635">
        <ele>723.59997558594</ele>
        <time>2021-02-25T12:42:00.000Z</time>
      </trkpt>
      <trkpt lat="43.76494" lon="7.12644">
        <ele>723.59997558594</ele>
        <time>2021-02-25T12:42:01.000Z</time>
      </trkpt>
      <trkpt lat="43.76504" lon="7.12663">
        <ele>722.40002441406</ele>
        <time>2021-02-25T12:42:04.000Z</time>
      </trkpt>
      <trkpt lat="43.76506" lon="7.12669">
        <ele>721.59997558594</ele>
        <time>2021-02-25T12:42:05.000Z</time>
      </trkpt>
      <trkpt lat="43.76508" lon="7.12676">
        <ele>721.20001220703</ele>
        <time>2021-02-25T12:42:06.000Z</time>
      </trkpt>
      <trkpt lat="43.76512" lon="7.12681">
        <ele>720.79998779297</ele>
        <time>2021-02-25T12:42:07.000Z</time>
      </trkpt>
      <trkpt lat="43.76515" lon="7.12686">
        <ele>720.20001220703</ele>
        <time>2021-02-25T12:42:08.000Z</time>
      </trkpt>
      <trkpt lat="43.76521" lon="7.12691">
        <ele>719.59997558594</ele>
        <time>2021-02-25T12:42:10.000Z</time>
      </trkpt>
      <trkpt lat="43.76533" lon="7.12706">
        <ele>721.40002441406</ele>
        <time>2021-02-25T12:42:15.000Z</time>
      </trkpt>
      <trkpt lat="43.76543" lon="7.12723">
        <ele>722.40002441406</ele>
        <time>2021-02-25T12:42:20.000Z</time>
      </trkpt>
      <trkpt lat="43.76544" lon="7.12726">
        <ele>722.40002441406</ele>
        <time>2021-02-25T12:42:21.000Z</time>
      </trkpt>
      <trkpt lat="43.76555" lon="7.12737">
        <ele>722.40002441406</ele>
        <time>2021-02-25T12:42:25.000Z</time>
      </trkpt>
      <trkpt lat="43.76562" lon="7.12741">
        <ele>723.40002441406</ele>
        <time>2021-02-25T12:42:28.000Z</time>
      </trkpt>
      <trkpt lat="43.76565" lon="7.12747">
        <ele>724.40002441406</ele>
        <time>2021-02-25T12:42:30.000Z</time>
      </trkpt>
      <trkpt lat="43.76566" lon="7.1275">
        <ele>724.59997558594</ele>
        <time>2021-02-25T12:42:31.000Z</time>
      </trkpt>
      <trkpt lat="43.76571" lon="7.12754">
        <ele>724.79998779297</ele>
        <time>2021-02-25T12:42:33.000Z</time>
      </trkpt>
      <trkpt lat="43.76575" lon="7.1276">
        <ele>724.59997558594</ele>
        <time>2021-02-25T12:42:35.000Z</time>
      </trkpt>
      <trkpt lat="43.76578" lon="7.12765">
        <ele>724.40002441406</ele>
        <time>2021-02-25T12:42:37.000Z</time>
      </trkpt>
      <trkpt lat="43.76582" lon="7.12772">
        <ele>724.40002441406</ele>
        <time>2021-02-25T12:42:39.000Z</time>
      </trkpt>
      <trkpt lat="43.76591" lon="7.12782">
        <ele>723.40002441406</ele>
        <time>2021-02-25T12:42:42.000Z</time>
      </trkpt>
      <trkpt lat="43.76596" lon="7.12785">
        <ele>723</ele>
        <time>2021-02-25T12:42:43.000Z</time>
      </trkpt>
      <trkpt lat="43.76601" lon="7.12787">
        <ele>722.20001220703</ele>
        <time>2021-02-25T12:42:44.000Z</time>
      </trkpt>
      <trkpt lat="43.76605" lon="7.1279">
        <ele>721.79998779297</ele>
        <time>2021-02-25T12:42:45.000Z</time>
      </trkpt>
      <trkpt lat="43.76609" lon="7.12794">
        <ele>721.79998779297</ele>
        <time>2021-02-25T12:42:46.000Z</time>
      </trkpt>
      <trkpt lat="43.76617" lon="7.128">
        <ele>721.79998779297</ele>
        <time>2021-02-25T12:42:48.000Z</time>
      </trkpt>
      <trkpt lat="43.76626" lon="7.12808">
        <ele>722</ele>
        <time>2021-02-25T12:42:52.000Z</time>
      </trkpt>
      <trkpt lat="43.76642" lon="7.12821">
        <ele>721.59997558594</ele>
        <time>2021-02-25T12:42:57.000Z</time>
      </trkpt>
      <trkpt lat="43.76646" lon="7.12823">
        <ele>721.20001220703</ele>
        <time>2021-02-25T12:42:59.000Z</time>
      </trkpt>
      <trkpt lat="43.76647" lon="7.12826">
        <ele>721.40002441406</ele>
        <time>2021-02-25T12:43:00.000Z</time>
      </trkpt>
      <trkpt lat="43.7666" lon="7.12832">
        <ele>721.59997558594</ele>
        <time>2021-02-25T12:43:04.000Z</time>
      </trkpt>
      <trkpt lat="43.76665" lon="7.12837">
        <ele>721.59997558594</ele>
        <time>2021-02-25T12:43:07.000Z</time>
      </trkpt>
      <trkpt lat="43.76669" lon="7.12842">
        <ele>722.20001220703</ele>
        <time>2021-02-25T12:43:09.000Z</time>
      </trkpt>
      <trkpt lat="43.76678" lon="7.12849">
        <ele>722.59997558594</ele>
        <time>2021-02-25T12:43:12.000Z</time>
      </trkpt>
      <trkpt lat="43.7669" lon="7.12855">
        <ele>722</ele>
        <time>2021-02-25T12:43:16.000Z</time>
      </trkpt>
      <trkpt lat="43.76693" lon="7.1286">
        <ele>722</ele>
        <time>2021-02-25T12:43:18.000Z</time>
      </trkpt>
      <trkpt lat="43.76695" lon="7.12863">
        <ele>722.40002441406</ele>
        <time>2021-02-25T12:43:20.000Z</time>
      </trkpt>
      <trkpt lat="43.76705" lon="7.12874">
        <ele>722</ele>
        <time>2021-02-25T12:43:23.000Z</time>
      </trkpt>
      <trkpt lat="43.76718" lon="7.12887">
        <ele>721.40002441406</ele>
        <time>2021-02-25T12:43:26.000Z</time>
      </trkpt>
      <trkpt lat="43.76722" lon="7.12891">
        <ele>721.40002441406</ele>
        <time>2021-02-25T12:43:27.000Z</time>
      </trkpt>
      <trkpt lat="43.76742" lon="7.12912">
        <ele>721.59997558594</ele>
        <time>2021-02-25T12:43:32.000Z</time>
      </trkpt>
      <trkpt lat="43.76745" lon="7.12918">
        <ele>722</ele>
        <time>2021-02-25T12:43:33.000Z</time>
      </trkpt>
      <trkpt lat="43.76745" lon="7.12934">
        <ele>722.59997558594</ele>
        <time>2021-02-25T12:43:36.000Z</time>
      </trkpt>
      <trkpt lat="43.76743" lon="7.12947">
        <ele>722.79998779297</ele>
        <time>2021-02-25T12:43:38.000Z</time>
      </trkpt>
      <trkpt lat="43.76742" lon="7.12952">
        <ele>722.40002441406</ele>
        <time>2021-02-25T12:43:39.000Z</time>
      </trkpt>
      <trkpt lat="43.7674" lon="7.12961">
        <ele>721.59997558594</ele>
        <time>2021-02-25T12:43:41.000Z</time>
      </trkpt>
      <trkpt lat="43.76737" lon="7.12973">
        <ele>722.20001220703</ele>
        <time>2021-02-25T12:43:45.000Z</time>
      </trkpt>
      <trkpt lat="43.76737" lon="7.12973">
        <ele>723.59997558594</ele>
        <time>2021-02-25T12:43:48.000Z</time>
      </trkpt>
      <trkpt lat="43.76737" lon="7.12973">
        <ele>724.40002441406</ele>
        <time>2021-02-25T12:43:51.000Z</time>
      </trkpt>
      <trkpt lat="43.76738" lon="7.12973">
        <ele>724.40002441406</ele>
        <time>2021-02-25T12:43:57.000Z</time>
      </trkpt>
      <trkpt lat="43.76739" lon="7.12974">
        <ele>723.79998779297</ele>
        <time>2021-02-25T12:44:06.000Z</time>
      </trkpt>
      <trkpt lat="43.7674" lon="7.12974">
        <ele>723.40002441406</ele>
        <time>2021-02-25T12:44:19.000Z</time>
      </trkpt>
      <trkpt lat="43.7674" lon="7.12973">
        <ele>723</ele>
        <time>2021-02-25T12:44:32.000Z</time>
      </trkpt>
      <trkpt lat="43.7674" lon="7.12973">
        <ele>723</ele>
        <time>2021-02-25T12:44:42.000Z</time>
      </trkpt>
      <trkpt lat="43.7674" lon="7.12974">
        <ele>722.79998779297</ele>
        <time>2021-02-25T12:44:48.000Z</time>
      </trkpt>
      <trkpt lat="43.76739" lon="7.12976">
        <ele>723</ele>
        <time>2021-02-25T12:44:54.000Z</time>
      </trkpt>
      <trkpt lat="43.76735" lon="7.12975">
        <ele>723.40002441406</ele>
        <time>2021-02-25T12:45:00.000Z</time>
      </trkpt>
      <trkpt lat="43.76726" lon="7.1298">
        <ele>723.79998779297</ele>
        <time>2021-02-25T12:45:04.000Z</time>
      </trkpt>
      <trkpt lat="43.76721" lon="7.12979">
        <ele>724</ele>
        <time>2021-02-25T12:45:06.000Z</time>
      </trkpt>
      <trkpt lat="43.76716" lon="7.12981">
        <ele>724.79998779297</ele>
        <time>2021-02-25T12:45:08.000Z</time>
      </trkpt>
      <trkpt lat="43.7671" lon="7.12983">
        <ele>725.79998779297</ele>
        <time>2021-02-25T12:45:10.000Z</time>
      </trkpt>
      <trkpt lat="43.76709" lon="7.12983">
        <ele>726.20001220703</ele>
        <time>2021-02-25T12:45:11.000Z</time>
      </trkpt>
      <trkpt lat="43.76706" lon="7.12983">
        <ele>726.40002441406</ele>
        <time>2021-02-25T12:45:13.000Z</time>
      </trkpt>
      <trkpt lat="43.76701" lon="7.12982">
        <ele>727.40002441406</ele>
        <time>2021-02-25T12:45:16.000Z</time>
      </trkpt>
      <trkpt lat="43.76697" lon="7.12981">
        <ele>728</ele>
        <time>2021-02-25T12:45:18.000Z</time>
      </trkpt>
      <trkpt lat="43.76695" lon="7.1298">
        <ele>728.40002441406</ele>
        <time>2021-02-25T12:45:19.000Z</time>
      </trkpt>
      <trkpt lat="43.76682" lon="7.12974">
        <ele>729.40002441406</ele>
        <time>2021-02-25T12:45:25.000Z</time>
      </trkpt>
      <trkpt lat="43.7668" lon="7.12973">
        <ele>729.79998779297</ele>
        <time>2021-02-25T12:45:26.000Z</time>
      </trkpt>
      <trkpt lat="43.76673" lon="7.12969">
        <ele>730.59997558594</ele>
        <time>2021-02-25T12:45:29.000Z</time>
      </trkpt>
      <trkpt lat="43.76666" lon="7.12968">
        <ele>731.59997558594</ele>
        <time>2021-02-25T12:45:32.000Z</time>
      </trkpt>
      <trkpt lat="43.76664" lon="7.12968">
        <ele>731.79998779297</ele>
        <time>2021-02-25T12:45:33.000Z</time>
      </trkpt>
      <trkpt lat="43.76655" lon="7.12965">
        <ele>732.79998779297</ele>
        <time>2021-02-25T12:45:37.000Z</time>
      </trkpt>
      <trkpt lat="43.76652" lon="7.12964">
        <ele>733</ele>
        <time>2021-02-25T12:45:38.000Z</time>
      </trkpt>
      <trkpt lat="43.76637" lon="7.12959">
        <ele>734.20001220703</ele>
        <time>2021-02-25T12:45:44.000Z</time>
      </trkpt>
      <trkpt lat="43.76625" lon="7.12956">
        <ele>735.59997558594</ele>
        <time>2021-02-25T12:45:49.000Z</time>
      </trkpt>
      <trkpt lat="43.76612" lon="7.12952">
        <ele>736.59997558594</ele>
        <time>2021-02-25T12:45:54.000Z</time>
      </trkpt>
      <trkpt lat="43.76607" lon="7.12951">
        <ele>737</ele>
        <time>2021-02-25T12:45:56.000Z</time>
      </trkpt>
      <trkpt lat="43.76601" lon="7.1295">
        <ele>737.59997558594</ele>
        <time>2021-02-25T12:45:59.000Z</time>
      </trkpt>
      <trkpt lat="43.76596" lon="7.1295">
        <ele>737.79998779297</ele>
        <time>2021-02-25T12:46:01.000Z</time>
      </trkpt>
      <trkpt lat="43.76585" lon="7.12947">
        <ele>738.59997558594</ele>
        <time>2021-02-25T12:46:06.000Z</time>
      </trkpt>
      <trkpt lat="43.76573" lon="7.12943">
        <ele>738.79998779297</ele>
        <time>2021-02-25T12:46:11.000Z</time>
      </trkpt>
      <trkpt lat="43.76571" lon="7.12944">
        <ele>738.79998779297</ele>
        <time>2021-02-25T12:46:12.000Z</time>
      </trkpt>
      <trkpt lat="43.76562" lon="7.12942">
        <ele>739</ele>
        <time>2021-02-25T12:46:15.000Z</time>
      </trkpt>
      <trkpt lat="43.76554" lon="7.12941">
        <ele>739.79998779297</ele>
        <time>2021-02-25T12:46:18.000Z</time>
      </trkpt>
      <trkpt lat="43.76545" lon="7.12938">
        <ele>740</ele>
        <time>2021-02-25T12:46:21.000Z</time>
      </trkpt>
      <trkpt lat="43.76532" lon="7.12938">
        <ele>739.79998779297</ele>
        <time>2021-02-25T12:46:26.000Z</time>
      </trkpt>
      <trkpt lat="43.76516" lon="7.12939">
        <ele>740.59997558594</ele>
        <time>2021-02-25T12:46:32.000Z</time>
      </trkpt>
      <trkpt lat="43.76511" lon="7.12939">
        <ele>741.20001220703</ele>
        <time>2021-02-25T12:46:34.000Z</time>
      </trkpt>
      <trkpt lat="43.76498" lon="7.1294">
        <ele>742.20001220703</ele>
        <time>2021-02-25T12:46:39.000Z</time>
      </trkpt>
      <trkpt lat="43.76488" lon="7.12942">
        <ele>743.20001220703</ele>
        <time>2021-02-25T12:46:44.000Z</time>
      </trkpt>
      <trkpt lat="43.76485" lon="7.1294">
        <ele>744</ele>
        <time>2021-02-25T12:46:46.000Z</time>
      </trkpt>
      <trkpt lat="43.76482" lon="7.12939">
        <ele>744.40002441406</ele>
        <time>2021-02-25T12:46:48.000Z</time>
      </trkpt>
      <trkpt lat="43.7647" lon="7.12936">
        <ele>744.40002441406</ele>
        <time>2021-02-25T12:46:52.000Z</time>
      </trkpt>
      <trkpt lat="43.76459" lon="7.12936">
        <ele>744.40002441406</ele>
        <time>2021-02-25T12:46:56.000Z</time>
      </trkpt>
      <trkpt lat="43.76446" lon="7.12934">
        <ele>745.40002441406</ele>
        <time>2021-02-25T12:47:02.000Z</time>
      </trkpt>
      <trkpt lat="43.76441" lon="7.12932">
        <ele>745.79998779297</ele>
        <time>2021-02-25T12:47:04.000Z</time>
      </trkpt>
      <trkpt lat="43.76436" lon="7.12932">
        <ele>746</ele>
        <time>2021-02-25T12:47:06.000Z</time>
      </trkpt>
      <trkpt lat="43.76432" lon="7.12934">
        <ele>746</ele>
        <time>2021-02-25T12:47:08.000Z</time>
      </trkpt>
      <trkpt lat="43.76428" lon="7.12935">
        <ele>746.40002441406</ele>
        <time>2021-02-25T12:47:10.000Z</time>
      </trkpt>
      <trkpt lat="43.76424" lon="7.12935">
        <ele>746.79998779297</ele>
        <time>2021-02-25T12:47:12.000Z</time>
      </trkpt>
      <trkpt lat="43.76417" lon="7.12936">
        <ele>748</ele>
        <time>2021-02-25T12:47:15.000Z</time>
      </trkpt>
      <trkpt lat="43.76408" lon="7.12938">
        <ele>749.20001220703</ele>
        <time>2021-02-25T12:47:19.000Z</time>
      </trkpt>
      <trkpt lat="43.76402" lon="7.1294">
        <ele>750.40002441406</ele>
        <time>2021-02-25T12:47:22.000Z</time>
      </trkpt>
      <trkpt lat="43.76393" lon="7.12939">
        <ele>751.59997558594</ele>
        <time>2021-02-25T12:47:26.000Z</time>
      </trkpt>
      <trkpt lat="43.76391" lon="7.1294">
        <ele>751.79998779297</ele>
        <time>2021-02-25T12:47:27.000Z</time>
      </trkpt>
      <trkpt lat="43.76381" lon="7.12942">
        <ele>752.79998779297</ele>
        <time>2021-02-25T12:47:32.000Z</time>
      </trkpt>
      <trkpt lat="43.76375" lon="7.12944">
        <ele>753.59997558594</ele>
        <time>2021-02-25T12:47:35.000Z</time>
      </trkpt>
      <trkpt lat="43.76373" lon="7.12945">
        <ele>753.79998779297</ele>
        <time>2021-02-25T12:47:37.000Z</time>
      </trkpt>
      <trkpt lat="43.76367" lon="7.12948">
        <ele>754.59997558594</ele>
        <time>2021-02-25T12:47:40.000Z</time>
      </trkpt>
      <trkpt lat="43.76364" lon="7.12951">
        <ele>755.20001220703</ele>
        <time>2021-02-25T12:47:42.000Z</time>
      </trkpt>
      <trkpt lat="43.76356" lon="7.12953">
        <ele>756.20001220703</ele>
        <time>2021-02-25T12:47:46.000Z</time>
      </trkpt>
      <trkpt lat="43.76355" lon="7.12954">
        <ele>756.59997558594</ele>
        <time>2021-02-25T12:47:47.000Z</time>
      </trkpt>
      <trkpt lat="43.76353" lon="7.12955">
        <ele>757.40002441406</ele>
        <time>2021-02-25T12:47:51.000Z</time>
      </trkpt>
      <trkpt lat="43.76353" lon="7.12955">
        <ele>757.79998779297</ele>
        <time>2021-02-25T12:47:53.000Z</time>
      </trkpt>
      <trkpt lat="43.76346" lon="7.12959">
        <ele>758</ele>
        <time>2021-02-25T12:47:57.000Z</time>
      </trkpt>
      <trkpt lat="43.7634" lon="7.12962">
        <ele>758.59997558594</ele>
        <time>2021-02-25T12:48:00.000Z</time>
      </trkpt>
      <trkpt lat="43.76335" lon="7.12963">
        <ele>759.20001220703</ele>
        <time>2021-02-25T12:48:02.000Z</time>
      </trkpt>
      <trkpt lat="43.7633" lon="7.12964">
        <ele>759.79998779297</ele>
        <time>2021-02-25T12:48:04.000Z</time>
      </trkpt>
      <trkpt lat="43.76325" lon="7.12966">
        <ele>760.40002441406</ele>
        <time>2021-02-25T12:48:08.000Z</time>
      </trkpt>
      <trkpt lat="43.76325" lon="7.12965">
        <ele>760.79998779297</ele>
        <time>2021-02-25T12:48:10.000Z</time>
      </trkpt>
      <trkpt lat="43.76323" lon="7.12967">
        <ele>761.20001220703</ele>
        <time>2021-02-25T12:48:13.000Z</time>
      </trkpt>
      <trkpt lat="43.7632" lon="7.12968">
        <ele>761.79998779297</ele>
        <time>2021-02-25T12:48:19.000Z</time>
      </trkpt>
      <trkpt lat="43.7632" lon="7.12968">
        <ele>762</ele>
        <time>2021-02-25T12:48:20.000Z</time>
      </trkpt>
      <trkpt lat="43.76319" lon="7.12969">
        <ele>762</ele>
        <time>2021-02-25T12:48:22.000Z</time>
      </trkpt>
      <trkpt lat="43.76316" lon="7.12971">
        <ele>762</ele>
        <time>2021-02-25T12:48:24.000Z</time>
      </trkpt>
      <trkpt lat="43.76312" lon="7.12974">
        <ele>762.40002441406</ele>
        <time>2021-02-25T12:48:26.000Z</time>
      </trkpt>
      <trkpt lat="43.76306" lon="7.12981">
        <ele>762.79998779297</ele>
        <time>2021-02-25T12:48:29.000Z</time>
      </trkpt>
      <trkpt lat="43.76303" lon="7.12983">
        <ele>763</ele>
        <time>2021-02-25T12:48:30.000Z</time>
      </trkpt>
      <trkpt lat="43.76297" lon="7.12991">
        <ele>764</ele>
        <time>2021-02-25T12:48:34.000Z</time>
      </trkpt>
      <trkpt lat="43.76294" lon="7.12993">
        <ele>765</ele>
        <time>2021-02-25T12:48:36.000Z</time>
      </trkpt>
      <trkpt lat="43.7629" lon="7.12997">
        <ele>766.20001220703</ele>
        <time>2021-02-25T12:48:38.000Z</time>
      </trkpt>
      <trkpt lat="43.76289" lon="7.12998">
        <ele>766.79998779297</ele>
        <time>2021-02-25T12:48:39.000Z</time>
      </trkpt>
      <trkpt lat="43.76286" lon="7.13003">
        <ele>767.20001220703</ele>
        <time>2021-02-25T12:48:41.000Z</time>
      </trkpt>
      <trkpt lat="43.76278" lon="7.13013">
        <ele>768.40002441406</ele>
        <time>2021-02-25T12:48:45.000Z</time>
      </trkpt>
      <trkpt lat="43.76271" lon="7.1302">
        <ele>769.59997558594</ele>
        <time>2021-02-25T12:48:48.000Z</time>
      </trkpt>
      <trkpt lat="43.76268" lon="7.13026">
        <ele>770.40002441406</ele>
        <time>2021-02-25T12:48:50.000Z</time>
      </trkpt>
      <trkpt lat="43.76266" lon="7.13029">
        <ele>770.59997558594</ele>
        <time>2021-02-25T12:48:51.000Z</time>
      </trkpt>
      <trkpt lat="43.76257" lon="7.13036">
        <ele>771.79998779297</ele>
        <time>2021-02-25T12:48:54.000Z</time>
      </trkpt>
      <trkpt lat="43.76254" lon="7.13039">
        <ele>772.20001220703</ele>
        <time>2021-02-25T12:48:55.000Z</time>
      </trkpt>
      <trkpt lat="43.76248" lon="7.13049">
        <ele>773</ele>
        <time>2021-02-25T12:48:58.000Z</time>
      </trkpt>
      <trkpt lat="43.76242" lon="7.1306">
        <ele>773.79998779297</ele>
        <time>2021-02-25T12:49:01.000Z</time>
      </trkpt>
      <trkpt lat="43.76241" lon="7.13063">
        <ele>774.20001220703</ele>
        <time>2021-02-25T12:49:02.000Z</time>
      </trkpt>
      <trkpt lat="43.76238" lon="7.13068">
        <ele>775.40002441406</ele>
        <time>2021-02-25T12:49:04.000Z</time>
      </trkpt>
      <trkpt lat="43.76233" lon="7.13077">
        <ele>776.59997558594</ele>
        <time>2021-02-25T12:49:07.000Z</time>
      </trkpt>
      <trkpt lat="43.76225" lon="7.13093">
        <ele>777.79998779297</ele>
        <time>2021-02-25T12:49:11.000Z</time>
      </trkpt>
      <trkpt lat="43.76221" lon="7.13102">
        <ele>779</ele>
        <time>2021-02-25T12:49:13.000Z</time>
      </trkpt>
      <trkpt lat="43.76219" lon="7.13112">
        <ele>780.59997558594</ele>
        <time>2021-02-25T12:49:15.000Z</time>
      </trkpt>
      <trkpt lat="43.76216" lon="7.13119">
        <ele>782</ele>
        <time>2021-02-25T12:49:17.000Z</time>
      </trkpt>
      <trkpt lat="43.76214" lon="7.13124">
        <ele>782.40002441406</ele>
        <time>2021-02-25T12:49:18.000Z</time>
      </trkpt>
      <trkpt lat="43.76214" lon="7.13129">
        <ele>783</ele>
        <time>2021-02-25T12:49:19.000Z</time>
      </trkpt>
      <trkpt lat="43.76212" lon="7.13139">
        <ele>784.20001220703</ele>
        <time>2021-02-25T12:49:21.000Z</time>
      </trkpt>
      <trkpt lat="43.76212" lon="7.13143">
        <ele>784.59997558594</ele>
        <time>2021-02-25T12:49:22.000Z</time>
      </trkpt>
      <trkpt lat="43.76211" lon="7.13153">
        <ele>786</ele>
        <time>2021-02-25T12:49:24.000Z</time>
      </trkpt>
      <trkpt lat="43.76207" lon="7.13169">
        <ele>787.40002441406</ele>
        <time>2021-02-25T12:49:28.000Z</time>
      </trkpt>
      <trkpt lat="43.76204" lon="7.13189">
        <ele>788</ele>
        <time>2021-02-25T12:49:33.000Z</time>
      </trkpt>
      <trkpt lat="43.76197" lon="7.13211">
        <ele>788.20001220703</ele>
        <time>2021-02-25T12:49:38.000Z</time>
      </trkpt>
      <trkpt lat="43.76195" lon="7.13216">
        <ele>788.59997558594</ele>
        <time>2021-02-25T12:49:39.000Z</time>
      </trkpt>
      <trkpt lat="43.76189" lon="7.13235">
        <ele>788.59997558594</ele>
        <time>2021-02-25T12:49:44.000Z</time>
      </trkpt>
      <trkpt lat="43.76181" lon="7.13261">
        <ele>789.59997558594</ele>
        <time>2021-02-25T12:49:50.000Z</time>
      </trkpt>
      <trkpt lat="43.76175" lon="7.13289">
        <ele>789.79998779297</ele>
        <time>2021-02-25T12:49:56.000Z</time>
      </trkpt>
      <trkpt lat="43.76167" lon="7.13318">
        <ele>789.59997558594</ele>
        <time>2021-02-25T12:50:02.000Z</time>
      </trkpt>
      <trkpt lat="43.76159" lon="7.13354">
        <ele>788.79998779297</ele>
        <time>2021-02-25T12:50:09.000Z</time>
      </trkpt>
      <trkpt lat="43.76154" lon="7.13366">
        <ele>788.59997558594</ele>
        <time>2021-02-25T12:50:12.000Z</time>
      </trkpt>
      <trkpt lat="43.76149" lon="7.13375">
        <ele>788.59997558594</ele>
        <time>2021-02-25T12:50:14.000Z</time>
      </trkpt>
      <trkpt lat="43.76143" lon="7.1339">
        <ele>788</ele>
        <time>2021-02-25T12:50:19.000Z</time>
      </trkpt>
      <trkpt lat="43.76138" lon="7.13411">
        <ele>787.59997558594</ele>
        <time>2021-02-25T12:50:25.000Z</time>
      </trkpt>
      <trkpt lat="43.76137" lon="7.13415">
        <ele>787.40002441406</ele>
        <time>2021-02-25T12:50:26.000Z</time>
      </trkpt>
      <trkpt lat="43.76135" lon="7.1344">
        <ele>787</ele>
        <time>2021-02-25T12:50:32.000Z</time>
      </trkpt>
      <trkpt lat="43.76135" lon="7.13451">
        <ele>786.40002441406</ele>
        <time>2021-02-25T12:50:35.000Z</time>
      </trkpt>
      <trkpt lat="43.76135" lon="7.13473">
        <ele>786</ele>
        <time>2021-02-25T12:50:39.000Z</time>
      </trkpt>
      <trkpt lat="43.76139" lon="7.13487">
        <ele>785.79998779297</ele>
        <time>2021-02-25T12:50:42.000Z</time>
      </trkpt>
      <trkpt lat="43.76141" lon="7.13493">
        <ele>785.59997558594</ele>
        <time>2021-02-25T12:50:43.000Z</time>
      </trkpt>
      <trkpt lat="43.76149" lon="7.13511">
        <ele>785.40002441406</ele>
        <time>2021-02-25T12:50:46.000Z</time>
      </trkpt>
      <trkpt lat="43.7615" lon="7.13516">
        <ele>785.20001220703</ele>
        <time>2021-02-25T12:50:47.000Z</time>
      </trkpt>
      <trkpt lat="43.76154" lon="7.13527">
        <ele>784.79998779297</ele>
        <time>2021-02-25T12:50:49.000Z</time>
      </trkpt>
      <trkpt lat="43.76156" lon="7.13545">
        <ele>784.20001220703</ele>
        <time>2021-02-25T12:50:53.000Z</time>
      </trkpt>
      <trkpt lat="43.76155" lon="7.13549">
        <ele>784.20001220703</ele>
        <time>2021-02-25T12:50:54.000Z</time>
      </trkpt>
      <trkpt lat="43.76147" lon="7.13567">
        <ele>784.40002441406</ele>
        <time>2021-02-25T12:50:58.000Z</time>
      </trkpt>
      <trkpt lat="43.76135" lon="7.13591">
        <ele>783.59997558594</ele>
        <time>2021-02-25T12:51:04.000Z</time>
      </trkpt>
      <trkpt lat="43.76127" lon="7.13603">
        <ele>783.20001220703</ele>
        <time>2021-02-25T12:51:08.000Z</time>
      </trkpt>
      <trkpt lat="43.76121" lon="7.13612">
        <ele>783</ele>
        <time>2021-02-25T12:51:11.000Z</time>
      </trkpt>
      <trkpt lat="43.76118" lon="7.13626">
        <ele>781.59997558594</ele>
        <time>2021-02-25T12:51:15.000Z</time>
      </trkpt>
      <trkpt lat="43.76118" lon="7.13629">
        <ele>781.40002441406</ele>
        <time>2021-02-25T12:51:16.000Z</time>
      </trkpt>
      <trkpt lat="43.76119" lon="7.13638">
        <ele>780.59997558594</ele>
        <time>2021-02-25T12:51:19.000Z</time>
      </trkpt>
      <trkpt lat="43.76119" lon="7.13644">
        <ele>781.20001220703</ele>
        <time>2021-02-25T12:51:22.000Z</time>
      </trkpt>
      <trkpt lat="43.76119" lon="7.13644">
        <ele>781.20001220703</ele>
        <time>2021-02-25T12:51:28.000Z</time>
      </trkpt>
      <trkpt lat="43.7612" lon="7.13649">
        <ele>781</ele>
        <time>2021-02-25T12:51:35.000Z</time>
      </trkpt>
      <trkpt lat="43.76122" lon="7.13665">
        <ele>780.59997558594</ele>
        <time>2021-02-25T12:51:40.000Z</time>
      </trkpt>
      <trkpt lat="43.76124" lon="7.13677">
        <ele>780.40002441406</ele>
        <time>2021-02-25T12:51:45.000Z</time>
      </trkpt>
      <trkpt lat="43.76124" lon="7.1369">
        <ele>780</ele>
        <time>2021-02-25T12:51:51.000Z</time>
      </trkpt>
      <trkpt lat="43.76127" lon="7.13709">
        <ele>780.40002441406</ele>
        <time>2021-02-25T12:51:57.000Z</time>
      </trkpt>
      <trkpt lat="43.76129" lon="7.13725">
        <ele>780</ele>
        <time>2021-02-25T12:52:02.000Z</time>
      </trkpt>
      <trkpt lat="43.76126" lon="7.1375">
        <ele>780.79998779297</ele>
        <time>2021-02-25T12:52:08.000Z</time>
      </trkpt>
      <trkpt lat="43.76127" lon="7.13783">
        <ele>780.40002441406</ele>
        <time>2021-02-25T12:52:14.000Z</time>
      </trkpt>
      <trkpt lat="43.76127" lon="7.13791">
        <ele>780.40002441406</ele>
        <time>2021-02-25T12:52:15.000Z</time>
      </trkpt>
      <trkpt lat="43.76126" lon="7.13813">
        <ele>779.20001220703</ele>
        <time>2021-02-25T12:52:18.000Z</time>
      </trkpt>
      <trkpt lat="43.76126" lon="7.13821">
        <ele>777.59997558594</ele>
        <time>2021-02-25T12:52:21.000Z</time>
      </trkpt>
      <trkpt lat="43.76126" lon="7.1382">
        <ele>777.20001220703</ele>
        <time>2021-02-25T12:52:22.000Z</time>
      </trkpt>
      <trkpt lat="43.76125" lon="7.13827">
        <ele>777</ele>
        <time>2021-02-25T12:52:25.000Z</time>
      </trkpt>
      <trkpt lat="43.76125" lon="7.13827">
        <ele>776.40002441406</ele>
        <time>2021-02-25T12:52:27.000Z</time>
      </trkpt>
      <trkpt lat="43.76125" lon="7.13827">
        <ele>776.79998779297</ele>
        <time>2021-02-25T12:52:29.000Z</time>
      </trkpt>
      <trkpt lat="43.76126" lon="7.13827">
        <ele>776.20001220703</ele>
        <time>2021-02-25T12:52:42.000Z</time>
      </trkpt>
      <trkpt lat="43.76124" lon="7.13832">
        <ele>775.79998779297</ele>
        <time>2021-02-25T12:52:48.000Z</time>
      </trkpt>
      <trkpt lat="43.76125" lon="7.13834">
        <ele>775.59997558594</ele>
        <time>2021-02-25T12:52:49.000Z</time>
      </trkpt>
      <trkpt lat="43.76126" lon="7.13838">
        <ele>775.20001220703</ele>
        <time>2021-02-25T12:52:50.000Z</time>
      </trkpt>
      <trkpt lat="43.76127" lon="7.13843">
        <ele>774.59997558594</ele>
        <time>2021-02-25T12:52:52.000Z</time>
      </trkpt>
      <trkpt lat="43.76127" lon="7.13846">
        <ele>774</ele>
        <time>2021-02-25T12:52:53.000Z</time>
      </trkpt>
      <trkpt lat="43.76128" lon="7.13852">
        <ele>773.40002441406</ele>
        <time>2021-02-25T12:52:55.000Z</time>
      </trkpt>
      <trkpt lat="43.7613" lon="7.13853">
        <ele>773.20001220703</ele>
        <time>2021-02-25T12:52:56.000Z</time>
      </trkpt>
      <trkpt lat="43.76132" lon="7.13855">
        <ele>773</ele>
        <time>2021-02-25T12:52:57.000Z</time>
      </trkpt>
      <trkpt lat="43.76139" lon="7.13865">
        <ele>772.59997558594</ele>
        <time>2021-02-25T12:52:59.000Z</time>
      </trkpt>
      <trkpt lat="43.76148" lon="7.13881">
        <ele>771.20001220703</ele>
        <time>2021-02-25T12:53:02.000Z</time>
      </trkpt>
      <trkpt lat="43.76154" lon="7.13887">
        <ele>770.79998779297</ele>
        <time>2021-02-25T12:53:03.000Z</time>
      </trkpt>
      <trkpt lat="43.76157" lon="7.13893">
        <ele>769.59997558594</ele>
        <time>2021-02-25T12:53:04.000Z</time>
      </trkpt>
      <trkpt lat="43.7616" lon="7.13899">
        <ele>768.40002441406</ele>
        <time>2021-02-25T12:53:05.000Z</time>
      </trkpt>
      <trkpt lat="43.76166" lon="7.13907">
        <ele>767.20001220703</ele>
        <time>2021-02-25T12:53:07.000Z</time>
      </trkpt>
      <trkpt lat="43.76166" lon="7.13911">
        <ele>766.40002441406</ele>
        <time>2021-02-25T12:53:08.000Z</time>
      </trkpt>
      <trkpt lat="43.76163" lon="7.13912">
        <ele>765.79998779297</ele>
        <time>2021-02-25T12:53:09.000Z</time>
      </trkpt>
      <trkpt lat="43.76157" lon="7.13916">
        <ele>764.79998779297</ele>
        <time>2021-02-25T12:53:11.000Z</time>
      </trkpt>
      <trkpt lat="43.76153" lon="7.13919">
        <ele>763.79998779297</ele>
        <time>2021-02-25T12:53:12.000Z</time>
      </trkpt>
      <trkpt lat="43.76143" lon="7.13926">
        <ele>762.20001220703</ele>
        <time>2021-02-25T12:53:14.000Z</time>
      </trkpt>
      <trkpt lat="43.76138" lon="7.13929">
        <ele>761.20001220703</ele>
        <time>2021-02-25T12:53:15.000Z</time>
      </trkpt>
      <trkpt lat="43.76134" lon="7.13932">
        <ele>760</ele>
        <time>2021-02-25T12:53:16.000Z</time>
      </trkpt>
      <trkpt lat="43.76124" lon="7.1394">
        <ele>758.40002441406</ele>
        <time>2021-02-25T12:53:18.000Z</time>
      </trkpt>
      <trkpt lat="43.76116" lon="7.13947">
        <ele>757.20001220703</ele>
        <time>2021-02-25T12:53:20.000Z</time>
      </trkpt>
      <trkpt lat="43.76111" lon="7.1395">
        <ele>756.40002441406</ele>
        <time>2021-02-25T12:53:21.000Z</time>
      </trkpt>
      <trkpt lat="43.76106" lon="7.13952">
        <ele>755.59997558594</ele>
        <time>2021-02-25T12:53:22.000Z</time>
      </trkpt>
      <trkpt lat="43.76102" lon="7.13955">
        <ele>754.40002441406</ele>
        <time>2021-02-25T12:53:23.000Z</time>
      </trkpt>
      <trkpt lat="43.76094" lon="7.13961">
        <ele>751.79998779297</ele>
        <time>2021-02-25T12:53:25.000Z</time>
      </trkpt>
      <trkpt lat="43.7609" lon="7.13964">
        <ele>750.20001220703</ele>
        <time>2021-02-25T12:53:26.000Z</time>
      </trkpt>
      <trkpt lat="43.76086" lon="7.13967">
        <ele>748.59997558594</ele>
        <time>2021-02-25T12:53:27.000Z</time>
      </trkpt>
      <trkpt lat="43.76081" lon="7.13971">
        <ele>747.20001220703</ele>
        <time>2021-02-25T12:53:28.000Z</time>
      </trkpt>
      <trkpt lat="43.76075" lon="7.13975">
        <ele>745.79998779297</ele>
        <time>2021-02-25T12:53:29.000Z</time>
      </trkpt>
      <trkpt lat="43.7607" lon="7.13979">
        <ele>744.79998779297</ele>
        <time>2021-02-25T12:53:30.000Z</time>
      </trkpt>
      <trkpt lat="43.76065" lon="7.13983">
        <ele>743.20001220703</ele>
        <time>2021-02-25T12:53:31.000Z</time>
      </trkpt>
      <trkpt lat="43.76057" lon="7.1399">
        <ele>741.40002441406</ele>
        <time>2021-02-25T12:53:33.000Z</time>
      </trkpt>
      <trkpt lat="43.76054" lon="7.13992">
        <ele>740</ele>
        <time>2021-02-25T12:53:34.000Z</time>
      </trkpt>
      <trkpt lat="43.76055" lon="7.13994">
        <ele>739.40002441406</ele>
        <time>2021-02-25T12:53:35.000Z</time>
      </trkpt>
      <trkpt lat="43.76058" lon="7.13995">
        <ele>738.79998779297</ele>
        <time>2021-02-25T12:53:36.000Z</time>
      </trkpt>
      <trkpt lat="43.76064" lon="7.13996">
        <ele>737.59997558594</ele>
        <time>2021-02-25T12:53:38.000Z</time>
      </trkpt>
      <trkpt lat="43.76063" lon="7.13999">
        <ele>736.40002441406</ele>
        <time>2021-02-25T12:53:39.000Z</time>
      </trkpt>
      <trkpt lat="43.7606" lon="7.14001">
        <ele>735.20001220703</ele>
        <time>2021-02-25T12:53:41.000Z</time>
      </trkpt>
      <trkpt lat="43.7606" lon="7.14001">
        <ele>734.20001220703</ele>
        <time>2021-02-25T12:53:43.000Z</time>
      </trkpt>
      <trkpt lat="43.76059" lon="7.14002">
        <ele>732.79998779297</ele>
        <time>2021-02-25T12:53:46.000Z</time>
      </trkpt>
      <trkpt lat="43.76054" lon="7.14006">
        <ele>732.40002441406</ele>
        <time>2021-02-25T12:53:56.000Z</time>
      </trkpt>
      <trkpt lat="43.76048" lon="7.14011">
        <ele>731.79998779297</ele>
        <time>2021-02-25T12:53:58.000Z</time>
      </trkpt>
      <trkpt lat="43.76044" lon="7.14015">
        <ele>731.40002441406</ele>
        <time>2021-02-25T12:53:59.000Z</time>
      </trkpt>
      <trkpt lat="43.7604" lon="7.14018">
        <ele>730.59997558594</ele>
        <time>2021-02-25T12:54:00.000Z</time>
      </trkpt>
      <trkpt lat="43.7603" lon="7.14024">
        <ele>729</ele>
        <time>2021-02-25T12:54:02.000Z</time>
      </trkpt>
      <trkpt lat="43.7602" lon="7.14029">
        <ele>727</ele>
        <time>2021-02-25T12:54:04.000Z</time>
      </trkpt>
      <trkpt lat="43.76014" lon="7.14031">
        <ele>725.40002441406</ele>
        <time>2021-02-25T12:54:05.000Z</time>
      </trkpt>
      <trkpt lat="43.76008" lon="7.14036">
        <ele>724</ele>
        <time>2021-02-25T12:54:06.000Z</time>
      </trkpt>
      <trkpt lat="43.76002" lon="7.1404">
        <ele>723</ele>
        <time>2021-02-25T12:54:07.000Z</time>
      </trkpt>
      <trkpt lat="43.75996" lon="7.14044">
        <ele>721.59997558594</ele>
        <time>2021-02-25T12:54:08.000Z</time>
      </trkpt>
      <trkpt lat="43.75992" lon="7.1405">
        <ele>720.20001220703</ele>
        <time>2021-02-25T12:54:09.000Z</time>
      </trkpt>
      <trkpt lat="43.75989" lon="7.14057">
        <ele>719.40002441406</ele>
        <time>2021-02-25T12:54:10.000Z</time>
      </trkpt>
      <trkpt lat="43.75986" lon="7.14064">
        <ele>718.79998779297</ele>
        <time>2021-02-25T12:54:11.000Z</time>
      </trkpt>
      <trkpt lat="43.75974" lon="7.14082">
        <ele>717.20001220703</ele>
        <time>2021-02-25T12:54:13.000Z</time>
      </trkpt>
      <trkpt lat="43.75969" lon="7.1409">
        <ele>715.59997558594</ele>
        <time>2021-02-25T12:54:14.000Z</time>
      </trkpt>
      <trkpt lat="43.75963" lon="7.14098">
        <ele>714.20001220703</ele>
        <time>2021-02-25T12:54:15.000Z</time>
      </trkpt>
      <trkpt lat="43.75958" lon="7.14105">
        <ele>713</ele>
        <time>2021-02-25T12:54:16.000Z</time>
      </trkpt>
      <trkpt lat="43.75953" lon="7.14112">
        <ele>711.20001220703</ele>
        <time>2021-02-25T12:54:17.000Z</time>
      </trkpt>
      <trkpt lat="43.75946" lon="7.14119">
        <ele>709.20001220703</ele>
        <time>2021-02-25T12:54:18.000Z</time>
      </trkpt>
      <trkpt lat="43.7594" lon="7.14125">
        <ele>708</ele>
        <time>2021-02-25T12:54:19.000Z</time>
      </trkpt>
      <trkpt lat="43.75935" lon="7.14131">
        <ele>705.79998779297</ele>
        <time>2021-02-25T12:54:20.000Z</time>
      </trkpt>
      <trkpt lat="43.75931" lon="7.14136">
        <ele>704.40002441406</ele>
        <time>2021-02-25T12:54:21.000Z</time>
      </trkpt>
      <trkpt lat="43.75928" lon="7.14139">
        <ele>703.59997558594</ele>
        <time>2021-02-25T12:54:22.000Z</time>
      </trkpt>
      <trkpt lat="43.75925" lon="7.1414">
        <ele>702.40002441406</ele>
        <time>2021-02-25T12:54:23.000Z</time>
      </trkpt>
      <trkpt lat="43.75925" lon="7.14141">
        <ele>701</ele>
        <time>2021-02-25T12:54:24.000Z</time>
      </trkpt>
      <trkpt lat="43.75929" lon="7.14141">
        <ele>700.40002441406</ele>
        <time>2021-02-25T12:54:26.000Z</time>
      </trkpt>
      <trkpt lat="43.75932" lon="7.14141">
        <ele>699.79998779297</ele>
        <time>2021-02-25T12:54:27.000Z</time>
      </trkpt>
      <trkpt lat="43.75938" lon="7.14141">
        <ele>699.20001220703</ele>
        <time>2021-02-25T12:54:28.000Z</time>
      </trkpt>
      <trkpt lat="43.75944" lon="7.1414">
        <ele>699</ele>
        <time>2021-02-25T12:54:29.000Z</time>
      </trkpt>
      <trkpt lat="43.75947" lon="7.14139">
        <ele>698.59997558594</ele>
        <time>2021-02-25T12:54:30.000Z</time>
      </trkpt>
      <trkpt lat="43.75949" lon="7.14143">
        <ele>697</ele>
        <time>2021-02-25T12:54:32.000Z</time>
      </trkpt>
      <trkpt lat="43.75947" lon="7.14149">
        <ele>695.59997558594</ele>
        <time>2021-02-25T12:54:34.000Z</time>
      </trkpt>
      <trkpt lat="43.75945" lon="7.14151">
        <ele>695.59997558594</ele>
        <time>2021-02-25T12:54:35.000Z</time>
      </trkpt>
      <trkpt lat="43.75939" lon="7.14159">
        <ele>694.79998779297</ele>
        <time>2021-02-25T12:54:37.000Z</time>
      </trkpt>
      <trkpt lat="43.75933" lon="7.14165">
        <ele>693.79998779297</ele>
        <time>2021-02-25T12:54:38.000Z</time>
      </trkpt>
      <trkpt lat="43.7593" lon="7.14167">
        <ele>693.40002441406</ele>
        <time>2021-02-25T12:54:39.000Z</time>
      </trkpt>
      <trkpt lat="43.75922" lon="7.14174">
        <ele>692</ele>
        <time>2021-02-25T12:54:40.000Z</time>
      </trkpt>
      <trkpt lat="43.75917" lon="7.1418">
        <ele>690.79998779297</ele>
        <time>2021-02-25T12:54:41.000Z</time>
      </trkpt>
      <trkpt lat="43.75911" lon="7.14186">
        <ele>689</ele>
        <time>2021-02-25T12:54:42.000Z</time>
      </trkpt>
      <trkpt lat="43.75904" lon="7.14191">
        <ele>687.40002441406</ele>
        <time>2021-02-25T12:54:43.000Z</time>
      </trkpt>
      <trkpt lat="43.759" lon="7.14195">
        <ele>686.20001220703</ele>
        <time>2021-02-25T12:54:44.000Z</time>
      </trkpt>
      <trkpt lat="43.75895" lon="7.14201">
        <ele>684.59997558594</ele>
        <time>2021-02-25T12:54:45.000Z</time>
      </trkpt>
      <trkpt lat="43.75891" lon="7.14204">
        <ele>683.40002441406</ele>
        <time>2021-02-25T12:54:46.000Z</time>
      </trkpt>
      <trkpt lat="43.75887" lon="7.14207">
        <ele>683</ele>
        <time>2021-02-25T12:54:47.000Z</time>
      </trkpt>
      <trkpt lat="43.75883" lon="7.14212">
        <ele>682</ele>
        <time>2021-02-25T12:54:48.000Z</time>
      </trkpt>
      <trkpt lat="43.75875" lon="7.14219">
        <ele>681.20001220703</ele>
        <time>2021-02-25T12:54:50.000Z</time>
      </trkpt>
      <trkpt lat="43.75871" lon="7.14223">
        <ele>680.40002441406</ele>
        <time>2021-02-25T12:54:51.000Z</time>
      </trkpt>
      <trkpt lat="43.75867" lon="7.14225">
        <ele>679.20001220703</ele>
        <time>2021-02-25T12:54:52.000Z</time>
      </trkpt>
      <trkpt lat="43.75864" lon="7.14229">
        <ele>678.20001220703</ele>
        <time>2021-02-25T12:54:53.000Z</time>
      </trkpt>
      <trkpt lat="43.7586" lon="7.14232">
        <ele>677.20001220703</ele>
        <time>2021-02-25T12:54:54.000Z</time>
      </trkpt>
      <trkpt lat="43.75855" lon="7.14236">
        <ele>676.20001220703</ele>
        <time>2021-02-25T12:54:55.000Z</time>
      </trkpt>
      <trkpt lat="43.75847" lon="7.14245">
        <ele>674.59997558594</ele>
        <time>2021-02-25T12:54:57.000Z</time>
      </trkpt>
      <trkpt lat="43.75839" lon="7.14251">
        <ele>672.79998779297</ele>
        <time>2021-02-25T12:54:59.000Z</time>
      </trkpt>
      <trkpt lat="43.75833" lon="7.14261">
        <ele>671.20001220703</ele>
        <time>2021-02-25T12:55:01.000Z</time>
      </trkpt>
      <trkpt lat="43.7583" lon="7.14263">
        <ele>671</ele>
        <time>2021-02-25T12:55:02.000Z</time>
      </trkpt>
      <trkpt lat="43.75827" lon="7.14265">
        <ele>669.79998779297</ele>
        <time>2021-02-25T12:55:03.000Z</time>
      </trkpt>
      <trkpt lat="43.75825" lon="7.14265">
        <ele>669</ele>
        <time>2021-02-25T12:55:04.000Z</time>
      </trkpt>
      <trkpt lat="43.75823" lon="7.14266">
        <ele>668.20001220703</ele>
        <time>2021-02-25T12:55:05.000Z</time>
      </trkpt>
      <trkpt lat="43.75823" lon="7.14266">
        <ele>666.59997558594</ele>
        <time>2021-02-25T12:55:07.000Z</time>
      </trkpt>
      <trkpt lat="43.75823" lon="7.14267">
        <ele>666</ele>
        <time>2021-02-25T12:55:08.000Z</time>
      </trkpt>
      <trkpt lat="43.75825" lon="7.14268">
        <ele>665.40002441406</ele>
        <time>2021-02-25T12:55:10.000Z</time>
      </trkpt>
      <trkpt lat="43.75827" lon="7.1427">
        <ele>665</ele>
        <time>2021-02-25T12:55:12.000Z</time>
      </trkpt>
      <trkpt lat="43.75826" lon="7.14273">
        <ele>665</ele>
        <time>2021-02-25T12:55:13.000Z</time>
      </trkpt>
      <trkpt lat="43.75821" lon="7.14274">
        <ele>664.40002441406</ele>
        <time>2021-02-25T12:55:15.000Z</time>
      </trkpt>
      <trkpt lat="43.75817" lon="7.14275">
        <ele>664</ele>
        <time>2021-02-25T12:55:16.000Z</time>
      </trkpt>
      <trkpt lat="43.75812" lon="7.14279">
        <ele>662.59997558594</ele>
        <time>2021-02-25T12:55:19.000Z</time>
      </trkpt>
      <trkpt lat="43.75804" lon="7.14284">
        <ele>661.59997558594</ele>
        <time>2021-02-25T12:55:22.000Z</time>
      </trkpt>
      <trkpt lat="43.75799" lon="7.14288">
        <ele>660.20001220703</ele>
        <time>2021-02-25T12:55:24.000Z</time>
      </trkpt>
      <trkpt lat="43.75794" lon="7.14294">
        <ele>659</ele>
        <time>2021-02-25T12:55:26.000Z</time>
      </trkpt>
      <trkpt lat="43.75791" lon="7.14298">
        <ele>657.20001220703</ele>
        <time>2021-02-25T12:55:28.000Z</time>
      </trkpt>
      <trkpt lat="43.7579" lon="7.14302">
        <ele>656.79998779297</ele>
        <time>2021-02-25T12:55:29.000Z</time>
      </trkpt>
      <trkpt lat="43.75788" lon="7.14303">
        <ele>656</ele>
        <time>2021-02-25T12:55:30.000Z</time>
      </trkpt>
      <trkpt lat="43.75784" lon="7.14307">
        <ele>654.79998779297</ele>
        <time>2021-02-25T12:55:32.000Z</time>
      </trkpt>
      <trkpt lat="43.75781" lon="7.14309">
        <ele>654.40002441406</ele>
        <time>2021-02-25T12:55:33.000Z</time>
      </trkpt>
      <trkpt lat="43.75777" lon="7.14311">
        <ele>653.79998779297</ele>
        <time>2021-02-25T12:55:34.000Z</time>
      </trkpt>
      <trkpt lat="43.75771" lon="7.14315">
        <ele>652.20001220703</ele>
        <time>2021-02-25T12:55:36.000Z</time>
      </trkpt>
      <trkpt lat="43.75768" lon="7.14317">
        <ele>651.20001220703</ele>
        <time>2021-02-25T12:55:37.000Z</time>
      </trkpt>
      <trkpt lat="43.75761" lon="7.14318">
        <ele>649.59997558594</ele>
        <time>2021-02-25T12:55:39.000Z</time>
      </trkpt>
      <trkpt lat="43.75754" lon="7.1432">
        <ele>648</ele>
        <time>2021-02-25T12:55:41.000Z</time>
      </trkpt>
      <trkpt lat="43.75747" lon="7.14322">
        <ele>646.59997558594</ele>
        <time>2021-02-25T12:55:43.000Z</time>
      </trkpt>
      <trkpt lat="43.75745" lon="7.14321">
        <ele>645.59997558594</ele>
        <time>2021-02-25T12:55:44.000Z</time>
      </trkpt>
      <trkpt lat="43.75742" lon="7.14321">
        <ele>645</ele>
        <time>2021-02-25T12:55:45.000Z</time>
      </trkpt>
      <trkpt lat="43.75741" lon="7.14323">
        <ele>644</ele>
        <time>2021-02-25T12:55:47.000Z</time>
      </trkpt>
      <trkpt lat="43.75742" lon="7.14324">
        <ele>643.40002441406</ele>
        <time>2021-02-25T12:55:48.000Z</time>
      </trkpt>
      <trkpt lat="43.75749" lon="7.14326">
        <ele>642.79998779297</ele>
        <time>2021-02-25T12:55:51.000Z</time>
      </trkpt>
      <trkpt lat="43.75752" lon="7.14327">
        <ele>642.59997558594</ele>
        <time>2021-02-25T12:55:52.000Z</time>
      </trkpt>
      <trkpt lat="43.75768" lon="7.14328">
        <ele>642</ele>
        <time>2021-02-25T12:55:57.000Z</time>
      </trkpt>
      <trkpt lat="43.75786" lon="7.14326">
        <ele>643.20001220703</ele>
        <time>2021-02-25T12:56:03.000Z</time>
      </trkpt>
      <trkpt lat="43.75792" lon="7.14324">
        <ele>643.79998779297</ele>
        <time>2021-02-25T12:56:05.000Z</time>
      </trkpt>
      <trkpt lat="43.75804" lon="7.14316">
        <ele>645</ele>
        <time>2021-02-25T12:56:10.000Z</time>
      </trkpt>
      <trkpt lat="43.75814" lon="7.1431">
        <ele>646.40002441406</ele>
        <time>2021-02-25T12:56:13.000Z</time>
      </trkpt>
      <trkpt lat="43.75822" lon="7.14308">
        <ele>647.20001220703</ele>
        <time>2021-02-25T12:56:15.000Z</time>
      </trkpt>
      <trkpt lat="43.75825" lon="7.14307">
        <ele>647.40002441406</ele>
        <time>2021-02-25T12:56:16.000Z</time>
      </trkpt>
      <trkpt lat="43.75841" lon="7.14301">
        <ele>648</ele>
        <time>2021-02-25T12:56:21.000Z</time>
      </trkpt>
      <trkpt lat="43.75847" lon="7.143">
        <ele>648.59997558594</ele>
        <time>2021-02-25T12:56:23.000Z</time>
      </trkpt>
      <trkpt lat="43.75862" lon="7.14297">
        <ele>649.59997558594</ele>
        <time>2021-02-25T12:56:27.000Z</time>
      </trkpt>
      <trkpt lat="43.75865" lon="7.14296">
        <ele>649.79998779297</ele>
        <time>2021-02-25T12:56:28.000Z</time>
      </trkpt>
      <trkpt lat="43.75875" lon="7.14294">
        <ele>651</ele>
        <time>2021-02-25T12:56:31.000Z</time>
      </trkpt>
      <trkpt lat="43.75885" lon="7.14292">
        <ele>652</ele>
        <time>2021-02-25T12:56:34.000Z</time>
      </trkpt>
      <trkpt lat="43.75887" lon="7.14293">
        <ele>652.20001220703</ele>
        <time>2021-02-25T12:56:35.000Z</time>
      </trkpt>
      <trkpt lat="43.75902" lon="7.14303">
        <ele>652</ele>
        <time>2021-02-25T12:56:39.000Z</time>
      </trkpt>
      <trkpt lat="43.7591" lon="7.14301">
        <ele>651</ele>
        <time>2021-02-25T12:56:42.000Z</time>
      </trkpt>
      <trkpt lat="43.75913" lon="7.14301">
        <ele>651.20001220703</ele>
        <time>2021-02-25T12:56:43.000Z</time>
      </trkpt>
      <trkpt lat="43.75919" lon="7.14305">
        <ele>652</ele>
        <time>2021-02-25T12:56:46.000Z</time>
      </trkpt>
      <trkpt lat="43.75921" lon="7.14305">
        <ele>652.20001220703</ele>
        <time>2021-02-25T12:56:47.000Z</time>
      </trkpt>
      <trkpt lat="43.75923" lon="7.14307">
        <ele>653.20001220703</ele>
        <time>2021-02-25T12:56:51.000Z</time>
      </trkpt>
      <trkpt lat="43.75924" lon="7.14308">
        <ele>653.20001220703</ele>
        <time>2021-02-25T12:56:52.000Z</time>
      </trkpt>
      <trkpt lat="43.75923" lon="7.14309">
        <ele>653.79998779297</ele>
        <time>2021-02-25T12:57:06.000Z</time>
      </trkpt>
      <trkpt lat="43.75924" lon="7.1431">
        <ele>653.40002441406</ele>
        <time>2021-02-25T12:57:19.000Z</time>
      </trkpt>
      <trkpt lat="43.75927" lon="7.14311">
        <ele>653.40002441406</ele>
        <time>2021-02-25T12:57:21.000Z</time>
      </trkpt>
      <trkpt lat="43.75938" lon="7.14313">
        <ele>653.59997558594</ele>
        <time>2021-02-25T12:57:26.000Z</time>
      </trkpt>
      <trkpt lat="43.75943" lon="7.14314">
        <ele>654.20001220703</ele>
        <time>2021-02-25T12:57:28.000Z</time>
      </trkpt>
      <trkpt lat="43.75951" lon="7.14312">
        <ele>654.59997558594</ele>
        <time>2021-02-25T12:57:31.000Z</time>
      </trkpt>
      <trkpt lat="43.75961" lon="7.14311">
        <ele>655.40002441406</ele>
        <time>2021-02-25T12:57:35.000Z</time>
      </trkpt>
      <trkpt lat="43.75966" lon="7.14311">
        <ele>655.79998779297</ele>
        <time>2021-02-25T12:57:37.000Z</time>
      </trkpt>
      <trkpt lat="43.75971" lon="7.14312">
        <ele>656.59997558594</ele>
        <time>2021-02-25T12:57:39.000Z</time>
      </trkpt>
      <trkpt lat="43.75983" lon="7.14312">
        <ele>657.79998779297</ele>
        <time>2021-02-25T12:57:44.000Z</time>
      </trkpt>
      <trkpt lat="43.75986" lon="7.14313">
        <ele>658.20001220703</ele>
        <time>2021-02-25T12:57:45.000Z</time>
      </trkpt>
      <trkpt lat="43.75995" lon="7.14314">
        <ele>659</ele>
        <time>2021-02-25T12:57:48.000Z</time>
      </trkpt>
      <trkpt lat="43.76005" lon="7.14316">
        <ele>659.59997558594</ele>
        <time>2021-02-25T12:57:52.000Z</time>
      </trkpt>
      <trkpt lat="43.7601" lon="7.14316">
        <ele>660.20001220703</ele>
        <time>2021-02-25T12:57:54.000Z</time>
      </trkpt>
      <trkpt lat="43.76021" lon="7.14318">
        <ele>661.20001220703</ele>
        <time>2021-02-25T12:57:58.000Z</time>
      </trkpt>
      <trkpt lat="43.76038" lon="7.14328">
        <ele>662.20001220703</ele>
        <time>2021-02-25T12:58:05.000Z</time>
      </trkpt>
      <trkpt lat="43.76043" lon="7.14331">
        <ele>662.40002441406</ele>
        <time>2021-02-25T12:58:07.000Z</time>
      </trkpt>
      <trkpt lat="43.76055" lon="7.1434">
        <ele>663.20001220703</ele>
        <time>2021-02-25T12:58:12.000Z</time>
      </trkpt>
      <trkpt lat="43.7606" lon="7.14343">
        <ele>663.40002441406</ele>
        <time>2021-02-25T12:58:14.000Z</time>
      </trkpt>
      <trkpt lat="43.76072" lon="7.14351">
        <ele>664.59997558594</ele>
        <time>2021-02-25T12:58:19.000Z</time>
      </trkpt>
      <trkpt lat="43.76083" lon="7.14359">
        <ele>665.59997558594</ele>
        <time>2021-02-25T12:58:24.000Z</time>
      </trkpt>
      <trkpt lat="43.76088" lon="7.14363">
        <ele>666</ele>
        <time>2021-02-25T12:58:26.000Z</time>
      </trkpt>
      <trkpt lat="43.76095" lon="7.14369">
        <ele>666.59997558594</ele>
        <time>2021-02-25T12:58:29.000Z</time>
      </trkpt>
      <trkpt lat="43.76106" lon="7.14379">
        <ele>667.59997558594</ele>
        <time>2021-02-25T12:58:34.000Z</time>
      </trkpt>
      <trkpt lat="43.76121" lon="7.14386">
        <ele>668.40002441406</ele>
        <time>2021-02-25T12:58:40.000Z</time>
      </trkpt>
      <trkpt lat="43.76129" lon="7.14391">
        <ele>668.59997558594</ele>
        <time>2021-02-25T12:58:43.000Z</time>
      </trkpt>
      <trkpt lat="43.76132" lon="7.14392">
        <ele>668.59997558594</ele>
        <time>2021-02-25T12:58:44.000Z</time>
      </trkpt>
      <trkpt lat="43.76147" lon="7.14407">
        <ele>669.40002441406</ele>
        <time>2021-02-25T12:58:51.000Z</time>
      </trkpt>
      <trkpt lat="43.76149" lon="7.14408">
        <ele>669.79998779297</ele>
        <time>2021-02-25T12:58:52.000Z</time>
      </trkpt>
      <trkpt lat="43.76159" lon="7.14411">
        <ele>670.79998779297</ele>
        <time>2021-02-25T12:58:56.000Z</time>
      </trkpt>
      <trkpt lat="43.76162" lon="7.14412">
        <ele>671.20001220703</ele>
        <time>2021-02-25T12:58:57.000Z</time>
      </trkpt>
      <trkpt lat="43.7618" lon="7.14418">
        <ele>671.79998779297</ele>
        <time>2021-02-25T12:59:03.000Z</time>
      </trkpt>
      <trkpt lat="43.76195" lon="7.1442">
        <ele>672.20001220703</ele>
        <time>2021-02-25T12:59:08.000Z</time>
      </trkpt>
      <trkpt lat="43.76198" lon="7.1442">
        <ele>672.40002441406</ele>
        <time>2021-02-25T12:59:09.000Z</time>
      </trkpt>
      <trkpt lat="43.76214" lon="7.14424">
        <ele>673.40002441406</ele>
        <time>2021-02-25T12:59:14.000Z</time>
      </trkpt>
      <trkpt lat="43.76217" lon="7.14426">
        <ele>673.40002441406</ele>
        <time>2021-02-25T12:59:15.000Z</time>
      </trkpt>
      <trkpt lat="43.76235" lon="7.14434">
        <ele>674.40002441406</ele>
        <time>2021-02-25T12:59:21.000Z</time>
      </trkpt>
      <trkpt lat="43.76238" lon="7.14436">
        <ele>674.59997558594</ele>
        <time>2021-02-25T12:59:22.000Z</time>
      </trkpt>
      <trkpt lat="43.76248" lon="7.14439">
        <ele>675.79998779297</ele>
        <time>2021-02-25T12:59:25.000Z</time>
      </trkpt>
      <trkpt lat="43.7626" lon="7.14441">
        <ele>676.79998779297</ele>
        <time>2021-02-25T12:59:29.000Z</time>
      </trkpt>
      <trkpt lat="43.76287" lon="7.14446">
        <ele>678</ele>
        <time>2021-02-25T12:59:37.000Z</time>
      </trkpt>
      <trkpt lat="43.76293" lon="7.14449">
        <ele>678.20001220703</ele>
        <time>2021-02-25T12:59:39.000Z</time>
      </trkpt>
      <trkpt lat="43.76306" lon="7.14456">
        <ele>679</ele>
        <time>2021-02-25T12:59:44.000Z</time>
      </trkpt>
      <trkpt lat="43.76323" lon="7.14458">
        <ele>680.20001220703</ele>
        <time>2021-02-25T12:59:50.000Z</time>
      </trkpt>
      <trkpt lat="43.76343" lon="7.14458">
        <ele>681.20001220703</ele>
        <time>2021-02-25T12:59:56.000Z</time>
      </trkpt>
      <trkpt lat="43.7635" lon="7.14456">
        <ele>681.20001220703</ele>
        <time>2021-02-25T12:59:58.000Z</time>
      </trkpt>
      <trkpt lat="43.76371" lon="7.1445">
        <ele>681.79998779297</ele>
        <time>2021-02-25T13:00:04.000Z</time>
      </trkpt>
      <trkpt lat="43.76383" lon="7.14454">
        <ele>682.40002441406</ele>
        <time>2021-02-25T13:00:08.000Z</time>
      </trkpt>
      <trkpt lat="43.76386" lon="7.14455">
        <ele>682.59997558594</ele>
        <time>2021-02-25T13:00:09.000Z</time>
      </trkpt>
      <trkpt lat="43.76399" lon="7.14456">
        <ele>683.79998779297</ele>
        <time>2021-02-25T13:00:13.000Z</time>
      </trkpt>
      <trkpt lat="43.76405" lon="7.14455">
        <ele>684.79998779297</ele>
        <time>2021-02-25T13:00:15.000Z</time>
      </trkpt>
      <trkpt lat="43.76415" lon="7.14454">
        <ele>686</ele>
        <time>2021-02-25T13:00:18.000Z</time>
      </trkpt>
      <trkpt lat="43.76431" lon="7.14456">
        <ele>686.79998779297</ele>
        <time>2021-02-25T13:00:23.000Z</time>
      </trkpt>
      <trkpt lat="43.76435" lon="7.14458">
        <ele>687.40002441406</ele>
        <time>2021-02-25T13:00:25.000Z</time>
      </trkpt>
      <trkpt lat="43.76444" lon="7.14462">
        <ele>688.40002441406</ele>
        <time>2021-02-25T13:00:29.000Z</time>
      </trkpt>
      <trkpt lat="43.76447" lon="7.14463">
        <ele>688.59997558594</ele>
        <time>2021-02-25T13:00:30.000Z</time>
      </trkpt>
      <trkpt lat="43.76457" lon="7.14465">
        <ele>689.40002441406</ele>
        <time>2021-02-25T13:00:34.000Z</time>
      </trkpt>
      <trkpt lat="43.76464" lon="7.14465">
        <ele>690.20001220703</ele>
        <time>2021-02-25T13:00:37.000Z</time>
      </trkpt>
      <trkpt lat="43.76467" lon="7.14465">
        <ele>690.59997558594</ele>
        <time>2021-02-25T13:00:38.000Z</time>
      </trkpt>
      <trkpt lat="43.7648" lon="7.14464">
        <ele>691.59997558594</ele>
        <time>2021-02-25T13:00:43.000Z</time>
      </trkpt>
      <trkpt lat="43.76487" lon="7.14463">
        <ele>692.59997558594</ele>
        <time>2021-02-25T13:00:46.000Z</time>
      </trkpt>
      <trkpt lat="43.76495" lon="7.14461">
        <ele>693.79998779297</ele>
        <time>2021-02-25T13:00:49.000Z</time>
      </trkpt>
      <trkpt lat="43.76502" lon="7.14459">
        <ele>694.79998779297</ele>
        <time>2021-02-25T13:00:51.000Z</time>
      </trkpt>
      <trkpt lat="43.76505" lon="7.14458">
        <ele>695</ele>
        <time>2021-02-25T13:00:52.000Z</time>
      </trkpt>
      <trkpt lat="43.76512" lon="7.14456">
        <ele>695.79998779297</ele>
        <time>2021-02-25T13:00:54.000Z</time>
      </trkpt>
      <trkpt lat="43.76521" lon="7.14453">
        <ele>697.20001220703</ele>
        <time>2021-02-25T13:00:57.000Z</time>
      </trkpt>
      <trkpt lat="43.76524" lon="7.14452">
        <ele>697.59997558594</ele>
        <time>2021-02-25T13:00:58.000Z</time>
      </trkpt>
      <trkpt lat="43.7653" lon="7.14449">
        <ele>698.40002441406</ele>
        <time>2021-02-25T13:01:00.000Z</time>
      </trkpt>
      <trkpt lat="43.76536" lon="7.14447">
        <ele>699.59997558594</ele>
        <time>2021-02-25T13:01:02.000Z</time>
      </trkpt>
      <trkpt lat="43.76545" lon="7.14443">
        <ele>701</ele>
        <time>2021-02-25T13:01:05.000Z</time>
      </trkpt>
      <trkpt lat="43.76565" lon="7.14444">
        <ele>702.40002441406</ele>
        <time>2021-02-25T13:01:11.000Z</time>
      </trkpt>
      <trkpt lat="43.76576" lon="7.14443">
        <ele>703.40002441406</ele>
        <time>2021-02-25T13:01:14.000Z</time>
      </trkpt>
      <trkpt lat="43.76589" lon="7.14442">
        <ele>704.40002441406</ele>
        <time>2021-02-25T13:01:18.000Z</time>
      </trkpt>
      <trkpt lat="43.76592" lon="7.14441">
        <ele>704.59997558594</ele>
        <time>2021-02-25T13:01:19.000Z</time>
      </trkpt>
      <trkpt lat="43.76605" lon="7.14438">
        <ele>706</ele>
        <time>2021-02-25T13:01:23.000Z</time>
      </trkpt>
      <trkpt lat="43.7661" lon="7.14437">
        <ele>706.59997558594</ele>
        <time>2021-02-25T13:01:25.000Z</time>
      </trkpt>
      <trkpt lat="43.76612" lon="7.14437">
        <ele>707</ele>
        <time>2021-02-25T13:01:26.000Z</time>
      </trkpt>
      <trkpt lat="43.76623" lon="7.14439">
        <ele>708</ele>
        <time>2021-02-25T13:01:30.000Z</time>
      </trkpt>
      <trkpt lat="43.76629" lon="7.14439">
        <ele>708.59997558594</ele>
        <time>2021-02-25T13:01:32.000Z</time>
      </trkpt>
      <trkpt lat="43.76636" lon="7.14438">
        <ele>709.20001220703</ele>
        <time>2021-02-25T13:01:35.000Z</time>
      </trkpt>
      <trkpt lat="43.76645" lon="7.14438">
        <ele>710</ele>
        <time>2021-02-25T13:01:38.000Z</time>
      </trkpt>
      <trkpt lat="43.76647" lon="7.14439">
        <ele>710.20001220703</ele>
        <time>2021-02-25T13:01:39.000Z</time>
      </trkpt>
      <trkpt lat="43.76658" lon="7.14441">
        <ele>711.40002441406</ele>
        <time>2021-02-25T13:01:43.000Z</time>
      </trkpt>
      <trkpt lat="43.76664" lon="7.14441">
        <ele>712.20001220703</ele>
        <time>2021-02-25T13:01:45.000Z</time>
      </trkpt>
      <trkpt lat="43.76666" lon="7.14442">
        <ele>712.79998779297</ele>
        <time>2021-02-25T13:01:46.000Z</time>
      </trkpt>
      <trkpt lat="43.76673" lon="7.14443">
        <ele>714</ele>
        <time>2021-02-25T13:01:49.000Z</time>
      </trkpt>
      <trkpt lat="43.76678" lon="7.14443">
        <ele>714.40002441406</ele>
        <time>2021-02-25T13:01:51.000Z</time>
      </trkpt>
      <trkpt lat="43.76682" lon="7.14445">
        <ele>715.20001220703</ele>
        <time>2021-02-25T13:01:53.000Z</time>
      </trkpt>
      <trkpt lat="43.76688" lon="7.14447">
        <ele>716.20001220703</ele>
        <time>2021-02-25T13:01:56.000Z</time>
      </trkpt>
      <trkpt lat="43.76691" lon="7.14448">
        <ele>716.59997558594</ele>
        <time>2021-02-25T13:01:57.000Z</time>
      </trkpt>
      <trkpt lat="43.76695" lon="7.14449">
        <ele>717.20001220703</ele>
        <time>2021-02-25T13:01:59.000Z</time>
      </trkpt>
      <trkpt lat="43.76704" lon="7.14452">
        <ele>718.20001220703</ele>
        <time>2021-02-25T13:02:03.000Z</time>
      </trkpt>
      <trkpt lat="43.76706" lon="7.14453">
        <ele>718.59997558594</ele>
        <time>2021-02-25T13:02:04.000Z</time>
      </trkpt>
      <trkpt lat="43.76709" lon="7.14453">
        <ele>719.59997558594</ele>
        <time>2021-02-25T13:02:06.000Z</time>
      </trkpt>
      <trkpt lat="43.76715" lon="7.14456">
        <ele>720.59997558594</ele>
        <time>2021-02-25T13:02:09.000Z</time>
      </trkpt>
      <trkpt lat="43.7672" lon="7.14458">
        <ele>721.59997558594</ele>
        <time>2021-02-25T13:02:12.000Z</time>
      </trkpt>
      <trkpt lat="43.76726" lon="7.1446">
        <ele>722.59997558594</ele>
        <time>2021-02-25T13:02:15.000Z</time>
      </trkpt>
      <trkpt lat="43.76728" lon="7.14461">
        <ele>722.59997558594</ele>
        <time>2021-02-25T13:02:16.000Z</time>
      </trkpt>
      <trkpt lat="43.76739" lon="7.14467">
        <ele>723.79998779297</ele>
        <time>2021-02-25T13:02:21.000Z</time>
      </trkpt>
      <trkpt lat="43.7674" lon="7.14468">
        <ele>723.79998779297</ele>
        <time>2021-02-25T13:02:22.000Z</time>
      </trkpt>
      <trkpt lat="43.7675" lon="7.14472">
        <ele>725</ele>
        <time>2021-02-25T13:02:28.000Z</time>
      </trkpt>
      <trkpt lat="43.76752" lon="7.1447">
        <ele>725.40002441406</ele>
        <time>2021-02-25T13:02:29.000Z</time>
      </trkpt>
      <trkpt lat="43.76762" lon="7.14463">
        <ele>725.59997558594</ele>
        <time>2021-02-25T13:02:34.000Z</time>
      </trkpt>
      <trkpt lat="43.76765" lon="7.14463">
        <ele>726</ele>
        <time>2021-02-25T13:02:35.000Z</time>
      </trkpt>
      <trkpt lat="43.7677" lon="7.14466">
        <ele>727.20001220703</ele>
        <time>2021-02-25T13:02:37.000Z</time>
      </trkpt>
      <trkpt lat="43.76774" lon="7.14469">
        <ele>728.40002441406</ele>
        <time>2021-02-25T13:02:39.000Z</time>
      </trkpt>
      <trkpt lat="43.76789" lon="7.14476">
        <ele>729</ele>
        <time>2021-02-25T13:02:45.000Z</time>
      </trkpt>
      <trkpt lat="43.76794" lon="7.14477">
        <ele>729.79998779297</ele>
        <time>2021-02-25T13:02:47.000Z</time>
      </trkpt>
      <trkpt lat="43.76801" lon="7.1448">
        <ele>730.79998779297</ele>
        <time>2021-02-25T13:02:50.000Z</time>
      </trkpt>
      <trkpt lat="43.76806" lon="7.14481">
        <ele>731.79998779297</ele>
        <time>2021-02-25T13:02:52.000Z</time>
      </trkpt>
      <trkpt lat="43.76817" lon="7.14482">
        <ele>733</ele>
        <time>2021-02-25T13:02:57.000Z</time>
      </trkpt>
      <trkpt lat="43.76824" lon="7.14482">
        <ele>734.40002441406</ele>
        <time>2021-02-25T13:03:00.000Z</time>
      </trkpt>
      <trkpt lat="43.76828" lon="7.14482">
        <ele>734.79998779297</ele>
        <time>2021-02-25T13:03:02.000Z</time>
      </trkpt>
      <trkpt lat="43.76833" lon="7.14483">
        <ele>735.79998779297</ele>
        <time>2021-02-25T13:03:04.000Z</time>
      </trkpt>
      <trkpt lat="43.76841" lon="7.14484">
        <ele>737</ele>
        <time>2021-02-25T13:03:07.000Z</time>
      </trkpt>
      <trkpt lat="43.76846" lon="7.14484">
        <ele>737.40002441406</ele>
        <time>2021-02-25T13:03:09.000Z</time>
      </trkpt>
      <trkpt lat="43.76856" lon="7.14485">
        <ele>738.20001220703</ele>
        <time>2021-02-25T13:03:13.000Z</time>
      </trkpt>
      <trkpt lat="43.76863" lon="7.14487">
        <ele>739.40002441406</ele>
        <time>2021-02-25T13:03:16.000Z</time>
      </trkpt>
      <trkpt lat="43.76872" lon="7.14488">
        <ele>740.59997558594</ele>
        <time>2021-02-25T13:03:20.000Z</time>
      </trkpt>
      <trkpt lat="43.76876" lon="7.14489">
        <ele>741</ele>
        <time>2021-02-25T13:03:22.000Z</time>
      </trkpt>
      <trkpt lat="43.76882" lon="7.14489">
        <ele>741.59997558594</ele>
        <time>2021-02-25T13:03:24.000Z</time>
      </trkpt>
      <trkpt lat="43.76897" lon="7.14489">
        <ele>742.20001220703</ele>
        <time>2021-02-25T13:03:30.000Z</time>
      </trkpt>
      <trkpt lat="43.76906" lon="7.14489">
        <ele>743</ele>
        <time>2021-02-25T13:03:33.000Z</time>
      </trkpt>
      <trkpt lat="43.76918" lon="7.14486">
        <ele>743.79998779297</ele>
        <time>2021-02-25T13:03:37.000Z</time>
      </trkpt>
      <trkpt lat="43.76921" lon="7.14485">
        <ele>744.20001220703</ele>
        <time>2021-02-25T13:03:38.000Z</time>
      </trkpt>
      <trkpt lat="43.76934" lon="7.14482">
        <ele>745.40002441406</ele>
        <time>2021-02-25T13:03:43.000Z</time>
      </trkpt>
      <trkpt lat="43.76939" lon="7.14481">
        <ele>745.79998779297</ele>
        <time>2021-02-25T13:03:45.000Z</time>
      </trkpt>
      <trkpt lat="43.76947" lon="7.14479">
        <ele>746.40002441406</ele>
        <time>2021-02-25T13:03:48.000Z</time>
      </trkpt>
      <trkpt lat="43.76955" lon="7.14477">
        <ele>747.40002441406</ele>
        <time>2021-02-25T13:03:51.000Z</time>
      </trkpt>
      <trkpt lat="43.76958" lon="7.14477">
        <ele>747.79998779297</ele>
        <time>2021-02-25T13:03:52.000Z</time>
      </trkpt>
      <trkpt lat="43.76967" lon="7.14476">
        <ele>748.79998779297</ele>
        <time>2021-02-25T13:03:55.000Z</time>
      </trkpt>
      <trkpt lat="43.76979" lon="7.14475">
        <ele>749.20001220703</ele>
        <time>2021-02-25T13:03:59.000Z</time>
      </trkpt>
      <trkpt lat="43.76992" lon="7.14471">
        <ele>749.79998779297</ele>
        <time>2021-02-25T13:04:04.000Z</time>
      </trkpt>
      <trkpt lat="43.76996" lon="7.14469">
        <ele>750.20001220703</ele>
        <time>2021-02-25T13:04:06.000Z</time>
      </trkpt>
      <trkpt lat="43.77006" lon="7.14466">
        <ele>751</ele>
        <time>2021-02-25T13:04:10.000Z</time>
      </trkpt>
      <trkpt lat="43.77012" lon="7.14464">
        <ele>752</ele>
        <time>2021-02-25T13:04:14.000Z</time>
      </trkpt>
      <trkpt lat="43.77012" lon="7.14464">
        <ele>752.20001220703</ele>
        <time>2021-02-25T13:04:15.000Z</time>
      </trkpt>
      <trkpt lat="43.77012" lon="7.14465">
        <ele>752.59997558594</ele>
        <time>2021-02-25T13:04:28.000Z</time>
      </trkpt>
      <trkpt lat="43.77012" lon="7.14465">
        <ele>752.40002441406</ele>
        <time>2021-02-25T13:04:32.000Z</time>
      </trkpt>
      <trkpt lat="43.77013" lon="7.14464">
        <ele>752.59997558594</ele>
        <time>2021-02-25T13:04:38.000Z</time>
      </trkpt>
      <trkpt lat="43.77013" lon="7.14464">
        <ele>753</ele>
        <time>2021-02-25T13:04:46.000Z</time>
      </trkpt>
      <trkpt lat="43.77013" lon="7.14464">
        <ele>752.79998779297</ele>
        <time>2021-02-25T13:04:51.000Z</time>
      </trkpt>
      <trkpt lat="43.77014" lon="7.14464">
        <ele>752.79998779297</ele>
        <time>2021-02-25T13:04:56.000Z</time>
      </trkpt>
      <trkpt lat="43.77015" lon="7.14463">
        <ele>753.40002441406</ele>
        <time>2021-02-25T13:05:04.000Z</time>
      </trkpt>
      <trkpt lat="43.77014" lon="7.14462">
        <ele>752.79998779297</ele>
        <time>2021-02-25T13:05:08.000Z</time>
      </trkpt>
      <trkpt lat="43.77014" lon="7.14461">
        <ele>753</ele>
        <time>2021-02-25T13:05:18.000Z</time>
      </trkpt>
      <trkpt lat="43.77014" lon="7.1446">
        <ele>752.59997558594</ele>
        <time>2021-02-25T13:05:25.000Z</time>
      </trkpt>
      <trkpt lat="43.77014" lon="7.14459">
        <ele>752.20001220703</ele>
        <time>2021-02-25T13:05:46.000Z</time>
      </trkpt>
      <trkpt lat="43.77014" lon="7.14459">
        <ele>752.20001220703</ele>
        <time>2021-02-25T13:05:53.000Z</time>
      </trkpt>
      <trkpt lat="43.77015" lon="7.14459">
        <ele>752</ele>
        <time>2021-02-25T13:06:02.000Z</time>
      </trkpt>
      <trkpt lat="43.77015" lon="7.14458">
        <ele>752</ele>
        <time>2021-02-25T13:06:05.000Z</time>
      </trkpt>
      <trkpt lat="43.77015" lon="7.14458">
        <ele>752</ele>
        <time>2021-02-25T13:06:44.000Z</time>
      </trkpt>
      <trkpt lat="43.77016" lon="7.14458">
        <ele>752</ele>
        <time>2021-02-25T13:07:24.000Z</time>
      </trkpt>
      <trkpt lat="43.77016" lon="7.14459">
        <ele>752</ele>
        <time>2021-02-25T13:08:01.000Z</time>
      </trkpt>
      <trkpt lat="43.77015" lon="7.1446">
        <ele>752</ele>
        <time>2021-02-25T13:08:31.000Z</time>
      </trkpt>
      <trkpt lat="43.77016" lon="7.1446">
        <ele>752</ele>
        <time>2021-02-25T13:08:58.000Z</time>
      </trkpt>
      <trkpt lat="43.77016" lon="7.14459">
        <ele>752</ele>
        <time>2021-02-25T13:09:28.000Z</time>
      </trkpt>
      <trkpt lat="43.77016" lon="7.14459">
        <ele>752</ele>
        <time>2021-02-25T13:09:53.000Z</time>
      </trkpt>
      <trkpt lat="43.77017" lon="7.14458">
        <ele>752</ele>
        <time>2021-02-25T13:10:25.000Z</time>
      </trkpt>
      <trkpt lat="43.77017" lon="7.14459">
        <ele>752.20001220703</ele>
        <time>2021-02-25T13:10:46.000Z</time>
      </trkpt>
      <trkpt lat="43.77017" lon="7.14458">
        <ele>752.40002441406</ele>
        <time>2021-02-25T13:10:55.000Z</time>
      </trkpt>
      <trkpt lat="43.77017" lon="7.14459">
        <ele>752</ele>
        <time>2021-02-25T13:11:17.000Z</time>
      </trkpt>
      <trkpt lat="43.77017" lon="7.1446">
        <ele>752</ele>
        <time>2021-02-25T13:11:23.000Z</time>
      </trkpt>
      <trkpt lat="43.77016" lon="7.14461">
        <ele>752.20001220703</ele>
        <time>2021-02-25T13:11:32.000Z</time>
      </trkpt>
      <trkpt lat="43.77016" lon="7.1446">
        <ele>752.40002441406</ele>
        <time>2021-02-25T13:11:36.000Z</time>
      </trkpt>
      <trkpt lat="43.77016" lon="7.1446">
        <ele>752.20001220703</ele>
        <time>2021-02-25T13:11:38.000Z</time>
      </trkpt>
      <trkpt lat="43.77017" lon="7.14459">
        <ele>752.79998779297</ele>
        <time>2021-02-25T13:11:47.000Z</time>
      </trkpt>
      <trkpt lat="43.77016" lon="7.14459">
        <ele>752.79998779297</ele>
        <time>2021-02-25T13:11:52.000Z</time>
      </trkpt>
      <trkpt lat="43.77016" lon="7.1446">
        <ele>752.40002441406</ele>
        <time>2021-02-25T13:12:01.000Z</time>
      </trkpt>
      <trkpt lat="43.77015" lon="7.14461">
        <ele>752.40002441406</ele>
        <time>2021-02-25T13:12:07.000Z</time>
      </trkpt>
      <trkpt lat="43.77015" lon="7.14462">
        <ele>752.79998779297</ele>
        <time>2021-02-25T13:12:21.000Z</time>
      </trkpt>
      <trkpt lat="43.77015" lon="7.14463">
        <ele>752.59997558594</ele>
        <time>2021-02-25T13:12:30.000Z</time>
      </trkpt>
      <trkpt lat="43.77015" lon="7.14463">
        <ele>752.79998779297</ele>
        <time>2021-02-25T13:12:58.000Z</time>
      </trkpt>
      <trkpt lat="43.77015" lon="7.14463">
        <ele>752.79998779297</ele>
        <time>2021-02-25T13:13:25.000Z</time>
      </trkpt>
      <trkpt lat="43.77015" lon="7.14466">
        <ele>752.79998779297</ele>
        <time>2021-02-25T13:13:38.000Z</time>
      </trkpt>
      <trkpt lat="43.77014" lon="7.14467">
        <ele>752.79998779297</ele>
        <time>2021-02-25T13:13:44.000Z</time>
      </trkpt>
      <trkpt lat="43.77014" lon="7.14468">
        <ele>752.20001220703</ele>
        <time>2021-02-25T13:13:57.000Z</time>
      </trkpt>
      <trkpt lat="43.77013" lon="7.14472">
        <ele>752</ele>
        <time>2021-02-25T13:14:05.000Z</time>
      </trkpt>
      <trkpt lat="43.7701" lon="7.14487">
        <ele>752</ele>
        <time>2021-02-25T13:14:11.000Z</time>
      </trkpt>
      <trkpt lat="43.77008" lon="7.14488">
        <ele>752.20001220703</ele>
        <time>2021-02-25T13:14:12.000Z</time>
      </trkpt>
      <trkpt lat="43.77002" lon="7.14494">
        <ele>753</ele>
        <time>2021-02-25T13:14:16.000Z</time>
      </trkpt>
      <trkpt lat="43.77002" lon="7.14494">
        <ele>753</ele>
        <time>2021-02-25T13:14:17.000Z</time>
      </trkpt>
      <trkpt lat="43.77002" lon="7.14496">
        <ele>753</ele>
        <time>2021-02-25T13:14:18.000Z</time>
      </trkpt>
      <trkpt lat="43.77001" lon="7.14498">
        <ele>753.40002441406</ele>
        <time>2021-02-25T13:14:20.000Z</time>
      </trkpt>
      <trkpt lat="43.76997" lon="7.14499">
        <ele>754</ele>
        <time>2021-02-25T13:14:24.000Z</time>
      </trkpt>
      <trkpt lat="43.76997" lon="7.145">
        <ele>754.20001220703</ele>
        <time>2021-02-25T13:14:25.000Z</time>
      </trkpt>
      <trkpt lat="43.76997" lon="7.14499">
        <ele>754.20001220703</ele>
        <time>2021-02-25T13:14:31.000Z</time>
      </trkpt>
      <trkpt lat="43.76995" lon="7.14498">
        <ele>754.40002441406</ele>
        <time>2021-02-25T13:14:36.000Z</time>
      </trkpt>
      <trkpt lat="43.76995" lon="7.14498">
        <ele>754.59997558594</ele>
        <time>2021-02-25T13:14:52.000Z</time>
      </trkpt>
      <trkpt lat="43.76996" lon="7.14498">
        <ele>754.59997558594</ele>
        <time>2021-02-25T13:15:09.000Z</time>
      </trkpt>
      <trkpt lat="43.76998" lon="7.14502">
        <ele>754.59997558594</ele>
        <time>2021-02-25T13:15:18.000Z</time>
      </trkpt>
      <trkpt lat="43.76998" lon="7.14502">
        <ele>755</ele>
        <time>2021-02-25T13:15:23.000Z</time>
      </trkpt>
      <trkpt lat="43.76998" lon="7.14503">
        <ele>755.20001220703</ele>
        <time>2021-02-25T13:15:24.000Z</time>
      </trkpt>
      <trkpt lat="43.76997" lon="7.14508">
        <ele>755.59997558594</ele>
        <time>2021-02-25T13:15:31.000Z</time>
      </trkpt>
      <trkpt lat="43.76995" lon="7.14515">
        <ele>756.20001220703</ele>
        <time>2021-02-25T13:15:35.000Z</time>
      </trkpt>
      <trkpt lat="43.76995" lon="7.14516">
        <ele>756.59997558594</ele>
        <time>2021-02-25T13:15:36.000Z</time>
      </trkpt>
      <trkpt lat="43.76994" lon="7.14517">
        <ele>757</ele>
        <time>2021-02-25T13:15:37.000Z</time>
      </trkpt>
      <trkpt lat="43.76992" lon="7.1452">
        <ele>757.79998779297</ele>
        <time>2021-02-25T13:15:39.000Z</time>
      </trkpt>
      <trkpt lat="43.7699" lon="7.14527">
        <ele>758.79998779297</ele>
        <time>2021-02-25T13:15:42.000Z</time>
      </trkpt>
      <trkpt lat="43.76988" lon="7.14532">
        <ele>759.59997558594</ele>
        <time>2021-02-25T13:15:44.000Z</time>
      </trkpt>
      <trkpt lat="43.76986" lon="7.14533">
        <ele>759.79998779297</ele>
        <time>2021-02-25T13:15:45.000Z</time>
      </trkpt>
      <trkpt lat="43.76979" lon="7.14536">
        <ele>761</ele>
        <time>2021-02-25T13:15:49.000Z</time>
      </trkpt>
      <trkpt lat="43.76968" lon="7.14544">
        <ele>762.20001220703</ele>
        <time>2021-02-25T13:15:55.000Z</time>
      </trkpt>
      <trkpt lat="43.76959" lon="7.14553">
        <ele>762.40002441406</ele>
        <time>2021-02-25T13:16:00.000Z</time>
      </trkpt>
      <trkpt lat="43.76953" lon="7.14564">
        <ele>763.59997558594</ele>
        <time>2021-02-25T13:16:05.000Z</time>
      </trkpt>
      <trkpt lat="43.76946" lon="7.14569">
        <ele>764.59997558594</ele>
        <time>2021-02-25T13:16:09.000Z</time>
      </trkpt>
      <trkpt lat="43.76942" lon="7.14572">
        <ele>765.20001220703</ele>
        <time>2021-02-25T13:16:11.000Z</time>
      </trkpt>
      <trkpt lat="43.76939" lon="7.14575">
        <ele>766</ele>
        <time>2021-02-25T13:16:13.000Z</time>
      </trkpt>
      <trkpt lat="43.76933" lon="7.14577">
        <ele>767.59997558594</ele>
        <time>2021-02-25T13:16:16.000Z</time>
      </trkpt>
      <trkpt lat="43.76929" lon="7.14579">
        <ele>768</ele>
        <time>2021-02-25T13:16:18.000Z</time>
      </trkpt>
      <trkpt lat="43.76919" lon="7.14585">
        <ele>768.59997558594</ele>
        <time>2021-02-25T13:16:23.000Z</time>
      </trkpt>
      <trkpt lat="43.76917" lon="7.14587">
        <ele>768.79998779297</ele>
        <time>2021-02-25T13:16:24.000Z</time>
      </trkpt>
      <trkpt lat="43.7691" lon="7.14595">
        <ele>769.79998779297</ele>
        <time>2021-02-25T13:16:28.000Z</time>
      </trkpt>
      <trkpt lat="43.76905" lon="7.14602">
        <ele>771.20001220703</ele>
        <time>2021-02-25T13:16:31.000Z</time>
      </trkpt>
      <trkpt lat="43.769" lon="7.14606">
        <ele>772.59997558594</ele>
        <time>2021-02-25T13:16:34.000Z</time>
      </trkpt>
      <trkpt lat="43.76897" lon="7.1461">
        <ele>773.40002441406</ele>
        <time>2021-02-25T13:16:36.000Z</time>
      </trkpt>
      <trkpt lat="43.76895" lon="7.14611">
        <ele>773.79998779297</ele>
        <time>2021-02-25T13:16:37.000Z</time>
      </trkpt>
      <trkpt lat="43.76891" lon="7.14617">
        <ele>775.20001220703</ele>
        <time>2021-02-25T13:16:40.000Z</time>
      </trkpt>
      <trkpt lat="43.76886" lon="7.14621">
        <ele>776.40002441406</ele>
        <time>2021-02-25T13:16:43.000Z</time>
      </trkpt>
      <trkpt lat="43.76878" lon="7.1463">
        <ele>777.59997558594</ele>
        <time>2021-02-25T13:16:48.000Z</time>
      </trkpt>
      <trkpt lat="43.76875" lon="7.14634">
        <ele>778.20001220703</ele>
        <time>2021-02-25T13:16:50.000Z</time>
      </trkpt>
      <trkpt lat="43.76872" lon="7.14636">
        <ele>779</ele>
        <time>2021-02-25T13:16:52.000Z</time>
      </trkpt>
      <trkpt lat="43.76871" lon="7.14639">
        <ele>779.40002441406</ele>
        <time>2021-02-25T13:16:53.000Z</time>
      </trkpt>
      <trkpt lat="43.76868" lon="7.14643">
        <ele>780.20001220703</ele>
        <time>2021-02-25T13:16:55.000Z</time>
      </trkpt>
      <trkpt lat="43.76864" lon="7.14649">
        <ele>781.20001220703</ele>
        <time>2021-02-25T13:16:58.000Z</time>
      </trkpt>
      <trkpt lat="43.76855" lon="7.14657">
        <ele>782.40002441406</ele>
        <time>2021-02-25T13:17:03.000Z</time>
      </trkpt>
      <trkpt lat="43.76852" lon="7.14658">
        <ele>782.59997558594</ele>
        <time>2021-02-25T13:17:04.000Z</time>
      </trkpt>
      <trkpt lat="43.76849" lon="7.14662">
        <ele>783.40002441406</ele>
        <time>2021-02-25T13:17:06.000Z</time>
      </trkpt>
      <trkpt lat="43.76844" lon="7.14671">
        <ele>784.40002441406</ele>
        <time>2021-02-25T13:17:10.000Z</time>
      </trkpt>
      <trkpt lat="43.76842" lon="7.14673">
        <ele>784.79998779297</ele>
        <time>2021-02-25T13:17:11.000Z</time>
      </trkpt>
      <trkpt lat="43.76839" lon="7.14677">
        <ele>785.59997558594</ele>
        <time>2021-02-25T13:17:13.000Z</time>
      </trkpt>
      <trkpt lat="43.7683" lon="7.14687">
        <ele>786.59997558594</ele>
        <time>2021-02-25T13:17:18.000Z</time>
      </trkpt>
      <trkpt lat="43.76826" lon="7.14689">
        <ele>787.20001220703</ele>
        <time>2021-02-25T13:17:20.000Z</time>
      </trkpt>
      <trkpt lat="43.76822" lon="7.14689">
        <ele>788.20001220703</ele>
        <time>2021-02-25T13:17:22.000Z</time>
      </trkpt>
      <trkpt lat="43.76819" lon="7.14687">
        <ele>789.40002441406</ele>
        <time>2021-02-25T13:17:25.000Z</time>
      </trkpt>
      <trkpt lat="43.76819" lon="7.14687">
        <ele>790.40002441406</ele>
        <time>2021-02-25T13:17:29.000Z</time>
      </trkpt>
      <trkpt lat="43.76818" lon="7.14687">
        <ele>790.20001220703</ele>
        <time>2021-02-25T13:17:56.000Z</time>
      </trkpt>
      <trkpt lat="43.76818" lon="7.14687">
        <ele>790.20001220703</ele>
        <time>2021-02-25T13:18:10.000Z</time>
      </trkpt>
      <trkpt lat="43.76813" lon="7.14683">
        <ele>789.79998779297</ele>
        <time>2021-02-25T13:18:16.000Z</time>
      </trkpt>
      <trkpt lat="43.76802" lon="7.14681">
        <ele>790</ele>
        <time>2021-02-25T13:18:22.000Z</time>
      </trkpt>
      <trkpt lat="43.76793" lon="7.14678">
        <ele>791.40002441406</ele>
        <time>2021-02-25T13:18:26.000Z</time>
      </trkpt>
      <trkpt lat="43.76789" lon="7.14678">
        <ele>791.79998779297</ele>
        <time>2021-02-25T13:18:28.000Z</time>
      </trkpt>
      <trkpt lat="43.76781" lon="7.14676">
        <ele>792.79998779297</ele>
        <time>2021-02-25T13:18:31.000Z</time>
      </trkpt>
      <trkpt lat="43.76776" lon="7.14674">
        <ele>793.59997558594</ele>
        <time>2021-02-25T13:18:33.000Z</time>
      </trkpt>
      <trkpt lat="43.76773" lon="7.14674">
        <ele>793.79998779297</ele>
        <time>2021-02-25T13:18:34.000Z</time>
      </trkpt>
      <trkpt lat="43.76761" lon="7.14673">
        <ele>795</ele>
        <time>2021-02-25T13:18:39.000Z</time>
      </trkpt>
      <trkpt lat="43.76753" lon="7.14673">
        <ele>796.20001220703</ele>
        <time>2021-02-25T13:18:42.000Z</time>
      </trkpt>
      <trkpt lat="43.76741" lon="7.14675">
        <ele>797.20001220703</ele>
        <time>2021-02-25T13:18:47.000Z</time>
      </trkpt>
      <trkpt lat="43.76736" lon="7.14676">
        <ele>798</ele>
        <time>2021-02-25T13:18:49.000Z</time>
      </trkpt>
      <trkpt lat="43.76731" lon="7.14677">
        <ele>798.59997558594</ele>
        <time>2021-02-25T13:18:51.000Z</time>
      </trkpt>
      <trkpt lat="43.76725" lon="7.1468">
        <ele>799.59997558594</ele>
        <time>2021-02-25T13:18:54.000Z</time>
      </trkpt>
      <trkpt lat="43.76721" lon="7.14683">
        <ele>800.79998779297</ele>
        <time>2021-02-25T13:18:57.000Z</time>
      </trkpt>
      <trkpt lat="43.76715" lon="7.14685">
        <ele>802.40002441406</ele>
        <time>2021-02-25T13:19:00.000Z</time>
      </trkpt>
      <trkpt lat="43.76711" lon="7.14686">
        <ele>803.40002441406</ele>
        <time>2021-02-25T13:19:02.000Z</time>
      </trkpt>
      <trkpt lat="43.76694" lon="7.14689">
        <ele>804.59997558594</ele>
        <time>2021-02-25T13:19:09.000Z</time>
      </trkpt>
      <trkpt lat="43.7669" lon="7.14691">
        <ele>805</ele>
        <time>2021-02-25T13:19:11.000Z</time>
      </trkpt>
      <trkpt lat="43.76684" lon="7.14695">
        <ele>805.79998779297</ele>
        <time>2021-02-25T13:19:14.000Z</time>
      </trkpt>
      <trkpt lat="43.76679" lon="7.14697">
        <ele>806.59997558594</ele>
        <time>2021-02-25T13:19:17.000Z</time>
      </trkpt>
      <trkpt lat="43.76677" lon="7.14697">
        <ele>807</ele>
        <time>2021-02-25T13:19:18.000Z</time>
      </trkpt>
      <trkpt lat="43.76674" lon="7.147">
        <ele>808</ele>
        <time>2021-02-25T13:19:20.000Z</time>
      </trkpt>
      <trkpt lat="43.76672" lon="7.14702">
        <ele>808.59997558594</ele>
        <time>2021-02-25T13:19:22.000Z</time>
      </trkpt>
      <trkpt lat="43.76659" lon="7.14708">
        <ele>809</ele>
        <time>2021-02-25T13:19:29.000Z</time>
      </trkpt>
      <trkpt lat="43.76655" lon="7.14712">
        <ele>809</ele>
        <time>2021-02-25T13:19:31.000Z</time>
      </trkpt>
      <trkpt lat="43.76644" lon="7.14723">
        <ele>809.59997558594</ele>
        <time>2021-02-25T13:19:37.000Z</time>
      </trkpt>
      <trkpt lat="43.76639" lon="7.14727">
        <ele>810.20001220703</ele>
        <time>2021-02-25T13:19:40.000Z</time>
      </trkpt>
      <trkpt lat="43.76631" lon="7.14732">
        <ele>810.79998779297</ele>
        <time>2021-02-25T13:19:44.000Z</time>
      </trkpt>
      <trkpt lat="43.76622" lon="7.14739">
        <ele>810.79998779297</ele>
        <time>2021-02-25T13:19:50.000Z</time>
      </trkpt>
      <trkpt lat="43.76621" lon="7.14741">
        <ele>810.79998779297</ele>
        <time>2021-02-25T13:19:51.000Z</time>
      </trkpt>
      <trkpt lat="43.76618" lon="7.14746">
        <ele>811.20001220703</ele>
        <time>2021-02-25T13:19:53.000Z</time>
      </trkpt>
      <trkpt lat="43.76615" lon="7.1475">
        <ele>812</ele>
        <time>2021-02-25T13:19:55.000Z</time>
      </trkpt>
      <trkpt lat="43.76611" lon="7.14753">
        <ele>812.79998779297</ele>
        <time>2021-02-25T13:19:57.000Z</time>
      </trkpt>
      <trkpt lat="43.76604" lon="7.14761">
        <ele>813.79998779297</ele>
        <time>2021-02-25T13:20:01.000Z</time>
      </trkpt>
      <trkpt lat="43.766" lon="7.14764">
        <ele>814.40002441406</ele>
        <time>2021-02-25T13:20:03.000Z</time>
      </trkpt>
      <trkpt lat="43.7659" lon="7.14763">
        <ele>814.79998779297</ele>
        <time>2021-02-25T13:20:06.000Z</time>
      </trkpt>
      <trkpt lat="43.76586" lon="7.14763">
        <ele>815</ele>
        <time>2021-02-25T13:20:07.000Z</time>
      </trkpt>
      <trkpt lat="43.76582" lon="7.14764">
        <ele>814.79998779297</ele>
        <time>2021-02-25T13:20:08.000Z</time>
      </trkpt>
      <trkpt lat="43.76573" lon="7.14764">
        <ele>813.79998779297</ele>
        <time>2021-02-25T13:20:11.000Z</time>
      </trkpt>
      <trkpt lat="43.76567" lon="7.14765">
        <ele>813.59997558594</ele>
        <time>2021-02-25T13:20:13.000Z</time>
      </trkpt>
      <trkpt lat="43.76553" lon="7.1477">
        <ele>814.59997558594</ele>
        <time>2021-02-25T13:20:18.000Z</time>
      </trkpt>
      <trkpt lat="43.7655" lon="7.14773">
        <ele>814.79998779297</ele>
        <time>2021-02-25T13:20:20.000Z</time>
      </trkpt>
      <trkpt lat="43.76541" lon="7.14782">
        <ele>815.79998779297</ele>
        <time>2021-02-25T13:20:24.000Z</time>
      </trkpt>
      <trkpt lat="43.76538" lon="7.14783">
        <ele>816</ele>
        <time>2021-02-25T13:20:25.000Z</time>
      </trkpt>
      <trkpt lat="43.76532" lon="7.14789">
        <ele>817</ele>
        <time>2021-02-25T13:20:28.000Z</time>
      </trkpt>
      <trkpt lat="43.7653" lon="7.14791">
        <ele>817.40002441406</ele>
        <time>2021-02-25T13:20:29.000Z</time>
      </trkpt>
      <trkpt lat="43.76527" lon="7.14794">
        <ele>818.20001220703</ele>
        <time>2021-02-25T13:20:30.000Z</time>
      </trkpt>
      <trkpt lat="43.76523" lon="7.14799">
        <ele>819.40002441406</ele>
        <time>2021-02-25T13:20:34.000Z</time>
      </trkpt>
      <trkpt lat="43.76524" lon="7.14798">
        <ele>819.59997558594</ele>
        <time>2021-02-25T13:20:35.000Z</time>
      </trkpt>
      <trkpt lat="43.76523" lon="7.14798">
        <ele>819.79998779297</ele>
        <time>2021-02-25T13:20:45.000Z</time>
      </trkpt>
      <trkpt lat="43.76523" lon="7.14798">
        <ele>819.40002441406</ele>
        <time>2021-02-25T13:20:54.000Z</time>
      </trkpt>
      <trkpt lat="43.76522" lon="7.14799">
        <ele>818.59997558594</ele>
        <time>2021-02-25T13:21:18.000Z</time>
      </trkpt>
      <trkpt lat="43.76521" lon="7.148">
        <ele>818.79998779297</ele>
        <time>2021-02-25T13:21:36.000Z</time>
      </trkpt>
      <trkpt lat="43.76521" lon="7.148">
        <ele>818.40002441406</ele>
        <time>2021-02-25T13:21:39.000Z</time>
      </trkpt>
      <trkpt lat="43.76522" lon="7.14799">
        <ele>818.79998779297</ele>
        <time>2021-02-25T13:21:58.000Z</time>
      </trkpt>
      <trkpt lat="43.76517" lon="7.14803">
        <ele>818.40002441406</ele>
        <time>2021-02-25T13:22:12.000Z</time>
      </trkpt>
      <trkpt lat="43.76505" lon="7.14813">
        <ele>818.40002441406</ele>
        <time>2021-02-25T13:22:17.000Z</time>
      </trkpt>
      <trkpt lat="43.76495" lon="7.14825">
        <ele>819.79998779297</ele>
        <time>2021-02-25T13:22:21.000Z</time>
      </trkpt>
      <trkpt lat="43.7649" lon="7.14829">
        <ele>820.59997558594</ele>
        <time>2021-02-25T13:22:23.000Z</time>
      </trkpt>
      <trkpt lat="43.76488" lon="7.14831">
        <ele>821</ele>
        <time>2021-02-25T13:22:24.000Z</time>
      </trkpt>
      <trkpt lat="43.76475" lon="7.14835">
        <ele>821.79998779297</ele>
        <time>2021-02-25T13:22:28.000Z</time>
      </trkpt>
      <trkpt lat="43.76471" lon="7.14841">
        <ele>821.79998779297</ele>
        <time>2021-02-25T13:22:30.000Z</time>
      </trkpt>
      <trkpt lat="43.76469" lon="7.14843">
        <ele>822</ele>
        <time>2021-02-25T13:22:31.000Z</time>
      </trkpt>
      <trkpt lat="43.76466" lon="7.14845">
        <ele>822.40002441406</ele>
        <time>2021-02-25T13:22:32.000Z</time>
      </trkpt>
      <trkpt lat="43.76461" lon="7.14847">
        <ele>823.40002441406</ele>
        <time>2021-02-25T13:22:34.000Z</time>
      </trkpt>
      <trkpt lat="43.76459" lon="7.14853">
        <ele>824.20001220703</ele>
        <time>2021-02-25T13:22:36.000Z</time>
      </trkpt>
      <trkpt lat="43.76457" lon="7.14857">
        <ele>824.59997558594</ele>
        <time>2021-02-25T13:22:37.000Z</time>
      </trkpt>
      <trkpt lat="43.76454" lon="7.14859">
        <ele>824.79998779297</ele>
        <time>2021-02-25T13:22:38.000Z</time>
      </trkpt>
      <trkpt lat="43.76448" lon="7.14864">
        <ele>825.20001220703</ele>
        <time>2021-02-25T13:22:40.000Z</time>
      </trkpt>
      <trkpt lat="43.76438" lon="7.14877">
        <ele>825.20001220703</ele>
        <time>2021-02-25T13:22:44.000Z</time>
      </trkpt>
      <trkpt lat="43.76428" lon="7.14881">
        <ele>825.59997558594</ele>
        <time>2021-02-25T13:22:47.000Z</time>
      </trkpt>
      <trkpt lat="43.76425" lon="7.14884">
        <ele>825.79998779297</ele>
        <time>2021-02-25T13:22:48.000Z</time>
      </trkpt>
      <trkpt lat="43.76413" lon="7.1489">
        <ele>826</ele>
        <time>2021-02-25T13:22:52.000Z</time>
      </trkpt>
      <trkpt lat="43.76401" lon="7.14897">
        <ele>826.40002441406</ele>
        <time>2021-02-25T13:22:57.000Z</time>
      </trkpt>
      <trkpt lat="43.76397" lon="7.14898">
        <ele>826.59997558594</ele>
        <time>2021-02-25T13:22:59.000Z</time>
      </trkpt>
      <trkpt lat="43.76391" lon="7.14897">
        <ele>826.59997558594</ele>
        <time>2021-02-25T13:23:01.000Z</time>
      </trkpt>
      <trkpt lat="43.76388" lon="7.14898">
        <ele>825.79998779297</ele>
        <time>2021-02-25T13:23:05.000Z</time>
      </trkpt>
      <trkpt lat="43.76388" lon="7.14899">
        <ele>826.20001220703</ele>
        <time>2021-02-25T13:23:11.000Z</time>
      </trkpt>
      <trkpt lat="43.76387" lon="7.14899">
        <ele>825.40002441406</ele>
        <time>2021-02-25T13:23:33.000Z</time>
      </trkpt>
      <trkpt lat="43.76386" lon="7.149">
        <ele>825.40002441406</ele>
        <time>2021-02-25T13:23:39.000Z</time>
      </trkpt>
      <trkpt lat="43.76386" lon="7.149">
        <ele>825.40002441406</ele>
        <time>2021-02-25T13:23:48.000Z</time>
      </trkpt>
      <trkpt lat="43.76386" lon="7.149">
        <ele>825.20001220703</ele>
        <time>2021-02-25T13:24:08.000Z</time>
      </trkpt>
      <trkpt lat="43.76387" lon="7.149">
        <ele>825.20001220703</ele>
        <time>2021-02-25T13:24:25.000Z</time>
      </trkpt>
      <trkpt lat="43.76387" lon="7.14901">
        <ele>824.79998779297</ele>
        <time>2021-02-25T13:24:48.000Z</time>
      </trkpt>
      <trkpt lat="43.76387" lon="7.14901">
        <ele>824.59997558594</ele>
        <time>2021-02-25T13:24:50.000Z</time>
      </trkpt>
      <trkpt lat="43.76381" lon="7.14905">
        <ele>824.40002441406</ele>
        <time>2021-02-25T13:24:53.000Z</time>
      </trkpt>
      <trkpt lat="43.76368" lon="7.1491">
        <ele>824.59997558594</ele>
        <time>2021-02-25T13:24:58.000Z</time>
      </trkpt>
      <trkpt lat="43.76353" lon="7.14914">
        <ele>824.59997558594</ele>
        <time>2021-02-25T13:25:05.000Z</time>
      </trkpt>
      <trkpt lat="43.76339" lon="7.14916">
        <ele>824.40002441406</ele>
        <time>2021-02-25T13:25:11.000Z</time>
      </trkpt>
      <trkpt lat="43.76325" lon="7.14923">
        <ele>824</ele>
        <time>2021-02-25T13:25:16.000Z</time>
      </trkpt>
      <trkpt lat="43.76323" lon="7.14926">
        <ele>824</ele>
        <time>2021-02-25T13:25:17.000Z</time>
      </trkpt>
      <trkpt lat="43.76317" lon="7.14927">
        <ele>824</ele>
        <time>2021-02-25T13:25:19.000Z</time>
      </trkpt>
      <trkpt lat="43.76313" lon="7.14919">
        <ele>824.20001220703</ele>
        <time>2021-02-25T13:25:22.000Z</time>
      </trkpt>
      <trkpt lat="43.76312" lon="7.14919">
        <ele>824.40002441406</ele>
        <time>2021-02-25T13:25:23.000Z</time>
      </trkpt>
      <trkpt lat="43.7631" lon="7.14919">
        <ele>824.40002441406</ele>
        <time>2021-02-25T13:25:24.000Z</time>
      </trkpt>
      <trkpt lat="43.76304" lon="7.14922">
        <ele>824.59997558594</ele>
        <time>2021-02-25T13:25:27.000Z</time>
      </trkpt>
      <trkpt lat="43.76299" lon="7.1492">
        <ele>824.59997558594</ele>
        <time>2021-02-25T13:25:30.000Z</time>
      </trkpt>
      <trkpt lat="43.76284" lon="7.14922">
        <ele>825</ele>
        <time>2021-02-25T13:25:35.000Z</time>
      </trkpt>
      <trkpt lat="43.76281" lon="7.14922">
        <ele>825</ele>
        <time>2021-02-25T13:25:36.000Z</time>
      </trkpt>
      <trkpt lat="43.76268" lon="7.14928">
        <ele>826.20001220703</ele>
        <time>2021-02-25T13:25:40.000Z</time>
      </trkpt>
      <trkpt lat="43.76265" lon="7.14927">
        <ele>826.59997558594</ele>
        <time>2021-02-25T13:25:41.000Z</time>
      </trkpt>
      <trkpt lat="43.76262" lon="7.14927">
        <ele>827.20001220703</ele>
        <time>2021-02-25T13:25:42.000Z</time>
      </trkpt>
      <trkpt lat="43.76257" lon="7.14928">
        <ele>828.40002441406</ele>
        <time>2021-02-25T13:25:44.000Z</time>
      </trkpt>
      <trkpt lat="43.76252" lon="7.1493">
        <ele>830</ele>
        <time>2021-02-25T13:25:46.000Z</time>
      </trkpt>
      <trkpt lat="43.7625" lon="7.1493">
        <ele>830.40002441406</ele>
        <time>2021-02-25T13:25:47.000Z</time>
      </trkpt>
      <trkpt lat="43.76245" lon="7.1493">
        <ele>831.59997558594</ele>
        <time>2021-02-25T13:25:49.000Z</time>
      </trkpt>
      <trkpt lat="43.7624" lon="7.14929">
        <ele>832.79998779297</ele>
        <time>2021-02-25T13:25:51.000Z</time>
      </trkpt>
      <trkpt lat="43.76237" lon="7.14928">
        <ele>833.59997558594</ele>
        <time>2021-02-25T13:25:52.000Z</time>
      </trkpt>
      <trkpt lat="43.76235" lon="7.14927">
        <ele>834.20001220703</ele>
        <time>2021-02-25T13:25:53.000Z</time>
      </trkpt>
      <trkpt lat="43.7623" lon="7.14927">
        <ele>835.40002441406</ele>
        <time>2021-02-25T13:25:55.000Z</time>
      </trkpt>
      <trkpt lat="43.76225" lon="7.14927">
        <ele>836.40002441406</ele>
        <time>2021-02-25T13:25:57.000Z</time>
      </trkpt>
      <trkpt lat="43.76222" lon="7.14926">
        <ele>837.40002441406</ele>
        <time>2021-02-25T13:25:59.000Z</time>
      </trkpt>
      <trkpt lat="43.76217" lon="7.14923">
        <ele>838.20001220703</ele>
        <time>2021-02-25T13:26:01.000Z</time>
      </trkpt>
      <trkpt lat="43.76215" lon="7.14922">
        <ele>838.40002441406</ele>
        <time>2021-02-25T13:26:02.000Z</time>
      </trkpt>
      <trkpt lat="43.76205" lon="7.14916">
        <ele>839.79998779297</ele>
        <time>2021-02-25T13:26:06.000Z</time>
      </trkpt>
      <trkpt lat="43.76202" lon="7.14912">
        <ele>840.59997558594</ele>
        <time>2021-02-25T13:26:08.000Z</time>
      </trkpt>
      <trkpt lat="43.76199" lon="7.1491">
        <ele>841</ele>
        <time>2021-02-25T13:26:09.000Z</time>
      </trkpt>
      <trkpt lat="43.76196" lon="7.14901">
        <ele>842</ele>
        <time>2021-02-25T13:26:12.000Z</time>
      </trkpt>
      <trkpt lat="43.76195" lon="7.14898">
        <ele>842.20001220703</ele>
        <time>2021-02-25T13:26:13.000Z</time>
      </trkpt>
      <trkpt lat="43.76193" lon="7.14891">
        <ele>843</ele>
        <time>2021-02-25T13:26:16.000Z</time>
      </trkpt>
      <trkpt lat="43.76189" lon="7.14886">
        <ele>843.40002441406</ele>
        <time>2021-02-25T13:26:19.000Z</time>
      </trkpt>
      <trkpt lat="43.76178" lon="7.14882">
        <ele>842.40002441406</ele>
        <time>2021-02-25T13:26:24.000Z</time>
      </trkpt>
      <trkpt lat="43.76164" lon="7.14886">
        <ele>842</ele>
        <time>2021-02-25T13:26:28.000Z</time>
      </trkpt>
      <trkpt lat="43.7616" lon="7.14887">
        <ele>841.79998779297</ele>
        <time>2021-02-25T13:26:29.000Z</time>
      </trkpt>
      <trkpt lat="43.76148" lon="7.14887">
        <ele>842</ele>
        <time>2021-02-25T13:26:32.000Z</time>
      </trkpt>
      <trkpt lat="43.76144" lon="7.14887">
        <ele>842</ele>
        <time>2021-02-25T13:26:33.000Z</time>
      </trkpt>
      <trkpt lat="43.76124" lon="7.14888">
        <ele>843</ele>
        <time>2021-02-25T13:26:39.000Z</time>
      </trkpt>
      <trkpt lat="43.76122" lon="7.14887">
        <ele>843.40002441406</ele>
        <time>2021-02-25T13:26:40.000Z</time>
      </trkpt>
      <trkpt lat="43.76115" lon="7.14888">
        <ele>844.79998779297</ele>
        <time>2021-02-25T13:26:43.000Z</time>
      </trkpt>
      <trkpt lat="43.76112" lon="7.14888">
        <ele>845.40002441406</ele>
        <time>2021-02-25T13:26:44.000Z</time>
      </trkpt>
      <trkpt lat="43.76108" lon="7.14887">
        <ele>846</ele>
        <time>2021-02-25T13:26:46.000Z</time>
      </trkpt>
      <trkpt lat="43.761" lon="7.14884">
        <ele>846.59997558594</ele>
        <time>2021-02-25T13:26:50.000Z</time>
      </trkpt>
      <trkpt lat="43.76095" lon="7.14884">
        <ele>847</ele>
        <time>2021-02-25T13:26:53.000Z</time>
      </trkpt>
      <trkpt lat="43.76093" lon="7.14885">
        <ele>847</ele>
        <time>2021-02-25T13:26:54.000Z</time>
      </trkpt>
      <trkpt lat="43.76091" lon="7.14885">
        <ele>847</ele>
        <time>2021-02-25T13:26:55.000Z</time>
      </trkpt>
      <trkpt lat="43.7609" lon="7.14883">
        <ele>847.20001220703</ele>
        <time>2021-02-25T13:26:56.000Z</time>
      </trkpt>
      <trkpt lat="43.76086" lon="7.1488">
        <ele>847</ele>
        <time>2021-02-25T13:26:58.000Z</time>
      </trkpt>
      <trkpt lat="43.76083" lon="7.14876">
        <ele>847</ele>
        <time>2021-02-25T13:27:00.000Z</time>
      </trkpt>
      <trkpt lat="43.76073" lon="7.14875">
        <ele>846.79998779297</ele>
        <time>2021-02-25T13:27:03.000Z</time>
      </trkpt>
      <trkpt lat="43.76069" lon="7.1487">
        <ele>846.20001220703</ele>
        <time>2021-02-25T13:27:05.000Z</time>
      </trkpt>
      <trkpt lat="43.76067" lon="7.14868">
        <ele>845.40002441406</ele>
        <time>2021-02-25T13:27:06.000Z</time>
      </trkpt>
      <trkpt lat="43.76064" lon="7.14866">
        <ele>845</ele>
        <time>2021-02-25T13:27:07.000Z</time>
      </trkpt>
      <trkpt lat="43.76058" lon="7.14864">
        <ele>844</ele>
        <time>2021-02-25T13:27:09.000Z</time>
      </trkpt>
      <trkpt lat="43.76054" lon="7.14863">
        <ele>843.20001220703</ele>
        <time>2021-02-25T13:27:11.000Z</time>
      </trkpt>
      <trkpt lat="43.76052" lon="7.14863">
        <ele>842.79998779297</ele>
        <time>2021-02-25T13:27:12.000Z</time>
      </trkpt>
      <trkpt lat="43.76046" lon="7.14861">
        <ele>841.59997558594</ele>
        <time>2021-02-25T13:27:15.000Z</time>
      </trkpt>
      <trkpt lat="43.76042" lon="7.14861">
        <ele>840.59997558594</ele>
        <time>2021-02-25T13:27:17.000Z</time>
      </trkpt>
      <trkpt lat="43.76039" lon="7.14861">
        <ele>840.20001220703</ele>
        <time>2021-02-25T13:27:18.000Z</time>
      </trkpt>
      <trkpt lat="43.76035" lon="7.14862">
        <ele>839</ele>
        <time>2021-02-25T13:27:20.000Z</time>
      </trkpt>
      <trkpt lat="43.7603" lon="7.14861">
        <ele>838</ele>
        <time>2021-02-25T13:27:22.000Z</time>
      </trkpt>
      <trkpt lat="43.76028" lon="7.14859">
        <ele>837.40002441406</ele>
        <time>2021-02-25T13:27:23.000Z</time>
      </trkpt>
      <trkpt lat="43.76024" lon="7.14859">
        <ele>836.79998779297</ele>
        <time>2021-02-25T13:27:25.000Z</time>
      </trkpt>
      <trkpt lat="43.76025" lon="7.14859">
        <ele>836.40002441406</ele>
        <time>2021-02-25T13:27:27.000Z</time>
      </trkpt>
      <trkpt lat="43.76025" lon="7.14859">
        <ele>835.79998779297</ele>
        <time>2021-02-25T13:27:32.000Z</time>
      </trkpt>
      <trkpt lat="43.76025" lon="7.14859">
        <ele>835.20001220703</ele>
        <time>2021-02-25T13:27:35.000Z</time>
      </trkpt>
      <trkpt lat="43.76024" lon="7.1486">
        <ele>835.79998779297</ele>
        <time>2021-02-25T13:27:43.000Z</time>
      </trkpt>
      <trkpt lat="43.76024" lon="7.1486">
        <ele>835.20001220703</ele>
        <time>2021-02-25T13:27:50.000Z</time>
      </trkpt>
      <trkpt lat="43.76023" lon="7.14859">
        <ele>835.20001220703</ele>
        <time>2021-02-25T13:27:58.000Z</time>
      </trkpt>
      <trkpt lat="43.76024" lon="7.14859">
        <ele>834.59997558594</ele>
        <time>2021-02-25T13:28:08.000Z</time>
      </trkpt>
      <trkpt lat="43.76024" lon="7.14859">
        <ele>834.40002441406</ele>
        <time>2021-02-25T13:28:10.000Z</time>
      </trkpt>
      <trkpt lat="43.76022" lon="7.14859">
        <ele>834.59997558594</ele>
        <time>2021-02-25T13:28:21.000Z</time>
      </trkpt>
      <trkpt lat="43.76022" lon="7.14859">
        <ele>834.20001220703</ele>
        <time>2021-02-25T13:28:31.000Z</time>
      </trkpt>
      <trkpt lat="43.76022" lon="7.14859">
        <ele>833.59997558594</ele>
        <time>2021-02-25T13:28:42.000Z</time>
      </trkpt>
      <trkpt lat="43.76022" lon="7.14859">
        <ele>833.40002441406</ele>
        <time>2021-02-25T13:28:44.000Z</time>
      </trkpt>
      <trkpt lat="43.76022" lon="7.14859">
        <ele>833</ele>
        <time>2021-02-25T13:28:55.000Z</time>
      </trkpt>
      <trkpt lat="43.76022" lon="7.1486">
        <ele>834</ele>
        <time>2021-02-25T13:29:05.000Z</time>
      </trkpt>
      <trkpt lat="43.76022" lon="7.1486">
        <ele>833.59997558594</ele>
        <time>2021-02-25T13:29:10.000Z</time>
      </trkpt>
      <trkpt lat="43.76022" lon="7.1486">
        <ele>833.59997558594</ele>
        <time>2021-02-25T13:29:17.000Z</time>
      </trkpt>
      <trkpt lat="43.76022" lon="7.1486">
        <ele>833.40002441406</ele>
        <time>2021-02-25T13:29:28.000Z</time>
      </trkpt>
      <trkpt lat="43.76021" lon="7.14859">
        <ele>833.59997558594</ele>
        <time>2021-02-25T13:29:37.000Z</time>
      </trkpt>
      <trkpt lat="43.76021" lon="7.1486">
        <ele>833.20001220703</ele>
        <time>2021-02-25T13:29:46.000Z</time>
      </trkpt>
      <trkpt lat="43.76021" lon="7.1486">
        <ele>833.20001220703</ele>
        <time>2021-02-25T13:29:54.000Z</time>
      </trkpt>
      <trkpt lat="43.76022" lon="7.14859">
        <ele>833.20001220703</ele>
        <time>2021-02-25T13:30:11.000Z</time>
      </trkpt>
      <trkpt lat="43.76022" lon="7.14859">
        <ele>833.20001220703</ele>
        <time>2021-02-25T13:30:30.000Z</time>
      </trkpt>
      <trkpt lat="43.76022" lon="7.14859">
        <ele>832.59997558594</ele>
        <time>2021-02-25T13:30:42.000Z</time>
      </trkpt>
      <trkpt lat="43.76022" lon="7.14859">
        <ele>832.59997558594</ele>
        <time>2021-02-25T13:30:47.000Z</time>
      </trkpt>
      <trkpt lat="43.76023" lon="7.14859">
        <ele>833</ele>
        <time>2021-02-25T13:30:55.000Z</time>
      </trkpt>
      <trkpt lat="43.76023" lon="7.1486">
        <ele>833.40002441406</ele>
        <time>2021-02-25T13:31:03.000Z</time>
      </trkpt>
      <trkpt lat="43.76022" lon="7.1486">
        <ele>833.40002441406</ele>
        <time>2021-02-25T13:31:11.000Z</time>
      </trkpt>
      <trkpt lat="43.76022" lon="7.1486">
        <ele>833.79998779297</ele>
        <time>2021-02-25T13:31:21.000Z</time>
      </trkpt>
      <trkpt lat="43.76021" lon="7.1486">
        <ele>834</ele>
        <time>2021-02-25T13:31:23.000Z</time>
      </trkpt>
      <trkpt lat="43.76022" lon="7.1486">
        <ele>833.20001220703</ele>
        <time>2021-02-25T13:31:33.000Z</time>
      </trkpt>
      <trkpt lat="43.76022" lon="7.1486">
        <ele>832.79998779297</ele>
        <time>2021-02-25T13:31:36.000Z</time>
      </trkpt>
      <trkpt lat="43.76021" lon="7.1486">
        <ele>832.79998779297</ele>
        <time>2021-02-25T13:31:47.000Z</time>
      </trkpt>
      <trkpt lat="43.76022" lon="7.1486">
        <ele>833.59997558594</ele>
        <time>2021-02-25T13:31:53.000Z</time>
      </trkpt>
      <trkpt lat="43.76022" lon="7.14859">
        <ele>833.20001220703</ele>
        <time>2021-02-25T13:32:06.000Z</time>
      </trkpt>
      <trkpt lat="43.76022" lon="7.14859">
        <ele>833.40002441406</ele>
        <time>2021-02-25T13:32:19.000Z</time>
      </trkpt>
      <trkpt lat="43.76021" lon="7.14859">
        <ele>833.40002441406</ele>
        <time>2021-02-25T13:32:36.000Z</time>
      </trkpt>
      <trkpt lat="43.76022" lon="7.14859">
        <ele>833.20001220703</ele>
        <time>2021-02-25T13:32:50.000Z</time>
      </trkpt>
      <trkpt lat="43.76022" lon="7.14859">
        <ele>832.40002441406</ele>
        <time>2021-02-25T13:33:03.000Z</time>
      </trkpt>
      <trkpt lat="43.76023" lon="7.14859">
        <ele>832.59997558594</ele>
        <time>2021-02-25T13:33:13.000Z</time>
      </trkpt>
      <trkpt lat="43.76023" lon="7.14858">
        <ele>832.40002441406</ele>
        <time>2021-02-25T13:33:24.000Z</time>
      </trkpt>
      <trkpt lat="43.76022" lon="7.14858">
        <ele>832.40002441406</ele>
        <time>2021-02-25T13:33:32.000Z</time>
      </trkpt>
      <trkpt lat="43.76022" lon="7.14858">
        <ele>833.20001220703</ele>
        <time>2021-02-25T13:33:39.000Z</time>
      </trkpt>
      <trkpt lat="43.76022" lon="7.14859">
        <ele>833.20001220703</ele>
        <time>2021-02-25T13:33:47.000Z</time>
      </trkpt>
      <trkpt lat="43.76022" lon="7.14859">
        <ele>833</ele>
        <time>2021-02-25T13:33:55.000Z</time>
      </trkpt>
      <trkpt lat="43.76022" lon="7.14858">
        <ele>833.40002441406</ele>
        <time>2021-02-25T13:34:20.000Z</time>
      </trkpt>
      <trkpt lat="43.76022" lon="7.14858">
        <ele>833.40002441406</ele>
        <time>2021-02-25T13:34:32.000Z</time>
      </trkpt>
      <trkpt lat="43.76021" lon="7.14859">
        <ele>833.40002441406</ele>
        <time>2021-02-25T13:34:43.000Z</time>
      </trkpt>
      <trkpt lat="43.76023" lon="7.14859">
        <ele>833.40002441406</ele>
        <time>2021-02-25T13:34:44.000Z</time>
      </trkpt>
      <trkpt lat="43.76023" lon="7.14859">
        <ele>833.40002441406</ele>
        <time>2021-02-25T13:34:46.000Z</time>
      </trkpt>
      <trkpt lat="43.76023" lon="7.1486">
        <ele>833.20001220703</ele>
        <time>2021-02-25T13:34:50.000Z</time>
      </trkpt>
      <trkpt lat="43.76022" lon="7.14859">
        <ele>833.79998779297</ele>
        <time>2021-02-25T13:34:56.000Z</time>
      </trkpt>
      <trkpt lat="43.76022" lon="7.14859">
        <ele>833.79998779297</ele>
        <time>2021-02-25T13:34:57.000Z</time>
      </trkpt>
      <trkpt lat="43.76022" lon="7.1486">
        <ele>833.59997558594</ele>
        <time>2021-02-25T13:35:05.000Z</time>
      </trkpt>
      <trkpt lat="43.76023" lon="7.14857">
        <ele>833.20001220703</ele>
        <time>2021-02-25T13:35:09.000Z</time>
      </trkpt>
      <trkpt lat="43.76022" lon="7.14859">
        <ele>833</ele>
        <time>2021-02-25T13:35:10.000Z</time>
      </trkpt>
      <trkpt lat="43.7602" lon="7.14858">
        <ele>833.40002441406</ele>
        <time>2021-02-25T13:35:15.000Z</time>
      </trkpt>
      <trkpt lat="43.76016" lon="7.14854">
        <ele>833.40002441406</ele>
        <time>2021-02-25T13:35:17.000Z</time>
      </trkpt>
      <trkpt lat="43.76005" lon="7.14843">
        <ele>832.79998779297</ele>
        <time>2021-02-25T13:35:21.000Z</time>
      </trkpt>
      <trkpt lat="43.76002" lon="7.14843">
        <ele>832.40002441406</ele>
        <time>2021-02-25T13:35:22.000Z</time>
      </trkpt>
      <trkpt lat="43.75995" lon="7.14846">
        <ele>831.40002441406</ele>
        <time>2021-02-25T13:35:25.000Z</time>
      </trkpt>
      <trkpt lat="43.75992" lon="7.14847">
        <ele>831.20001220703</ele>
        <time>2021-02-25T13:35:26.000Z</time>
      </trkpt>
      <trkpt lat="43.75984" lon="7.14854">
        <ele>830.40002441406</ele>
        <time>2021-02-25T13:35:29.000Z</time>
      </trkpt>
      <trkpt lat="43.75981" lon="7.14858">
        <ele>830.20001220703</ele>
        <time>2021-02-25T13:35:30.000Z</time>
      </trkpt>
      <trkpt lat="43.75977" lon="7.1486">
        <ele>830</ele>
        <time>2021-02-25T13:35:31.000Z</time>
      </trkpt>
      <trkpt lat="43.75967" lon="7.14867">
        <ele>829.59997558594</ele>
        <time>2021-02-25T13:35:34.000Z</time>
      </trkpt>
      <trkpt lat="43.7595" lon="7.14867">
        <ele>829.59997558594</ele>
        <time>2021-02-25T13:35:38.000Z</time>
      </trkpt>
      <trkpt lat="43.75945" lon="7.14866">
        <ele>829.20001220703</ele>
        <time>2021-02-25T13:35:39.000Z</time>
      </trkpt>
      <trkpt lat="43.75939" lon="7.14863">
        <ele>829</ele>
        <time>2021-02-25T13:35:40.000Z</time>
      </trkpt>
      <trkpt lat="43.75929" lon="7.14855">
        <ele>827.59997558594</ele>
        <time>2021-02-25T13:35:42.000Z</time>
      </trkpt>
      <trkpt lat="43.75918" lon="7.14847">
        <ele>826.20001220703</ele>
        <time>2021-02-25T13:35:44.000Z</time>
      </trkpt>
      <trkpt lat="43.75912" lon="7.14847">
        <ele>825.59997558594</ele>
        <time>2021-02-25T13:35:45.000Z</time>
      </trkpt>
      <trkpt lat="43.75906" lon="7.14848">
        <ele>825.20001220703</ele>
        <time>2021-02-25T13:35:46.000Z</time>
      </trkpt>
      <trkpt lat="43.75897" lon="7.14853">
        <ele>824.40002441406</ele>
        <time>2021-02-25T13:35:48.000Z</time>
      </trkpt>
      <trkpt lat="43.75893" lon="7.14854">
        <ele>824.40002441406</ele>
        <time>2021-02-25T13:35:49.000Z</time>
      </trkpt>
      <trkpt lat="43.75885" lon="7.14858">
        <ele>824.79998779297</ele>
        <time>2021-02-25T13:35:51.000Z</time>
      </trkpt>
      <trkpt lat="43.75874" lon="7.14866">
        <ele>825.79998779297</ele>
        <time>2021-02-25T13:35:54.000Z</time>
      </trkpt>
      <trkpt lat="43.75869" lon="7.14868">
        <ele>825.79998779297</ele>
        <time>2021-02-25T13:35:55.000Z</time>
      </trkpt>
      <trkpt lat="43.75855" lon="7.14871">
        <ele>826</ele>
        <time>2021-02-25T13:35:58.000Z</time>
      </trkpt>
      <trkpt lat="43.75852" lon="7.14877">
        <ele>826</ele>
        <time>2021-02-25T13:36:00.000Z</time>
      </trkpt>
      <trkpt lat="43.7585" lon="7.14879">
        <ele>825.79998779297</ele>
        <time>2021-02-25T13:36:01.000Z</time>
      </trkpt>
      <trkpt lat="43.75847" lon="7.14882">
        <ele>825.59997558594</ele>
        <time>2021-02-25T13:36:04.000Z</time>
      </trkpt>
      <trkpt lat="43.75846" lon="7.14883">
        <ele>825.40002441406</ele>
        <time>2021-02-25T13:36:05.000Z</time>
      </trkpt>
      <trkpt lat="43.75843" lon="7.14888">
        <ele>824.79998779297</ele>
        <time>2021-02-25T13:36:08.000Z</time>
      </trkpt>
      <trkpt lat="43.75843" lon="7.14888">
        <ele>824.79998779297</ele>
        <time>2021-02-25T13:36:09.000Z</time>
      </trkpt>
      <trkpt lat="43.75843" lon="7.14888">
        <ele>824.20001220703</ele>
        <time>2021-02-25T13:36:16.000Z</time>
      </trkpt>
      <trkpt lat="43.75843" lon="7.14888">
        <ele>824.20001220703</ele>
        <time>2021-02-25T13:36:25.000Z</time>
      </trkpt>
      <trkpt lat="43.75843" lon="7.14887">
        <ele>824</ele>
        <time>2021-02-25T13:36:34.000Z</time>
      </trkpt>
      <trkpt lat="43.7584" lon="7.14889">
        <ele>824</ele>
        <time>2021-02-25T13:36:46.000Z</time>
      </trkpt>
      <trkpt lat="43.7583" lon="7.14895">
        <ele>823.40002441406</ele>
        <time>2021-02-25T13:36:51.000Z</time>
      </trkpt>
      <trkpt lat="43.75823" lon="7.14897">
        <ele>823</ele>
        <time>2021-02-25T13:36:53.000Z</time>
      </trkpt>
      <trkpt lat="43.75814" lon="7.149">
        <ele>822.40002441406</ele>
        <time>2021-02-25T13:36:55.000Z</time>
      </trkpt>
      <trkpt lat="43.75807" lon="7.14903">
        <ele>822</ele>
        <time>2021-02-25T13:36:57.000Z</time>
      </trkpt>
      <trkpt lat="43.75802" lon="7.14903">
        <ele>821.79998779297</ele>
        <time>2021-02-25T13:36:58.000Z</time>
      </trkpt>
      <trkpt lat="43.75798" lon="7.14902">
        <ele>821.79998779297</ele>
        <time>2021-02-25T13:36:59.000Z</time>
      </trkpt>
      <trkpt lat="43.75794" lon="7.14899">
        <ele>821.20001220703</ele>
        <time>2021-02-25T13:37:00.000Z</time>
      </trkpt>
      <trkpt lat="43.7579" lon="7.14898">
        <ele>820.40002441406</ele>
        <time>2021-02-25T13:37:01.000Z</time>
      </trkpt>
      <trkpt lat="43.7578" lon="7.149">
        <ele>819.59997558594</ele>
        <time>2021-02-25T13:37:03.000Z</time>
      </trkpt>
      <trkpt lat="43.75776" lon="7.149">
        <ele>818.79998779297</ele>
        <time>2021-02-25T13:37:04.000Z</time>
      </trkpt>
      <trkpt lat="43.75766" lon="7.14894">
        <ele>817.79998779297</ele>
        <time>2021-02-25T13:37:07.000Z</time>
      </trkpt>
      <trkpt lat="43.75754" lon="7.14897">
        <ele>816</ele>
        <time>2021-02-25T13:37:10.000Z</time>
      </trkpt>
      <trkpt lat="43.75742" lon="7.14889">
        <ele>814.40002441406</ele>
        <time>2021-02-25T13:37:13.000Z</time>
      </trkpt>
      <trkpt lat="43.75734" lon="7.14886">
        <ele>813.59997558594</ele>
        <time>2021-02-25T13:37:15.000Z</time>
      </trkpt>
      <trkpt lat="43.75736" lon="7.14886">
        <ele>813</ele>
        <time>2021-02-25T13:37:17.000Z</time>
      </trkpt>
      <trkpt lat="43.75733" lon="7.14887">
        <ele>812.20001220703</ele>
        <time>2021-02-25T13:37:28.000Z</time>
      </trkpt>
      <trkpt lat="43.75729" lon="7.14889">
        <ele>812</ele>
        <time>2021-02-25T13:37:31.000Z</time>
      </trkpt>
      <trkpt lat="43.75726" lon="7.1489">
        <ele>811.59997558594</ele>
        <time>2021-02-25T13:37:33.000Z</time>
      </trkpt>
      <trkpt lat="43.75713" lon="7.14899">
        <ele>811.40002441406</ele>
        <time>2021-02-25T13:37:38.000Z</time>
      </trkpt>
      <trkpt lat="43.75711" lon="7.14905">
        <ele>811.79998779297</ele>
        <time>2021-02-25T13:37:40.000Z</time>
      </trkpt>
      <trkpt lat="43.7571" lon="7.14912">
        <ele>812.40002441406</ele>
        <time>2021-02-25T13:37:42.000Z</time>
      </trkpt>
      <trkpt lat="43.75708" lon="7.1492">
        <ele>813.20001220703</ele>
        <time>2021-02-25T13:37:44.000Z</time>
      </trkpt>
      <trkpt lat="43.75707" lon="7.14923">
        <ele>813.59997558594</ele>
        <time>2021-02-25T13:37:45.000Z</time>
      </trkpt>
      <trkpt lat="43.75706" lon="7.14926">
        <ele>814.79998779297</ele>
        <time>2021-02-25T13:37:47.000Z</time>
      </trkpt>
      <trkpt lat="43.75707" lon="7.14938">
        <ele>815.79998779297</ele>
        <time>2021-02-25T13:37:51.000Z</time>
      </trkpt>
      <trkpt lat="43.75707" lon="7.14941">
        <ele>815.79998779297</ele>
        <time>2021-02-25T13:37:52.000Z</time>
      </trkpt>
      <trkpt lat="43.75705" lon="7.14945">
        <ele>816</ele>
        <time>2021-02-25T13:37:53.000Z</time>
      </trkpt>
      <trkpt lat="43.75702" lon="7.14951">
        <ele>816</ele>
        <time>2021-02-25T13:37:56.000Z</time>
      </trkpt>
      <trkpt lat="43.75701" lon="7.14956">
        <ele>815.79998779297</ele>
        <time>2021-02-25T13:37:58.000Z</time>
      </trkpt>
      <trkpt lat="43.757" lon="7.14961">
        <ele>815.79998779297</ele>
        <time>2021-02-25T13:38:00.000Z</time>
      </trkpt>
      <trkpt lat="43.75699" lon="7.14964">
        <ele>815.79998779297</ele>
        <time>2021-02-25T13:38:01.000Z</time>
      </trkpt>
      <trkpt lat="43.75695" lon="7.14982">
        <ele>815.40002441406</ele>
        <time>2021-02-25T13:38:07.000Z</time>
      </trkpt>
      <trkpt lat="43.75692" lon="7.15004">
        <ele>815.20001220703</ele>
        <time>2021-02-25T13:38:12.000Z</time>
      </trkpt>
      <trkpt lat="43.75688" lon="7.15015">
        <ele>814.59997558594</ele>
        <time>2021-02-25T13:38:15.000Z</time>
      </trkpt>
      <trkpt lat="43.75689" lon="7.15018">
        <ele>814.20001220703</ele>
        <time>2021-02-25T13:38:16.000Z</time>
      </trkpt>
      <trkpt lat="43.75689" lon="7.15024">
        <ele>813.20001220703</ele>
        <time>2021-02-25T13:38:19.000Z</time>
      </trkpt>
      <trkpt lat="43.75686" lon="7.15027">
        <ele>812.59997558594</ele>
        <time>2021-02-25T13:38:21.000Z</time>
      </trkpt>
      <trkpt lat="43.75685" lon="7.15027">
        <ele>812.40002441406</ele>
        <time>2021-02-25T13:38:26.000Z</time>
      </trkpt>
      <trkpt lat="43.75683" lon="7.15029">
        <ele>812.20001220703</ele>
        <time>2021-02-25T13:38:30.000Z</time>
      </trkpt>
      <trkpt lat="43.75682" lon="7.15031">
        <ele>812.20001220703</ele>
        <time>2021-02-25T13:38:32.000Z</time>
      </trkpt>
      <trkpt lat="43.75681" lon="7.15032">
        <ele>812.20001220703</ele>
        <time>2021-02-25T13:38:33.000Z</time>
      </trkpt>
      <trkpt lat="43.75675" lon="7.15035">
        <ele>812</ele>
        <time>2021-02-25T13:38:37.000Z</time>
      </trkpt>
      <trkpt lat="43.75675" lon="7.15034">
        <ele>811.20001220703</ele>
        <time>2021-02-25T13:38:40.000Z</time>
      </trkpt>
      <trkpt lat="43.75676" lon="7.15034">
        <ele>811</ele>
        <time>2021-02-25T13:38:41.000Z</time>
      </trkpt>
      <trkpt lat="43.75676" lon="7.15034">
        <ele>810.59997558594</ele>
        <time>2021-02-25T13:38:45.000Z</time>
      </trkpt>
      <trkpt lat="43.75677" lon="7.15031">
        <ele>810.40002441406</ele>
        <time>2021-02-25T13:38:52.000Z</time>
      </trkpt>
      <trkpt lat="43.75677" lon="7.1503">
        <ele>811</ele>
        <time>2021-02-25T13:38:59.000Z</time>
      </trkpt>
      <trkpt lat="43.75676" lon="7.15029">
        <ele>810.79998779297</ele>
        <time>2021-02-25T13:39:07.000Z</time>
      </trkpt>
      <trkpt lat="43.75674" lon="7.15022">
        <ele>811</ele>
        <time>2021-02-25T13:39:12.000Z</time>
      </trkpt>
      <trkpt lat="43.75674" lon="7.15012">
        <ele>811</ele>
        <time>2021-02-25T13:39:17.000Z</time>
      </trkpt>
      <trkpt lat="43.75673" lon="7.15009">
        <ele>811</ele>
        <time>2021-02-25T13:39:19.000Z</time>
      </trkpt>
      <trkpt lat="43.75671" lon="7.15005">
        <ele>811.40002441406</ele>
        <time>2021-02-25T13:39:21.000Z</time>
      </trkpt>
      <trkpt lat="43.75659" lon="7.14987">
        <ele>810.59997558594</ele>
        <time>2021-02-25T13:39:26.000Z</time>
      </trkpt>
      <trkpt lat="43.75655" lon="7.14969">
        <ele>810</ele>
        <time>2021-02-25T13:39:29.000Z</time>
      </trkpt>
      <trkpt lat="43.75656" lon="7.14965">
        <ele>809.79998779297</ele>
        <time>2021-02-25T13:39:30.000Z</time>
      </trkpt>
      <trkpt lat="43.75656" lon="7.14965">
        <ele>809.59997558594</ele>
        <time>2021-02-25T13:39:33.000Z</time>
      </trkpt>
      <trkpt lat="43.75656" lon="7.14965">
        <ele>809.79998779297</ele>
        <time>2021-02-25T13:39:35.000Z</time>
      </trkpt>
      <trkpt lat="43.75655" lon="7.14964">
        <ele>809.59997558594</ele>
        <time>2021-02-25T13:39:37.000Z</time>
      </trkpt>
      <trkpt lat="43.75654" lon="7.14966">
        <ele>809.59997558594</ele>
        <time>2021-02-25T13:39:38.000Z</time>
      </trkpt>
      <trkpt lat="43.75653" lon="7.14968">
        <ele>809</ele>
        <time>2021-02-25T13:39:41.000Z</time>
      </trkpt>
      <trkpt lat="43.75654" lon="7.14968">
        <ele>808.79998779297</ele>
        <time>2021-02-25T13:39:42.000Z</time>
      </trkpt>
      <trkpt lat="43.75653" lon="7.14969">
        <ele>808.59997558594</ele>
        <time>2021-02-25T13:39:46.000Z</time>
      </trkpt>
      <trkpt lat="43.75653" lon="7.1497">
        <ele>808.40002441406</ele>
        <time>2021-02-25T13:39:52.000Z</time>
      </trkpt>
      <trkpt lat="43.75652" lon="7.1497">
        <ele>808.20001220703</ele>
        <time>2021-02-25T13:40:08.000Z</time>
      </trkpt>
      <trkpt lat="43.75652" lon="7.14971">
        <ele>808.79998779297</ele>
        <time>2021-02-25T13:40:18.000Z</time>
      </trkpt>
      <trkpt lat="43.75652" lon="7.14971">
        <ele>809</ele>
        <time>2021-02-25T13:40:28.000Z</time>
      </trkpt>
      <trkpt lat="43.75652" lon="7.14971">
        <ele>808.59997558594</ele>
        <time>2021-02-25T13:40:43.000Z</time>
      </trkpt>
      <trkpt lat="43.75652" lon="7.14971">
        <ele>808.59997558594</ele>
        <time>2021-02-25T13:41:00.000Z</time>
      </trkpt>
      <trkpt lat="43.75652" lon="7.14971">
        <ele>808.79998779297</ele>
        <time>2021-02-25T13:41:13.000Z</time>
      </trkpt>
      <trkpt lat="43.75652" lon="7.14972">
        <ele>808.79998779297</ele>
        <time>2021-02-25T13:41:19.000Z</time>
      </trkpt>
      <trkpt lat="43.75652" lon="7.14972">
        <ele>808.40002441406</ele>
        <time>2021-02-25T13:41:27.000Z</time>
      </trkpt>
      <trkpt lat="43.75651" lon="7.14972">
        <ele>808.59997558594</ele>
        <time>2021-02-25T13:41:33.000Z</time>
      </trkpt>
      <trkpt lat="43.75651" lon="7.14972">
        <ele>808.79998779297</ele>
        <time>2021-02-25T13:41:42.000Z</time>
      </trkpt>
      <trkpt lat="43.75651" lon="7.14973">
        <ele>809.79998779297</ele>
        <time>2021-02-25T13:42:01.000Z</time>
      </trkpt>
      <trkpt lat="43.75651" lon="7.14973">
        <ele>810</ele>
        <time>2021-02-25T13:42:03.000Z</time>
      </trkpt>
      <trkpt lat="43.75651" lon="7.14972">
        <ele>810</ele>
        <time>2021-02-25T13:42:08.000Z</time>
      </trkpt>
      <trkpt lat="43.75651" lon="7.14972">
        <ele>809.79998779297</ele>
        <time>2021-02-25T13:42:21.000Z</time>
      </trkpt>
      <trkpt lat="43.75651" lon="7.14973">
        <ele>810.20001220703</ele>
        <time>2021-02-25T13:42:30.000Z</time>
      </trkpt>
      <trkpt lat="43.75651" lon="7.14973">
        <ele>810</ele>
        <time>2021-02-25T13:42:35.000Z</time>
      </trkpt>
      <trkpt lat="43.75651" lon="7.14973">
        <ele>809.59997558594</ele>
        <time>2021-02-25T13:42:47.000Z</time>
      </trkpt>
      <trkpt lat="43.75651" lon="7.14972">
        <ele>809.79998779297</ele>
        <time>2021-02-25T13:43:10.000Z</time>
      </trkpt>
      <trkpt lat="43.75652" lon="7.14971">
        <ele>809.59997558594</ele>
        <time>2021-02-25T13:43:27.000Z</time>
      </trkpt>
      <trkpt lat="43.75652" lon="7.14971">
        <ele>809.40002441406</ele>
        <time>2021-02-25T13:43:42.000Z</time>
      </trkpt>
      <trkpt lat="43.75651" lon="7.14971">
        <ele>810.20001220703</ele>
        <time>2021-02-25T13:43:47.000Z</time>
      </trkpt>
      <trkpt lat="43.75651" lon="7.14971">
        <ele>810.20001220703</ele>
        <time>2021-02-25T13:43:55.000Z</time>
      </trkpt>
      <trkpt lat="43.75651" lon="7.14971">
        <ele>809.59997558594</ele>
        <time>2021-02-25T13:44:14.000Z</time>
      </trkpt>
      <trkpt lat="43.75651" lon="7.14972">
        <ele>809.79998779297</ele>
        <time>2021-02-25T13:44:20.000Z</time>
      </trkpt>
      <trkpt lat="43.75651" lon="7.14971">
        <ele>809.20001220703</ele>
        <time>2021-02-25T13:44:28.000Z</time>
      </trkpt>
      <trkpt lat="43.75651" lon="7.14972">
        <ele>809.20001220703</ele>
        <time>2021-02-25T13:44:34.000Z</time>
      </trkpt>
      <trkpt lat="43.75651" lon="7.14972">
        <ele>808.79998779297</ele>
        <time>2021-02-25T13:44:37.000Z</time>
      </trkpt>
      <trkpt lat="43.75651" lon="7.14972">
        <ele>808.59997558594</ele>
        <time>2021-02-25T13:45:07.000Z</time>
      </trkpt>
      <trkpt lat="43.75652" lon="7.14973">
        <ele>808.40002441406</ele>
        <time>2021-02-25T13:45:39.000Z</time>
      </trkpt>
      <trkpt lat="43.75652" lon="7.14973">
        <ele>808.20001220703</ele>
        <time>2021-02-25T13:46:13.000Z</time>
      </trkpt>
      <trkpt lat="43.75651" lon="7.14973">
        <ele>808.40002441406</ele>
        <time>2021-02-25T13:46:46.000Z</time>
      </trkpt>
      <trkpt lat="43.75651" lon="7.14972">
        <ele>808.20001220703</ele>
        <time>2021-02-25T13:47:20.000Z</time>
      </trkpt>
      <trkpt lat="43.75651" lon="7.14972">
        <ele>808.20001220703</ele>
        <time>2021-02-25T13:47:55.000Z</time>
      </trkpt>
      <trkpt lat="43.75651" lon="7.14972">
        <ele>808.20001220703</ele>
        <time>2021-02-25T13:48:31.000Z</time>
      </trkpt>
      <trkpt lat="43.75651" lon="7.14972">
        <ele>808.20001220703</ele>
        <time>2021-02-25T13:49:04.000Z</time>
      </trkpt>
      <trkpt lat="43.7565" lon="7.14972">
        <ele>808.20001220703</ele>
        <time>2021-02-25T13:49:39.000Z</time>
      </trkpt>
      <trkpt lat="43.75649" lon="7.14971">
        <ele>808.40002441406</ele>
        <time>2021-02-25T13:49:52.000Z</time>
      </trkpt>
      <trkpt lat="43.75649" lon="7.14972">
        <ele>808.79998779297</ele>
        <time>2021-02-25T13:50:09.000Z</time>
      </trkpt>
      <trkpt lat="43.7565" lon="7.14972">
        <ele>809.40002441406</ele>
        <time>2021-02-25T13:50:29.000Z</time>
      </trkpt>
      <trkpt lat="43.7565" lon="7.14972">
        <ele>809.40002441406</ele>
        <time>2021-02-25T13:50:41.000Z</time>
      </trkpt>
      <trkpt lat="43.7565" lon="7.14972">
        <ele>810</ele>
        <time>2021-02-25T13:51:06.000Z</time>
      </trkpt>
      <trkpt lat="43.7565" lon="7.14972">
        <ele>810</ele>
        <time>2021-02-25T13:51:08.000Z</time>
      </trkpt>
      <trkpt lat="43.75651" lon="7.14973">
        <ele>810.20001220703</ele>
        <time>2021-02-25T13:51:19.000Z</time>
      </trkpt>
      <trkpt lat="43.75651" lon="7.14972">
        <ele>809.20001220703</ele>
        <time>2021-02-25T13:51:55.000Z</time>
      </trkpt>
      <trkpt lat="43.75651" lon="7.14972">
        <ele>809.20001220703</ele>
        <time>2021-02-25T13:52:37.000Z</time>
      </trkpt>
      <trkpt lat="43.75652" lon="7.14972">
        <ele>809.20001220703</ele>
        <time>2021-02-25T13:53:14.000Z</time>
      </trkpt>
      <trkpt lat="43.75651" lon="7.14972">
        <ele>809.20001220703</ele>
        <time>2021-02-25T13:53:24.000Z</time>
      </trkpt>
      <trkpt lat="43.75651" lon="7.14971">
        <ele>809</ele>
        <time>2021-02-25T13:53:45.000Z</time>
      </trkpt>
      <trkpt lat="43.75651" lon="7.14972">
        <ele>809</ele>
        <time>2021-02-25T13:54:03.000Z</time>
      </trkpt>
      <trkpt lat="43.75651" lon="7.14972">
        <ele>809.40002441406</ele>
        <time>2021-02-25T13:54:20.000Z</time>
      </trkpt>
      <trkpt lat="43.75651" lon="7.14972">
        <ele>809.59997558594</ele>
        <time>2021-02-25T13:54:42.000Z</time>
      </trkpt>
      <trkpt lat="43.75651" lon="7.14972">
        <ele>810.20001220703</ele>
        <time>2021-02-25T13:55:07.000Z</time>
      </trkpt>
      <trkpt lat="43.75651" lon="7.14972">
        <ele>810.59997558594</ele>
        <time>2021-02-25T13:55:22.000Z</time>
      </trkpt>
      <trkpt lat="43.75651" lon="7.14971">
        <ele>811</ele>
        <time>2021-02-25T13:55:32.000Z</time>
      </trkpt>
      <trkpt lat="43.75651" lon="7.14971">
        <ele>811</ele>
        <time>2021-02-25T13:55:33.000Z</time>
      </trkpt>
      <trkpt lat="43.75651" lon="7.14971">
        <ele>810.59997558594</ele>
        <time>2021-02-25T13:55:47.000Z</time>
      </trkpt>
      <trkpt lat="43.75651" lon="7.14971">
        <ele>810.59997558594</ele>
        <time>2021-02-25T13:56:03.000Z</time>
      </trkpt>
      <trkpt lat="43.75652" lon="7.14971">
        <ele>810.40002441406</ele>
        <time>2021-02-25T13:56:23.000Z</time>
      </trkpt>
      <trkpt lat="43.75651" lon="7.14971">
        <ele>810.79998779297</ele>
        <time>2021-02-25T13:56:29.000Z</time>
      </trkpt>
      <trkpt lat="43.75651" lon="7.14971">
        <ele>810.40002441406</ele>
        <time>2021-02-25T13:56:37.000Z</time>
      </trkpt>
      <trkpt lat="43.75651" lon="7.14971">
        <ele>810.59997558594</ele>
        <time>2021-02-25T13:56:52.000Z</time>
      </trkpt>
      <trkpt lat="43.75651" lon="7.14971">
        <ele>810.59997558594</ele>
        <time>2021-02-25T13:57:08.000Z</time>
      </trkpt>
      <trkpt lat="43.75651" lon="7.14971">
        <ele>810.79998779297</ele>
        <time>2021-02-25T13:57:24.000Z</time>
      </trkpt>
      <trkpt lat="43.75651" lon="7.14971">
        <ele>810.59997558594</ele>
        <time>2021-02-25T13:57:48.000Z</time>
      </trkpt>
      <trkpt lat="43.75651" lon="7.14971">
        <ele>810.59997558594</ele>
        <time>2021-02-25T13:58:18.000Z</time>
      </trkpt>
      <trkpt lat="43.75651" lon="7.14971">
        <ele>810.59997558594</ele>
        <time>2021-02-25T13:58:35.000Z</time>
      </trkpt>
      <trkpt lat="43.75651" lon="7.14971">
        <ele>810.59997558594</ele>
        <time>2021-02-25T13:58:49.000Z</time>
      </trkpt>
      <trkpt lat="43.75651" lon="7.14972">
        <ele>810.79998779297</ele>
        <time>2021-02-25T13:59:14.000Z</time>
      </trkpt>
      <trkpt lat="43.7565" lon="7.14973">
        <ele>810.79998779297</ele>
        <time>2021-02-25T13:59:22.000Z</time>
      </trkpt>
      <trkpt lat="43.75651" lon="7.14971">
        <ele>811.20001220703</ele>
        <time>2021-02-25T13:59:29.000Z</time>
      </trkpt>
      <trkpt lat="43.75652" lon="7.14971">
        <ele>812</ele>
        <time>2021-02-25T13:59:36.000Z</time>
      </trkpt>
      <trkpt lat="43.75652" lon="7.1497">
        <ele>811.40002441406</ele>
        <time>2021-02-25T13:59:44.000Z</time>
      </trkpt>
      <trkpt lat="43.75652" lon="7.14969">
        <ele>811.79998779297</ele>
        <time>2021-02-25T13:59:52.000Z</time>
      </trkpt>
      <trkpt lat="43.75653" lon="7.14968">
        <ele>811.79998779297</ele>
        <time>2021-02-25T14:00:22.000Z</time>
      </trkpt>
      <trkpt lat="43.75653" lon="7.14969">
        <ele>811.59997558594</ele>
        <time>2021-02-25T14:00:50.000Z</time>
      </trkpt>
      <trkpt lat="43.75654" lon="7.14968">
        <ele>811.59997558594</ele>
        <time>2021-02-25T14:01:03.000Z</time>
      </trkpt>
      <trkpt lat="43.75656" lon="7.14967">
        <ele>812</ele>
        <time>2021-02-25T14:01:10.000Z</time>
      </trkpt>
      <trkpt lat="43.75655" lon="7.14967">
        <ele>811.79998779297</ele>
        <time>2021-02-25T14:01:17.000Z</time>
      </trkpt>
      <trkpt lat="43.75654" lon="7.14966">
        <ele>812</ele>
        <time>2021-02-25T14:01:31.000Z</time>
      </trkpt>
      <trkpt lat="43.75654" lon="7.14966">
        <ele>812.40002441406</ele>
        <time>2021-02-25T14:01:52.000Z</time>
      </trkpt>
      <trkpt lat="43.75654" lon="7.14964">
        <ele>812.20001220703</ele>
        <time>2021-02-25T14:02:02.000Z</time>
      </trkpt>
      <trkpt lat="43.75656" lon="7.14954">
        <ele>812.79998779297</ele>
        <time>2021-02-25T14:02:08.000Z</time>
      </trkpt>
      <trkpt lat="43.75657" lon="7.14953">
        <ele>813</ele>
        <time>2021-02-25T14:02:09.000Z</time>
      </trkpt>
      <trkpt lat="43.75659" lon="7.14952">
        <ele>813.20001220703</ele>
        <time>2021-02-25T14:02:10.000Z</time>
      </trkpt>
      <trkpt lat="43.75664" lon="7.14948">
        <ele>814.20001220703</ele>
        <time>2021-02-25T14:02:14.000Z</time>
      </trkpt>
      <trkpt lat="43.75665" lon="7.14947">
        <ele>814.59997558594</ele>
        <time>2021-02-25T14:02:15.000Z</time>
      </trkpt>
      <trkpt lat="43.75672" lon="7.14942">
        <ele>815.59997558594</ele>
        <time>2021-02-25T14:02:19.000Z</time>
      </trkpt>
      <trkpt lat="43.75675" lon="7.14941">
        <ele>816</ele>
        <time>2021-02-25T14:02:21.000Z</time>
      </trkpt>
      <trkpt lat="43.75679" lon="7.1494">
        <ele>816.59997558594</ele>
        <time>2021-02-25T14:02:23.000Z</time>
      </trkpt>
      <trkpt lat="43.75685" lon="7.14943">
        <ele>817.79998779297</ele>
        <time>2021-02-25T14:02:26.000Z</time>
      </trkpt>
      <trkpt lat="43.75695" lon="7.14948">
        <ele>818.79998779297</ele>
        <time>2021-02-25T14:02:31.000Z</time>
      </trkpt>
      <trkpt lat="43.75696" lon="7.14949">
        <ele>818.79998779297</ele>
        <time>2021-02-25T14:02:32.000Z</time>
      </trkpt>
      <trkpt lat="43.75697" lon="7.14949">
        <ele>819</ele>
        <time>2021-02-25T14:02:33.000Z</time>
      </trkpt>
      <trkpt lat="43.75701" lon="7.14946">
        <ele>819.40002441406</ele>
        <time>2021-02-25T14:02:35.000Z</time>
      </trkpt>
      <trkpt lat="43.75703" lon="7.14934">
        <ele>819.40002441406</ele>
        <time>2021-02-25T14:02:39.000Z</time>
      </trkpt>
      <trkpt lat="43.75706" lon="7.14912">
        <ele>818.79998779297</ele>
        <time>2021-02-25T14:02:44.000Z</time>
      </trkpt>
      <trkpt lat="43.75713" lon="7.14896">
        <ele>817.59997558594</ele>
        <time>2021-02-25T14:02:48.000Z</time>
      </trkpt>
      <trkpt lat="43.75725" lon="7.14889">
        <ele>816.20001220703</ele>
        <time>2021-02-25T14:02:51.000Z</time>
      </trkpt>
      <trkpt lat="43.75729" lon="7.14888">
        <ele>815.79998779297</ele>
        <time>2021-02-25T14:02:52.000Z</time>
      </trkpt>
      <trkpt lat="43.75735" lon="7.14888">
        <ele>815.20001220703</ele>
        <time>2021-02-25T14:02:54.000Z</time>
      </trkpt>
      <trkpt lat="43.75736" lon="7.14889">
        <ele>815</ele>
        <time>2021-02-25T14:02:55.000Z</time>
      </trkpt>
      <trkpt lat="43.75747" lon="7.14896">
        <ele>815.59997558594</ele>
        <time>2021-02-25T14:03:00.000Z</time>
      </trkpt>
      <trkpt lat="43.75753" lon="7.14897">
        <ele>816.40002441406</ele>
        <time>2021-02-25T14:03:03.000Z</time>
      </trkpt>
      <trkpt lat="43.75755" lon="7.14897">
        <ele>816.59997558594</ele>
        <time>2021-02-25T14:03:04.000Z</time>
      </trkpt>
      <trkpt lat="43.75765" lon="7.14895">
        <ele>817.40002441406</ele>
        <time>2021-02-25T14:03:08.000Z</time>
      </trkpt>
      <trkpt lat="43.75766" lon="7.14897">
        <ele>817.40002441406</ele>
        <time>2021-02-25T14:03:09.000Z</time>
      </trkpt>
      <trkpt lat="43.75768" lon="7.14898">
        <ele>817.79998779297</ele>
        <time>2021-02-25T14:03:10.000Z</time>
      </trkpt>
      <trkpt lat="43.75774" lon="7.14901">
        <ele>818.40002441406</ele>
        <time>2021-02-25T14:03:13.000Z</time>
      </trkpt>
      <trkpt lat="43.75776" lon="7.149">
        <ele>818.79998779297</ele>
        <time>2021-02-25T14:03:14.000Z</time>
      </trkpt>
      <trkpt lat="43.75782" lon="7.14899">
        <ele>819.79998779297</ele>
        <time>2021-02-25T14:03:17.000Z</time>
      </trkpt>
      <trkpt lat="43.75786" lon="7.14899">
        <ele>820.59997558594</ele>
        <time>2021-02-25T14:03:19.000Z</time>
      </trkpt>
      <trkpt lat="43.7579" lon="7.149">
        <ele>821</ele>
        <time>2021-02-25T14:03:21.000Z</time>
      </trkpt>
      <trkpt lat="43.75795" lon="7.14903">
        <ele>821.79998779297</ele>
        <time>2021-02-25T14:03:24.000Z</time>
      </trkpt>
      <trkpt lat="43.75797" lon="7.14903">
        <ele>822.20001220703</ele>
        <time>2021-02-25T14:03:25.000Z</time>
      </trkpt>
      <trkpt lat="43.75803" lon="7.14902">
        <ele>823.20001220703</ele>
        <time>2021-02-25T14:03:28.000Z</time>
      </trkpt>
      <trkpt lat="43.75811" lon="7.14901">
        <ele>824</ele>
        <time>2021-02-25T14:03:32.000Z</time>
      </trkpt>
      <trkpt lat="43.75813" lon="7.14899">
        <ele>824.20001220703</ele>
        <time>2021-02-25T14:03:33.000Z</time>
      </trkpt>
      <trkpt lat="43.75815" lon="7.14898">
        <ele>824.40002441406</ele>
        <time>2021-02-25T14:03:34.000Z</time>
      </trkpt>
      <trkpt lat="43.75822" lon="7.14896">
        <ele>825.20001220703</ele>
        <time>2021-02-25T14:03:37.000Z</time>
      </trkpt>
      <trkpt lat="43.75826" lon="7.14895">
        <ele>825.40002441406</ele>
        <time>2021-02-25T14:03:39.000Z</time>
      </trkpt>
      <trkpt lat="43.75831" lon="7.14893">
        <ele>826.20001220703</ele>
        <time>2021-02-25T14:03:42.000Z</time>
      </trkpt>
      <trkpt lat="43.75833" lon="7.14892">
        <ele>826.59997558594</ele>
        <time>2021-02-25T14:03:43.000Z</time>
      </trkpt>
      <trkpt lat="43.75841" lon="7.14883">
        <ele>827.59997558594</ele>
        <time>2021-02-25T14:03:48.000Z</time>
      </trkpt>
      <trkpt lat="43.75847" lon="7.14875">
        <ele>828.20001220703</ele>
        <time>2021-02-25T14:03:53.000Z</time>
      </trkpt>
      <trkpt lat="43.75853" lon="7.1487">
        <ele>828.59997558594</ele>
        <time>2021-02-25T14:03:57.000Z</time>
      </trkpt>
      <trkpt lat="43.75857" lon="7.1487">
        <ele>828.59997558594</ele>
        <time>2021-02-25T14:03:59.000Z</time>
      </trkpt>
      <trkpt lat="43.75864" lon="7.14869">
        <ele>828.79998779297</ele>
        <time>2021-02-25T14:04:02.000Z</time>
      </trkpt>
      <trkpt lat="43.75876" lon="7.1486">
        <ele>829.20001220703</ele>
        <time>2021-02-25T14:04:08.000Z</time>
      </trkpt>
      <trkpt lat="43.75888" lon="7.14855">
        <ele>829.20001220703</ele>
        <time>2021-02-25T14:04:12.000Z</time>
      </trkpt>
      <trkpt lat="43.75905" lon="7.14849">
        <ele>829.20001220703</ele>
        <time>2021-02-25T14:04:16.000Z</time>
      </trkpt>
      <trkpt lat="43.7591" lon="7.14849">
        <ele>829</ele>
        <time>2021-02-25T14:04:17.000Z</time>
      </trkpt>
      <trkpt lat="43.75925" lon="7.14856">
        <ele>829</ele>
        <time>2021-02-25T14:04:21.000Z</time>
      </trkpt>
      <trkpt lat="43.75929" lon="7.1486">
        <ele>829</ele>
        <time>2021-02-25T14:04:23.000Z</time>
      </trkpt>
      <trkpt lat="43.75933" lon="7.14863">
        <ele>829.59997558594</ele>
        <time>2021-02-25T14:04:25.000Z</time>
      </trkpt>
      <trkpt lat="43.75934" lon="7.14864">
        <ele>830</ele>
        <time>2021-02-25T14:04:26.000Z</time>
      </trkpt>
      <trkpt lat="43.75936" lon="7.14865">
        <ele>830.79998779297</ele>
        <time>2021-02-25T14:04:28.000Z</time>
      </trkpt>
      <trkpt lat="43.75943" lon="7.14867">
        <ele>831.40002441406</ele>
        <time>2021-02-25T14:04:31.000Z</time>
      </trkpt>
      <trkpt lat="43.75955" lon="7.14868">
        <ele>831.79998779297</ele>
        <time>2021-02-25T14:04:35.000Z</time>
      </trkpt>
      <trkpt lat="43.75963" lon="7.14867">
        <ele>832.79998779297</ele>
        <time>2021-02-25T14:04:38.000Z</time>
      </trkpt>
      <trkpt lat="43.75965" lon="7.14866">
        <ele>833</ele>
        <time>2021-02-25T14:04:39.000Z</time>
      </trkpt>
      <trkpt lat="43.75976" lon="7.14859">
        <ele>833.40002441406</ele>
        <time>2021-02-25T14:04:43.000Z</time>
      </trkpt>
      <trkpt lat="43.75984" lon="7.1485">
        <ele>834.59997558594</ele>
        <time>2021-02-25T14:04:47.000Z</time>
      </trkpt>
      <trkpt lat="43.75986" lon="7.14848">
        <ele>834.79998779297</ele>
        <time>2021-02-25T14:04:48.000Z</time>
      </trkpt>
      <trkpt lat="43.75996" lon="7.14846">
        <ele>835.40002441406</ele>
        <time>2021-02-25T14:04:53.000Z</time>
      </trkpt>
      <trkpt lat="43.76002" lon="7.14846">
        <ele>835.79998779297</ele>
        <time>2021-02-25T14:04:56.000Z</time>
      </trkpt>
      <trkpt lat="43.76011" lon="7.14852">
        <ele>836.40002441406</ele>
        <time>2021-02-25T14:05:01.000Z</time>
      </trkpt>
      <trkpt lat="43.76013" lon="7.14855">
        <ele>836.79998779297</ele>
        <time>2021-02-25T14:05:02.000Z</time>
      </trkpt>
      <trkpt lat="43.76021" lon="7.14861">
        <ele>838</ele>
        <time>2021-02-25T14:05:06.000Z</time>
      </trkpt>
      <trkpt lat="43.76023" lon="7.14861">
        <ele>838.20001220703</ele>
        <time>2021-02-25T14:05:07.000Z</time>
      </trkpt>
      <trkpt lat="43.7603" lon="7.14863">
        <ele>839</ele>
        <time>2021-02-25T14:05:10.000Z</time>
      </trkpt>
      <trkpt lat="43.76036" lon="7.14862">
        <ele>839.79998779297</ele>
        <time>2021-02-25T14:05:13.000Z</time>
      </trkpt>
      <trkpt lat="43.76038" lon="7.14862">
        <ele>840.20001220703</ele>
        <time>2021-02-25T14:05:14.000Z</time>
      </trkpt>
      <trkpt lat="43.76048" lon="7.14864">
        <ele>841.40002441406</ele>
        <time>2021-02-25T14:05:19.000Z</time>
      </trkpt>
      <trkpt lat="43.76049" lon="7.14864">
        <ele>841.40002441406</ele>
        <time>2021-02-25T14:05:20.000Z</time>
      </trkpt>
      <trkpt lat="43.76053" lon="7.14864">
        <ele>842.40002441406</ele>
        <time>2021-02-25T14:05:22.000Z</time>
      </trkpt>
      <trkpt lat="43.76058" lon="7.14866">
        <ele>843.59997558594</ele>
        <time>2021-02-25T14:05:25.000Z</time>
      </trkpt>
      <trkpt lat="43.76065" lon="7.14869">
        <ele>845</ele>
        <time>2021-02-25T14:05:29.000Z</time>
      </trkpt>
      <trkpt lat="43.76069" lon="7.14873">
        <ele>846.20001220703</ele>
        <time>2021-02-25T14:05:32.000Z</time>
      </trkpt>
      <trkpt lat="43.76071" lon="7.14875">
        <ele>846.79998779297</ele>
        <time>2021-02-25T14:05:34.000Z</time>
      </trkpt>
      <trkpt lat="43.76073" lon="7.14876">
        <ele>847</ele>
        <time>2021-02-25T14:05:35.000Z</time>
      </trkpt>
      <trkpt lat="43.76076" lon="7.14875">
        <ele>847.40002441406</ele>
        <time>2021-02-25T14:05:37.000Z</time>
      </trkpt>
      <trkpt lat="43.76078" lon="7.14876">
        <ele>847.59997558594</ele>
        <time>2021-02-25T14:05:38.000Z</time>
      </trkpt>
      <trkpt lat="43.76079" lon="7.14877">
        <ele>848</ele>
        <time>2021-02-25T14:05:39.000Z</time>
      </trkpt>
      <trkpt lat="43.76082" lon="7.14879">
        <ele>848.59997558594</ele>
        <time>2021-02-25T14:05:41.000Z</time>
      </trkpt>
      <trkpt lat="43.76083" lon="7.1488">
        <ele>849.20001220703</ele>
        <time>2021-02-25T14:05:42.000Z</time>
      </trkpt>
      <trkpt lat="43.76084" lon="7.14881">
        <ele>849.40002441406</ele>
        <time>2021-02-25T14:05:43.000Z</time>
      </trkpt>
      <trkpt lat="43.76086" lon="7.14882">
        <ele>849.79998779297</ele>
        <time>2021-02-25T14:05:44.000Z</time>
      </trkpt>
      <trkpt lat="43.76091" lon="7.14888">
        <ele>850.59997558594</ele>
        <time>2021-02-25T14:05:49.000Z</time>
      </trkpt>
      <trkpt lat="43.76093" lon="7.14889">
        <ele>850.79998779297</ele>
        <time>2021-02-25T14:05:50.000Z</time>
      </trkpt>
      <trkpt lat="43.76097" lon="7.1489">
        <ele>851.20001220703</ele>
        <time>2021-02-25T14:05:53.000Z</time>
      </trkpt>
      <trkpt lat="43.76098" lon="7.14889">
        <ele>851.20001220703</ele>
        <time>2021-02-25T14:05:54.000Z</time>
      </trkpt>
      <trkpt lat="43.76107" lon="7.14888">
        <ele>851</ele>
        <time>2021-02-25T14:05:58.000Z</time>
      </trkpt>
      <trkpt lat="43.76109" lon="7.14889">
        <ele>850.79998779297</ele>
        <time>2021-02-25T14:05:59.000Z</time>
      </trkpt>
      <trkpt lat="43.76124" lon="7.1489">
        <ele>850.20001220703</ele>
        <time>2021-02-25T14:06:03.000Z</time>
      </trkpt>
      <trkpt lat="43.76137" lon="7.14889">
        <ele>849.40002441406</ele>
        <time>2021-02-25T14:06:05.000Z</time>
      </trkpt>
      <trkpt lat="43.76151" lon="7.14888">
        <ele>847.40002441406</ele>
        <time>2021-02-25T14:06:07.000Z</time>
      </trkpt>
      <trkpt lat="43.76165" lon="7.14886">
        <ele>845.59997558594</ele>
        <time>2021-02-25T14:06:09.000Z</time>
      </trkpt>
      <trkpt lat="43.7618" lon="7.14883">
        <ele>845.20001220703</ele>
        <time>2021-02-25T14:06:12.000Z</time>
      </trkpt>
      <trkpt lat="43.76182" lon="7.14883">
        <ele>844.79998779297</ele>
        <time>2021-02-25T14:06:13.000Z</time>
      </trkpt>
      <trkpt lat="43.76188" lon="7.14888">
        <ele>846</ele>
        <time>2021-02-25T14:06:15.000Z</time>
      </trkpt>
      <trkpt lat="43.76195" lon="7.14897">
        <ele>846.59997558594</ele>
        <time>2021-02-25T14:06:18.000Z</time>
      </trkpt>
      <trkpt lat="43.76198" lon="7.14907">
        <ele>846.79998779297</ele>
        <time>2021-02-25T14:06:20.000Z</time>
      </trkpt>
      <trkpt lat="43.76205" lon="7.14918">
        <ele>847</ele>
        <time>2021-02-25T14:06:23.000Z</time>
      </trkpt>
      <trkpt lat="43.76209" lon="7.1492">
        <ele>847</ele>
        <time>2021-02-25T14:06:24.000Z</time>
      </trkpt>
      <trkpt lat="43.76224" lon="7.14928">
        <ele>845.59997558594</ele>
        <time>2021-02-25T14:06:27.000Z</time>
      </trkpt>
      <trkpt lat="43.76228" lon="7.14929">
        <ele>845.20001220703</ele>
        <time>2021-02-25T14:06:28.000Z</time>
      </trkpt>
      <trkpt lat="43.76242" lon="7.1493">
        <ele>843.79998779297</ele>
        <time>2021-02-25T14:06:31.000Z</time>
      </trkpt>
      <trkpt lat="43.76247" lon="7.14931">
        <ele>843</ele>
        <time>2021-02-25T14:06:32.000Z</time>
      </trkpt>
      <trkpt lat="43.76252" lon="7.14931">
        <ele>842.59997558594</ele>
        <time>2021-02-25T14:06:33.000Z</time>
      </trkpt>
      <trkpt lat="43.76263" lon="7.14928">
        <ele>840.79998779297</ele>
        <time>2021-02-25T14:06:35.000Z</time>
      </trkpt>
      <trkpt lat="43.76269" lon="7.14928">
        <ele>839.59997558594</ele>
        <time>2021-02-25T14:06:36.000Z</time>
      </trkpt>
      <trkpt lat="43.76276" lon="7.14925">
        <ele>838.59997558594</ele>
        <time>2021-02-25T14:06:37.000Z</time>
      </trkpt>
      <trkpt lat="43.76283" lon="7.14924">
        <ele>837.20001220703</ele>
        <time>2021-02-25T14:06:38.000Z</time>
      </trkpt>
      <trkpt lat="43.7629" lon="7.14922">
        <ele>835.59997558594</ele>
        <time>2021-02-25T14:06:39.000Z</time>
      </trkpt>
      <trkpt lat="43.76297" lon="7.14921">
        <ele>834.40002441406</ele>
        <time>2021-02-25T14:06:40.000Z</time>
      </trkpt>
      <trkpt lat="43.76303" lon="7.14921">
        <ele>833.20001220703</ele>
        <time>2021-02-25T14:06:41.000Z</time>
      </trkpt>
      <trkpt lat="43.76307" lon="7.14921">
        <ele>831.59997558594</ele>
        <time>2021-02-25T14:06:42.000Z</time>
      </trkpt>
      <trkpt lat="43.76314" lon="7.14922">
        <ele>831.20001220703</ele>
        <time>2021-02-25T14:06:44.000Z</time>
      </trkpt>
      <trkpt lat="43.76317" lon="7.14926">
        <ele>830.79998779297</ele>
        <time>2021-02-25T14:06:45.000Z</time>
      </trkpt>
      <trkpt lat="43.76319" lon="7.14928">
        <ele>830.79998779297</ele>
        <time>2021-02-25T14:06:46.000Z</time>
      </trkpt>
      <trkpt lat="43.76328" lon="7.14931">
        <ele>831.20001220703</ele>
        <time>2021-02-25T14:06:48.000Z</time>
      </trkpt>
      <trkpt lat="43.76338" lon="7.14934">
        <ele>831</ele>
        <time>2021-02-25T14:06:50.000Z</time>
      </trkpt>
      <trkpt lat="43.76343" lon="7.14935">
        <ele>830.59997558594</ele>
        <time>2021-02-25T14:06:51.000Z</time>
      </trkpt>
      <trkpt lat="43.76349" lon="7.14934">
        <ele>830.20001220703</ele>
        <time>2021-02-25T14:06:53.000Z</time>
      </trkpt>
      <trkpt lat="43.76359" lon="7.14935">
        <ele>831</ele>
        <time>2021-02-25T14:06:57.000Z</time>
      </trkpt>
      <trkpt lat="43.76374" lon="7.14935">
        <ele>831.20001220703</ele>
        <time>2021-02-25T14:07:02.000Z</time>
      </trkpt>
      <trkpt lat="43.76384" lon="7.14941">
        <ele>831.20001220703</ele>
        <time>2021-02-25T14:07:06.000Z</time>
      </trkpt>
      <trkpt lat="43.76387" lon="7.14947">
        <ele>831.40002441406</ele>
        <time>2021-02-25T14:07:09.000Z</time>
      </trkpt>
      <trkpt lat="43.76386" lon="7.14951">
        <ele>831.40002441406</ele>
        <time>2021-02-25T14:07:11.000Z</time>
      </trkpt>
      <trkpt lat="43.76385" lon="7.14952">
        <ele>831</ele>
        <time>2021-02-25T14:07:15.000Z</time>
      </trkpt>
      <trkpt lat="43.76385" lon="7.14952">
        <ele>830.79998779297</ele>
        <time>2021-02-25T14:07:30.000Z</time>
      </trkpt>
      <trkpt lat="43.76385" lon="7.14951">
        <ele>830.20001220703</ele>
        <time>2021-02-25T14:07:52.000Z</time>
      </trkpt>
      <trkpt lat="43.76385" lon="7.14951">
        <ele>830.20001220703</ele>
        <time>2021-02-25T14:08:19.000Z</time>
      </trkpt>
      <trkpt lat="43.76384" lon="7.14952">
        <ele>830.20001220703</ele>
        <time>2021-02-25T14:08:44.000Z</time>
      </trkpt>
      <trkpt lat="43.76382" lon="7.14954">
        <ele>830.20001220703</ele>
        <time>2021-02-25T14:08:46.000Z</time>
      </trkpt>
      <trkpt lat="43.76382" lon="7.14962">
        <ele>830.20001220703</ele>
        <time>2021-02-25T14:08:48.000Z</time>
      </trkpt>
      <trkpt lat="43.76381" lon="7.1497">
        <ele>829.40002441406</ele>
        <time>2021-02-25T14:08:51.000Z</time>
      </trkpt>
      <trkpt lat="43.76381" lon="7.14969">
        <ele>829</ele>
        <time>2021-02-25T14:08:52.000Z</time>
      </trkpt>
      <trkpt lat="43.76379" lon="7.14977">
        <ele>828.59997558594</ele>
        <time>2021-02-25T14:09:02.000Z</time>
      </trkpt>
      <trkpt lat="43.76375" lon="7.14986">
        <ele>828.59997558594</ele>
        <time>2021-02-25T14:09:04.000Z</time>
      </trkpt>
      <trkpt lat="43.7637" lon="7.14999">
        <ele>828</ele>
        <time>2021-02-25T14:09:06.000Z</time>
      </trkpt>
      <trkpt lat="43.76365" lon="7.15012">
        <ele>826.59997558594</ele>
        <time>2021-02-25T14:09:08.000Z</time>
      </trkpt>
      <trkpt lat="43.76363" lon="7.15018">
        <ele>825.40002441406</ele>
        <time>2021-02-25T14:09:09.000Z</time>
      </trkpt>
      <trkpt lat="43.7636" lon="7.15023">
        <ele>824.40002441406</ele>
        <time>2021-02-25T14:09:10.000Z</time>
      </trkpt>
      <trkpt lat="43.76357" lon="7.15026">
        <ele>823.59997558594</ele>
        <time>2021-02-25T14:09:11.000Z</time>
      </trkpt>
      <trkpt lat="43.76354" lon="7.15029">
        <ele>822.59997558594</ele>
        <time>2021-02-25T14:09:12.000Z</time>
      </trkpt>
      <trkpt lat="43.76349" lon="7.15041">
        <ele>821.20001220703</ele>
        <time>2021-02-25T14:09:14.000Z</time>
      </trkpt>
      <trkpt lat="43.76346" lon="7.15047">
        <ele>820.79998779297</ele>
        <time>2021-02-25T14:09:15.000Z</time>
      </trkpt>
      <trkpt lat="43.76343" lon="7.15054">
        <ele>820.20001220703</ele>
        <time>2021-02-25T14:09:16.000Z</time>
      </trkpt>
      <trkpt lat="43.76334" lon="7.1507">
        <ele>818.20001220703</ele>
        <time>2021-02-25T14:09:18.000Z</time>
      </trkpt>
      <trkpt lat="43.76331" lon="7.15078">
        <ele>817.40002441406</ele>
        <time>2021-02-25T14:09:19.000Z</time>
      </trkpt>
      <trkpt lat="43.76327" lon="7.15087">
        <ele>816</ele>
        <time>2021-02-25T14:09:20.000Z</time>
      </trkpt>
      <trkpt lat="43.76322" lon="7.15095">
        <ele>814.40002441406</ele>
        <time>2021-02-25T14:09:21.000Z</time>
      </trkpt>
      <trkpt lat="43.76317" lon="7.151">
        <ele>812.40002441406</ele>
        <time>2021-02-25T14:09:22.000Z</time>
      </trkpt>
      <trkpt lat="43.76311" lon="7.15104">
        <ele>811.40002441406</ele>
        <time>2021-02-25T14:09:23.000Z</time>
      </trkpt>
      <trkpt lat="43.76306" lon="7.15109">
        <ele>810.20001220703</ele>
        <time>2021-02-25T14:09:24.000Z</time>
      </trkpt>
      <trkpt lat="43.76303" lon="7.15114">
        <ele>808.40002441406</ele>
        <time>2021-02-25T14:09:25.000Z</time>
      </trkpt>
      <trkpt lat="43.76298" lon="7.15122">
        <ele>807.40002441406</ele>
        <time>2021-02-25T14:09:26.000Z</time>
      </trkpt>
      <trkpt lat="43.76293" lon="7.15128">
        <ele>806.59997558594</ele>
        <time>2021-02-25T14:09:27.000Z</time>
      </trkpt>
      <trkpt lat="43.76289" lon="7.15133">
        <ele>805.40002441406</ele>
        <time>2021-02-25T14:09:28.000Z</time>
      </trkpt>
      <trkpt lat="43.76286" lon="7.15137">
        <ele>803.79998779297</ele>
        <time>2021-02-25T14:09:29.000Z</time>
      </trkpt>
      <trkpt lat="43.76283" lon="7.15142">
        <ele>802</ele>
        <time>2021-02-25T14:09:30.000Z</time>
      </trkpt>
      <trkpt lat="43.76281" lon="7.15145">
        <ele>800.40002441406</ele>
        <time>2021-02-25T14:09:31.000Z</time>
      </trkpt>
      <trkpt lat="43.76283" lon="7.15149">
        <ele>799.40002441406</ele>
        <time>2021-02-25T14:09:32.000Z</time>
      </trkpt>
      <trkpt lat="43.76285" lon="7.15155">
        <ele>798.59997558594</ele>
        <time>2021-02-25T14:09:33.000Z</time>
      </trkpt>
      <trkpt lat="43.76287" lon="7.1516">
        <ele>797.40002441406</ele>
        <time>2021-02-25T14:09:34.000Z</time>
      </trkpt>
      <trkpt lat="43.76288" lon="7.15168">
        <ele>795.79998779297</ele>
        <time>2021-02-25T14:09:36.000Z</time>
      </trkpt>
      <trkpt lat="43.76287" lon="7.15174">
        <ele>794.59997558594</ele>
        <time>2021-02-25T14:09:37.000Z</time>
      </trkpt>
      <trkpt lat="43.76286" lon="7.15178">
        <ele>793.40002441406</ele>
        <time>2021-02-25T14:09:38.000Z</time>
      </trkpt>
      <trkpt lat="43.76285" lon="7.15187">
        <ele>791.79998779297</ele>
        <time>2021-02-25T14:09:40.000Z</time>
      </trkpt>
      <trkpt lat="43.76285" lon="7.15191">
        <ele>790</ele>
        <time>2021-02-25T14:09:42.000Z</time>
      </trkpt>
      <trkpt lat="43.76285" lon="7.15194">
        <ele>788.79998779297</ele>
        <time>2021-02-25T14:09:43.000Z</time>
      </trkpt>
      <trkpt lat="43.76281" lon="7.15203">
        <ele>787.59997558594</ele>
        <time>2021-02-25T14:09:45.000Z</time>
      </trkpt>
      <trkpt lat="43.76279" lon="7.15208">
        <ele>786.59997558594</ele>
        <time>2021-02-25T14:09:46.000Z</time>
      </trkpt>
      <trkpt lat="43.76277" lon="7.15212">
        <ele>785.20001220703</ele>
        <time>2021-02-25T14:09:47.000Z</time>
      </trkpt>
      <trkpt lat="43.76275" lon="7.15217">
        <ele>784.20001220703</ele>
        <time>2021-02-25T14:09:48.000Z</time>
      </trkpt>
      <trkpt lat="43.76274" lon="7.15222">
        <ele>783.20001220703</ele>
        <time>2021-02-25T14:09:49.000Z</time>
      </trkpt>
      <trkpt lat="43.76271" lon="7.15228">
        <ele>781.40002441406</ele>
        <time>2021-02-25T14:09:50.000Z</time>
      </trkpt>
      <trkpt lat="43.76267" lon="7.15235">
        <ele>779.79998779297</ele>
        <time>2021-02-25T14:09:51.000Z</time>
      </trkpt>
      <trkpt lat="43.76264" lon="7.15241">
        <ele>778.79998779297</ele>
        <time>2021-02-25T14:09:52.000Z</time>
      </trkpt>
      <trkpt lat="43.76261" lon="7.15247">
        <ele>777</ele>
        <time>2021-02-25T14:09:53.000Z</time>
      </trkpt>
      <trkpt lat="43.76258" lon="7.15252">
        <ele>775.20001220703</ele>
        <time>2021-02-25T14:09:54.000Z</time>
      </trkpt>
      <trkpt lat="43.76256" lon="7.15259">
        <ele>773.20001220703</ele>
        <time>2021-02-25T14:09:56.000Z</time>
      </trkpt>
      <trkpt lat="43.76254" lon="7.15263">
        <ele>772.20001220703</ele>
        <time>2021-02-25T14:09:57.000Z</time>
      </trkpt>
      <trkpt lat="43.76248" lon="7.15269">
        <ele>770.79998779297</ele>
        <time>2021-02-25T14:09:59.000Z</time>
      </trkpt>
      <trkpt lat="43.76245" lon="7.15271">
        <ele>769.79998779297</ele>
        <time>2021-02-25T14:10:00.000Z</time>
      </trkpt>
      <trkpt lat="43.76243" lon="7.15274">
        <ele>768.59997558594</ele>
        <time>2021-02-25T14:10:01.000Z</time>
      </trkpt>
      <trkpt lat="43.76238" lon="7.1528">
        <ele>767.40002441406</ele>
        <time>2021-02-25T14:10:03.000Z</time>
      </trkpt>
      <trkpt lat="43.76237" lon="7.15284">
        <ele>766.40002441406</ele>
        <time>2021-02-25T14:10:04.000Z</time>
      </trkpt>
      <trkpt lat="43.76236" lon="7.15289">
        <ele>765</ele>
        <time>2021-02-25T14:10:05.000Z</time>
      </trkpt>
      <trkpt lat="43.76231" lon="7.15296">
        <ele>763.40002441406</ele>
        <time>2021-02-25T14:10:07.000Z</time>
      </trkpt>
      <trkpt lat="43.76228" lon="7.153">
        <ele>762.40002441406</ele>
        <time>2021-02-25T14:10:08.000Z</time>
      </trkpt>
      <trkpt lat="43.76224" lon="7.15304">
        <ele>761.20001220703</ele>
        <time>2021-02-25T14:10:09.000Z</time>
      </trkpt>
      <trkpt lat="43.76218" lon="7.1531">
        <ele>759</ele>
        <time>2021-02-25T14:10:11.000Z</time>
      </trkpt>
      <trkpt lat="43.76214" lon="7.15312">
        <ele>757.79998779297</ele>
        <time>2021-02-25T14:10:12.000Z</time>
      </trkpt>
      <trkpt lat="43.76212" lon="7.15315">
        <ele>756.79998779297</ele>
        <time>2021-02-25T14:10:13.000Z</time>
      </trkpt>
      <trkpt lat="43.76211" lon="7.15318">
        <ele>755.79998779297</ele>
        <time>2021-02-25T14:10:14.000Z</time>
      </trkpt>
      <trkpt lat="43.76211" lon="7.15322">
        <ele>754.79998779297</ele>
        <time>2021-02-25T14:10:15.000Z</time>
      </trkpt>
      <trkpt lat="43.7621" lon="7.15327">
        <ele>754.40002441406</ele>
        <time>2021-02-25T14:10:16.000Z</time>
      </trkpt>
      <trkpt lat="43.76208" lon="7.15334">
        <ele>753.59997558594</ele>
        <time>2021-02-25T14:10:17.000Z</time>
      </trkpt>
      <trkpt lat="43.76201" lon="7.15339">
        <ele>752.20001220703</ele>
        <time>2021-02-25T14:10:19.000Z</time>
      </trkpt>
      <trkpt lat="43.762" lon="7.15339">
        <ele>752</ele>
        <time>2021-02-25T14:10:20.000Z</time>
      </trkpt>
      <trkpt lat="43.76199" lon="7.1534">
        <ele>751.40002441406</ele>
        <time>2021-02-25T14:10:22.000Z</time>
      </trkpt>
      <trkpt lat="43.76199" lon="7.1534">
        <ele>751.20001220703</ele>
        <time>2021-02-25T14:10:23.000Z</time>
      </trkpt>
      <trkpt lat="43.76193" lon="7.1534">
        <ele>751.20001220703</ele>
        <time>2021-02-25T14:10:28.000Z</time>
      </trkpt>
      <trkpt lat="43.76181" lon="7.15337">
        <ele>750.59997558594</ele>
        <time>2021-02-25T14:10:32.000Z</time>
      </trkpt>
      <trkpt lat="43.76177" lon="7.15334">
        <ele>750</ele>
        <time>2021-02-25T14:10:34.000Z</time>
      </trkpt>
      <trkpt lat="43.7617" lon="7.15329">
        <ele>749.20001220703</ele>
        <time>2021-02-25T14:10:37.000Z</time>
      </trkpt>
      <trkpt lat="43.76169" lon="7.15326">
        <ele>748.79998779297</ele>
        <time>2021-02-25T14:10:38.000Z</time>
      </trkpt>
      <trkpt lat="43.76166" lon="7.15326">
        <ele>747.79998779297</ele>
        <time>2021-02-25T14:10:40.000Z</time>
      </trkpt>
      <trkpt lat="43.76163" lon="7.15327">
        <ele>747.20001220703</ele>
        <time>2021-02-25T14:10:41.000Z</time>
      </trkpt>
      <trkpt lat="43.7616" lon="7.15328">
        <ele>746.40002441406</ele>
        <time>2021-02-25T14:10:42.000Z</time>
      </trkpt>
      <trkpt lat="43.7615" lon="7.15331">
        <ele>745.40002441406</ele>
        <time>2021-02-25T14:10:45.000Z</time>
      </trkpt>
      <trkpt lat="43.76145" lon="7.15332">
        <ele>744.40002441406</ele>
        <time>2021-02-25T14:10:47.000Z</time>
      </trkpt>
      <trkpt lat="43.7614" lon="7.15331">
        <ele>743</ele>
        <time>2021-02-25T14:10:49.000Z</time>
      </trkpt>
      <trkpt lat="43.76134" lon="7.15331">
        <ele>741.20001220703</ele>
        <time>2021-02-25T14:10:51.000Z</time>
      </trkpt>
      <trkpt lat="43.76131" lon="7.15333">
        <ele>740.40002441406</ele>
        <time>2021-02-25T14:10:52.000Z</time>
      </trkpt>
      <trkpt lat="43.76127" lon="7.15336">
        <ele>739.40002441406</ele>
        <time>2021-02-25T14:10:53.000Z</time>
      </trkpt>
      <trkpt lat="43.76123" lon="7.15338">
        <ele>738.20001220703</ele>
        <time>2021-02-25T14:10:54.000Z</time>
      </trkpt>
      <trkpt lat="43.7612" lon="7.1534">
        <ele>737</ele>
        <time>2021-02-25T14:10:55.000Z</time>
      </trkpt>
      <trkpt lat="43.76116" lon="7.15345">
        <ele>735.59997558594</ele>
        <time>2021-02-25T14:10:57.000Z</time>
      </trkpt>
      <trkpt lat="43.76109" lon="7.15347">
        <ele>734</ele>
        <time>2021-02-25T14:11:00.000Z</time>
      </trkpt>
      <trkpt lat="43.76106" lon="7.15347">
        <ele>733.79998779297</ele>
        <time>2021-02-25T14:11:01.000Z</time>
      </trkpt>
      <trkpt lat="43.76098" lon="7.15347">
        <ele>732</ele>
        <time>2021-02-25T14:11:03.000Z</time>
      </trkpt>
      <trkpt lat="43.76088" lon="7.15351">
        <ele>730.20001220703</ele>
        <time>2021-02-25T14:11:05.000Z</time>
      </trkpt>
      <trkpt lat="43.76083" lon="7.15353">
        <ele>728.79998779297</ele>
        <time>2021-02-25T14:11:06.000Z</time>
      </trkpt>
      <trkpt lat="43.76078" lon="7.15356">
        <ele>727.20001220703</ele>
        <time>2021-02-25T14:11:07.000Z</time>
      </trkpt>
      <trkpt lat="43.76066" lon="7.15362">
        <ele>725.79998779297</ele>
        <time>2021-02-25T14:11:09.000Z</time>
      </trkpt>
      <trkpt lat="43.76061" lon="7.15365">
        <ele>725</ele>
        <time>2021-02-25T14:11:10.000Z</time>
      </trkpt>
      <trkpt lat="43.76057" lon="7.15367">
        <ele>723.79998779297</ele>
        <time>2021-02-25T14:11:11.000Z</time>
      </trkpt>
      <trkpt lat="43.76052" lon="7.15369">
        <ele>722</ele>
        <time>2021-02-25T14:11:13.000Z</time>
      </trkpt>
      <trkpt lat="43.76048" lon="7.1537">
        <ele>720.59997558594</ele>
        <time>2021-02-25T14:11:15.000Z</time>
      </trkpt>
      <trkpt lat="43.76041" lon="7.15371">
        <ele>720</ele>
        <time>2021-02-25T14:11:17.000Z</time>
      </trkpt>
      <trkpt lat="43.76032" lon="7.15374">
        <ele>719</ele>
        <time>2021-02-25T14:11:20.000Z</time>
      </trkpt>
      <trkpt lat="43.76029" lon="7.15375">
        <ele>718.59997558594</ele>
        <time>2021-02-25T14:11:21.000Z</time>
      </trkpt>
      <trkpt lat="43.76027" lon="7.15377">
        <ele>718</ele>
        <time>2021-02-25T14:11:22.000Z</time>
      </trkpt>
      <trkpt lat="43.76021" lon="7.15381">
        <ele>716.59997558594</ele>
        <time>2021-02-25T14:11:24.000Z</time>
      </trkpt>
      <trkpt lat="43.76018" lon="7.15384">
        <ele>716</ele>
        <time>2021-02-25T14:11:25.000Z</time>
      </trkpt>
      <trkpt lat="43.76015" lon="7.15386">
        <ele>715.40002441406</ele>
        <time>2021-02-25T14:11:26.000Z</time>
      </trkpt>
      <trkpt lat="43.76008" lon="7.15391">
        <ele>713.59997558594</ele>
        <time>2021-02-25T14:11:28.000Z</time>
      </trkpt>
      <trkpt lat="43.76002" lon="7.15395">
        <ele>713</ele>
        <time>2021-02-25T14:11:30.000Z</time>
      </trkpt>
      <trkpt lat="43.76" lon="7.15396">
        <ele>712.20001220703</ele>
        <time>2021-02-25T14:11:31.000Z</time>
      </trkpt>
      <trkpt lat="43.75995" lon="7.15398">
        <ele>711</ele>
        <time>2021-02-25T14:11:33.000Z</time>
      </trkpt>
      <trkpt lat="43.75991" lon="7.15401">
        <ele>709.59997558594</ele>
        <time>2021-02-25T14:11:34.000Z</time>
      </trkpt>
      <trkpt lat="43.75987" lon="7.15405">
        <ele>707.79998779297</ele>
        <time>2021-02-25T14:11:36.000Z</time>
      </trkpt>
      <trkpt lat="43.75986" lon="7.15406">
        <ele>706.59997558594</ele>
        <time>2021-02-25T14:11:37.000Z</time>
      </trkpt>
      <trkpt lat="43.75982" lon="7.15408">
        <ele>705.59997558594</ele>
        <time>2021-02-25T14:11:39.000Z</time>
      </trkpt>
      <trkpt lat="43.75976" lon="7.15413">
        <ele>704.59997558594</ele>
        <time>2021-02-25T14:11:41.000Z</time>
      </trkpt>
      <trkpt lat="43.75969" lon="7.15418">
        <ele>704.20001220703</ele>
        <time>2021-02-25T14:11:43.000Z</time>
      </trkpt>
      <trkpt lat="43.75958" lon="7.15427">
        <ele>702.40002441406</ele>
        <time>2021-02-25T14:11:46.000Z</time>
      </trkpt>
      <trkpt lat="43.75951" lon="7.15436">
        <ele>701.20001220703</ele>
        <time>2021-02-25T14:11:48.000Z</time>
      </trkpt>
      <trkpt lat="43.75944" lon="7.15445">
        <ele>700.59997558594</ele>
        <time>2021-02-25T14:11:50.000Z</time>
      </trkpt>
      <trkpt lat="43.75941" lon="7.15448">
        <ele>700.40002441406</ele>
        <time>2021-02-25T14:11:51.000Z</time>
      </trkpt>
      <trkpt lat="43.75938" lon="7.15451">
        <ele>700</ele>
        <time>2021-02-25T14:11:52.000Z</time>
      </trkpt>
      <trkpt lat="43.75928" lon="7.15465">
        <ele>699.59997558594</ele>
        <time>2021-02-25T14:11:55.000Z</time>
      </trkpt>
      <trkpt lat="43.75925" lon="7.15468">
        <ele>699.40002441406</ele>
        <time>2021-02-25T14:11:56.000Z</time>
      </trkpt>
      <trkpt lat="43.75922" lon="7.15472">
        <ele>698.59997558594</ele>
        <time>2021-02-25T14:11:58.000Z</time>
      </trkpt>
      <trkpt lat="43.75912" lon="7.15483">
        <ele>697.79998779297</ele>
        <time>2021-02-25T14:12:01.000Z</time>
      </trkpt>
      <trkpt lat="43.75909" lon="7.15487">
        <ele>697.40002441406</ele>
        <time>2021-02-25T14:12:02.000Z</time>
      </trkpt>
      <trkpt lat="43.75903" lon="7.15491">
        <ele>696.20001220703</ele>
        <time>2021-02-25T14:12:04.000Z</time>
      </trkpt>
      <trkpt lat="43.75901" lon="7.15494">
        <ele>695.79998779297</ele>
        <time>2021-02-25T14:12:05.000Z</time>
      </trkpt>
      <trkpt lat="43.75898" lon="7.15501">
        <ele>694.79998779297</ele>
        <time>2021-02-25T14:12:07.000Z</time>
      </trkpt>
      <trkpt lat="43.75894" lon="7.15508">
        <ele>694</ele>
        <time>2021-02-25T14:12:10.000Z</time>
      </trkpt>
      <trkpt lat="43.75891" lon="7.15516">
        <ele>693.59997558594</ele>
        <time>2021-02-25T14:12:12.000Z</time>
      </trkpt>
      <trkpt lat="43.75887" lon="7.15525">
        <ele>692.40002441406</ele>
        <time>2021-02-25T14:12:14.000Z</time>
      </trkpt>
      <trkpt lat="43.7588" lon="7.15545">
        <ele>691.40002441406</ele>
        <time>2021-02-25T14:12:17.000Z</time>
      </trkpt>
      <trkpt lat="43.75877" lon="7.15552">
        <ele>691</ele>
        <time>2021-02-25T14:12:18.000Z</time>
      </trkpt>
      <trkpt lat="43.75871" lon="7.15566">
        <ele>689.59997558594</ele>
        <time>2021-02-25T14:12:20.000Z</time>
      </trkpt>
      <trkpt lat="43.75868" lon="7.15582">
        <ele>688.40002441406</ele>
        <time>2021-02-25T14:12:22.000Z</time>
      </trkpt>
      <trkpt lat="43.75865" lon="7.15593">
        <ele>687</ele>
        <time>2021-02-25T14:12:24.000Z</time>
      </trkpt>
      <trkpt lat="43.75864" lon="7.15599">
        <ele>686.59997558594</ele>
        <time>2021-02-25T14:12:25.000Z</time>
      </trkpt>
      <trkpt lat="43.75861" lon="7.15611">
        <ele>685.59997558594</ele>
        <time>2021-02-25T14:12:27.000Z</time>
      </trkpt>
      <trkpt lat="43.75859" lon="7.15622">
        <ele>684.40002441406</ele>
        <time>2021-02-25T14:12:29.000Z</time>
      </trkpt>
      <trkpt lat="43.75858" lon="7.15635">
        <ele>683.59997558594</ele>
        <time>2021-02-25T14:12:31.000Z</time>
      </trkpt>
      <trkpt lat="43.75858" lon="7.15642">
        <ele>683</ele>
        <time>2021-02-25T14:12:32.000Z</time>
      </trkpt>
      <trkpt lat="43.75857" lon="7.15656">
        <ele>681.40002441406</ele>
        <time>2021-02-25T14:12:35.000Z</time>
      </trkpt>
      <trkpt lat="43.75856" lon="7.15661">
        <ele>681</ele>
        <time>2021-02-25T14:12:36.000Z</time>
      </trkpt>
      <trkpt lat="43.75855" lon="7.15683">
        <ele>680</ele>
        <time>2021-02-25T14:12:39.000Z</time>
      </trkpt>
      <trkpt lat="43.75856" lon="7.15697">
        <ele>678</ele>
        <time>2021-02-25T14:12:41.000Z</time>
      </trkpt>
      <trkpt lat="43.75856" lon="7.15701">
        <ele>676.59997558594</ele>
        <time>2021-02-25T14:12:42.000Z</time>
      </trkpt>
      <trkpt lat="43.75855" lon="7.15705">
        <ele>675.40002441406</ele>
        <time>2021-02-25T14:12:43.000Z</time>
      </trkpt>
      <trkpt lat="43.75855" lon="7.15718">
        <ele>674</ele>
        <time>2021-02-25T14:12:46.000Z</time>
      </trkpt>
      <trkpt lat="43.75855" lon="7.15725">
        <ele>673.40002441406</ele>
        <time>2021-02-25T14:12:48.000Z</time>
      </trkpt>
      <trkpt lat="43.75855" lon="7.15729">
        <ele>673</ele>
        <time>2021-02-25T14:12:49.000Z</time>
      </trkpt>
      <trkpt lat="43.75855" lon="7.15739">
        <ele>671.79998779297</ele>
        <time>2021-02-25T14:12:51.000Z</time>
      </trkpt>
      <trkpt lat="43.75854" lon="7.15743">
        <ele>671.40002441406</ele>
        <time>2021-02-25T14:12:52.000Z</time>
      </trkpt>
      <trkpt lat="43.75854" lon="7.15749">
        <ele>670.20001220703</ele>
        <time>2021-02-25T14:12:53.000Z</time>
      </trkpt>
      <trkpt lat="43.75855" lon="7.15759">
        <ele>668.40002441406</ele>
        <time>2021-02-25T14:12:55.000Z</time>
      </trkpt>
      <trkpt lat="43.75855" lon="7.15763">
        <ele>667.40002441406</ele>
        <time>2021-02-25T14:12:56.000Z</time>
      </trkpt>
      <trkpt lat="43.75856" lon="7.15767">
        <ele>666.40002441406</ele>
        <time>2021-02-25T14:12:57.000Z</time>
      </trkpt>
      <trkpt lat="43.7586" lon="7.15776">
        <ele>665.20001220703</ele>
        <time>2021-02-25T14:12:59.000Z</time>
      </trkpt>
      <trkpt lat="43.75862" lon="7.15782">
        <ele>664.59997558594</ele>
        <time>2021-02-25T14:13:00.000Z</time>
      </trkpt>
      <trkpt lat="43.75863" lon="7.15787">
        <ele>664.20001220703</ele>
        <time>2021-02-25T14:13:01.000Z</time>
      </trkpt>
      <trkpt lat="43.75865" lon="7.15796">
        <ele>663.20001220703</ele>
        <time>2021-02-25T14:13:03.000Z</time>
      </trkpt>
      <trkpt lat="43.75869" lon="7.15804">
        <ele>661.79998779297</ele>
        <time>2021-02-25T14:13:05.000Z</time>
      </trkpt>
      <trkpt lat="43.75873" lon="7.15813">
        <ele>660.59997558594</ele>
        <time>2021-02-25T14:13:07.000Z</time>
      </trkpt>
      <trkpt lat="43.75877" lon="7.15818">
        <ele>660</ele>
        <time>2021-02-25T14:13:08.000Z</time>
      </trkpt>
      <trkpt lat="43.7588" lon="7.15824">
        <ele>658.79998779297</ele>
        <time>2021-02-25T14:13:09.000Z</time>
      </trkpt>
      <trkpt lat="43.75884" lon="7.15829">
        <ele>657.79998779297</ele>
        <time>2021-02-25T14:13:10.000Z</time>
      </trkpt>
      <trkpt lat="43.75888" lon="7.15833">
        <ele>656</ele>
        <time>2021-02-25T14:13:11.000Z</time>
      </trkpt>
      <trkpt lat="43.75892" lon="7.15836">
        <ele>654.79998779297</ele>
        <time>2021-02-25T14:13:12.000Z</time>
      </trkpt>
      <trkpt lat="43.75896" lon="7.15838">
        <ele>653.59997558594</ele>
        <time>2021-02-25T14:13:13.000Z</time>
      </trkpt>
      <trkpt lat="43.75903" lon="7.15843">
        <ele>652.59997558594</ele>
        <time>2021-02-25T14:13:15.000Z</time>
      </trkpt>
      <trkpt lat="43.75906" lon="7.15845">
        <ele>652.40002441406</ele>
        <time>2021-02-25T14:13:16.000Z</time>
      </trkpt>
      <trkpt lat="43.75914" lon="7.15853">
        <ele>653</ele>
        <time>2021-02-25T14:13:18.000Z</time>
      </trkpt>
      <trkpt lat="43.75923" lon="7.15862">
        <ele>652.59997558594</ele>
        <time>2021-02-25T14:13:20.000Z</time>
      </trkpt>
      <trkpt lat="43.75926" lon="7.1587">
        <ele>651</ele>
        <time>2021-02-25T14:13:23.000Z</time>
      </trkpt>
      <trkpt lat="43.75923" lon="7.15871">
        <ele>649.79998779297</ele>
        <time>2021-02-25T14:13:25.000Z</time>
      </trkpt>
      <trkpt lat="43.75918" lon="7.15871">
        <ele>648.59997558594</ele>
        <time>2021-02-25T14:13:27.000Z</time>
      </trkpt>
      <trkpt lat="43.75909" lon="7.1587">
        <ele>647.20001220703</ele>
        <time>2021-02-25T14:13:30.000Z</time>
      </trkpt>
      <trkpt lat="43.75906" lon="7.15869">
        <ele>646.20001220703</ele>
        <time>2021-02-25T14:13:31.000Z</time>
      </trkpt>
      <trkpt lat="43.75903" lon="7.15871">
        <ele>644.79998779297</ele>
        <time>2021-02-25T14:13:33.000Z</time>
      </trkpt>
      <trkpt lat="43.75903" lon="7.15872">
        <ele>644.20001220703</ele>
        <time>2021-02-25T14:13:34.000Z</time>
      </trkpt>
      <trkpt lat="43.75909" lon="7.15878">
        <ele>643.79998779297</ele>
        <time>2021-02-25T14:13:37.000Z</time>
      </trkpt>
      <trkpt lat="43.75912" lon="7.15881">
        <ele>643.20001220703</ele>
        <time>2021-02-25T14:13:38.000Z</time>
      </trkpt>
      <trkpt lat="43.75916" lon="7.15884">
        <ele>642.59997558594</ele>
        <time>2021-02-25T14:13:39.000Z</time>
      </trkpt>
      <trkpt lat="43.7592" lon="7.1589">
        <ele>641.59997558594</ele>
        <time>2021-02-25T14:13:41.000Z</time>
      </trkpt>
      <trkpt lat="43.75921" lon="7.15891">
        <ele>641</ele>
        <time>2021-02-25T14:13:42.000Z</time>
      </trkpt>
      <trkpt lat="43.75921" lon="7.15891">
        <ele>640.40002441406</ele>
        <time>2021-02-25T14:13:43.000Z</time>
      </trkpt>
      <trkpt lat="43.75921" lon="7.15891">
        <ele>639.40002441406</ele>
        <time>2021-02-25T14:13:46.000Z</time>
      </trkpt>
      <trkpt lat="43.75921" lon="7.15891">
        <ele>639</ele>
        <time>2021-02-25T14:13:47.000Z</time>
      </trkpt>
      <trkpt lat="43.75921" lon="7.15891">
        <ele>638.79998779297</ele>
        <time>2021-02-25T14:13:54.000Z</time>
      </trkpt>
      <trkpt lat="43.75921" lon="7.15892">
        <ele>638.40002441406</ele>
        <time>2021-02-25T14:14:07.000Z</time>
      </trkpt>
      <trkpt lat="43.75921" lon="7.15892">
        <ele>638.40002441406</ele>
        <time>2021-02-25T14:14:09.000Z</time>
      </trkpt>
      <trkpt lat="43.75921" lon="7.15892">
        <ele>638</ele>
        <time>2021-02-25T14:14:24.000Z</time>
      </trkpt>
      <trkpt lat="43.75922" lon="7.15894">
        <ele>637.79998779297</ele>
        <time>2021-02-25T14:14:42.000Z</time>
      </trkpt>
      <trkpt lat="43.75922" lon="7.15895">
        <ele>637.59997558594</ele>
        <time>2021-02-25T14:15:03.000Z</time>
      </trkpt>
      <trkpt lat="43.75922" lon="7.15895">
        <ele>637.20001220703</ele>
        <time>2021-02-25T14:15:05.000Z</time>
      </trkpt>
      <trkpt lat="43.75924" lon="7.15895">
        <ele>637.20001220703</ele>
        <time>2021-02-25T14:15:17.000Z</time>
      </trkpt>
      <trkpt lat="43.75932" lon="7.15899">
        <ele>637.20001220703</ele>
        <time>2021-02-25T14:15:21.000Z</time>
      </trkpt>
      <trkpt lat="43.75933" lon="7.15902">
        <ele>637.20001220703</ele>
        <time>2021-02-25T14:15:22.000Z</time>
      </trkpt>
      <trkpt lat="43.75938" lon="7.15907">
        <ele>636.79998779297</ele>
        <time>2021-02-25T14:15:24.000Z</time>
      </trkpt>
      <trkpt lat="43.75942" lon="7.15909">
        <ele>636.20001220703</ele>
        <time>2021-02-25T14:15:26.000Z</time>
      </trkpt>
      <trkpt lat="43.75944" lon="7.1591">
        <ele>636.20001220703</ele>
        <time>2021-02-25T14:15:27.000Z</time>
      </trkpt>
      <trkpt lat="43.75945" lon="7.15911">
        <ele>635.79998779297</ele>
        <time>2021-02-25T14:15:28.000Z</time>
      </trkpt>
      <trkpt lat="43.75958" lon="7.15917">
        <ele>635.40002441406</ele>
        <time>2021-02-25T14:15:33.000Z</time>
      </trkpt>
      <trkpt lat="43.75973" lon="7.15921">
        <ele>635.59997558594</ele>
        <time>2021-02-25T14:15:38.000Z</time>
      </trkpt>
      <trkpt lat="43.75992" lon="7.15927">
        <ele>635.79998779297</ele>
        <time>2021-02-25T14:15:43.000Z</time>
      </trkpt>
      <trkpt lat="43.76" lon="7.1593">
        <ele>636.20001220703</ele>
        <time>2021-02-25T14:15:45.000Z</time>
      </trkpt>
      <trkpt lat="43.76013" lon="7.15937">
        <ele>636.59997558594</ele>
        <time>2021-02-25T14:15:48.000Z</time>
      </trkpt>
      <trkpt lat="43.76016" lon="7.1594">
        <ele>636.59997558594</ele>
        <time>2021-02-25T14:15:49.000Z</time>
      </trkpt>
      <trkpt lat="43.76031" lon="7.15945">
        <ele>637</ele>
        <time>2021-02-25T14:15:54.000Z</time>
      </trkpt>
      <trkpt lat="43.76034" lon="7.15947">
        <ele>637.20001220703</ele>
        <time>2021-02-25T14:15:55.000Z</time>
      </trkpt>
      <trkpt lat="43.76046" lon="7.15953">
        <ele>638.20001220703</ele>
        <time>2021-02-25T14:15:59.000Z</time>
      </trkpt>
      <trkpt lat="43.76049" lon="7.15955">
        <ele>638.20001220703</ele>
        <time>2021-02-25T14:16:00.000Z</time>
      </trkpt>
      <trkpt lat="43.76069" lon="7.15969">
        <ele>639.40002441406</ele>
        <time>2021-02-25T14:16:07.000Z</time>
      </trkpt>
      <trkpt lat="43.76072" lon="7.15971">
        <ele>639.40002441406</ele>
        <time>2021-02-25T14:16:08.000Z</time>
      </trkpt>
      <trkpt lat="43.76095" lon="7.15988">
        <ele>639.40002441406</ele>
        <time>2021-02-25T14:16:15.000Z</time>
      </trkpt>
      <trkpt lat="43.76111" lon="7.16006">
        <ele>639.59997558594</ele>
        <time>2021-02-25T14:16:21.000Z</time>
      </trkpt>
      <trkpt lat="43.76126" lon="7.16033">
        <ele>639.79998779297</ele>
        <time>2021-02-25T14:16:28.000Z</time>
      </trkpt>
      <trkpt lat="43.76143" lon="7.16065">
        <ele>640</ele>
        <time>2021-02-25T14:16:37.000Z</time>
      </trkpt>
      <trkpt lat="43.76152" lon="7.16082">
        <ele>640</ele>
        <time>2021-02-25T14:16:42.000Z</time>
      </trkpt>
      <trkpt lat="43.76167" lon="7.161">
        <ele>640.20001220703</ele>
        <time>2021-02-25T14:16:48.000Z</time>
      </trkpt>
      <trkpt lat="43.76169" lon="7.16102">
        <ele>640.40002441406</ele>
        <time>2021-02-25T14:16:49.000Z</time>
      </trkpt>
      <trkpt lat="43.76185" lon="7.16117">
        <ele>640.59997558594</ele>
        <time>2021-02-25T14:16:55.000Z</time>
      </trkpt>
      <trkpt lat="43.7621" lon="7.1614">
        <ele>641.20001220703</ele>
        <time>2021-02-25T14:17:04.000Z</time>
      </trkpt>
      <trkpt lat="43.76234" lon="7.16157">
        <ele>641.20001220703</ele>
        <time>2021-02-25T14:17:12.000Z</time>
      </trkpt>
      <trkpt lat="43.76252" lon="7.16176">
        <ele>641</ele>
        <time>2021-02-25T14:17:19.000Z</time>
      </trkpt>
      <trkpt lat="43.76279" lon="7.16208">
        <ele>641.20001220703</ele>
        <time>2021-02-25T14:17:29.000Z</time>
      </trkpt>
      <trkpt lat="43.76286" lon="7.16218">
        <ele>641.20001220703</ele>
        <time>2021-02-25T14:17:33.000Z</time>
      </trkpt>
      <trkpt lat="43.76288" lon="7.1622">
        <ele>641</ele>
        <time>2021-02-25T14:17:35.000Z</time>
      </trkpt>
      <trkpt lat="43.76291" lon="7.16225">
        <ele>641</ele>
        <time>2021-02-25T14:17:37.000Z</time>
      </trkpt>
      <trkpt lat="43.76295" lon="7.16233">
        <ele>641.40002441406</ele>
        <time>2021-02-25T14:17:39.000Z</time>
      </trkpt>
      <trkpt lat="43.76304" lon="7.16251">
        <ele>641.40002441406</ele>
        <time>2021-02-25T14:17:43.000Z</time>
      </trkpt>
      <trkpt lat="43.76319" lon="7.16278">
        <ele>641.79998779297</ele>
        <time>2021-02-25T14:17:49.000Z</time>
      </trkpt>
      <trkpt lat="43.76324" lon="7.16284">
        <ele>641.79998779297</ele>
        <time>2021-02-25T14:17:51.000Z</time>
      </trkpt>
      <trkpt lat="43.76342" lon="7.16302">
        <ele>641.40002441406</ele>
        <time>2021-02-25T14:17:58.000Z</time>
      </trkpt>
      <trkpt lat="43.76366" lon="7.16319">
        <ele>641.59997558594</ele>
        <time>2021-02-25T14:18:06.000Z</time>
      </trkpt>
      <trkpt lat="43.76378" lon="7.16323">
        <ele>642</ele>
        <time>2021-02-25T14:18:11.000Z</time>
      </trkpt>
      <trkpt lat="43.76391" lon="7.16328">
        <ele>641.79998779297</ele>
        <time>2021-02-25T14:18:16.000Z</time>
      </trkpt>
      <trkpt lat="43.76418" lon="7.16339">
        <ele>641.20001220703</ele>
        <time>2021-02-25T14:18:24.000Z</time>
      </trkpt>
      <trkpt lat="43.76436" lon="7.16347">
        <ele>641.79998779297</ele>
        <time>2021-02-25T14:18:30.000Z</time>
      </trkpt>
      <trkpt lat="43.76458" lon="7.16352">
        <ele>641.59997558594</ele>
        <time>2021-02-25T14:18:37.000Z</time>
      </trkpt>
      <trkpt lat="43.76485" lon="7.16353">
        <ele>640.59997558594</ele>
        <time>2021-02-25T14:18:44.000Z</time>
      </trkpt>
      <trkpt lat="43.76489" lon="7.16352">
        <ele>640</ele>
        <time>2021-02-25T14:18:45.000Z</time>
      </trkpt>
      <trkpt lat="43.76498" lon="7.16349">
        <ele>639.59997558594</ele>
        <time>2021-02-25T14:18:47.000Z</time>
      </trkpt>
      <trkpt lat="43.7651" lon="7.16343">
        <ele>639</ele>
        <time>2021-02-25T14:18:50.000Z</time>
      </trkpt>
      <trkpt lat="43.76526" lon="7.1633">
        <ele>638</ele>
        <time>2021-02-25T14:18:54.000Z</time>
      </trkpt>
      <trkpt lat="43.7653" lon="7.16327">
        <ele>637.40002441406</ele>
        <time>2021-02-25T14:18:55.000Z</time>
      </trkpt>
      <trkpt lat="43.76535" lon="7.16324">
        <ele>636.79998779297</ele>
        <time>2021-02-25T14:18:56.000Z</time>
      </trkpt>
      <trkpt lat="43.76553" lon="7.16311">
        <ele>635.79998779297</ele>
        <time>2021-02-25T14:19:00.000Z</time>
      </trkpt>
      <trkpt lat="43.76558" lon="7.16308">
        <ele>635.40002441406</ele>
        <time>2021-02-25T14:19:01.000Z</time>
      </trkpt>
      <trkpt lat="43.76562" lon="7.16305">
        <ele>635.20001220703</ele>
        <time>2021-02-25T14:19:02.000Z</time>
      </trkpt>
      <trkpt lat="43.76567" lon="7.16303">
        <ele>635</ele>
        <time>2021-02-25T14:19:03.000Z</time>
      </trkpt>
      <trkpt lat="43.76571" lon="7.16301">
        <ele>634.59997558594</ele>
        <time>2021-02-25T14:19:04.000Z</time>
      </trkpt>
      <trkpt lat="43.76585" lon="7.16296">
        <ele>633.59997558594</ele>
        <time>2021-02-25T14:19:07.000Z</time>
      </trkpt>
      <trkpt lat="43.76611" lon="7.16287">
        <ele>633.59997558594</ele>
        <time>2021-02-25T14:19:13.000Z</time>
      </trkpt>
      <trkpt lat="43.76632" lon="7.16279">
        <ele>634</ele>
        <time>2021-02-25T14:19:19.000Z</time>
      </trkpt>
      <trkpt lat="43.76636" lon="7.16276">
        <ele>635.20001220703</ele>
        <time>2021-02-25T14:19:21.000Z</time>
      </trkpt>
      <trkpt lat="43.76641" lon="7.16273">
        <ele>636.40002441406</ele>
        <time>2021-02-25T14:19:23.000Z</time>
      </trkpt>
      <trkpt lat="43.76651" lon="7.16269">
        <ele>637.40002441406</ele>
        <time>2021-02-25T14:19:26.000Z</time>
      </trkpt>
      <trkpt lat="43.76655" lon="7.16267">
        <ele>637.59997558594</ele>
        <time>2021-02-25T14:19:27.000Z</time>
      </trkpt>
      <trkpt lat="43.76659" lon="7.16265">
        <ele>637.79998779297</ele>
        <time>2021-02-25T14:19:28.000Z</time>
      </trkpt>
      <trkpt lat="43.76665" lon="7.1626">
        <ele>638.40002441406</ele>
        <time>2021-02-25T14:19:30.000Z</time>
      </trkpt>
      <trkpt lat="43.76671" lon="7.16254">
        <ele>639.59997558594</ele>
        <time>2021-02-25T14:19:33.000Z</time>
      </trkpt>
      <trkpt lat="43.76675" lon="7.16249">
        <ele>640.59997558594</ele>
        <time>2021-02-25T14:19:35.000Z</time>
      </trkpt>
      <trkpt lat="43.7668" lon="7.16245">
        <ele>641.79998779297</ele>
        <time>2021-02-25T14:19:37.000Z</time>
      </trkpt>
      <trkpt lat="43.76686" lon="7.16237">
        <ele>643</ele>
        <time>2021-02-25T14:19:40.000Z</time>
      </trkpt>
      <trkpt lat="43.76695" lon="7.16225">
        <ele>644.40002441406</ele>
        <time>2021-02-25T14:19:45.000Z</time>
      </trkpt>
      <trkpt lat="43.76698" lon="7.16221">
        <ele>645</ele>
        <time>2021-02-25T14:19:47.000Z</time>
      </trkpt>
      <trkpt lat="43.767" lon="7.16219">
        <ele>645.59997558594</ele>
        <time>2021-02-25T14:19:48.000Z</time>
      </trkpt>
      <trkpt lat="43.76703" lon="7.16217">
        <ele>646.79998779297</ele>
        <time>2021-02-25T14:19:50.000Z</time>
      </trkpt>
      <trkpt lat="43.76704" lon="7.16216">
        <ele>648</ele>
        <time>2021-02-25T14:19:52.000Z</time>
      </trkpt>
      <trkpt lat="43.76704" lon="7.16215">
        <ele>648.40002441406</ele>
        <time>2021-02-25T14:20:00.000Z</time>
      </trkpt>
      <trkpt lat="43.76705" lon="7.16216">
        <ele>648.20001220703</ele>
        <time>2021-02-25T14:20:11.000Z</time>
      </trkpt>
      <trkpt lat="43.76705" lon="7.16216">
        <ele>647.79998779297</ele>
        <time>2021-02-25T14:20:25.000Z</time>
      </trkpt>
      <trkpt lat="43.76706" lon="7.16215">
        <ele>647.59997558594</ele>
        <time>2021-02-25T14:20:46.000Z</time>
      </trkpt>
      <trkpt lat="43.76717" lon="7.1621">
        <ele>647.59997558594</ele>
        <time>2021-02-25T14:20:51.000Z</time>
      </trkpt>
      <trkpt lat="43.76734" lon="7.162">
        <ele>647.40002441406</ele>
        <time>2021-02-25T14:20:57.000Z</time>
      </trkpt>
      <trkpt lat="43.76754" lon="7.16179">
        <ele>647.20001220703</ele>
        <time>2021-02-25T14:21:05.000Z</time>
      </trkpt>
      <trkpt lat="43.76762" lon="7.16167">
        <ele>647.20001220703</ele>
        <time>2021-02-25T14:21:09.000Z</time>
      </trkpt>
      <trkpt lat="43.76768" lon="7.16167">
        <ele>646.79998779297</ele>
        <time>2021-02-25T14:21:11.000Z</time>
      </trkpt>
      <trkpt lat="43.76774" lon="7.1617">
        <ele>646.79998779297</ele>
        <time>2021-02-25T14:21:13.000Z</time>
      </trkpt>
      <trkpt lat="43.76789" lon="7.16176">
        <ele>647.20001220703</ele>
        <time>2021-02-25T14:21:18.000Z</time>
      </trkpt>
      <trkpt lat="43.76807" lon="7.16178">
        <ele>647.20001220703</ele>
        <time>2021-02-25T14:21:24.000Z</time>
      </trkpt>
      <trkpt lat="43.76824" lon="7.16175">
        <ele>648</ele>
        <time>2021-02-25T14:21:29.000Z</time>
      </trkpt>
      <trkpt lat="43.76834" lon="7.16173">
        <ele>648</ele>
        <time>2021-02-25T14:21:32.000Z</time>
      </trkpt>
      <trkpt lat="43.76861" lon="7.16163">
        <ele>648.59997558594</ele>
        <time>2021-02-25T14:21:40.000Z</time>
      </trkpt>
      <trkpt lat="43.76871" lon="7.16161">
        <ele>649</ele>
        <time>2021-02-25T14:21:43.000Z</time>
      </trkpt>
      <trkpt lat="43.76884" lon="7.1616">
        <ele>649.20001220703</ele>
        <time>2021-02-25T14:21:47.000Z</time>
      </trkpt>
      <trkpt lat="43.76915" lon="7.16162">
        <ele>649.59997558594</ele>
        <time>2021-02-25T14:21:56.000Z</time>
      </trkpt>
      <trkpt lat="43.76935" lon="7.16159">
        <ele>649.40002441406</ele>
        <time>2021-02-25T14:22:02.000Z</time>
      </trkpt>
      <trkpt lat="43.76941" lon="7.16153">
        <ele>650</ele>
        <time>2021-02-25T14:22:05.000Z</time>
      </trkpt>
      <trkpt lat="43.76946" lon="7.16148">
        <ele>650.20001220703</ele>
        <time>2021-02-25T14:22:07.000Z</time>
      </trkpt>
      <trkpt lat="43.7696" lon="7.16129">
        <ele>650.40002441406</ele>
        <time>2021-02-25T14:22:13.000Z</time>
      </trkpt>
      <trkpt lat="43.76963" lon="7.16125">
        <ele>650.79998779297</ele>
        <time>2021-02-25T14:22:17.000Z</time>
      </trkpt>
      <trkpt lat="43.76964" lon="7.16125">
        <ele>651</ele>
        <time>2021-02-25T14:22:21.000Z</time>
      </trkpt>
      <trkpt lat="43.76965" lon="7.16125">
        <ele>650.59997558594</ele>
        <time>2021-02-25T14:22:35.000Z</time>
      </trkpt>
      <trkpt lat="43.76965" lon="7.16125">
        <ele>650.40002441406</ele>
        <time>2021-02-25T14:22:44.000Z</time>
      </trkpt>
      <trkpt lat="43.76967" lon="7.16124">
        <ele>650.59997558594</ele>
        <time>2021-02-25T14:22:48.000Z</time>
      </trkpt>
      <trkpt lat="43.76968" lon="7.16124">
        <ele>650.20001220703</ele>
        <time>2021-02-25T14:22:55.000Z</time>
      </trkpt>
      <trkpt lat="43.76968" lon="7.16123">
        <ele>650</ele>
        <time>2021-02-25T14:22:59.000Z</time>
      </trkpt>
      <trkpt lat="43.76968" lon="7.16124">
        <ele>649.79998779297</ele>
        <time>2021-02-25T14:23:15.000Z</time>
      </trkpt>
      <trkpt lat="43.76968" lon="7.16124">
        <ele>649.79998779297</ele>
        <time>2021-02-25T14:23:32.000Z</time>
      </trkpt>
      <trkpt lat="43.76969" lon="7.16123">
        <ele>649.59997558594</ele>
        <time>2021-02-25T14:23:40.000Z</time>
      </trkpt>
      <trkpt lat="43.76971" lon="7.1612">
        <ele>649.59997558594</ele>
        <time>2021-02-25T14:23:42.000Z</time>
      </trkpt>
      <trkpt lat="43.76974" lon="7.16117">
        <ele>649.79998779297</ele>
        <time>2021-02-25T14:23:44.000Z</time>
      </trkpt>
      <trkpt lat="43.76981" lon="7.1611">
        <ele>649.59997558594</ele>
        <time>2021-02-25T14:23:47.000Z</time>
      </trkpt>
      <trkpt lat="43.76995" lon="7.16095">
        <ele>649.20001220703</ele>
        <time>2021-02-25T14:23:53.000Z</time>
      </trkpt>
      <trkpt lat="43.77013" lon="7.16083">
        <ele>649.40002441406</ele>
        <time>2021-02-25T14:23:59.000Z</time>
      </trkpt>
      <trkpt lat="43.77039" lon="7.16072">
        <ele>649.40002441406</ele>
        <time>2021-02-25T14:24:07.000Z</time>
      </trkpt>
      <trkpt lat="43.77061" lon="7.16063">
        <ele>650</ele>
        <time>2021-02-25T14:24:14.000Z</time>
      </trkpt>
      <trkpt lat="43.77083" lon="7.16056">
        <ele>650.40002441406</ele>
        <time>2021-02-25T14:24:21.000Z</time>
      </trkpt>
      <trkpt lat="43.77107" lon="7.16052">
        <ele>651</ele>
        <time>2021-02-25T14:24:29.000Z</time>
      </trkpt>
      <trkpt lat="43.77111" lon="7.16051">
        <ele>651</ele>
        <time>2021-02-25T14:24:30.000Z</time>
      </trkpt>
      <trkpt lat="43.77127" lon="7.16048">
        <ele>651.20001220703</ele>
        <time>2021-02-25T14:24:35.000Z</time>
      </trkpt>
      <trkpt lat="43.77149" lon="7.16053">
        <ele>651.40002441406</ele>
        <time>2021-02-25T14:24:42.000Z</time>
      </trkpt>
      <trkpt lat="43.77168" lon="7.16057">
        <ele>652</ele>
        <time>2021-02-25T14:24:49.000Z</time>
      </trkpt>
      <trkpt lat="43.77177" lon="7.16058">
        <ele>652.20001220703</ele>
        <time>2021-02-25T14:24:52.000Z</time>
      </trkpt>
      <trkpt lat="43.77185" lon="7.16059">
        <ele>652.20001220703</ele>
        <time>2021-02-25T14:24:55.000Z</time>
      </trkpt>
      <trkpt lat="43.772" lon="7.16064">
        <ele>652.20001220703</ele>
        <time>2021-02-25T14:25:01.000Z</time>
      </trkpt>
      <trkpt lat="43.77213" lon="7.16064">
        <ele>652.40002441406</ele>
        <time>2021-02-25T14:25:07.000Z</time>
      </trkpt>
      <trkpt lat="43.77215" lon="7.16064">
        <ele>652</ele>
        <time>2021-02-25T14:25:16.000Z</time>
      </trkpt>
      <trkpt lat="43.77215" lon="7.16064">
        <ele>652.40002441406</ele>
        <time>2021-02-25T14:25:24.000Z</time>
      </trkpt>
      <trkpt lat="43.77215" lon="7.16064">
        <ele>652.20001220703</ele>
        <time>2021-02-25T14:25:29.000Z</time>
      </trkpt>
      <trkpt lat="43.77215" lon="7.16064">
        <ele>652</ele>
        <time>2021-02-25T14:25:38.000Z</time>
      </trkpt>
      <trkpt lat="43.77216" lon="7.16064">
        <ele>651.59997558594</ele>
        <time>2021-02-25T14:26:01.000Z</time>
      </trkpt>
      <trkpt lat="43.77216" lon="7.16064">
        <ele>651.79998779297</ele>
        <time>2021-02-25T14:26:08.000Z</time>
      </trkpt>
      <trkpt lat="43.77217" lon="7.16063">
        <ele>651.79998779297</ele>
        <time>2021-02-25T14:26:09.000Z</time>
      </trkpt>
      <trkpt lat="43.77222" lon="7.16065">
        <ele>651.59997558594</ele>
        <time>2021-02-25T14:26:12.000Z</time>
      </trkpt>
      <trkpt lat="43.77241" lon="7.16068">
        <ele>651.20001220703</ele>
        <time>2021-02-25T14:26:18.000Z</time>
      </trkpt>
      <trkpt lat="43.7726" lon="7.16077">
        <ele>651.79998779297</ele>
        <time>2021-02-25T14:26:25.000Z</time>
      </trkpt>
      <trkpt lat="43.77283" lon="7.16088">
        <ele>652.20001220703</ele>
        <time>2021-02-25T14:26:33.000Z</time>
      </trkpt>
      <trkpt lat="43.77301" lon="7.16091">
        <ele>651.79998779297</ele>
        <time>2021-02-25T14:26:39.000Z</time>
      </trkpt>
      <trkpt lat="43.77322" lon="7.16097">
        <ele>652.40002441406</ele>
        <time>2021-02-25T14:26:46.000Z</time>
      </trkpt>
      <trkpt lat="43.77339" lon="7.16102">
        <ele>653</ele>
        <time>2021-02-25T14:26:52.000Z</time>
      </trkpt>
      <trkpt lat="43.7734" lon="7.16102">
        <ele>653.20001220703</ele>
        <time>2021-02-25T14:26:56.000Z</time>
      </trkpt>
      <trkpt lat="43.77348" lon="7.16103">
        <ele>653.20001220703</ele>
        <time>2021-02-25T14:27:00.000Z</time>
      </trkpt>
      <trkpt lat="43.7736" lon="7.16105">
        <ele>653.20001220703</ele>
        <time>2021-02-25T14:27:06.000Z</time>
      </trkpt>
      <trkpt lat="43.77359" lon="7.16112">
        <ele>652.79998779297</ele>
        <time>2021-02-25T14:27:09.000Z</time>
      </trkpt>
      <trkpt lat="43.77349" lon="7.16113">
        <ele>652</ele>
        <time>2021-02-25T14:27:12.000Z</time>
      </trkpt>
      <trkpt lat="43.77344" lon="7.16112">
        <ele>651.59997558594</ele>
        <time>2021-02-25T14:27:13.000Z</time>
      </trkpt>
      <trkpt lat="43.77335" lon="7.1611">
        <ele>650.79998779297</ele>
        <time>2021-02-25T14:27:15.000Z</time>
      </trkpt>
      <trkpt lat="43.77319" lon="7.16105">
        <ele>649.40002441406</ele>
        <time>2021-02-25T14:27:18.000Z</time>
      </trkpt>
      <trkpt lat="43.77308" lon="7.16103">
        <ele>648.40002441406</ele>
        <time>2021-02-25T14:27:20.000Z</time>
      </trkpt>
      <trkpt lat="43.7729" lon="7.161">
        <ele>647.20001220703</ele>
        <time>2021-02-25T14:27:24.000Z</time>
      </trkpt>
      <trkpt lat="43.77287" lon="7.161">
        <ele>647</ele>
        <time>2021-02-25T14:27:25.000Z</time>
      </trkpt>
      <trkpt lat="43.77271" lon="7.16095">
        <ele>646.20001220703</ele>
        <time>2021-02-25T14:27:29.000Z</time>
      </trkpt>
      <trkpt lat="43.77262" lon="7.16093">
        <ele>645.59997558594</ele>
        <time>2021-02-25T14:27:31.000Z</time>
      </trkpt>
      <trkpt lat="43.77251" lon="7.1609">
        <ele>644.59997558594</ele>
        <time>2021-02-25T14:27:33.000Z</time>
      </trkpt>
      <trkpt lat="43.77241" lon="7.16088">
        <ele>643.20001220703</ele>
        <time>2021-02-25T14:27:35.000Z</time>
      </trkpt>
      <trkpt lat="43.77232" lon="7.1609">
        <ele>642.20001220703</ele>
        <time>2021-02-25T14:27:37.000Z</time>
      </trkpt>
      <trkpt lat="43.77217" lon="7.16096">
        <ele>641</ele>
        <time>2021-02-25T14:27:40.000Z</time>
      </trkpt>
      <trkpt lat="43.77211" lon="7.16095">
        <ele>640.59997558594</ele>
        <time>2021-02-25T14:27:41.000Z</time>
      </trkpt>
      <trkpt lat="43.77205" lon="7.16095">
        <ele>640.40002441406</ele>
        <time>2021-02-25T14:27:42.000Z</time>
      </trkpt>
      <trkpt lat="43.77199" lon="7.16094">
        <ele>640</ele>
        <time>2021-02-25T14:27:43.000Z</time>
      </trkpt>
      <trkpt lat="43.77186" lon="7.16092">
        <ele>638.79998779297</ele>
        <time>2021-02-25T14:27:45.000Z</time>
      </trkpt>
      <trkpt lat="43.77175" lon="7.16093">
        <ele>637.79998779297</ele>
        <time>2021-02-25T14:27:47.000Z</time>
      </trkpt>
      <trkpt lat="43.77159" lon="7.16095">
        <ele>636.59997558594</ele>
        <time>2021-02-25T14:27:50.000Z</time>
      </trkpt>
      <trkpt lat="43.77142" lon="7.16097">
        <ele>636.20001220703</ele>
        <time>2021-02-25T14:27:53.000Z</time>
      </trkpt>
      <trkpt lat="43.77129" lon="7.161">
        <ele>635.40002441406</ele>
        <time>2021-02-25T14:27:55.000Z</time>
      </trkpt>
      <trkpt lat="43.77115" lon="7.16103">
        <ele>633.79998779297</ele>
        <time>2021-02-25T14:27:57.000Z</time>
      </trkpt>
      <trkpt lat="43.77109" lon="7.16104">
        <ele>632.79998779297</ele>
        <time>2021-02-25T14:27:58.000Z</time>
      </trkpt>
      <trkpt lat="43.77101" lon="7.16105">
        <ele>632</ele>
        <time>2021-02-25T14:27:59.000Z</time>
      </trkpt>
      <trkpt lat="43.77089" lon="7.16105">
        <ele>630.40002441406</ele>
        <time>2021-02-25T14:28:01.000Z</time>
      </trkpt>
      <trkpt lat="43.77085" lon="7.16106">
        <ele>629.79998779297</ele>
        <time>2021-02-25T14:28:02.000Z</time>
      </trkpt>
      <trkpt lat="43.77083" lon="7.16106">
        <ele>629.20001220703</ele>
        <time>2021-02-25T14:28:03.000Z</time>
      </trkpt>
      <trkpt lat="43.77082" lon="7.16108">
        <ele>628.79998779297</ele>
        <time>2021-02-25T14:28:05.000Z</time>
      </trkpt>
      <trkpt lat="43.77082" lon="7.16114">
        <ele>628.79998779297</ele>
        <time>2021-02-25T14:28:08.000Z</time>
      </trkpt>
      <trkpt lat="43.77081" lon="7.16115">
        <ele>628.79998779297</ele>
        <time>2021-02-25T14:28:09.000Z</time>
      </trkpt>
      <trkpt lat="43.7708" lon="7.16119">
        <ele>628</ele>
        <time>2021-02-25T14:28:11.000Z</time>
      </trkpt>
      <trkpt lat="43.77078" lon="7.16126">
        <ele>626.79998779297</ele>
        <time>2021-02-25T14:28:13.000Z</time>
      </trkpt>
      <trkpt lat="43.7708" lon="7.16129">
        <ele>625.20001220703</ele>
        <time>2021-02-25T14:28:15.000Z</time>
      </trkpt>
      <trkpt lat="43.77082" lon="7.16134">
        <ele>623.59997558594</ele>
        <time>2021-02-25T14:28:17.000Z</time>
      </trkpt>
      <trkpt lat="43.77083" lon="7.1614">
        <ele>622.59997558594</ele>
        <time>2021-02-25T14:28:19.000Z</time>
      </trkpt>
      <trkpt lat="43.77085" lon="7.16146">
        <ele>621.40002441406</ele>
        <time>2021-02-25T14:28:21.000Z</time>
      </trkpt>
      <trkpt lat="43.77086" lon="7.1615">
        <ele>619.79998779297</ele>
        <time>2021-02-25T14:28:23.000Z</time>
      </trkpt>
      <trkpt lat="43.77086" lon="7.1615">
        <ele>618.40002441406</ele>
        <time>2021-02-25T14:28:25.000Z</time>
      </trkpt>
      <trkpt lat="43.77086" lon="7.1615">
        <ele>617</ele>
        <time>2021-02-25T14:28:27.000Z</time>
      </trkpt>
      <trkpt lat="43.77087" lon="7.16151">
        <ele>616.59997558594</ele>
        <time>2021-02-25T14:28:42.000Z</time>
      </trkpt>
      <trkpt lat="43.77085" lon="7.16154">
        <ele>616.59997558594</ele>
        <time>2021-02-25T14:28:48.000Z</time>
      </trkpt>
      <trkpt lat="43.77085" lon="7.16157">
        <ele>616.59997558594</ele>
        <time>2021-02-25T14:28:49.000Z</time>
      </trkpt>
      <trkpt lat="43.77082" lon="7.16165">
        <ele>615.79998779297</ele>
        <time>2021-02-25T14:28:52.000Z</time>
      </trkpt>
      <trkpt lat="43.7708" lon="7.16169">
        <ele>615.20001220703</ele>
        <time>2021-02-25T14:28:53.000Z</time>
      </trkpt>
      <trkpt lat="43.77078" lon="7.16173">
        <ele>614.40002441406</ele>
        <time>2021-02-25T14:28:54.000Z</time>
      </trkpt>
      <trkpt lat="43.77076" lon="7.1618">
        <ele>612.79998779297</ele>
        <time>2021-02-25T14:28:56.000Z</time>
      </trkpt>
      <trkpt lat="43.77075" lon="7.16183">
        <ele>612</ele>
        <time>2021-02-25T14:28:57.000Z</time>
      </trkpt>
      <trkpt lat="43.77074" lon="7.16185">
        <ele>611.59997558594</ele>
        <time>2021-02-25T14:28:58.000Z</time>
      </trkpt>
      <trkpt lat="43.77072" lon="7.16193">
        <ele>610.59997558594</ele>
        <time>2021-02-25T14:29:00.000Z</time>
      </trkpt>
      <trkpt lat="43.77071" lon="7.16195">
        <ele>610.20001220703</ele>
        <time>2021-02-25T14:29:01.000Z</time>
      </trkpt>
      <trkpt lat="43.77072" lon="7.16201">
        <ele>608.59997558594</ele>
        <time>2021-02-25T14:29:03.000Z</time>
      </trkpt>
      <trkpt lat="43.77073" lon="7.16204">
        <ele>608</ele>
        <time>2021-02-25T14:29:04.000Z</time>
      </trkpt>
      <trkpt lat="43.77073" lon="7.16207">
        <ele>607</ele>
        <time>2021-02-25T14:29:05.000Z</time>
      </trkpt>
      <trkpt lat="43.77073" lon="7.16214">
        <ele>605.40002441406</ele>
        <time>2021-02-25T14:29:07.000Z</time>
      </trkpt>
      <trkpt lat="43.77073" lon="7.16217">
        <ele>604.79998779297</ele>
        <time>2021-02-25T14:29:08.000Z</time>
      </trkpt>
      <trkpt lat="43.77074" lon="7.16222">
        <ele>603.79998779297</ele>
        <time>2021-02-25T14:29:09.000Z</time>
      </trkpt>
      <trkpt lat="43.77076" lon="7.16228">
        <ele>602.20001220703</ele>
        <time>2021-02-25T14:29:11.000Z</time>
      </trkpt>
      <trkpt lat="43.77077" lon="7.16231">
        <ele>600.40002441406</ele>
        <time>2021-02-25T14:29:13.000Z</time>
      </trkpt>
      <trkpt lat="43.77078" lon="7.16233">
        <ele>599.40002441406</ele>
        <time>2021-02-25T14:29:14.000Z</time>
      </trkpt>
      <trkpt lat="43.77077" lon="7.16234">
        <ele>598.79998779297</ele>
        <time>2021-02-25T14:29:15.000Z</time>
      </trkpt>
      <trkpt lat="43.77077" lon="7.16234">
        <ele>597.79998779297</ele>
        <time>2021-02-25T14:29:20.000Z</time>
      </trkpt>
      <trkpt lat="43.77079" lon="7.16237">
        <ele>597.59997558594</ele>
        <time>2021-02-25T14:29:27.000Z</time>
      </trkpt>
      <trkpt lat="43.77088" lon="7.16239">
        <ele>597.40002441406</ele>
        <time>2021-02-25T14:29:31.000Z</time>
      </trkpt>
      <trkpt lat="43.77107" lon="7.16246">
        <ele>597.20001220703</ele>
        <time>2021-02-25T14:29:38.000Z</time>
      </trkpt>
      <trkpt lat="43.77113" lon="7.16248">
        <ele>597</ele>
        <time>2021-02-25T14:29:41.000Z</time>
      </trkpt>
      <trkpt lat="43.77115" lon="7.1625">
        <ele>596.59997558594</ele>
        <time>2021-02-25T14:29:42.000Z</time>
      </trkpt>
      <trkpt lat="43.77125" lon="7.16258">
        <ele>595.79998779297</ele>
        <time>2021-02-25T14:29:45.000Z</time>
      </trkpt>
      <trkpt lat="43.77127" lon="7.16258">
        <ele>595.40002441406</ele>
        <time>2021-02-25T14:29:46.000Z</time>
      </trkpt>
      <trkpt lat="43.77131" lon="7.16257">
        <ele>595.20001220703</ele>
        <time>2021-02-25T14:29:47.000Z</time>
      </trkpt>
      <trkpt lat="43.77134" lon="7.16257">
        <ele>594.79998779297</ele>
        <time>2021-02-25T14:29:48.000Z</time>
      </trkpt>
      <trkpt lat="43.77135" lon="7.16258">
        <ele>594</ele>
        <time>2021-02-25T14:29:49.000Z</time>
      </trkpt>
      <trkpt lat="43.77136" lon="7.16258">
        <ele>593.59997558594</ele>
        <time>2021-02-25T14:29:51.000Z</time>
      </trkpt>
      <trkpt lat="43.77137" lon="7.16258">
        <ele>593.40002441406</ele>
        <time>2021-02-25T14:29:55.000Z</time>
      </trkpt>
      <trkpt lat="43.7714" lon="7.16255">
        <ele>593.40002441406</ele>
        <time>2021-02-25T14:29:57.000Z</time>
      </trkpt>
      <trkpt lat="43.77145" lon="7.16253">
        <ele>593.20001220703</ele>
        <time>2021-02-25T14:30:00.000Z</time>
      </trkpt>
      <trkpt lat="43.77146" lon="7.16254">
        <ele>593.20001220703</ele>
        <time>2021-02-25T14:30:01.000Z</time>
      </trkpt>
      <trkpt lat="43.77147" lon="7.1626">
        <ele>592.79998779297</ele>
        <time>2021-02-25T14:30:03.000Z</time>
      </trkpt>
      <trkpt lat="43.77148" lon="7.16262">
        <ele>592.59997558594</ele>
        <time>2021-02-25T14:30:04.000Z</time>
      </trkpt>
      <trkpt lat="43.77148" lon="7.16263">
        <ele>592</ele>
        <time>2021-02-25T14:30:05.000Z</time>
      </trkpt>
      <trkpt lat="43.77148" lon="7.16265">
        <ele>591.40002441406</ele>
        <time>2021-02-25T14:30:06.000Z</time>
      </trkpt>
      <trkpt lat="43.77149" lon="7.16267">
        <ele>590.20001220703</ele>
        <time>2021-02-25T14:30:09.000Z</time>
      </trkpt>
      <trkpt lat="43.77149" lon="7.16268">
        <ele>589.79998779297</ele>
        <time>2021-02-25T14:30:11.000Z</time>
      </trkpt>
      <trkpt lat="43.77153" lon="7.16267">
        <ele>589.40002441406</ele>
        <time>2021-02-25T14:30:17.000Z</time>
      </trkpt>
      <trkpt lat="43.77154" lon="7.16268">
        <ele>589.20001220703</ele>
        <time>2021-02-25T14:30:22.000Z</time>
      </trkpt>
      <trkpt lat="43.77155" lon="7.16267">
        <ele>589</ele>
        <time>2021-02-25T14:30:26.000Z</time>
      </trkpt>
      <trkpt lat="43.77156" lon="7.16263">
        <ele>589.40002441406</ele>
        <time>2021-02-25T14:30:32.000Z</time>
      </trkpt>
      <trkpt lat="43.77157" lon="7.16263">
        <ele>589.40002441406</ele>
        <time>2021-02-25T14:30:33.000Z</time>
      </trkpt>
      <trkpt lat="43.7716" lon="7.16264">
        <ele>589.40002441406</ele>
        <time>2021-02-25T14:30:35.000Z</time>
      </trkpt>
      <trkpt lat="43.77162" lon="7.16267">
        <ele>589.40002441406</ele>
        <time>2021-02-25T14:30:37.000Z</time>
      </trkpt>
      <trkpt lat="43.77165" lon="7.16275">
        <ele>588.59997558594</ele>
        <time>2021-02-25T14:30:40.000Z</time>
      </trkpt>
      <trkpt lat="43.77166" lon="7.16276">
        <ele>588</ele>
        <time>2021-02-25T14:30:41.000Z</time>
      </trkpt>
      <trkpt lat="43.77168" lon="7.16277">
        <ele>586.79998779297</ele>
        <time>2021-02-25T14:30:42.000Z</time>
      </trkpt>
      <trkpt lat="43.77171" lon="7.16278">
        <ele>585.20001220703</ele>
        <time>2021-02-25T14:30:44.000Z</time>
      </trkpt>
      <trkpt lat="43.77173" lon="7.16278">
        <ele>584.40002441406</ele>
        <time>2021-02-25T14:30:45.000Z</time>
      </trkpt>
      <trkpt lat="43.77174" lon="7.16279">
        <ele>583.79998779297</ele>
        <time>2021-02-25T14:30:46.000Z</time>
      </trkpt>
      <trkpt lat="43.77177" lon="7.16282">
        <ele>583.59997558594</ele>
        <time>2021-02-25T14:30:47.000Z</time>
      </trkpt>
      <trkpt lat="43.7718" lon="7.16288">
        <ele>582.59997558594</ele>
        <time>2021-02-25T14:30:49.000Z</time>
      </trkpt>
      <trkpt lat="43.77182" lon="7.16291">
        <ele>581.79998779297</ele>
        <time>2021-02-25T14:30:51.000Z</time>
      </trkpt>
      <trkpt lat="43.77184" lon="7.16292">
        <ele>581.20001220703</ele>
        <time>2021-02-25T14:30:52.000Z</time>
      </trkpt>
      <trkpt lat="43.77186" lon="7.16294">
        <ele>580.40002441406</ele>
        <time>2021-02-25T14:30:53.000Z</time>
      </trkpt>
      <trkpt lat="43.77187" lon="7.16295">
        <ele>579.40002441406</ele>
        <time>2021-02-25T14:30:54.000Z</time>
      </trkpt>
      <trkpt lat="43.77188" lon="7.16298">
        <ele>578.40002441406</ele>
        <time>2021-02-25T14:30:56.000Z</time>
      </trkpt>
      <trkpt lat="43.77189" lon="7.16297">
        <ele>577.20001220703</ele>
        <time>2021-02-25T14:30:58.000Z</time>
      </trkpt>
      <trkpt lat="43.77193" lon="7.163">
        <ele>576.40002441406</ele>
        <time>2021-02-25T14:31:04.000Z</time>
      </trkpt>
      <trkpt lat="43.77193" lon="7.16302">
        <ele>576.20001220703</ele>
        <time>2021-02-25T14:31:05.000Z</time>
      </trkpt>
      <trkpt lat="43.77193" lon="7.16306">
        <ele>575</ele>
        <time>2021-02-25T14:31:08.000Z</time>
      </trkpt>
      <trkpt lat="43.77193" lon="7.16308">
        <ele>574.79998779297</ele>
        <time>2021-02-25T14:31:09.000Z</time>
      </trkpt>
      <trkpt lat="43.77191" lon="7.16313">
        <ele>575</ele>
        <time>2021-02-25T14:31:14.000Z</time>
      </trkpt>
      <trkpt lat="43.77192" lon="7.16315">
        <ele>575</ele>
        <time>2021-02-25T14:31:16.000Z</time>
      </trkpt>
      <trkpt lat="43.77192" lon="7.16316">
        <ele>575</ele>
        <time>2021-02-25T14:31:19.000Z</time>
      </trkpt>
      <trkpt lat="43.77192" lon="7.16321">
        <ele>575.40002441406</ele>
        <time>2021-02-25T14:31:24.000Z</time>
      </trkpt>
      <trkpt lat="43.7719" lon="7.16325">
        <ele>575.40002441406</ele>
        <time>2021-02-25T14:31:26.000Z</time>
      </trkpt>
      <trkpt lat="43.77188" lon="7.16327">
        <ele>575.40002441406</ele>
        <time>2021-02-25T14:31:28.000Z</time>
      </trkpt>
      <trkpt lat="43.77181" lon="7.16336">
        <ele>576</ele>
        <time>2021-02-25T14:31:32.000Z</time>
      </trkpt>
      <trkpt lat="43.77179" lon="7.16339">
        <ele>576.20001220703</ele>
        <time>2021-02-25T14:31:33.000Z</time>
      </trkpt>
      <trkpt lat="43.77174" lon="7.16347">
        <ele>576.40002441406</ele>
        <time>2021-02-25T14:31:36.000Z</time>
      </trkpt>
      <trkpt lat="43.77168" lon="7.1635">
        <ele>576.59997558594</ele>
        <time>2021-02-25T14:31:38.000Z</time>
      </trkpt>
      <trkpt lat="43.77162" lon="7.16351">
        <ele>576.59997558594</ele>
        <time>2021-02-25T14:31:40.000Z</time>
      </trkpt>
      <trkpt lat="43.77147" lon="7.16349">
        <ele>576.40002441406</ele>
        <time>2021-02-25T14:31:45.000Z</time>
      </trkpt>
      <trkpt lat="43.77132" lon="7.16351">
        <ele>576.20001220703</ele>
        <time>2021-02-25T14:31:51.000Z</time>
      </trkpt>
      <trkpt lat="43.7712" lon="7.16345">
        <ele>576.40002441406</ele>
        <time>2021-02-25T14:31:55.000Z</time>
      </trkpt>
      <trkpt lat="43.77115" lon="7.16342">
        <ele>576.59997558594</ele>
        <time>2021-02-25T14:31:58.000Z</time>
      </trkpt>
      <trkpt lat="43.77106" lon="7.1634">
        <ele>577.20001220703</ele>
        <time>2021-02-25T14:32:02.000Z</time>
      </trkpt>
      <trkpt lat="43.77099" lon="7.16338">
        <ele>577.20001220703</ele>
        <time>2021-02-25T14:32:05.000Z</time>
      </trkpt>
      <trkpt lat="43.77097" lon="7.16337">
        <ele>577.20001220703</ele>
        <time>2021-02-25T14:32:06.000Z</time>
      </trkpt>
      <trkpt lat="43.77095" lon="7.16335">
        <ele>577.20001220703</ele>
        <time>2021-02-25T14:32:07.000Z</time>
      </trkpt>
      <trkpt lat="43.77084" lon="7.16329">
        <ele>577.20001220703</ele>
        <time>2021-02-25T14:32:12.000Z</time>
      </trkpt>
      <trkpt lat="43.77069" lon="7.16326">
        <ele>577.20001220703</ele>
        <time>2021-02-25T14:32:17.000Z</time>
      </trkpt>
      <trkpt lat="43.77059" lon="7.16321">
        <ele>576.59997558594</ele>
        <time>2021-02-25T14:32:21.000Z</time>
      </trkpt>
      <trkpt lat="43.77043" lon="7.16313">
        <ele>577.40002441406</ele>
        <time>2021-02-25T14:32:26.000Z</time>
      </trkpt>
      <trkpt lat="43.7703" lon="7.16311">
        <ele>577.59997558594</ele>
        <time>2021-02-25T14:32:30.000Z</time>
      </trkpt>
      <trkpt lat="43.77027" lon="7.16314">
        <ele>577.59997558594</ele>
        <time>2021-02-25T14:32:32.000Z</time>
      </trkpt>
      <trkpt lat="43.77024" lon="7.16317">
        <ele>576.79998779297</ele>
        <time>2021-02-25T14:32:34.000Z</time>
      </trkpt>
      <trkpt lat="43.77021" lon="7.16318">
        <ele>575.59997558594</ele>
        <time>2021-02-25T14:32:36.000Z</time>
      </trkpt>
      <trkpt lat="43.77018" lon="7.16318">
        <ele>574.20001220703</ele>
        <time>2021-02-25T14:32:38.000Z</time>
      </trkpt>
      <trkpt lat="43.77015" lon="7.16319">
        <ele>573.59997558594</ele>
        <time>2021-02-25T14:32:40.000Z</time>
      </trkpt>
      <trkpt lat="43.77012" lon="7.1632">
        <ele>573.20001220703</ele>
        <time>2021-02-25T14:32:41.000Z</time>
      </trkpt>
      <trkpt lat="43.77009" lon="7.1632">
        <ele>573.20001220703</ele>
        <time>2021-02-25T14:32:42.000Z</time>
      </trkpt>
      <trkpt lat="43.77004" lon="7.16319">
        <ele>572.40002441406</ele>
        <time>2021-02-25T14:32:44.000Z</time>
      </trkpt>
      <trkpt lat="43.77001" lon="7.16319">
        <ele>571.59997558594</ele>
        <time>2021-02-25T14:32:45.000Z</time>
      </trkpt>
      <trkpt lat="43.76998" lon="7.16319">
        <ele>571</ele>
        <time>2021-02-25T14:32:46.000Z</time>
      </trkpt>
      <trkpt lat="43.76994" lon="7.16318">
        <ele>570.20001220703</ele>
        <time>2021-02-25T14:32:47.000Z</time>
      </trkpt>
      <trkpt lat="43.76987" lon="7.16318">
        <ele>569</ele>
        <time>2021-02-25T14:32:49.000Z</time>
      </trkpt>
      <trkpt lat="43.7698" lon="7.16319">
        <ele>567.59997558594</ele>
        <time>2021-02-25T14:32:51.000Z</time>
      </trkpt>
      <trkpt lat="43.76974" lon="7.1632">
        <ele>566</ele>
        <time>2021-02-25T14:32:53.000Z</time>
      </trkpt>
      <trkpt lat="43.76972" lon="7.16321">
        <ele>565</ele>
        <time>2021-02-25T14:32:54.000Z</time>
      </trkpt>
      <trkpt lat="43.7697" lon="7.16324">
        <ele>563.79998779297</ele>
        <time>2021-02-25T14:32:55.000Z</time>
      </trkpt>
      <trkpt lat="43.76965" lon="7.16325">
        <ele>562.40002441406</ele>
        <time>2021-02-25T14:32:57.000Z</time>
      </trkpt>
      <trkpt lat="43.76963" lon="7.16323">
        <ele>561.59997558594</ele>
        <time>2021-02-25T14:32:58.000Z</time>
      </trkpt>
      <trkpt lat="43.7696" lon="7.16322">
        <ele>561.20001220703</ele>
        <time>2021-02-25T14:32:59.000Z</time>
      </trkpt>
      <trkpt lat="43.7695" lon="7.1632">
        <ele>561</ele>
        <time>2021-02-25T14:33:03.000Z</time>
      </trkpt>
      <trkpt lat="43.76938" lon="7.16322">
        <ele>562.20001220703</ele>
        <time>2021-02-25T14:33:08.000Z</time>
      </trkpt>
      <trkpt lat="43.76932" lon="7.16322">
        <ele>562.20001220703</ele>
        <time>2021-02-25T14:33:10.000Z</time>
      </trkpt>
      <trkpt lat="43.76926" lon="7.16323">
        <ele>562.40002441406</ele>
        <time>2021-02-25T14:33:12.000Z</time>
      </trkpt>
      <trkpt lat="43.76922" lon="7.16323">
        <ele>562.59997558594</ele>
        <time>2021-02-25T14:33:14.000Z</time>
      </trkpt>
      <trkpt lat="43.76919" lon="7.16324">
        <ele>563</ele>
        <time>2021-02-25T14:33:15.000Z</time>
      </trkpt>
      <trkpt lat="43.76916" lon="7.16325">
        <ele>563.40002441406</ele>
        <time>2021-02-25T14:33:16.000Z</time>
      </trkpt>
      <trkpt lat="43.7691" lon="7.16327">
        <ele>563.79998779297</ele>
        <time>2021-02-25T14:33:18.000Z</time>
      </trkpt>
      <trkpt lat="43.76908" lon="7.16327">
        <ele>564</ele>
        <time>2021-02-25T14:33:19.000Z</time>
      </trkpt>
      <trkpt lat="43.76895" lon="7.16333">
        <ele>564.40002441406</ele>
        <time>2021-02-25T14:33:23.000Z</time>
      </trkpt>
      <trkpt lat="43.76891" lon="7.16335">
        <ele>564.59997558594</ele>
        <time>2021-02-25T14:33:24.000Z</time>
      </trkpt>
      <trkpt lat="43.7688" lon="7.16338">
        <ele>564.40002441406</ele>
        <time>2021-02-25T14:33:28.000Z</time>
      </trkpt>
      <trkpt lat="43.76866" lon="7.16339">
        <ele>564.79998779297</ele>
        <time>2021-02-25T14:33:34.000Z</time>
      </trkpt>
      <trkpt lat="43.76859" lon="7.16337">
        <ele>565</ele>
        <time>2021-02-25T14:33:38.000Z</time>
      </trkpt>
      <trkpt lat="43.76848" lon="7.16345">
        <ele>564.79998779297</ele>
        <time>2021-02-25T14:33:43.000Z</time>
      </trkpt>
      <trkpt lat="43.76837" lon="7.16348">
        <ele>563.79998779297</ele>
        <time>2021-02-25T14:33:47.000Z</time>
      </trkpt>
      <trkpt lat="43.76834" lon="7.16349">
        <ele>563.59997558594</ele>
        <time>2021-02-25T14:33:48.000Z</time>
      </trkpt>
      <trkpt lat="43.76828" lon="7.16351">
        <ele>563</ele>
        <time>2021-02-25T14:33:51.000Z</time>
      </trkpt>
      <trkpt lat="43.76825" lon="7.16352">
        <ele>563.40002441406</ele>
        <time>2021-02-25T14:33:52.000Z</time>
      </trkpt>
      <trkpt lat="43.76819" lon="7.16355">
        <ele>563.59997558594</ele>
        <time>2021-02-25T14:33:55.000Z</time>
      </trkpt>
      <trkpt lat="43.76817" lon="7.16354">
        <ele>563.59997558594</ele>
        <time>2021-02-25T14:33:56.000Z</time>
      </trkpt>
      <trkpt lat="43.76812" lon="7.16353">
        <ele>563.79998779297</ele>
        <time>2021-02-25T14:33:59.000Z</time>
      </trkpt>
      <trkpt lat="43.7681" lon="7.16356">
        <ele>564</ele>
        <time>2021-02-25T14:34:01.000Z</time>
      </trkpt>
      <trkpt lat="43.76809" lon="7.1636">
        <ele>563.20001220703</ele>
        <time>2021-02-25T14:34:05.000Z</time>
      </trkpt>
      <trkpt lat="43.76811" lon="7.16366">
        <ele>562.40002441406</ele>
        <time>2021-02-25T14:34:08.000Z</time>
      </trkpt>
      <trkpt lat="43.76813" lon="7.16368">
        <ele>562</ele>
        <time>2021-02-25T14:34:09.000Z</time>
      </trkpt>
      <trkpt lat="43.76815" lon="7.1637">
        <ele>561.40002441406</ele>
        <time>2021-02-25T14:34:10.000Z</time>
      </trkpt>
      <trkpt lat="43.76817" lon="7.16376">
        <ele>559.79998779297</ele>
        <time>2021-02-25T14:34:12.000Z</time>
      </trkpt>
      <trkpt lat="43.76818" lon="7.16379">
        <ele>559</ele>
        <time>2021-02-25T14:34:13.000Z</time>
      </trkpt>
      <trkpt lat="43.7682" lon="7.16382">
        <ele>558</ele>
        <time>2021-02-25T14:34:14.000Z</time>
      </trkpt>
      <trkpt lat="43.76821" lon="7.16386">
        <ele>557</ele>
        <time>2021-02-25T14:34:15.000Z</time>
      </trkpt>
      <trkpt lat="43.76823" lon="7.16389">
        <ele>556.20001220703</ele>
        <time>2021-02-25T14:34:16.000Z</time>
      </trkpt>
      <trkpt lat="43.76827" lon="7.16399">
        <ele>554.20001220703</ele>
        <time>2021-02-25T14:34:18.000Z</time>
      </trkpt>
      <trkpt lat="43.76828" lon="7.16405">
        <ele>553.20001220703</ele>
        <time>2021-02-25T14:34:19.000Z</time>
      </trkpt>
      <trkpt lat="43.76829" lon="7.1641">
        <ele>552</ele>
        <time>2021-02-25T14:34:20.000Z</time>
      </trkpt>
      <trkpt lat="43.7683" lon="7.16417">
        <ele>550.20001220703</ele>
        <time>2021-02-25T14:34:22.000Z</time>
      </trkpt>
      <trkpt lat="43.76829" lon="7.16421">
        <ele>549.20001220703</ele>
        <time>2021-02-25T14:34:23.000Z</time>
      </trkpt>
      <trkpt lat="43.76828" lon="7.16424">
        <ele>548</ele>
        <time>2021-02-25T14:34:24.000Z</time>
      </trkpt>
      <trkpt lat="43.76825" lon="7.16425">
        <ele>546.79998779297</ele>
        <time>2021-02-25T14:34:25.000Z</time>
      </trkpt>
      <trkpt lat="43.76823" lon="7.16427">
        <ele>545.79998779297</ele>
        <time>2021-02-25T14:34:26.000Z</time>
      </trkpt>
      <trkpt lat="43.7682" lon="7.16429">
        <ele>544.79998779297</ele>
        <time>2021-02-25T14:34:27.000Z</time>
      </trkpt>
      <trkpt lat="43.76813" lon="7.16433">
        <ele>543.79998779297</ele>
        <time>2021-02-25T14:34:29.000Z</time>
      </trkpt>
      <trkpt lat="43.76811" lon="7.16435">
        <ele>543.40002441406</ele>
        <time>2021-02-25T14:34:30.000Z</time>
      </trkpt>
      <trkpt lat="43.76804" lon="7.16439">
        <ele>542.20001220703</ele>
        <time>2021-02-25T14:34:32.000Z</time>
      </trkpt>
      <trkpt lat="43.76801" lon="7.1644">
        <ele>541.40002441406</ele>
        <time>2021-02-25T14:34:33.000Z</time>
      </trkpt>
      <trkpt lat="43.76799" lon="7.16443">
        <ele>540.59997558594</ele>
        <time>2021-02-25T14:34:34.000Z</time>
      </trkpt>
      <trkpt lat="43.76793" lon="7.16447">
        <ele>539.59997558594</ele>
        <time>2021-02-25T14:34:36.000Z</time>
      </trkpt>
      <trkpt lat="43.76785" lon="7.16444">
        <ele>538.40002441406</ele>
        <time>2021-02-25T14:34:39.000Z</time>
      </trkpt>
      <trkpt lat="43.76783" lon="7.16443">
        <ele>538</ele>
        <time>2021-02-25T14:34:40.000Z</time>
      </trkpt>
      <trkpt lat="43.76776" lon="7.16441">
        <ele>537.79998779297</ele>
        <time>2021-02-25T14:34:43.000Z</time>
      </trkpt>
      <trkpt lat="43.76771" lon="7.16444">
        <ele>538</ele>
        <time>2021-02-25T14:34:45.000Z</time>
      </trkpt>
      <trkpt lat="43.76768" lon="7.16447">
        <ele>538</ele>
        <time>2021-02-25T14:34:46.000Z</time>
      </trkpt>
      <trkpt lat="43.76758" lon="7.16458">
        <ele>537.20001220703</ele>
        <time>2021-02-25T14:34:50.000Z</time>
      </trkpt>
      <trkpt lat="43.76754" lon="7.16461">
        <ele>536.79998779297</ele>
        <time>2021-02-25T14:34:51.000Z</time>
      </trkpt>
      <trkpt lat="43.76746" lon="7.16465">
        <ele>535.59997558594</ele>
        <time>2021-02-25T14:34:53.000Z</time>
      </trkpt>
      <trkpt lat="43.76737" lon="7.16469">
        <ele>534.79998779297</ele>
        <time>2021-02-25T14:34:57.000Z</time>
      </trkpt>
      <trkpt lat="43.76731" lon="7.16467">
        <ele>535</ele>
        <time>2021-02-25T14:34:59.000Z</time>
      </trkpt>
      <trkpt lat="43.76729" lon="7.16464">
        <ele>535.59997558594</ele>
        <time>2021-02-25T14:35:01.000Z</time>
      </trkpt>
      <trkpt lat="43.76722" lon="7.16467">
        <ele>537</ele>
        <time>2021-02-25T14:35:04.000Z</time>
      </trkpt>
      <trkpt lat="43.7672" lon="7.16467">
        <ele>537.40002441406</ele>
        <time>2021-02-25T14:35:05.000Z</time>
      </trkpt>
      <trkpt lat="43.76714" lon="7.16467">
        <ele>538</ele>
        <time>2021-02-25T14:35:08.000Z</time>
      </trkpt>
      <trkpt lat="43.76712" lon="7.16469">
        <ele>538</ele>
        <time>2021-02-25T14:35:10.000Z</time>
      </trkpt>
      <trkpt lat="43.76705" lon="7.16478">
        <ele>537.79998779297</ele>
        <time>2021-02-25T14:35:13.000Z</time>
      </trkpt>
      <trkpt lat="43.767" lon="7.16485">
        <ele>536.79998779297</ele>
        <time>2021-02-25T14:35:15.000Z</time>
      </trkpt>
      <trkpt lat="43.76689" lon="7.16494">
        <ele>535.59997558594</ele>
        <time>2021-02-25T14:35:18.000Z</time>
      </trkpt>
      <trkpt lat="43.76672" lon="7.16504">
        <ele>535</ele>
        <time>2021-02-25T14:35:23.000Z</time>
      </trkpt>
      <trkpt lat="43.76662" lon="7.16505">
        <ele>535.40002441406</ele>
        <time>2021-02-25T14:35:26.000Z</time>
      </trkpt>
      <trkpt lat="43.7666" lon="7.16505">
        <ele>535.40002441406</ele>
        <time>2021-02-25T14:35:27.000Z</time>
      </trkpt>
      <trkpt lat="43.76653" lon="7.16502">
        <ele>535.40002441406</ele>
        <time>2021-02-25T14:35:30.000Z</time>
      </trkpt>
      <trkpt lat="43.76651" lon="7.16501">
        <ele>535.40002441406</ele>
        <time>2021-02-25T14:35:31.000Z</time>
      </trkpt>
      <trkpt lat="43.76639" lon="7.16501">
        <ele>536.20001220703</ele>
        <time>2021-02-25T14:35:35.000Z</time>
      </trkpt>
      <trkpt lat="43.76626" lon="7.16496">
        <ele>535.79998779297</ele>
        <time>2021-02-25T14:35:39.000Z</time>
      </trkpt>
      <trkpt lat="43.76618" lon="7.16492">
        <ele>535.20001220703</ele>
        <time>2021-02-25T14:35:42.000Z</time>
      </trkpt>
      <trkpt lat="43.76612" lon="7.16494">
        <ele>535.59997558594</ele>
        <time>2021-02-25T14:35:44.000Z</time>
      </trkpt>
      <trkpt lat="43.76602" lon="7.16501">
        <ele>535.59997558594</ele>
        <time>2021-02-25T14:35:48.000Z</time>
      </trkpt>
      <trkpt lat="43.76596" lon="7.16506">
        <ele>533.79998779297</ele>
        <time>2021-02-25T14:35:50.000Z</time>
      </trkpt>
      <trkpt lat="43.76591" lon="7.16509">
        <ele>532.40002441406</ele>
        <time>2021-02-25T14:35:52.000Z</time>
      </trkpt>
      <trkpt lat="43.76586" lon="7.1651">
        <ele>530.79998779297</ele>
        <time>2021-02-25T14:35:54.000Z</time>
      </trkpt>
      <trkpt lat="43.76584" lon="7.16512">
        <ele>530</ele>
        <time>2021-02-25T14:35:55.000Z</time>
      </trkpt>
      <trkpt lat="43.76582" lon="7.16512">
        <ele>529.20001220703</ele>
        <time>2021-02-25T14:35:56.000Z</time>
      </trkpt>
      <trkpt lat="43.76579" lon="7.16514">
        <ele>528.40002441406</ele>
        <time>2021-02-25T14:35:57.000Z</time>
      </trkpt>
      <trkpt lat="43.76573" lon="7.16518">
        <ele>527.79998779297</ele>
        <time>2021-02-25T14:35:58.000Z</time>
      </trkpt>
      <trkpt lat="43.76568" lon="7.1652">
        <ele>527.20001220703</ele>
        <time>2021-02-25T14:35:59.000Z</time>
      </trkpt>
      <trkpt lat="43.76563" lon="7.1652">
        <ele>526.40002441406</ele>
        <time>2021-02-25T14:36:00.000Z</time>
      </trkpt>
      <trkpt lat="43.76557" lon="7.16521">
        <ele>525</ele>
        <time>2021-02-25T14:36:02.000Z</time>
      </trkpt>
      <trkpt lat="43.7655" lon="7.16524">
        <ele>524.40002441406</ele>
        <time>2021-02-25T14:36:04.000Z</time>
      </trkpt>
      <trkpt lat="43.7654" lon="7.1653">
        <ele>524.40002441406</ele>
        <time>2021-02-25T14:36:07.000Z</time>
      </trkpt>
      <trkpt lat="43.76533" lon="7.16533">
        <ele>523.79998779297</ele>
        <time>2021-02-25T14:36:09.000Z</time>
      </trkpt>
      <trkpt lat="43.76529" lon="7.16535">
        <ele>523.20001220703</ele>
        <time>2021-02-25T14:36:10.000Z</time>
      </trkpt>
      <trkpt lat="43.76525" lon="7.16537">
        <ele>522.59997558594</ele>
        <time>2021-02-25T14:36:11.000Z</time>
      </trkpt>
      <trkpt lat="43.76521" lon="7.16539">
        <ele>521.40002441406</ele>
        <time>2021-02-25T14:36:12.000Z</time>
      </trkpt>
      <trkpt lat="43.76516" lon="7.16542">
        <ele>519.79998779297</ele>
        <time>2021-02-25T14:36:14.000Z</time>
      </trkpt>
      <trkpt lat="43.76516" lon="7.16542">
        <ele>519.40002441406</ele>
        <time>2021-02-25T14:36:15.000Z</time>
      </trkpt>
      <trkpt lat="43.76511" lon="7.16546">
        <ele>519.59997558594</ele>
        <time>2021-02-25T14:36:18.000Z</time>
      </trkpt>
      <trkpt lat="43.765" lon="7.16555">
        <ele>519.59997558594</ele>
        <time>2021-02-25T14:36:22.000Z</time>
      </trkpt>
      <trkpt lat="43.76492" lon="7.16568">
        <ele>519.40002441406</ele>
        <time>2021-02-25T14:36:25.000Z</time>
      </trkpt>
      <trkpt lat="43.7649" lon="7.16573">
        <ele>519.20001220703</ele>
        <time>2021-02-25T14:36:26.000Z</time>
      </trkpt>
      <trkpt lat="43.76487" lon="7.16577">
        <ele>518.40002441406</ele>
        <time>2021-02-25T14:36:27.000Z</time>
      </trkpt>
      <trkpt lat="43.76479" lon="7.16588">
        <ele>517</ele>
        <time>2021-02-25T14:36:30.000Z</time>
      </trkpt>
      <trkpt lat="43.76478" lon="7.16589">
        <ele>516.79998779297</ele>
        <time>2021-02-25T14:36:31.000Z</time>
      </trkpt>
      <trkpt lat="43.76476" lon="7.16593">
        <ele>517.59997558594</ele>
        <time>2021-02-25T14:36:33.000Z</time>
      </trkpt>
      <trkpt lat="43.76476" lon="7.16594">
        <ele>518.20001220703</ele>
        <time>2021-02-25T14:36:35.000Z</time>
      </trkpt>
      <trkpt lat="43.76477" lon="7.16595">
        <ele>518.20001220703</ele>
        <time>2021-02-25T14:36:42.000Z</time>
      </trkpt>
      <trkpt lat="43.76477" lon="7.16595">
        <ele>518</ele>
        <time>2021-02-25T14:36:50.000Z</time>
      </trkpt>
      <trkpt lat="43.76478" lon="7.16597">
        <ele>517.40002441406</ele>
        <time>2021-02-25T14:37:01.000Z</time>
      </trkpt>
      <trkpt lat="43.76479" lon="7.16597">
        <ele>517.59997558594</ele>
        <time>2021-02-25T14:37:10.000Z</time>
      </trkpt>
      <trkpt lat="43.7648" lon="7.16596">
        <ele>517.40002441406</ele>
        <time>2021-02-25T14:37:19.000Z</time>
      </trkpt>
      <trkpt lat="43.76481" lon="7.16597">
        <ele>517.40002441406</ele>
        <time>2021-02-25T14:37:30.000Z</time>
      </trkpt>
      <trkpt lat="43.7648" lon="7.16597">
        <ele>517.40002441406</ele>
        <time>2021-02-25T14:37:37.000Z</time>
      </trkpt>
      <trkpt lat="43.7648" lon="7.16599">
        <ele>517</ele>
        <time>2021-02-25T14:37:47.000Z</time>
      </trkpt>
      <trkpt lat="43.76479" lon="7.166">
        <ele>517</ele>
        <time>2021-02-25T14:37:54.000Z</time>
      </trkpt>
      <trkpt lat="43.7648" lon="7.16599">
        <ele>517</ele>
        <time>2021-02-25T14:38:10.000Z</time>
      </trkpt>
      <trkpt lat="43.76491" lon="7.16596">
        <ele>516.40002441406</ele>
        <time>2021-02-25T14:38:14.000Z</time>
      </trkpt>
      <trkpt lat="43.76493" lon="7.16593">
        <ele>515.59997558594</ele>
        <time>2021-02-25T14:38:15.000Z</time>
      </trkpt>
      <trkpt lat="43.76496" lon="7.16592">
        <ele>514.59997558594</ele>
        <time>2021-02-25T14:38:16.000Z</time>
      </trkpt>
      <trkpt lat="43.76499" lon="7.16593">
        <ele>513.59997558594</ele>
        <time>2021-02-25T14:38:17.000Z</time>
      </trkpt>
      <trkpt lat="43.76501" lon="7.16593">
        <ele>512.79998779297</ele>
        <time>2021-02-25T14:38:18.000Z</time>
      </trkpt>
      <trkpt lat="43.76504" lon="7.16592">
        <ele>511.60000610352</ele>
        <time>2021-02-25T14:38:19.000Z</time>
      </trkpt>
      <trkpt lat="43.76508" lon="7.16592">
        <ele>510</ele>
        <time>2021-02-25T14:38:21.000Z</time>
      </trkpt>
      <trkpt lat="43.76509" lon="7.16593">
        <ele>508.79998779297</ele>
        <time>2021-02-25T14:38:22.000Z</time>
      </trkpt>
      <trkpt lat="43.76511" lon="7.16596">
        <ele>507.79998779297</ele>
        <time>2021-02-25T14:38:23.000Z</time>
      </trkpt>
      <trkpt lat="43.76511" lon="7.16599">
        <ele>506.60000610352</ele>
        <time>2021-02-25T14:38:24.000Z</time>
      </trkpt>
      <trkpt lat="43.76512" lon="7.16601">
        <ele>505.39999389648</ele>
        <time>2021-02-25T14:38:25.000Z</time>
      </trkpt>
      <trkpt lat="43.76513" lon="7.16603">
        <ele>504.20001220703</ele>
        <time>2021-02-25T14:38:26.000Z</time>
      </trkpt>
      <trkpt lat="43.76513" lon="7.16606">
        <ele>503</ele>
        <time>2021-02-25T14:38:27.000Z</time>
      </trkpt>
      <trkpt lat="43.76513" lon="7.1661">
        <ele>500.79998779297</ele>
        <time>2021-02-25T14:38:29.000Z</time>
      </trkpt>
      <trkpt lat="43.76514" lon="7.16612">
        <ele>499.79998779297</ele>
        <time>2021-02-25T14:38:30.000Z</time>
      </trkpt>
      <trkpt lat="43.76515" lon="7.16614">
        <ele>498.79998779297</ele>
        <time>2021-02-25T14:38:31.000Z</time>
      </trkpt>
      <trkpt lat="43.76518" lon="7.16615">
        <ele>496.79998779297</ele>
        <time>2021-02-25T14:38:33.000Z</time>
      </trkpt>
      <trkpt lat="43.76525" lon="7.16618">
        <ele>494.79998779297</ele>
        <time>2021-02-25T14:38:35.000Z</time>
      </trkpt>
      <trkpt lat="43.76527" lon="7.16619">
        <ele>494</ele>
        <time>2021-02-25T14:38:36.000Z</time>
      </trkpt>
      <trkpt lat="43.76528" lon="7.16622">
        <ele>492.79998779297</ele>
        <time>2021-02-25T14:38:37.000Z</time>
      </trkpt>
      <trkpt lat="43.76527" lon="7.16625">
        <ele>491.79998779297</ele>
        <time>2021-02-25T14:38:38.000Z</time>
      </trkpt>
      <trkpt lat="43.76527" lon="7.16629">
        <ele>490.79998779297</ele>
        <time>2021-02-25T14:38:39.000Z</time>
      </trkpt>
      <trkpt lat="43.76527" lon="7.16634">
        <ele>490</ele>
        <time>2021-02-25T14:38:40.000Z</time>
      </trkpt>
      <trkpt lat="43.76529" lon="7.16641">
        <ele>488.79998779297</ele>
        <time>2021-02-25T14:38:41.000Z</time>
      </trkpt>
      <trkpt lat="43.76532" lon="7.16647">
        <ele>487.79998779297</ele>
        <time>2021-02-25T14:38:42.000Z</time>
      </trkpt>
      <trkpt lat="43.76535" lon="7.16651">
        <ele>487</ele>
        <time>2021-02-25T14:38:43.000Z</time>
      </trkpt>
      <trkpt lat="43.7654" lon="7.16655">
        <ele>485.60000610352</ele>
        <time>2021-02-25T14:38:44.000Z</time>
      </trkpt>
      <trkpt lat="43.76545" lon="7.16657">
        <ele>484.39999389648</ele>
        <time>2021-02-25T14:38:45.000Z</time>
      </trkpt>
      <trkpt lat="43.76548" lon="7.16659">
        <ele>483.39999389648</ele>
        <time>2021-02-25T14:38:46.000Z</time>
      </trkpt>
      <trkpt lat="43.76552" lon="7.16663">
        <ele>481.39999389648</ele>
        <time>2021-02-25T14:38:47.000Z</time>
      </trkpt>
      <trkpt lat="43.76556" lon="7.16668">
        <ele>480.20001220703</ele>
        <time>2021-02-25T14:38:48.000Z</time>
      </trkpt>
      <trkpt lat="43.7656" lon="7.16675">
        <ele>479</ele>
        <time>2021-02-25T14:38:49.000Z</time>
      </trkpt>
      <trkpt lat="43.76564" lon="7.16681">
        <ele>478</ele>
        <time>2021-02-25T14:38:50.000Z</time>
      </trkpt>
      <trkpt lat="43.76566" lon="7.16687">
        <ele>476.79998779297</ele>
        <time>2021-02-25T14:38:51.000Z</time>
      </trkpt>
      <trkpt lat="43.76569" lon="7.16691">
        <ele>476</ele>
        <time>2021-02-25T14:38:52.000Z</time>
      </trkpt>
      <trkpt lat="43.76572" lon="7.16694">
        <ele>475</ele>
        <time>2021-02-25T14:38:53.000Z</time>
      </trkpt>
      <trkpt lat="43.76575" lon="7.16693">
        <ele>473.79998779297</ele>
        <time>2021-02-25T14:38:54.000Z</time>
      </trkpt>
      <trkpt lat="43.76578" lon="7.16692">
        <ele>472.60000610352</ele>
        <time>2021-02-25T14:38:55.000Z</time>
      </trkpt>
      <trkpt lat="43.76585" lon="7.16689">
        <ele>471.39999389648</ele>
        <time>2021-02-25T14:38:57.000Z</time>
      </trkpt>
      <trkpt lat="43.76601" lon="7.16687">
        <ele>470.60000610352</ele>
        <time>2021-02-25T14:39:01.000Z</time>
      </trkpt>
      <trkpt lat="43.76609" lon="7.16686">
        <ele>470.20001220703</ele>
        <time>2021-02-25T14:39:04.000Z</time>
      </trkpt>
      <trkpt lat="43.76612" lon="7.16686">
        <ele>470.20001220703</ele>
        <time>2021-02-25T14:39:05.000Z</time>
      </trkpt>
      <trkpt lat="43.76626" lon="7.16687">
        <ele>469.79998779297</ele>
        <time>2021-02-25T14:39:11.000Z</time>
      </trkpt>
      <trkpt lat="43.76636" lon="7.16687">
        <ele>469.20001220703</ele>
        <time>2021-02-25T14:39:15.000Z</time>
      </trkpt>
      <trkpt lat="43.76641" lon="7.16687">
        <ele>469</ele>
        <time>2021-02-25T14:39:17.000Z</time>
      </trkpt>
      <trkpt lat="43.7665" lon="7.16687">
        <ele>468.20001220703</ele>
        <time>2021-02-25T14:39:22.000Z</time>
      </trkpt>
      <trkpt lat="43.76662" lon="7.16687">
        <ele>467</ele>
        <time>2021-02-25T14:39:28.000Z</time>
      </trkpt>
      <trkpt lat="43.76664" lon="7.16687">
        <ele>466.60000610352</ele>
        <time>2021-02-25T14:39:29.000Z</time>
      </trkpt>
      <trkpt lat="43.76666" lon="7.16688">
        <ele>466</ele>
        <time>2021-02-25T14:39:34.000Z</time>
      </trkpt>
      <trkpt lat="43.76667" lon="7.1669">
        <ele>465.79998779297</ele>
        <time>2021-02-25T14:39:35.000Z</time>
      </trkpt>
      <trkpt lat="43.76669" lon="7.16697">
        <ele>465.79998779297</ele>
        <time>2021-02-25T14:39:38.000Z</time>
      </trkpt>
      <trkpt lat="43.76668" lon="7.16708">
        <ele>464.60000610352</ele>
        <time>2021-02-25T14:39:41.000Z</time>
      </trkpt>
      <trkpt lat="43.76669" lon="7.16714">
        <ele>464</ele>
        <time>2021-02-25T14:39:42.000Z</time>
      </trkpt>
      <trkpt lat="43.76669" lon="7.1672">
        <ele>463.20001220703</ele>
        <time>2021-02-25T14:39:43.000Z</time>
      </trkpt>
      <trkpt lat="43.76668" lon="7.1673">
        <ele>461.39999389648</ele>
        <time>2021-02-25T14:39:45.000Z</time>
      </trkpt>
      <trkpt lat="43.76667" lon="7.16733">
        <ele>460.39999389648</ele>
        <time>2021-02-25T14:39:46.000Z</time>
      </trkpt>
      <trkpt lat="43.76666" lon="7.16735">
        <ele>459.39999389648</ele>
        <time>2021-02-25T14:39:47.000Z</time>
      </trkpt>
      <trkpt lat="43.76666" lon="7.16737">
        <ele>458</ele>
        <time>2021-02-25T14:39:49.000Z</time>
      </trkpt>
      <trkpt lat="43.76669" lon="7.16736">
        <ele>457.20001220703</ele>
        <time>2021-02-25T14:39:51.000Z</time>
      </trkpt>
      <trkpt lat="43.76671" lon="7.16736">
        <ele>456.79998779297</ele>
        <time>2021-02-25T14:39:52.000Z</time>
      </trkpt>
      <trkpt lat="43.76672" lon="7.16738">
        <ele>456.20001220703</ele>
        <time>2021-02-25T14:39:53.000Z</time>
      </trkpt>
      <trkpt lat="43.76673" lon="7.16741">
        <ele>455.60000610352</ele>
        <time>2021-02-25T14:39:54.000Z</time>
      </trkpt>
      <trkpt lat="43.76673" lon="7.16744">
        <ele>455.20001220703</ele>
        <time>2021-02-25T14:39:55.000Z</time>
      </trkpt>
      <trkpt lat="43.76674" lon="7.16746">
        <ele>454.60000610352</ele>
        <time>2021-02-25T14:39:56.000Z</time>
      </trkpt>
      <trkpt lat="43.76676" lon="7.1675">
        <ele>453.60000610352</ele>
        <time>2021-02-25T14:39:57.000Z</time>
      </trkpt>
      <trkpt lat="43.76677" lon="7.16753">
        <ele>452.39999389648</ele>
        <time>2021-02-25T14:39:58.000Z</time>
      </trkpt>
      <trkpt lat="43.76678" lon="7.16757">
        <ele>450.20001220703</ele>
        <time>2021-02-25T14:40:00.000Z</time>
      </trkpt>
      <trkpt lat="43.76678" lon="7.1676">
        <ele>449.20001220703</ele>
        <time>2021-02-25T14:40:01.000Z</time>
      </trkpt>
      <trkpt lat="43.76679" lon="7.16765">
        <ele>447.60000610352</ele>
        <time>2021-02-25T14:40:03.000Z</time>
      </trkpt>
      <trkpt lat="43.76681" lon="7.16772">
        <ele>446.20001220703</ele>
        <time>2021-02-25T14:40:05.000Z</time>
      </trkpt>
      <trkpt lat="43.76681" lon="7.16775">
        <ele>445.20001220703</ele>
        <time>2021-02-25T14:40:06.000Z</time>
      </trkpt>
      <trkpt lat="43.76682" lon="7.16777">
        <ele>444.20001220703</ele>
        <time>2021-02-25T14:40:07.000Z</time>
      </trkpt>
      <trkpt lat="43.76682" lon="7.16781">
        <ele>443.20001220703</ele>
        <time>2021-02-25T14:40:08.000Z</time>
      </trkpt>
      <trkpt lat="43.76683" lon="7.16783">
        <ele>442.20001220703</ele>
        <time>2021-02-25T14:40:09.000Z</time>
      </trkpt>
      <trkpt lat="43.76683" lon="7.16785">
        <ele>441.20001220703</ele>
        <time>2021-02-25T14:40:10.000Z</time>
      </trkpt>
      <trkpt lat="43.76683" lon="7.16787">
        <ele>440.20001220703</ele>
        <time>2021-02-25T14:40:11.000Z</time>
      </trkpt>
      <trkpt lat="43.76681" lon="7.16792">
        <ele>438.79998779297</ele>
        <time>2021-02-25T14:40:13.000Z</time>
      </trkpt>
      <trkpt lat="43.76679" lon="7.16794">
        <ele>438</ele>
        <time>2021-02-25T14:40:14.000Z</time>
      </trkpt>
      <trkpt lat="43.76676" lon="7.16795">
        <ele>437.39999389648</ele>
        <time>2021-02-25T14:40:15.000Z</time>
      </trkpt>
      <trkpt lat="43.76669" lon="7.16796">
        <ele>436.20001220703</ele>
        <time>2021-02-25T14:40:17.000Z</time>
      </trkpt>
      <trkpt lat="43.76661" lon="7.168">
        <ele>435.39999389648</ele>
        <time>2021-02-25T14:40:19.000Z</time>
      </trkpt>
      <trkpt lat="43.76656" lon="7.16802">
        <ele>435</ele>
        <time>2021-02-25T14:40:20.000Z</time>
      </trkpt>
      <trkpt lat="43.7664" lon="7.16811">
        <ele>433.79998779297</ele>
        <time>2021-02-25T14:40:23.000Z</time>
      </trkpt>
      <trkpt lat="43.7663" lon="7.16818">
        <ele>433.20001220703</ele>
        <time>2021-02-25T14:40:25.000Z</time>
      </trkpt>
      <trkpt lat="43.76626" lon="7.16822">
        <ele>432.79998779297</ele>
        <time>2021-02-25T14:40:26.000Z</time>
      </trkpt>
      <trkpt lat="43.76607" lon="7.16835">
        <ele>431.60000610352</ele>
        <time>2021-02-25T14:40:31.000Z</time>
      </trkpt>
      <trkpt lat="43.76603" lon="7.16836">
        <ele>430.39999389648</ele>
        <time>2021-02-25T14:40:34.000Z</time>
      </trkpt>
      <trkpt lat="43.76601" lon="7.16836">
        <ele>429.79998779297</ele>
        <time>2021-02-25T14:40:40.000Z</time>
      </trkpt>
      <trkpt lat="43.76601" lon="7.16841">
        <ele>429.60000610352</ele>
        <time>2021-02-25T14:40:48.000Z</time>
      </trkpt>
      <trkpt lat="43.76602" lon="7.16846">
        <ele>429.20001220703</ele>
        <time>2021-02-25T14:40:52.000Z</time>
      </trkpt>
      <trkpt lat="43.76604" lon="7.16848">
        <ele>428.39999389648</ele>
        <time>2021-02-25T14:40:54.000Z</time>
      </trkpt>
      <trkpt lat="43.76605" lon="7.16849">
        <ele>427.79998779297</ele>
        <time>2021-02-25T14:40:55.000Z</time>
      </trkpt>
      <trkpt lat="43.7661" lon="7.16854">
        <ele>426.79998779297</ele>
        <time>2021-02-25T14:40:58.000Z</time>
      </trkpt>
      <trkpt lat="43.76612" lon="7.16854">
        <ele>426.39999389648</ele>
        <time>2021-02-25T14:40:59.000Z</time>
      </trkpt>
      <trkpt lat="43.76613" lon="7.16857">
        <ele>425.20001220703</ele>
        <time>2021-02-25T14:41:01.000Z</time>
      </trkpt>
      <trkpt lat="43.76614" lon="7.16859">
        <ele>424.60000610352</ele>
        <time>2021-02-25T14:41:02.000Z</time>
      </trkpt>
      <trkpt lat="43.76615" lon="7.16862">
        <ele>424.20001220703</ele>
        <time>2021-02-25T14:41:03.000Z</time>
      </trkpt>
      <trkpt lat="43.76615" lon="7.1687">
        <ele>422.60000610352</ele>
        <time>2021-02-25T14:41:06.000Z</time>
      </trkpt>
      <trkpt lat="43.76613" lon="7.16873">
        <ele>421.20001220703</ele>
        <time>2021-02-25T14:41:08.000Z</time>
      </trkpt>
      <trkpt lat="43.76611" lon="7.16875">
        <ele>419.79998779297</ele>
        <time>2021-02-25T14:41:10.000Z</time>
      </trkpt>
      <trkpt lat="43.76611" lon="7.16875">
        <ele>419.20001220703</ele>
        <time>2021-02-25T14:41:11.000Z</time>
      </trkpt>
      <trkpt lat="43.76611" lon="7.16876">
        <ele>418.60000610352</ele>
        <time>2021-02-25T14:41:12.000Z</time>
      </trkpt>
      <trkpt lat="43.76611" lon="7.16876">
        <ele>417.39999389648</ele>
        <time>2021-02-25T14:41:14.000Z</time>
      </trkpt>
      <trkpt lat="43.76612" lon="7.16876">
        <ele>417</ele>
        <time>2021-02-25T14:41:19.000Z</time>
      </trkpt>
      <trkpt lat="43.76613" lon="7.16883">
        <ele>416.60000610352</ele>
        <time>2021-02-25T14:41:22.000Z</time>
      </trkpt>
      <trkpt lat="43.76614" lon="7.16884">
        <ele>416</ele>
        <time>2021-02-25T14:41:23.000Z</time>
      </trkpt>
      <trkpt lat="43.76617" lon="7.16883">
        <ele>415</ele>
        <time>2021-02-25T14:41:25.000Z</time>
      </trkpt>
      <trkpt lat="43.7662" lon="7.16882">
        <ele>414.60000610352</ele>
        <time>2021-02-25T14:41:26.000Z</time>
      </trkpt>
      <trkpt lat="43.76625" lon="7.16879">
        <ele>414</ele>
        <time>2021-02-25T14:41:28.000Z</time>
      </trkpt>
      <trkpt lat="43.7663" lon="7.16878">
        <ele>414</ele>
        <time>2021-02-25T14:41:29.000Z</time>
      </trkpt>
      <trkpt lat="43.76633" lon="7.16877">
        <ele>413.79998779297</ele>
        <time>2021-02-25T14:41:30.000Z</time>
      </trkpt>
      <trkpt lat="43.76647" lon="7.16872">
        <ele>413.39999389648</ele>
        <time>2021-02-25T14:41:33.000Z</time>
      </trkpt>
      <trkpt lat="43.76652" lon="7.16871">
        <ele>413</ele>
        <time>2021-02-25T14:41:34.000Z</time>
      </trkpt>
      <trkpt lat="43.76657" lon="7.16871">
        <ele>412.60000610352</ele>
        <time>2021-02-25T14:41:35.000Z</time>
      </trkpt>
      <trkpt lat="43.76671" lon="7.16871">
        <ele>411.60000610352</ele>
        <time>2021-02-25T14:41:38.000Z</time>
      </trkpt>
      <trkpt lat="43.76675" lon="7.16872">
        <ele>411.60000610352</ele>
        <time>2021-02-25T14:41:39.000Z</time>
      </trkpt>
      <trkpt lat="43.76692" lon="7.16874">
        <ele>411.20001220703</ele>
        <time>2021-02-25T14:41:45.000Z</time>
      </trkpt>
      <trkpt lat="43.76705" lon="7.16875">
        <ele>411.39999389648</ele>
        <time>2021-02-25T14:41:50.000Z</time>
      </trkpt>
      <trkpt lat="43.76708" lon="7.16875">
        <ele>411.60000610352</ele>
        <time>2021-02-25T14:41:51.000Z</time>
      </trkpt>
      <trkpt lat="43.76719" lon="7.16876">
        <ele>411.20001220703</ele>
        <time>2021-02-25T14:41:55.000Z</time>
      </trkpt>
      <trkpt lat="43.76737" lon="7.16878">
        <ele>411.20001220703</ele>
        <time>2021-02-25T14:42:01.000Z</time>
      </trkpt>
      <trkpt lat="43.76753" lon="7.16882">
        <ele>411.20001220703</ele>
        <time>2021-02-25T14:42:06.000Z</time>
      </trkpt>
      <trkpt lat="43.76777" lon="7.1689">
        <ele>412</ele>
        <time>2021-02-25T14:42:13.000Z</time>
      </trkpt>
      <trkpt lat="43.76786" lon="7.16894">
        <ele>412.60000610352</ele>
        <time>2021-02-25T14:42:18.000Z</time>
      </trkpt>
      <trkpt lat="43.76787" lon="7.16895">
        <ele>412.60000610352</ele>
        <time>2021-02-25T14:42:19.000Z</time>
      </trkpt>
      <trkpt lat="43.76788" lon="7.16897">
        <ele>412.60000610352</ele>
        <time>2021-02-25T14:42:20.000Z</time>
      </trkpt>
      <trkpt lat="43.76786" lon="7.16899">
        <ele>412.79998779297</ele>
        <time>2021-02-25T14:42:23.000Z</time>
      </trkpt>
      <trkpt lat="43.76783" lon="7.16898">
        <ele>412.60000610352</ele>
        <time>2021-02-25T14:42:25.000Z</time>
      </trkpt>
      <trkpt lat="43.76775" lon="7.16898">
        <ele>412.60000610352</ele>
        <time>2021-02-25T14:42:27.000Z</time>
      </trkpt>
      <trkpt lat="43.76766" lon="7.169">
        <ele>411.60000610352</ele>
        <time>2021-02-25T14:42:29.000Z</time>
      </trkpt>
      <trkpt lat="43.76757" lon="7.16903">
        <ele>409.79998779297</ele>
        <time>2021-02-25T14:42:31.000Z</time>
      </trkpt>
      <trkpt lat="43.76754" lon="7.16906">
        <ele>408.79998779297</ele>
        <time>2021-02-25T14:42:32.000Z</time>
      </trkpt>
      <trkpt lat="43.7675" lon="7.16908">
        <ele>408</ele>
        <time>2021-02-25T14:42:33.000Z</time>
      </trkpt>
      <trkpt lat="43.76746" lon="7.1691">
        <ele>406.60000610352</ele>
        <time>2021-02-25T14:42:34.000Z</time>
      </trkpt>
      <trkpt lat="43.76737" lon="7.16913">
        <ele>405.39999389648</ele>
        <time>2021-02-25T14:42:36.000Z</time>
      </trkpt>
      <trkpt lat="43.76731" lon="7.16915">
        <ele>404.60000610352</ele>
        <time>2021-02-25T14:42:37.000Z</time>
      </trkpt>
      <trkpt lat="43.76726" lon="7.16917">
        <ele>403.39999389648</ele>
        <time>2021-02-25T14:42:38.000Z</time>
      </trkpt>
      <trkpt lat="43.76717" lon="7.16924">
        <ele>401.39999389648</ele>
        <time>2021-02-25T14:42:41.000Z</time>
      </trkpt>
      <trkpt lat="43.7671" lon="7.16934">
        <ele>400.39999389648</ele>
        <time>2021-02-25T14:42:43.000Z</time>
      </trkpt>
      <trkpt lat="43.76708" lon="7.1694">
        <ele>399.39999389648</ele>
        <time>2021-02-25T14:42:44.000Z</time>
      </trkpt>
      <trkpt lat="43.76705" lon="7.16954">
        <ele>398</ele>
        <time>2021-02-25T14:42:46.000Z</time>
      </trkpt>
      <trkpt lat="43.76703" lon="7.16964">
        <ele>396.79998779297</ele>
        <time>2021-02-25T14:42:47.000Z</time>
      </trkpt>
      <trkpt lat="43.76701" lon="7.16973">
        <ele>395.39999389648</ele>
        <time>2021-02-25T14:42:48.000Z</time>
      </trkpt>
      <trkpt lat="43.76697" lon="7.16992">
        <ele>393</ele>
        <time>2021-02-25T14:42:50.000Z</time>
      </trkpt>
      <trkpt lat="43.76695" lon="7.16999">
        <ele>391.79998779297</ele>
        <time>2021-02-25T14:42:51.000Z</time>
      </trkpt>
      <trkpt lat="43.76692" lon="7.17006">
        <ele>391</ele>
        <time>2021-02-25T14:42:52.000Z</time>
      </trkpt>
      <trkpt lat="43.76689" lon="7.17013">
        <ele>389.79998779297</ele>
        <time>2021-02-25T14:42:53.000Z</time>
      </trkpt>
      <trkpt lat="43.76685" lon="7.1702">
        <ele>388.79998779297</ele>
        <time>2021-02-25T14:42:54.000Z</time>
      </trkpt>
      <trkpt lat="43.76679" lon="7.1703">
        <ele>387.79998779297</ele>
        <time>2021-02-25T14:42:56.000Z</time>
      </trkpt>
      <trkpt lat="43.76676" lon="7.17035">
        <ele>387.20001220703</ele>
        <time>2021-02-25T14:42:57.000Z</time>
      </trkpt>
      <trkpt lat="43.76671" lon="7.1704">
        <ele>385.20001220703</ele>
        <time>2021-02-25T14:42:59.000Z</time>
      </trkpt>
      <trkpt lat="43.76664" lon="7.17038">
        <ele>383.60000610352</ele>
        <time>2021-02-25T14:43:01.000Z</time>
      </trkpt>
      <trkpt lat="43.7666" lon="7.17036">
        <ele>383.20001220703</ele>
        <time>2021-02-25T14:43:02.000Z</time>
      </trkpt>
      <trkpt lat="43.7665" lon="7.17029">
        <ele>382.60000610352</ele>
        <time>2021-02-25T14:43:04.000Z</time>
      </trkpt>
      <trkpt lat="43.7664" lon="7.17024">
        <ele>381.39999389648</ele>
        <time>2021-02-25T14:43:06.000Z</time>
      </trkpt>
      <trkpt lat="43.76629" lon="7.17024">
        <ele>380</ele>
        <time>2021-02-25T14:43:08.000Z</time>
      </trkpt>
      <trkpt lat="43.76623" lon="7.17025">
        <ele>379.39999389648</ele>
        <time>2021-02-25T14:43:09.000Z</time>
      </trkpt>
      <trkpt lat="43.76618" lon="7.17027">
        <ele>378.79998779297</ele>
        <time>2021-02-25T14:43:10.000Z</time>
      </trkpt>
      <trkpt lat="43.76598" lon="7.17036">
        <ele>377.39999389648</ele>
        <time>2021-02-25T14:43:13.000Z</time>
      </trkpt>
      <trkpt lat="43.76592" lon="7.17038">
        <ele>376.60000610352</ele>
        <time>2021-02-25T14:43:14.000Z</time>
      </trkpt>
      <trkpt lat="43.76586" lon="7.17042">
        <ele>375.79998779297</ele>
        <time>2021-02-25T14:43:15.000Z</time>
      </trkpt>
      <trkpt lat="43.76575" lon="7.17047">
        <ele>374.60000610352</ele>
        <time>2021-02-25T14:43:17.000Z</time>
      </trkpt>
      <trkpt lat="43.76567" lon="7.17051">
        <ele>373.60000610352</ele>
        <time>2021-02-25T14:43:19.000Z</time>
      </trkpt>
      <trkpt lat="43.76563" lon="7.17054">
        <ele>373.20001220703</ele>
        <time>2021-02-25T14:43:20.000Z</time>
      </trkpt>
      <trkpt lat="43.76556" lon="7.17064">
        <ele>372.20001220703</ele>
        <time>2021-02-25T14:43:22.000Z</time>
      </trkpt>
      <trkpt lat="43.76552" lon="7.17073">
        <ele>371.79998779297</ele>
        <time>2021-02-25T14:43:23.000Z</time>
      </trkpt>
      <trkpt lat="43.76548" lon="7.1708">
        <ele>371</ele>
        <time>2021-02-25T14:43:24.000Z</time>
      </trkpt>
      <trkpt lat="43.76546" lon="7.17085">
        <ele>370</ele>
        <time>2021-02-25T14:43:25.000Z</time>
      </trkpt>
      <trkpt lat="43.76542" lon="7.17093">
        <ele>368.60000610352</ele>
        <time>2021-02-25T14:43:26.000Z</time>
      </trkpt>
      <trkpt lat="43.76535" lon="7.17101">
        <ele>366.79998779297</ele>
        <time>2021-02-25T14:43:27.000Z</time>
      </trkpt>
      <trkpt lat="43.76531" lon="7.17106">
        <ele>365.20001220703</ele>
        <time>2021-02-25T14:43:28.000Z</time>
      </trkpt>
      <trkpt lat="43.76527" lon="7.17112">
        <ele>363.39999389648</ele>
        <time>2021-02-25T14:43:29.000Z</time>
      </trkpt>
      <trkpt lat="43.76524" lon="7.17117">
        <ele>364.20001220703</ele>
        <time>2021-02-25T14:43:30.000Z</time>
      </trkpt>
      <trkpt lat="43.76517" lon="7.17119">
        <ele>361.79998779297</ele>
        <time>2021-02-25T14:43:32.000Z</time>
      </trkpt>
      <trkpt lat="43.76512" lon="7.17119">
        <ele>360.20001220703</ele>
        <time>2021-02-25T14:43:34.000Z</time>
      </trkpt>
      <trkpt lat="43.76509" lon="7.17122">
        <ele>358.79998779297</ele>
        <time>2021-02-25T14:43:36.000Z</time>
      </trkpt>
      <trkpt lat="43.7651" lon="7.17127">
        <ele>357.20001220703</ele>
        <time>2021-02-25T14:43:39.000Z</time>
      </trkpt>
      <trkpt lat="43.76512" lon="7.17129">
        <ele>356.79998779297</ele>
        <time>2021-02-25T14:43:40.000Z</time>
      </trkpt>
      <trkpt lat="43.76514" lon="7.17132">
        <ele>356</ele>
        <time>2021-02-25T14:43:42.000Z</time>
      </trkpt>
      <trkpt lat="43.76516" lon="7.17132">
        <ele>354.79998779297</ele>
        <time>2021-02-25T14:43:44.000Z</time>
      </trkpt>
      <trkpt lat="43.76516" lon="7.17131">
        <ele>353.79998779297</ele>
        <time>2021-02-25T14:43:47.000Z</time>
      </trkpt>
      <trkpt lat="43.76516" lon="7.1713">
        <ele>353</ele>
        <time>2021-02-25T14:43:49.000Z</time>
      </trkpt>
      <trkpt lat="43.76515" lon="7.1713">
        <ele>353</ele>
        <time>2021-02-25T14:43:52.000Z</time>
      </trkpt>
      <trkpt lat="43.76513" lon="7.17128">
        <ele>353.20001220703</ele>
        <time>2021-02-25T14:43:54.000Z</time>
      </trkpt>
      <trkpt lat="43.76507" lon="7.17125">
        <ele>353</ele>
        <time>2021-02-25T14:43:59.000Z</time>
      </trkpt>
      <trkpt lat="43.76507" lon="7.17126">
        <ele>353</ele>
        <time>2021-02-25T14:44:02.000Z</time>
      </trkpt>
      <trkpt lat="43.76506" lon="7.17127">
        <ele>352.39999389648</ele>
        <time>2021-02-25T14:44:06.000Z</time>
      </trkpt>
      <trkpt lat="43.76506" lon="7.17127">
        <ele>352.20001220703</ele>
        <time>2021-02-25T14:44:09.000Z</time>
      </trkpt>
      <trkpt lat="43.76507" lon="7.17128">
        <ele>352.20001220703</ele>
        <time>2021-02-25T14:44:25.000Z</time>
      </trkpt>
      <trkpt lat="43.76507" lon="7.17127">
        <ele>352.20001220703</ele>
        <time>2021-02-25T14:44:26.000Z</time>
      </trkpt>
      <trkpt lat="43.7651" lon="7.17126">
        <ele>352</ele>
        <time>2021-02-25T14:44:29.000Z</time>
      </trkpt>
      <trkpt lat="43.76511" lon="7.17127">
        <ele>351.79998779297</ele>
        <time>2021-02-25T14:44:30.000Z</time>
      </trkpt>
      <trkpt lat="43.76513" lon="7.17128">
        <ele>351.39999389648</ele>
        <time>2021-02-25T14:44:32.000Z</time>
      </trkpt>
      <trkpt lat="43.76515" lon="7.1713">
        <ele>350.39999389648</ele>
        <time>2021-02-25T14:44:37.000Z</time>
      </trkpt>
      <trkpt lat="43.76515" lon="7.1713">
        <ele>350.20001220703</ele>
        <time>2021-02-25T14:44:38.000Z</time>
      </trkpt>
      <trkpt lat="43.76515" lon="7.17131">
        <ele>349.79998779297</ele>
        <time>2021-02-25T14:44:44.000Z</time>
      </trkpt>
      <trkpt lat="43.76515" lon="7.1713">
        <ele>349.79998779297</ele>
        <time>2021-02-25T14:44:45.000Z</time>
      </trkpt>
      <trkpt lat="43.76515" lon="7.1713">
        <ele>349.79998779297</ele>
        <time>2021-02-25T14:44:48.000Z</time>
      </trkpt>
      <trkpt lat="43.76516" lon="7.17131">
        <ele>349.79998779297</ele>
        <time>2021-02-25T14:44:54.000Z</time>
      </trkpt>
      <trkpt lat="43.76518" lon="7.17133">
        <ele>349.79998779297</ele>
        <time>2021-02-25T14:44:55.000Z</time>
      </trkpt>
      <trkpt lat="43.76523" lon="7.17142">
        <ele>349.60000610352</ele>
        <time>2021-02-25T14:44:57.000Z</time>
      </trkpt>
      <trkpt lat="43.7653" lon="7.17156">
        <ele>349.20001220703</ele>
        <time>2021-02-25T14:44:59.000Z</time>
      </trkpt>
      <trkpt lat="43.76534" lon="7.1716">
        <ele>348.60000610352</ele>
        <time>2021-02-25T14:45:00.000Z</time>
      </trkpt>
      <trkpt lat="43.76538" lon="7.17162">
        <ele>347.20001220703</ele>
        <time>2021-02-25T14:45:01.000Z</time>
      </trkpt>
      <trkpt lat="43.76541" lon="7.17164">
        <ele>346</ele>
        <time>2021-02-25T14:45:02.000Z</time>
      </trkpt>
      <trkpt lat="43.76544" lon="7.17168">
        <ele>344.79998779297</ele>
        <time>2021-02-25T14:45:03.000Z</time>
      </trkpt>
      <trkpt lat="43.76545" lon="7.17174">
        <ele>343.60000610352</ele>
        <time>2021-02-25T14:45:04.000Z</time>
      </trkpt>
      <trkpt lat="43.76543" lon="7.1718">
        <ele>342.60000610352</ele>
        <time>2021-02-25T14:45:05.000Z</time>
      </trkpt>
      <trkpt lat="43.7654" lon="7.17185">
        <ele>341.79998779297</ele>
        <time>2021-02-25T14:45:06.000Z</time>
      </trkpt>
      <trkpt lat="43.76536" lon="7.17192">
        <ele>341</ele>
        <time>2021-02-25T14:45:07.000Z</time>
      </trkpt>
      <trkpt lat="43.76532" lon="7.172">
        <ele>340</ele>
        <time>2021-02-25T14:45:08.000Z</time>
      </trkpt>
      <trkpt lat="43.76527" lon="7.17208">
        <ele>338.79998779297</ele>
        <time>2021-02-25T14:45:09.000Z</time>
      </trkpt>
      <trkpt lat="43.76523" lon="7.17215">
        <ele>337.20001220703</ele>
        <time>2021-02-25T14:45:10.000Z</time>
      </trkpt>
      <trkpt lat="43.76517" lon="7.17221">
        <ele>335.60000610352</ele>
        <time>2021-02-25T14:45:11.000Z</time>
      </trkpt>
      <trkpt lat="43.76511" lon="7.17228">
        <ele>334</ele>
        <time>2021-02-25T14:45:12.000Z</time>
      </trkpt>
      <trkpt lat="43.76505" lon="7.17233">
        <ele>332.20001220703</ele>
        <time>2021-02-25T14:45:13.000Z</time>
      </trkpt>
      <trkpt lat="43.76499" lon="7.17239">
        <ele>330.79998779297</ele>
        <time>2021-02-25T14:45:14.000Z</time>
      </trkpt>
      <trkpt lat="43.76492" lon="7.17244">
        <ele>329.20001220703</ele>
        <time>2021-02-25T14:45:15.000Z</time>
      </trkpt>
      <trkpt lat="43.76486" lon="7.17249">
        <ele>327.60000610352</ele>
        <time>2021-02-25T14:45:16.000Z</time>
      </trkpt>
      <trkpt lat="43.76479" lon="7.17253">
        <ele>326.20001220703</ele>
        <time>2021-02-25T14:45:17.000Z</time>
      </trkpt>
      <trkpt lat="43.76474" lon="7.17257">
        <ele>324.79998779297</ele>
        <time>2021-02-25T14:45:18.000Z</time>
      </trkpt>
      <trkpt lat="43.76469" lon="7.1726">
        <ele>323.20001220703</ele>
        <time>2021-02-25T14:45:19.000Z</time>
      </trkpt>
      <trkpt lat="43.76465" lon="7.17263">
        <ele>322.20001220703</ele>
        <time>2021-02-25T14:45:20.000Z</time>
      </trkpt>
      <trkpt lat="43.76454" lon="7.1727">
        <ele>320.60000610352</ele>
        <time>2021-02-25T14:45:22.000Z</time>
      </trkpt>
      <trkpt lat="43.76441" lon="7.17278">
        <ele>319</ele>
        <time>2021-02-25T14:45:24.000Z</time>
      </trkpt>
      <trkpt lat="43.76431" lon="7.17286">
        <ele>317</ele>
        <time>2021-02-25T14:45:26.000Z</time>
      </trkpt>
      <trkpt lat="43.76425" lon="7.17291">
        <ele>316</ele>
        <time>2021-02-25T14:45:27.000Z</time>
      </trkpt>
      <trkpt lat="43.7642" lon="7.17295">
        <ele>315</ele>
        <time>2021-02-25T14:45:28.000Z</time>
      </trkpt>
      <trkpt lat="43.76415" lon="7.173">
        <ele>314.20001220703</ele>
        <time>2021-02-25T14:45:29.000Z</time>
      </trkpt>
      <trkpt lat="43.76405" lon="7.1731">
        <ele>313</ele>
        <time>2021-02-25T14:45:31.000Z</time>
      </trkpt>
      <trkpt lat="43.76399" lon="7.17313">
        <ele>312.20001220703</ele>
        <time>2021-02-25T14:45:32.000Z</time>
      </trkpt>
      <trkpt lat="43.76393" lon="7.17317">
        <ele>311.60000610352</ele>
        <time>2021-02-25T14:45:33.000Z</time>
      </trkpt>
      <trkpt lat="43.76389" lon="7.17323">
        <ele>310.79998779297</ele>
        <time>2021-02-25T14:45:34.000Z</time>
      </trkpt>
      <trkpt lat="43.76384" lon="7.17331">
        <ele>310.20001220703</ele>
        <time>2021-02-25T14:45:35.000Z</time>
      </trkpt>
      <trkpt lat="43.76376" lon="7.17347">
        <ele>308.79998779297</ele>
        <time>2021-02-25T14:45:37.000Z</time>
      </trkpt>
      <trkpt lat="43.76372" lon="7.17355">
        <ele>308.20001220703</ele>
        <time>2021-02-25T14:45:38.000Z</time>
      </trkpt>
      <trkpt lat="43.76368" lon="7.17363">
        <ele>307.79998779297</ele>
        <time>2021-02-25T14:45:39.000Z</time>
      </trkpt>
      <trkpt lat="43.7636" lon="7.17379">
        <ele>306.60000610352</ele>
        <time>2021-02-25T14:45:41.000Z</time>
      </trkpt>
      <trkpt lat="43.76351" lon="7.17397">
        <ele>305.39999389648</ele>
        <time>2021-02-25T14:45:43.000Z</time>
      </trkpt>
      <trkpt lat="43.76346" lon="7.17407">
        <ele>304.39999389648</ele>
        <time>2021-02-25T14:45:44.000Z</time>
      </trkpt>
      <trkpt lat="43.76342" lon="7.17415">
        <ele>303.39999389648</ele>
        <time>2021-02-25T14:45:45.000Z</time>
      </trkpt>
      <trkpt lat="43.76334" lon="7.1743">
        <ele>301.39999389648</ele>
        <time>2021-02-25T14:45:47.000Z</time>
      </trkpt>
      <trkpt lat="43.76324" lon="7.17442">
        <ele>299.60000610352</ele>
        <time>2021-02-25T14:45:49.000Z</time>
      </trkpt>
      <trkpt lat="43.76315" lon="7.17453">
        <ele>298.20001220703</ele>
        <time>2021-02-25T14:45:51.000Z</time>
      </trkpt>
      <trkpt lat="43.76307" lon="7.17461">
        <ele>296.39999389648</ele>
        <time>2021-02-25T14:45:53.000Z</time>
      </trkpt>
      <trkpt lat="43.76304" lon="7.17463">
        <ele>295.39999389648</ele>
        <time>2021-02-25T14:45:54.000Z</time>
      </trkpt>
      <trkpt lat="43.763" lon="7.17464">
        <ele>294.60000610352</ele>
        <time>2021-02-25T14:45:55.000Z</time>
      </trkpt>
      <trkpt lat="43.76297" lon="7.17462">
        <ele>293.79998779297</ele>
        <time>2021-02-25T14:45:56.000Z</time>
      </trkpt>
      <trkpt lat="43.76294" lon="7.17459">
        <ele>293.60000610352</ele>
        <time>2021-02-25T14:45:57.000Z</time>
      </trkpt>
      <trkpt lat="43.76283" lon="7.17452">
        <ele>293.39999389648</ele>
        <time>2021-02-25T14:46:00.000Z</time>
      </trkpt>
      <trkpt lat="43.76275" lon="7.17448">
        <ele>293</ele>
        <time>2021-02-25T14:46:02.000Z</time>
      </trkpt>
      <trkpt lat="43.76272" lon="7.17447">
        <ele>292.79998779297</ele>
        <time>2021-02-25T14:46:03.000Z</time>
      </trkpt>
      <trkpt lat="43.76269" lon="7.17447">
        <ele>292.60000610352</ele>
        <time>2021-02-25T14:46:04.000Z</time>
      </trkpt>
      <trkpt lat="43.76266" lon="7.17449">
        <ele>292.60000610352</ele>
        <time>2021-02-25T14:46:05.000Z</time>
      </trkpt>
      <trkpt lat="43.76263" lon="7.17448">
        <ele>292.39999389648</ele>
        <time>2021-02-25T14:46:06.000Z</time>
      </trkpt>
      <trkpt lat="43.76254" lon="7.17443">
        <ele>292.20001220703</ele>
        <time>2021-02-25T14:46:09.000Z</time>
      </trkpt>
      <trkpt lat="43.76232" lon="7.1743">
        <ele>291.60000610352</ele>
        <time>2021-02-25T14:46:15.000Z</time>
      </trkpt>
      <trkpt lat="43.76224" lon="7.17426">
        <ele>291.20001220703</ele>
        <time>2021-02-25T14:46:17.000Z</time>
      </trkpt>
      <trkpt lat="43.76208" lon="7.17426">
        <ele>290.79998779297</ele>
        <time>2021-02-25T14:46:20.000Z</time>
      </trkpt>
      <trkpt lat="43.76203" lon="7.17427">
        <ele>290.60000610352</ele>
        <time>2021-02-25T14:46:21.000Z</time>
      </trkpt>
      <trkpt lat="43.76171" lon="7.17433">
        <ele>290.20001220703</ele>
        <time>2021-02-25T14:46:27.000Z</time>
      </trkpt>
      <trkpt lat="43.76139" lon="7.17436">
        <ele>289.39999389648</ele>
        <time>2021-02-25T14:46:33.000Z</time>
      </trkpt>
      <trkpt lat="43.76134" lon="7.17436">
        <ele>289.20001220703</ele>
        <time>2021-02-25T14:46:34.000Z</time>
      </trkpt>
      <trkpt lat="43.76099" lon="7.17436">
        <ele>288.39999389648</ele>
        <time>2021-02-25T14:46:41.000Z</time>
      </trkpt>
      <trkpt lat="43.76087" lon="7.17436">
        <ele>288</ele>
        <time>2021-02-25T14:46:43.000Z</time>
      </trkpt>
      <trkpt lat="43.76078" lon="7.17442">
        <ele>287.60000610352</ele>
        <time>2021-02-25T14:46:45.000Z</time>
      </trkpt>
      <trkpt lat="43.76067" lon="7.17455">
        <ele>287.39999389648</ele>
        <time>2021-02-25T14:46:48.000Z</time>
      </trkpt>
      <trkpt lat="43.76064" lon="7.1746">
        <ele>287.39999389648</ele>
        <time>2021-02-25T14:46:49.000Z</time>
      </trkpt>
      <trkpt lat="43.76059" lon="7.17472">
        <ele>287.20001220703</ele>
        <time>2021-02-25T14:46:51.000Z</time>
      </trkpt>
      <trkpt lat="43.76051" lon="7.17489">
        <ele>287</ele>
        <time>2021-02-25T14:46:54.000Z</time>
      </trkpt>
      <trkpt lat="43.76049" lon="7.17495">
        <ele>287</ele>
        <time>2021-02-25T14:46:55.000Z</time>
      </trkpt>
      <trkpt lat="43.76035" lon="7.17533">
        <ele>286.39999389648</ele>
        <time>2021-02-25T14:47:01.000Z</time>
      </trkpt>
      <trkpt lat="43.7603" lon="7.17546">
        <ele>286.20001220703</ele>
        <time>2021-02-25T14:47:03.000Z</time>
      </trkpt>
      <trkpt lat="43.7602" lon="7.17571">
        <ele>285.20001220703</ele>
        <time>2021-02-25T14:47:07.000Z</time>
      </trkpt>
      <trkpt lat="43.76017" lon="7.17577">
        <ele>285.20001220703</ele>
        <time>2021-02-25T14:47:08.000Z</time>
      </trkpt>
      <trkpt lat="43.76013" lon="7.17582">
        <ele>285.20001220703</ele>
        <time>2021-02-25T14:47:09.000Z</time>
      </trkpt>
      <trkpt lat="43.76" lon="7.17596">
        <ele>285</ele>
        <time>2021-02-25T14:47:13.000Z</time>
      </trkpt>
      <trkpt lat="43.76004" lon="7.17609">
        <ele>284.79998779297</ele>
        <time>2021-02-25T14:47:16.000Z</time>
      </trkpt>
      <trkpt lat="43.76012" lon="7.17624">
        <ele>284.20001220703</ele>
        <time>2021-02-25T14:47:19.000Z</time>
      </trkpt>
      <trkpt lat="43.76013" lon="7.17631">
        <ele>284</ele>
        <time>2021-02-25T14:47:20.000Z</time>
      </trkpt>
      <trkpt lat="43.76014" lon="7.17637">
        <ele>284</ele>
        <time>2021-02-25T14:47:21.000Z</time>
      </trkpt>
      <trkpt lat="43.76016" lon="7.17652">
        <ele>283.20001220703</ele>
        <time>2021-02-25T14:47:24.000Z</time>
      </trkpt>
      <trkpt lat="43.76017" lon="7.17654">
        <ele>283</ele>
        <time>2021-02-25T14:47:25.000Z</time>
      </trkpt>
      <trkpt lat="43.76021" lon="7.17657">
        <ele>283.20001220703</ele>
        <time>2021-02-25T14:47:30.000Z</time>
      </trkpt>
      <trkpt lat="43.76022" lon="7.17657">
        <ele>283.39999389648</ele>
        <time>2021-02-25T14:47:35.000Z</time>
      </trkpt>
      <trkpt lat="43.76024" lon="7.17652">
        <ele>283.20001220703</ele>
        <time>2021-02-25T14:47:42.000Z</time>
      </trkpt>
      <trkpt lat="43.76023" lon="7.17652">
        <ele>283.20001220703</ele>
        <time>2021-02-25T14:47:47.000Z</time>
      </trkpt>
      <trkpt lat="43.76022" lon="7.17652">
        <ele>283</ele>
        <time>2021-02-25T14:47:48.000Z</time>
      </trkpt>
      <trkpt lat="43.7602" lon="7.1765">
        <ele>282.79998779297</ele>
        <time>2021-02-25T14:47:51.000Z</time>
      </trkpt>
      <trkpt lat="43.7602" lon="7.17649">
        <ele>282.79998779297</ele>
        <time>2021-02-25T14:47:52.000Z</time>
      </trkpt>
      <trkpt lat="43.76019" lon="7.17645">
        <ele>282.20001220703</ele>
        <time>2021-02-25T14:47:59.000Z</time>
      </trkpt>
      <trkpt lat="43.76017" lon="7.17646">
        <ele>282.39999389648</ele>
        <time>2021-02-25T14:48:07.000Z</time>
      </trkpt>
      <trkpt lat="43.76016" lon="7.17647">
        <ele>282</ele>
        <time>2021-02-25T14:48:14.000Z</time>
      </trkpt>
      <trkpt lat="43.76016" lon="7.17647">
        <ele>282</ele>
        <time>2021-02-25T14:48:16.000Z</time>
      </trkpt>
      <trkpt lat="43.76015" lon="7.17647">
        <ele>282</ele>
        <time>2021-02-25T14:48:26.000Z</time>
      </trkpt>
      <trkpt lat="43.76015" lon="7.17648">
        <ele>282</ele>
        <time>2021-02-25T14:48:33.000Z</time>
      </trkpt>
      <trkpt lat="43.76015" lon="7.17648">
        <ele>282</ele>
        <time>2021-02-25T14:48:39.000Z</time>
      </trkpt>
      <trkpt lat="43.76015" lon="7.17649">
        <ele>282.20001220703</ele>
        <time>2021-02-25T14:48:47.000Z</time>
      </trkpt>
      <trkpt lat="43.76016" lon="7.1765">
        <ele>282</ele>
        <time>2021-02-25T14:48:54.000Z</time>
      </trkpt>
      <trkpt lat="43.76015" lon="7.17652">
        <ele>281.60000610352</ele>
        <time>2021-02-25T14:49:05.000Z</time>
      </trkpt>
      <trkpt lat="43.76015" lon="7.17652">
        <ele>281.60000610352</ele>
        <time>2021-02-25T14:49:17.000Z</time>
      </trkpt>
      <trkpt lat="43.76015" lon="7.17652">
        <ele>281.60000610352</ele>
        <time>2021-02-25T14:49:30.000Z</time>
      </trkpt>
      <trkpt lat="43.76014" lon="7.17654">
        <ele>282</ele>
        <time>2021-02-25T14:49:39.000Z</time>
      </trkpt>
      <trkpt lat="43.76013" lon="7.17654">
        <ele>281.79998779297</ele>
        <time>2021-02-25T14:49:47.000Z</time>
      </trkpt>
      <trkpt lat="43.76013" lon="7.17655">
        <ele>282.20001220703</ele>
        <time>2021-02-25T14:49:56.000Z</time>
      </trkpt>
      <trkpt lat="43.76014" lon="7.17658">
        <ele>281.39999389648</ele>
        <time>2021-02-25T14:50:02.000Z</time>
      </trkpt>
      <trkpt lat="43.76016" lon="7.17657">
        <ele>281.39999389648</ele>
        <time>2021-02-25T14:50:12.000Z</time>
      </trkpt>
      <trkpt lat="43.76018" lon="7.17661">
        <ele>281.79998779297</ele>
        <time>2021-02-25T14:50:19.000Z</time>
      </trkpt>
      <trkpt lat="43.76019" lon="7.17663">
        <ele>282.60000610352</ele>
        <time>2021-02-25T14:50:25.000Z</time>
      </trkpt>
      <trkpt lat="43.76019" lon="7.17664">
        <ele>282.60000610352</ele>
        <time>2021-02-25T14:50:26.000Z</time>
      </trkpt>
      <trkpt lat="43.76016" lon="7.17664">
        <ele>282.39999389648</ele>
        <time>2021-02-25T14:50:29.000Z</time>
      </trkpt>
      <trkpt lat="43.76015" lon="7.17659">
        <ele>282.79998779297</ele>
        <time>2021-02-25T14:50:33.000Z</time>
      </trkpt>
      <trkpt lat="43.76018" lon="7.17659">
        <ele>282.60000610352</ele>
        <time>2021-02-25T14:50:35.000Z</time>
      </trkpt>
      <trkpt lat="43.76021" lon="7.17661">
        <ele>282.60000610352</ele>
        <time>2021-02-25T14:50:37.000Z</time>
      </trkpt>
      <trkpt lat="43.76022" lon="7.17665">
        <ele>282.60000610352</ele>
        <time>2021-02-25T14:50:38.000Z</time>
      </trkpt>
      <trkpt lat="43.76023" lon="7.17675">
        <ele>282.60000610352</ele>
        <time>2021-02-25T14:50:41.000Z</time>
      </trkpt>
      <trkpt lat="43.76023" lon="7.17682">
        <ele>282.79998779297</ele>
        <time>2021-02-25T14:50:43.000Z</time>
      </trkpt>
      <trkpt lat="43.76023" lon="7.17687">
        <ele>283.20001220703</ele>
        <time>2021-02-25T14:50:44.000Z</time>
      </trkpt>
      <trkpt lat="43.76022" lon="7.17701">
        <ele>284.20001220703</ele>
        <time>2021-02-25T14:50:48.000Z</time>
      </trkpt>
      <trkpt lat="43.76022" lon="7.17713">
        <ele>285.60000610352</ele>
        <time>2021-02-25T14:50:51.000Z</time>
      </trkpt>
      <trkpt lat="43.76022" lon="7.17721">
        <ele>286.79998779297</ele>
        <time>2021-02-25T14:50:54.000Z</time>
      </trkpt>
      <trkpt lat="43.76021" lon="7.17726">
        <ele>287.39999389648</ele>
        <time>2021-02-25T14:50:56.000Z</time>
      </trkpt>
      <trkpt lat="43.76021" lon="7.17728">
        <ele>287.79998779297</ele>
        <time>2021-02-25T14:50:57.000Z</time>
      </trkpt>
      <trkpt lat="43.76023" lon="7.17731">
        <ele>289</ele>
        <time>2021-02-25T14:51:01.000Z</time>
      </trkpt>
      <trkpt lat="43.76024" lon="7.17733">
        <ele>289.39999389648</ele>
        <time>2021-02-25T14:51:02.000Z</time>
      </trkpt>
      <trkpt lat="43.76024" lon="7.17739">
        <ele>290</ele>
        <time>2021-02-25T14:51:05.000Z</time>
      </trkpt>
      <trkpt lat="43.76025" lon="7.1774">
        <ele>290.20001220703</ele>
        <time>2021-02-25T14:51:06.000Z</time>
      </trkpt>
      <trkpt lat="43.76024" lon="7.17742">
        <ele>290.79998779297</ele>
        <time>2021-02-25T14:51:08.000Z</time>
      </trkpt>
      <trkpt lat="43.76023" lon="7.17743">
        <ele>291.20001220703</ele>
        <time>2021-02-25T14:51:09.000Z</time>
      </trkpt>
      <trkpt lat="43.76023" lon="7.17744">
        <ele>291.39999389648</ele>
        <time>2021-02-25T14:51:10.000Z</time>
      </trkpt>
      <trkpt lat="43.76022" lon="7.17743">
        <ele>292.20001220703</ele>
        <time>2021-02-25T14:51:13.000Z</time>
      </trkpt>
      <trkpt lat="43.7602" lon="7.17746">
        <ele>292.20001220703</ele>
        <time>2021-02-25T14:51:14.000Z</time>
      </trkpt>
      <trkpt lat="43.76017" lon="7.17752">
        <ele>292.60000610352</ele>
        <time>2021-02-25T14:51:16.000Z</time>
      </trkpt>
      <trkpt lat="43.76017" lon="7.17753">
        <ele>292.60000610352</ele>
        <time>2021-02-25T14:51:17.000Z</time>
      </trkpt>
      <trkpt lat="43.76016" lon="7.17755">
        <ele>292.79998779297</ele>
        <time>2021-02-25T14:51:18.000Z</time>
      </trkpt>
      <trkpt lat="43.76016" lon="7.17758">
        <ele>293</ele>
        <time>2021-02-25T14:51:23.000Z</time>
      </trkpt>
      <trkpt lat="43.76015" lon="7.17758">
        <ele>293</ele>
        <time>2021-02-25T14:51:24.000Z</time>
      </trkpt>
      <trkpt lat="43.76017" lon="7.17765">
        <ele>293.20001220703</ele>
        <time>2021-02-25T14:51:27.000Z</time>
      </trkpt>
      <trkpt lat="43.76021" lon="7.17774">
        <ele>293.79998779297</ele>
        <time>2021-02-25T14:51:30.000Z</time>
      </trkpt>
      <trkpt lat="43.76022" lon="7.17778">
        <ele>294.20001220703</ele>
        <time>2021-02-25T14:51:31.000Z</time>
      </trkpt>
      <trkpt lat="43.76021" lon="7.17782">
        <ele>294.79998779297</ele>
        <time>2021-02-25T14:51:33.000Z</time>
      </trkpt>
      <trkpt lat="43.76021" lon="7.17784">
        <ele>295.20001220703</ele>
        <time>2021-02-25T14:51:34.000Z</time>
      </trkpt>
      <trkpt lat="43.76022" lon="7.17787">
        <ele>295.39999389648</ele>
        <time>2021-02-25T14:51:35.000Z</time>
      </trkpt>
      <trkpt lat="43.76022" lon="7.17798">
        <ele>296</ele>
        <time>2021-02-25T14:51:40.000Z</time>
      </trkpt>
      <trkpt lat="43.76021" lon="7.17801">
        <ele>296</ele>
        <time>2021-02-25T14:51:42.000Z</time>
      </trkpt>
      <trkpt lat="43.76022" lon="7.17806">
        <ele>296</ele>
        <time>2021-02-25T14:51:44.000Z</time>
      </trkpt>
      <trkpt lat="43.76023" lon="7.17812">
        <ele>295.79998779297</ele>
        <time>2021-02-25T14:51:46.000Z</time>
      </trkpt>
      <trkpt lat="43.76026" lon="7.17823">
        <ele>295.39999389648</ele>
        <time>2021-02-25T14:51:50.000Z</time>
      </trkpt>
      <trkpt lat="43.76026" lon="7.17826">
        <ele>295</ele>
        <time>2021-02-25T14:51:52.000Z</time>
      </trkpt>
      <trkpt lat="43.76026" lon="7.17826">
        <ele>294.79998779297</ele>
        <time>2021-02-25T14:51:54.000Z</time>
      </trkpt>
      <trkpt lat="43.76027" lon="7.17828">
        <ele>294.60000610352</ele>
        <time>2021-02-25T14:51:56.000Z</time>
      </trkpt>
      <trkpt lat="43.76031" lon="7.17834">
        <ele>293.79998779297</ele>
        <time>2021-02-25T14:51:59.000Z</time>
      </trkpt>
      <trkpt lat="43.76033" lon="7.17837">
        <ele>293.60000610352</ele>
        <time>2021-02-25T14:52:00.000Z</time>
      </trkpt>
      <trkpt lat="43.76034" lon="7.17842">
        <ele>293.20001220703</ele>
        <time>2021-02-25T14:52:01.000Z</time>
      </trkpt>
      <trkpt lat="43.76037" lon="7.17855">
        <ele>292.60000610352</ele>
        <time>2021-02-25T14:52:03.000Z</time>
      </trkpt>
      <trkpt lat="43.76042" lon="7.17865">
        <ele>291.79998779297</ele>
        <time>2021-02-25T14:52:06.000Z</time>
      </trkpt>
      <trkpt lat="43.76043" lon="7.17869">
        <ele>291.39999389648</ele>
        <time>2021-02-25T14:52:07.000Z</time>
      </trkpt>
      <trkpt lat="43.76041" lon="7.17877">
        <ele>291</ele>
        <time>2021-02-25T14:52:09.000Z</time>
      </trkpt>
      <trkpt lat="43.76041" lon="7.17882">
        <ele>290.79998779297</ele>
        <time>2021-02-25T14:52:10.000Z</time>
      </trkpt>
      <trkpt lat="43.76047" lon="7.17891">
        <ele>290.20001220703</ele>
        <time>2021-02-25T14:52:12.000Z</time>
      </trkpt>
      <trkpt lat="43.76051" lon="7.17895">
        <ele>289.60000610352</ele>
        <time>2021-02-25T14:52:13.000Z</time>
      </trkpt>
      <trkpt lat="43.76055" lon="7.17899">
        <ele>289</ele>
        <time>2021-02-25T14:52:14.000Z</time>
      </trkpt>
      <trkpt lat="43.76067" lon="7.1791">
        <ele>287.79998779297</ele>
        <time>2021-02-25T14:52:17.000Z</time>
      </trkpt>
      <trkpt lat="43.76076" lon="7.17917">
        <ele>287.79998779297</ele>
        <time>2021-02-25T14:52:19.000Z</time>
      </trkpt>
      <trkpt lat="43.7608" lon="7.1792">
        <ele>287.60000610352</ele>
        <time>2021-02-25T14:52:20.000Z</time>
      </trkpt>
      <trkpt lat="43.76084" lon="7.17923">
        <ele>287.60000610352</ele>
        <time>2021-02-25T14:52:21.000Z</time>
      </trkpt>
      <trkpt lat="43.76098" lon="7.17933">
        <ele>287.39999389648</ele>
        <time>2021-02-25T14:52:25.000Z</time>
      </trkpt>
      <trkpt lat="43.76102" lon="7.17936">
        <ele>287.39999389648</ele>
        <time>2021-02-25T14:52:28.000Z</time>
      </trkpt>
      <trkpt lat="43.76101" lon="7.17938">
        <ele>287.39999389648</ele>
        <time>2021-02-25T14:52:29.000Z</time>
      </trkpt>
      <trkpt lat="43.76099" lon="7.17942">
        <ele>287.39999389648</ele>
        <time>2021-02-25T14:52:33.000Z</time>
      </trkpt>
      <trkpt lat="43.76096" lon="7.17946">
        <ele>287.60000610352</ele>
        <time>2021-02-25T14:52:46.000Z</time>
      </trkpt>
      <trkpt lat="43.76092" lon="7.17948">
        <ele>287.60000610352</ele>
        <time>2021-02-25T14:52:50.000Z</time>
      </trkpt>
      <trkpt lat="43.7609" lon="7.17947">
        <ele>287.39999389648</ele>
        <time>2021-02-25T14:52:51.000Z</time>
      </trkpt>
      <trkpt lat="43.76088" lon="7.17947">
        <ele>286.79998779297</ele>
        <time>2021-02-25T14:52:53.000Z</time>
      </trkpt>
      <trkpt lat="43.76088" lon="7.1795">
        <ele>286.39999389648</ele>
        <time>2021-02-25T14:52:54.000Z</time>
      </trkpt>
      <trkpt lat="43.76088" lon="7.1795">
        <ele>285.79998779297</ele>
        <time>2021-02-25T14:52:55.000Z</time>
      </trkpt>
      <trkpt lat="43.76088" lon="7.17951">
        <ele>285.60000610352</ele>
        <time>2021-02-25T14:52:56.000Z</time>
      </trkpt>
      <trkpt lat="43.76088" lon="7.17951">
        <ele>284.60000610352</ele>
        <time>2021-02-25T14:52:59.000Z</time>
      </trkpt>
      <trkpt lat="43.76088" lon="7.1795">
        <ele>284.39999389648</ele>
        <time>2021-02-25T14:53:00.000Z</time>
      </trkpt>
      <trkpt lat="43.76088" lon="7.17951">
        <ele>284.79998779297</ele>
        <time>2021-02-25T14:53:06.000Z</time>
      </trkpt>
      <trkpt lat="43.76088" lon="7.1795">
        <ele>284.60000610352</ele>
        <time>2021-02-25T14:53:14.000Z</time>
      </trkpt>
      <trkpt lat="43.76091" lon="7.17953">
        <ele>284.20001220703</ele>
        <time>2021-02-25T14:53:19.000Z</time>
      </trkpt>
      <trkpt lat="43.76091" lon="7.17954">
        <ele>283.39999389648</ele>
        <time>2021-02-25T14:53:22.000Z</time>
      </trkpt>
      <trkpt lat="43.7609" lon="7.17955">
        <ele>283.20001220703</ele>
        <time>2021-02-25T14:53:24.000Z</time>
      </trkpt>
      <trkpt lat="43.76088" lon="7.17956">
        <ele>283.20001220703</ele>
        <time>2021-02-25T14:53:25.000Z</time>
      </trkpt>
      <trkpt lat="43.76076" lon="7.17956">
        <ele>282.20001220703</ele>
        <time>2021-02-25T14:53:29.000Z</time>
      </trkpt>
      <trkpt lat="43.76072" lon="7.17959">
        <ele>281</ele>
        <time>2021-02-25T14:53:31.000Z</time>
      </trkpt>
      <trkpt lat="43.76073" lon="7.17961">
        <ele>280.60000610352</ele>
        <time>2021-02-25T14:53:32.000Z</time>
      </trkpt>
      <trkpt lat="43.76073" lon="7.17967">
        <ele>279.79998779297</ele>
        <time>2021-02-25T14:53:34.000Z</time>
      </trkpt>
      <trkpt lat="43.76072" lon="7.17968">
        <ele>279.60000610352</ele>
        <time>2021-02-25T14:53:35.000Z</time>
      </trkpt>
      <trkpt lat="43.76067" lon="7.17966">
        <ele>279</ele>
        <time>2021-02-25T14:53:37.000Z</time>
      </trkpt>
      <trkpt lat="43.76063" lon="7.17965">
        <ele>278.60000610352</ele>
        <time>2021-02-25T14:53:38.000Z</time>
      </trkpt>
      <trkpt lat="43.76063" lon="7.17967">
        <ele>277.39999389648</ele>
        <time>2021-02-25T14:53:41.000Z</time>
      </trkpt>
      <trkpt lat="43.76067" lon="7.17973">
        <ele>276.60000610352</ele>
        <time>2021-02-25T14:53:44.000Z</time>
      </trkpt>
      <trkpt lat="43.76066" lon="7.17976">
        <ele>276.20001220703</ele>
        <time>2021-02-25T14:53:45.000Z</time>
      </trkpt>
      <trkpt lat="43.76064" lon="7.1798">
        <ele>275</ele>
        <time>2021-02-25T14:53:48.000Z</time>
      </trkpt>
      <trkpt lat="43.76062" lon="7.17985">
        <ele>273.79998779297</ele>
        <time>2021-02-25T14:53:50.000Z</time>
      </trkpt>
      <trkpt lat="43.76061" lon="7.17984">
        <ele>273.20001220703</ele>
        <time>2021-02-25T14:53:51.000Z</time>
      </trkpt>
      <trkpt lat="43.76056" lon="7.17987">
        <ele>272.60000610352</ele>
        <time>2021-02-25T14:53:53.000Z</time>
      </trkpt>
      <trkpt lat="43.76053" lon="7.1799">
        <ele>272.20001220703</ele>
        <time>2021-02-25T14:53:54.000Z</time>
      </trkpt>
      <trkpt lat="43.76052" lon="7.17992">
        <ele>271.39999389648</ele>
        <time>2021-02-25T14:53:55.000Z</time>
      </trkpt>
      <trkpt lat="43.7605" lon="7.17998">
        <ele>269.79998779297</ele>
        <time>2021-02-25T14:53:57.000Z</time>
      </trkpt>
      <trkpt lat="43.76049" lon="7.18">
        <ele>268.79998779297</ele>
        <time>2021-02-25T14:53:58.000Z</time>
      </trkpt>
      <trkpt lat="43.76047" lon="7.17999">
        <ele>267.79998779297</ele>
        <time>2021-02-25T14:53:59.000Z</time>
      </trkpt>
      <trkpt lat="43.76043" lon="7.17998">
        <ele>266.20001220703</ele>
        <time>2021-02-25T14:54:01.000Z</time>
      </trkpt>
      <trkpt lat="43.76042" lon="7.17998">
        <ele>266</ele>
        <time>2021-02-25T14:54:02.000Z</time>
      </trkpt>
      <trkpt lat="43.7604" lon="7.17996">
        <ele>264.79998779297</ele>
        <time>2021-02-25T14:54:04.000Z</time>
      </trkpt>
      <trkpt lat="43.7604" lon="7.17995">
        <ele>264.20001220703</ele>
        <time>2021-02-25T14:54:06.000Z</time>
      </trkpt>
      <trkpt lat="43.76041" lon="7.17995">
        <ele>263.79998779297</ele>
        <time>2021-02-25T14:54:12.000Z</time>
      </trkpt>
      <trkpt lat="43.76041" lon="7.17995">
        <ele>263.79998779297</ele>
        <time>2021-02-25T14:54:13.000Z</time>
      </trkpt>
      <trkpt lat="43.76041" lon="7.17994">
        <ele>263.60000610352</ele>
        <time>2021-02-25T14:54:19.000Z</time>
      </trkpt>
      <trkpt lat="43.76041" lon="7.17994">
        <ele>263.60000610352</ele>
        <time>2021-02-25T14:54:28.000Z</time>
      </trkpt>
      <trkpt lat="43.76044" lon="7.17995">
        <ele>263.20001220703</ele>
        <time>2021-02-25T14:54:33.000Z</time>
      </trkpt>
      <trkpt lat="43.76044" lon="7.17995">
        <ele>264</ele>
        <time>2021-02-25T14:54:39.000Z</time>
      </trkpt>
      <trkpt lat="43.76044" lon="7.17995">
        <ele>264</ele>
        <time>2021-02-25T14:54:50.000Z</time>
      </trkpt>
      <trkpt lat="43.76044" lon="7.17994">
        <ele>264</ele>
        <time>2021-02-25T14:54:59.000Z</time>
      </trkpt>
      <trkpt lat="43.76045" lon="7.17993">
        <ele>264</ele>
        <time>2021-02-25T14:55:05.000Z</time>
      </trkpt>
      <trkpt lat="43.76043" lon="7.17995">
        <ele>264.20001220703</ele>
        <time>2021-02-25T14:55:10.000Z</time>
      </trkpt>
      <trkpt lat="43.76043" lon="7.17995">
        <ele>264</ele>
        <time>2021-02-25T14:55:19.000Z</time>
      </trkpt>
      <trkpt lat="43.76042" lon="7.17995">
        <ele>264</ele>
        <time>2021-02-25T14:55:30.000Z</time>
      </trkpt>
      <trkpt lat="43.76041" lon="7.17996">
        <ele>264.20001220703</ele>
        <time>2021-02-25T14:55:36.000Z</time>
      </trkpt>
      <trkpt lat="43.7604" lon="7.17997">
        <ele>263.79998779297</ele>
        <time>2021-02-25T14:55:50.000Z</time>
      </trkpt>
      <trkpt lat="43.76039" lon="7.17997">
        <ele>263.60000610352</ele>
        <time>2021-02-25T14:55:59.000Z</time>
      </trkpt>
      <trkpt lat="43.7604" lon="7.17997">
        <ele>264.20001220703</ele>
        <time>2021-02-25T14:56:06.000Z</time>
      </trkpt>
      <trkpt lat="43.76039" lon="7.17997">
        <ele>264.39999389648</ele>
        <time>2021-02-25T14:56:18.000Z</time>
      </trkpt>
      <trkpt lat="43.76041" lon="7.17995">
        <ele>263.79998779297</ele>
        <time>2021-02-25T14:56:37.000Z</time>
      </trkpt>
      <trkpt lat="43.76042" lon="7.17995">
        <ele>264.20001220703</ele>
        <time>2021-02-25T14:56:44.000Z</time>
      </trkpt>
      <trkpt lat="43.76043" lon="7.17994">
        <ele>264.39999389648</ele>
        <time>2021-02-25T14:56:51.000Z</time>
      </trkpt>
      <trkpt lat="43.76043" lon="7.17994">
        <ele>264.60000610352</ele>
        <time>2021-02-25T14:57:02.000Z</time>
      </trkpt>
      <trkpt lat="43.76043" lon="7.17994">
        <ele>264.79998779297</ele>
        <time>2021-02-25T14:57:03.000Z</time>
      </trkpt>
      <trkpt lat="43.76047" lon="7.17991">
        <ele>264.79998779297</ele>
        <time>2021-02-25T14:57:09.000Z</time>
      </trkpt>
      <trkpt lat="43.76046" lon="7.17992">
        <ele>264.79998779297</ele>
        <time>2021-02-25T14:57:12.000Z</time>
      </trkpt>
      <trkpt lat="43.76047" lon="7.1799">
        <ele>265.20001220703</ele>
        <time>2021-02-25T14:57:15.000Z</time>
      </trkpt>
      <trkpt lat="43.76047" lon="7.1799">
        <ele>265.20001220703</ele>
        <time>2021-02-25T14:57:17.000Z</time>
      </trkpt>
      <trkpt lat="43.76047" lon="7.17994">
        <ele>265</ele>
        <time>2021-02-25T14:57:24.000Z</time>
      </trkpt>
      <trkpt lat="43.76053" lon="7.18002">
        <ele>264</ele>
        <time>2021-02-25T14:57:29.000Z</time>
      </trkpt>
      <trkpt lat="43.76051" lon="7.18005">
        <ele>263.60000610352</ele>
        <time>2021-02-25T14:57:30.000Z</time>
      </trkpt>
      <trkpt lat="43.7605" lon="7.18008">
        <ele>263.20001220703</ele>
        <time>2021-02-25T14:57:31.000Z</time>
      </trkpt>
      <trkpt lat="43.76048" lon="7.18011">
        <ele>262.20001220703</ele>
        <time>2021-02-25T14:57:32.000Z</time>
      </trkpt>
      <trkpt lat="43.76047" lon="7.18015">
        <ele>261.79998779297</ele>
        <time>2021-02-25T14:57:33.000Z</time>
      </trkpt>
      <trkpt lat="43.76046" lon="7.18017">
        <ele>261</ele>
        <time>2021-02-25T14:57:34.000Z</time>
      </trkpt>
      <trkpt lat="43.76045" lon="7.18022">
        <ele>259.39999389648</ele>
        <time>2021-02-25T14:57:36.000Z</time>
      </trkpt>
      <trkpt lat="43.76046" lon="7.18023">
        <ele>258.60000610352</ele>
        <time>2021-02-25T14:57:37.000Z</time>
      </trkpt>
      <trkpt lat="43.76047" lon="7.18025">
        <ele>257.39999389648</ele>
        <time>2021-02-25T14:57:38.000Z</time>
      </trkpt>
      <trkpt lat="43.76051" lon="7.18029">
        <ele>256</ele>
        <time>2021-02-25T14:57:40.000Z</time>
      </trkpt>
      <trkpt lat="43.7606" lon="7.18033">
        <ele>254.60000610352</ele>
        <time>2021-02-25T14:57:43.000Z</time>
      </trkpt>
      <trkpt lat="43.76067" lon="7.18033">
        <ele>253.60000610352</ele>
        <time>2021-02-25T14:57:45.000Z</time>
      </trkpt>
      <trkpt lat="43.76076" lon="7.18036">
        <ele>252.19999694824</ele>
        <time>2021-02-25T14:57:48.000Z</time>
      </trkpt>
      <trkpt lat="43.76086" lon="7.1804">
        <ele>251</ele>
        <time>2021-02-25T14:57:51.000Z</time>
      </trkpt>
      <trkpt lat="43.76088" lon="7.18041">
        <ele>249.80000305176</ele>
        <time>2021-02-25T14:57:52.000Z</time>
      </trkpt>
      <trkpt lat="43.7609" lon="7.18042">
        <ele>248.80000305176</ele>
        <time>2021-02-25T14:57:53.000Z</time>
      </trkpt>
      <trkpt lat="43.76091" lon="7.18042">
        <ele>247.80000305176</ele>
        <time>2021-02-25T14:57:54.000Z</time>
      </trkpt>
      <trkpt lat="43.7609" lon="7.18042">
        <ele>247</ele>
        <time>2021-02-25T14:57:55.000Z</time>
      </trkpt>
      <trkpt lat="43.76091" lon="7.18042">
        <ele>246</ele>
        <time>2021-02-25T14:57:58.000Z</time>
      </trkpt>
      <trkpt lat="43.76092" lon="7.18043">
        <ele>245.80000305176</ele>
        <time>2021-02-25T14:58:03.000Z</time>
      </trkpt>
      <trkpt lat="43.76092" lon="7.18044">
        <ele>245.19999694824</ele>
        <time>2021-02-25T14:58:14.000Z</time>
      </trkpt>
      <trkpt lat="43.76092" lon="7.18044">
        <ele>245.39999389648</ele>
        <time>2021-02-25T14:58:26.000Z</time>
      </trkpt>
      <trkpt lat="43.76092" lon="7.18044">
        <ele>245.80000305176</ele>
        <time>2021-02-25T14:58:43.000Z</time>
      </trkpt>
      <trkpt lat="43.76092" lon="7.18045">
        <ele>245.60000610352</ele>
        <time>2021-02-25T14:59:05.000Z</time>
      </trkpt>
      <trkpt lat="43.76093" lon="7.18046">
        <ele>245.60000610352</ele>
        <time>2021-02-25T14:59:23.000Z</time>
      </trkpt>
      <trkpt lat="43.76094" lon="7.18046">
        <ele>246</ele>
        <time>2021-02-25T14:59:34.000Z</time>
      </trkpt>
      <trkpt lat="43.76094" lon="7.18047">
        <ele>245.80000305176</ele>
        <time>2021-02-25T14:59:38.000Z</time>
      </trkpt>
      <trkpt lat="43.76095" lon="7.18048">
        <ele>245.80000305176</ele>
        <time>2021-02-25T14:59:44.000Z</time>
      </trkpt>
      <trkpt lat="43.76095" lon="7.18047">
        <ele>246</ele>
        <time>2021-02-25T14:59:51.000Z</time>
      </trkpt>
      <trkpt lat="43.76096" lon="7.18047">
        <ele>245.80000305176</ele>
        <time>2021-02-25T14:59:59.000Z</time>
      </trkpt>
      <trkpt lat="43.76091" lon="7.18045">
        <ele>245.80000305176</ele>
        <time>2021-02-25T15:00:05.000Z</time>
      </trkpt>
      <trkpt lat="43.76083" lon="7.18041">
        <ele>247</ele>
        <time>2021-02-25T15:00:10.000Z</time>
      </trkpt>
      <trkpt lat="43.76081" lon="7.18041">
        <ele>247.60000610352</ele>
        <time>2021-02-25T15:00:11.000Z</time>
      </trkpt>
      <trkpt lat="43.76074" lon="7.18038">
        <ele>249.19999694824</ele>
        <time>2021-02-25T15:00:14.000Z</time>
      </trkpt>
      <trkpt lat="43.7607" lon="7.18037">
        <ele>250.39999389648</ele>
        <time>2021-02-25T15:00:16.000Z</time>
      </trkpt>
      <trkpt lat="43.76068" lon="7.18037">
        <ele>250.80000305176</ele>
        <time>2021-02-25T15:00:17.000Z</time>
      </trkpt>
      <trkpt lat="43.76065" lon="7.18037">
        <ele>251.39999389648</ele>
        <time>2021-02-25T15:00:18.000Z</time>
      </trkpt>
      <trkpt lat="43.76056" lon="7.18033">
        <ele>252.60000610352</ele>
        <time>2021-02-25T15:00:22.000Z</time>
      </trkpt>
      <trkpt lat="43.76054" lon="7.18032">
        <ele>252.80000305176</ele>
        <time>2021-02-25T15:00:23.000Z</time>
      </trkpt>
      <trkpt lat="43.76049" lon="7.18027">
        <ele>253.80000305176</ele>
        <time>2021-02-25T15:00:26.000Z</time>
      </trkpt>
      <trkpt lat="43.76047" lon="7.18023">
        <ele>254.60000610352</ele>
        <time>2021-02-25T15:00:28.000Z</time>
      </trkpt>
      <trkpt lat="43.76047" lon="7.1802">
        <ele>255.19999694824</ele>
        <time>2021-02-25T15:00:29.000Z</time>
      </trkpt>
      <trkpt lat="43.76049" lon="7.18014">
        <ele>257</ele>
        <time>2021-02-25T15:00:32.000Z</time>
      </trkpt>
      <trkpt lat="43.76051" lon="7.1801">
        <ele>258.20001220703</ele>
        <time>2021-02-25T15:00:34.000Z</time>
      </trkpt>
      <trkpt lat="43.76051" lon="7.18009">
        <ele>258.60000610352</ele>
        <time>2021-02-25T15:00:35.000Z</time>
      </trkpt>
      <trkpt lat="43.76052" lon="7.18006">
        <ele>259.39999389648</ele>
        <time>2021-02-25T15:00:36.000Z</time>
      </trkpt>
      <trkpt lat="43.76053" lon="7.18005">
        <ele>260.79998779297</ele>
        <time>2021-02-25T15:00:39.000Z</time>
      </trkpt>
      <trkpt lat="43.76053" lon="7.18004">
        <ele>261.39999389648</ele>
        <time>2021-02-25T15:00:40.000Z</time>
      </trkpt>
      <trkpt lat="43.76052" lon="7.18003">
        <ele>262.20001220703</ele>
        <time>2021-02-25T15:00:42.000Z</time>
      </trkpt>
      <trkpt lat="43.76052" lon="7.18003">
        <ele>262.60000610352</ele>
        <time>2021-02-25T15:00:45.000Z</time>
      </trkpt>
      <trkpt lat="43.76046" lon="7.17997">
        <ele>263</ele>
        <time>2021-02-25T15:00:49.000Z</time>
      </trkpt>
      <trkpt lat="43.76045" lon="7.17996">
        <ele>263.20001220703</ele>
        <time>2021-02-25T15:00:50.000Z</time>
      </trkpt>
      <trkpt lat="43.7604" lon="7.17993">
        <ele>264.20001220703</ele>
        <time>2021-02-25T15:00:53.000Z</time>
      </trkpt>
      <trkpt lat="43.76039" lon="7.17991">
        <ele>264.39999389648</ele>
        <time>2021-02-25T15:00:54.000Z</time>
      </trkpt>
      <trkpt lat="43.76035" lon="7.17982">
        <ele>264</ele>
        <time>2021-02-25T15:00:58.000Z</time>
      </trkpt>
      <trkpt lat="43.76028" lon="7.17975">
        <ele>263.20001220703</ele>
        <time>2021-02-25T15:01:00.000Z</time>
      </trkpt>
      <trkpt lat="43.76025" lon="7.17971">
        <ele>262.79998779297</ele>
        <time>2021-02-25T15:01:01.000Z</time>
      </trkpt>
      <trkpt lat="43.7602" lon="7.17967">
        <ele>261.79998779297</ele>
        <time>2021-02-25T15:01:02.000Z</time>
      </trkpt>
      <trkpt lat="43.76009" lon="7.1796">
        <ele>260.39999389648</ele>
        <time>2021-02-25T15:01:04.000Z</time>
      </trkpt>
      <trkpt lat="43.76005" lon="7.17956">
        <ele>259.60000610352</ele>
        <time>2021-02-25T15:01:05.000Z</time>
      </trkpt>
      <trkpt lat="43.76001" lon="7.17952">
        <ele>258.79998779297</ele>
        <time>2021-02-25T15:01:06.000Z</time>
      </trkpt>
      <trkpt lat="43.75996" lon="7.17949">
        <ele>259</ele>
        <time>2021-02-25T15:01:07.000Z</time>
      </trkpt>
      <trkpt lat="43.75986" lon="7.17943">
        <ele>257.79998779297</ele>
        <time>2021-02-25T15:01:09.000Z</time>
      </trkpt>
      <trkpt lat="43.75981" lon="7.17939">
        <ele>257.39999389648</ele>
        <time>2021-02-25T15:01:10.000Z</time>
      </trkpt>
      <trkpt lat="43.75972" lon="7.17932">
        <ele>256.39999389648</ele>
        <time>2021-02-25T15:01:12.000Z</time>
      </trkpt>
      <trkpt lat="43.75964" lon="7.17921">
        <ele>255</ele>
        <time>2021-02-25T15:01:14.000Z</time>
      </trkpt>
      <trkpt lat="43.75959" lon="7.17918">
        <ele>254.39999389648</ele>
        <time>2021-02-25T15:01:15.000Z</time>
      </trkpt>
      <trkpt lat="43.75953" lon="7.17913">
        <ele>253.60000610352</ele>
        <time>2021-02-25T15:01:16.000Z</time>
      </trkpt>
      <trkpt lat="43.75948" lon="7.17908">
        <ele>253</ele>
        <time>2021-02-25T15:01:17.000Z</time>
      </trkpt>
      <trkpt lat="43.75942" lon="7.17901">
        <ele>252.19999694824</ele>
        <time>2021-02-25T15:01:18.000Z</time>
      </trkpt>
      <trkpt lat="43.75938" lon="7.17895">
        <ele>251.19999694824</ele>
        <time>2021-02-25T15:01:19.000Z</time>
      </trkpt>
      <trkpt lat="43.7593" lon="7.17882">
        <ele>249.19999694824</ele>
        <time>2021-02-25T15:01:21.000Z</time>
      </trkpt>
      <trkpt lat="43.75925" lon="7.17878">
        <ele>248</ele>
        <time>2021-02-25T15:01:22.000Z</time>
      </trkpt>
      <trkpt lat="43.75921" lon="7.17874">
        <ele>246.80000305176</ele>
        <time>2021-02-25T15:01:23.000Z</time>
      </trkpt>
      <trkpt lat="43.75918" lon="7.17874">
        <ele>245.39999389648</ele>
        <time>2021-02-25T15:01:25.000Z</time>
      </trkpt>
      <trkpt lat="43.75917" lon="7.17882">
        <ele>245</ele>
        <time>2021-02-25T15:01:29.000Z</time>
      </trkpt>
      <trkpt lat="43.75914" lon="7.17895">
        <ele>246.19999694824</ele>
        <time>2021-02-25T15:01:33.000Z</time>
      </trkpt>
      <trkpt lat="43.75913" lon="7.179">
        <ele>246.60000610352</ele>
        <time>2021-02-25T15:01:35.000Z</time>
      </trkpt>
      <trkpt lat="43.75912" lon="7.17902">
        <ele>247.19999694824</ele>
        <time>2021-02-25T15:01:37.000Z</time>
      </trkpt>
      <trkpt lat="43.75912" lon="7.17902">
        <ele>248</ele>
        <time>2021-02-25T15:01:39.000Z</time>
      </trkpt>
      <trkpt lat="43.75912" lon="7.17903">
        <ele>248.60000610352</ele>
        <time>2021-02-25T15:01:43.000Z</time>
      </trkpt>
      <trkpt lat="43.75913" lon="7.17909">
        <ele>248.39999389648</ele>
        <time>2021-02-25T15:01:48.000Z</time>
      </trkpt>
      <trkpt lat="43.75913" lon="7.17912">
        <ele>248.39999389648</ele>
        <time>2021-02-25T15:01:50.000Z</time>
      </trkpt>
      <trkpt lat="43.75912" lon="7.17916">
        <ele>248.39999389648</ele>
        <time>2021-02-25T15:01:52.000Z</time>
      </trkpt>
      <trkpt lat="43.7591" lon="7.17941">
        <ele>248.19999694824</ele>
        <time>2021-02-25T15:01:58.000Z</time>
      </trkpt>
      <trkpt lat="43.75909" lon="7.17973">
        <ele>246.80000305176</ele>
        <time>2021-02-25T15:02:04.000Z</time>
      </trkpt>
      <trkpt lat="43.75911" lon="7.17995">
        <ele>245</ele>
        <time>2021-02-25T15:02:07.000Z</time>
      </trkpt>
      <trkpt lat="43.75911" lon="7.18002">
        <ele>244.19999694824</ele>
        <time>2021-02-25T15:02:08.000Z</time>
      </trkpt>
      <trkpt lat="43.7591" lon="7.1801">
        <ele>243.19999694824</ele>
        <time>2021-02-25T15:02:09.000Z</time>
      </trkpt>
      <trkpt lat="43.75909" lon="7.18018">
        <ele>242</ele>
        <time>2021-02-25T15:02:10.000Z</time>
      </trkpt>
      <trkpt lat="43.75906" lon="7.18031">
        <ele>240</ele>
        <time>2021-02-25T15:02:12.000Z</time>
      </trkpt>
      <trkpt lat="43.75904" lon="7.18038">
        <ele>239</ele>
        <time>2021-02-25T15:02:13.000Z</time>
      </trkpt>
      <trkpt lat="43.75902" lon="7.18044">
        <ele>238</ele>
        <time>2021-02-25T15:02:14.000Z</time>
      </trkpt>
      <trkpt lat="43.75901" lon="7.1805">
        <ele>237</ele>
        <time>2021-02-25T15:02:15.000Z</time>
      </trkpt>
      <trkpt lat="43.75899" lon="7.18056">
        <ele>235.80000305176</ele>
        <time>2021-02-25T15:02:16.000Z</time>
      </trkpt>
      <trkpt lat="43.75898" lon="7.1806">
        <ele>234.80000305176</ele>
        <time>2021-02-25T15:02:17.000Z</time>
      </trkpt>
      <trkpt lat="43.75896" lon="7.18072">
        <ele>232.39999389648</ele>
        <time>2021-02-25T15:02:19.000Z</time>
      </trkpt>
      <trkpt lat="43.75893" lon="7.18086">
        <ele>230.60000610352</ele>
        <time>2021-02-25T15:02:21.000Z</time>
      </trkpt>
      <trkpt lat="43.7589" lon="7.18093">
        <ele>229.60000610352</ele>
        <time>2021-02-25T15:02:22.000Z</time>
      </trkpt>
      <trkpt lat="43.75888" lon="7.18101">
        <ele>228.60000610352</ele>
        <time>2021-02-25T15:02:23.000Z</time>
      </trkpt>
      <trkpt lat="43.75885" lon="7.1811">
        <ele>227.39999389648</ele>
        <time>2021-02-25T15:02:24.000Z</time>
      </trkpt>
      <trkpt lat="43.75882" lon="7.18118">
        <ele>226.19999694824</ele>
        <time>2021-02-25T15:02:25.000Z</time>
      </trkpt>
      <trkpt lat="43.75877" lon="7.18128">
        <ele>224.80000305176</ele>
        <time>2021-02-25T15:02:26.000Z</time>
      </trkpt>
      <trkpt lat="43.75873" lon="7.18136">
        <ele>223.19999694824</ele>
        <time>2021-02-25T15:02:27.000Z</time>
      </trkpt>
      <trkpt lat="43.75869" lon="7.18144">
        <ele>221.19999694824</ele>
        <time>2021-02-25T15:02:28.000Z</time>
      </trkpt>
      <trkpt lat="43.75865" lon="7.18148">
        <ele>219.39999389648</ele>
        <time>2021-02-25T15:02:29.000Z</time>
      </trkpt>
      <trkpt lat="43.75863" lon="7.18152">
        <ele>217.60000610352</ele>
        <time>2021-02-25T15:02:30.000Z</time>
      </trkpt>
      <trkpt lat="43.75863" lon="7.18156">
        <ele>216</ele>
        <time>2021-02-25T15:02:31.000Z</time>
      </trkpt>
      <trkpt lat="43.75865" lon="7.18158">
        <ele>214.60000610352</ele>
        <time>2021-02-25T15:02:32.000Z</time>
      </trkpt>
      <trkpt lat="43.7587" lon="7.18159">
        <ele>213.60000610352</ele>
        <time>2021-02-25T15:02:33.000Z</time>
      </trkpt>
      <trkpt lat="43.75874" lon="7.1816">
        <ele>212.60000610352</ele>
        <time>2021-02-25T15:02:34.000Z</time>
      </trkpt>
      <trkpt lat="43.75879" lon="7.1816">
        <ele>212</ele>
        <time>2021-02-25T15:02:35.000Z</time>
      </trkpt>
      <trkpt lat="43.75882" lon="7.18159">
        <ele>211.19999694824</ele>
        <time>2021-02-25T15:02:36.000Z</time>
      </trkpt>
      <trkpt lat="43.75884" lon="7.18162">
        <ele>210.19999694824</ele>
        <time>2021-02-25T15:02:37.000Z</time>
      </trkpt>
      <trkpt lat="43.75876" lon="7.1817">
        <ele>208.19999694824</ele>
        <time>2021-02-25T15:02:39.000Z</time>
      </trkpt>
      <trkpt lat="43.7587" lon="7.18176">
        <ele>206.60000610352</ele>
        <time>2021-02-25T15:02:41.000Z</time>
      </trkpt>
      <trkpt lat="43.7587" lon="7.1818">
        <ele>204.80000305176</ele>
        <time>2021-02-25T15:02:43.000Z</time>
      </trkpt>
      <trkpt lat="43.75871" lon="7.18184">
        <ele>203.60000610352</ele>
        <time>2021-02-25T15:02:45.000Z</time>
      </trkpt>
      <trkpt lat="43.75868" lon="7.18189">
        <ele>202.39999389648</ele>
        <time>2021-02-25T15:02:47.000Z</time>
      </trkpt>
      <trkpt lat="43.75862" lon="7.18194">
        <ele>201.19999694824</ele>
        <time>2021-02-25T15:02:49.000Z</time>
      </trkpt>
      <trkpt lat="43.75859" lon="7.18197">
        <ele>200.60000610352</ele>
        <time>2021-02-25T15:02:50.000Z</time>
      </trkpt>
      <trkpt lat="43.75856" lon="7.18198">
        <ele>199.80000305176</ele>
        <time>2021-02-25T15:02:51.000Z</time>
      </trkpt>
      <trkpt lat="43.7585" lon="7.18203">
        <ele>198.19999694824</ele>
        <time>2021-02-25T15:02:53.000Z</time>
      </trkpt>
      <trkpt lat="43.7585" lon="7.18206">
        <ele>197.39999389648</ele>
        <time>2021-02-25T15:02:54.000Z</time>
      </trkpt>
      <trkpt lat="43.75853" lon="7.18206">
        <ele>196.19999694824</ele>
        <time>2021-02-25T15:02:55.000Z</time>
      </trkpt>
      <trkpt lat="43.75856" lon="7.18211">
        <ele>194.39999389648</ele>
        <time>2021-02-25T15:02:57.000Z</time>
      </trkpt>
      <trkpt lat="43.75851" lon="7.18213">
        <ele>193</ele>
        <time>2021-02-25T15:02:59.000Z</time>
      </trkpt>
      <trkpt lat="43.75847" lon="7.18212">
        <ele>192.60000610352</ele>
        <time>2021-02-25T15:03:00.000Z</time>
      </trkpt>
      <trkpt lat="43.75843" lon="7.18218">
        <ele>191.80000305176</ele>
        <time>2021-02-25T15:03:02.000Z</time>
      </trkpt>
      <trkpt lat="43.75843" lon="7.1822">
        <ele>191.39999389648</ele>
        <time>2021-02-25T15:03:03.000Z</time>
      </trkpt>
      <trkpt lat="43.75845" lon="7.18222">
        <ele>190.60000610352</ele>
        <time>2021-02-25T15:03:04.000Z</time>
      </trkpt>
      <trkpt lat="43.75847" lon="7.1823">
        <ele>189</ele>
        <time>2021-02-25T15:03:06.000Z</time>
      </trkpt>
      <trkpt lat="43.75841" lon="7.18233">
        <ele>187.19999694824</ele>
        <time>2021-02-25T15:03:08.000Z</time>
      </trkpt>
      <trkpt lat="43.75837" lon="7.18235">
        <ele>185.60000610352</ele>
        <time>2021-02-25T15:03:10.000Z</time>
      </trkpt>
      <trkpt lat="43.75837" lon="7.18238">
        <ele>184.80000305176</ele>
        <time>2021-02-25T15:03:11.000Z</time>
      </trkpt>
      <trkpt lat="43.75837" lon="7.18242">
        <ele>184</ele>
        <time>2021-02-25T15:03:12.000Z</time>
      </trkpt>
      <trkpt lat="43.75836" lon="7.18248">
        <ele>182.39999389648</ele>
        <time>2021-02-25T15:03:14.000Z</time>
      </trkpt>
      <trkpt lat="43.75833" lon="7.18248">
        <ele>181.80000305176</ele>
        <time>2021-02-25T15:03:15.000Z</time>
      </trkpt>
      <trkpt lat="43.7583" lon="7.18247">
        <ele>181.39999389648</ele>
        <time>2021-02-25T15:03:16.000Z</time>
      </trkpt>
      <trkpt lat="43.75826" lon="7.18249">
        <ele>180.39999389648</ele>
        <time>2021-02-25T15:03:18.000Z</time>
      </trkpt>
      <trkpt lat="43.7583" lon="7.18254">
        <ele>179.19999694824</ele>
        <time>2021-02-25T15:03:20.000Z</time>
      </trkpt>
      <trkpt lat="43.75834" lon="7.18256">
        <ele>178.80000305176</ele>
        <time>2021-02-25T15:03:21.000Z</time>
      </trkpt>
      <trkpt lat="43.75838" lon="7.18262">
        <ele>177.60000610352</ele>
        <time>2021-02-25T15:03:23.000Z</time>
      </trkpt>
      <trkpt lat="43.75836" lon="7.18263">
        <ele>177</ele>
        <time>2021-02-25T15:03:24.000Z</time>
      </trkpt>
      <trkpt lat="43.75835" lon="7.18263">
        <ele>176.39999389648</ele>
        <time>2021-02-25T15:03:25.000Z</time>
      </trkpt>
      <trkpt lat="43.75833" lon="7.18263">
        <ele>175.19999694824</ele>
        <time>2021-02-25T15:03:27.000Z</time>
      </trkpt>
      <trkpt lat="43.75832" lon="7.18263">
        <ele>174.80000305176</ele>
        <time>2021-02-25T15:03:28.000Z</time>
      </trkpt>
      <trkpt lat="43.75821" lon="7.1827">
        <ele>174</ele>
        <time>2021-02-25T15:03:31.000Z</time>
      </trkpt>
      <trkpt lat="43.7581" lon="7.18279">
        <ele>172.80000305176</ele>
        <time>2021-02-25T15:03:33.000Z</time>
      </trkpt>
      <trkpt lat="43.75803" lon="7.18285">
        <ele>171.80000305176</ele>
        <time>2021-02-25T15:03:34.000Z</time>
      </trkpt>
      <trkpt lat="43.75797" lon="7.18288">
        <ele>170.19999694824</ele>
        <time>2021-02-25T15:03:35.000Z</time>
      </trkpt>
      <trkpt lat="43.75791" lon="7.18293">
        <ele>168.39999389648</ele>
        <time>2021-02-25T15:03:36.000Z</time>
      </trkpt>
      <trkpt lat="43.75787" lon="7.18296">
        <ele>166.80000305176</ele>
        <time>2021-02-25T15:03:37.000Z</time>
      </trkpt>
      <trkpt lat="43.75782" lon="7.18298">
        <ele>165</ele>
        <time>2021-02-25T15:03:38.000Z</time>
      </trkpt>
      <trkpt lat="43.75779" lon="7.18302">
        <ele>163.39999389648</ele>
        <time>2021-02-25T15:03:39.000Z</time>
      </trkpt>
      <trkpt lat="43.75777" lon="7.18307">
        <ele>162</ele>
        <time>2021-02-25T15:03:40.000Z</time>
      </trkpt>
      <trkpt lat="43.75776" lon="7.18312">
        <ele>160.80000305176</ele>
        <time>2021-02-25T15:03:41.000Z</time>
      </trkpt>
      <trkpt lat="43.75776" lon="7.18318">
        <ele>159.60000610352</ele>
        <time>2021-02-25T15:03:42.000Z</time>
      </trkpt>
      <trkpt lat="43.75773" lon="7.18323">
        <ele>158.60000610352</ele>
        <time>2021-02-25T15:03:43.000Z</time>
      </trkpt>
      <trkpt lat="43.7577" lon="7.18323">
        <ele>157.80000305176</ele>
        <time>2021-02-25T15:03:44.000Z</time>
      </trkpt>
      <trkpt lat="43.75767" lon="7.18322">
        <ele>156.60000610352</ele>
        <time>2021-02-25T15:03:45.000Z</time>
      </trkpt>
      <trkpt lat="43.75765" lon="7.18323">
        <ele>155.60000610352</ele>
        <time>2021-02-25T15:03:46.000Z</time>
      </trkpt>
      <trkpt lat="43.75763" lon="7.18323">
        <ele>154.60000610352</ele>
        <time>2021-02-25T15:03:47.000Z</time>
      </trkpt>
      <trkpt lat="43.75763" lon="7.18324">
        <ele>153.19999694824</ele>
        <time>2021-02-25T15:03:48.000Z</time>
      </trkpt>
      <trkpt lat="43.75763" lon="7.18323">
        <ele>152.39999389648</ele>
        <time>2021-02-25T15:03:49.000Z</time>
      </trkpt>
      <trkpt lat="43.75759" lon="7.18322">
        <ele>151.19999694824</ele>
        <time>2021-02-25T15:03:54.000Z</time>
      </trkpt>
      <trkpt lat="43.75759" lon="7.18322">
        <ele>151</ele>
        <time>2021-02-25T15:03:55.000Z</time>
      </trkpt>
      <trkpt lat="43.75754" lon="7.18323">
        <ele>151</ele>
        <time>2021-02-25T15:04:02.000Z</time>
      </trkpt>
      <trkpt lat="43.75744" lon="7.18332">
        <ele>151</ele>
        <time>2021-02-25T15:04:07.000Z</time>
      </trkpt>
      <trkpt lat="43.75739" lon="7.18336">
        <ele>150</ele>
        <time>2021-02-25T15:04:09.000Z</time>
      </trkpt>
      <trkpt lat="43.75738" lon="7.18335">
        <ele>149.60000610352</ele>
        <time>2021-02-25T15:04:10.000Z</time>
      </trkpt>
      <trkpt lat="43.75737" lon="7.18335">
        <ele>148.60000610352</ele>
        <time>2021-02-25T15:04:11.000Z</time>
      </trkpt>
      <trkpt lat="43.75736" lon="7.18337">
        <ele>147.60000610352</ele>
        <time>2021-02-25T15:04:12.000Z</time>
      </trkpt>
      <trkpt lat="43.75734" lon="7.18342">
        <ele>146.60000610352</ele>
        <time>2021-02-25T15:04:13.000Z</time>
      </trkpt>
      <trkpt lat="43.75735" lon="7.1835">
        <ele>145.19999694824</ele>
        <time>2021-02-25T15:04:14.000Z</time>
      </trkpt>
      <trkpt lat="43.75735" lon="7.18357">
        <ele>143.80000305176</ele>
        <time>2021-02-25T15:04:15.000Z</time>
      </trkpt>
      <trkpt lat="43.75734" lon="7.18369">
        <ele>142</ele>
        <time>2021-02-25T15:04:17.000Z</time>
      </trkpt>
      <trkpt lat="43.75733" lon="7.18381">
        <ele>140</ele>
        <time>2021-02-25T15:04:19.000Z</time>
      </trkpt>
      <trkpt lat="43.75732" lon="7.18394">
        <ele>138.19999694824</ele>
        <time>2021-02-25T15:04:21.000Z</time>
      </trkpt>
      <trkpt lat="43.75731" lon="7.18398">
        <ele>136.80000305176</ele>
        <time>2021-02-25T15:04:22.000Z</time>
      </trkpt>
      <trkpt lat="43.7573" lon="7.18402">
        <ele>135.19999694824</ele>
        <time>2021-02-25T15:04:23.000Z</time>
      </trkpt>
      <trkpt lat="43.7573" lon="7.18407">
        <ele>133.60000610352</ele>
        <time>2021-02-25T15:04:24.000Z</time>
      </trkpt>
      <trkpt lat="43.75731" lon="7.18412">
        <ele>132.60000610352</ele>
        <time>2021-02-25T15:04:25.000Z</time>
      </trkpt>
      <trkpt lat="43.75731" lon="7.18416">
        <ele>131.80000305176</ele>
        <time>2021-02-25T15:04:26.000Z</time>
      </trkpt>
      <trkpt lat="43.75731" lon="7.18422">
        <ele>131.19999694824</ele>
        <time>2021-02-25T15:04:27.000Z</time>
      </trkpt>
      <trkpt lat="43.75733" lon="7.18432">
        <ele>129.39999389648</ele>
        <time>2021-02-25T15:04:29.000Z</time>
      </trkpt>
      <trkpt lat="43.75734" lon="7.18438">
        <ele>128.80000305176</ele>
        <time>2021-02-25T15:04:30.000Z</time>
      </trkpt>
      <trkpt lat="43.75736" lon="7.18444">
        <ele>127.80000305176</ele>
        <time>2021-02-25T15:04:31.000Z</time>
      </trkpt>
      <trkpt lat="43.75739" lon="7.18452">
        <ele>126.19999694824</ele>
        <time>2021-02-25T15:04:32.000Z</time>
      </trkpt>
      <trkpt lat="43.75745" lon="7.1846">
        <ele>125</ele>
        <time>2021-02-25T15:04:33.000Z</time>
      </trkpt>
      <trkpt lat="43.75751" lon="7.18468">
        <ele>123.40000152588</ele>
        <time>2021-02-25T15:04:34.000Z</time>
      </trkpt>
      <trkpt lat="43.75758" lon="7.18476">
        <ele>121.80000305176</ele>
        <time>2021-02-25T15:04:35.000Z</time>
      </trkpt>
      <trkpt lat="43.75765" lon="7.18484">
        <ele>120.80000305176</ele>
        <time>2021-02-25T15:04:36.000Z</time>
      </trkpt>
      <trkpt lat="43.75772" lon="7.18492">
        <ele>119.19999694824</ele>
        <time>2021-02-25T15:04:37.000Z</time>
      </trkpt>
      <trkpt lat="43.75778" lon="7.185">
        <ele>117.40000152588</ele>
        <time>2021-02-25T15:04:38.000Z</time>
      </trkpt>
      <trkpt lat="43.75782" lon="7.18508">
        <ele>115.80000305176</ele>
        <time>2021-02-25T15:04:39.000Z</time>
      </trkpt>
      <trkpt lat="43.75785" lon="7.18518">
        <ele>114.19999694824</ele>
        <time>2021-02-25T15:04:40.000Z</time>
      </trkpt>
      <trkpt lat="43.75788" lon="7.18528">
        <ele>112.59999847412</ele>
        <time>2021-02-25T15:04:41.000Z</time>
      </trkpt>
      <trkpt lat="43.75791" lon="7.18538">
        <ele>111</ele>
        <time>2021-02-25T15:04:42.000Z</time>
      </trkpt>
      <trkpt lat="43.75793" lon="7.18547">
        <ele>109.59999847412</ele>
        <time>2021-02-25T15:04:43.000Z</time>
      </trkpt>
      <trkpt lat="43.75795" lon="7.18556">
        <ele>108</ele>
        <time>2021-02-25T15:04:44.000Z</time>
      </trkpt>
      <trkpt lat="43.75797" lon="7.18564">
        <ele>106.59999847412</ele>
        <time>2021-02-25T15:04:45.000Z</time>
      </trkpt>
      <trkpt lat="43.75799" lon="7.18572">
        <ele>105.59999847412</ele>
        <time>2021-02-25T15:04:46.000Z</time>
      </trkpt>
      <trkpt lat="43.75801" lon="7.18581">
        <ele>104.59999847412</ele>
        <time>2021-02-25T15:04:47.000Z</time>
      </trkpt>
      <trkpt lat="43.75803" lon="7.18589">
        <ele>103.80000305176</ele>
        <time>2021-02-25T15:04:48.000Z</time>
      </trkpt>
      <trkpt lat="43.75805" lon="7.18596">
        <ele>103</ele>
        <time>2021-02-25T15:04:49.000Z</time>
      </trkpt>
      <trkpt lat="43.75806" lon="7.18602">
        <ele>102.19999694824</ele>
        <time>2021-02-25T15:04:50.000Z</time>
      </trkpt>
      <trkpt lat="43.75806" lon="7.18616">
        <ele>100.59999847412</ele>
        <time>2021-02-25T15:04:52.000Z</time>
      </trkpt>
      <trkpt lat="43.75806" lon="7.18623">
        <ele>99.800003051758</ele>
        <time>2021-02-25T15:04:53.000Z</time>
      </trkpt>
      <trkpt lat="43.75805" lon="7.18628">
        <ele>99</ele>
        <time>2021-02-25T15:04:54.000Z</time>
      </trkpt>
      <trkpt lat="43.75799" lon="7.18635">
        <ele>97.400001525879</ele>
        <time>2021-02-25T15:04:56.000Z</time>
      </trkpt>
      <trkpt lat="43.75792" lon="7.18642">
        <ele>95.199996948242</ele>
        <time>2021-02-25T15:04:58.000Z</time>
      </trkpt>
      <trkpt lat="43.75789" lon="7.18647">
        <ele>94</ele>
        <time>2021-02-25T15:04:59.000Z</time>
      </trkpt>
      <trkpt lat="43.75787" lon="7.18653">
        <ele>93</ele>
        <time>2021-02-25T15:05:00.000Z</time>
      </trkpt>
      <trkpt lat="43.75786" lon="7.18659">
        <ele>91.800003051758</ele>
        <time>2021-02-25T15:05:01.000Z</time>
      </trkpt>
      <trkpt lat="43.75785" lon="7.18666">
        <ele>90.400001525879</ele>
        <time>2021-02-25T15:05:02.000Z</time>
      </trkpt>
      <trkpt lat="43.75782" lon="7.18682">
        <ele>88.599998474121</ele>
        <time>2021-02-25T15:05:04.000Z</time>
      </trkpt>
      <trkpt lat="43.75779" lon="7.187">
        <ele>87</ele>
        <time>2021-02-25T15:05:06.000Z</time>
      </trkpt>
      <trkpt lat="43.75775" lon="7.18717">
        <ele>84.400001525879</ele>
        <time>2021-02-25T15:05:08.000Z</time>
      </trkpt>
      <trkpt lat="43.75773" lon="7.18723">
        <ele>82.800003051758</ele>
        <time>2021-02-25T15:05:09.000Z</time>
      </trkpt>
      <trkpt lat="43.75771" lon="7.18727">
        <ele>81.599998474121</ele>
        <time>2021-02-25T15:05:10.000Z</time>
      </trkpt>
      <trkpt lat="43.75769" lon="7.18732">
        <ele>79.800003051758</ele>
        <time>2021-02-25T15:05:12.000Z</time>
      </trkpt>
      <trkpt lat="43.75768" lon="7.18735">
        <ele>79.199996948242</ele>
        <time>2021-02-25T15:05:13.000Z</time>
      </trkpt>
      <trkpt lat="43.75768" lon="7.18737">
        <ele>78.800003051758</ele>
        <time>2021-02-25T15:05:14.000Z</time>
      </trkpt>
      <trkpt lat="43.75767" lon="7.18739">
        <ele>78.599998474121</ele>
        <time>2021-02-25T15:05:15.000Z</time>
      </trkpt>
      <trkpt lat="43.75767" lon="7.18747">
        <ele>78.199996948242</ele>
        <time>2021-02-25T15:05:19.000Z</time>
      </trkpt>
      <trkpt lat="43.75774" lon="7.18759">
        <ele>78.400001525879</ele>
        <time>2021-02-25T15:05:24.000Z</time>
      </trkpt>
      <trkpt lat="43.75788" lon="7.1878">
        <ele>78.400001525879</ele>
        <time>2021-02-25T15:05:31.000Z</time>
      </trkpt>
      <trkpt lat="43.75816" lon="7.18819">
        <ele>78.599998474121</ele>
        <time>2021-02-25T15:05:42.000Z</time>
      </trkpt>
      <trkpt lat="43.75845" lon="7.18863">
        <ele>78.800003051758</ele>
        <time>2021-02-25T15:05:53.000Z</time>
      </trkpt>
      <trkpt lat="43.7586" lon="7.18885">
        <ele>79.199996948242</ele>
        <time>2021-02-25T15:06:00.000Z</time>
      </trkpt>
      <trkpt lat="43.75861" lon="7.18887">
        <ele>79.199996948242</ele>
        <time>2021-02-25T15:06:01.000Z</time>
      </trkpt>
      <trkpt lat="43.75858" lon="7.18895">
        <ele>79.400001525879</ele>
        <time>2021-02-25T15:06:04.000Z</time>
      </trkpt>
      <trkpt lat="43.75856" lon="7.18899">
        <ele>79.400001525879</ele>
        <time>2021-02-25T15:06:05.000Z</time>
      </trkpt>
      <trkpt lat="43.75844" lon="7.18918">
        <ele>78.599998474121</ele>
        <time>2021-02-25T15:06:09.000Z</time>
      </trkpt>
      <trkpt lat="43.75821" lon="7.18958">
        <ele>78.599998474121</ele>
        <time>2021-02-25T15:06:17.000Z</time>
      </trkpt>
      <trkpt lat="43.758" lon="7.18996">
        <ele>78.199996948242</ele>
        <time>2021-02-25T15:06:25.000Z</time>
      </trkpt>
      <trkpt lat="43.75798" lon="7.19013">
        <ele>78.199996948242</ele>
        <time>2021-02-25T15:06:29.000Z</time>
      </trkpt>
      <trkpt lat="43.75789" lon="7.19033">
        <ele>78.599998474121</ele>
        <time>2021-02-25T15:06:34.000Z</time>
      </trkpt>
      <trkpt lat="43.75772" lon="7.19061">
        <ele>78.599998474121</ele>
        <time>2021-02-25T15:06:41.000Z</time>
      </trkpt>
      <trkpt lat="43.75753" lon="7.19095">
        <ele>78.400001525879</ele>
        <time>2021-02-25T15:06:48.000Z</time>
      </trkpt>
      <trkpt lat="43.75733" lon="7.19135">
        <ele>78.599998474121</ele>
        <time>2021-02-25T15:06:57.000Z</time>
      </trkpt>
      <trkpt lat="43.75726" lon="7.19151">
        <ele>78.800003051758</ele>
        <time>2021-02-25T15:07:01.000Z</time>
      </trkpt>
      <trkpt lat="43.75712" lon="7.19163">
        <ele>78.800003051758</ele>
        <time>2021-02-25T15:07:07.000Z</time>
      </trkpt>
      <trkpt lat="43.75704" lon="7.19177">
        <ele>78.400001525879</ele>
        <time>2021-02-25T15:07:12.000Z</time>
      </trkpt>
      <trkpt lat="43.75703" lon="7.19183">
        <ele>78.400001525879</ele>
        <time>2021-02-25T15:07:14.000Z</time>
      </trkpt>
      <trkpt lat="43.75702" lon="7.19185">
        <ele>78.599998474121</ele>
        <time>2021-02-25T15:07:15.000Z</time>
      </trkpt>
      <trkpt lat="43.75695" lon="7.1919">
        <ele>78.599998474121</ele>
        <time>2021-02-25T15:07:20.000Z</time>
      </trkpt>
      <trkpt lat="43.75696" lon="7.19198">
        <ele>78.400001525879</ele>
        <time>2021-02-25T15:07:25.000Z</time>
      </trkpt>
      <trkpt lat="43.75701" lon="7.19202">
        <ele>78.800003051758</ele>
        <time>2021-02-25T15:07:30.000Z</time>
      </trkpt>
      <trkpt lat="43.75701" lon="7.19202">
        <ele>79.199996948242</ele>
        <time>2021-02-25T15:07:38.000Z</time>
      </trkpt>
      <trkpt lat="43.75701" lon="7.19202">
        <ele>79</ele>
        <time>2021-02-25T15:07:42.000Z</time>
      </trkpt>
    </trkseg>
  </trk>
</gpx>